<?xml version="1.0"?>
<gpx
 version="1.1"
 creator="Satmap Active 20"
 xmlns:xsi="http://www.w3.org/2001/XMLSchema-instance"
 xmlns="http://www.topografix.com/GPX/1/1"
 xmlns:satmap="http://www.satmap.com/updates/xmlschemas/GpxExtensions/v2/GpxExtensions_v2.xsd"
 xsi:schemaLocation="http://www.topografix.com/GPX/1/1 http://www.topografix.com/GPX/1/1/gpx.xsd">
<metadata>
<time>2020-08-16T08:31:56Z</time>
<extensions>
<satmap:platform>43</satmap:platform>
<satmap:software version="3.12.831">SM15.exe</satmap:software>
<satmap:username>Jim Grant</satmap:username>
<satmap:network_ids>
<satmap:network_id type="wifi">00-23-A7-EC-D5-78</satmap:network_id>
<satmap:network_id type="bluetooth">80-BB-EB-D7-5B-7C</satmap:network_id>
</satmap:network_ids>
<satmap:snap_type>simple</satmap:snap_type>
</extensions>
</metadata>
<trk>
<name>2020-08-16_0832</name>
<desc>Track 1</desc>
<number>1</number>
<trkseg>
<trkpt lat="53.180214" lon="-3.896771"><ele>378</ele><time>2020-08-16T08:31:56Z</time><name>PT1</name></trkpt>
<trkpt lat="53.180216" lon="-3.896758"><ele>379</ele><time>2020-08-16T08:32:27Z</time><name>PT2</name></trkpt>
<trkpt lat="53.180217" lon="-3.896752"><ele>378</ele><time>2020-08-16T08:32:29Z</time><name>PT3</name></trkpt>
<trkpt lat="53.180221" lon="-3.896746"><ele>378</ele><time>2020-08-16T08:32:29Z</time><name>PT4</name></trkpt>
<trkpt lat="53.180223" lon="-3.896743"><ele>377</ele><time>2020-08-16T08:32:30Z</time><name>PT5</name></trkpt>
<trkpt lat="53.180224" lon="-3.896743"><ele>377</ele><time>2020-08-16T08:32:32Z</time><name>PT6</name></trkpt>
<trkpt lat="53.180225" lon="-3.896742"><ele>377</ele><time>2020-08-16T08:32:32Z</time><name>PT7</name></trkpt>
<trkpt lat="53.180226" lon="-3.896742"><ele>378</ele><time>2020-08-16T08:32:33Z</time><name>PT8</name></trkpt>
<trkpt lat="53.180227" lon="-3.896752"><ele>377</ele><time>2020-08-16T08:32:38Z</time><name>PT9</name></trkpt>
<trkpt lat="53.180226" lon="-3.896754"><ele>377</ele><time>2020-08-16T08:32:38Z</time><name>PT10</name></trkpt>
<trkpt lat="53.180225" lon="-3.896758"><ele>377</ele><time>2020-08-16T08:32:39Z</time><name>PT11</name></trkpt>
<trkpt lat="53.180221" lon="-3.896757"><ele>377</ele><time>2020-08-16T08:32:41Z</time><name>PT12</name></trkpt>
<trkpt lat="53.180219" lon="-3.896753"><ele>377</ele><time>2020-08-16T08:32:41Z</time><name>PT13</name></trkpt>
<trkpt lat="53.180216" lon="-3.896746"><ele>377</ele><time>2020-08-16T08:32:42Z</time><name>PT14</name></trkpt>
<trkpt lat="53.180212" lon="-3.896743"><ele>378</ele><time>2020-08-16T08:32:47Z</time><name>PT15</name></trkpt>
<trkpt lat="53.180207" lon="-3.896736"><ele>378</ele><time>2020-08-16T08:32:48Z</time><name>PT16</name></trkpt>
<trkpt lat="53.180205" lon="-3.896729"><ele>377</ele><time>2020-08-16T08:32:50Z</time><name>PT17</name></trkpt>
<trkpt lat="53.180211" lon="-3.896718"><ele>378</ele><time>2020-08-16T08:32:50Z</time><name>PT18</name></trkpt>
<trkpt lat="53.180216" lon="-3.896705"><ele>378</ele><time>2020-08-16T08:32:51Z</time><name>PT19</name></trkpt>
<trkpt lat="53.180219" lon="-3.896697"><ele>377</ele><time>2020-08-16T08:32:53Z</time><name>PT20</name></trkpt>
<trkpt lat="53.180221" lon="-3.896689"><ele>377</ele><time>2020-08-16T08:32:53Z</time><name>PT21</name></trkpt>
<trkpt lat="53.180223" lon="-3.896680"><ele>377</ele><time>2020-08-16T08:32:54Z</time><name>PT22</name></trkpt>
<trkpt lat="53.180228" lon="-3.896671"><ele>377</ele><time>2020-08-16T08:32:56Z</time><name>PT23</name></trkpt>
<trkpt lat="53.180231" lon="-3.896661"><ele>376</ele><time>2020-08-16T08:32:56Z</time><name>PT24</name></trkpt>
<trkpt lat="53.180236" lon="-3.896653"><ele>376</ele><time>2020-08-16T08:32:57Z</time><name>PT25</name></trkpt>
<trkpt lat="53.180239" lon="-3.896648"><ele>376</ele><time>2020-08-16T08:32:59Z</time><name>PT26</name></trkpt>
<trkpt lat="53.180241" lon="-3.896645"><ele>376</ele><time>2020-08-16T08:32:59Z</time><name>PT27</name></trkpt>
<trkpt lat="53.180245" lon="-3.896644"><ele>376</ele><time>2020-08-16T08:33:00Z</time><name>PT28</name></trkpt>
<trkpt lat="53.180246" lon="-3.896639"><ele>376</ele><time>2020-08-16T08:33:02Z</time><name>PT29</name></trkpt>
<trkpt lat="53.180249" lon="-3.896634"><ele>376</ele><time>2020-08-16T08:33:02Z</time><name>PT30</name></trkpt>
<trkpt lat="53.180252" lon="-3.896630"><ele>376</ele><time>2020-08-16T08:33:03Z</time><name>PT31</name></trkpt>
<trkpt lat="53.180250" lon="-3.896634"><ele>375</ele><time>2020-08-16T08:33:05Z</time><name>PT32</name></trkpt>
<trkpt lat="53.180247" lon="-3.896644"><ele>376</ele><time>2020-08-16T08:33:06Z</time><name>PT33</name></trkpt>
<trkpt lat="53.180240" lon="-3.896656"><ele>376</ele><time>2020-08-16T08:33:08Z</time><name>PT34</name></trkpt>
<trkpt lat="53.180233" lon="-3.896671"><ele>376</ele><time>2020-08-16T08:33:08Z</time><name>PT35</name></trkpt>
<trkpt lat="53.180227" lon="-3.896684"><ele>376</ele><time>2020-08-16T08:33:09Z</time><name>PT36</name></trkpt>
<trkpt lat="53.180224" lon="-3.896699"><ele>375</ele><time>2020-08-16T08:33:11Z</time><name>PT37</name></trkpt>
<trkpt lat="53.180222" lon="-3.896705"><ele>375</ele><time>2020-08-16T08:33:11Z</time><name>PT38</name></trkpt>
<trkpt lat="53.180222" lon="-3.896707"><ele>375</ele><time>2020-08-16T08:33:12Z</time><name>PT39</name></trkpt>
<trkpt lat="53.180221" lon="-3.896709"><ele>375</ele><time>2020-08-16T08:33:14Z</time><name>PT40</name></trkpt>
<trkpt lat="53.180222" lon="-3.896711"><ele>375</ele><time>2020-08-16T08:33:14Z</time><name>PT41</name></trkpt>
<trkpt lat="53.180226" lon="-3.896709"><ele>375</ele><time>2020-08-16T08:33:20Z</time><name>PT42</name></trkpt>
<trkpt lat="53.180224" lon="-3.896707"><ele>375</ele><time>2020-08-16T08:33:21Z</time><name>PT43</name></trkpt>
<trkpt lat="53.180227" lon="-3.896700"><ele>376</ele><time>2020-08-16T08:33:56Z</time><name>PT44</name></trkpt>
<trkpt lat="53.180226" lon="-3.896698"><ele>376</ele><time>2020-08-16T08:33:56Z</time><name>PT45</name></trkpt>
<trkpt lat="53.180224" lon="-3.896699"><ele>376</ele><time>2020-08-16T08:33:57Z</time><name>PT46</name></trkpt>
<trkpt lat="53.180222" lon="-3.896703"><ele>376</ele><time>2020-08-16T08:33:59Z</time><name>PT47</name></trkpt>
<trkpt lat="53.180217" lon="-3.896707"><ele>377</ele><time>2020-08-16T08:34:05Z</time><name>PT48</name></trkpt>
<trkpt lat="53.180214" lon="-3.896707"><ele>377</ele><time>2020-08-16T08:34:06Z</time><name>PT49</name></trkpt>
<trkpt lat="53.180214" lon="-3.896706"><ele>377</ele><time>2020-08-16T08:34:08Z</time><name>PT50</name></trkpt>
<trkpt lat="53.180214" lon="-3.896706"><ele>377</ele><time>2020-08-16T08:34:08Z</time><name>PT51</name></trkpt>
<trkpt lat="53.180213" lon="-3.896705"><ele>377</ele><time>2020-08-16T08:34:10Z</time><name>PT52</name></trkpt>
<trkpt lat="53.180213" lon="-3.896704"><ele>377</ele><time>2020-08-16T08:34:11Z</time><name>PT53</name></trkpt>
<trkpt lat="53.180212" lon="-3.896702"><ele>377</ele><time>2020-08-16T08:34:11Z</time><name>PT54</name></trkpt>
<trkpt lat="53.180213" lon="-3.896700"><ele>377</ele><time>2020-08-16T08:34:12Z</time><name>PT55</name></trkpt>
<trkpt lat="53.180211" lon="-3.896701"><ele>377</ele><time>2020-08-16T08:34:32Z</time><name>PT56</name></trkpt>
<trkpt lat="53.180209" lon="-3.896704"><ele>377</ele><time>2020-08-16T08:34:33Z</time><name>PT57</name></trkpt>
<trkpt lat="53.180211" lon="-3.896708"><ele>377</ele><time>2020-08-16T08:34:45Z</time><name>PT58</name></trkpt>
<trkpt lat="53.180211" lon="-3.896711"><ele>377</ele><time>2020-08-16T08:34:47Z</time><name>PT59</name></trkpt>
<trkpt lat="53.180211" lon="-3.896715"><ele>377</ele><time>2020-08-16T08:34:47Z</time><name>PT60</name></trkpt>
<trkpt lat="53.180209" lon="-3.896719"><ele>377</ele><time>2020-08-16T08:34:48Z</time><name>PT61</name></trkpt>
<trkpt lat="53.180208" lon="-3.896721"><ele>377</ele><time>2020-08-16T08:35:08Z</time><name>PT62</name></trkpt>
<trkpt lat="53.180208" lon="-3.896721"><ele>377</ele><time>2020-08-16T08:35:09Z</time><name>PT63</name></trkpt>
<trkpt lat="53.180208" lon="-3.896722"><ele>377</ele><time>2020-08-16T08:35:11Z</time><name>PT64</name></trkpt>
<trkpt lat="53.180208" lon="-3.896723"><ele>377</ele><time>2020-08-16T08:35:11Z</time><name>PT65</name></trkpt>
<trkpt lat="53.180210" lon="-3.896723"><ele>377</ele><time>2020-08-16T08:35:12Z</time><name>PT66</name></trkpt>
<trkpt lat="53.180211" lon="-3.896717"><ele>376</ele><time>2020-08-16T08:35:20Z</time><name>PT67</name></trkpt>
<trkpt lat="53.180218" lon="-3.896714"><ele>376</ele><time>2020-08-16T08:35:24Z</time><name>PT68</name></trkpt>
<trkpt lat="53.180216" lon="-3.896721"><ele>376</ele><time>2020-08-16T08:35:30Z</time><name>PT69</name></trkpt>
<trkpt lat="53.180212" lon="-3.896725"><ele>377</ele><time>2020-08-16T08:35:34Z</time><name>PT70</name></trkpt>
<trkpt lat="53.180211" lon="-3.896731"><ele>377</ele><time>2020-08-16T08:35:38Z</time><name>PT71</name></trkpt>
<trkpt lat="53.180203" lon="-3.896738"><ele>377</ele><time>2020-08-16T08:36:25Z</time><name>PT72</name></trkpt>
<trkpt lat="53.180187" lon="-3.896763"><ele>377</ele><time>2020-08-16T08:36:29Z</time><name>PT73</name></trkpt>
<trkpt lat="53.180186" lon="-3.896780"><ele>377</ele><time>2020-08-16T08:36:32Z</time><name>PT74</name></trkpt>
<trkpt lat="53.180185" lon="-3.896784"><ele>377</ele><time>2020-08-16T08:36:35Z</time><name>PT75</name></trkpt>
<trkpt lat="53.180174" lon="-3.896804"><ele>377</ele><time>2020-08-16T08:36:38Z</time><name>PT76</name></trkpt>
<trkpt lat="53.180171" lon="-3.896805"><ele>377</ele><time>2020-08-16T08:36:41Z</time><name>PT77</name></trkpt>
<trkpt lat="53.180147" lon="-3.896838"><ele>378</ele><time>2020-08-16T08:36:48Z</time><name>PT78</name></trkpt>
<trkpt lat="53.180115" lon="-3.896895"><ele>377</ele><time>2020-08-16T08:36:53Z</time><name>PT79</name></trkpt>
<trkpt lat="53.180093" lon="-3.896934"><ele>377</ele><time>2020-08-16T08:36:56Z</time><name>PT80</name></trkpt>
<trkpt lat="53.180070" lon="-3.896974"><ele>377</ele><time>2020-08-16T08:36:59Z</time><name>PT81</name></trkpt>
<trkpt lat="53.180047" lon="-3.897012"><ele>377</ele><time>2020-08-16T08:37:02Z</time><name>PT82</name></trkpt>
<trkpt lat="53.180005" lon="-3.897070"><ele>378</ele><time>2020-08-16T08:37:05Z</time><name>PT83</name></trkpt>
<trkpt lat="53.179968" lon="-3.897130"><ele>378</ele><time>2020-08-16T08:37:09Z</time><name>PT84</name></trkpt>
<trkpt lat="53.179942" lon="-3.897171"><ele>378</ele><time>2020-08-16T08:37:12Z</time><name>PT85</name></trkpt>
<trkpt lat="53.179912" lon="-3.897229"><ele>378</ele><time>2020-08-16T08:37:17Z</time><name>PT86</name></trkpt>
<trkpt lat="53.179880" lon="-3.897292"><ele>378</ele><time>2020-08-16T08:37:20Z</time><name>PT87</name></trkpt>
<trkpt lat="53.179849" lon="-3.897350"><ele>378</ele><time>2020-08-16T08:37:24Z</time><name>PT88</name></trkpt>
<trkpt lat="53.179827" lon="-3.897386"><ele>377</ele><time>2020-08-16T08:37:28Z</time><name>PT89</name></trkpt>
<trkpt lat="53.179804" lon="-3.897443"><ele>377</ele><time>2020-08-16T08:37:32Z</time><name>PT90</name></trkpt>
<trkpt lat="53.179777" lon="-3.897482"><ele>376</ele><time>2020-08-16T08:37:35Z</time><name>PT91</name></trkpt>
<trkpt lat="53.179738" lon="-3.897548"><ele>377</ele><time>2020-08-16T08:37:38Z</time><name>PT92</name></trkpt>
<trkpt lat="53.179708" lon="-3.897608"><ele>376</ele><time>2020-08-16T08:37:42Z</time><name>PT93</name></trkpt>
<trkpt lat="53.179681" lon="-3.897651"><ele>376</ele><time>2020-08-16T08:37:45Z</time><name>PT94</name></trkpt>
<trkpt lat="53.179656" lon="-3.897697"><ele>376</ele><time>2020-08-16T08:37:48Z</time><name>PT95</name></trkpt>
<trkpt lat="53.179620" lon="-3.897754"><ele>376</ele><time>2020-08-16T08:37:53Z</time><name>PT96</name></trkpt>
<trkpt lat="53.179594" lon="-3.897799"><ele>376</ele><time>2020-08-16T08:37:56Z</time><name>PT97</name></trkpt>
<trkpt lat="53.179567" lon="-3.897844"><ele>376</ele><time>2020-08-16T08:37:59Z</time><name>PT98</name></trkpt>
<trkpt lat="53.179530" lon="-3.897906"><ele>376</ele><time>2020-08-16T08:38:02Z</time><name>PT99</name></trkpt>
<trkpt lat="53.179502" lon="-3.897954"><ele>376</ele><time>2020-08-16T08:38:05Z</time><name>PT100</name></trkpt>
<trkpt lat="53.179466" lon="-3.897995"><ele>376</ele><time>2020-08-16T08:38:08Z</time><name>PT101</name></trkpt>
<trkpt lat="53.179438" lon="-3.898041"><ele>377</ele><time>2020-08-16T08:38:11Z</time><name>PT102</name></trkpt>
<trkpt lat="53.179408" lon="-3.898082"><ele>377</ele><time>2020-08-16T08:38:14Z</time><name>PT103</name></trkpt>
<trkpt lat="53.179373" lon="-3.898150"><ele>376</ele><time>2020-08-16T08:38:18Z</time><name>PT104</name></trkpt>
<trkpt lat="53.179343" lon="-3.898191"><ele>377</ele><time>2020-08-16T08:38:22Z</time><name>PT105</name></trkpt>
<trkpt lat="53.179308" lon="-3.898259"><ele>376</ele><time>2020-08-16T08:38:26Z</time><name>PT106</name></trkpt>
<trkpt lat="53.179271" lon="-3.898318"><ele>376</ele><time>2020-08-16T08:38:29Z</time><name>PT107</name></trkpt>
<trkpt lat="53.179236" lon="-3.898375"><ele>376</ele><time>2020-08-16T08:38:33Z</time><name>PT108</name></trkpt>
<trkpt lat="53.179214" lon="-3.898420"><ele>376</ele><time>2020-08-16T08:38:36Z</time><name>PT109</name></trkpt>
<trkpt lat="53.179190" lon="-3.898465"><ele>376</ele><time>2020-08-16T08:38:39Z</time><name>PT110</name></trkpt>
<trkpt lat="53.179165" lon="-3.898513"><ele>376</ele><time>2020-08-16T08:38:43Z</time><name>PT111</name></trkpt>
<trkpt lat="53.179128" lon="-3.898576"><ele>376</ele><time>2020-08-16T08:38:47Z</time><name>PT112</name></trkpt>
<trkpt lat="53.179101" lon="-3.898623"><ele>376</ele><time>2020-08-16T08:38:50Z</time><name>PT113</name></trkpt>
<trkpt lat="53.179070" lon="-3.898670"><ele>377</ele><time>2020-08-16T08:38:53Z</time><name>PT114</name></trkpt>
<trkpt lat="53.179029" lon="-3.898732"><ele>377</ele><time>2020-08-16T08:38:56Z</time><name>PT115</name></trkpt>
<trkpt lat="53.178987" lon="-3.898792"><ele>377</ele><time>2020-08-16T08:39:00Z</time><name>PT116</name></trkpt>
<trkpt lat="53.178963" lon="-3.898838"><ele>378</ele><time>2020-08-16T08:39:03Z</time><name>PT117</name></trkpt>
<trkpt lat="53.178941" lon="-3.898886"><ele>377</ele><time>2020-08-16T08:39:06Z</time><name>PT118</name></trkpt>
<trkpt lat="53.178909" lon="-3.898923"><ele>377</ele><time>2020-08-16T08:39:09Z</time><name>PT119</name></trkpt>
<trkpt lat="53.178874" lon="-3.898986"><ele>377</ele><time>2020-08-16T08:39:14Z</time><name>PT120</name></trkpt>
<trkpt lat="53.178840" lon="-3.899047"><ele>377</ele><time>2020-08-16T08:39:17Z</time><name>PT121</name></trkpt>
<trkpt lat="53.178808" lon="-3.899098"><ele>375</ele><time>2020-08-16T08:39:21Z</time><name>PT122</name></trkpt>
<trkpt lat="53.178783" lon="-3.899140"><ele>375</ele><time>2020-08-16T08:39:24Z</time><name>PT123</name></trkpt>
<trkpt lat="53.178771" lon="-3.899181"><ele>375</ele><time>2020-08-16T08:39:27Z</time><name>PT124</name></trkpt>
<trkpt lat="53.178746" lon="-3.899225"><ele>375</ele><time>2020-08-16T08:39:32Z</time><name>PT125</name></trkpt>
<trkpt lat="53.178724" lon="-3.899268"><ele>375</ele><time>2020-08-16T08:39:35Z</time><name>PT126</name></trkpt>
<trkpt lat="53.178708" lon="-3.899291"><ele>376</ele><time>2020-08-16T08:39:38Z</time><name>PT127</name></trkpt>
<trkpt lat="53.178703" lon="-3.899296"><ele>376</ele><time>2020-08-16T08:39:41Z</time><name>PT128</name></trkpt>
<trkpt lat="53.178692" lon="-3.899297"><ele>376</ele><time>2020-08-16T08:39:46Z</time><name>PT129</name></trkpt>
<trkpt lat="53.178691" lon="-3.899302"><ele>376</ele><time>2020-08-16T08:40:00Z</time><name>PT130</name></trkpt>
<trkpt lat="53.178690" lon="-3.899302"><ele>376</ele><time>2020-08-16T08:40:03Z</time><name>PT131</name></trkpt>
<trkpt lat="53.178688" lon="-3.899302"><ele>376</ele><time>2020-08-16T08:40:21Z</time><name>PT132</name></trkpt>
<trkpt lat="53.178684" lon="-3.899309"><ele>376</ele><time>2020-08-16T08:40:24Z</time><name>PT133</name></trkpt>
<trkpt lat="53.178677" lon="-3.899324"><ele>377</ele><time>2020-08-16T08:40:41Z</time><name>PT134</name></trkpt>
<trkpt lat="53.178676" lon="-3.899325"><ele>377</ele><time>2020-08-16T08:40:45Z</time><name>PT135</name></trkpt>
<trkpt lat="53.178673" lon="-3.899326"><ele>377</ele><time>2020-08-16T08:41:11Z</time><name>PT136</name></trkpt>
<trkpt lat="53.178673" lon="-3.899323"><ele>378</ele><time>2020-08-16T08:41:15Z</time><name>PT137</name></trkpt>
<trkpt lat="53.178667" lon="-3.899324"><ele>379</ele><time>2020-08-16T08:43:11Z</time><name>PT138</name></trkpt>
<trkpt lat="53.178666" lon="-3.899322"><ele>381</ele><time>2020-08-16T08:43:23Z</time><name>PT139</name></trkpt>
<trkpt lat="53.178664" lon="-3.899325"><ele>380</ele><time>2020-08-16T08:43:26Z</time><name>PT140</name></trkpt>
<trkpt lat="53.178664" lon="-3.899326"><ele>380</ele><time>2020-08-16T08:44:26Z</time><name>PT141</name></trkpt>
<trkpt lat="53.178662" lon="-3.899324"><ele>380</ele><time>2020-08-16T08:44:27Z</time><name>PT142</name></trkpt>
<trkpt lat="53.178661" lon="-3.899325"><ele>380</ele><time>2020-08-16T08:44:29Z</time><name>PT143</name></trkpt>
<trkpt lat="53.178660" lon="-3.899328"><ele>380</ele><time>2020-08-16T08:44:29Z</time><name>PT144</name></trkpt>
<trkpt lat="53.178660" lon="-3.899326"><ele>380</ele><time>2020-08-16T08:44:32Z</time><name>PT145</name></trkpt>
<trkpt lat="53.178659" lon="-3.899329"><ele>380</ele><time>2020-08-16T08:44:33Z</time><name>PT146</name></trkpt>
<trkpt lat="53.178657" lon="-3.899337"><ele>380</ele><time>2020-08-16T08:44:35Z</time><name>PT147</name></trkpt>
<trkpt lat="53.178653" lon="-3.899339"><ele>380</ele><time>2020-08-16T08:44:35Z</time><name>PT148</name></trkpt>
<trkpt lat="53.178645" lon="-3.899350"><ele>380</ele><time>2020-08-16T08:44:36Z</time><name>PT149</name></trkpt>
<trkpt lat="53.178638" lon="-3.899358"><ele>380</ele><time>2020-08-16T08:44:38Z</time><name>PT150</name></trkpt>
<trkpt lat="53.178631" lon="-3.899362"><ele>379</ele><time>2020-08-16T08:44:38Z</time><name>PT151</name></trkpt>
<trkpt lat="53.178625" lon="-3.899368"><ele>379</ele><time>2020-08-16T08:44:39Z</time><name>PT152</name></trkpt>
<trkpt lat="53.178617" lon="-3.899374"><ele>379</ele><time>2020-08-16T08:44:41Z</time><name>PT153</name></trkpt>
<trkpt lat="53.178610" lon="-3.899382"><ele>379</ele><time>2020-08-16T08:44:41Z</time><name>PT154</name></trkpt>
<trkpt lat="53.178603" lon="-3.899392"><ele>379</ele><time>2020-08-16T08:44:42Z</time><name>PT155</name></trkpt>
<trkpt lat="53.178598" lon="-3.899403"><ele>379</ele><time>2020-08-16T08:44:44Z</time><name>PT156</name></trkpt>
<trkpt lat="53.178591" lon="-3.899413"><ele>379</ele><time>2020-08-16T08:44:44Z</time><name>PT157</name></trkpt>
<trkpt lat="53.178583" lon="-3.899424"><ele>379</ele><time>2020-08-16T08:44:45Z</time><name>PT158</name></trkpt>
<trkpt lat="53.178576" lon="-3.899435"><ele>379</ele><time>2020-08-16T08:44:47Z</time><name>PT159</name></trkpt>
<trkpt lat="53.178571" lon="-3.899444"><ele>378</ele><time>2020-08-16T08:44:47Z</time><name>PT160</name></trkpt>
<trkpt lat="53.178565" lon="-3.899452"><ele>378</ele><time>2020-08-16T08:44:48Z</time><name>PT161</name></trkpt>
<trkpt lat="53.178561" lon="-3.899459"><ele>378</ele><time>2020-08-16T08:44:50Z</time><name>PT162</name></trkpt>
<trkpt lat="53.178557" lon="-3.899464"><ele>378</ele><time>2020-08-16T08:44:50Z</time><name>PT163</name></trkpt>
<trkpt lat="53.178553" lon="-3.899465"><ele>378</ele><time>2020-08-16T08:44:51Z</time><name>PT164</name></trkpt>
<trkpt lat="53.178548" lon="-3.899470"><ele>378</ele><time>2020-08-16T08:44:53Z</time><name>PT165</name></trkpt>
<trkpt lat="53.178543" lon="-3.899477"><ele>378</ele><time>2020-08-16T08:44:53Z</time><name>PT166</name></trkpt>
<trkpt lat="53.178537" lon="-3.899483"><ele>378</ele><time>2020-08-16T08:44:54Z</time><name>PT167</name></trkpt>
<trkpt lat="53.178531" lon="-3.899490"><ele>378</ele><time>2020-08-16T08:44:56Z</time><name>PT168</name></trkpt>
<trkpt lat="53.178525" lon="-3.899496"><ele>378</ele><time>2020-08-16T08:44:56Z</time><name>PT169</name></trkpt>
<trkpt lat="53.178522" lon="-3.899501"><ele>379</ele><time>2020-08-16T08:44:57Z</time><name>PT170</name></trkpt>
<trkpt lat="53.178523" lon="-3.899507"><ele>378</ele><time>2020-08-16T08:44:59Z</time><name>PT171</name></trkpt>
<trkpt lat="53.178524" lon="-3.899506"><ele>378</ele><time>2020-08-16T08:44:59Z</time><name>PT172</name></trkpt>
<trkpt lat="53.178525" lon="-3.899508"><ele>378</ele><time>2020-08-16T08:45:00Z</time><name>PT173</name></trkpt>
<trkpt lat="53.178525" lon="-3.899509"><ele>378</ele><time>2020-08-16T08:45:02Z</time><name>PT174</name></trkpt>
<trkpt lat="53.178522" lon="-3.899520"><ele>379</ele><time>2020-08-16T08:45:17Z</time><name>PT175</name></trkpt>
<trkpt lat="53.178518" lon="-3.899517"><ele>379</ele><time>2020-08-16T08:45:19Z</time><name>PT176</name></trkpt>
<trkpt lat="53.178513" lon="-3.899516"><ele>379</ele><time>2020-08-16T08:45:20Z</time><name>PT177</name></trkpt>
<trkpt lat="53.178511" lon="-3.899516"><ele>379</ele><time>2020-08-16T08:45:20Z</time><name>PT178</name></trkpt>
<trkpt lat="53.178504" lon="-3.899516"><ele>379</ele><time>2020-08-16T08:45:21Z</time><name>PT179</name></trkpt>
<trkpt lat="53.178501" lon="-3.899517"><ele>379</ele><time>2020-08-16T08:45:23Z</time><name>PT180</name></trkpt>
<trkpt lat="53.178498" lon="-3.899515"><ele>379</ele><time>2020-08-16T08:45:25Z</time><name>PT181</name></trkpt>
<trkpt lat="53.178495" lon="-3.899523"><ele>379</ele><time>2020-08-16T08:45:26Z</time><name>PT182</name></trkpt>
<trkpt lat="53.178490" lon="-3.899529"><ele>380</ele><time>2020-08-16T08:45:26Z</time><name>PT183</name></trkpt>
<trkpt lat="53.178487" lon="-3.899539"><ele>380</ele><time>2020-08-16T08:45:27Z</time><name>PT184</name></trkpt>
<trkpt lat="53.178487" lon="-3.899558"><ele>380</ele><time>2020-08-16T08:45:29Z</time><name>PT185</name></trkpt>
<trkpt lat="53.178481" lon="-3.899571"><ele>380</ele><time>2020-08-16T08:45:29Z</time><name>PT186</name></trkpt>
<trkpt lat="53.178476" lon="-3.899584"><ele>380</ele><time>2020-08-16T08:45:30Z</time><name>PT187</name></trkpt>
<trkpt lat="53.178469" lon="-3.899598"><ele>380</ele><time>2020-08-16T08:45:32Z</time><name>PT188</name></trkpt>
<trkpt lat="53.178464" lon="-3.899611"><ele>380</ele><time>2020-08-16T08:45:32Z</time><name>PT189</name></trkpt>
<trkpt lat="53.178457" lon="-3.899623"><ele>380</ele><time>2020-08-16T08:45:33Z</time><name>PT190</name></trkpt>
<trkpt lat="53.178450" lon="-3.899638"><ele>380</ele><time>2020-08-16T08:45:35Z</time><name>PT191</name></trkpt>
<trkpt lat="53.178445" lon="-3.899656"><ele>380</ele><time>2020-08-16T08:45:35Z</time><name>PT192</name></trkpt>
<trkpt lat="53.178439" lon="-3.899670"><ele>379</ele><time>2020-08-16T08:45:36Z</time><name>PT193</name></trkpt>
<trkpt lat="53.178433" lon="-3.899682"><ele>379</ele><time>2020-08-16T08:45:38Z</time><name>PT194</name></trkpt>
<trkpt lat="53.178424" lon="-3.899695"><ele>379</ele><time>2020-08-16T08:45:38Z</time><name>PT195</name></trkpt>
<trkpt lat="53.178415" lon="-3.899710"><ele>379</ele><time>2020-08-16T08:45:39Z</time><name>PT196</name></trkpt>
<trkpt lat="53.178403" lon="-3.899722"><ele>379</ele><time>2020-08-16T08:45:41Z</time><name>PT197</name></trkpt>
<trkpt lat="53.178394" lon="-3.899736"><ele>379</ele><time>2020-08-16T08:45:41Z</time><name>PT198</name></trkpt>
<trkpt lat="53.178384" lon="-3.899751"><ele>379</ele><time>2020-08-16T08:45:42Z</time><name>PT199</name></trkpt>
<trkpt lat="53.178375" lon="-3.899764"><ele>379</ele><time>2020-08-16T08:45:44Z</time><name>PT200</name></trkpt>
<trkpt lat="53.178365" lon="-3.899778"><ele>379</ele><time>2020-08-16T08:45:44Z</time><name>PT201</name></trkpt>
<trkpt lat="53.178358" lon="-3.899794"><ele>379</ele><time>2020-08-16T08:45:45Z</time><name>PT202</name></trkpt>
<trkpt lat="53.178351" lon="-3.899808"><ele>379</ele><time>2020-08-16T08:45:47Z</time><name>PT203</name></trkpt>
<trkpt lat="53.178343" lon="-3.899821"><ele>379</ele><time>2020-08-16T08:45:47Z</time><name>PT204</name></trkpt>
<trkpt lat="53.178338" lon="-3.899836"><ele>379</ele><time>2020-08-16T08:45:49Z</time><name>PT205</name></trkpt>
<trkpt lat="53.178329" lon="-3.899851"><ele>379</ele><time>2020-08-16T08:45:50Z</time><name>PT206</name></trkpt>
<trkpt lat="53.178318" lon="-3.899868"><ele>379</ele><time>2020-08-16T08:45:50Z</time><name>PT207</name></trkpt>
<trkpt lat="53.178308" lon="-3.899882"><ele>379</ele><time>2020-08-16T08:45:51Z</time><name>PT208</name></trkpt>
<trkpt lat="53.178300" lon="-3.899897"><ele>379</ele><time>2020-08-16T08:45:53Z</time><name>PT209</name></trkpt>
<trkpt lat="53.178290" lon="-3.899913"><ele>379</ele><time>2020-08-16T08:45:53Z</time><name>PT210</name></trkpt>
<trkpt lat="53.178281" lon="-3.899930"><ele>379</ele><time>2020-08-16T08:45:54Z</time><name>PT211</name></trkpt>
<trkpt lat="53.178273" lon="-3.899946"><ele>379</ele><time>2020-08-16T08:45:56Z</time><name>PT212</name></trkpt>
<trkpt lat="53.178261" lon="-3.899962"><ele>379</ele><time>2020-08-16T08:45:56Z</time><name>PT213</name></trkpt>
<trkpt lat="53.178246" lon="-3.899978"><ele>379</ele><time>2020-08-16T08:45:57Z</time><name>PT214</name></trkpt>
<trkpt lat="53.178234" lon="-3.899992"><ele>378</ele><time>2020-08-16T08:45:59Z</time><name>PT215</name></trkpt>
<trkpt lat="53.178224" lon="-3.900007"><ele>378</ele><time>2020-08-16T08:45:59Z</time><name>PT216</name></trkpt>
<trkpt lat="53.178214" lon="-3.900024"><ele>378</ele><time>2020-08-16T08:46:00Z</time><name>PT217</name></trkpt>
<trkpt lat="53.178203" lon="-3.900043"><ele>378</ele><time>2020-08-16T08:46:02Z</time><name>PT218</name></trkpt>
<trkpt lat="53.178193" lon="-3.900061"><ele>378</ele><time>2020-08-16T08:46:02Z</time><name>PT219</name></trkpt>
<trkpt lat="53.178185" lon="-3.900076"><ele>378</ele><time>2020-08-16T08:46:03Z</time><name>PT220</name></trkpt>
<trkpt lat="53.178174" lon="-3.900091"><ele>378</ele><time>2020-08-16T08:46:05Z</time><name>PT221</name></trkpt>
<trkpt lat="53.178162" lon="-3.900109"><ele>378</ele><time>2020-08-16T08:46:05Z</time><name>PT222</name></trkpt>
<trkpt lat="53.178149" lon="-3.900126"><ele>378</ele><time>2020-08-16T08:46:06Z</time><name>PT223</name></trkpt>
<trkpt lat="53.178137" lon="-3.900142"><ele>378</ele><time>2020-08-16T08:46:08Z</time><name>PT224</name></trkpt>
<trkpt lat="53.178128" lon="-3.900158"><ele>378</ele><time>2020-08-16T08:46:08Z</time><name>PT225</name></trkpt>
<trkpt lat="53.178120" lon="-3.900174"><ele>378</ele><time>2020-08-16T08:46:09Z</time><name>PT226</name></trkpt>
<trkpt lat="53.178111" lon="-3.900190"><ele>378</ele><time>2020-08-16T08:46:11Z</time><name>PT227</name></trkpt>
<trkpt lat="53.178098" lon="-3.900209"><ele>378</ele><time>2020-08-16T08:46:11Z</time><name>PT228</name></trkpt>
<trkpt lat="53.178087" lon="-3.900226"><ele>378</ele><time>2020-08-16T08:46:12Z</time><name>PT229</name></trkpt>
<trkpt lat="53.178075" lon="-3.900241"><ele>378</ele><time>2020-08-16T08:46:14Z</time><name>PT230</name></trkpt>
<trkpt lat="53.178065" lon="-3.900256"><ele>378</ele><time>2020-08-16T08:46:14Z</time><name>PT231</name></trkpt>
<trkpt lat="53.178056" lon="-3.900273"><ele>378</ele><time>2020-08-16T08:46:15Z</time><name>PT232</name></trkpt>
<trkpt lat="53.178048" lon="-3.900287"><ele>378</ele><time>2020-08-16T08:46:17Z</time><name>PT233</name></trkpt>
<trkpt lat="53.178040" lon="-3.900303"><ele>378</ele><time>2020-08-16T08:46:17Z</time><name>PT234</name></trkpt>
<trkpt lat="53.178031" lon="-3.900319"><ele>378</ele><time>2020-08-16T08:46:18Z</time><name>PT235</name></trkpt>
<trkpt lat="53.178020" lon="-3.900334"><ele>378</ele><time>2020-08-16T08:46:20Z</time><name>PT236</name></trkpt>
<trkpt lat="53.178008" lon="-3.900350"><ele>378</ele><time>2020-08-16T08:46:20Z</time><name>PT237</name></trkpt>
<trkpt lat="53.178000" lon="-3.900369"><ele>378</ele><time>2020-08-16T08:46:21Z</time><name>PT238</name></trkpt>
<trkpt lat="53.177994" lon="-3.900387"><ele>378</ele><time>2020-08-16T08:46:23Z</time><name>PT239</name></trkpt>
<trkpt lat="53.177984" lon="-3.900401"><ele>378</ele><time>2020-08-16T08:46:23Z</time><name>PT240</name></trkpt>
<trkpt lat="53.177976" lon="-3.900415"><ele>378</ele><time>2020-08-16T08:46:24Z</time><name>PT241</name></trkpt>
<trkpt lat="53.177967" lon="-3.900428"><ele>378</ele><time>2020-08-16T08:46:26Z</time><name>PT242</name></trkpt>
<trkpt lat="53.177939" lon="-3.900468"><ele>378</ele><time>2020-08-16T08:46:29Z</time><name>PT243</name></trkpt>
<trkpt lat="53.177904" lon="-3.900528"><ele>378</ele><time>2020-08-16T08:46:32Z</time><name>PT244</name></trkpt>
<trkpt lat="53.177875" lon="-3.900592"><ele>378</ele><time>2020-08-16T08:46:36Z</time><name>PT245</name></trkpt>
<trkpt lat="53.177843" lon="-3.900645"><ele>379</ele><time>2020-08-16T08:46:41Z</time><name>PT246</name></trkpt>
<trkpt lat="53.177808" lon="-3.900697"><ele>379</ele><time>2020-08-16T08:46:44Z</time><name>PT247</name></trkpt>
<trkpt lat="53.177770" lon="-3.900746"><ele>378</ele><time>2020-08-16T08:46:48Z</time><name>PT248</name></trkpt>
<trkpt lat="53.177744" lon="-3.900781"><ele>378</ele><time>2020-08-16T08:46:51Z</time><name>PT249</name></trkpt>
<trkpt lat="53.177718" lon="-3.900817"><ele>378</ele><time>2020-08-16T08:46:54Z</time><name>PT250</name></trkpt>
<trkpt lat="53.177683" lon="-3.900868"><ele>378</ele><time>2020-08-16T08:46:59Z</time><name>PT251</name></trkpt>
<trkpt lat="53.177643" lon="-3.900917"><ele>378</ele><time>2020-08-16T08:47:02Z</time><name>PT252</name></trkpt>
<trkpt lat="53.177612" lon="-3.900956"><ele>378</ele><time>2020-08-16T08:47:05Z</time><name>PT253</name></trkpt>
<trkpt lat="53.177581" lon="-3.901013"><ele>377</ele><time>2020-08-16T08:47:09Z</time><name>PT254</name></trkpt>
<trkpt lat="53.177542" lon="-3.901064"><ele>377</ele><time>2020-08-16T08:47:14Z</time><name>PT255</name></trkpt>
<trkpt lat="53.177513" lon="-3.901110"><ele>377</ele><time>2020-08-16T08:47:17Z</time><name>PT256</name></trkpt>
<trkpt lat="53.177482" lon="-3.901152"><ele>377</ele><time>2020-08-16T08:47:20Z</time><name>PT257</name></trkpt>
<trkpt lat="53.177444" lon="-3.901207"><ele>377</ele><time>2020-08-16T08:47:23Z</time><name>PT258</name></trkpt>
<trkpt lat="53.177402" lon="-3.901264"><ele>377</ele><time>2020-08-16T08:47:27Z</time><name>PT259</name></trkpt>
<trkpt lat="53.177363" lon="-3.901319"><ele>377</ele><time>2020-08-16T08:47:32Z</time><name>PT260</name></trkpt>
<trkpt lat="53.177322" lon="-3.901366"><ele>376</ele><time>2020-08-16T08:47:35Z</time><name>PT261</name></trkpt>
<trkpt lat="53.177293" lon="-3.901402"><ele>376</ele><time>2020-08-16T08:47:38Z</time><name>PT262</name></trkpt>
<trkpt lat="53.177254" lon="-3.901453"><ele>375</ele><time>2020-08-16T08:47:42Z</time><name>PT263</name></trkpt>
<trkpt lat="53.177222" lon="-3.901495"><ele>375</ele><time>2020-08-16T08:47:45Z</time><name>PT264</name></trkpt>
<trkpt lat="53.177180" lon="-3.901556"><ele>376</ele><time>2020-08-16T08:47:50Z</time><name>PT265</name></trkpt>
<trkpt lat="53.177149" lon="-3.901594"><ele>376</ele><time>2020-08-16T08:47:53Z</time><name>PT266</name></trkpt>
<trkpt lat="53.177107" lon="-3.901648"><ele>375</ele><time>2020-08-16T08:47:56Z</time><name>PT267</name></trkpt>
<trkpt lat="53.177079" lon="-3.901683"><ele>375</ele><time>2020-08-16T08:47:59Z</time><name>PT268</name></trkpt>
<trkpt lat="53.177038" lon="-3.901729"><ele>375</ele><time>2020-08-16T08:48:03Z</time><name>PT269</name></trkpt>
<trkpt lat="53.176999" lon="-3.901781"><ele>374</ele><time>2020-08-16T08:48:08Z</time><name>PT270</name></trkpt>
<trkpt lat="53.176955" lon="-3.901829"><ele>374</ele><time>2020-08-16T08:48:11Z</time><name>PT271</name></trkpt>
<trkpt lat="53.176912" lon="-3.901875"><ele>374</ele><time>2020-08-16T08:48:15Z</time><name>PT272</name></trkpt>
<trkpt lat="53.176881" lon="-3.901908"><ele>374</ele><time>2020-08-16T08:48:18Z</time><name>PT273</name></trkpt>
<trkpt lat="53.176849" lon="-3.901944"><ele>373</ele><time>2020-08-16T08:48:23Z</time><name>PT274</name></trkpt>
<trkpt lat="53.176820" lon="-3.901974"><ele>373</ele><time>2020-08-16T08:48:26Z</time><name>PT275</name></trkpt>
<trkpt lat="53.176785" lon="-3.902020"><ele>373</ele><time>2020-08-16T08:48:29Z</time><name>PT276</name></trkpt>
<trkpt lat="53.176747" lon="-3.902070"><ele>373</ele><time>2020-08-16T08:48:33Z</time><name>PT277</name></trkpt>
<trkpt lat="53.176718" lon="-3.902103"><ele>373</ele><time>2020-08-16T08:48:36Z</time><name>PT278</name></trkpt>
<trkpt lat="53.176690" lon="-3.902146"><ele>376</ele><time>2020-08-16T08:48:39Z</time><name>PT279</name></trkpt>
<trkpt lat="53.176660" lon="-3.902183"><ele>376</ele><time>2020-08-16T08:48:43Z</time><name>PT280</name></trkpt>
<trkpt lat="53.176625" lon="-3.902225"><ele>376</ele><time>2020-08-16T08:48:47Z</time><name>PT281</name></trkpt>
<trkpt lat="53.176594" lon="-3.902258"><ele>376</ele><time>2020-08-16T08:48:50Z</time><name>PT282</name></trkpt>
<trkpt lat="53.176552" lon="-3.902307"><ele>375</ele><time>2020-08-16T08:48:53Z</time><name>PT283</name></trkpt>
<trkpt lat="53.176523" lon="-3.902346"><ele>375</ele><time>2020-08-16T08:48:56Z</time><name>PT284</name></trkpt>
<trkpt lat="53.176481" lon="-3.902383"><ele>375</ele><time>2020-08-16T08:49:00Z</time><name>PT285</name></trkpt>
<trkpt lat="53.176433" lon="-3.902434"><ele>374</ele><time>2020-08-16T08:49:05Z</time><name>PT286</name></trkpt>
<trkpt lat="53.176391" lon="-3.902481"><ele>374</ele><time>2020-08-16T08:49:08Z</time><name>PT287</name></trkpt>
<trkpt lat="53.176360" lon="-3.902519"><ele>374</ele><time>2020-08-16T08:49:11Z</time><name>PT288</name></trkpt>
<trkpt lat="53.176315" lon="-3.902570"><ele>374</ele><time>2020-08-16T08:49:15Z</time><name>PT289</name></trkpt>
<trkpt lat="53.176270" lon="-3.902624"><ele>374</ele><time>2020-08-16T08:49:20Z</time><name>PT290</name></trkpt>
<trkpt lat="53.176240" lon="-3.902667"><ele>374</ele><time>2020-08-16T08:49:23Z</time><name>PT291</name></trkpt>
<trkpt lat="53.176205" lon="-3.902698"><ele>374</ele><time>2020-08-16T08:49:26Z</time><name>PT292</name></trkpt>
<trkpt lat="53.176163" lon="-3.902746"><ele>374</ele><time>2020-08-16T08:49:29Z</time><name>PT293</name></trkpt>
<trkpt lat="53.176120" lon="-3.902803"><ele>373</ele><time>2020-08-16T08:49:33Z</time><name>PT294</name></trkpt>
<trkpt lat="53.176079" lon="-3.902855"><ele>373</ele><time>2020-08-16T08:49:38Z</time><name>PT295</name></trkpt>
<trkpt lat="53.176037" lon="-3.902910"><ele>374</ele><time>2020-08-16T08:49:41Z</time><name>PT296</name></trkpt>
<trkpt lat="53.175993" lon="-3.902956"><ele>374</ele><time>2020-08-16T08:49:45Z</time><name>PT297</name></trkpt>
<trkpt lat="53.175963" lon="-3.902992"><ele>375</ele><time>2020-08-16T08:49:49Z</time><name>PT298</name></trkpt>
<trkpt lat="53.175931" lon="-3.903031"><ele>375</ele><time>2020-08-16T08:49:52Z</time><name>PT299</name></trkpt>
<trkpt lat="53.175901" lon="-3.903067"><ele>375</ele><time>2020-08-16T08:49:55Z</time><name>PT300</name></trkpt>
<trkpt lat="53.175858" lon="-3.903119"><ele>376</ele><time>2020-08-16T08:49:59Z</time><name>PT301</name></trkpt>
<trkpt lat="53.175829" lon="-3.903155"><ele>376</ele><time>2020-08-16T08:50:02Z</time><name>PT302</name></trkpt>
<trkpt lat="53.175797" lon="-3.903198"><ele>376</ele><time>2020-08-16T08:50:05Z</time><name>PT303</name></trkpt>
<trkpt lat="53.175758" lon="-3.903250"><ele>375</ele><time>2020-08-16T08:50:08Z</time><name>PT304</name></trkpt>
<trkpt lat="53.175721" lon="-3.903302"><ele>375</ele><time>2020-08-16T08:50:12Z</time><name>PT305</name></trkpt>
<trkpt lat="53.175691" lon="-3.903349"><ele>375</ele><time>2020-08-16T08:50:15Z</time><name>PT306</name></trkpt>
<trkpt lat="53.175649" lon="-3.903402"><ele>376</ele><time>2020-08-16T08:50:20Z</time><name>PT307</name></trkpt>
<trkpt lat="53.175620" lon="-3.903438"><ele>376</ele><time>2020-08-16T08:50:23Z</time><name>PT308</name></trkpt>
<trkpt lat="53.175578" lon="-3.903485"><ele>376</ele><time>2020-08-16T08:50:26Z</time><name>PT309</name></trkpt>
<trkpt lat="53.175533" lon="-3.903537"><ele>376</ele><time>2020-08-16T08:50:30Z</time><name>PT310</name></trkpt>
<trkpt lat="53.175489" lon="-3.903588"><ele>376</ele><time>2020-08-16T08:50:35Z</time><name>PT311</name></trkpt>
<trkpt lat="53.175456" lon="-3.903626"><ele>376</ele><time>2020-08-16T08:50:38Z</time><name>PT312</name></trkpt>
<trkpt lat="53.175426" lon="-3.903668"><ele>376</ele><time>2020-08-16T08:50:41Z</time><name>PT313</name></trkpt>
<trkpt lat="53.175378" lon="-3.903725"><ele>377</ele><time>2020-08-16T08:50:44Z</time><name>PT314</name></trkpt>
<trkpt lat="53.175347" lon="-3.903766"><ele>378</ele><time>2020-08-16T08:50:47Z</time><name>PT315</name></trkpt>
<trkpt lat="53.175303" lon="-3.903814"><ele>378</ele><time>2020-08-16T08:50:51Z</time><name>PT316</name></trkpt>
<trkpt lat="53.175263" lon="-3.903859"><ele>378</ele><time>2020-08-16T08:50:56Z</time><name>PT317</name></trkpt>
<trkpt lat="53.175228" lon="-3.903897"><ele>378</ele><time>2020-08-16T08:50:59Z</time><name>PT318</name></trkpt>
<trkpt lat="53.175185" lon="-3.903945"><ele>378</ele><time>2020-08-16T08:51:02Z</time><name>PT319</name></trkpt>
<trkpt lat="53.175148" lon="-3.903998"><ele>378</ele><time>2020-08-16T08:51:06Z</time><name>PT320</name></trkpt>
<trkpt lat="53.175104" lon="-3.904056"><ele>378</ele><time>2020-08-16T08:51:11Z</time><name>PT321</name></trkpt>
<trkpt lat="53.175067" lon="-3.904092"><ele>378</ele><time>2020-08-16T08:51:14Z</time><name>PT322</name></trkpt>
<trkpt lat="53.175019" lon="-3.904142"><ele>378</ele><time>2020-08-16T08:51:17Z</time><name>PT323</name></trkpt>
<trkpt lat="53.174978" lon="-3.904196"><ele>378</ele><time>2020-08-16T08:51:21Z</time><name>PT324</name></trkpt>
<trkpt lat="53.174943" lon="-3.904233"><ele>378</ele><time>2020-08-16T08:51:24Z</time><name>PT325</name></trkpt>
<trkpt lat="53.174914" lon="-3.904274"><ele>378</ele><time>2020-08-16T08:51:27Z</time><name>PT326</name></trkpt>
<trkpt lat="53.174872" lon="-3.904333"><ele>378</ele><time>2020-08-16T08:51:32Z</time><name>PT327</name></trkpt>
<trkpt lat="53.174831" lon="-3.904381"><ele>378</ele><time>2020-08-16T08:51:35Z</time><name>PT328</name></trkpt>
<trkpt lat="53.174793" lon="-3.904437"><ele>378</ele><time>2020-08-16T08:51:39Z</time><name>PT329</name></trkpt>
<trkpt lat="53.174749" lon="-3.904484"><ele>378</ele><time>2020-08-16T08:51:44Z</time><name>PT330</name></trkpt>
<trkpt lat="53.174707" lon="-3.904536"><ele>378</ele><time>2020-08-16T08:51:47Z</time><name>PT331</name></trkpt>
<trkpt lat="53.174664" lon="-3.904586"><ele>377</ele><time>2020-08-16T08:51:51Z</time><name>PT332</name></trkpt>
<trkpt lat="53.174630" lon="-3.904629"><ele>377</ele><time>2020-08-16T08:51:54Z</time><name>PT333</name></trkpt>
<trkpt lat="53.174588" lon="-3.904675"><ele>377</ele><time>2020-08-16T08:51:59Z</time><name>PT334</name></trkpt>
<trkpt lat="53.174552" lon="-3.904710"><ele>377</ele><time>2020-08-16T08:52:02Z</time><name>PT335</name></trkpt>
<trkpt lat="53.174518" lon="-3.904739"><ele>377</ele><time>2020-08-16T08:52:05Z</time><name>PT336</name></trkpt>
<trkpt lat="53.174476" lon="-3.904792"><ele>378</ele><time>2020-08-16T08:52:08Z</time><name>PT337</name></trkpt>
<trkpt lat="53.174439" lon="-3.904839"><ele>377</ele><time>2020-08-16T08:52:12Z</time><name>PT338</name></trkpt>
<trkpt lat="53.174410" lon="-3.904881"><ele>377</ele><time>2020-08-16T08:52:15Z</time><name>PT339</name></trkpt>
<trkpt lat="53.174376" lon="-3.904918"><ele>378</ele><time>2020-08-16T08:52:18Z</time><name>PT340</name></trkpt>
<trkpt lat="53.174345" lon="-3.904957"><ele>378</ele><time>2020-08-16T08:52:21Z</time><name>PT341</name></trkpt>
<trkpt lat="53.174301" lon="-3.905005"><ele>378</ele><time>2020-08-16T08:52:26Z</time><name>PT342</name></trkpt>
<trkpt lat="53.174270" lon="-3.905041"><ele>377</ele><time>2020-08-16T08:52:29Z</time><name>PT343</name></trkpt>
<trkpt lat="53.174230" lon="-3.905088"><ele>377</ele><time>2020-08-16T08:52:32Z</time><name>PT344</name></trkpt>
<trkpt lat="53.174191" lon="-3.905139"><ele>377</ele><time>2020-08-16T08:52:36Z</time><name>PT345</name></trkpt>
<trkpt lat="53.174159" lon="-3.905175"><ele>377</ele><time>2020-08-16T08:52:39Z</time><name>PT346</name></trkpt>
<trkpt lat="53.174119" lon="-3.905228"><ele>377</ele><time>2020-08-16T08:52:44Z</time><name>PT347</name></trkpt>
<trkpt lat="53.174087" lon="-3.905263"><ele>377</ele><time>2020-08-16T08:52:47Z</time><name>PT348</name></trkpt>
<trkpt lat="53.174042" lon="-3.905317"><ele>378</ele><time>2020-08-16T08:52:50Z</time><name>PT349</name></trkpt>
<trkpt lat="53.174002" lon="-3.905371"><ele>378</ele><time>2020-08-16T08:52:54Z</time><name>PT350</name></trkpt>
<trkpt lat="53.173967" lon="-3.905408"><ele>378</ele><time>2020-08-16T08:52:57Z</time><name>PT351</name></trkpt>
<trkpt lat="53.173939" lon="-3.905446"><ele>378</ele><time>2020-08-16T08:53:00Z</time><name>PT352</name></trkpt>
<trkpt lat="53.173897" lon="-3.905497"><ele>378</ele><time>2020-08-16T08:53:05Z</time><name>PT353</name></trkpt>
<trkpt lat="53.173853" lon="-3.905544"><ele>378</ele><time>2020-08-16T08:53:08Z</time><name>PT354</name></trkpt>
<trkpt lat="53.173821" lon="-3.905582"><ele>378</ele><time>2020-08-16T08:53:11Z</time><name>PT355</name></trkpt>
<trkpt lat="53.173788" lon="-3.905619"><ele>377</ele><time>2020-08-16T08:53:14Z</time><name>PT356</name></trkpt>
<trkpt lat="53.173746" lon="-3.905667"><ele>377</ele><time>2020-08-16T08:53:18Z</time><name>PT357</name></trkpt>
<trkpt lat="53.173701" lon="-3.905724"><ele>378</ele><time>2020-08-16T08:53:23Z</time><name>PT358</name></trkpt>
<trkpt lat="53.173655" lon="-3.905771"><ele>378</ele><time>2020-08-16T08:53:26Z</time><name>PT359</name></trkpt>
<trkpt lat="53.173625" lon="-3.905806"><ele>378</ele><time>2020-08-16T08:53:29Z</time><name>PT360</name></trkpt>
<trkpt lat="53.173581" lon="-3.905854"><ele>378</ele><time>2020-08-16T08:53:33Z</time><name>PT361</name></trkpt>
<trkpt lat="53.173550" lon="-3.905888"><ele>378</ele><time>2020-08-16T08:53:36Z</time><name>PT362</name></trkpt>
<trkpt lat="53.173517" lon="-3.905924"><ele>378</ele><time>2020-08-16T08:53:39Z</time><name>PT363</name></trkpt>
<trkpt lat="53.173487" lon="-3.905965"><ele>378</ele><time>2020-08-16T08:53:42Z</time><name>PT364</name></trkpt>
<trkpt lat="53.173447" lon="-3.906021"><ele>378</ele><time>2020-08-16T08:53:47Z</time><name>PT365</name></trkpt>
<trkpt lat="53.173417" lon="-3.906059"><ele>378</ele><time>2020-08-16T08:53:50Z</time><name>PT366</name></trkpt>
<trkpt lat="53.173376" lon="-3.906110"><ele>379</ele><time>2020-08-16T08:53:53Z</time><name>PT367</name></trkpt>
<trkpt lat="53.173337" lon="-3.906155"><ele>379</ele><time>2020-08-16T08:53:56Z</time><name>PT368</name></trkpt>
<trkpt lat="53.173295" lon="-3.906205"><ele>379</ele><time>2020-08-16T08:54:00Z</time><name>PT369</name></trkpt>
<trkpt lat="53.173260" lon="-3.906239"><ele>379</ele><time>2020-08-16T08:54:03Z</time><name>PT370</name></trkpt>
<trkpt lat="53.173227" lon="-3.906277"><ele>379</ele><time>2020-08-16T08:54:06Z</time><name>PT371</name></trkpt>
<trkpt lat="53.173183" lon="-3.906333"><ele>379</ele><time>2020-08-16T08:54:11Z</time><name>PT372</name></trkpt>
<trkpt lat="53.173150" lon="-3.906371"><ele>379</ele><time>2020-08-16T08:54:14Z</time><name>PT373</name></trkpt>
<trkpt lat="53.173116" lon="-3.906412"><ele>380</ele><time>2020-08-16T08:54:17Z</time><name>PT374</name></trkpt>
<trkpt lat="53.173077" lon="-3.906461"><ele>379</ele><time>2020-08-16T08:54:20Z</time><name>PT375</name></trkpt>
<trkpt lat="53.173048" lon="-3.906508"><ele>379</ele><time>2020-08-16T08:54:23Z</time><name>PT376</name></trkpt>
<trkpt lat="53.173008" lon="-3.906565"><ele>379</ele><time>2020-08-16T08:54:27Z</time><name>PT377</name></trkpt>
<trkpt lat="53.172966" lon="-3.906614"><ele>379</ele><time>2020-08-16T08:54:32Z</time><name>PT378</name></trkpt>
<trkpt lat="53.172934" lon="-3.906651"><ele>379</ele><time>2020-08-16T08:54:35Z</time><name>PT379</name></trkpt>
<trkpt lat="53.172900" lon="-3.906690"><ele>379</ele><time>2020-08-16T08:54:38Z</time><name>PT380</name></trkpt>
<trkpt lat="53.172860" lon="-3.906740"><ele>379</ele><time>2020-08-16T08:54:41Z</time><name>PT381</name></trkpt>
<trkpt lat="53.172818" lon="-3.906791"><ele>379</ele><time>2020-08-16T08:54:45Z</time><name>PT382</name></trkpt>
<trkpt lat="53.172785" lon="-3.906829"><ele>379</ele><time>2020-08-16T08:54:48Z</time><name>PT383</name></trkpt>
<trkpt lat="53.172744" lon="-3.906877"><ele>380</ele><time>2020-08-16T08:54:53Z</time><name>PT384</name></trkpt>
<trkpt lat="53.172693" lon="-3.906923"><ele>380</ele><time>2020-08-16T08:54:56Z</time><name>PT385</name></trkpt>
<trkpt lat="53.172654" lon="-3.906973"><ele>379</ele><time>2020-08-16T08:55:00Z</time><name>PT386</name></trkpt>
<trkpt lat="53.172622" lon="-3.906993"><ele>379</ele><time>2020-08-16T08:55:03Z</time><name>PT387</name></trkpt>
<trkpt lat="53.172592" lon="-3.907023"><ele>378</ele><time>2020-08-16T08:55:06Z</time><name>PT388</name></trkpt>
<trkpt lat="53.172550" lon="-3.907074"><ele>379</ele><time>2020-08-16T08:55:11Z</time><name>PT389</name></trkpt>
<trkpt lat="53.172517" lon="-3.907109"><ele>378</ele><time>2020-08-16T08:55:14Z</time><name>PT390</name></trkpt>
<trkpt lat="53.172474" lon="-3.907163"><ele>378</ele><time>2020-08-16T08:55:17Z</time><name>PT391</name></trkpt>
<trkpt lat="53.172441" lon="-3.907202"><ele>379</ele><time>2020-08-16T08:55:20Z</time><name>PT392</name></trkpt>
<trkpt lat="53.172408" lon="-3.907271"><ele>378</ele><time>2020-08-16T08:55:24Z</time><name>PT393</name></trkpt>
<trkpt lat="53.172369" lon="-3.907333"><ele>379</ele><time>2020-08-16T08:55:29Z</time><name>PT394</name></trkpt>
<trkpt lat="53.172340" lon="-3.907364"><ele>378</ele><time>2020-08-16T08:55:32Z</time><name>PT395</name></trkpt>
<trkpt lat="53.172289" lon="-3.907401"><ele>378</ele><time>2020-08-16T08:55:35Z</time><name>PT396</name></trkpt>
<trkpt lat="53.172255" lon="-3.907442"><ele>378</ele><time>2020-08-16T08:55:38Z</time><name>PT397</name></trkpt>
<trkpt lat="53.172208" lon="-3.907497"><ele>378</ele><time>2020-08-16T08:55:42Z</time><name>PT398</name></trkpt>
<trkpt lat="53.172164" lon="-3.907549"><ele>378</ele><time>2020-08-16T08:55:47Z</time><name>PT399</name></trkpt>
<trkpt lat="53.172124" lon="-3.907610"><ele>378</ele><time>2020-08-16T08:55:50Z</time><name>PT400</name></trkpt>
<trkpt lat="53.172095" lon="-3.907650"><ele>377</ele><time>2020-08-16T08:55:53Z</time><name>PT401</name></trkpt>
<trkpt lat="53.172051" lon="-3.907708"><ele>377</ele><time>2020-08-16T08:55:57Z</time><name>PT402</name></trkpt>
<trkpt lat="53.172006" lon="-3.907752"><ele>377</ele><time>2020-08-16T08:56:02Z</time><name>PT403</name></trkpt>
<trkpt lat="53.171976" lon="-3.907784"><ele>378</ele><time>2020-08-16T08:56:05Z</time><name>PT404</name></trkpt>
<trkpt lat="53.171946" lon="-3.907806"><ele>377</ele><time>2020-08-16T08:56:08Z</time><name>PT405</name></trkpt>
<trkpt lat="53.171942" lon="-3.907808"><ele>377</ele><time>2020-08-16T08:56:11Z</time><name>PT406</name></trkpt>
<trkpt lat="53.171941" lon="-3.907812"><ele>377</ele><time>2020-08-16T08:56:15Z</time><name>PT407</name></trkpt>
<trkpt lat="53.171938" lon="-3.907817"><ele>377</ele><time>2020-08-16T08:56:18Z</time><name>PT408</name></trkpt>
<trkpt lat="53.171935" lon="-3.907819"><ele>377</ele><time>2020-08-16T08:56:21Z</time><name>PT409</name></trkpt>
<trkpt lat="53.171921" lon="-3.907820"><ele>377</ele><time>2020-08-16T08:56:26Z</time><name>PT410</name></trkpt>
<trkpt lat="53.171897" lon="-3.907824"><ele>376</ele><time>2020-08-16T08:56:29Z</time><name>PT411</name></trkpt>
<trkpt lat="53.171876" lon="-3.907857"><ele>376</ele><time>2020-08-16T08:56:32Z</time><name>PT412</name></trkpt>
<trkpt lat="53.171836" lon="-3.907929"><ele>377</ele><time>2020-08-16T08:56:36Z</time><name>PT413</name></trkpt>
<trkpt lat="53.171793" lon="-3.907990"><ele>377</ele><time>2020-08-16T08:56:41Z</time><name>PT414</name></trkpt>
<trkpt lat="53.171749" lon="-3.908056"><ele>377</ele><time>2020-08-16T08:56:44Z</time><name>PT415</name></trkpt>
<trkpt lat="53.171712" lon="-3.908117"><ele>377</ele><time>2020-08-16T08:56:48Z</time><name>PT416</name></trkpt>
<trkpt lat="53.171684" lon="-3.908156"><ele>377</ele><time>2020-08-16T08:56:51Z</time><name>PT417</name></trkpt>
<trkpt lat="53.171648" lon="-3.908204"><ele>376</ele><time>2020-08-16T08:56:56Z</time><name>PT418</name></trkpt>
<trkpt lat="53.171619" lon="-3.908239"><ele>376</ele><time>2020-08-16T08:56:59Z</time><name>PT419</name></trkpt>
<trkpt lat="53.171582" lon="-3.908288"><ele>375</ele><time>2020-08-16T08:57:02Z</time><name>PT420</name></trkpt>
<trkpt lat="53.171542" lon="-3.908326"><ele>375</ele><time>2020-08-16T08:57:06Z</time><name>PT421</name></trkpt>
<trkpt lat="53.171505" lon="-3.908373"><ele>376</ele><time>2020-08-16T08:57:11Z</time><name>PT422</name></trkpt>
<trkpt lat="53.171467" lon="-3.908417"><ele>376</ele><time>2020-08-16T08:57:14Z</time><name>PT423</name></trkpt>
<trkpt lat="53.171436" lon="-3.908453"><ele>376</ele><time>2020-08-16T08:57:17Z</time><name>PT424</name></trkpt>
<trkpt lat="53.171397" lon="-3.908503"><ele>376</ele><time>2020-08-16T08:57:21Z</time><name>PT425</name></trkpt>
<trkpt lat="53.171365" lon="-3.908545"><ele>377</ele><time>2020-08-16T08:57:24Z</time><name>PT426</name></trkpt>
<trkpt lat="53.171317" lon="-3.908601"><ele>377</ele><time>2020-08-16T08:57:29Z</time><name>PT427</name></trkpt>
<trkpt lat="53.171281" lon="-3.908651"><ele>376</ele><time>2020-08-16T08:57:32Z</time><name>PT428</name></trkpt>
<trkpt lat="53.171252" lon="-3.908690"><ele>376</ele><time>2020-08-16T08:57:35Z</time><name>PT429</name></trkpt>
<trkpt lat="53.171220" lon="-3.908727"><ele>376</ele><time>2020-08-16T08:57:38Z</time><name>PT430</name></trkpt>
<trkpt lat="53.171189" lon="-3.908763"><ele>376</ele><time>2020-08-16T08:57:41Z</time><name>PT431</name></trkpt>
<trkpt lat="53.171151" lon="-3.908811"><ele>376</ele><time>2020-08-16T08:57:45Z</time><name>PT432</name></trkpt>
<trkpt lat="53.171115" lon="-3.908863"><ele>376</ele><time>2020-08-16T08:57:50Z</time><name>PT433</name></trkpt>
<trkpt lat="53.171080" lon="-3.908933"><ele>376</ele><time>2020-08-16T08:57:53Z</time><name>PT434</name></trkpt>
<trkpt lat="53.171031" lon="-3.908959"><ele>376</ele><time>2020-08-16T08:57:57Z</time><name>PT435</name></trkpt>
<trkpt lat="53.171002" lon="-3.908995"><ele>377</ele><time>2020-08-16T08:58:00Z</time><name>PT436</name></trkpt>
<trkpt lat="53.170961" lon="-3.909040"><ele>377</ele><time>2020-08-16T08:58:05Z</time><name>PT437</name></trkpt>
<trkpt lat="53.170921" lon="-3.909076"><ele>377</ele><time>2020-08-16T08:58:08Z</time><name>PT438</name></trkpt>
<trkpt lat="53.170879" lon="-3.909114"><ele>377</ele><time>2020-08-16T08:58:12Z</time><name>PT439</name></trkpt>
<trkpt lat="53.170847" lon="-3.909151"><ele>378</ele><time>2020-08-16T08:58:15Z</time><name>PT440</name></trkpt>
<trkpt lat="53.170816" lon="-3.909194"><ele>378</ele><time>2020-08-16T08:58:18Z</time><name>PT441</name></trkpt>
<trkpt lat="53.170774" lon="-3.909240"><ele>378</ele><time>2020-08-16T08:58:23Z</time><name>PT442</name></trkpt>
<trkpt lat="53.170744" lon="-3.909285"><ele>378</ele><time>2020-08-16T08:58:26Z</time><name>PT443</name></trkpt>
<trkpt lat="53.170703" lon="-3.909341"><ele>378</ele><time>2020-08-16T08:58:29Z</time><name>PT444</name></trkpt>
<trkpt lat="53.170671" lon="-3.909391"><ele>378</ele><time>2020-08-16T08:58:32Z</time><name>PT445</name></trkpt>
<trkpt lat="53.170643" lon="-3.909438"><ele>378</ele><time>2020-08-16T08:58:35Z</time><name>PT446</name></trkpt>
<trkpt lat="53.170595" lon="-3.909466"><ele>377</ele><time>2020-08-16T08:58:39Z</time><name>PT447</name></trkpt>
<trkpt lat="53.170551" lon="-3.909512"><ele>377</ele><time>2020-08-16T08:58:44Z</time><name>PT448</name></trkpt>
<trkpt lat="53.170509" lon="-3.909565"><ele>378</ele><time>2020-08-16T08:58:47Z</time><name>PT449</name></trkpt>
<trkpt lat="53.170474" lon="-3.909623"><ele>378</ele><time>2020-08-16T08:58:51Z</time><name>PT450</name></trkpt>
<trkpt lat="53.170444" lon="-3.909663"><ele>378</ele><time>2020-08-16T08:58:54Z</time><name>PT451</name></trkpt>
<trkpt lat="53.170402" lon="-3.909711"><ele>378</ele><time>2020-08-16T08:58:59Z</time><name>PT452</name></trkpt>
<trkpt lat="53.170372" lon="-3.909747"><ele>378</ele><time>2020-08-16T08:59:02Z</time><name>PT453</name></trkpt>
<trkpt lat="53.170346" lon="-3.909786"><ele>377</ele><time>2020-08-16T08:59:05Z</time><name>PT454</name></trkpt>
<trkpt lat="53.170302" lon="-3.909822"><ele>377</ele><time>2020-08-16T08:59:08Z</time><name>PT455</name></trkpt>
<trkpt lat="53.170251" lon="-3.909872"><ele>378</ele><time>2020-08-16T08:59:12Z</time><name>PT456</name></trkpt>
<trkpt lat="53.170208" lon="-3.909916"><ele>378</ele><time>2020-08-16T08:59:17Z</time><name>PT457</name></trkpt>
<trkpt lat="53.170177" lon="-3.909958"><ele>378</ele><time>2020-08-16T08:59:20Z</time><name>PT458</name></trkpt>
<trkpt lat="53.170133" lon="-3.910004"><ele>378</ele><time>2020-08-16T08:59:23Z</time><name>PT459</name></trkpt>
<trkpt lat="53.170095" lon="-3.910055"><ele>378</ele><time>2020-08-16T08:59:27Z</time><name>PT460</name></trkpt>
<trkpt lat="53.170066" lon="-3.910094"><ele>379</ele><time>2020-08-16T08:59:30Z</time><name>PT461</name></trkpt>
<trkpt lat="53.170024" lon="-3.910147"><ele>379</ele><time>2020-08-16T08:59:35Z</time><name>PT462</name></trkpt>
<trkpt lat="53.169993" lon="-3.910191"><ele>379</ele><time>2020-08-16T08:59:38Z</time><name>PT463</name></trkpt>
<trkpt lat="53.169964" lon="-3.910237"><ele>379</ele><time>2020-08-16T08:59:41Z</time><name>PT464</name></trkpt>
<trkpt lat="53.169938" lon="-3.910283"><ele>379</ele><time>2020-08-16T08:59:44Z</time><name>PT465</name></trkpt>
<trkpt lat="53.169913" lon="-3.910329"><ele>378</ele><time>2020-08-16T08:59:47Z</time><name>PT466</name></trkpt>
<trkpt lat="53.169885" lon="-3.910368"><ele>377</ele><time>2020-08-16T08:59:50Z</time><name>PT467</name></trkpt>
<trkpt lat="53.169856" lon="-3.910403"><ele>376</ele><time>2020-08-16T08:59:53Z</time><name>PT468</name></trkpt>
<trkpt lat="53.169809" lon="-3.910446"><ele>376</ele><time>2020-08-16T08:59:56Z</time><name>PT469</name></trkpt>
<trkpt lat="53.169772" lon="-3.910471"><ele>377</ele><time>2020-08-16T08:59:59Z</time><name>PT470</name></trkpt>
<trkpt lat="53.169734" lon="-3.910493"><ele>378</ele><time>2020-08-16T09:00:02Z</time><name>PT471</name></trkpt>
<trkpt lat="53.169692" lon="-3.910516"><ele>379</ele><time>2020-08-16T09:00:06Z</time><name>PT472</name></trkpt>
<trkpt lat="53.169659" lon="-3.910532"><ele>378</ele><time>2020-08-16T09:00:09Z</time><name>PT473</name></trkpt>
<trkpt lat="53.169629" lon="-3.910557"><ele>377</ele><time>2020-08-16T09:00:12Z</time><name>PT474</name></trkpt>
<trkpt lat="53.169592" lon="-3.910580"><ele>377</ele><time>2020-08-16T09:00:17Z</time><name>PT475</name></trkpt>
<trkpt lat="53.169561" lon="-3.910599"><ele>377</ele><time>2020-08-16T09:00:20Z</time><name>PT476</name></trkpt>
<trkpt lat="53.169527" lon="-3.910615"><ele>376</ele><time>2020-08-16T09:00:23Z</time><name>PT477</name></trkpt>
<trkpt lat="53.169482" lon="-3.910646"><ele>377</ele><time>2020-08-16T09:00:26Z</time><name>PT478</name></trkpt>
<trkpt lat="53.169442" lon="-3.910674"><ele>376</ele><time>2020-08-16T09:00:30Z</time><name>PT479</name></trkpt>
<trkpt lat="53.169408" lon="-3.910698"><ele>376</ele><time>2020-08-16T09:00:33Z</time><name>PT480</name></trkpt>
<trkpt lat="53.169362" lon="-3.910728"><ele>375</ele><time>2020-08-16T09:00:38Z</time><name>PT481</name></trkpt>
<trkpt lat="53.169323" lon="-3.910741"><ele>375</ele><time>2020-08-16T09:00:41Z</time><name>PT482</name></trkpt>
<trkpt lat="53.169269" lon="-3.910766"><ele>376</ele><time>2020-08-16T09:00:44Z</time><name>PT483</name></trkpt>
<trkpt lat="53.169230" lon="-3.910779"><ele>376</ele><time>2020-08-16T09:00:47Z</time><name>PT484</name></trkpt>
<trkpt lat="53.169177" lon="-3.910790"><ele>376</ele><time>2020-08-16T09:00:51Z</time><name>PT485</name></trkpt>
<trkpt lat="53.169140" lon="-3.910806"><ele>377</ele><time>2020-08-16T09:00:54Z</time><name>PT486</name></trkpt>
<trkpt lat="53.169085" lon="-3.910818"><ele>377</ele><time>2020-08-16T09:00:59Z</time><name>PT487</name></trkpt>
<trkpt lat="53.169032" lon="-3.910839"><ele>378</ele><time>2020-08-16T09:01:02Z</time><name>PT488</name></trkpt>
<trkpt lat="53.168983" lon="-3.910852"><ele>378</ele><time>2020-08-16T09:01:06Z</time><name>PT489</name></trkpt>
<trkpt lat="53.168932" lon="-3.910864"><ele>378</ele><time>2020-08-16T09:01:11Z</time><name>PT490</name></trkpt>
<trkpt lat="53.168878" lon="-3.910882"><ele>379</ele><time>2020-08-16T09:01:14Z</time><name>PT491</name></trkpt>
<trkpt lat="53.168839" lon="-3.910892"><ele>379</ele><time>2020-08-16T09:01:17Z</time><name>PT492</name></trkpt>
<trkpt lat="53.168788" lon="-3.910911"><ele>378</ele><time>2020-08-16T09:01:21Z</time><name>PT493</name></trkpt>
<trkpt lat="53.168746" lon="-3.910929"><ele>378</ele><time>2020-08-16T09:01:24Z</time><name>PT494</name></trkpt>
<trkpt lat="53.168697" lon="-3.910939"><ele>378</ele><time>2020-08-16T09:01:29Z</time><name>PT495</name></trkpt>
<trkpt lat="53.168650" lon="-3.910962"><ele>378</ele><time>2020-08-16T09:01:32Z</time><name>PT496</name></trkpt>
<trkpt lat="53.168613" lon="-3.910970"><ele>377</ele><time>2020-08-16T09:01:35Z</time><name>PT497</name></trkpt>
<trkpt lat="53.168556" lon="-3.910986"><ele>377</ele><time>2020-08-16T09:01:39Z</time><name>PT498</name></trkpt>
<trkpt lat="53.168507" lon="-3.911008"><ele>377</ele><time>2020-08-16T09:01:44Z</time><name>PT499</name></trkpt>
<trkpt lat="53.168473" lon="-3.911022"><ele>377</ele><time>2020-08-16T09:01:47Z</time><name>PT500</name></trkpt>
<trkpt lat="53.168418" lon="-3.911036"><ele>377</ele><time>2020-08-16T09:01:50Z</time><name>PT501</name></trkpt>
<trkpt lat="53.168365" lon="-3.911048"><ele>377</ele><time>2020-08-16T09:01:54Z</time><name>PT502</name></trkpt>
<trkpt lat="53.168328" lon="-3.911065"><ele>377</ele><time>2020-08-16T09:01:57Z</time><name>PT503</name></trkpt>
<trkpt lat="53.168275" lon="-3.911076"><ele>378</ele><time>2020-08-16T09:02:02Z</time><name>PT504</name></trkpt>
<trkpt lat="53.168239" lon="-3.911088"><ele>378</ele><time>2020-08-16T09:02:05Z</time><name>PT505</name></trkpt>
<trkpt lat="53.168199" lon="-3.911098"><ele>377</ele><time>2020-08-16T09:02:08Z</time><name>PT506</name></trkpt>
<trkpt lat="53.168150" lon="-3.911110"><ele>378</ele><time>2020-08-16T09:02:11Z</time><name>PT507</name></trkpt>
<trkpt lat="53.168102" lon="-3.911133"><ele>378</ele><time>2020-08-16T09:02:15Z</time><name>PT508</name></trkpt>
<trkpt lat="53.168052" lon="-3.911149"><ele>378</ele><time>2020-08-16T09:02:20Z</time><name>PT509</name></trkpt>
<trkpt lat="53.168014" lon="-3.911167"><ele>378</ele><time>2020-08-16T09:02:23Z</time><name>PT510</name></trkpt>
<trkpt lat="53.167967" lon="-3.911183"><ele>378</ele><time>2020-08-16T09:02:26Z</time><name>PT511</name></trkpt>
<trkpt lat="53.167912" lon="-3.911202"><ele>378</ele><time>2020-08-16T09:02:30Z</time><name>PT512</name></trkpt>
<trkpt lat="53.167860" lon="-3.911217"><ele>378</ele><time>2020-08-16T09:02:35Z</time><name>PT513</name></trkpt>
<trkpt lat="53.167806" lon="-3.911233"><ele>378</ele><time>2020-08-16T09:02:38Z</time><name>PT514</name></trkpt>
<trkpt lat="53.167767" lon="-3.911243"><ele>378</ele><time>2020-08-16T09:02:41Z</time><name>PT515</name></trkpt>
<trkpt lat="53.167729" lon="-3.911257"><ele>378</ele><time>2020-08-16T09:02:44Z</time><name>PT516</name></trkpt>
<trkpt lat="53.167690" lon="-3.911269"><ele>378</ele><time>2020-08-16T09:02:47Z</time><name>PT517</name></trkpt>
<trkpt lat="53.167638" lon="-3.911279"><ele>379</ele><time>2020-08-16T09:02:51Z</time><name>PT518</name></trkpt>
<trkpt lat="53.167588" lon="-3.911299"><ele>378</ele><time>2020-08-16T09:02:56Z</time><name>PT519</name></trkpt>
<trkpt lat="53.167551" lon="-3.911312"><ele>378</ele><time>2020-08-16T09:02:59Z</time><name>PT520</name></trkpt>
<trkpt lat="53.167501" lon="-3.911323"><ele>378</ele><time>2020-08-16T09:03:02Z</time><name>PT521</name></trkpt>
<trkpt lat="53.167458" lon="-3.911335"><ele>377</ele><time>2020-08-16T09:03:05Z</time><name>PT522</name></trkpt>
<trkpt lat="53.167407" lon="-3.911350"><ele>378</ele><time>2020-08-16T09:03:09Z</time><name>PT523</name></trkpt>
<trkpt lat="53.167358" lon="-3.911359"><ele>377</ele><time>2020-08-16T09:03:14Z</time><name>PT524</name></trkpt>
<trkpt lat="53.167318" lon="-3.911380"><ele>378</ele><time>2020-08-16T09:03:17Z</time><name>PT525</name></trkpt>
<trkpt lat="53.167268" lon="-3.911392"><ele>377</ele><time>2020-08-16T09:03:20Z</time><name>PT526</name></trkpt>
<trkpt lat="53.167218" lon="-3.911410"><ele>377</ele><time>2020-08-16T09:03:24Z</time><name>PT527</name></trkpt>
<trkpt lat="53.167178" lon="-3.911429"><ele>377</ele><time>2020-08-16T09:03:27Z</time><name>PT528</name></trkpt>
<trkpt lat="53.167138" lon="-3.911433"><ele>377</ele><time>2020-08-16T09:03:30Z</time><name>PT529</name></trkpt>
<trkpt lat="53.167083" lon="-3.911459"><ele>377</ele><time>2020-08-16T09:03:35Z</time><name>PT530</name></trkpt>
<trkpt lat="53.167051" lon="-3.911466"><ele>377</ele><time>2020-08-16T09:03:38Z</time><name>PT531</name></trkpt>
<trkpt lat="53.167003" lon="-3.911484"><ele>378</ele><time>2020-08-16T09:03:41Z</time><name>PT532</name></trkpt>
<trkpt lat="53.166968" lon="-3.911494"><ele>377</ele><time>2020-08-16T09:03:44Z</time><name>PT533</name></trkpt>
<trkpt lat="53.166913" lon="-3.911505"><ele>377</ele><time>2020-08-16T09:03:48Z</time><name>PT534</name></trkpt>
<trkpt lat="53.166863" lon="-3.911526"><ele>377</ele><time>2020-08-16T09:03:53Z</time><name>PT535</name></trkpt>
<trkpt lat="53.166810" lon="-3.911536"><ele>377</ele><time>2020-08-16T09:03:56Z</time><name>PT536</name></trkpt>
<trkpt lat="53.166761" lon="-3.911541"><ele>376</ele><time>2020-08-16T09:04:00Z</time><name>PT537</name></trkpt>
<trkpt lat="53.166717" lon="-3.911544"><ele>377</ele><time>2020-08-16T09:04:05Z</time><name>PT538</name></trkpt>
<trkpt lat="53.166681" lon="-3.911556"><ele>376</ele><time>2020-08-16T09:04:08Z</time><name>PT539</name></trkpt>
<trkpt lat="53.166628" lon="-3.911574"><ele>376</ele><time>2020-08-16T09:04:11Z</time><name>PT540</name></trkpt>
<trkpt lat="53.166617" lon="-3.911576"><ele>376</ele><time>2020-08-16T09:04:12Z</time><name>PT541</name></trkpt>
<trkpt lat="53.166608" lon="-3.911577"><ele>377</ele><time>2020-08-16T09:04:14Z</time><name>PT542</name></trkpt>
<trkpt lat="53.166602" lon="-3.911582"><ele>377</ele><time>2020-08-16T09:04:14Z</time><name>PT543</name></trkpt>
<trkpt lat="53.166597" lon="-3.911582"><ele>377</ele><time>2020-08-16T09:04:16Z</time><name>PT544</name></trkpt>
<trkpt lat="53.166591" lon="-3.911584"><ele>377</ele><time>2020-08-16T09:04:17Z</time><name>PT545</name></trkpt>
<trkpt lat="53.166582" lon="-3.911589"><ele>377</ele><time>2020-08-16T09:04:17Z</time><name>PT546</name></trkpt>
<trkpt lat="53.166573" lon="-3.911594"><ele>378</ele><time>2020-08-16T09:04:18Z</time><name>PT547</name></trkpt>
<trkpt lat="53.166563" lon="-3.911598"><ele>378</ele><time>2020-08-16T09:04:20Z</time><name>PT548</name></trkpt>
<trkpt lat="53.166554" lon="-3.911606"><ele>378</ele><time>2020-08-16T09:04:20Z</time><name>PT549</name></trkpt>
<trkpt lat="53.166545" lon="-3.911614"><ele>378</ele><time>2020-08-16T09:04:21Z</time><name>PT550</name></trkpt>
<trkpt lat="53.166535" lon="-3.911618"><ele>378</ele><time>2020-08-16T09:04:23Z</time><name>PT551</name></trkpt>
<trkpt lat="53.166526" lon="-3.911622"><ele>378</ele><time>2020-08-16T09:04:23Z</time><name>PT552</name></trkpt>
<trkpt lat="53.166517" lon="-3.911624"><ele>378</ele><time>2020-08-16T09:04:24Z</time><name>PT553</name></trkpt>
<trkpt lat="53.166508" lon="-3.911632"><ele>379</ele><time>2020-08-16T09:04:26Z</time><name>PT554</name></trkpt>
<trkpt lat="53.166499" lon="-3.911642"><ele>379</ele><time>2020-08-16T09:04:26Z</time><name>PT555</name></trkpt>
<trkpt lat="53.166489" lon="-3.911651"><ele>379</ele><time>2020-08-16T09:04:27Z</time><name>PT556</name></trkpt>
<trkpt lat="53.166479" lon="-3.911660"><ele>379</ele><time>2020-08-16T09:04:29Z</time><name>PT557</name></trkpt>
<trkpt lat="53.166470" lon="-3.911668"><ele>379</ele><time>2020-08-16T09:04:29Z</time><name>PT558</name></trkpt>
<trkpt lat="53.166464" lon="-3.911675"><ele>379</ele><time>2020-08-16T09:04:30Z</time><name>PT559</name></trkpt>
<trkpt lat="53.166460" lon="-3.911679"><ele>379</ele><time>2020-08-16T09:04:32Z</time><name>PT560</name></trkpt>
<trkpt lat="53.166459" lon="-3.911685"><ele>379</ele><time>2020-08-16T09:04:32Z</time><name>PT561</name></trkpt>
<trkpt lat="53.166455" lon="-3.911692"><ele>379</ele><time>2020-08-16T09:04:33Z</time><name>PT562</name></trkpt>
<trkpt lat="53.166451" lon="-3.911695"><ele>379</ele><time>2020-08-16T09:04:35Z</time><name>PT563</name></trkpt>
<trkpt lat="53.166446" lon="-3.911694"><ele>379</ele><time>2020-08-16T09:04:35Z</time><name>PT564</name></trkpt>
<trkpt lat="53.166446" lon="-3.911697"><ele>379</ele><time>2020-08-16T09:04:36Z</time><name>PT565</name></trkpt>
<trkpt lat="53.166445" lon="-3.911699"><ele>379</ele><time>2020-08-16T09:04:38Z</time><name>PT566</name></trkpt>
<trkpt lat="53.166444" lon="-3.911698"><ele>379</ele><time>2020-08-16T09:04:38Z</time><name>PT567</name></trkpt>
<trkpt lat="53.166436" lon="-3.911706"><ele>379</ele><time>2020-08-16T09:04:54Z</time><name>PT568</name></trkpt>
<trkpt lat="53.166439" lon="-3.911705"><ele>379</ele><time>2020-08-16T09:04:56Z</time><name>PT569</name></trkpt>
<trkpt lat="53.166438" lon="-3.911703"><ele>379</ele><time>2020-08-16T09:04:56Z</time><name>PT570</name></trkpt>
<trkpt lat="53.166437" lon="-3.911702"><ele>379</ele><time>2020-08-16T09:04:57Z</time><name>PT571</name></trkpt>
<trkpt lat="53.166435" lon="-3.911699"><ele>379</ele><time>2020-08-16T09:04:59Z</time><name>PT572</name></trkpt>
<trkpt lat="53.166444" lon="-3.911669"><ele>380</ele><time>2020-08-16T09:05:00Z</time><name>PT573</name></trkpt>
<trkpt lat="53.166440" lon="-3.911672"><ele>380</ele><time>2020-08-16T09:05:02Z</time><name>PT574</name></trkpt>
<trkpt lat="53.166436" lon="-3.911662"><ele>379</ele><time>2020-08-16T09:05:02Z</time><name>PT575</name></trkpt>
<trkpt lat="53.166434" lon="-3.911661"><ele>379</ele><time>2020-08-16T09:05:03Z</time><name>PT576</name></trkpt>
<trkpt lat="53.166435" lon="-3.911667"><ele>379</ele><time>2020-08-16T09:05:11Z</time><name>PT577</name></trkpt>
<trkpt lat="53.166434" lon="-3.911673"><ele>379</ele><time>2020-08-16T09:05:11Z</time><name>PT578</name></trkpt>
<trkpt lat="53.166433" lon="-3.911674"><ele>379</ele><time>2020-08-16T09:05:12Z</time><name>PT579</name></trkpt>
<trkpt lat="53.166432" lon="-3.911674"><ele>379</ele><time>2020-08-16T09:05:14Z</time><name>PT580</name></trkpt>
<trkpt lat="53.166434" lon="-3.911675"><ele>379</ele><time>2020-08-16T09:05:38Z</time><name>PT581</name></trkpt>
<trkpt lat="53.166437" lon="-3.911687"><ele>379</ele><time>2020-08-16T09:05:39Z</time><name>PT582</name></trkpt>
<trkpt lat="53.166442" lon="-3.911679"><ele>379</ele><time>2020-08-16T09:05:41Z</time><name>PT583</name></trkpt>
<trkpt lat="53.166448" lon="-3.911670"><ele>379</ele><time>2020-08-16T09:05:41Z</time><name>PT584</name></trkpt>
<trkpt lat="53.166453" lon="-3.911661"><ele>379</ele><time>2020-08-16T09:05:42Z</time><name>PT585</name></trkpt>
<trkpt lat="53.166454" lon="-3.911651"><ele>379</ele><time>2020-08-16T09:05:44Z</time><name>PT586</name></trkpt>
<trkpt lat="53.166466" lon="-3.911658"><ele>379</ele><time>2020-08-16T09:05:44Z</time><name>PT587</name></trkpt>
<trkpt lat="53.166477" lon="-3.911650"><ele>380</ele><time>2020-08-16T09:05:46Z</time><name>PT588</name></trkpt>
<trkpt lat="53.166483" lon="-3.911639"><ele>380</ele><time>2020-08-16T09:05:47Z</time><name>PT589</name></trkpt>
<trkpt lat="53.166489" lon="-3.911626"><ele>380</ele><time>2020-08-16T09:05:47Z</time><name>PT590</name></trkpt>
<trkpt lat="53.166493" lon="-3.911623"><ele>380</ele><time>2020-08-16T09:05:48Z</time><name>PT591</name></trkpt>
<trkpt lat="53.166496" lon="-3.911617"><ele>380</ele><time>2020-08-16T09:05:50Z</time><name>PT592</name></trkpt>
<trkpt lat="53.166503" lon="-3.911610"><ele>381</ele><time>2020-08-16T09:05:50Z</time><name>PT593</name></trkpt>
<trkpt lat="53.166509" lon="-3.911598"><ele>381</ele><time>2020-08-16T09:05:51Z</time><name>PT594</name></trkpt>
<trkpt lat="53.166516" lon="-3.911585"><ele>381</ele><time>2020-08-16T09:05:53Z</time><name>PT595</name></trkpt>
<trkpt lat="53.166523" lon="-3.911572"><ele>381</ele><time>2020-08-16T09:05:53Z</time><name>PT596</name></trkpt>
<trkpt lat="53.166530" lon="-3.911562"><ele>381</ele><time>2020-08-16T09:05:54Z</time><name>PT597</name></trkpt>
<trkpt lat="53.166539" lon="-3.911555"><ele>383</ele><time>2020-08-16T09:05:56Z</time><name>PT598</name></trkpt>
<trkpt lat="53.166544" lon="-3.911549"><ele>382</ele><time>2020-08-16T09:05:56Z</time><name>PT599</name></trkpt>
<trkpt lat="53.166547" lon="-3.911538"><ele>382</ele><time>2020-08-16T09:05:57Z</time><name>PT600</name></trkpt>
<trkpt lat="53.166551" lon="-3.911532"><ele>383</ele><time>2020-08-16T09:05:59Z</time><name>PT601</name></trkpt>
<trkpt lat="53.166551" lon="-3.911525"><ele>383</ele><time>2020-08-16T09:05:59Z</time><name>PT602</name></trkpt>
<trkpt lat="53.166550" lon="-3.911515"><ele>383</ele><time>2020-08-16T09:06:01Z</time><name>PT603</name></trkpt>
<trkpt lat="53.166549" lon="-3.911503"><ele>383</ele><time>2020-08-16T09:06:02Z</time><name>PT604</name></trkpt>
<trkpt lat="53.166547" lon="-3.911491"><ele>383</ele><time>2020-08-16T09:06:02Z</time><name>PT605</name></trkpt>
<trkpt lat="53.166545" lon="-3.911481"><ele>382</ele><time>2020-08-16T09:06:03Z</time><name>PT606</name></trkpt>
<trkpt lat="53.166540" lon="-3.911472"><ele>382</ele><time>2020-08-16T09:06:05Z</time><name>PT607</name></trkpt>
<trkpt lat="53.166532" lon="-3.911462"><ele>381</ele><time>2020-08-16T09:06:05Z</time><name>PT608</name></trkpt>
<trkpt lat="53.166526" lon="-3.911451"><ele>381</ele><time>2020-08-16T09:06:06Z</time><name>PT609</name></trkpt>
<trkpt lat="53.166522" lon="-3.911441"><ele>380</ele><time>2020-08-16T09:06:08Z</time><name>PT610</name></trkpt>
<trkpt lat="53.166515" lon="-3.911426"><ele>381</ele><time>2020-08-16T09:06:08Z</time><name>PT611</name></trkpt>
<trkpt lat="53.166506" lon="-3.911411"><ele>381</ele><time>2020-08-16T09:06:09Z</time><name>PT612</name></trkpt>
<trkpt lat="53.166498" lon="-3.911398"><ele>380</ele><time>2020-08-16T09:06:11Z</time><name>PT613</name></trkpt>
<trkpt lat="53.166490" lon="-3.911384"><ele>380</ele><time>2020-08-16T09:06:11Z</time><name>PT614</name></trkpt>
<trkpt lat="53.166478" lon="-3.911372"><ele>380</ele><time>2020-08-16T09:06:12Z</time><name>PT615</name></trkpt>
<trkpt lat="53.166468" lon="-3.911359"><ele>380</ele><time>2020-08-16T09:06:14Z</time><name>PT616</name></trkpt>
<trkpt lat="53.166461" lon="-3.911345"><ele>380</ele><time>2020-08-16T09:06:14Z</time><name>PT617</name></trkpt>
<trkpt lat="53.166455" lon="-3.911330"><ele>379</ele><time>2020-08-16T09:06:15Z</time><name>PT618</name></trkpt>
<trkpt lat="53.166449" lon="-3.911316"><ele>379</ele><time>2020-08-16T09:06:17Z</time><name>PT619</name></trkpt>
<trkpt lat="53.166440" lon="-3.911301"><ele>379</ele><time>2020-08-16T09:06:17Z</time><name>PT620</name></trkpt>
<trkpt lat="53.166433" lon="-3.911286"><ele>379</ele><time>2020-08-16T09:06:18Z</time><name>PT621</name></trkpt>
<trkpt lat="53.166427" lon="-3.911271"><ele>379</ele><time>2020-08-16T09:06:20Z</time><name>PT622</name></trkpt>
<trkpt lat="53.166420" lon="-3.911252"><ele>378</ele><time>2020-08-16T09:06:20Z</time><name>PT623</name></trkpt>
<trkpt lat="53.166414" lon="-3.911235"><ele>378</ele><time>2020-08-16T09:06:21Z</time><name>PT624</name></trkpt>
<trkpt lat="53.166412" lon="-3.911214"><ele>378</ele><time>2020-08-16T09:06:23Z</time><name>PT625</name></trkpt>
<trkpt lat="53.166407" lon="-3.911199"><ele>378</ele><time>2020-08-16T09:06:23Z</time><name>PT626</name></trkpt>
<trkpt lat="53.166400" lon="-3.911184"><ele>378</ele><time>2020-08-16T09:06:24Z</time><name>PT627</name></trkpt>
<trkpt lat="53.166394" lon="-3.911172"><ele>378</ele><time>2020-08-16T09:06:26Z</time><name>PT628</name></trkpt>
<trkpt lat="53.166389" lon="-3.911154"><ele>377</ele><time>2020-08-16T09:06:26Z</time><name>PT629</name></trkpt>
<trkpt lat="53.166382" lon="-3.911136"><ele>377</ele><time>2020-08-16T09:06:27Z</time><name>PT630</name></trkpt>
<trkpt lat="53.166377" lon="-3.911121"><ele>377</ele><time>2020-08-16T09:06:29Z</time><name>PT631</name></trkpt>
<trkpt lat="53.166370" lon="-3.911110"><ele>377</ele><time>2020-08-16T09:06:29Z</time><name>PT632</name></trkpt>
<trkpt lat="53.166364" lon="-3.911098"><ele>377</ele><time>2020-08-16T09:06:30Z</time><name>PT633</name></trkpt>
<trkpt lat="53.166359" lon="-3.911079"><ele>377</ele><time>2020-08-16T09:06:32Z</time><name>PT634</name></trkpt>
<trkpt lat="53.166354" lon="-3.911060"><ele>377</ele><time>2020-08-16T09:06:32Z</time><name>PT635</name></trkpt>
<trkpt lat="53.166346" lon="-3.911044"><ele>377</ele><time>2020-08-16T09:06:33Z</time><name>PT636</name></trkpt>
<trkpt lat="53.166339" lon="-3.911028"><ele>377</ele><time>2020-08-16T09:06:34Z</time><name>PT637</name></trkpt>
<trkpt lat="53.166335" lon="-3.911013"><ele>377</ele><time>2020-08-16T09:06:35Z</time><name>PT638</name></trkpt>
<trkpt lat="53.166330" lon="-3.910997"><ele>377</ele><time>2020-08-16T09:06:37Z</time><name>PT639</name></trkpt>
<trkpt lat="53.166325" lon="-3.910979"><ele>376</ele><time>2020-08-16T09:06:37Z</time><name>PT640</name></trkpt>
<trkpt lat="53.166319" lon="-3.910964"><ele>376</ele><time>2020-08-16T09:06:38Z</time><name>PT641</name></trkpt>
<trkpt lat="53.166312" lon="-3.910948"><ele>376</ele><time>2020-08-16T09:06:40Z</time><name>PT642</name></trkpt>
<trkpt lat="53.166307" lon="-3.910933"><ele>376</ele><time>2020-08-16T09:06:40Z</time><name>PT643</name></trkpt>
<trkpt lat="53.166300" lon="-3.910921"><ele>376</ele><time>2020-08-16T09:06:41Z</time><name>PT644</name></trkpt>
<trkpt lat="53.166293" lon="-3.910902"><ele>376</ele><time>2020-08-16T09:06:43Z</time><name>PT645</name></trkpt>
<trkpt lat="53.166287" lon="-3.910886"><ele>376</ele><time>2020-08-16T09:06:43Z</time><name>PT646</name></trkpt>
<trkpt lat="53.166279" lon="-3.910870"><ele>376</ele><time>2020-08-16T09:06:44Z</time><name>PT647</name></trkpt>
<trkpt lat="53.166271" lon="-3.910852"><ele>376</ele><time>2020-08-16T09:06:46Z</time><name>PT648</name></trkpt>
<trkpt lat="53.166263" lon="-3.910835"><ele>377</ele><time>2020-08-16T09:06:46Z</time><name>PT649</name></trkpt>
<trkpt lat="53.166256" lon="-3.910818"><ele>377</ele><time>2020-08-16T09:06:47Z</time><name>PT650</name></trkpt>
<trkpt lat="53.166249" lon="-3.910804"><ele>377</ele><time>2020-08-16T09:06:49Z</time><name>PT651</name></trkpt>
<trkpt lat="53.166242" lon="-3.910789"><ele>377</ele><time>2020-08-16T09:06:49Z</time><name>PT652</name></trkpt>
<trkpt lat="53.166238" lon="-3.910771"><ele>377</ele><time>2020-08-16T09:06:50Z</time><name>PT653</name></trkpt>
<trkpt lat="53.166237" lon="-3.910761"><ele>376</ele><time>2020-08-16T09:06:52Z</time><name>PT654</name></trkpt>
<trkpt lat="53.166235" lon="-3.910745"><ele>375</ele><time>2020-08-16T09:06:52Z</time><name>PT655</name></trkpt>
<trkpt lat="53.166229" lon="-3.910728"><ele>376</ele><time>2020-08-16T09:06:53Z</time><name>PT656</name></trkpt>
<trkpt lat="53.166221" lon="-3.910716"><ele>376</ele><time>2020-08-16T09:06:55Z</time><name>PT657</name></trkpt>
<trkpt lat="53.166218" lon="-3.910702"><ele>376</ele><time>2020-08-16T09:06:55Z</time><name>PT658</name></trkpt>
<trkpt lat="53.166215" lon="-3.910684"><ele>376</ele><time>2020-08-16T09:06:56Z</time><name>PT659</name></trkpt>
<trkpt lat="53.166212" lon="-3.910666"><ele>376</ele><time>2020-08-16T09:06:58Z</time><name>PT660</name></trkpt>
<trkpt lat="53.166207" lon="-3.910649"><ele>377</ele><time>2020-08-16T09:06:58Z</time><name>PT661</name></trkpt>
<trkpt lat="53.166200" lon="-3.910632"><ele>377</ele><time>2020-08-16T09:06:59Z</time><name>PT662</name></trkpt>
<trkpt lat="53.166196" lon="-3.910615"><ele>377</ele><time>2020-08-16T09:07:01Z</time><name>PT663</name></trkpt>
<trkpt lat="53.166193" lon="-3.910596"><ele>377</ele><time>2020-08-16T09:07:01Z</time><name>PT664</name></trkpt>
<trkpt lat="53.166189" lon="-3.910580"><ele>377</ele><time>2020-08-16T09:07:02Z</time><name>PT665</name></trkpt>
<trkpt lat="53.166183" lon="-3.910569"><ele>376</ele><time>2020-08-16T09:07:04Z</time><name>PT666</name></trkpt>
<trkpt lat="53.166175" lon="-3.910552"><ele>376</ele><time>2020-08-16T09:07:04Z</time><name>PT667</name></trkpt>
<trkpt lat="53.166171" lon="-3.910535"><ele>377</ele><time>2020-08-16T09:07:05Z</time><name>PT668</name></trkpt>
<trkpt lat="53.166167" lon="-3.910519"><ele>377</ele><time>2020-08-16T09:07:07Z</time><name>PT669</name></trkpt>
<trkpt lat="53.166162" lon="-3.910506"><ele>376</ele><time>2020-08-16T09:07:07Z</time><name>PT670</name></trkpt>
<trkpt lat="53.166154" lon="-3.910489"><ele>377</ele><time>2020-08-16T09:07:08Z</time><name>PT671</name></trkpt>
<trkpt lat="53.166146" lon="-3.910475"><ele>377</ele><time>2020-08-16T09:07:10Z</time><name>PT672</name></trkpt>
<trkpt lat="53.166137" lon="-3.910460"><ele>378</ele><time>2020-08-16T09:07:10Z</time><name>PT673</name></trkpt>
<trkpt lat="53.166130" lon="-3.910443"><ele>378</ele><time>2020-08-16T09:07:11Z</time><name>PT674</name></trkpt>
<trkpt lat="53.166101" lon="-3.910392"><ele>378</ele><time>2020-08-16T09:07:16Z</time><name>PT675</name></trkpt>
<trkpt lat="53.166072" lon="-3.910335"><ele>379</ele><time>2020-08-16T09:07:19Z</time><name>PT676</name></trkpt>
<trkpt lat="53.166054" lon="-3.910290"><ele>379</ele><time>2020-08-16T09:07:22Z</time><name>PT677</name></trkpt>
<trkpt lat="53.166032" lon="-3.910255"><ele>379</ele><time>2020-08-16T09:07:25Z</time><name>PT678</name></trkpt>
<trkpt lat="53.166011" lon="-3.910211"><ele>378</ele><time>2020-08-16T09:07:28Z</time><name>PT679</name></trkpt>
<trkpt lat="53.165986" lon="-3.910153"><ele>378</ele><time>2020-08-16T09:07:32Z</time><name>PT680</name></trkpt>
<trkpt lat="53.165957" lon="-3.910086"><ele>379</ele><time>2020-08-16T09:07:37Z</time><name>PT681</name></trkpt>
<trkpt lat="53.165936" lon="-3.910039"><ele>380</ele><time>2020-08-16T09:07:40Z</time><name>PT682</name></trkpt>
<trkpt lat="53.165924" lon="-3.909971"><ele>381</ele><time>2020-08-16T09:07:43Z</time><name>PT683</name></trkpt>
<trkpt lat="53.165904" lon="-3.909929"><ele>382</ele><time>2020-08-16T09:07:46Z</time><name>PT684</name></trkpt>
<trkpt lat="53.165882" lon="-3.909868"><ele>382</ele><time>2020-08-16T09:07:50Z</time><name>PT685</name></trkpt>
<trkpt lat="53.165864" lon="-3.909830"><ele>383</ele><time>2020-08-16T09:07:53Z</time><name>PT686</name></trkpt>
<trkpt lat="53.165841" lon="-3.909775"><ele>383</ele><time>2020-08-16T09:07:58Z</time><name>PT687</name></trkpt>
<trkpt lat="53.165818" lon="-3.909737"><ele>384</ele><time>2020-08-16T09:08:01Z</time><name>PT688</name></trkpt>
<trkpt lat="53.165789" lon="-3.909685"><ele>385</ele><time>2020-08-16T09:08:04Z</time><name>PT689</name></trkpt>
<trkpt lat="53.165758" lon="-3.909646"><ele>385</ele><time>2020-08-16T09:08:07Z</time><name>PT690</name></trkpt>
<trkpt lat="53.165723" lon="-3.909630"><ele>385</ele><time>2020-08-16T09:08:10Z</time><name>PT691</name></trkpt>
<trkpt lat="53.165672" lon="-3.909605"><ele>386</ele><time>2020-08-16T09:08:14Z</time><name>PT692</name></trkpt>
<trkpt lat="53.165638" lon="-3.909596"><ele>387</ele><time>2020-08-16T09:08:17Z</time><name>PT693</name></trkpt>
<trkpt lat="53.165600" lon="-3.909600"><ele>386</ele><time>2020-08-16T09:08:22Z</time><name>PT694</name></trkpt>
<trkpt lat="53.165573" lon="-3.909599"><ele>386</ele><time>2020-08-16T09:08:25Z</time><name>PT695</name></trkpt>
<trkpt lat="53.165541" lon="-3.909603"><ele>385</ele><time>2020-08-16T09:08:28Z</time><name>PT696</name></trkpt>
<trkpt lat="53.165500" lon="-3.909607"><ele>385</ele><time>2020-08-16T09:08:31Z</time><name>PT697</name></trkpt>
<trkpt lat="53.165469" lon="-3.909618"><ele>385</ele><time>2020-08-16T09:08:34Z</time><name>PT698</name></trkpt>
<trkpt lat="53.165425" lon="-3.909637"><ele>384</ele><time>2020-08-16T09:08:38Z</time><name>PT699</name></trkpt>
<trkpt lat="53.165389" lon="-3.909645"><ele>384</ele><time>2020-08-16T09:08:41Z</time><name>PT700</name></trkpt>
<trkpt lat="53.165357" lon="-3.909662"><ele>384</ele><time>2020-08-16T09:08:44Z</time><name>PT701</name></trkpt>
<trkpt lat="53.165312" lon="-3.909681"><ele>384</ele><time>2020-08-16T09:08:49Z</time><name>PT702</name></trkpt>
<trkpt lat="53.165279" lon="-3.909694"><ele>384</ele><time>2020-08-16T09:08:52Z</time><name>PT703</name></trkpt>
<trkpt lat="53.165245" lon="-3.909708"><ele>384</ele><time>2020-08-16T09:08:55Z</time><name>PT704</name></trkpt>
<trkpt lat="53.165199" lon="-3.909726"><ele>385</ele><time>2020-08-16T09:08:58Z</time><name>PT705</name></trkpt>
<trkpt lat="53.165159" lon="-3.909742"><ele>386</ele><time>2020-08-16T09:09:02Z</time><name>PT706</name></trkpt>
<trkpt lat="53.165127" lon="-3.909757"><ele>385</ele><time>2020-08-16T09:09:05Z</time><name>PT707</name></trkpt>
<trkpt lat="53.165085" lon="-3.909772"><ele>385</ele><time>2020-08-16T09:09:10Z</time><name>PT708</name></trkpt>
<trkpt lat="53.165040" lon="-3.909775"><ele>385</ele><time>2020-08-16T09:09:13Z</time><name>PT709</name></trkpt>
<trkpt lat="53.165007" lon="-3.909770"><ele>386</ele><time>2020-08-16T09:09:16Z</time><name>PT710</name></trkpt>
<trkpt lat="53.164969" lon="-3.909775"><ele>387</ele><time>2020-08-16T09:09:20Z</time><name>PT711</name></trkpt>
<trkpt lat="53.164936" lon="-3.909777"><ele>386</ele><time>2020-08-16T09:09:23Z</time><name>PT712</name></trkpt>
<trkpt lat="53.164908" lon="-3.909782"><ele>386</ele><time>2020-08-16T09:09:26Z</time><name>PT713</name></trkpt>
<trkpt lat="53.164893" lon="-3.909778"><ele>385</ele><time>2020-08-16T09:09:31Z</time><name>PT714</name></trkpt>
<trkpt lat="53.164890" lon="-3.909772"><ele>385</ele><time>2020-08-16T09:09:34Z</time><name>PT715</name></trkpt>
<trkpt lat="53.164910" lon="-3.909770"><ele>385</ele><time>2020-08-16T09:09:37Z</time><name>PT716</name></trkpt>
<trkpt lat="53.164943" lon="-3.909762"><ele>385</ele><time>2020-08-16T09:09:40Z</time><name>PT717</name></trkpt>
<trkpt lat="53.164984" lon="-3.909774"><ele>385</ele><time>2020-08-16T09:09:43Z</time><name>PT718</name></trkpt>
<trkpt lat="53.165002" lon="-3.909777"><ele>385</ele><time>2020-08-16T09:09:47Z</time><name>PT719</name></trkpt>
<trkpt lat="53.164994" lon="-3.909815"><ele>385</ele><time>2020-08-16T09:09:52Z</time><name>PT720</name></trkpt>
<trkpt lat="53.164971" lon="-3.909842"><ele>384</ele><time>2020-08-16T09:09:55Z</time><name>PT721</name></trkpt>
<trkpt lat="53.164953" lon="-3.909869"><ele>384</ele><time>2020-08-16T09:09:58Z</time><name>PT722</name></trkpt>
<trkpt lat="53.164917" lon="-3.909902"><ele>385</ele><time>2020-08-16T09:10:01Z</time><name>PT723</name></trkpt>
<trkpt lat="53.164891" lon="-3.909923"><ele>385</ele><time>2020-08-16T09:10:04Z</time><name>PT724</name></trkpt>
<trkpt lat="53.164849" lon="-3.909952"><ele>385</ele><time>2020-08-16T09:10:08Z</time><name>PT725</name></trkpt>
<trkpt lat="53.164816" lon="-3.909975"><ele>385</ele><time>2020-08-16T09:10:13Z</time><name>PT726</name></trkpt>
<trkpt lat="53.164792" lon="-3.909997"><ele>385</ele><time>2020-08-16T09:10:16Z</time><name>PT727</name></trkpt>
<trkpt lat="53.164754" lon="-3.910034"><ele>384</ele><time>2020-08-16T09:10:20Z</time><name>PT728</name></trkpt>
<trkpt lat="53.164724" lon="-3.910055"><ele>384</ele><time>2020-08-16T09:10:23Z</time><name>PT729</name></trkpt>
<trkpt lat="53.164698" lon="-3.910073"><ele>383</ele><time>2020-08-16T09:10:26Z</time><name>PT730</name></trkpt>
<trkpt lat="53.164664" lon="-3.910096"><ele>383</ele><time>2020-08-16T09:10:31Z</time><name>PT731</name></trkpt>
<trkpt lat="53.164625" lon="-3.910129"><ele>384</ele><time>2020-08-16T09:10:34Z</time><name>PT732</name></trkpt>
<trkpt lat="53.164597" lon="-3.910156"><ele>384</ele><time>2020-08-16T09:10:37Z</time><name>PT733</name></trkpt>
<trkpt lat="53.164565" lon="-3.910171"><ele>384</ele><time>2020-08-16T09:10:40Z</time><name>PT734</name></trkpt>
<trkpt lat="53.164532" lon="-3.910194"><ele>385</ele><time>2020-08-16T09:10:44Z</time><name>PT735</name></trkpt>
<trkpt lat="53.164506" lon="-3.910214"><ele>385</ele><time>2020-08-16T09:10:47Z</time><name>PT736</name></trkpt>
<trkpt lat="53.164476" lon="-3.910239"><ele>384</ele><time>2020-08-16T09:10:50Z</time><name>PT737</name></trkpt>
<trkpt lat="53.164440" lon="-3.910263"><ele>384</ele><time>2020-08-16T09:10:55Z</time><name>PT738</name></trkpt>
<trkpt lat="53.164413" lon="-3.910288"><ele>384</ele><time>2020-08-16T09:10:58Z</time><name>PT739</name></trkpt>
<trkpt lat="53.164387" lon="-3.910323"><ele>384</ele><time>2020-08-16T09:11:01Z</time><name>PT740</name></trkpt>
<trkpt lat="53.164365" lon="-3.910356"><ele>384</ele><time>2020-08-16T09:11:04Z</time><name>PT741</name></trkpt>
<trkpt lat="53.164341" lon="-3.910407"><ele>384</ele><time>2020-08-16T09:11:07Z</time><name>PT742</name></trkpt>
<trkpt lat="53.164324" lon="-3.910449"><ele>385</ele><time>2020-08-16T09:11:10Z</time><name>PT743</name></trkpt>
<trkpt lat="53.164306" lon="-3.910494"><ele>385</ele><time>2020-08-16T09:11:13Z</time><name>PT744</name></trkpt>
<trkpt lat="53.164286" lon="-3.910538"><ele>385</ele><time>2020-08-16T09:11:16Z</time><name>PT745</name></trkpt>
<trkpt lat="53.164257" lon="-3.910594"><ele>385</ele><time>2020-08-16T09:11:20Z</time><name>PT746</name></trkpt>
<trkpt lat="53.164238" lon="-3.910635"><ele>384</ele><time>2020-08-16T09:11:23Z</time><name>PT747</name></trkpt>
<trkpt lat="53.164218" lon="-3.910686"><ele>384</ele><time>2020-08-16T09:11:26Z</time><name>PT748</name></trkpt>
<trkpt lat="53.164207" lon="-3.910741"><ele>384</ele><time>2020-08-16T09:11:29Z</time><name>PT749</name></trkpt>
<trkpt lat="53.164193" lon="-3.910815"><ele>385</ele><time>2020-08-16T09:11:34Z</time><name>PT750</name></trkpt>
<trkpt lat="53.164186" lon="-3.910869"><ele>384</ele><time>2020-08-16T09:11:37Z</time><name>PT751</name></trkpt>
<trkpt lat="53.164172" lon="-3.910945"><ele>385</ele><time>2020-08-16T09:11:40Z</time><name>PT752</name></trkpt>
<trkpt lat="53.164157" lon="-3.911017"><ele>384</ele><time>2020-08-16T09:11:44Z</time><name>PT753</name></trkpt>
<trkpt lat="53.164149" lon="-3.911066"><ele>383</ele><time>2020-08-16T09:11:47Z</time><name>PT754</name></trkpt>
<trkpt lat="53.164133" lon="-3.911106"><ele>383</ele><time>2020-08-16T09:11:50Z</time><name>PT755</name></trkpt>
<trkpt lat="53.164123" lon="-3.911148"><ele>383</ele><time>2020-08-16T09:11:53Z</time><name>PT756</name></trkpt>
<trkpt lat="53.164100" lon="-3.911204"><ele>383</ele><time>2020-08-16T09:11:58Z</time><name>PT757</name></trkpt>
<trkpt lat="53.164077" lon="-3.911262"><ele>383</ele><time>2020-08-16T09:12:01Z</time><name>PT758</name></trkpt>
<trkpt lat="53.164056" lon="-3.911303"><ele>383</ele><time>2020-08-16T09:12:04Z</time><name>PT759</name></trkpt>
<trkpt lat="53.164031" lon="-3.911347"><ele>382</ele><time>2020-08-16T09:12:08Z</time><name>PT760</name></trkpt>
<trkpt lat="53.164008" lon="-3.911379"><ele>382</ele><time>2020-08-16T09:12:11Z</time><name>PT761</name></trkpt>
<trkpt lat="53.163975" lon="-3.911418"><ele>382</ele><time>2020-08-16T09:12:16Z</time><name>PT762</name></trkpt>
<trkpt lat="53.163950" lon="-3.911443"><ele>383</ele><time>2020-08-16T09:12:19Z</time><name>PT763</name></trkpt>
<trkpt lat="53.163902" lon="-3.911474"><ele>382</ele><time>2020-08-16T09:12:22Z</time><name>PT764</name></trkpt>
<trkpt lat="53.163867" lon="-3.911488"><ele>383</ele><time>2020-08-16T09:12:25Z</time><name>PT765</name></trkpt>
<trkpt lat="53.163833" lon="-3.911503"><ele>382</ele><time>2020-08-16T09:12:29Z</time><name>PT766</name></trkpt>
<trkpt lat="53.163795" lon="-3.911526"><ele>382</ele><time>2020-08-16T09:12:34Z</time><name>PT767</name></trkpt>
<trkpt lat="53.163754" lon="-3.911546"><ele>383</ele><time>2020-08-16T09:12:37Z</time><name>PT768</name></trkpt>
<trkpt lat="53.163722" lon="-3.911561"><ele>383</ele><time>2020-08-16T09:12:40Z</time><name>PT769</name></trkpt>
<trkpt lat="53.163681" lon="-3.911574"><ele>384</ele><time>2020-08-16T09:12:44Z</time><name>PT770</name></trkpt>
<trkpt lat="53.163635" lon="-3.911590"><ele>383</ele><time>2020-08-16T09:12:49Z</time><name>PT771</name></trkpt>
<trkpt lat="53.163599" lon="-3.911599"><ele>383</ele><time>2020-08-16T09:12:52Z</time><name>PT772</name></trkpt>
<trkpt lat="53.163561" lon="-3.911605"><ele>384</ele><time>2020-08-16T09:12:55Z</time><name>PT773</name></trkpt>
<trkpt lat="53.163527" lon="-3.911619"><ele>384</ele><time>2020-08-16T09:12:58Z</time><name>PT774</name></trkpt>
<trkpt lat="53.163500" lon="-3.911628"><ele>385</ele><time>2020-08-16T09:13:01Z</time><name>PT775</name></trkpt>
<trkpt lat="53.163476" lon="-3.911645"><ele>385</ele><time>2020-08-16T09:13:04Z</time><name>PT776</name></trkpt>
<trkpt lat="53.163452" lon="-3.911670"><ele>385</ele><time>2020-08-16T09:13:07Z</time><name>PT777</name></trkpt>
<trkpt lat="53.163422" lon="-3.911716"><ele>385</ele><time>2020-08-16T09:13:11Z</time><name>PT778</name></trkpt>
<trkpt lat="53.163401" lon="-3.911750"><ele>385</ele><time>2020-08-16T09:13:15Z</time><name>PT779</name></trkpt>
<trkpt lat="53.163378" lon="-3.911788"><ele>385</ele><time>2020-08-16T09:13:18Z</time><name>PT780</name></trkpt>
<trkpt lat="53.163353" lon="-3.911815"><ele>384</ele><time>2020-08-16T09:13:21Z</time><name>PT781</name></trkpt>
<trkpt lat="53.163334" lon="-3.911844"><ele>383</ele><time>2020-08-16T09:13:24Z</time><name>PT782</name></trkpt>
<trkpt lat="53.163305" lon="-3.911901"><ele>383</ele><time>2020-08-16T09:13:28Z</time><name>PT783</name></trkpt>
<trkpt lat="53.163288" lon="-3.911968"><ele>383</ele><time>2020-08-16T09:13:31Z</time><name>PT784</name></trkpt>
<trkpt lat="53.163271" lon="-3.912028"><ele>383</ele><time>2020-08-16T09:13:34Z</time><name>PT785</name></trkpt>
<trkpt lat="53.163244" lon="-3.912104"><ele>383</ele><time>2020-08-16T09:13:38Z</time><name>PT786</name></trkpt>
<trkpt lat="53.163221" lon="-3.912135"><ele>384</ele><time>2020-08-16T09:13:41Z</time><name>PT787</name></trkpt>
<trkpt lat="53.163198" lon="-3.912152"><ele>383</ele><time>2020-08-16T09:13:44Z</time><name>PT788</name></trkpt>
<trkpt lat="53.163167" lon="-3.912162"><ele>384</ele><time>2020-08-16T09:13:47Z</time><name>PT789</name></trkpt>
<trkpt lat="53.163128" lon="-3.912171"><ele>383</ele><time>2020-08-16T09:13:52Z</time><name>PT790</name></trkpt>
<trkpt lat="53.163095" lon="-3.912177"><ele>384</ele><time>2020-08-16T09:13:55Z</time><name>PT791</name></trkpt>
<trkpt lat="53.163069" lon="-3.912179"><ele>384</ele><time>2020-08-16T09:13:58Z</time><name>PT792</name></trkpt>
<trkpt lat="53.163032" lon="-3.912188"><ele>384</ele><time>2020-08-16T09:14:01Z</time><name>PT793</name></trkpt>
<trkpt lat="53.163000" lon="-3.912192"><ele>383</ele><time>2020-08-16T09:14:05Z</time><name>PT794</name></trkpt>
<trkpt lat="53.162976" lon="-3.912193"><ele>383</ele><time>2020-08-16T09:14:08Z</time><name>PT795</name></trkpt>
<trkpt lat="53.162962" lon="-3.912196"><ele>383</ele><time>2020-08-16T09:14:11Z</time><name>PT796</name></trkpt>
<trkpt lat="53.162927" lon="-3.912201"><ele>383</ele><time>2020-08-16T09:14:16Z</time><name>PT797</name></trkpt>
<trkpt lat="53.162904" lon="-3.912209"><ele>384</ele><time>2020-08-16T09:14:19Z</time><name>PT798</name></trkpt>
<trkpt lat="53.162883" lon="-3.912212"><ele>384</ele><time>2020-08-16T09:14:22Z</time><name>PT799</name></trkpt>
<trkpt lat="53.162863" lon="-3.912223"><ele>384</ele><time>2020-08-16T09:14:25Z</time><name>PT800</name></trkpt>
<trkpt lat="53.162826" lon="-3.912252"><ele>385</ele><time>2020-08-16T09:14:28Z</time><name>PT801</name></trkpt>
<trkpt lat="53.162798" lon="-3.912284"><ele>386</ele><time>2020-08-16T09:14:31Z</time><name>PT802</name></trkpt>
<trkpt lat="53.162757" lon="-3.912318"><ele>386</ele><time>2020-08-16T09:14:35Z</time><name>PT803</name></trkpt>
<trkpt lat="53.162716" lon="-3.912352"><ele>386</ele><time>2020-08-16T09:14:40Z</time><name>PT804</name></trkpt>
<trkpt lat="53.162681" lon="-3.912387"><ele>386</ele><time>2020-08-16T09:14:43Z</time><name>PT805</name></trkpt>
<trkpt lat="53.162643" lon="-3.912428"><ele>387</ele><time>2020-08-16T09:14:47Z</time><name>PT806</name></trkpt>
<trkpt lat="53.162614" lon="-3.912455"><ele>387</ele><time>2020-08-16T09:14:50Z</time><name>PT807</name></trkpt>
<trkpt lat="53.162569" lon="-3.912471"><ele>387</ele><time>2020-08-16T09:14:55Z</time><name>PT808</name></trkpt>
<trkpt lat="53.162527" lon="-3.912473"><ele>387</ele><time>2020-08-16T09:14:58Z</time><name>PT809</name></trkpt>
<trkpt lat="53.162476" lon="-3.912464"><ele>387</ele><time>2020-08-16T09:15:02Z</time><name>PT810</name></trkpt>
<trkpt lat="53.162432" lon="-3.912464"><ele>388</ele><time>2020-08-16T09:15:07Z</time><name>PT811</name></trkpt>
<trkpt lat="53.162386" lon="-3.912469"><ele>388</ele><time>2020-08-16T09:15:10Z</time><name>PT812</name></trkpt>
<trkpt lat="53.162342" lon="-3.912470"><ele>387</ele><time>2020-08-16T09:15:14Z</time><name>PT813</name></trkpt>
<trkpt lat="53.162294" lon="-3.912465"><ele>387</ele><time>2020-08-16T09:15:19Z</time><name>PT814</name></trkpt>
<trkpt lat="53.162258" lon="-3.912461"><ele>388</ele><time>2020-08-16T09:15:22Z</time><name>PT815</name></trkpt>
<trkpt lat="53.162215" lon="-3.912455"><ele>387</ele><time>2020-08-16T09:15:25Z</time><name>PT816</name></trkpt>
<trkpt lat="53.162169" lon="-3.912461"><ele>388</ele><time>2020-08-16T09:15:29Z</time><name>PT817</name></trkpt>
<trkpt lat="53.162127" lon="-3.912464"><ele>389</ele><time>2020-08-16T09:15:34Z</time><name>PT818</name></trkpt>
<trkpt lat="53.162094" lon="-3.912478"><ele>388</ele><time>2020-08-16T09:15:37Z</time><name>PT819</name></trkpt>
<trkpt lat="53.162050" lon="-3.912505"><ele>389</ele><time>2020-08-16T09:15:40Z</time><name>PT820</name></trkpt>
<trkpt lat="53.162010" lon="-3.912525"><ele>388</ele><time>2020-08-16T09:15:44Z</time><name>PT821</name></trkpt>
<trkpt lat="53.161982" lon="-3.912542"><ele>387</ele><time>2020-08-16T09:15:47Z</time><name>PT822</name></trkpt>
<trkpt lat="53.161934" lon="-3.912561"><ele>389</ele><time>2020-08-16T09:15:52Z</time><name>PT823</name></trkpt>
<trkpt lat="53.161897" lon="-3.912570"><ele>389</ele><time>2020-08-16T09:15:55Z</time><name>PT824</name></trkpt>
<trkpt lat="53.161873" lon="-3.912573"><ele>389</ele><time>2020-08-16T09:15:58Z</time><name>PT825</name></trkpt>
<trkpt lat="53.161844" lon="-3.912594"><ele>389</ele><time>2020-08-16T09:16:01Z</time><name>PT826</name></trkpt>
<trkpt lat="53.161815" lon="-3.912613"><ele>389</ele><time>2020-08-16T09:16:06Z</time><name>PT827</name></trkpt>
<trkpt lat="53.161787" lon="-3.912625"><ele>389</ele><time>2020-08-16T09:16:09Z</time><name>PT828</name></trkpt>
<trkpt lat="53.161761" lon="-3.912635"><ele>389</ele><time>2020-08-16T09:16:12Z</time><name>PT829</name></trkpt>
<trkpt lat="53.161726" lon="-3.912652"><ele>390</ele><time>2020-08-16T09:16:16Z</time><name>PT830</name></trkpt>
<trkpt lat="53.161689" lon="-3.912671"><ele>391</ele><time>2020-08-16T09:16:21Z</time><name>PT831</name></trkpt>
<trkpt lat="53.161643" lon="-3.912701"><ele>392</ele><time>2020-08-16T09:16:24Z</time><name>PT832</name></trkpt>
<trkpt lat="53.161610" lon="-3.912727"><ele>392</ele><time>2020-08-16T09:16:27Z</time><name>PT833</name></trkpt>
<trkpt lat="53.161582" lon="-3.912748"><ele>392</ele><time>2020-08-16T09:16:30Z</time><name>PT834</name></trkpt>
<trkpt lat="53.161548" lon="-3.912781"><ele>391</ele><time>2020-08-16T09:16:34Z</time><name>PT835</name></trkpt>
<trkpt lat="53.161514" lon="-3.912806"><ele>390</ele><time>2020-08-16T09:16:39Z</time><name>PT836</name></trkpt>
<trkpt lat="53.161487" lon="-3.912839"><ele>390</ele><time>2020-08-16T09:16:42Z</time><name>PT837</name></trkpt>
<trkpt lat="53.161448" lon="-3.912882"><ele>390</ele><time>2020-08-16T09:16:45Z</time><name>PT838</name></trkpt>
<trkpt lat="53.161425" lon="-3.912903"><ele>390</ele><time>2020-08-16T09:16:48Z</time><name>PT839</name></trkpt>
<trkpt lat="53.161407" lon="-3.912921"><ele>390</ele><time>2020-08-16T09:16:51Z</time><name>PT840</name></trkpt>
<trkpt lat="53.161376" lon="-3.912948"><ele>390</ele><time>2020-08-16T09:16:55Z</time><name>PT841</name></trkpt>
<trkpt lat="53.161345" lon="-3.912986"><ele>390</ele><time>2020-08-16T09:17:00Z</time><name>PT842</name></trkpt>
<trkpt lat="53.161319" lon="-3.913006"><ele>390</ele><time>2020-08-16T09:17:03Z</time><name>PT843</name></trkpt>
<trkpt lat="53.161293" lon="-3.913023"><ele>390</ele><time>2020-08-16T09:17:06Z</time><name>PT844</name></trkpt>
<trkpt lat="53.161265" lon="-3.913045"><ele>390</ele><time>2020-08-16T09:17:09Z</time><name>PT845</name></trkpt>
<trkpt lat="53.161239" lon="-3.913062"><ele>390</ele><time>2020-08-16T09:17:12Z</time><name>PT846</name></trkpt>
<trkpt lat="53.161206" lon="-3.913083"><ele>390</ele><time>2020-08-16T09:17:15Z</time><name>PT847</name></trkpt>
<trkpt lat="53.161179" lon="-3.913100"><ele>390</ele><time>2020-08-16T09:17:18Z</time><name>PT848</name></trkpt>
<trkpt lat="53.161140" lon="-3.913144"><ele>390</ele><time>2020-08-16T09:17:22Z</time><name>PT849</name></trkpt>
<trkpt lat="53.161104" lon="-3.913187"><ele>390</ele><time>2020-08-16T09:17:27Z</time><name>PT850</name></trkpt>
<trkpt lat="53.161063" lon="-3.913216"><ele>390</ele><time>2020-08-16T09:17:30Z</time><name>PT851</name></trkpt>
<trkpt lat="53.161024" lon="-3.913250"><ele>389</ele><time>2020-08-16T09:17:34Z</time><name>PT852</name></trkpt>
<trkpt lat="53.160988" lon="-3.913289"><ele>389</ele><time>2020-08-16T09:17:39Z</time><name>PT853</name></trkpt>
<trkpt lat="53.160963" lon="-3.913312"><ele>388</ele><time>2020-08-16T09:17:42Z</time><name>PT854</name></trkpt>
<trkpt lat="53.160940" lon="-3.913342"><ele>388</ele><time>2020-08-16T09:17:45Z</time><name>PT855</name></trkpt>
<trkpt lat="53.160900" lon="-3.913386"><ele>387</ele><time>2020-08-16T09:17:48Z</time><name>PT856</name></trkpt>
<trkpt lat="53.160873" lon="-3.913411"><ele>387</ele><time>2020-08-16T09:17:51Z</time><name>PT857</name></trkpt>
<trkpt lat="53.160836" lon="-3.913443"><ele>386</ele><time>2020-08-16T09:17:55Z</time><name>PT858</name></trkpt>
<trkpt lat="53.160809" lon="-3.913468"><ele>386</ele><time>2020-08-16T09:17:58Z</time><name>PT859</name></trkpt>
<trkpt lat="53.160785" lon="-3.913500"><ele>385</ele><time>2020-08-16T09:18:01Z</time><name>PT860</name></trkpt>
<trkpt lat="53.160759" lon="-3.913527"><ele>385</ele><time>2020-08-16T09:18:05Z</time><name>PT861</name></trkpt>
<trkpt lat="53.160723" lon="-3.913564"><ele>385</ele><time>2020-08-16T09:18:09Z</time><name>PT862</name></trkpt>
<trkpt lat="53.160694" lon="-3.913588"><ele>384</ele><time>2020-08-16T09:18:12Z</time><name>PT863</name></trkpt>
<trkpt lat="53.160650" lon="-3.913624"><ele>383</ele><time>2020-08-16T09:18:15Z</time><name>PT864</name></trkpt>
<trkpt lat="53.160607" lon="-3.913649"><ele>383</ele><time>2020-08-16T09:18:19Z</time><name>PT865</name></trkpt>
<trkpt lat="53.160562" lon="-3.913671"><ele>383</ele><time>2020-08-16T09:18:24Z</time><name>PT866</name></trkpt>
<trkpt lat="53.160536" lon="-3.913689"><ele>383</ele><time>2020-08-16T09:18:27Z</time><name>PT867</name></trkpt>
<trkpt lat="53.160510" lon="-3.913703"><ele>383</ele><time>2020-08-16T09:18:30Z</time><name>PT868</name></trkpt>
<trkpt lat="53.160474" lon="-3.913718"><ele>383</ele><time>2020-08-16T09:18:33Z</time><name>PT869</name></trkpt>
<trkpt lat="53.160444" lon="-3.913741"><ele>383</ele><time>2020-08-16T09:18:36Z</time><name>PT870</name></trkpt>
<trkpt lat="53.160415" lon="-3.913765"><ele>383</ele><time>2020-08-16T09:18:39Z</time><name>PT871</name></trkpt>
<trkpt lat="53.160391" lon="-3.913785"><ele>383</ele><time>2020-08-16T09:18:42Z</time><name>PT872</name></trkpt>
<trkpt lat="53.160352" lon="-3.913826"><ele>383</ele><time>2020-08-16T09:18:46Z</time><name>PT873</name></trkpt>
<trkpt lat="53.160327" lon="-3.913839"><ele>384</ele><time>2020-08-16T09:18:49Z</time><name>PT874</name></trkpt>
<trkpt lat="53.160289" lon="-3.913853"><ele>384</ele><time>2020-08-16T09:18:54Z</time><name>PT875</name></trkpt>
<trkpt lat="53.160253" lon="-3.913854"><ele>385</ele><time>2020-08-16T09:18:57Z</time><name>PT876</name></trkpt>
<trkpt lat="53.160222" lon="-3.913854"><ele>384</ele><time>2020-08-16T09:19:01Z</time><name>PT877</name></trkpt>
<trkpt lat="53.160183" lon="-3.913861"><ele>385</ele><time>2020-08-16T09:19:06Z</time><name>PT878</name></trkpt>
<trkpt lat="53.160146" lon="-3.913872"><ele>385</ele><time>2020-08-16T09:19:09Z</time><name>PT879</name></trkpt>
<trkpt lat="53.160112" lon="-3.913874"><ele>385</ele><time>2020-08-16T09:19:13Z</time><name>PT880</name></trkpt>
<trkpt lat="53.160069" lon="-3.913872"><ele>386</ele><time>2020-08-16T09:19:18Z</time><name>PT881</name></trkpt>
<trkpt lat="53.160030" lon="-3.913861"><ele>386</ele><time>2020-08-16T09:19:21Z</time><name>PT882</name></trkpt>
<trkpt lat="53.159994" lon="-3.913854"><ele>386</ele><time>2020-08-16T09:19:25Z</time><name>PT883</name></trkpt>
<trkpt lat="53.159961" lon="-3.913844"><ele>386</ele><time>2020-08-16T09:19:30Z</time><name>PT884</name></trkpt>
<trkpt lat="53.159921" lon="-3.913831"><ele>387</ele><time>2020-08-16T09:19:33Z</time><name>PT885</name></trkpt>
<trkpt lat="53.159890" lon="-3.913821"><ele>387</ele><time>2020-08-16T09:19:36Z</time><name>PT886</name></trkpt>
<trkpt lat="53.159860" lon="-3.913811"><ele>387</ele><time>2020-08-16T09:19:39Z</time><name>PT887</name></trkpt>
<trkpt lat="53.159820" lon="-3.913796"><ele>388</ele><time>2020-08-16T09:19:43Z</time><name>PT888</name></trkpt>
<trkpt lat="53.159791" lon="-3.913788"><ele>389</ele><time>2020-08-16T09:19:46Z</time><name>PT889</name></trkpt>
<trkpt lat="53.159766" lon="-3.913783"><ele>390</ele><time>2020-08-16T09:19:49Z</time><name>PT890</name></trkpt>
<trkpt lat="53.159742" lon="-3.913775"><ele>390</ele><time>2020-08-16T09:19:52Z</time><name>PT891</name></trkpt>
<trkpt lat="53.159702" lon="-3.913761"><ele>391</ele><time>2020-08-16T09:19:57Z</time><name>PT892</name></trkpt>
<trkpt lat="53.159673" lon="-3.913755"><ele>391</ele><time>2020-08-16T09:20:00Z</time><name>PT893</name></trkpt>
<trkpt lat="53.159630" lon="-3.913751"><ele>392</ele><time>2020-08-16T09:20:03Z</time><name>PT894</name></trkpt>
<trkpt lat="53.159591" lon="-3.913747"><ele>392</ele><time>2020-08-16T09:20:07Z</time><name>PT895</name></trkpt>
<trkpt lat="53.159558" lon="-3.913751"><ele>391</ele><time>2020-08-16T09:20:10Z</time><name>PT896</name></trkpt>
<trkpt lat="53.159507" lon="-3.913756"><ele>391</ele><time>2020-08-16T09:20:15Z</time><name>PT897</name></trkpt>
<trkpt lat="53.159473" lon="-3.913769"><ele>392</ele><time>2020-08-16T09:20:18Z</time><name>PT898</name></trkpt>
<trkpt lat="53.159429" lon="-3.913786"><ele>392</ele><time>2020-08-16T09:20:21Z</time><name>PT899</name></trkpt>
<trkpt lat="53.159394" lon="-3.913795"><ele>392</ele><time>2020-08-16T09:20:24Z</time><name>PT900</name></trkpt>
<trkpt lat="53.159350" lon="-3.913810"><ele>393</ele><time>2020-08-16T09:20:28Z</time><name>PT901</name></trkpt>
<trkpt lat="53.159320" lon="-3.913831"><ele>393</ele><time>2020-08-16T09:20:31Z</time><name>PT902</name></trkpt>
<trkpt lat="53.159285" lon="-3.913842"><ele>394</ele><time>2020-08-16T09:20:34Z</time><name>PT903</name></trkpt>
<trkpt lat="53.159259" lon="-3.913849"><ele>394</ele><time>2020-08-16T09:20:37Z</time><name>PT904</name></trkpt>
<trkpt lat="53.159222" lon="-3.913864"><ele>394</ele><time>2020-08-16T09:20:42Z</time><name>PT905</name></trkpt>
<trkpt lat="53.159186" lon="-3.913879"><ele>395</ele><time>2020-08-16T09:20:45Z</time><name>PT906</name></trkpt>
<trkpt lat="53.159157" lon="-3.913885"><ele>395</ele><time>2020-08-16T09:20:48Z</time><name>PT907</name></trkpt>
<trkpt lat="53.159120" lon="-3.913904"><ele>396</ele><time>2020-08-16T09:20:52Z</time><name>PT908</name></trkpt>
<trkpt lat="53.159090" lon="-3.913908"><ele>396</ele><time>2020-08-16T09:20:55Z</time><name>PT909</name></trkpt>
<trkpt lat="53.159055" lon="-3.913919"><ele>396</ele><time>2020-08-16T09:21:00Z</time><name>PT910</name></trkpt>
<trkpt lat="53.159015" lon="-3.913933"><ele>397</ele><time>2020-08-16T09:21:03Z</time><name>PT911</name></trkpt>
<trkpt lat="53.158983" lon="-3.913942"><ele>397</ele><time>2020-08-16T09:21:06Z</time><name>PT912</name></trkpt>
<trkpt lat="53.158954" lon="-3.913958"><ele>398</ele><time>2020-08-16T09:21:09Z</time><name>PT913</name></trkpt>
<trkpt lat="53.158926" lon="-3.913977"><ele>398</ele><time>2020-08-16T09:21:13Z</time><name>PT914</name></trkpt>
<trkpt lat="53.158894" lon="-3.914008"><ele>401</ele><time>2020-08-16T09:21:18Z</time><name>PT915</name></trkpt>
<trkpt lat="53.158892" lon="-3.914009"><ele>401</ele><time>2020-08-16T09:21:18Z</time><name>PT916</name></trkpt>
<trkpt lat="53.158891" lon="-3.914005"><ele>401</ele><time>2020-08-16T09:21:19Z</time><name>PT917</name></trkpt>
<trkpt lat="53.158891" lon="-3.914002"><ele>400</ele><time>2020-08-16T09:21:21Z</time><name>PT918</name></trkpt>
<trkpt lat="53.158889" lon="-3.914001"><ele>400</ele><time>2020-08-16T09:21:21Z</time><name>PT919</name></trkpt>
<trkpt lat="53.158891" lon="-3.913999"><ele>400</ele><time>2020-08-16T09:21:33Z</time><name>PT920</name></trkpt>
<trkpt lat="53.158887" lon="-3.914005"><ele>400</ele><time>2020-08-16T09:21:33Z</time><name>PT921</name></trkpt>
<trkpt lat="53.158886" lon="-3.914007"><ele>401</ele><time>2020-08-16T09:21:34Z</time><name>PT922</name></trkpt>
<trkpt lat="53.158893" lon="-3.913997"><ele>400</ele><time>2020-08-16T09:21:39Z</time><name>PT923</name></trkpt>
<trkpt lat="53.158893" lon="-3.913993"><ele>400</ele><time>2020-08-16T09:21:39Z</time><name>PT924</name></trkpt>
<trkpt lat="53.158891" lon="-3.914001"><ele>400</ele><time>2020-08-16T09:21:41Z</time><name>PT925</name></trkpt>
<trkpt lat="53.158891" lon="-3.914000"><ele>399</ele><time>2020-08-16T09:21:42Z</time><name>PT926</name></trkpt>
<trkpt lat="53.158889" lon="-3.914000"><ele>400</ele><time>2020-08-16T09:21:42Z</time><name>PT927</name></trkpt>
<trkpt lat="53.158889" lon="-3.914004"><ele>400</ele><time>2020-08-16T09:21:43Z</time><name>PT928</name></trkpt>
<trkpt lat="53.158886" lon="-3.914008"><ele>400</ele><time>2020-08-16T09:21:45Z</time><name>PT929</name></trkpt>
<trkpt lat="53.158884" lon="-3.914020"><ele>400</ele><time>2020-08-16T09:21:45Z</time><name>PT930</name></trkpt>
<trkpt lat="53.158881" lon="-3.914024"><ele>400</ele><time>2020-08-16T09:21:46Z</time><name>PT931</name></trkpt>
<trkpt lat="53.158879" lon="-3.914026"><ele>400</ele><time>2020-08-16T09:21:48Z</time><name>PT932</name></trkpt>
<trkpt lat="53.158881" lon="-3.914024"><ele>400</ele><time>2020-08-16T09:21:48Z</time><name>PT933</name></trkpt>
<trkpt lat="53.158880" lon="-3.914023"><ele>400</ele><time>2020-08-16T09:21:49Z</time><name>PT934</name></trkpt>
<trkpt lat="53.158880" lon="-3.914026"><ele>400</ele><time>2020-08-16T09:21:51Z</time><name>PT935</name></trkpt>
<trkpt lat="53.158883" lon="-3.914030"><ele>400</ele><time>2020-08-16T09:22:03Z</time><name>PT936</name></trkpt>
<trkpt lat="53.158881" lon="-3.914037"><ele>400</ele><time>2020-08-16T09:22:03Z</time><name>PT937</name></trkpt>
<trkpt lat="53.158881" lon="-3.914032"><ele>400</ele><time>2020-08-16T09:22:04Z</time><name>PT938</name></trkpt>
<trkpt lat="53.158880" lon="-3.914035"><ele>400</ele><time>2020-08-16T09:22:06Z</time><name>PT939</name></trkpt>
<trkpt lat="53.158879" lon="-3.914036"><ele>400</ele><time>2020-08-16T09:22:06Z</time><name>PT940</name></trkpt>
<trkpt lat="53.158878" lon="-3.914034"><ele>400</ele><time>2020-08-16T09:22:07Z</time><name>PT941</name></trkpt>
<trkpt lat="53.158881" lon="-3.914028"><ele>400</ele><time>2020-08-16T09:22:18Z</time><name>PT942</name></trkpt>
<trkpt lat="53.158881" lon="-3.914024"><ele>401</ele><time>2020-08-16T09:22:18Z</time><name>PT943</name></trkpt>
<trkpt lat="53.158884" lon="-3.914020"><ele>401</ele><time>2020-08-16T09:22:19Z</time><name>PT944</name></trkpt>
<trkpt lat="53.158880" lon="-3.914019"><ele>400</ele><time>2020-08-16T09:22:20Z</time><name>PT945</name></trkpt>
<trkpt lat="53.158877" lon="-3.914020"><ele>400</ele><time>2020-08-16T09:22:21Z</time><name>PT946</name></trkpt>
<trkpt lat="53.158873" lon="-3.914017"><ele>400</ele><time>2020-08-16T09:22:23Z</time><name>PT947</name></trkpt>
<trkpt lat="53.158873" lon="-3.914014"><ele>400</ele><time>2020-08-16T09:22:23Z</time><name>PT948</name></trkpt>
<trkpt lat="53.158873" lon="-3.914013"><ele>401</ele><time>2020-08-16T09:22:24Z</time><name>PT949</name></trkpt>
<trkpt lat="53.158875" lon="-3.914009"><ele>401</ele><time>2020-08-16T09:22:26Z</time><name>PT950</name></trkpt>
<trkpt lat="53.158877" lon="-3.914004"><ele>401</ele><time>2020-08-16T09:22:26Z</time><name>PT951</name></trkpt>
<trkpt lat="53.158879" lon="-3.914007"><ele>401</ele><time>2020-08-16T09:22:27Z</time><name>PT952</name></trkpt>
<trkpt lat="53.158879" lon="-3.914008"><ele>401</ele><time>2020-08-16T09:22:29Z</time><name>PT953</name></trkpt>
<trkpt lat="53.158881" lon="-3.914003"><ele>404</ele><time>2020-08-16T09:22:29Z</time><name>PT954</name></trkpt>
<trkpt lat="53.158879" lon="-3.913994"><ele>404</ele><time>2020-08-16T09:22:30Z</time><name>PT955</name></trkpt>
<trkpt lat="53.158880" lon="-3.913997"><ele>403</ele><time>2020-08-16T09:22:32Z</time><name>PT956</name></trkpt>
<trkpt lat="53.158880" lon="-3.913997"><ele>402</ele><time>2020-08-16T09:22:32Z</time><name>PT957</name></trkpt>
<trkpt lat="53.158882" lon="-3.913999"><ele>402</ele><time>2020-08-16T09:22:33Z</time><name>PT958</name></trkpt>
<trkpt lat="53.158875" lon="-3.913996"><ele>402</ele><time>2020-08-16T09:22:50Z</time><name>PT959</name></trkpt>
<trkpt lat="53.158865" lon="-3.913993"><ele>402</ele><time>2020-08-16T09:22:50Z</time><name>PT960</name></trkpt>
<trkpt lat="53.158854" lon="-3.913993"><ele>403</ele><time>2020-08-16T09:22:51Z</time><name>PT961</name></trkpt>
<trkpt lat="53.158848" lon="-3.913997"><ele>403</ele><time>2020-08-16T09:22:53Z</time><name>PT962</name></trkpt>
<trkpt lat="53.158844" lon="-3.913997"><ele>403</ele><time>2020-08-16T09:22:53Z</time><name>PT963</name></trkpt>
<trkpt lat="53.158835" lon="-3.914003"><ele>404</ele><time>2020-08-16T09:22:54Z</time><name>PT964</name></trkpt>
<trkpt lat="53.158827" lon="-3.914007"><ele>404</ele><time>2020-08-16T09:22:56Z</time><name>PT965</name></trkpt>
<trkpt lat="53.158817" lon="-3.914013"><ele>404</ele><time>2020-08-16T09:22:56Z</time><name>PT966</name></trkpt>
<trkpt lat="53.158807" lon="-3.914018"><ele>405</ele><time>2020-08-16T09:22:57Z</time><name>PT967</name></trkpt>
<trkpt lat="53.158796" lon="-3.914025"><ele>405</ele><time>2020-08-16T09:22:59Z</time><name>PT968</name></trkpt>
<trkpt lat="53.158790" lon="-3.914033"><ele>405</ele><time>2020-08-16T09:22:59Z</time><name>PT969</name></trkpt>
<trkpt lat="53.158782" lon="-3.914040"><ele>405</ele><time>2020-08-16T09:23:00Z</time><name>PT970</name></trkpt>
<trkpt lat="53.158776" lon="-3.914049"><ele>405</ele><time>2020-08-16T09:23:02Z</time><name>PT971</name></trkpt>
<trkpt lat="53.158766" lon="-3.914054"><ele>406</ele><time>2020-08-16T09:23:02Z</time><name>PT972</name></trkpt>
<trkpt lat="53.158756" lon="-3.914059"><ele>406</ele><time>2020-08-16T09:23:03Z</time><name>PT973</name></trkpt>
<trkpt lat="53.158744" lon="-3.914063"><ele>406</ele><time>2020-08-16T09:23:05Z</time><name>PT974</name></trkpt>
<trkpt lat="53.158732" lon="-3.914065"><ele>407</ele><time>2020-08-16T09:23:05Z</time><name>PT975</name></trkpt>
<trkpt lat="53.158722" lon="-3.914070"><ele>407</ele><time>2020-08-16T09:23:06Z</time><name>PT976</name></trkpt>
<trkpt lat="53.158712" lon="-3.914073"><ele>407</ele><time>2020-08-16T09:23:08Z</time><name>PT977</name></trkpt>
<trkpt lat="53.158702" lon="-3.914078"><ele>407</ele><time>2020-08-16T09:23:08Z</time><name>PT978</name></trkpt>
<trkpt lat="53.158694" lon="-3.914084"><ele>407</ele><time>2020-08-16T09:23:09Z</time><name>PT979</name></trkpt>
<trkpt lat="53.158685" lon="-3.914089"><ele>407</ele><time>2020-08-16T09:23:11Z</time><name>PT980</name></trkpt>
<trkpt lat="53.158675" lon="-3.914095"><ele>407</ele><time>2020-08-16T09:23:11Z</time><name>PT981</name></trkpt>
<trkpt lat="53.158664" lon="-3.914101"><ele>407</ele><time>2020-08-16T09:23:12Z</time><name>PT982</name></trkpt>
<trkpt lat="53.158656" lon="-3.914104"><ele>406</ele><time>2020-08-16T09:23:14Z</time><name>PT983</name></trkpt>
<trkpt lat="53.158644" lon="-3.914109"><ele>407</ele><time>2020-08-16T09:23:14Z</time><name>PT984</name></trkpt>
<trkpt lat="53.158635" lon="-3.914117"><ele>406</ele><time>2020-08-16T09:23:15Z</time><name>PT985</name></trkpt>
<trkpt lat="53.158626" lon="-3.914124"><ele>407</ele><time>2020-08-16T09:23:17Z</time><name>PT986</name></trkpt>
<trkpt lat="53.158614" lon="-3.914130"><ele>406</ele><time>2020-08-16T09:23:17Z</time><name>PT987</name></trkpt>
<trkpt lat="53.158606" lon="-3.914136"><ele>406</ele><time>2020-08-16T09:23:18Z</time><name>PT988</name></trkpt>
<trkpt lat="53.158598" lon="-3.914141"><ele>406</ele><time>2020-08-16T09:23:20Z</time><name>PT989</name></trkpt>
<trkpt lat="53.158588" lon="-3.914147"><ele>406</ele><time>2020-08-16T09:23:20Z</time><name>PT990</name></trkpt>
<trkpt lat="53.158578" lon="-3.914152"><ele>406</ele><time>2020-08-16T09:23:21Z</time><name>PT991</name></trkpt>
<trkpt lat="53.158572" lon="-3.914159"><ele>406</ele><time>2020-08-16T09:23:23Z</time><name>PT992</name></trkpt>
<trkpt lat="53.158563" lon="-3.914167"><ele>406</ele><time>2020-08-16T09:23:23Z</time><name>PT993</name></trkpt>
<trkpt lat="53.158554" lon="-3.914175"><ele>406</ele><time>2020-08-16T09:23:24Z</time><name>PT994</name></trkpt>
<trkpt lat="53.158545" lon="-3.914181"><ele>406</ele><time>2020-08-16T09:23:26Z</time><name>PT995</name></trkpt>
<trkpt lat="53.158535" lon="-3.914183"><ele>406</ele><time>2020-08-16T09:23:26Z</time><name>PT996</name></trkpt>
<trkpt lat="53.158523" lon="-3.914188"><ele>406</ele><time>2020-08-16T09:23:27Z</time><name>PT997</name></trkpt>
<trkpt lat="53.158513" lon="-3.914196"><ele>406</ele><time>2020-08-16T09:23:29Z</time><name>PT998</name></trkpt>
<trkpt lat="53.158503" lon="-3.914201"><ele>406</ele><time>2020-08-16T09:23:29Z</time><name>PT999</name></trkpt>
<trkpt lat="53.158495" lon="-3.914205"><ele>406</ele><time>2020-08-16T09:23:30Z</time><name>PT1000</name></trkpt>
<trkpt lat="53.158482" lon="-3.914207"><ele>406</ele><time>2020-08-16T09:23:32Z</time><name>PT1001</name></trkpt>
<trkpt lat="53.158474" lon="-3.914209"><ele>406</ele><time>2020-08-16T09:23:32Z</time><name>PT1002</name></trkpt>
<trkpt lat="53.158467" lon="-3.914213"><ele>406</ele><time>2020-08-16T09:23:33Z</time><name>PT1003</name></trkpt>
<trkpt lat="53.158459" lon="-3.914218"><ele>407</ele><time>2020-08-16T09:23:35Z</time><name>PT1004</name></trkpt>
<trkpt lat="53.158448" lon="-3.914223"><ele>407</ele><time>2020-08-16T09:23:35Z</time><name>PT1005</name></trkpt>
<trkpt lat="53.158438" lon="-3.914228"><ele>407</ele><time>2020-08-16T09:23:36Z</time><name>PT1006</name></trkpt>
<trkpt lat="53.158428" lon="-3.914235"><ele>407</ele><time>2020-08-16T09:23:38Z</time><name>PT1007</name></trkpt>
<trkpt lat="53.158418" lon="-3.914242"><ele>407</ele><time>2020-08-16T09:23:38Z</time><name>PT1008</name></trkpt>
<trkpt lat="53.158410" lon="-3.914246"><ele>407</ele><time>2020-08-16T09:23:39Z</time><name>PT1009</name></trkpt>
<trkpt lat="53.158398" lon="-3.914250"><ele>407</ele><time>2020-08-16T09:23:41Z</time><name>PT1010</name></trkpt>
<trkpt lat="53.158390" lon="-3.914254"><ele>407</ele><time>2020-08-16T09:23:41Z</time><name>PT1011</name></trkpt>
<trkpt lat="53.158381" lon="-3.914260"><ele>408</ele><time>2020-08-16T09:23:42Z</time><name>PT1012</name></trkpt>
<trkpt lat="53.158373" lon="-3.914267"><ele>407</ele><time>2020-08-16T09:23:44Z</time><name>PT1013</name></trkpt>
<trkpt lat="53.158365" lon="-3.914268"><ele>407</ele><time>2020-08-16T09:23:44Z</time><name>PT1014</name></trkpt>
<trkpt lat="53.158356" lon="-3.914270"><ele>407</ele><time>2020-08-16T09:23:45Z</time><name>PT1015</name></trkpt>
<trkpt lat="53.158346" lon="-3.914277"><ele>407</ele><time>2020-08-16T09:23:47Z</time><name>PT1016</name></trkpt>
<trkpt lat="53.158335" lon="-3.914285"><ele>407</ele><time>2020-08-16T09:23:47Z</time><name>PT1017</name></trkpt>
<trkpt lat="53.158325" lon="-3.914291"><ele>407</ele><time>2020-08-16T09:23:48Z</time><name>PT1018</name></trkpt>
<trkpt lat="53.158314" lon="-3.914295"><ele>408</ele><time>2020-08-16T09:23:50Z</time><name>PT1019</name></trkpt>
<trkpt lat="53.158304" lon="-3.914297"><ele>408</ele><time>2020-08-16T09:23:50Z</time><name>PT1020</name></trkpt>
<trkpt lat="53.158297" lon="-3.914297"><ele>408</ele><time>2020-08-16T09:23:51Z</time><name>PT1021</name></trkpt>
<trkpt lat="53.158288" lon="-3.914296"><ele>409</ele><time>2020-08-16T09:23:53Z</time><name>PT1022</name></trkpt>
<trkpt lat="53.158278" lon="-3.914299"><ele>409</ele><time>2020-08-16T09:23:53Z</time><name>PT1023</name></trkpt>
<trkpt lat="53.158267" lon="-3.914302"><ele>409</ele><time>2020-08-16T09:23:54Z</time><name>PT1024</name></trkpt>
<trkpt lat="53.158256" lon="-3.914304"><ele>409</ele><time>2020-08-16T09:23:56Z</time><name>PT1025</name></trkpt>
<trkpt lat="53.158246" lon="-3.914305"><ele>409</ele><time>2020-08-16T09:23:56Z</time><name>PT1026</name></trkpt>
<trkpt lat="53.158238" lon="-3.914304"><ele>409</ele><time>2020-08-16T09:23:57Z</time><name>PT1027</name></trkpt>
<trkpt lat="53.158227" lon="-3.914302"><ele>409</ele><time>2020-08-16T09:23:59Z</time><name>PT1028</name></trkpt>
<trkpt lat="53.158219" lon="-3.914301"><ele>409</ele><time>2020-08-16T09:23:59Z</time><name>PT1029</name></trkpt>
<trkpt lat="53.158209" lon="-3.914298"><ele>409</ele><time>2020-08-16T09:24:00Z</time><name>PT1030</name></trkpt>
<trkpt lat="53.158201" lon="-3.914299"><ele>409</ele><time>2020-08-16T09:24:02Z</time><name>PT1031</name></trkpt>
<trkpt lat="53.158190" lon="-3.914298"><ele>410</ele><time>2020-08-16T09:24:02Z</time><name>PT1032</name></trkpt>
<trkpt lat="53.158181" lon="-3.914297"><ele>410</ele><time>2020-08-16T09:24:03Z</time><name>PT1033</name></trkpt>
<trkpt lat="53.158173" lon="-3.914294"><ele>410</ele><time>2020-08-16T09:24:05Z</time><name>PT1034</name></trkpt>
<trkpt lat="53.158167" lon="-3.914294"><ele>410</ele><time>2020-08-16T09:24:05Z</time><name>PT1035</name></trkpt>
<trkpt lat="53.158156" lon="-3.914297"><ele>410</ele><time>2020-08-16T09:24:06Z</time><name>PT1036</name></trkpt>
<trkpt lat="53.158144" lon="-3.914297"><ele>410</ele><time>2020-08-16T09:24:08Z</time><name>PT1037</name></trkpt>
<trkpt lat="53.158136" lon="-3.914296"><ele>410</ele><time>2020-08-16T09:24:08Z</time><name>PT1038</name></trkpt>
<trkpt lat="53.158125" lon="-3.914294"><ele>411</ele><time>2020-08-16T09:24:09Z</time><name>PT1039</name></trkpt>
<trkpt lat="53.158115" lon="-3.914295"><ele>410</ele><time>2020-08-16T09:24:11Z</time><name>PT1040</name></trkpt>
<trkpt lat="53.158104" lon="-3.914296"><ele>411</ele><time>2020-08-16T09:24:11Z</time><name>PT1041</name></trkpt>
<trkpt lat="53.158092" lon="-3.914295"><ele>411</ele><time>2020-08-16T09:24:12Z</time><name>PT1042</name></trkpt>
<trkpt lat="53.158081" lon="-3.914292"><ele>411</ele><time>2020-08-16T09:24:14Z</time><name>PT1043</name></trkpt>
<trkpt lat="53.158071" lon="-3.914291"><ele>411</ele><time>2020-08-16T09:24:14Z</time><name>PT1044</name></trkpt>
<trkpt lat="53.158061" lon="-3.914289"><ele>412</ele><time>2020-08-16T09:24:15Z</time><name>PT1045</name></trkpt>
<trkpt lat="53.158051" lon="-3.914287"><ele>412</ele><time>2020-08-16T09:24:17Z</time><name>PT1046</name></trkpt>
<trkpt lat="53.158040" lon="-3.914285"><ele>412</ele><time>2020-08-16T09:24:17Z</time><name>PT1047</name></trkpt>
<trkpt lat="53.157995" lon="-3.914283"><ele>413</ele><time>2020-08-16T09:24:21Z</time><name>PT1048</name></trkpt>
<trkpt lat="53.157958" lon="-3.914281"><ele>412</ele><time>2020-08-16T09:24:26Z</time><name>PT1049</name></trkpt>
<trkpt lat="53.157933" lon="-3.914276"><ele>411</ele><time>2020-08-16T09:24:29Z</time><name>PT1050</name></trkpt>
<trkpt lat="53.157911" lon="-3.914261"><ele>411</ele><time>2020-08-16T09:24:32Z</time><name>PT1051</name></trkpt>
<trkpt lat="53.157885" lon="-3.914257"><ele>412</ele><time>2020-08-16T09:24:35Z</time><name>PT1052</name></trkpt>
<trkpt lat="53.157857" lon="-3.914253"><ele>412</ele><time>2020-08-16T09:24:39Z</time><name>PT1053</name></trkpt>
<trkpt lat="53.157834" lon="-3.914254"><ele>412</ele><time>2020-08-16T09:24:42Z</time><name>PT1054</name></trkpt>
<trkpt lat="53.157793" lon="-3.914242"><ele>413</ele><time>2020-08-16T09:24:47Z</time><name>PT1055</name></trkpt>
<trkpt lat="53.157762" lon="-3.914243"><ele>414</ele><time>2020-08-16T09:24:50Z</time><name>PT1056</name></trkpt>
<trkpt lat="53.157739" lon="-3.914247"><ele>414</ele><time>2020-08-16T09:24:53Z</time><name>PT1057</name></trkpt>
<trkpt lat="53.157706" lon="-3.914250"><ele>415</ele><time>2020-08-16T09:24:57Z</time><name>PT1058</name></trkpt>
<trkpt lat="53.157676" lon="-3.914250"><ele>416</ele><time>2020-08-16T09:25:00Z</time><name>PT1059</name></trkpt>
<trkpt lat="53.157637" lon="-3.914246"><ele>418</ele><time>2020-08-16T09:25:05Z</time><name>PT1060</name></trkpt>
<trkpt lat="53.157605" lon="-3.914244"><ele>418</ele><time>2020-08-16T09:25:08Z</time><name>PT1061</name></trkpt>
<trkpt lat="53.157570" lon="-3.914239"><ele>418</ele><time>2020-08-16T09:25:11Z</time><name>PT1062</name></trkpt>
<trkpt lat="53.157537" lon="-3.914219"><ele>419</ele><time>2020-08-16T09:25:15Z</time><name>PT1063</name></trkpt>
<trkpt lat="53.157511" lon="-3.914207"><ele>420</ele><time>2020-08-16T09:25:18Z</time><name>PT1064</name></trkpt>
<trkpt lat="53.157486" lon="-3.914202"><ele>419</ele><time>2020-08-16T09:25:21Z</time><name>PT1065</name></trkpt>
<trkpt lat="53.157449" lon="-3.914181"><ele>420</ele><time>2020-08-16T09:25:26Z</time><name>PT1066</name></trkpt>
<trkpt lat="53.157418" lon="-3.914165"><ele>420</ele><time>2020-08-16T09:25:29Z</time><name>PT1067</name></trkpt>
<trkpt lat="53.157393" lon="-3.914153"><ele>420</ele><time>2020-08-16T09:25:32Z</time><name>PT1068</name></trkpt>
<trkpt lat="53.157364" lon="-3.914134"><ele>420</ele><time>2020-08-16T09:25:36Z</time><name>PT1069</name></trkpt>
<trkpt lat="53.157340" lon="-3.914129"><ele>419</ele><time>2020-08-16T09:25:39Z</time><name>PT1070</name></trkpt>
<trkpt lat="53.157309" lon="-3.914120"><ele>419</ele><time>2020-08-16T09:25:44Z</time><name>PT1071</name></trkpt>
<trkpt lat="53.157284" lon="-3.914115"><ele>419</ele><time>2020-08-16T09:25:47Z</time><name>PT1072</name></trkpt>
<trkpt lat="53.157254" lon="-3.914111"><ele>419</ele><time>2020-08-16T09:25:50Z</time><name>PT1073</name></trkpt>
<trkpt lat="53.157227" lon="-3.914107"><ele>419</ele><time>2020-08-16T09:25:54Z</time><name>PT1074</name></trkpt>
<trkpt lat="53.157200" lon="-3.914103"><ele>419</ele><time>2020-08-16T09:25:57Z</time><name>PT1075</name></trkpt>
<trkpt lat="53.157176" lon="-3.914109"><ele>418</ele><time>2020-08-16T09:26:00Z</time><name>PT1076</name></trkpt>
<trkpt lat="53.157141" lon="-3.914109"><ele>419</ele><time>2020-08-16T09:26:05Z</time><name>PT1077</name></trkpt>
<trkpt lat="53.157118" lon="-3.914113"><ele>419</ele><time>2020-08-16T09:26:08Z</time><name>PT1078</name></trkpt>
<trkpt lat="53.157097" lon="-3.914114"><ele>419</ele><time>2020-08-16T09:26:11Z</time><name>PT1079</name></trkpt>
<trkpt lat="53.157075" lon="-3.914085"><ele>422</ele><time>2020-08-16T09:26:14Z</time><name>PT1080</name></trkpt>
<trkpt lat="53.157065" lon="-3.914095"><ele>421</ele><time>2020-08-16T09:26:17Z</time><name>PT1081</name></trkpt>
<trkpt lat="53.157064" lon="-3.914101"><ele>420</ele><time>2020-08-16T09:26:21Z</time><name>PT1082</name></trkpt>
<trkpt lat="53.157042" lon="-3.914095"><ele>421</ele><time>2020-08-16T09:26:24Z</time><name>PT1083</name></trkpt>
<trkpt lat="53.157005" lon="-3.914097"><ele>421</ele><time>2020-08-16T09:26:29Z</time><name>PT1084</name></trkpt>
<trkpt lat="53.156983" lon="-3.914096"><ele>421</ele><time>2020-08-16T09:26:32Z</time><name>PT1085</name></trkpt>
<trkpt lat="53.156950" lon="-3.914081"><ele>423</ele><time>2020-08-16T09:26:35Z</time><name>PT1086</name></trkpt>
<trkpt lat="53.156916" lon="-3.914072"><ele>424</ele><time>2020-08-16T09:26:39Z</time><name>PT1087</name></trkpt>
<trkpt lat="53.156895" lon="-3.914063"><ele>425</ele><time>2020-08-16T09:26:42Z</time><name>PT1088</name></trkpt>
<trkpt lat="53.156870" lon="-3.914063"><ele>426</ele><time>2020-08-16T09:26:45Z</time><name>PT1089</name></trkpt>
<trkpt lat="53.156846" lon="-3.914078"><ele>425</ele><time>2020-08-16T09:26:48Z</time><name>PT1090</name></trkpt>
<trkpt lat="53.156808" lon="-3.914085"><ele>424</ele><time>2020-08-16T09:26:53Z</time><name>PT1091</name></trkpt>
<trkpt lat="53.156775" lon="-3.914097"><ele>425</ele><time>2020-08-16T09:26:56Z</time><name>PT1092</name></trkpt>
<trkpt lat="53.156759" lon="-3.914094"><ele>427</ele><time>2020-08-16T09:26:59Z</time><name>PT1093</name></trkpt>
<trkpt lat="53.156735" lon="-3.914091"><ele>427</ele><time>2020-08-16T09:27:02Z</time><name>PT1094</name></trkpt>
<trkpt lat="53.156706" lon="-3.914100"><ele>428</ele><time>2020-08-16T09:27:06Z</time><name>PT1095</name></trkpt>
<trkpt lat="53.156678" lon="-3.914121"><ele>427</ele><time>2020-08-16T09:27:09Z</time><name>PT1096</name></trkpt>
<trkpt lat="53.156650" lon="-3.914143"><ele>429</ele><time>2020-08-16T09:27:14Z</time><name>PT1097</name></trkpt>
<trkpt lat="53.156633" lon="-3.914163"><ele>429</ele><time>2020-08-16T09:27:17Z</time><name>PT1098</name></trkpt>
<trkpt lat="53.156613" lon="-3.914171"><ele>430</ele><time>2020-08-16T09:27:20Z</time><name>PT1099</name></trkpt>
<trkpt lat="53.156576" lon="-3.914189"><ele>430</ele><time>2020-08-16T09:27:24Z</time><name>PT1100</name></trkpt>
<trkpt lat="53.156547" lon="-3.914201"><ele>431</ele><time>2020-08-16T09:27:29Z</time><name>PT1101</name></trkpt>
<trkpt lat="53.156510" lon="-3.914221"><ele>432</ele><time>2020-08-16T09:27:32Z</time><name>PT1102</name></trkpt>
<trkpt lat="53.156487" lon="-3.914233"><ele>432</ele><time>2020-08-16T09:27:35Z</time><name>PT1103</name></trkpt>
<trkpt lat="53.156457" lon="-3.914260"><ele>432</ele><time>2020-08-16T09:27:39Z</time><name>PT1104</name></trkpt>
<trkpt lat="53.156422" lon="-3.914283"><ele>434</ele><time>2020-08-16T09:27:44Z</time><name>PT1105</name></trkpt>
<trkpt lat="53.156393" lon="-3.914302"><ele>435</ele><time>2020-08-16T09:27:47Z</time><name>PT1106</name></trkpt>
<trkpt lat="53.156368" lon="-3.914310"><ele>435</ele><time>2020-08-16T09:27:50Z</time><name>PT1107</name></trkpt>
<trkpt lat="53.156346" lon="-3.914320"><ele>436</ele><time>2020-08-16T09:27:54Z</time><name>PT1108</name></trkpt>
<trkpt lat="53.156318" lon="-3.914343"><ele>437</ele><time>2020-08-16T09:27:59Z</time><name>PT1109</name></trkpt>
<trkpt lat="53.156293" lon="-3.914366"><ele>438</ele><time>2020-08-16T09:28:02Z</time><name>PT1110</name></trkpt>
<trkpt lat="53.156267" lon="-3.914386"><ele>437</ele><time>2020-08-16T09:28:05Z</time><name>PT1111</name></trkpt>
<trkpt lat="53.156245" lon="-3.914400"><ele>438</ele><time>2020-08-16T09:28:08Z</time><name>PT1112</name></trkpt>
<trkpt lat="53.156226" lon="-3.914411"><ele>438</ele><time>2020-08-16T09:28:11Z</time><name>PT1113</name></trkpt>
<trkpt lat="53.156204" lon="-3.914427"><ele>438</ele><time>2020-08-16T09:28:14Z</time><name>PT1114</name></trkpt>
<trkpt lat="53.156181" lon="-3.914442"><ele>439</ele><time>2020-08-16T09:28:17Z</time><name>PT1115</name></trkpt>
<trkpt lat="53.156158" lon="-3.914456"><ele>440</ele><time>2020-08-16T09:28:20Z</time><name>PT1116</name></trkpt>
<trkpt lat="53.156137" lon="-3.914449"><ele>440</ele><time>2020-08-16T09:28:24Z</time><name>PT1117</name></trkpt>
<trkpt lat="53.156109" lon="-3.914465"><ele>441</ele><time>2020-08-16T09:28:29Z</time><name>PT1118</name></trkpt>
<trkpt lat="53.156088" lon="-3.914474"><ele>443</ele><time>2020-08-16T09:28:32Z</time><name>PT1119</name></trkpt>
<trkpt lat="53.156069" lon="-3.914491"><ele>442</ele><time>2020-08-16T09:28:35Z</time><name>PT1120</name></trkpt>
<trkpt lat="53.156040" lon="-3.914513"><ele>442</ele><time>2020-08-16T09:28:38Z</time><name>PT1121</name></trkpt>
<trkpt lat="53.156019" lon="-3.914544"><ele>443</ele><time>2020-08-16T09:28:41Z</time><name>PT1122</name></trkpt>
<trkpt lat="53.155988" lon="-3.914583"><ele>441</ele><time>2020-08-16T09:28:45Z</time><name>PT1123</name></trkpt>
<trkpt lat="53.155963" lon="-3.914606"><ele>441</ele><time>2020-08-16T09:28:48Z</time><name>PT1124</name></trkpt>
<trkpt lat="53.155926" lon="-3.914628"><ele>441</ele><time>2020-08-16T09:28:53Z</time><name>PT1125</name></trkpt>
<trkpt lat="53.155886" lon="-3.914651"><ele>443</ele><time>2020-08-16T09:28:56Z</time><name>PT1126</name></trkpt>
<trkpt lat="53.155860" lon="-3.914665"><ele>443</ele><time>2020-08-16T09:28:59Z</time><name>PT1127</name></trkpt>
<trkpt lat="53.155823" lon="-3.914683"><ele>444</ele><time>2020-08-16T09:29:03Z</time><name>PT1128</name></trkpt>
<trkpt lat="53.155793" lon="-3.914693"><ele>443</ele><time>2020-08-16T09:29:06Z</time><name>PT1129</name></trkpt>
<trkpt lat="53.155756" lon="-3.914708"><ele>443</ele><time>2020-08-16T09:29:11Z</time><name>PT1130</name></trkpt>
<trkpt lat="53.155723" lon="-3.914732"><ele>443</ele><time>2020-08-16T09:29:14Z</time><name>PT1131</name></trkpt>
<trkpt lat="53.155697" lon="-3.914734"><ele>445</ele><time>2020-08-16T09:29:18Z</time><name>PT1132</name></trkpt>
<trkpt lat="53.155672" lon="-3.914739"><ele>444</ele><time>2020-08-16T09:29:21Z</time><name>PT1133</name></trkpt>
<trkpt lat="53.155630" lon="-3.914765"><ele>445</ele><time>2020-08-16T09:29:26Z</time><name>PT1134</name></trkpt>
<trkpt lat="53.155592" lon="-3.914780"><ele>446</ele><time>2020-08-16T09:29:29Z</time><name>PT1135</name></trkpt>
<trkpt lat="53.155571" lon="-3.914780"><ele>446</ele><time>2020-08-16T09:29:32Z</time><name>PT1136</name></trkpt>
<trkpt lat="53.155536" lon="-3.914806"><ele>448</ele><time>2020-08-16T09:29:36Z</time><name>PT1137</name></trkpt>
<trkpt lat="53.155521" lon="-3.914841"><ele>447</ele><time>2020-08-16T09:29:39Z</time><name>PT1138</name></trkpt>
<trkpt lat="53.155507" lon="-3.914873"><ele>447</ele><time>2020-08-16T09:29:42Z</time><name>PT1139</name></trkpt>
<trkpt lat="53.155492" lon="-3.914912"><ele>445</ele><time>2020-08-16T09:29:45Z</time><name>PT1140</name></trkpt>
<trkpt lat="53.155451" lon="-3.914943"><ele>445</ele><time>2020-08-16T09:29:50Z</time><name>PT1141</name></trkpt>
<trkpt lat="53.155430" lon="-3.914955"><ele>445</ele><time>2020-08-16T09:29:53Z</time><name>PT1142</name></trkpt>
<trkpt lat="53.155419" lon="-3.914962"><ele>444</ele><time>2020-08-16T09:29:56Z</time><name>PT1143</name></trkpt>
<trkpt lat="53.155393" lon="-3.915013"><ele>443</ele><time>2020-08-16T09:30:00Z</time><name>PT1144</name></trkpt>
<trkpt lat="53.155367" lon="-3.915032"><ele>443</ele><time>2020-08-16T09:30:05Z</time><name>PT1145</name></trkpt>
<trkpt lat="53.155342" lon="-3.915020"><ele>442</ele><time>2020-08-16T09:30:08Z</time><name>PT1146</name></trkpt>
<trkpt lat="53.155323" lon="-3.915010"><ele>443</ele><time>2020-08-16T09:30:12Z</time><name>PT1147</name></trkpt>
<trkpt lat="53.155310" lon="-3.915005"><ele>443</ele><time>2020-08-16T09:30:15Z</time><name>PT1148</name></trkpt>
<trkpt lat="53.155276" lon="-3.915023"><ele>444</ele><time>2020-08-16T09:30:20Z</time><name>PT1149</name></trkpt>
<trkpt lat="53.155249" lon="-3.915032"><ele>444</ele><time>2020-08-16T09:30:23Z</time><name>PT1150</name></trkpt>
<trkpt lat="53.155220" lon="-3.915041"><ele>444</ele><time>2020-08-16T09:30:26Z</time><name>PT1151</name></trkpt>
<trkpt lat="53.155206" lon="-3.915037"><ele>445</ele><time>2020-08-16T09:30:29Z</time><name>PT1152</name></trkpt>
<trkpt lat="53.155176" lon="-3.915088"><ele>445</ele><time>2020-08-16T09:30:33Z</time><name>PT1153</name></trkpt>
<trkpt lat="53.155149" lon="-3.915114"><ele>445</ele><time>2020-08-16T09:30:36Z</time><name>PT1154</name></trkpt>
<trkpt lat="53.155111" lon="-3.915131"><ele>446</ele><time>2020-08-16T09:30:41Z</time><name>PT1155</name></trkpt>
<trkpt lat="53.155086" lon="-3.915147"><ele>446</ele><time>2020-08-16T09:30:44Z</time><name>PT1156</name></trkpt>
<trkpt lat="53.155083" lon="-3.915142"><ele>448</ele><time>2020-08-16T09:30:47Z</time><name>PT1157</name></trkpt>
<trkpt lat="53.155059" lon="-3.915140"><ele>448</ele><time>2020-08-16T09:31:02Z</time><name>PT1158</name></trkpt>
<trkpt lat="53.155023" lon="-3.915129"><ele>448</ele><time>2020-08-16T09:31:05Z</time><name>PT1159</name></trkpt>
<trkpt lat="53.155011" lon="-3.915108"><ele>449</ele><time>2020-08-16T09:31:08Z</time><name>PT1160</name></trkpt>
<trkpt lat="53.154965" lon="-3.915108"><ele>449</ele><time>2020-08-16T09:31:12Z</time><name>PT1161</name></trkpt>
<trkpt lat="53.154925" lon="-3.915109"><ele>451</ele><time>2020-08-16T09:31:15Z</time><name>PT1162</name></trkpt>
<trkpt lat="53.154891" lon="-3.915128"><ele>450</ele><time>2020-08-16T09:31:20Z</time><name>PT1163</name></trkpt>
<trkpt lat="53.154874" lon="-3.915150"><ele>451</ele><time>2020-08-16T09:31:23Z</time><name>PT1164</name></trkpt>
<trkpt lat="53.154871" lon="-3.915159"><ele>451</ele><time>2020-08-16T09:31:26Z</time><name>PT1165</name></trkpt>
<trkpt lat="53.154869" lon="-3.915166"><ele>451</ele><time>2020-08-16T09:31:29Z</time><name>PT1166</name></trkpt>
<trkpt lat="53.154847" lon="-3.915171"><ele>451</ele><time>2020-08-16T09:31:32Z</time><name>PT1167</name></trkpt>
<trkpt lat="53.154817" lon="-3.915189"><ele>449</ele><time>2020-08-16T09:31:36Z</time><name>PT1168</name></trkpt>
<trkpt lat="53.154794" lon="-3.915216"><ele>449</ele><time>2020-08-16T09:31:39Z</time><name>PT1169</name></trkpt>
<trkpt lat="53.154777" lon="-3.915237"><ele>450</ele><time>2020-08-16T09:31:44Z</time><name>PT1170</name></trkpt>
<trkpt lat="53.154769" lon="-3.915248"><ele>450</ele><time>2020-08-16T09:31:47Z</time><name>PT1171</name></trkpt>
<trkpt lat="53.154747" lon="-3.915255"><ele>451</ele><time>2020-08-16T09:31:50Z</time><name>PT1172</name></trkpt>
<trkpt lat="53.154721" lon="-3.915265"><ele>452</ele><time>2020-08-16T09:31:53Z</time><name>PT1173</name></trkpt>
<trkpt lat="53.154698" lon="-3.915294"><ele>451</ele><time>2020-08-16T09:31:56Z</time><name>PT1174</name></trkpt>
<trkpt lat="53.154680" lon="-3.915343"><ele>450</ele><time>2020-08-16T09:32:00Z</time><name>PT1175</name></trkpt>
<trkpt lat="53.154666" lon="-3.915380"><ele>452</ele><time>2020-08-16T09:32:03Z</time><name>PT1176</name></trkpt>
<trkpt lat="53.154641" lon="-3.915420"><ele>451</ele><time>2020-08-16T09:32:08Z</time><name>PT1177</name></trkpt>
<trkpt lat="53.154624" lon="-3.915450"><ele>453</ele><time>2020-08-16T09:32:11Z</time><name>PT1178</name></trkpt>
<trkpt lat="53.154604" lon="-3.915482"><ele>453</ele><time>2020-08-16T09:32:14Z</time><name>PT1179</name></trkpt>
<trkpt lat="53.154589" lon="-3.915506"><ele>452</ele><time>2020-08-16T09:32:17Z</time><name>PT1180</name></trkpt>
<trkpt lat="53.154579" lon="-3.915524"><ele>452</ele><time>2020-08-16T09:32:21Z</time><name>PT1181</name></trkpt>
<trkpt lat="53.154563" lon="-3.915549"><ele>453</ele><time>2020-08-16T09:32:24Z</time><name>PT1182</name></trkpt>
<trkpt lat="53.154547" lon="-3.915594"><ele>453</ele><time>2020-08-16T09:32:26Z</time><name>PT1183</name></trkpt>
<trkpt lat="53.154535" lon="-3.915615"><ele>453</ele><time>2020-08-16T09:32:26Z</time><name>PT1184</name></trkpt>
<trkpt lat="53.154531" lon="-3.915625"><ele>454</ele><time>2020-08-16T09:32:27Z</time><name>PT1185</name></trkpt>
<trkpt lat="53.154531" lon="-3.915632"><ele>454</ele><time>2020-08-16T09:32:29Z</time><name>PT1186</name></trkpt>
<trkpt lat="53.154530" lon="-3.915642"><ele>454</ele><time>2020-08-16T09:32:29Z</time><name>PT1187</name></trkpt>
<trkpt lat="53.154525" lon="-3.915653"><ele>454</ele><time>2020-08-16T09:32:30Z</time><name>PT1188</name></trkpt>
<trkpt lat="53.154520" lon="-3.915668"><ele>454</ele><time>2020-08-16T09:32:32Z</time><name>PT1189</name></trkpt>
<trkpt lat="53.154515" lon="-3.915678"><ele>455</ele><time>2020-08-16T09:32:32Z</time><name>PT1190</name></trkpt>
<trkpt lat="53.154509" lon="-3.915689"><ele>455</ele><time>2020-08-16T09:32:33Z</time><name>PT1191</name></trkpt>
<trkpt lat="53.154503" lon="-3.915698"><ele>455</ele><time>2020-08-16T09:32:35Z</time><name>PT1192</name></trkpt>
<trkpt lat="53.154496" lon="-3.915708"><ele>455</ele><time>2020-08-16T09:32:35Z</time><name>PT1193</name></trkpt>
<trkpt lat="53.154491" lon="-3.915721"><ele>455</ele><time>2020-08-16T09:32:36Z</time><name>PT1194</name></trkpt>
<trkpt lat="53.154484" lon="-3.915732"><ele>455</ele><time>2020-08-16T09:32:38Z</time><name>PT1195</name></trkpt>
<trkpt lat="53.154483" lon="-3.915742"><ele>455</ele><time>2020-08-16T09:32:38Z</time><name>PT1196</name></trkpt>
<trkpt lat="53.154477" lon="-3.915750"><ele>456</ele><time>2020-08-16T09:32:39Z</time><name>PT1197</name></trkpt>
<trkpt lat="53.154469" lon="-3.915761"><ele>456</ele><time>2020-08-16T09:32:41Z</time><name>PT1198</name></trkpt>
<trkpt lat="53.154462" lon="-3.915772"><ele>456</ele><time>2020-08-16T09:32:41Z</time><name>PT1199</name></trkpt>
<trkpt lat="53.154453" lon="-3.915780"><ele>456</ele><time>2020-08-16T09:32:42Z</time><name>PT1200</name></trkpt>
<trkpt lat="53.154444" lon="-3.915795"><ele>456</ele><time>2020-08-16T09:32:44Z</time><name>PT1201</name></trkpt>
<trkpt lat="53.154437" lon="-3.915806"><ele>456</ele><time>2020-08-16T09:32:44Z</time><name>PT1202</name></trkpt>
<trkpt lat="53.154430" lon="-3.915815"><ele>456</ele><time>2020-08-16T09:32:45Z</time><name>PT1203</name></trkpt>
<trkpt lat="53.154421" lon="-3.915826"><ele>455</ele><time>2020-08-16T09:32:47Z</time><name>PT1204</name></trkpt>
<trkpt lat="53.154415" lon="-3.915836"><ele>455</ele><time>2020-08-16T09:32:47Z</time><name>PT1205</name></trkpt>
<trkpt lat="53.154410" lon="-3.915851"><ele>456</ele><time>2020-08-16T09:32:48Z</time><name>PT1206</name></trkpt>
<trkpt lat="53.154405" lon="-3.915862"><ele>456</ele><time>2020-08-16T09:32:50Z</time><name>PT1207</name></trkpt>
<trkpt lat="53.154397" lon="-3.915871"><ele>456</ele><time>2020-08-16T09:32:50Z</time><name>PT1208</name></trkpt>
<trkpt lat="53.154389" lon="-3.915883"><ele>456</ele><time>2020-08-16T09:32:51Z</time><name>PT1209</name></trkpt>
<trkpt lat="53.154384" lon="-3.915893"><ele>456</ele><time>2020-08-16T09:32:53Z</time><name>PT1210</name></trkpt>
<trkpt lat="53.154378" lon="-3.915903"><ele>457</ele><time>2020-08-16T09:32:53Z</time><name>PT1211</name></trkpt>
<trkpt lat="53.154374" lon="-3.915915"><ele>457</ele><time>2020-08-16T09:32:54Z</time><name>PT1212</name></trkpt>
<trkpt lat="53.154368" lon="-3.915921"><ele>457</ele><time>2020-08-16T09:32:56Z</time><name>PT1213</name></trkpt>
<trkpt lat="53.154365" lon="-3.915931"><ele>458</ele><time>2020-08-16T09:32:56Z</time><name>PT1214</name></trkpt>
<trkpt lat="53.154362" lon="-3.915939"><ele>458</ele><time>2020-08-16T09:32:57Z</time><name>PT1215</name></trkpt>
<trkpt lat="53.154356" lon="-3.915947"><ele>458</ele><time>2020-08-16T09:32:59Z</time><name>PT1216</name></trkpt>
<trkpt lat="53.154346" lon="-3.915955"><ele>459</ele><time>2020-08-16T09:32:59Z</time><name>PT1217</name></trkpt>
<trkpt lat="53.154343" lon="-3.915965"><ele>459</ele><time>2020-08-16T09:33:00Z</time><name>PT1218</name></trkpt>
<trkpt lat="53.154338" lon="-3.915977"><ele>459</ele><time>2020-08-16T09:33:02Z</time><name>PT1219</name></trkpt>
<trkpt lat="53.154331" lon="-3.915986"><ele>460</ele><time>2020-08-16T09:33:02Z</time><name>PT1220</name></trkpt>
<trkpt lat="53.154326" lon="-3.915998"><ele>460</ele><time>2020-08-16T09:33:03Z</time><name>PT1221</name></trkpt>
<trkpt lat="53.154321" lon="-3.916010"><ele>460</ele><time>2020-08-16T09:33:05Z</time><name>PT1222</name></trkpt>
<trkpt lat="53.154313" lon="-3.916022"><ele>460</ele><time>2020-08-16T09:33:05Z</time><name>PT1223</name></trkpt>
<trkpt lat="53.154308" lon="-3.916032"><ele>460</ele><time>2020-08-16T09:33:06Z</time><name>PT1224</name></trkpt>
<trkpt lat="53.154305" lon="-3.916037"><ele>461</ele><time>2020-08-16T09:33:08Z</time><name>PT1225</name></trkpt>
<trkpt lat="53.154300" lon="-3.916048"><ele>461</ele><time>2020-08-16T09:33:08Z</time><name>PT1226</name></trkpt>
<trkpt lat="53.154295" lon="-3.916052"><ele>462</ele><time>2020-08-16T09:33:09Z</time><name>PT1227</name></trkpt>
<trkpt lat="53.154290" lon="-3.916061"><ele>462</ele><time>2020-08-16T09:33:11Z</time><name>PT1228</name></trkpt>
<trkpt lat="53.154285" lon="-3.916069"><ele>461</ele><time>2020-08-16T09:33:11Z</time><name>PT1229</name></trkpt>
<trkpt lat="53.154278" lon="-3.916076"><ele>461</ele><time>2020-08-16T09:33:12Z</time><name>PT1230</name></trkpt>
<trkpt lat="53.154268" lon="-3.916082"><ele>461</ele><time>2020-08-16T09:33:14Z</time><name>PT1231</name></trkpt>
<trkpt lat="53.154259" lon="-3.916089"><ele>460</ele><time>2020-08-16T09:33:14Z</time><name>PT1232</name></trkpt>
<trkpt lat="53.154253" lon="-3.916098"><ele>460</ele><time>2020-08-16T09:33:15Z</time><name>PT1233</name></trkpt>
<trkpt lat="53.154249" lon="-3.916105"><ele>459</ele><time>2020-08-16T09:33:17Z</time><name>PT1234</name></trkpt>
<trkpt lat="53.154241" lon="-3.916111"><ele>460</ele><time>2020-08-16T09:33:17Z</time><name>PT1235</name></trkpt>
<trkpt lat="53.154238" lon="-3.916120"><ele>460</ele><time>2020-08-16T09:33:18Z</time><name>PT1236</name></trkpt>
<trkpt lat="53.154230" lon="-3.916125"><ele>460</ele><time>2020-08-16T09:33:20Z</time><name>PT1237</name></trkpt>
<trkpt lat="53.154224" lon="-3.916129"><ele>459</ele><time>2020-08-16T09:33:20Z</time><name>PT1238</name></trkpt>
<trkpt lat="53.154217" lon="-3.916140"><ele>460</ele><time>2020-08-16T09:33:21Z</time><name>PT1239</name></trkpt>
<trkpt lat="53.154209" lon="-3.916150"><ele>460</ele><time>2020-08-16T09:33:23Z</time><name>PT1240</name></trkpt>
<trkpt lat="53.154203" lon="-3.916160"><ele>460</ele><time>2020-08-16T09:33:23Z</time><name>PT1241</name></trkpt>
<trkpt lat="53.154198" lon="-3.916169"><ele>460</ele><time>2020-08-16T09:33:24Z</time><name>PT1242</name></trkpt>
<trkpt lat="53.154193" lon="-3.916179"><ele>460</ele><time>2020-08-16T09:33:26Z</time><name>PT1243</name></trkpt>
<trkpt lat="53.154187" lon="-3.916185"><ele>460</ele><time>2020-08-16T09:33:26Z</time><name>PT1244</name></trkpt>
<trkpt lat="53.154186" lon="-3.916190"><ele>461</ele><time>2020-08-16T09:33:27Z</time><name>PT1245</name></trkpt>
<trkpt lat="53.154181" lon="-3.916202"><ele>461</ele><time>2020-08-16T09:33:29Z</time><name>PT1246</name></trkpt>
<trkpt lat="53.154170" lon="-3.916216"><ele>461</ele><time>2020-08-16T09:33:29Z</time><name>PT1247</name></trkpt>
<trkpt lat="53.154158" lon="-3.916232"><ele>461</ele><time>2020-08-16T09:33:30Z</time><name>PT1248</name></trkpt>
<trkpt lat="53.154148" lon="-3.916246"><ele>461</ele><time>2020-08-16T09:33:32Z</time><name>PT1249</name></trkpt>
<trkpt lat="53.154139" lon="-3.916253"><ele>462</ele><time>2020-08-16T09:33:32Z</time><name>PT1250</name></trkpt>
<trkpt lat="53.154132" lon="-3.916261"><ele>462</ele><time>2020-08-16T09:33:33Z</time><name>PT1251</name></trkpt>
<trkpt lat="53.154125" lon="-3.916268"><ele>462</ele><time>2020-08-16T09:33:35Z</time><name>PT1252</name></trkpt>
<trkpt lat="53.154120" lon="-3.916279"><ele>463</ele><time>2020-08-16T09:33:35Z</time><name>PT1253</name></trkpt>
<trkpt lat="53.154112" lon="-3.916287"><ele>463</ele><time>2020-08-16T09:33:36Z</time><name>PT1254</name></trkpt>
<trkpt lat="53.154114" lon="-3.916309"><ele>462</ele><time>2020-08-16T09:33:37Z</time><name>PT1255</name></trkpt>
<trkpt lat="53.154101" lon="-3.916314"><ele>463</ele><time>2020-08-16T09:33:38Z</time><name>PT1256</name></trkpt>
<trkpt lat="53.154095" lon="-3.916324"><ele>463</ele><time>2020-08-16T09:33:40Z</time><name>PT1257</name></trkpt>
<trkpt lat="53.154086" lon="-3.916340"><ele>463</ele><time>2020-08-16T09:33:40Z</time><name>PT1258</name></trkpt>
<trkpt lat="53.154078" lon="-3.916353"><ele>462</ele><time>2020-08-16T09:33:41Z</time><name>PT1259</name></trkpt>
<trkpt lat="53.154071" lon="-3.916366"><ele>462</ele><time>2020-08-16T09:33:43Z</time><name>PT1260</name></trkpt>
<trkpt lat="53.154061" lon="-3.916379"><ele>462</ele><time>2020-08-16T09:33:43Z</time><name>PT1261</name></trkpt>
<trkpt lat="53.154053" lon="-3.916386"><ele>463</ele><time>2020-08-16T09:33:44Z</time><name>PT1262</name></trkpt>
<trkpt lat="53.154048" lon="-3.916381"><ele>462</ele><time>2020-08-16T09:33:46Z</time><name>PT1263</name></trkpt>
<trkpt lat="53.154048" lon="-3.916378"><ele>462</ele><time>2020-08-16T09:33:46Z</time><name>PT1264</name></trkpt>
<trkpt lat="53.154044" lon="-3.916379"><ele>462</ele><time>2020-08-16T09:33:47Z</time><name>PT1265</name></trkpt>
<trkpt lat="53.154035" lon="-3.916386"><ele>462</ele><time>2020-08-16T09:33:49Z</time><name>PT1266</name></trkpt>
<trkpt lat="53.154027" lon="-3.916394"><ele>462</ele><time>2020-08-16T09:33:49Z</time><name>PT1267</name></trkpt>
<trkpt lat="53.154019" lon="-3.916396"><ele>462</ele><time>2020-08-16T09:33:50Z</time><name>PT1268</name></trkpt>
<trkpt lat="53.154010" lon="-3.916400"><ele>462</ele><time>2020-08-16T09:33:52Z</time><name>PT1269</name></trkpt>
<trkpt lat="53.154003" lon="-3.916409"><ele>461</ele><time>2020-08-16T09:33:52Z</time><name>PT1270</name></trkpt>
<trkpt lat="53.153995" lon="-3.916413"><ele>461</ele><time>2020-08-16T09:33:53Z</time><name>PT1271</name></trkpt>
<trkpt lat="53.153988" lon="-3.916419"><ele>461</ele><time>2020-08-16T09:33:55Z</time><name>PT1272</name></trkpt>
<trkpt lat="53.153983" lon="-3.916425"><ele>461</ele><time>2020-08-16T09:33:55Z</time><name>PT1273</name></trkpt>
<trkpt lat="53.153975" lon="-3.916436"><ele>460</ele><time>2020-08-16T09:33:56Z</time><name>PT1274</name></trkpt>
<trkpt lat="53.153969" lon="-3.916444"><ele>461</ele><time>2020-08-16T09:33:58Z</time><name>PT1275</name></trkpt>
<trkpt lat="53.153961" lon="-3.916451"><ele>462</ele><time>2020-08-16T09:33:58Z</time><name>PT1276</name></trkpt>
<trkpt lat="53.153956" lon="-3.916456"><ele>461</ele><time>2020-08-16T09:33:59Z</time><name>PT1277</name></trkpt>
<trkpt lat="53.153951" lon="-3.916460"><ele>461</ele><time>2020-08-16T09:34:01Z</time><name>PT1278</name></trkpt>
<trkpt lat="53.153945" lon="-3.916463"><ele>462</ele><time>2020-08-16T09:34:01Z</time><name>PT1279</name></trkpt>
<trkpt lat="53.153941" lon="-3.916469"><ele>462</ele><time>2020-08-16T09:34:02Z</time><name>PT1280</name></trkpt>
<trkpt lat="53.153935" lon="-3.916479"><ele>462</ele><time>2020-08-16T09:34:04Z</time><name>PT1281</name></trkpt>
<trkpt lat="53.153928" lon="-3.916485"><ele>463</ele><time>2020-08-16T09:34:04Z</time><name>PT1282</name></trkpt>
<trkpt lat="53.153927" lon="-3.916490"><ele>463</ele><time>2020-08-16T09:34:05Z</time><name>PT1283</name></trkpt>
<trkpt lat="53.153923" lon="-3.916489"><ele>465</ele><time>2020-08-16T09:34:07Z</time><name>PT1284</name></trkpt>
<trkpt lat="53.153920" lon="-3.916496"><ele>464</ele><time>2020-08-16T09:34:07Z</time><name>PT1285</name></trkpt>
<trkpt lat="53.153919" lon="-3.916501"><ele>464</ele><time>2020-08-16T09:34:08Z</time><name>PT1286</name></trkpt>
<trkpt lat="53.153920" lon="-3.916498"><ele>464</ele><time>2020-08-16T09:34:23Z</time><name>PT1287</name></trkpt>
<trkpt lat="53.153920" lon="-3.916501"><ele>464</ele><time>2020-08-16T09:34:25Z</time><name>PT1288</name></trkpt>
<trkpt lat="53.153921" lon="-3.916503"><ele>464</ele><time>2020-08-16T09:34:25Z</time><name>PT1289</name></trkpt>
<trkpt lat="53.153924" lon="-3.916513"><ele>465</ele><time>2020-08-16T09:34:34Z</time><name>PT1290</name></trkpt>
<trkpt lat="53.153924" lon="-3.916519"><ele>465</ele><time>2020-08-16T09:34:34Z</time><name>PT1291</name></trkpt>
<trkpt lat="53.153924" lon="-3.916521"><ele>465</ele><time>2020-08-16T09:34:35Z</time><name>PT1292</name></trkpt>
<trkpt lat="53.153920" lon="-3.916520"><ele>464</ele><time>2020-08-16T09:34:49Z</time><name>PT1293</name></trkpt>
<trkpt lat="53.153920" lon="-3.916522"><ele>464</ele><time>2020-08-16T09:34:50Z</time><name>PT1294</name></trkpt>
<trkpt lat="53.153920" lon="-3.916523"><ele>464</ele><time>2020-08-16T09:34:52Z</time><name>PT1295</name></trkpt>
<trkpt lat="53.153916" lon="-3.916523"><ele>464</ele><time>2020-08-16T09:34:53Z</time><name>PT1296</name></trkpt>
<trkpt lat="53.153915" lon="-3.916520"><ele>464</ele><time>2020-08-16T09:34:55Z</time><name>PT1297</name></trkpt>
<trkpt lat="53.153915" lon="-3.916520"><ele>463</ele><time>2020-08-16T09:34:55Z</time><name>PT1298</name></trkpt>
<trkpt lat="53.153912" lon="-3.916523"><ele>464</ele><time>2020-08-16T09:35:05Z</time><name>PT1299</name></trkpt>
<trkpt lat="53.153909" lon="-3.916532"><ele>464</ele><time>2020-08-16T09:35:07Z</time><name>PT1300</name></trkpt>
<trkpt lat="53.153905" lon="-3.916540"><ele>464</ele><time>2020-08-16T09:35:07Z</time><name>PT1301</name></trkpt>
<trkpt lat="53.153902" lon="-3.916546"><ele>465</ele><time>2020-08-16T09:35:08Z</time><name>PT1302</name></trkpt>
<trkpt lat="53.153901" lon="-3.916556"><ele>465</ele><time>2020-08-16T09:35:10Z</time><name>PT1303</name></trkpt>
<trkpt lat="53.153899" lon="-3.916563"><ele>465</ele><time>2020-08-16T09:35:10Z</time><name>PT1304</name></trkpt>
<trkpt lat="53.153897" lon="-3.916564"><ele>465</ele><time>2020-08-16T09:35:11Z</time><name>PT1305</name></trkpt>
<trkpt lat="53.153896" lon="-3.916565"><ele>465</ele><time>2020-08-16T09:35:13Z</time><name>PT1306</name></trkpt>
<trkpt lat="53.153895" lon="-3.916566"><ele>465</ele><time>2020-08-16T09:35:13Z</time><name>PT1307</name></trkpt>
<trkpt lat="53.153897" lon="-3.916571"><ele>465</ele><time>2020-08-16T09:35:14Z</time><name>PT1308</name></trkpt>
<trkpt lat="53.153896" lon="-3.916582"><ele>465</ele><time>2020-08-16T09:35:17Z</time><name>PT1309</name></trkpt>
<trkpt lat="53.153894" lon="-3.916599"><ele>464</ele><time>2020-08-16T09:35:19Z</time><name>PT1310</name></trkpt>
<trkpt lat="53.153890" lon="-3.916608"><ele>464</ele><time>2020-08-16T09:35:19Z</time><name>PT1311</name></trkpt>
<trkpt lat="53.153888" lon="-3.916618"><ele>465</ele><time>2020-08-16T09:35:20Z</time><name>PT1312</name></trkpt>
<trkpt lat="53.153879" lon="-3.916638"><ele>465</ele><time>2020-08-16T09:35:22Z</time><name>PT1313</name></trkpt>
<trkpt lat="53.153872" lon="-3.916647"><ele>465</ele><time>2020-08-16T09:35:22Z</time><name>PT1314</name></trkpt>
<trkpt lat="53.153865" lon="-3.916666"><ele>465</ele><time>2020-08-16T09:35:23Z</time><name>PT1315</name></trkpt>
<trkpt lat="53.153859" lon="-3.916675"><ele>466</ele><time>2020-08-16T09:35:24Z</time><name>PT1316</name></trkpt>
<trkpt lat="53.153854" lon="-3.916681"><ele>465</ele><time>2020-08-16T09:35:25Z</time><name>PT1317</name></trkpt>
<trkpt lat="53.153841" lon="-3.916695"><ele>466</ele><time>2020-08-16T09:35:30Z</time><name>PT1318</name></trkpt>
<trkpt lat="53.153827" lon="-3.916704"><ele>467</ele><time>2020-08-16T09:35:33Z</time><name>PT1319</name></trkpt>
<trkpt lat="53.153808" lon="-3.916699"><ele>468</ele><time>2020-08-16T09:35:36Z</time><name>PT1320</name></trkpt>
<trkpt lat="53.153795" lon="-3.916693"><ele>469</ele><time>2020-08-16T09:35:39Z</time><name>PT1321</name></trkpt>
<trkpt lat="53.153782" lon="-3.916663"><ele>471</ele><time>2020-08-16T09:35:43Z</time><name>PT1322</name></trkpt>
<trkpt lat="53.153770" lon="-3.916640"><ele>474</ele><time>2020-08-16T09:35:46Z</time><name>PT1323</name></trkpt>
<trkpt lat="53.153768" lon="-3.916621"><ele>475</ele><time>2020-08-16T09:35:49Z</time><name>PT1324</name></trkpt>
<trkpt lat="53.153774" lon="-3.916598"><ele>474</ele><time>2020-08-16T09:35:52Z</time><name>PT1325</name></trkpt>
<trkpt lat="53.153770" lon="-3.916571"><ele>473</ele><time>2020-08-16T09:35:57Z</time><name>PT1326</name></trkpt>
<trkpt lat="53.153750" lon="-3.916547"><ele>474</ele><time>2020-08-16T09:36:00Z</time><name>PT1327</name></trkpt>
<trkpt lat="53.153723" lon="-3.916554"><ele>476</ele><time>2020-08-16T09:36:04Z</time><name>PT1328</name></trkpt>
<trkpt lat="53.153699" lon="-3.916567"><ele>477</ele><time>2020-08-16T09:36:09Z</time><name>PT1329</name></trkpt>
<trkpt lat="53.153692" lon="-3.916586"><ele>477</ele><time>2020-08-16T09:36:12Z</time><name>PT1330</name></trkpt>
<trkpt lat="53.153690" lon="-3.916592"><ele>476</ele><time>2020-08-16T09:36:15Z</time><name>PT1331</name></trkpt>
<trkpt lat="53.153688" lon="-3.916594"><ele>476</ele><time>2020-08-16T09:36:20Z</time><name>PT1332</name></trkpt>
<trkpt lat="53.153671" lon="-3.916574"><ele>476</ele><time>2020-08-16T09:36:23Z</time><name>PT1333</name></trkpt>
<trkpt lat="53.153642" lon="-3.916560"><ele>476</ele><time>2020-08-16T09:36:26Z</time><name>PT1334</name></trkpt>
<trkpt lat="53.153620" lon="-3.916551"><ele>477</ele><time>2020-08-16T09:36:29Z</time><name>PT1335</name></trkpt>
<trkpt lat="53.153602" lon="-3.916548"><ele>478</ele><time>2020-08-16T09:36:32Z</time><name>PT1336</name></trkpt>
<trkpt lat="53.153591" lon="-3.916554"><ele>477</ele><time>2020-08-16T09:36:35Z</time><name>PT1337</name></trkpt>
<trkpt lat="53.153580" lon="-3.916599"><ele>477</ele><time>2020-08-16T09:36:40Z</time><name>PT1338</name></trkpt>
<trkpt lat="53.153566" lon="-3.916628"><ele>478</ele><time>2020-08-16T09:36:43Z</time><name>PT1339</name></trkpt>
<trkpt lat="53.153557" lon="-3.916652"><ele>479</ele><time>2020-08-16T09:36:46Z</time><name>PT1340</name></trkpt>
<trkpt lat="53.153545" lon="-3.916681"><ele>480</ele><time>2020-08-16T09:36:49Z</time><name>PT1341</name></trkpt>
<trkpt lat="53.153534" lon="-3.916700"><ele>481</ele><time>2020-08-16T09:36:52Z</time><name>PT1342</name></trkpt>
<trkpt lat="53.153518" lon="-3.916721"><ele>481</ele><time>2020-08-16T09:36:55Z</time><name>PT1343</name></trkpt>
<trkpt lat="53.153502" lon="-3.916747"><ele>482</ele><time>2020-08-16T09:36:58Z</time><name>PT1344</name></trkpt>
<trkpt lat="53.153497" lon="-3.916759"><ele>482</ele><time>2020-08-16T09:37:03Z</time><name>PT1345</name></trkpt>
<trkpt lat="53.153496" lon="-3.916770"><ele>483</ele><time>2020-08-16T09:37:06Z</time><name>PT1346</name></trkpt>
<trkpt lat="53.153478" lon="-3.916765"><ele>484</ele><time>2020-08-16T09:37:10Z</time><name>PT1347</name></trkpt>
<trkpt lat="53.153464" lon="-3.916785"><ele>484</ele><time>2020-08-16T09:37:15Z</time><name>PT1348</name></trkpt>
<trkpt lat="53.153437" lon="-3.916787"><ele>485</ele><time>2020-08-16T09:37:18Z</time><name>PT1349</name></trkpt>
<trkpt lat="53.153417" lon="-3.916803"><ele>486</ele><time>2020-08-16T09:37:22Z</time><name>PT1350</name></trkpt>
<trkpt lat="53.153395" lon="-3.916805"><ele>489</ele><time>2020-08-16T09:37:27Z</time><name>PT1351</name></trkpt>
<trkpt lat="53.153367" lon="-3.916810"><ele>489</ele><time>2020-08-16T09:37:30Z</time><name>PT1352</name></trkpt>
<trkpt lat="53.153349" lon="-3.916811"><ele>490</ele><time>2020-08-16T09:37:34Z</time><name>PT1353</name></trkpt>
<trkpt lat="53.153333" lon="-3.916812"><ele>491</ele><time>2020-08-16T09:37:37Z</time><name>PT1354</name></trkpt>
<trkpt lat="53.153287" lon="-3.916809"><ele>491</ele><time>2020-08-16T09:37:42Z</time><name>PT1355</name></trkpt>
<trkpt lat="53.153264" lon="-3.916787"><ele>491</ele><time>2020-08-16T09:37:45Z</time><name>PT1356</name></trkpt>
<trkpt lat="53.153231" lon="-3.916774"><ele>492</ele><time>2020-08-16T09:37:48Z</time><name>PT1357</name></trkpt>
<trkpt lat="53.153201" lon="-3.916760"><ele>493</ele><time>2020-08-16T09:37:52Z</time><name>PT1358</name></trkpt>
<trkpt lat="53.153176" lon="-3.916755"><ele>493</ele><time>2020-08-16T09:37:57Z</time><name>PT1359</name></trkpt>
<trkpt lat="53.153156" lon="-3.916745"><ele>493</ele><time>2020-08-16T09:38:00Z</time><name>PT1360</name></trkpt>
<trkpt lat="53.153145" lon="-3.916745"><ele>492</ele><time>2020-08-16T09:38:03Z</time><name>PT1361</name></trkpt>
<trkpt lat="53.153122" lon="-3.916742"><ele>493</ele><time>2020-08-16T09:38:08Z</time><name>PT1362</name></trkpt>
<trkpt lat="53.153105" lon="-3.916732"><ele>494</ele><time>2020-08-16T09:38:11Z</time><name>PT1363</name></trkpt>
<trkpt lat="53.153098" lon="-3.916730"><ele>494</ele><time>2020-08-16T09:38:14Z</time><name>PT1364</name></trkpt>
<trkpt lat="53.153087" lon="-3.916720"><ele>495</ele><time>2020-08-16T09:38:21Z</time><name>PT1365</name></trkpt>
<trkpt lat="53.153074" lon="-3.916720"><ele>496</ele><time>2020-08-16T09:38:24Z</time><name>PT1366</name></trkpt>
<trkpt lat="53.153067" lon="-3.916715"><ele>496</ele><time>2020-08-16T09:38:27Z</time><name>PT1367</name></trkpt>
<trkpt lat="53.153050" lon="-3.916690"><ele>497</ele><time>2020-08-16T09:38:32Z</time><name>PT1368</name></trkpt>
<trkpt lat="53.153030" lon="-3.916679"><ele>498</ele><time>2020-08-16T09:38:35Z</time><name>PT1369</name></trkpt>
<trkpt lat="53.153030" lon="-3.916680"><ele>498</ele><time>2020-08-16T09:38:39Z</time><name>PT1370</name></trkpt>
<trkpt lat="53.153019" lon="-3.916668"><ele>499</ele><time>2020-08-16T09:38:42Z</time><name>PT1371</name></trkpt>
<trkpt lat="53.153008" lon="-3.916660"><ele>499</ele><time>2020-08-16T09:38:45Z</time><name>PT1372</name></trkpt>
<trkpt lat="53.152998" lon="-3.916646"><ele>500</ele><time>2020-08-16T09:38:48Z</time><name>PT1373</name></trkpt>
<trkpt lat="53.152983" lon="-3.916615"><ele>501</ele><time>2020-08-16T09:38:53Z</time><name>PT1374</name></trkpt>
<trkpt lat="53.152971" lon="-3.916598"><ele>501</ele><time>2020-08-16T09:38:56Z</time><name>PT1375</name></trkpt>
<trkpt lat="53.152960" lon="-3.916578"><ele>502</ele><time>2020-08-16T09:38:59Z</time><name>PT1376</name></trkpt>
<trkpt lat="53.152945" lon="-3.916557"><ele>502</ele><time>2020-08-16T09:39:02Z</time><name>PT1377</name></trkpt>
<trkpt lat="53.152932" lon="-3.916533"><ele>504</ele><time>2020-08-16T09:39:05Z</time><name>PT1378</name></trkpt>
<trkpt lat="53.152917" lon="-3.916512"><ele>504</ele><time>2020-08-16T09:39:08Z</time><name>PT1379</name></trkpt>
<trkpt lat="53.152913" lon="-3.916512"><ele>505</ele><time>2020-08-16T09:39:12Z</time><name>PT1380</name></trkpt>
<trkpt lat="53.152912" lon="-3.916509"><ele>505</ele><time>2020-08-16T09:39:15Z</time><name>PT1381</name></trkpt>
<trkpt lat="53.152911" lon="-3.916521"><ele>505</ele><time>2020-08-16T09:39:20Z</time><name>PT1382</name></trkpt>
<trkpt lat="53.152888" lon="-3.916479"><ele>505</ele><time>2020-08-16T09:39:23Z</time><name>PT1383</name></trkpt>
<trkpt lat="53.152870" lon="-3.916474"><ele>508</ele><time>2020-08-16T09:39:26Z</time><name>PT1384</name></trkpt>
<trkpt lat="53.152846" lon="-3.916490"><ele>509</ele><time>2020-08-16T09:39:30Z</time><name>PT1385</name></trkpt>
<trkpt lat="53.152814" lon="-3.916482"><ele>509</ele><time>2020-08-16T09:39:35Z</time><name>PT1386</name></trkpt>
<trkpt lat="53.152790" lon="-3.916467"><ele>510</ele><time>2020-08-16T09:39:38Z</time><name>PT1387</name></trkpt>
<trkpt lat="53.152777" lon="-3.916456"><ele>511</ele><time>2020-08-16T09:39:41Z</time><name>PT1388</name></trkpt>
<trkpt lat="53.152755" lon="-3.916451"><ele>511</ele><time>2020-08-16T09:39:45Z</time><name>PT1389</name></trkpt>
<trkpt lat="53.152734" lon="-3.916450"><ele>511</ele><time>2020-08-16T09:39:48Z</time><name>PT1390</name></trkpt>
<trkpt lat="53.152714" lon="-3.916444"><ele>511</ele><time>2020-08-16T09:39:51Z</time><name>PT1391</name></trkpt>
<trkpt lat="53.152700" lon="-3.916440"><ele>511</ele><time>2020-08-16T09:39:56Z</time><name>PT1392</name></trkpt>
<trkpt lat="53.152681" lon="-3.916442"><ele>512</ele><time>2020-08-16T09:39:59Z</time><name>PT1393</name></trkpt>
<trkpt lat="53.152653" lon="-3.916448"><ele>513</ele><time>2020-08-16T09:40:02Z</time><name>PT1394</name></trkpt>
<trkpt lat="53.152630" lon="-3.916435"><ele>514</ele><time>2020-08-16T09:40:06Z</time><name>PT1395</name></trkpt>
<trkpt lat="53.152607" lon="-3.916416"><ele>515</ele><time>2020-08-16T09:40:11Z</time><name>PT1396</name></trkpt>
<trkpt lat="53.152585" lon="-3.916407"><ele>516</ele><time>2020-08-16T09:40:14Z</time><name>PT1397</name></trkpt>
<trkpt lat="53.152581" lon="-3.916405"><ele>516</ele><time>2020-08-16T09:40:18Z</time><name>PT1398</name></trkpt>
<trkpt lat="53.152576" lon="-3.916405"><ele>516</ele><time>2020-08-16T09:40:22Z</time><name>PT1399</name></trkpt>
<trkpt lat="53.152554" lon="-3.916387"><ele>517</ele><time>2020-08-16T09:40:25Z</time><name>PT1400</name></trkpt>
<trkpt lat="53.152539" lon="-3.916378"><ele>518</ele><time>2020-08-16T09:40:29Z</time><name>PT1401</name></trkpt>
<trkpt lat="53.152522" lon="-3.916354"><ele>519</ele><time>2020-08-16T09:40:32Z</time><name>PT1402</name></trkpt>
<trkpt lat="53.152503" lon="-3.916346"><ele>521</ele><time>2020-08-16T09:40:36Z</time><name>PT1403</name></trkpt>
<trkpt lat="53.152501" lon="-3.916339"><ele>521</ele><time>2020-08-16T09:40:39Z</time><name>PT1404</name></trkpt>
<trkpt lat="53.152498" lon="-3.916321"><ele>522</ele><time>2020-08-16T09:40:42Z</time><name>PT1405</name></trkpt>
<trkpt lat="53.152496" lon="-3.916328"><ele>521</ele><time>2020-08-16T09:40:45Z</time><name>PT1406</name></trkpt>
<trkpt lat="53.152483" lon="-3.916305"><ele>521</ele><time>2020-08-16T09:41:06Z</time><name>PT1407</name></trkpt>
<trkpt lat="53.152485" lon="-3.916299"><ele>521</ele><time>2020-08-16T09:41:11Z</time><name>PT1408</name></trkpt>
<trkpt lat="53.152488" lon="-3.916300"><ele>521</ele><time>2020-08-16T09:41:26Z</time><name>PT1409</name></trkpt>
<trkpt lat="53.152500" lon="-3.916292"><ele>520</ele><time>2020-08-16T09:41:29Z</time><name>PT1410</name></trkpt>
<trkpt lat="53.152512" lon="-3.916278"><ele>520</ele><time>2020-08-16T09:41:32Z</time><name>PT1411</name></trkpt>
<trkpt lat="53.152527" lon="-3.916251"><ele>519</ele><time>2020-08-16T09:41:35Z</time><name>PT1412</name></trkpt>
<trkpt lat="53.152530" lon="-3.916247"><ele>520</ele><time>2020-08-16T09:41:38Z</time><name>PT1413</name></trkpt>
<trkpt lat="53.152540" lon="-3.916259"><ele>520</ele><time>2020-08-16T09:41:41Z</time><name>PT1414</name></trkpt>
<trkpt lat="53.152545" lon="-3.916260"><ele>520</ele><time>2020-08-16T09:41:44Z</time><name>PT1415</name></trkpt>
<trkpt lat="53.152559" lon="-3.916254"><ele>520</ele><time>2020-08-16T09:41:49Z</time><name>PT1416</name></trkpt>
<trkpt lat="53.152584" lon="-3.916239"><ele>521</ele><time>2020-08-16T09:41:52Z</time><name>PT1417</name></trkpt>
<trkpt lat="53.152599" lon="-3.916217"><ele>520</ele><time>2020-08-16T09:41:55Z</time><name>PT1418</name></trkpt>
<trkpt lat="53.152617" lon="-3.916168"><ele>522</ele><time>2020-08-16T09:41:59Z</time><name>PT1419</name></trkpt>
<trkpt lat="53.152627" lon="-3.916138"><ele>522</ele><time>2020-08-16T09:42:02Z</time><name>PT1420</name></trkpt>
<trkpt lat="53.152622" lon="-3.916088"><ele>523</ele><time>2020-08-16T09:42:07Z</time><name>PT1421</name></trkpt>
<trkpt lat="53.152617" lon="-3.916058"><ele>523</ele><time>2020-08-16T09:42:10Z</time><name>PT1422</name></trkpt>
<trkpt lat="53.152602" lon="-3.916030"><ele>524</ele><time>2020-08-16T09:42:13Z</time><name>PT1423</name></trkpt>
<trkpt lat="53.152594" lon="-3.916004"><ele>526</ele><time>2020-08-16T09:42:16Z</time><name>PT1424</name></trkpt>
<trkpt lat="53.152595" lon="-3.915963"><ele>526</ele><time>2020-08-16T09:42:20Z</time><name>PT1425</name></trkpt>
<trkpt lat="53.152593" lon="-3.915923"><ele>527</ele><time>2020-08-16T09:42:23Z</time><name>PT1426</name></trkpt>
<trkpt lat="53.152586" lon="-3.915886"><ele>527</ele><time>2020-08-16T09:42:26Z</time><name>PT1427</name></trkpt>
<trkpt lat="53.152579" lon="-3.915853"><ele>528</ele><time>2020-08-16T09:42:29Z</time><name>PT1428</name></trkpt>
<trkpt lat="53.152561" lon="-3.915822"><ele>528</ele><time>2020-08-16T09:42:34Z</time><name>PT1429</name></trkpt>
<trkpt lat="53.152551" lon="-3.915803"><ele>529</ele><time>2020-08-16T09:42:37Z</time><name>PT1430</name></trkpt>
<trkpt lat="53.152539" lon="-3.915786"><ele>529</ele><time>2020-08-16T09:42:40Z</time><name>PT1431</name></trkpt>
<trkpt lat="53.152538" lon="-3.915777"><ele>529</ele><time>2020-08-16T09:42:43Z</time><name>PT1432</name></trkpt>
<trkpt lat="53.152532" lon="-3.915771"><ele>530</ele><time>2020-08-16T09:42:47Z</time><name>PT1433</name></trkpt>
<trkpt lat="53.152503" lon="-3.915736"><ele>529</ele><time>2020-08-16T09:42:52Z</time><name>PT1434</name></trkpt>
<trkpt lat="53.152485" lon="-3.915736"><ele>530</ele><time>2020-08-16T09:42:55Z</time><name>PT1435</name></trkpt>
<trkpt lat="53.152473" lon="-3.915750"><ele>530</ele><time>2020-08-16T09:42:58Z</time><name>PT1436</name></trkpt>
<trkpt lat="53.152452" lon="-3.915767"><ele>531</ele><time>2020-08-16T09:43:01Z</time><name>PT1437</name></trkpt>
<trkpt lat="53.152439" lon="-3.915787"><ele>531</ele><time>2020-08-16T09:43:04Z</time><name>PT1438</name></trkpt>
<trkpt lat="53.152421" lon="-3.915800"><ele>531</ele><time>2020-08-16T09:43:08Z</time><name>PT1439</name></trkpt>
<trkpt lat="53.152401" lon="-3.915822"><ele>532</ele><time>2020-08-16T09:43:13Z</time><name>PT1440</name></trkpt>
<trkpt lat="53.152377" lon="-3.915833"><ele>531</ele><time>2020-08-16T09:43:16Z</time><name>PT1441</name></trkpt>
<trkpt lat="53.152351" lon="-3.915847"><ele>531</ele><time>2020-08-16T09:43:20Z</time><name>PT1442</name></trkpt>
<trkpt lat="53.152329" lon="-3.915842"><ele>531</ele><time>2020-08-16T09:43:25Z</time><name>PT1443</name></trkpt>
<trkpt lat="53.152307" lon="-3.915841"><ele>532</ele><time>2020-08-16T09:43:28Z</time><name>PT1444</name></trkpt>
<trkpt lat="53.152298" lon="-3.915844"><ele>532</ele><time>2020-08-16T09:43:31Z</time><name>PT1445</name></trkpt>
<trkpt lat="53.152294" lon="-3.915843"><ele>532</ele><time>2020-08-16T09:43:35Z</time><name>PT1446</name></trkpt>
<trkpt lat="53.152271" lon="-3.915839"><ele>532</ele><time>2020-08-16T09:43:38Z</time><name>PT1447</name></trkpt>
<trkpt lat="53.152247" lon="-3.915824"><ele>533</ele><time>2020-08-16T09:43:43Z</time><name>PT1448</name></trkpt>
<trkpt lat="53.152234" lon="-3.915806"><ele>534</ele><time>2020-08-16T09:43:46Z</time><name>PT1449</name></trkpt>
<trkpt lat="53.152221" lon="-3.915798"><ele>535</ele><time>2020-08-16T09:43:49Z</time><name>PT1450</name></trkpt>
<trkpt lat="53.152212" lon="-3.915797"><ele>535</ele><time>2020-08-16T09:43:52Z</time><name>PT1451</name></trkpt>
<trkpt lat="53.152195" lon="-3.915784"><ele>535</ele><time>2020-08-16T09:43:55Z</time><name>PT1452</name></trkpt>
<trkpt lat="53.152176" lon="-3.915773"><ele>536</ele><time>2020-08-16T09:43:59Z</time><name>PT1453</name></trkpt>
<trkpt lat="53.152164" lon="-3.915759"><ele>537</ele><time>2020-08-16T09:44:02Z</time><name>PT1454</name></trkpt>
<trkpt lat="53.152149" lon="-3.915744"><ele>538</ele><time>2020-08-16T09:44:07Z</time><name>PT1455</name></trkpt>
<trkpt lat="53.152130" lon="-3.915752"><ele>537</ele><time>2020-08-16T09:44:10Z</time><name>PT1456</name></trkpt>
<trkpt lat="53.152115" lon="-3.915728"><ele>539</ele><time>2020-08-16T09:44:14Z</time><name>PT1457</name></trkpt>
<trkpt lat="53.152099" lon="-3.915704"><ele>539</ele><time>2020-08-16T09:44:19Z</time><name>PT1458</name></trkpt>
<trkpt lat="53.152079" lon="-3.915688"><ele>541</ele><time>2020-08-16T09:44:22Z</time><name>PT1459</name></trkpt>
<trkpt lat="53.152062" lon="-3.915665"><ele>542</ele><time>2020-08-16T09:44:25Z</time><name>PT1460</name></trkpt>
<trkpt lat="53.152040" lon="-3.915647"><ele>544</ele><time>2020-08-16T09:44:29Z</time><name>PT1461</name></trkpt>
<trkpt lat="53.152026" lon="-3.915631"><ele>544</ele><time>2020-08-16T09:44:32Z</time><name>PT1462</name></trkpt>
<trkpt lat="53.152012" lon="-3.915613"><ele>546</ele><time>2020-08-16T09:44:37Z</time><name>PT1463</name></trkpt>
<trkpt lat="53.151998" lon="-3.915602"><ele>547</ele><time>2020-08-16T09:44:40Z</time><name>PT1464</name></trkpt>
<trkpt lat="53.151989" lon="-3.915584"><ele>547</ele><time>2020-08-16T09:44:43Z</time><name>PT1465</name></trkpt>
<trkpt lat="53.151984" lon="-3.915572"><ele>548</ele><time>2020-08-16T09:44:46Z</time><name>PT1466</name></trkpt>
<trkpt lat="53.151970" lon="-3.915561"><ele>549</ele><time>2020-08-16T09:44:49Z</time><name>PT1467</name></trkpt>
<trkpt lat="53.151953" lon="-3.915542"><ele>549</ele><time>2020-08-16T09:44:52Z</time><name>PT1468</name></trkpt>
<trkpt lat="53.151933" lon="-3.915532"><ele>550</ele><time>2020-08-16T09:44:56Z</time><name>PT1469</name></trkpt>
<trkpt lat="53.151920" lon="-3.915517"><ele>551</ele><time>2020-08-16T09:44:59Z</time><name>PT1470</name></trkpt>
<trkpt lat="53.151917" lon="-3.915514"><ele>551</ele><time>2020-08-16T09:45:04Z</time><name>PT1471</name></trkpt>
<trkpt lat="53.151911" lon="-3.915513"><ele>551</ele><time>2020-08-16T09:45:07Z</time><name>PT1472</name></trkpt>
<trkpt lat="53.151902" lon="-3.915493"><ele>551</ele><time>2020-08-16T09:45:14Z</time><name>PT1473</name></trkpt>
<trkpt lat="53.151879" lon="-3.915482"><ele>552</ele><time>2020-08-16T09:45:17Z</time><name>PT1474</name></trkpt>
<trkpt lat="53.151857" lon="-3.915473"><ele>553</ele><time>2020-08-16T09:45:22Z</time><name>PT1475</name></trkpt>
<trkpt lat="53.151840" lon="-3.915460"><ele>553</ele><time>2020-08-16T09:45:25Z</time><name>PT1476</name></trkpt>
<trkpt lat="53.151826" lon="-3.915454"><ele>554</ele><time>2020-08-16T09:45:28Z</time><name>PT1477</name></trkpt>
<trkpt lat="53.151814" lon="-3.915441"><ele>555</ele><time>2020-08-16T09:45:31Z</time><name>PT1478</name></trkpt>
<trkpt lat="53.151802" lon="-3.915434"><ele>556</ele><time>2020-08-16T09:45:34Z</time><name>PT1479</name></trkpt>
<trkpt lat="53.151798" lon="-3.915405"><ele>556</ele><time>2020-08-16T09:45:38Z</time><name>PT1480</name></trkpt>
<trkpt lat="53.151794" lon="-3.915392"><ele>557</ele><time>2020-08-16T09:45:43Z</time><name>PT1481</name></trkpt>
<trkpt lat="53.151751" lon="-3.915355"><ele>558</ele><time>2020-08-16T09:45:55Z</time><name>PT1482</name></trkpt>
<trkpt lat="53.151727" lon="-3.915351"><ele>558</ele><time>2020-08-16T09:45:58Z</time><name>PT1483</name></trkpt>
<trkpt lat="53.151706" lon="-3.915353"><ele>558</ele><time>2020-08-16T09:46:02Z</time><name>PT1484</name></trkpt>
<trkpt lat="53.151689" lon="-3.915342"><ele>559</ele><time>2020-08-16T09:46:07Z</time><name>PT1485</name></trkpt>
<trkpt lat="53.151686" lon="-3.915339"><ele>559</ele><time>2020-08-16T09:46:10Z</time><name>PT1486</name></trkpt>
<trkpt lat="53.151661" lon="-3.915325"><ele>559</ele><time>2020-08-16T09:46:19Z</time><name>PT1487</name></trkpt>
<trkpt lat="53.151656" lon="-3.915323"><ele>559</ele><time>2020-08-16T09:46:22Z</time><name>PT1488</name></trkpt>
<trkpt lat="53.151634" lon="-3.915317"><ele>560</ele><time>2020-08-16T09:46:25Z</time><name>PT1489</name></trkpt>
<trkpt lat="53.151611" lon="-3.915305"><ele>560</ele><time>2020-08-16T09:46:29Z</time><name>PT1490</name></trkpt>
<trkpt lat="53.151605" lon="-3.915309"><ele>560</ele><time>2020-08-16T09:46:33Z</time><name>PT1491</name></trkpt>
<trkpt lat="53.151586" lon="-3.915295"><ele>560</ele><time>2020-08-16T09:46:36Z</time><name>PT1492</name></trkpt>
<trkpt lat="53.151571" lon="-3.915294"><ele>559</ele><time>2020-08-16T09:46:40Z</time><name>PT1493</name></trkpt>
<trkpt lat="53.151574" lon="-3.915291"><ele>559</ele><time>2020-08-16T09:46:43Z</time><name>PT1494</name></trkpt>
<trkpt lat="53.151553" lon="-3.915286"><ele>560</ele><time>2020-08-16T09:46:46Z</time><name>PT1495</name></trkpt>
<trkpt lat="53.151541" lon="-3.915283"><ele>560</ele><time>2020-08-16T09:46:49Z</time><name>PT1496</name></trkpt>
<trkpt lat="53.151522" lon="-3.915263"><ele>561</ele><time>2020-08-16T09:46:54Z</time><name>PT1497</name></trkpt>
<trkpt lat="53.151505" lon="-3.915232"><ele>563</ele><time>2020-08-16T09:46:57Z</time><name>PT1498</name></trkpt>
<trkpt lat="53.151495" lon="-3.915211"><ele>564</ele><time>2020-08-16T09:47:01Z</time><name>PT1499</name></trkpt>
<trkpt lat="53.151477" lon="-3.915219"><ele>564</ele><time>2020-08-16T09:47:06Z</time><name>PT1500</name></trkpt>
<trkpt lat="53.151466" lon="-3.915214"><ele>566</ele><time>2020-08-16T09:47:09Z</time><name>PT1501</name></trkpt>
<trkpt lat="53.151448" lon="-3.915224"><ele>566</ele><time>2020-08-16T09:47:13Z</time><name>PT1502</name></trkpt>
<trkpt lat="53.151429" lon="-3.915213"><ele>567</ele><time>2020-08-16T09:47:18Z</time><name>PT1503</name></trkpt>
<trkpt lat="53.151412" lon="-3.915222"><ele>568</ele><time>2020-08-16T09:47:21Z</time><name>PT1504</name></trkpt>
<trkpt lat="53.151401" lon="-3.915244"><ele>569</ele><time>2020-08-16T09:47:24Z</time><name>PT1505</name></trkpt>
<trkpt lat="53.151389" lon="-3.915279"><ele>569</ele><time>2020-08-16T09:47:27Z</time><name>PT1506</name></trkpt>
<trkpt lat="53.151380" lon="-3.915310"><ele>570</ele><time>2020-08-16T09:47:30Z</time><name>PT1507</name></trkpt>
<trkpt lat="53.151363" lon="-3.915343"><ele>569</ele><time>2020-08-16T09:47:34Z</time><name>PT1508</name></trkpt>
<trkpt lat="53.151350" lon="-3.915357"><ele>569</ele><time>2020-08-16T09:47:37Z</time><name>PT1509</name></trkpt>
<trkpt lat="53.151344" lon="-3.915370"><ele>570</ele><time>2020-08-16T09:47:42Z</time><name>PT1510</name></trkpt>
<trkpt lat="53.151314" lon="-3.915386"><ele>570</ele><time>2020-08-16T09:47:45Z</time><name>PT1511</name></trkpt>
<trkpt lat="53.151293" lon="-3.915400"><ele>571</ele><time>2020-08-16T09:47:48Z</time><name>PT1512</name></trkpt>
<trkpt lat="53.151270" lon="-3.915414"><ele>571</ele><time>2020-08-16T09:47:51Z</time><name>PT1513</name></trkpt>
<trkpt lat="53.151251" lon="-3.915429"><ele>572</ele><time>2020-08-16T09:47:54Z</time><name>PT1514</name></trkpt>
<trkpt lat="53.151227" lon="-3.915453"><ele>572</ele><time>2020-08-16T09:47:58Z</time><name>PT1515</name></trkpt>
<trkpt lat="53.151209" lon="-3.915465"><ele>573</ele><time>2020-08-16T09:48:01Z</time><name>PT1516</name></trkpt>
<trkpt lat="53.151186" lon="-3.915473"><ele>573</ele><time>2020-08-16T09:48:06Z</time><name>PT1517</name></trkpt>
<trkpt lat="53.151171" lon="-3.915475"><ele>574</ele><time>2020-08-16T09:48:09Z</time><name>PT1518</name></trkpt>
<trkpt lat="53.151150" lon="-3.915500"><ele>575</ele><time>2020-08-16T09:48:13Z</time><name>PT1519</name></trkpt>
<trkpt lat="53.151136" lon="-3.915506"><ele>576</ele><time>2020-08-16T09:48:16Z</time><name>PT1520</name></trkpt>
<trkpt lat="53.151119" lon="-3.915511"><ele>577</ele><time>2020-08-16T09:48:19Z</time><name>PT1521</name></trkpt>
<trkpt lat="53.151111" lon="-3.915510"><ele>578</ele><time>2020-08-16T09:48:24Z</time><name>PT1522</name></trkpt>
<trkpt lat="53.151091" lon="-3.915508"><ele>578</ele><time>2020-08-16T09:48:27Z</time><name>PT1523</name></trkpt>
<trkpt lat="53.151082" lon="-3.915507"><ele>578</ele><time>2020-08-16T09:48:36Z</time><name>PT1524</name></trkpt>
<trkpt lat="53.151070" lon="-3.915498"><ele>578</ele><time>2020-08-16T09:48:39Z</time><name>PT1525</name></trkpt>
<trkpt lat="53.151057" lon="-3.915480"><ele>579</ele><time>2020-08-16T09:48:42Z</time><name>PT1526</name></trkpt>
<trkpt lat="53.151038" lon="-3.915472"><ele>579</ele><time>2020-08-16T09:48:45Z</time><name>PT1527</name></trkpt>
<trkpt lat="53.151031" lon="-3.915450"><ele>580</ele><time>2020-08-16T09:48:49Z</time><name>PT1528</name></trkpt>
<trkpt lat="53.151023" lon="-3.915429"><ele>582</ele><time>2020-08-16T09:48:52Z</time><name>PT1529</name></trkpt>
<trkpt lat="53.151012" lon="-3.915411"><ele>583</ele><time>2020-08-16T09:48:57Z</time><name>PT1530</name></trkpt>
<trkpt lat="53.151022" lon="-3.915386"><ele>584</ele><time>2020-08-16T09:49:00Z</time><name>PT1531</name></trkpt>
<trkpt lat="53.151021" lon="-3.915356"><ele>586</ele><time>2020-08-16T09:49:03Z</time><name>PT1532</name></trkpt>
<trkpt lat="53.151010" lon="-3.915348"><ele>587</ele><time>2020-08-16T09:49:06Z</time><name>PT1533</name></trkpt>
<trkpt lat="53.150994" lon="-3.915335"><ele>586</ele><time>2020-08-16T09:49:09Z</time><name>PT1534</name></trkpt>
<trkpt lat="53.150979" lon="-3.915310"><ele>587</ele><time>2020-08-16T09:49:13Z</time><name>PT1535</name></trkpt>
<trkpt lat="53.150953" lon="-3.915289"><ele>587</ele><time>2020-08-16T09:49:18Z</time><name>PT1536</name></trkpt>
<trkpt lat="53.150942" lon="-3.915280"><ele>589</ele><time>2020-08-16T09:49:21Z</time><name>PT1537</name></trkpt>
<trkpt lat="53.150942" lon="-3.915276"><ele>589</ele><time>2020-08-16T09:49:25Z</time><name>PT1538</name></trkpt>
<trkpt lat="53.150941" lon="-3.915268"><ele>588</ele><time>2020-08-16T09:49:30Z</time><name>PT1539</name></trkpt>
<trkpt lat="53.150933" lon="-3.915266"><ele>589</ele><time>2020-08-16T09:49:42Z</time><name>PT1540</name></trkpt>
<trkpt lat="53.150926" lon="-3.915260"><ele>589</ele><time>2020-08-16T09:49:45Z</time><name>PT1541</name></trkpt>
<trkpt lat="53.150907" lon="-3.915257"><ele>590</ele><time>2020-08-16T09:49:48Z</time><name>PT1542</name></trkpt>
<trkpt lat="53.150891" lon="-3.915245"><ele>590</ele><time>2020-08-16T09:49:51Z</time><name>PT1543</name></trkpt>
<trkpt lat="53.150876" lon="-3.915229"><ele>591</ele><time>2020-08-16T09:49:55Z</time><name>PT1544</name></trkpt>
<trkpt lat="53.150861" lon="-3.915228"><ele>591</ele><time>2020-08-16T09:49:58Z</time><name>PT1545</name></trkpt>
<trkpt lat="53.150842" lon="-3.915229"><ele>591</ele><time>2020-08-16T09:50:01Z</time><name>PT1546</name></trkpt>
<trkpt lat="53.150825" lon="-3.915226"><ele>592</ele><time>2020-08-16T09:50:04Z</time><name>PT1547</name></trkpt>
<trkpt lat="53.150814" lon="-3.915210"><ele>592</ele><time>2020-08-16T09:50:07Z</time><name>PT1548</name></trkpt>
<trkpt lat="53.150797" lon="-3.915191"><ele>593</ele><time>2020-08-16T09:50:11Z</time><name>PT1549</name></trkpt>
<trkpt lat="53.150779" lon="-3.915170"><ele>594</ele><time>2020-08-16T09:50:15Z</time><name>PT1550</name></trkpt>
<trkpt lat="53.150752" lon="-3.915161"><ele>595</ele><time>2020-08-16T09:50:18Z</time><name>PT1551</name></trkpt>
<trkpt lat="53.150729" lon="-3.915151"><ele>596</ele><time>2020-08-16T09:50:22Z</time><name>PT1552</name></trkpt>
<trkpt lat="53.150707" lon="-3.915153"><ele>596</ele><time>2020-08-16T09:50:27Z</time><name>PT1553</name></trkpt>
<trkpt lat="53.150690" lon="-3.915158"><ele>597</ele><time>2020-08-16T09:50:30Z</time><name>PT1554</name></trkpt>
<trkpt lat="53.150672" lon="-3.915162"><ele>597</ele><time>2020-08-16T09:50:33Z</time><name>PT1555</name></trkpt>
<trkpt lat="53.150656" lon="-3.915172"><ele>598</ele><time>2020-08-16T09:50:36Z</time><name>PT1556</name></trkpt>
<trkpt lat="53.150634" lon="-3.915177"><ele>599</ele><time>2020-08-16T09:50:39Z</time><name>PT1557</name></trkpt>
<trkpt lat="53.150611" lon="-3.915188"><ele>599</ele><time>2020-08-16T09:50:43Z</time><name>PT1558</name></trkpt>
<trkpt lat="53.150594" lon="-3.915200"><ele>600</ele><time>2020-08-16T09:50:46Z</time><name>PT1559</name></trkpt>
<trkpt lat="53.150575" lon="-3.915205"><ele>600</ele><time>2020-08-16T09:50:51Z</time><name>PT1560</name></trkpt>
<trkpt lat="53.150556" lon="-3.915208"><ele>602</ele><time>2020-08-16T09:50:54Z</time><name>PT1561</name></trkpt>
<trkpt lat="53.150539" lon="-3.915222"><ele>602</ele><time>2020-08-16T09:50:57Z</time><name>PT1562</name></trkpt>
<trkpt lat="53.150511" lon="-3.915245"><ele>602</ele><time>2020-08-16T09:51:01Z</time><name>PT1563</name></trkpt>
<trkpt lat="53.150493" lon="-3.915269"><ele>601</ele><time>2020-08-16T09:51:04Z</time><name>PT1564</name></trkpt>
<trkpt lat="53.150466" lon="-3.915302"><ele>601</ele><time>2020-08-16T09:51:09Z</time><name>PT1565</name></trkpt>
<trkpt lat="53.150446" lon="-3.915318"><ele>602</ele><time>2020-08-16T09:51:12Z</time><name>PT1566</name></trkpt>
<trkpt lat="53.150419" lon="-3.915335"><ele>603</ele><time>2020-08-16T09:51:15Z</time><name>PT1567</name></trkpt>
<trkpt lat="53.150398" lon="-3.915344"><ele>602</ele><time>2020-08-16T09:51:18Z</time><name>PT1568</name></trkpt>
<trkpt lat="53.150372" lon="-3.915362"><ele>603</ele><time>2020-08-16T09:51:22Z</time><name>PT1569</name></trkpt>
<trkpt lat="53.150361" lon="-3.915353"><ele>604</ele><time>2020-08-16T09:51:25Z</time><name>PT1570</name></trkpt>
<trkpt lat="53.150361" lon="-3.915328"><ele>605</ele><time>2020-08-16T09:51:30Z</time><name>PT1571</name></trkpt>
<trkpt lat="53.150357" lon="-3.915308"><ele>605</ele><time>2020-08-16T09:51:33Z</time><name>PT1572</name></trkpt>
<trkpt lat="53.150350" lon="-3.915285"><ele>606</ele><time>2020-08-16T09:51:36Z</time><name>PT1573</name></trkpt>
<trkpt lat="53.150351" lon="-3.915264"><ele>606</ele><time>2020-08-16T09:51:40Z</time><name>PT1574</name></trkpt>
<trkpt lat="53.150349" lon="-3.915254"><ele>607</ele><time>2020-08-16T09:51:45Z</time><name>PT1575</name></trkpt>
<trkpt lat="53.150347" lon="-3.915256"><ele>607</ele><time>2020-08-16T09:51:48Z</time><name>PT1576</name></trkpt>
<trkpt lat="53.150352" lon="-3.915246"><ele>607</ele><time>2020-08-16T09:51:51Z</time><name>PT1577</name></trkpt>
<trkpt lat="53.150345" lon="-3.915216"><ele>608</ele><time>2020-08-16T09:51:55Z</time><name>PT1578</name></trkpt>
<trkpt lat="53.150342" lon="-3.915201"><ele>608</ele><time>2020-08-16T09:52:00Z</time><name>PT1579</name></trkpt>
<trkpt lat="53.150337" lon="-3.915176"><ele>609</ele><time>2020-08-16T09:52:03Z</time><name>PT1580</name></trkpt>
<trkpt lat="53.150338" lon="-3.915165"><ele>608</ele><time>2020-08-16T09:52:06Z</time><name>PT1581</name></trkpt>
<trkpt lat="53.150341" lon="-3.915157"><ele>609</ele><time>2020-08-16T09:52:09Z</time><name>PT1582</name></trkpt>
<trkpt lat="53.150338" lon="-3.915156"><ele>610</ele><time>2020-08-16T09:52:12Z</time><name>PT1583</name></trkpt>
<trkpt lat="53.150338" lon="-3.915161"><ele>609</ele><time>2020-08-16T09:52:15Z</time><name>PT1584</name></trkpt>
<trkpt lat="53.150350" lon="-3.915166"><ele>610</ele><time>2020-08-16T09:52:21Z</time><name>PT1585</name></trkpt>
<trkpt lat="53.150351" lon="-3.915162"><ele>610</ele><time>2020-08-16T09:52:24Z</time><name>PT1586</name></trkpt>
<trkpt lat="53.150348" lon="-3.915163"><ele>610</ele><time>2020-08-16T09:52:40Z</time><name>PT1587</name></trkpt>
<trkpt lat="53.150348" lon="-3.915162"><ele>610</ele><time>2020-08-16T09:52:42Z</time><name>PT1588</name></trkpt>
<trkpt lat="53.150356" lon="-3.915169"><ele>610</ele><time>2020-08-16T09:52:42Z</time><name>PT1589</name></trkpt>
<trkpt lat="53.150354" lon="-3.915162"><ele>610</ele><time>2020-08-16T09:52:43Z</time><name>PT1590</name></trkpt>
<trkpt lat="53.150356" lon="-3.915157"><ele>610</ele><time>2020-08-16T09:52:45Z</time><name>PT1591</name></trkpt>
<trkpt lat="53.150357" lon="-3.915156"><ele>610</ele><time>2020-08-16T09:52:45Z</time><name>PT1592</name></trkpt>
<trkpt lat="53.150356" lon="-3.915154"><ele>610</ele><time>2020-08-16T09:52:46Z</time><name>PT1593</name></trkpt>
<trkpt lat="53.150354" lon="-3.915153"><ele>610</ele><time>2020-08-16T09:53:40Z</time><name>PT1594</name></trkpt>
<trkpt lat="53.150353" lon="-3.915153"><ele>611</ele><time>2020-08-16T09:53:42Z</time><name>PT1595</name></trkpt>
<trkpt lat="53.150353" lon="-3.915155"><ele>611</ele><time>2020-08-16T09:53:42Z</time><name>PT1596</name></trkpt>
<trkpt lat="53.150351" lon="-3.915144"><ele>610</ele><time>2020-08-16T09:53:45Z</time><name>PT1597</name></trkpt>
<trkpt lat="53.150364" lon="-3.915151"><ele>610</ele><time>2020-08-16T09:53:45Z</time><name>PT1598</name></trkpt>
<trkpt lat="53.150357" lon="-3.915123"><ele>610</ele><time>2020-08-16T09:53:46Z</time><name>PT1599</name></trkpt>
<trkpt lat="53.150357" lon="-3.915119"><ele>610</ele><time>2020-08-16T09:54:36Z</time><name>PT1600</name></trkpt>
<trkpt lat="53.150353" lon="-3.915131"><ele>610</ele><time>2020-08-16T09:54:37Z</time><name>PT1601</name></trkpt>
<trkpt lat="53.150355" lon="-3.915129"><ele>610</ele><time>2020-08-16T09:54:39Z</time><name>PT1602</name></trkpt>
<trkpt lat="53.150358" lon="-3.915129"><ele>610</ele><time>2020-08-16T09:54:39Z</time><name>PT1603</name></trkpt>
<trkpt lat="53.150357" lon="-3.915131"><ele>610</ele><time>2020-08-16T09:54:40Z</time><name>PT1604</name></trkpt>
<trkpt lat="53.150358" lon="-3.915135"><ele>610</ele><time>2020-08-16T09:54:42Z</time><name>PT1605</name></trkpt>
<trkpt lat="53.150359" lon="-3.915142"><ele>611</ele><time>2020-08-16T09:54:42Z</time><name>PT1606</name></trkpt>
<trkpt lat="53.150358" lon="-3.915143"><ele>611</ele><time>2020-08-16T09:54:43Z</time><name>PT1607</name></trkpt>
<trkpt lat="53.150360" lon="-3.915145"><ele>611</ele><time>2020-08-16T09:54:45Z</time><name>PT1608</name></trkpt>
<trkpt lat="53.150359" lon="-3.915154"><ele>611</ele><time>2020-08-16T09:54:45Z</time><name>PT1609</name></trkpt>
<trkpt lat="53.150341" lon="-3.915155"><ele>612</ele><time>2020-08-16T09:56:52Z</time><name>PT1610</name></trkpt>
<trkpt lat="53.150307" lon="-3.915163"><ele>612</ele><time>2020-08-16T09:56:57Z</time><name>PT1611</name></trkpt>
<trkpt lat="53.150277" lon="-3.915173"><ele>612</ele><time>2020-08-16T09:57:00Z</time><name>PT1612</name></trkpt>
<trkpt lat="53.150242" lon="-3.915191"><ele>612</ele><time>2020-08-16T09:57:03Z</time><name>PT1613</name></trkpt>
<trkpt lat="53.150218" lon="-3.915204"><ele>612</ele><time>2020-08-16T09:57:06Z</time><name>PT1614</name></trkpt>
<trkpt lat="53.150200" lon="-3.915217"><ele>613</ele><time>2020-08-16T09:57:09Z</time><name>PT1615</name></trkpt>
<trkpt lat="53.150178" lon="-3.915231"><ele>614</ele><time>2020-08-16T09:57:12Z</time><name>PT1616</name></trkpt>
<trkpt lat="53.150144" lon="-3.915246"><ele>615</ele><time>2020-08-16T09:57:16Z</time><name>PT1617</name></trkpt>
<trkpt lat="53.150121" lon="-3.915256"><ele>616</ele><time>2020-08-16T09:57:19Z</time><name>PT1618</name></trkpt>
<trkpt lat="53.150083" lon="-3.915279"><ele>615</ele><time>2020-08-16T09:57:24Z</time><name>PT1619</name></trkpt>
<trkpt lat="53.150050" lon="-3.915302"><ele>617</ele><time>2020-08-16T09:57:27Z</time><name>PT1620</name></trkpt>
<trkpt lat="53.150014" lon="-3.915326"><ele>619</ele><time>2020-08-16T09:57:30Z</time><name>PT1621</name></trkpt>
<trkpt lat="53.149980" lon="-3.915354"><ele>619</ele><time>2020-08-16T09:57:33Z</time><name>PT1622</name></trkpt>
<trkpt lat="53.149946" lon="-3.915380"><ele>618</ele><time>2020-08-16T09:57:37Z</time><name>PT1623</name></trkpt>
<trkpt lat="53.149915" lon="-3.915386"><ele>618</ele><time>2020-08-16T09:57:40Z</time><name>PT1624</name></trkpt>
<trkpt lat="53.149877" lon="-3.915400"><ele>619</ele><time>2020-08-16T09:57:45Z</time><name>PT1625</name></trkpt>
<trkpt lat="53.149849" lon="-3.915412"><ele>619</ele><time>2020-08-16T09:57:48Z</time><name>PT1626</name></trkpt>
<trkpt lat="53.149810" lon="-3.915433"><ele>619</ele><time>2020-08-16T09:57:51Z</time><name>PT1627</name></trkpt>
<trkpt lat="53.149782" lon="-3.915447"><ele>619</ele><time>2020-08-16T09:57:54Z</time><name>PT1628</name></trkpt>
<trkpt lat="53.149746" lon="-3.915460"><ele>620</ele><time>2020-08-16T09:57:58Z</time><name>PT1629</name></trkpt>
<trkpt lat="53.149708" lon="-3.915482"><ele>620</ele><time>2020-08-16T09:58:03Z</time><name>PT1630</name></trkpt>
<trkpt lat="53.149676" lon="-3.915502"><ele>620</ele><time>2020-08-16T09:58:06Z</time><name>PT1631</name></trkpt>
<trkpt lat="53.149650" lon="-3.915517"><ele>620</ele><time>2020-08-16T09:58:09Z</time><name>PT1632</name></trkpt>
<trkpt lat="53.149627" lon="-3.915530"><ele>620</ele><time>2020-08-16T09:58:12Z</time><name>PT1633</name></trkpt>
<trkpt lat="53.149604" lon="-3.915549"><ele>620</ele><time>2020-08-16T09:58:15Z</time><name>PT1634</name></trkpt>
<trkpt lat="53.149565" lon="-3.915577"><ele>620</ele><time>2020-08-16T09:58:19Z</time><name>PT1635</name></trkpt>
<trkpt lat="53.149528" lon="-3.915601"><ele>620</ele><time>2020-08-16T09:58:24Z</time><name>PT1636</name></trkpt>
<trkpt lat="53.149500" lon="-3.915612"><ele>621</ele><time>2020-08-16T09:58:27Z</time><name>PT1637</name></trkpt>
<trkpt lat="53.149461" lon="-3.915631"><ele>622</ele><time>2020-08-16T09:58:30Z</time><name>PT1638</name></trkpt>
<trkpt lat="53.149424" lon="-3.915640"><ele>622</ele><time>2020-08-16T09:58:34Z</time><name>PT1639</name></trkpt>
<trkpt lat="53.149395" lon="-3.915638"><ele>623</ele><time>2020-08-16T09:58:37Z</time><name>PT1640</name></trkpt>
<trkpt lat="53.149357" lon="-3.915656"><ele>623</ele><time>2020-08-16T09:58:42Z</time><name>PT1641</name></trkpt>
<trkpt lat="53.149330" lon="-3.915656"><ele>624</ele><time>2020-08-16T09:58:45Z</time><name>PT1642</name></trkpt>
<trkpt lat="53.149288" lon="-3.915652"><ele>624</ele><time>2020-08-16T09:58:48Z</time><name>PT1643</name></trkpt>
<trkpt lat="53.149255" lon="-3.915650"><ele>624</ele><time>2020-08-16T09:58:52Z</time><name>PT1644</name></trkpt>
<trkpt lat="53.149224" lon="-3.915657"><ele>624</ele><time>2020-08-16T09:58:55Z</time><name>PT1645</name></trkpt>
<trkpt lat="53.149195" lon="-3.915681"><ele>624</ele><time>2020-08-16T09:58:58Z</time><name>PT1646</name></trkpt>
<trkpt lat="53.149157" lon="-3.915712"><ele>624</ele><time>2020-08-16T09:59:03Z</time><name>PT1647</name></trkpt>
<trkpt lat="53.149117" lon="-3.915749"><ele>624</ele><time>2020-08-16T09:59:06Z</time><name>PT1648</name></trkpt>
<trkpt lat="53.149090" lon="-3.915775"><ele>624</ele><time>2020-08-16T09:59:09Z</time><name>PT1649</name></trkpt>
<trkpt lat="53.149056" lon="-3.915791"><ele>624</ele><time>2020-08-16T09:59:12Z</time><name>PT1650</name></trkpt>
<trkpt lat="53.149027" lon="-3.915798"><ele>624</ele><time>2020-08-16T09:59:15Z</time><name>PT1651</name></trkpt>
<trkpt lat="53.148989" lon="-3.915803"><ele>626</ele><time>2020-08-16T09:59:19Z</time><name>PT1652</name></trkpt>
<trkpt lat="53.148957" lon="-3.915791"><ele>627</ele><time>2020-08-16T09:59:24Z</time><name>PT1653</name></trkpt>
<trkpt lat="53.148937" lon="-3.915786"><ele>627</ele><time>2020-08-16T09:59:27Z</time><name>PT1654</name></trkpt>
<trkpt lat="53.148913" lon="-3.915775"><ele>628</ele><time>2020-08-16T09:59:30Z</time><name>PT1655</name></trkpt>
<trkpt lat="53.148885" lon="-3.915767"><ele>628</ele><time>2020-08-16T09:59:33Z</time><name>PT1656</name></trkpt>
<trkpt lat="53.148863" lon="-3.915768"><ele>629</ele><time>2020-08-16T09:59:36Z</time><name>PT1657</name></trkpt>
<trkpt lat="53.148829" lon="-3.915774"><ele>629</ele><time>2020-08-16T09:59:40Z</time><name>PT1658</name></trkpt>
<trkpt lat="53.148792" lon="-3.915772"><ele>630</ele><time>2020-08-16T09:59:45Z</time><name>PT1659</name></trkpt>
<trkpt lat="53.148761" lon="-3.915773"><ele>630</ele><time>2020-08-16T09:59:48Z</time><name>PT1660</name></trkpt>
<trkpt lat="53.148727" lon="-3.915771"><ele>631</ele><time>2020-08-16T09:59:52Z</time><name>PT1661</name></trkpt>
<trkpt lat="53.148699" lon="-3.915770"><ele>632</ele><time>2020-08-16T09:59:56Z</time><name>PT1662</name></trkpt>
<trkpt lat="53.148671" lon="-3.915783"><ele>632</ele><time>2020-08-16T10:00:00Z</time><name>PT1663</name></trkpt>
<trkpt lat="53.148642" lon="-3.915793"><ele>632</ele><time>2020-08-16T10:00:03Z</time><name>PT1664</name></trkpt>
<trkpt lat="53.148603" lon="-3.915792"><ele>633</ele><time>2020-08-16T10:00:06Z</time><name>PT1665</name></trkpt>
<trkpt lat="53.148567" lon="-3.915811"><ele>633</ele><time>2020-08-16T10:00:10Z</time><name>PT1666</name></trkpt>
<trkpt lat="53.148532" lon="-3.915829"><ele>635</ele><time>2020-08-16T10:00:13Z</time><name>PT1667</name></trkpt>
<trkpt lat="53.148495" lon="-3.915836"><ele>635</ele><time>2020-08-16T10:00:18Z</time><name>PT1668</name></trkpt>
<trkpt lat="53.148465" lon="-3.915836"><ele>636</ele><time>2020-08-16T10:00:21Z</time><name>PT1669</name></trkpt>
<trkpt lat="53.148437" lon="-3.915841"><ele>636</ele><time>2020-08-16T10:00:24Z</time><name>PT1670</name></trkpt>
<trkpt lat="53.148404" lon="-3.915840"><ele>636</ele><time>2020-08-16T10:00:27Z</time><name>PT1671</name></trkpt>
<trkpt lat="53.148369" lon="-3.915825"><ele>637</ele><time>2020-08-16T10:00:31Z</time><name>PT1672</name></trkpt>
<trkpt lat="53.148339" lon="-3.915820"><ele>637</ele><time>2020-08-16T10:00:36Z</time><name>PT1673</name></trkpt>
<trkpt lat="53.148314" lon="-3.915821"><ele>638</ele><time>2020-08-16T10:00:39Z</time><name>PT1674</name></trkpt>
<trkpt lat="53.148284" lon="-3.915857"><ele>638</ele><time>2020-08-16T10:00:42Z</time><name>PT1675</name></trkpt>
<trkpt lat="53.148252" lon="-3.915893"><ele>638</ele><time>2020-08-16T10:00:46Z</time><name>PT1676</name></trkpt>
<trkpt lat="53.148224" lon="-3.915907"><ele>637</ele><time>2020-08-16T10:00:49Z</time><name>PT1677</name></trkpt>
<trkpt lat="53.148199" lon="-3.915918"><ele>638</ele><time>2020-08-16T10:00:52Z</time><name>PT1678</name></trkpt>
<trkpt lat="53.148164" lon="-3.915916"><ele>638</ele><time>2020-08-16T10:00:57Z</time><name>PT1679</name></trkpt>
<trkpt lat="53.148139" lon="-3.915908"><ele>639</ele><time>2020-08-16T10:01:00Z</time><name>PT1680</name></trkpt>
<trkpt lat="53.148112" lon="-3.915912"><ele>639</ele><time>2020-08-16T10:01:03Z</time><name>PT1681</name></trkpt>
<trkpt lat="53.148080" lon="-3.915933"><ele>639</ele><time>2020-08-16T10:01:06Z</time><name>PT1682</name></trkpt>
<trkpt lat="53.148052" lon="-3.915950"><ele>639</ele><time>2020-08-16T10:01:09Z</time><name>PT1683</name></trkpt>
<trkpt lat="53.148019" lon="-3.915972"><ele>639</ele><time>2020-08-16T10:01:13Z</time><name>PT1684</name></trkpt>
<trkpt lat="53.147985" lon="-3.915973"><ele>640</ele><time>2020-08-16T10:01:18Z</time><name>PT1685</name></trkpt>
<trkpt lat="53.147953" lon="-3.915985"><ele>640</ele><time>2020-08-16T10:01:21Z</time><name>PT1686</name></trkpt>
<trkpt lat="53.147914" lon="-3.915994"><ele>641</ele><time>2020-08-16T10:01:25Z</time><name>PT1687</name></trkpt>
<trkpt lat="53.147882" lon="-3.915999"><ele>641</ele><time>2020-08-16T10:01:28Z</time><name>PT1688</name></trkpt>
<trkpt lat="53.147858" lon="-3.915996"><ele>642</ele><time>2020-08-16T10:01:31Z</time><name>PT1689</name></trkpt>
<trkpt lat="53.147828" lon="-3.915985"><ele>645</ele><time>2020-08-16T10:01:36Z</time><name>PT1690</name></trkpt>
<trkpt lat="53.147807" lon="-3.915986"><ele>646</ele><time>2020-08-16T10:01:39Z</time><name>PT1691</name></trkpt>
<trkpt lat="53.147781" lon="-3.915987"><ele>646</ele><time>2020-08-16T10:01:42Z</time><name>PT1692</name></trkpt>
<trkpt lat="53.147743" lon="-3.915982"><ele>646</ele><time>2020-08-16T10:01:45Z</time><name>PT1693</name></trkpt>
<trkpt lat="53.147718" lon="-3.915993"><ele>646</ele><time>2020-08-16T10:01:48Z</time><name>PT1694</name></trkpt>
<trkpt lat="53.147685" lon="-3.916008"><ele>646</ele><time>2020-08-16T10:01:52Z</time><name>PT1695</name></trkpt>
<trkpt lat="53.147645" lon="-3.916016"><ele>646</ele><time>2020-08-16T10:01:57Z</time><name>PT1696</name></trkpt>
<trkpt lat="53.147605" lon="-3.916009"><ele>646</ele><time>2020-08-16T10:02:00Z</time><name>PT1697</name></trkpt>
<trkpt lat="53.147566" lon="-3.915994"><ele>646</ele><time>2020-08-16T10:02:04Z</time><name>PT1698</name></trkpt>
<trkpt lat="53.147536" lon="-3.915987"><ele>646</ele><time>2020-08-16T10:02:07Z</time><name>PT1699</name></trkpt>
<trkpt lat="53.147493" lon="-3.916011"><ele>646</ele><time>2020-08-16T10:02:12Z</time><name>PT1700</name></trkpt>
<trkpt lat="53.147450" lon="-3.916014"><ele>647</ele><time>2020-08-16T10:02:15Z</time><name>PT1701</name></trkpt>
<trkpt lat="53.147422" lon="-3.916010"><ele>646</ele><time>2020-08-16T10:02:18Z</time><name>PT1702</name></trkpt>
<trkpt lat="53.147396" lon="-3.915996"><ele>646</ele><time>2020-08-16T10:02:21Z</time><name>PT1703</name></trkpt>
<trkpt lat="53.147370" lon="-3.915987"><ele>647</ele><time>2020-08-16T10:02:24Z</time><name>PT1704</name></trkpt>
<trkpt lat="53.147368" lon="-3.915987"><ele>648</ele><time>2020-08-16T10:02:28Z</time><name>PT1705</name></trkpt>
<trkpt lat="53.147352" lon="-3.915991"><ele>649</ele><time>2020-08-16T10:02:34Z</time><name>PT1706</name></trkpt>
<trkpt lat="53.147348" lon="-3.915992"><ele>649</ele><time>2020-08-16T10:02:39Z</time><name>PT1707</name></trkpt>
<trkpt lat="53.147339" lon="-3.915995"><ele>648</ele><time>2020-08-16T10:02:39Z</time><name>PT1708</name></trkpt>
<trkpt lat="53.147335" lon="-3.916000"><ele>648</ele><time>2020-08-16T10:02:40Z</time><name>PT1709</name></trkpt>
<trkpt lat="53.147333" lon="-3.915999"><ele>648</ele><time>2020-08-16T10:02:42Z</time><name>PT1710</name></trkpt>
<trkpt lat="53.147332" lon="-3.915998"><ele>648</ele><time>2020-08-16T10:02:42Z</time><name>PT1711</name></trkpt>
<trkpt lat="53.147331" lon="-3.915991"><ele>648</ele><time>2020-08-16T10:02:48Z</time><name>PT1712</name></trkpt>
<trkpt lat="53.147331" lon="-3.915988"><ele>648</ele><time>2020-08-16T10:02:49Z</time><name>PT1713</name></trkpt>
<trkpt lat="53.147330" lon="-3.915988"><ele>648</ele><time>2020-08-16T10:02:51Z</time><name>PT1714</name></trkpt>
<trkpt lat="53.147330" lon="-3.915989"><ele>648</ele><time>2020-08-16T10:02:51Z</time><name>PT1715</name></trkpt>
<trkpt lat="53.147330" lon="-3.915989"><ele>648</ele><time>2020-08-16T10:02:52Z</time><name>PT1716</name></trkpt>
<trkpt lat="53.147333" lon="-3.915992"><ele>649</ele><time>2020-08-16T10:03:10Z</time><name>PT1717</name></trkpt>
<trkpt lat="53.147333" lon="-3.915993"><ele>649</ele><time>2020-08-16T10:03:12Z</time><name>PT1718</name></trkpt>
<trkpt lat="53.147337" lon="-3.915998"><ele>649</ele><time>2020-08-16T10:03:30Z</time><name>PT1719</name></trkpt>
<trkpt lat="53.147340" lon="-3.916005"><ele>649</ele><time>2020-08-16T10:03:30Z</time><name>PT1720</name></trkpt>
<trkpt lat="53.147339" lon="-3.916007"><ele>649</ele><time>2020-08-16T10:03:31Z</time><name>PT1721</name></trkpt>
<trkpt lat="53.147340" lon="-3.916010"><ele>649</ele><time>2020-08-16T10:03:45Z</time><name>PT1722</name></trkpt>
<trkpt lat="53.147332" lon="-3.916016"><ele>649</ele><time>2020-08-16T10:03:46Z</time><name>PT1723</name></trkpt>
<trkpt lat="53.147326" lon="-3.916021"><ele>649</ele><time>2020-08-16T10:03:48Z</time><name>PT1724</name></trkpt>
<trkpt lat="53.147320" lon="-3.916023"><ele>649</ele><time>2020-08-16T10:03:48Z</time><name>PT1725</name></trkpt>
<trkpt lat="53.147312" lon="-3.916033"><ele>649</ele><time>2020-08-16T10:03:49Z</time><name>PT1726</name></trkpt>
<trkpt lat="53.147303" lon="-3.916039"><ele>649</ele><time>2020-08-16T10:03:51Z</time><name>PT1727</name></trkpt>
<trkpt lat="53.147297" lon="-3.916039"><ele>649</ele><time>2020-08-16T10:03:51Z</time><name>PT1728</name></trkpt>
<trkpt lat="53.147293" lon="-3.916043"><ele>649</ele><time>2020-08-16T10:03:52Z</time><name>PT1729</name></trkpt>
<trkpt lat="53.147288" lon="-3.916053"><ele>649</ele><time>2020-08-16T10:03:54Z</time><name>PT1730</name></trkpt>
<trkpt lat="53.147288" lon="-3.916058"><ele>649</ele><time>2020-08-16T10:03:54Z</time><name>PT1731</name></trkpt>
<trkpt lat="53.147289" lon="-3.916057"><ele>649</ele><time>2020-08-16T10:04:03Z</time><name>PT1732</name></trkpt>
<trkpt lat="53.147287" lon="-3.916062"><ele>649</ele><time>2020-08-16T10:04:04Z</time><name>PT1733</name></trkpt>
<trkpt lat="53.147286" lon="-3.916052"><ele>649</ele><time>2020-08-16T10:04:07Z</time><name>PT1734</name></trkpt>
<trkpt lat="53.147280" lon="-3.916058"><ele>649</ele><time>2020-08-16T10:04:09Z</time><name>PT1735</name></trkpt>
<trkpt lat="53.147280" lon="-3.916069"><ele>649</ele><time>2020-08-16T10:04:09Z</time><name>PT1736</name></trkpt>
<trkpt lat="53.147274" lon="-3.916075"><ele>649</ele><time>2020-08-16T10:04:10Z</time><name>PT1737</name></trkpt>
<trkpt lat="53.147266" lon="-3.916080"><ele>649</ele><time>2020-08-16T10:04:12Z</time><name>PT1738</name></trkpt>
<trkpt lat="53.147258" lon="-3.916083"><ele>649</ele><time>2020-08-16T10:04:12Z</time><name>PT1739</name></trkpt>
<trkpt lat="53.147248" lon="-3.916092"><ele>649</ele><time>2020-08-16T10:04:13Z</time><name>PT1740</name></trkpt>
<trkpt lat="53.147239" lon="-3.916098"><ele>649</ele><time>2020-08-16T10:04:15Z</time><name>PT1741</name></trkpt>
<trkpt lat="53.147233" lon="-3.916098"><ele>649</ele><time>2020-08-16T10:04:15Z</time><name>PT1742</name></trkpt>
<trkpt lat="53.147229" lon="-3.916109"><ele>649</ele><time>2020-08-16T10:04:16Z</time><name>PT1743</name></trkpt>
<trkpt lat="53.147222" lon="-3.916115"><ele>649</ele><time>2020-08-16T10:04:18Z</time><name>PT1744</name></trkpt>
<trkpt lat="53.147215" lon="-3.916124"><ele>649</ele><time>2020-08-16T10:04:18Z</time><name>PT1745</name></trkpt>
<trkpt lat="53.147208" lon="-3.916133"><ele>649</ele><time>2020-08-16T10:04:19Z</time><name>PT1746</name></trkpt>
<trkpt lat="53.147198" lon="-3.916139"><ele>648</ele><time>2020-08-16T10:04:21Z</time><name>PT1747</name></trkpt>
<trkpt lat="53.147190" lon="-3.916148"><ele>648</ele><time>2020-08-16T10:04:21Z</time><name>PT1748</name></trkpt>
<trkpt lat="53.147182" lon="-3.916160"><ele>648</ele><time>2020-08-16T10:04:22Z</time><name>PT1749</name></trkpt>
<trkpt lat="53.147174" lon="-3.916170"><ele>649</ele><time>2020-08-16T10:04:24Z</time><name>PT1750</name></trkpt>
<trkpt lat="53.147167" lon="-3.916180"><ele>649</ele><time>2020-08-16T10:04:24Z</time><name>PT1751</name></trkpt>
<trkpt lat="53.147159" lon="-3.916188"><ele>649</ele><time>2020-08-16T10:04:26Z</time><name>PT1752</name></trkpt>
<trkpt lat="53.147148" lon="-3.916191"><ele>649</ele><time>2020-08-16T10:04:27Z</time><name>PT1753</name></trkpt>
<trkpt lat="53.147139" lon="-3.916193"><ele>649</ele><time>2020-08-16T10:04:27Z</time><name>PT1754</name></trkpt>
<trkpt lat="53.147131" lon="-3.916196"><ele>649</ele><time>2020-08-16T10:04:28Z</time><name>PT1755</name></trkpt>
<trkpt lat="53.147124" lon="-3.916200"><ele>650</ele><time>2020-08-16T10:04:30Z</time><name>PT1756</name></trkpt>
<trkpt lat="53.147115" lon="-3.916209"><ele>650</ele><time>2020-08-16T10:04:30Z</time><name>PT1757</name></trkpt>
<trkpt lat="53.147107" lon="-3.916217"><ele>650</ele><time>2020-08-16T10:04:32Z</time><name>PT1758</name></trkpt>
<trkpt lat="53.147099" lon="-3.916224"><ele>650</ele><time>2020-08-16T10:04:33Z</time><name>PT1759</name></trkpt>
<trkpt lat="53.147092" lon="-3.916231"><ele>650</ele><time>2020-08-16T10:04:33Z</time><name>PT1760</name></trkpt>
<trkpt lat="53.147083" lon="-3.916238"><ele>650</ele><time>2020-08-16T10:04:34Z</time><name>PT1761</name></trkpt>
<trkpt lat="53.147074" lon="-3.916245"><ele>650</ele><time>2020-08-16T10:04:36Z</time><name>PT1762</name></trkpt>
<trkpt lat="53.147066" lon="-3.916251"><ele>650</ele><time>2020-08-16T10:04:36Z</time><name>PT1763</name></trkpt>
<trkpt lat="53.147059" lon="-3.916254"><ele>650</ele><time>2020-08-16T10:04:37Z</time><name>PT1764</name></trkpt>
<trkpt lat="53.147049" lon="-3.916258"><ele>650</ele><time>2020-08-16T10:04:39Z</time><name>PT1765</name></trkpt>
<trkpt lat="53.147034" lon="-3.916253"><ele>650</ele><time>2020-08-16T10:04:39Z</time><name>PT1766</name></trkpt>
<trkpt lat="53.147028" lon="-3.916252"><ele>651</ele><time>2020-08-16T10:04:40Z</time><name>PT1767</name></trkpt>
<trkpt lat="53.147023" lon="-3.916252"><ele>651</ele><time>2020-08-16T10:04:42Z</time><name>PT1768</name></trkpt>
<trkpt lat="53.147020" lon="-3.916254"><ele>651</ele><time>2020-08-16T10:04:42Z</time><name>PT1769</name></trkpt>
<trkpt lat="53.147015" lon="-3.916254"><ele>651</ele><time>2020-08-16T10:04:43Z</time><name>PT1770</name></trkpt>
<trkpt lat="53.147010" lon="-3.916252"><ele>651</ele><time>2020-08-16T10:04:45Z</time><name>PT1771</name></trkpt>
<trkpt lat="53.147005" lon="-3.916252"><ele>651</ele><time>2020-08-16T10:04:45Z</time><name>PT1772</name></trkpt>
<trkpt lat="53.147000" lon="-3.916253"><ele>651</ele><time>2020-08-16T10:04:46Z</time><name>PT1773</name></trkpt>
<trkpt lat="53.146996" lon="-3.916260"><ele>651</ele><time>2020-08-16T10:04:48Z</time><name>PT1774</name></trkpt>
<trkpt lat="53.146993" lon="-3.916267"><ele>650</ele><time>2020-08-16T10:04:48Z</time><name>PT1775</name></trkpt>
<trkpt lat="53.146989" lon="-3.916280"><ele>651</ele><time>2020-08-16T10:04:49Z</time><name>PT1776</name></trkpt>
<trkpt lat="53.146984" lon="-3.916292"><ele>651</ele><time>2020-08-16T10:04:51Z</time><name>PT1777</name></trkpt>
<trkpt lat="53.146980" lon="-3.916298"><ele>650</ele><time>2020-08-16T10:04:51Z</time><name>PT1778</name></trkpt>
<trkpt lat="53.146976" lon="-3.916305"><ele>650</ele><time>2020-08-16T10:04:52Z</time><name>PT1779</name></trkpt>
<trkpt lat="53.146972" lon="-3.916312"><ele>650</ele><time>2020-08-16T10:04:54Z</time><name>PT1780</name></trkpt>
<trkpt lat="53.146970" lon="-3.916316"><ele>650</ele><time>2020-08-16T10:04:54Z</time><name>PT1781</name></trkpt>
<trkpt lat="53.146971" lon="-3.916320"><ele>650</ele><time>2020-08-16T10:04:55Z</time><name>PT1782</name></trkpt>
<trkpt lat="53.146967" lon="-3.916332"><ele>650</ele><time>2020-08-16T10:04:57Z</time><name>PT1783</name></trkpt>
<trkpt lat="53.146965" lon="-3.916345"><ele>650</ele><time>2020-08-16T10:04:57Z</time><name>PT1784</name></trkpt>
<trkpt lat="53.146960" lon="-3.916360"><ele>650</ele><time>2020-08-16T10:04:58Z</time><name>PT1785</name></trkpt>
<trkpt lat="53.146955" lon="-3.916371"><ele>650</ele><time>2020-08-16T10:05:00Z</time><name>PT1786</name></trkpt>
<trkpt lat="53.146949" lon="-3.916381"><ele>650</ele><time>2020-08-16T10:05:00Z</time><name>PT1787</name></trkpt>
<trkpt lat="53.146943" lon="-3.916394"><ele>650</ele><time>2020-08-16T10:05:01Z</time><name>PT1788</name></trkpt>
<trkpt lat="53.146935" lon="-3.916400"><ele>650</ele><time>2020-08-16T10:05:03Z</time><name>PT1789</name></trkpt>
<trkpt lat="53.146925" lon="-3.916408"><ele>650</ele><time>2020-08-16T10:05:03Z</time><name>PT1790</name></trkpt>
<trkpt lat="53.146916" lon="-3.916412"><ele>650</ele><time>2020-08-16T10:05:04Z</time><name>PT1791</name></trkpt>
<trkpt lat="53.146910" lon="-3.916411"><ele>650</ele><time>2020-08-16T10:05:06Z</time><name>PT1792</name></trkpt>
<trkpt lat="53.146903" lon="-3.916410"><ele>650</ele><time>2020-08-16T10:05:06Z</time><name>PT1793</name></trkpt>
<trkpt lat="53.146901" lon="-3.916406"><ele>650</ele><time>2020-08-16T10:05:07Z</time><name>PT1794</name></trkpt>
<trkpt lat="53.146895" lon="-3.916404"><ele>650</ele><time>2020-08-16T10:05:09Z</time><name>PT1795</name></trkpt>
<trkpt lat="53.146888" lon="-3.916406"><ele>651</ele><time>2020-08-16T10:05:09Z</time><name>PT1796</name></trkpt>
<trkpt lat="53.146878" lon="-3.916405"><ele>651</ele><time>2020-08-16T10:05:10Z</time><name>PT1797</name></trkpt>
<trkpt lat="53.146869" lon="-3.916405"><ele>651</ele><time>2020-08-16T10:05:12Z</time><name>PT1798</name></trkpt>
<trkpt lat="53.146861" lon="-3.916402"><ele>651</ele><time>2020-08-16T10:05:12Z</time><name>PT1799</name></trkpt>
<trkpt lat="53.146853" lon="-3.916397"><ele>651</ele><time>2020-08-16T10:05:13Z</time><name>PT1800</name></trkpt>
<trkpt lat="53.146845" lon="-3.916393"><ele>651</ele><time>2020-08-16T10:05:15Z</time><name>PT1801</name></trkpt>
<trkpt lat="53.146838" lon="-3.916389"><ele>651</ele><time>2020-08-16T10:05:15Z</time><name>PT1802</name></trkpt>
<trkpt lat="53.146831" lon="-3.916386"><ele>651</ele><time>2020-08-16T10:05:16Z</time><name>PT1803</name></trkpt>
<trkpt lat="53.146823" lon="-3.916385"><ele>652</ele><time>2020-08-16T10:05:18Z</time><name>PT1804</name></trkpt>
<trkpt lat="53.146815" lon="-3.916383"><ele>652</ele><time>2020-08-16T10:05:18Z</time><name>PT1805</name></trkpt>
<trkpt lat="53.146808" lon="-3.916383"><ele>651</ele><time>2020-08-16T10:05:19Z</time><name>PT1806</name></trkpt>
<trkpt lat="53.146800" lon="-3.916379"><ele>652</ele><time>2020-08-16T10:05:21Z</time><name>PT1807</name></trkpt>
<trkpt lat="53.146792" lon="-3.916373"><ele>652</ele><time>2020-08-16T10:05:21Z</time><name>PT1808</name></trkpt>
<trkpt lat="53.146784" lon="-3.916371"><ele>653</ele><time>2020-08-16T10:05:22Z</time><name>PT1809</name></trkpt>
<trkpt lat="53.146774" lon="-3.916369"><ele>653</ele><time>2020-08-16T10:05:24Z</time><name>PT1810</name></trkpt>
<trkpt lat="53.146764" lon="-3.916366"><ele>653</ele><time>2020-08-16T10:05:24Z</time><name>PT1811</name></trkpt>
<trkpt lat="53.146756" lon="-3.916360"><ele>653</ele><time>2020-08-16T10:05:25Z</time><name>PT1812</name></trkpt>
<trkpt lat="53.146750" lon="-3.916354"><ele>653</ele><time>2020-08-16T10:05:27Z</time><name>PT1813</name></trkpt>
<trkpt lat="53.146742" lon="-3.916350"><ele>653</ele><time>2020-08-16T10:05:27Z</time><name>PT1814</name></trkpt>
<trkpt lat="53.146733" lon="-3.916350"><ele>653</ele><time>2020-08-16T10:05:28Z</time><name>PT1815</name></trkpt>
<trkpt lat="53.146724" lon="-3.916348"><ele>653</ele><time>2020-08-16T10:05:30Z</time><name>PT1816</name></trkpt>
<trkpt lat="53.146717" lon="-3.916345"><ele>654</ele><time>2020-08-16T10:05:30Z</time><name>PT1817</name></trkpt>
<trkpt lat="53.146707" lon="-3.916344"><ele>654</ele><time>2020-08-16T10:05:31Z</time><name>PT1818</name></trkpt>
<trkpt lat="53.146699" lon="-3.916340"><ele>654</ele><time>2020-08-16T10:05:33Z</time><name>PT1819</name></trkpt>
<trkpt lat="53.146691" lon="-3.916342"><ele>654</ele><time>2020-08-16T10:05:33Z</time><name>PT1820</name></trkpt>
<trkpt lat="53.146669" lon="-3.916340"><ele>655</ele><time>2020-08-16T10:05:36Z</time><name>PT1821</name></trkpt>
<trkpt lat="53.146647" lon="-3.916344"><ele>655</ele><time>2020-08-16T10:05:39Z</time><name>PT1822</name></trkpt>
<trkpt lat="53.146615" lon="-3.916360"><ele>656</ele><time>2020-08-16T10:05:43Z</time><name>PT1823</name></trkpt>
<trkpt lat="53.146584" lon="-3.916372"><ele>657</ele><time>2020-08-16T10:05:48Z</time><name>PT1824</name></trkpt>
<trkpt lat="53.146562" lon="-3.916386"><ele>657</ele><time>2020-08-16T10:05:51Z</time><name>PT1825</name></trkpt>
<trkpt lat="53.146539" lon="-3.916399"><ele>657</ele><time>2020-08-16T10:05:54Z</time><name>PT1826</name></trkpt>
<trkpt lat="53.146518" lon="-3.916421"><ele>657</ele><time>2020-08-16T10:05:57Z</time><name>PT1827</name></trkpt>
<trkpt lat="53.146516" lon="-3.916423"><ele>658</ele><time>2020-08-16T10:06:00Z</time><name>PT1828</name></trkpt>
<trkpt lat="53.146502" lon="-3.916429"><ele>658</ele><time>2020-08-16T10:06:04Z</time><name>PT1829</name></trkpt>
<trkpt lat="53.146481" lon="-3.916452"><ele>658</ele><time>2020-08-16T10:06:07Z</time><name>PT1830</name></trkpt>
<trkpt lat="53.146476" lon="-3.916466"><ele>658</ele><time>2020-08-16T10:06:12Z</time><name>PT1831</name></trkpt>
<trkpt lat="53.146465" lon="-3.916480"><ele>659</ele><time>2020-08-16T10:06:15Z</time><name>PT1832</name></trkpt>
<trkpt lat="53.146422" lon="-3.916497"><ele>659</ele><time>2020-08-16T10:06:19Z</time><name>PT1833</name></trkpt>
<trkpt lat="53.146394" lon="-3.916504"><ele>660</ele><time>2020-08-16T10:06:24Z</time><name>PT1834</name></trkpt>
<trkpt lat="53.146373" lon="-3.916507"><ele>660</ele><time>2020-08-16T10:06:27Z</time><name>PT1835</name></trkpt>
<trkpt lat="53.146344" lon="-3.916525"><ele>660</ele><time>2020-08-16T10:06:30Z</time><name>PT1836</name></trkpt>
<trkpt lat="53.146316" lon="-3.916548"><ele>661</ele><time>2020-08-16T10:06:33Z</time><name>PT1837</name></trkpt>
<trkpt lat="53.146275" lon="-3.916550"><ele>661</ele><time>2020-08-16T10:06:37Z</time><name>PT1838</name></trkpt>
<trkpt lat="53.146238" lon="-3.916568"><ele>661</ele><time>2020-08-16T10:06:42Z</time><name>PT1839</name></trkpt>
<trkpt lat="53.146198" lon="-3.916592"><ele>661</ele><time>2020-08-16T10:06:45Z</time><name>PT1840</name></trkpt>
<trkpt lat="53.146170" lon="-3.916609"><ele>661</ele><time>2020-08-16T10:06:48Z</time><name>PT1841</name></trkpt>
<trkpt lat="53.146144" lon="-3.916633"><ele>662</ele><time>2020-08-16T10:06:51Z</time><name>PT1842</name></trkpt>
<trkpt lat="53.146120" lon="-3.916654"><ele>662</ele><time>2020-08-16T10:06:54Z</time><name>PT1843</name></trkpt>
<trkpt lat="53.146090" lon="-3.916687"><ele>663</ele><time>2020-08-16T10:06:58Z</time><name>PT1844</name></trkpt>
<trkpt lat="53.146065" lon="-3.916726"><ele>663</ele><time>2020-08-16T10:07:03Z</time><name>PT1845</name></trkpt>
<trkpt lat="53.146041" lon="-3.916758"><ele>662</ele><time>2020-08-16T10:07:06Z</time><name>PT1846</name></trkpt>
<trkpt lat="53.146015" lon="-3.916783"><ele>662</ele><time>2020-08-16T10:07:09Z</time><name>PT1847</name></trkpt>
<trkpt lat="53.145990" lon="-3.916801"><ele>662</ele><time>2020-08-16T10:07:12Z</time><name>PT1848</name></trkpt>
<trkpt lat="53.145956" lon="-3.916838"><ele>662</ele><time>2020-08-16T10:07:15Z</time><name>PT1849</name></trkpt>
<trkpt lat="53.145930" lon="-3.916863"><ele>663</ele><time>2020-08-16T10:07:19Z</time><name>PT1850</name></trkpt>
<trkpt lat="53.145913" lon="-3.916878"><ele>664</ele><time>2020-08-16T10:07:22Z</time><name>PT1851</name></trkpt>
<trkpt lat="53.145884" lon="-3.916912"><ele>664</ele><time>2020-08-16T10:07:27Z</time><name>PT1852</name></trkpt>
<trkpt lat="53.145863" lon="-3.916932"><ele>665</ele><time>2020-08-16T10:07:30Z</time><name>PT1853</name></trkpt>
<trkpt lat="53.145839" lon="-3.916960"><ele>665</ele><time>2020-08-16T10:07:33Z</time><name>PT1854</name></trkpt>
<trkpt lat="53.145824" lon="-3.916973"><ele>665</ele><time>2020-08-16T10:07:36Z</time><name>PT1855</name></trkpt>
<trkpt lat="53.145808" lon="-3.916975"><ele>666</ele><time>2020-08-16T10:07:39Z</time><name>PT1856</name></trkpt>
<trkpt lat="53.145786" lon="-3.916989"><ele>666</ele><time>2020-08-16T10:07:43Z</time><name>PT1857</name></trkpt>
<trkpt lat="53.145774" lon="-3.917000"><ele>667</ele><time>2020-08-16T10:07:46Z</time><name>PT1858</name></trkpt>
<trkpt lat="53.145756" lon="-3.917015"><ele>668</ele><time>2020-08-16T10:07:51Z</time><name>PT1859</name></trkpt>
<trkpt lat="53.145747" lon="-3.917026"><ele>669</ele><time>2020-08-16T10:07:54Z</time><name>PT1860</name></trkpt>
<trkpt lat="53.145724" lon="-3.917042"><ele>670</ele><time>2020-08-16T10:07:58Z</time><name>PT1861</name></trkpt>
<trkpt lat="53.145705" lon="-3.917056"><ele>671</ele><time>2020-08-16T10:08:01Z</time><name>PT1862</name></trkpt>
<trkpt lat="53.145685" lon="-3.917067"><ele>672</ele><time>2020-08-16T10:08:06Z</time><name>PT1863</name></trkpt>
<trkpt lat="53.145669" lon="-3.917072"><ele>673</ele><time>2020-08-16T10:08:09Z</time><name>PT1864</name></trkpt>
<trkpt lat="53.145643" lon="-3.917077"><ele>674</ele><time>2020-08-16T10:08:12Z</time><name>PT1865</name></trkpt>
<trkpt lat="53.145627" lon="-3.917088"><ele>674</ele><time>2020-08-16T10:08:15Z</time><name>PT1866</name></trkpt>
<trkpt lat="53.145608" lon="-3.917111"><ele>675</ele><time>2020-08-16T10:08:19Z</time><name>PT1867</name></trkpt>
<trkpt lat="53.145592" lon="-3.917124"><ele>674</ele><time>2020-08-16T10:08:22Z</time><name>PT1868</name></trkpt>
<trkpt lat="53.145580" lon="-3.917138"><ele>675</ele><time>2020-08-16T10:08:25Z</time><name>PT1869</name></trkpt>
<trkpt lat="53.145566" lon="-3.917158"><ele>675</ele><time>2020-08-16T10:08:30Z</time><name>PT1870</name></trkpt>
<trkpt lat="53.145566" lon="-3.917156"><ele>675</ele><time>2020-08-16T10:08:36Z</time><name>PT1871</name></trkpt>
<trkpt lat="53.145552" lon="-3.917192"><ele>676</ele><time>2020-08-16T10:08:39Z</time><name>PT1872</name></trkpt>
<trkpt lat="53.145541" lon="-3.917200"><ele>676</ele><time>2020-08-16T10:08:42Z</time><name>PT1873</name></trkpt>
<trkpt lat="53.145532" lon="-3.917232"><ele>676</ele><time>2020-08-16T10:08:46Z</time><name>PT1874</name></trkpt>
<trkpt lat="53.145511" lon="-3.917276"><ele>676</ele><time>2020-08-16T10:08:51Z</time><name>PT1875</name></trkpt>
<trkpt lat="53.145490" lon="-3.917286"><ele>677</ele><time>2020-08-16T10:08:54Z</time><name>PT1876</name></trkpt>
<trkpt lat="53.145476" lon="-3.917298"><ele>677</ele><time>2020-08-16T10:08:57Z</time><name>PT1877</name></trkpt>
<trkpt lat="53.145445" lon="-3.917330"><ele>679</ele><time>2020-08-16T10:09:00Z</time><name>PT1878</name></trkpt>
<trkpt lat="53.145428" lon="-3.917363"><ele>680</ele><time>2020-08-16T10:09:03Z</time><name>PT1879</name></trkpt>
<trkpt lat="53.145430" lon="-3.917363"><ele>680</ele><time>2020-08-16T10:09:06Z</time><name>PT1880</name></trkpt>
<trkpt lat="53.145426" lon="-3.917368"><ele>681</ele><time>2020-08-16T10:09:09Z</time><name>PT1881</name></trkpt>
<trkpt lat="53.145425" lon="-3.917369"><ele>681</ele><time>2020-08-16T10:09:12Z</time><name>PT1882</name></trkpt>
<trkpt lat="53.145419" lon="-3.917371"><ele>681</ele><time>2020-08-16T10:09:16Z</time><name>PT1883</name></trkpt>
<trkpt lat="53.145414" lon="-3.917380"><ele>681</ele><time>2020-08-16T10:09:30Z</time><name>PT1884</name></trkpt>
<trkpt lat="53.145399" lon="-3.917406"><ele>681</ele><time>2020-08-16T10:09:34Z</time><name>PT1885</name></trkpt>
<trkpt lat="53.145377" lon="-3.917420"><ele>681</ele><time>2020-08-16T10:09:37Z</time><name>PT1886</name></trkpt>
<trkpt lat="53.145362" lon="-3.917449"><ele>682</ele><time>2020-08-16T10:09:40Z</time><name>PT1887</name></trkpt>
<trkpt lat="53.145333" lon="-3.917481"><ele>682</ele><time>2020-08-16T10:09:45Z</time><name>PT1888</name></trkpt>
<trkpt lat="53.145304" lon="-3.917505"><ele>684</ele><time>2020-08-16T10:09:48Z</time><name>PT1889</name></trkpt>
<trkpt lat="53.145282" lon="-3.917529"><ele>685</ele><time>2020-08-16T10:09:51Z</time><name>PT1890</name></trkpt>
<trkpt lat="53.145264" lon="-3.917543"><ele>685</ele><time>2020-08-16T10:09:54Z</time><name>PT1891</name></trkpt>
<trkpt lat="53.145260" lon="-3.917552"><ele>686</ele><time>2020-08-16T10:09:58Z</time><name>PT1892</name></trkpt>
<trkpt lat="53.145248" lon="-3.917575"><ele>686</ele><time>2020-08-16T10:10:04Z</time><name>PT1893</name></trkpt>
<trkpt lat="53.145224" lon="-3.917626"><ele>686</ele><time>2020-08-16T10:10:09Z</time><name>PT1894</name></trkpt>
<trkpt lat="53.145209" lon="-3.917676"><ele>688</ele><time>2020-08-16T10:10:12Z</time><name>PT1895</name></trkpt>
<trkpt lat="53.145204" lon="-3.917715"><ele>687</ele><time>2020-08-16T10:10:15Z</time><name>PT1896</name></trkpt>
<trkpt lat="53.145197" lon="-3.917748"><ele>688</ele><time>2020-08-16T10:10:18Z</time><name>PT1897</name></trkpt>
<trkpt lat="53.145192" lon="-3.917787"><ele>690</ele><time>2020-08-16T10:10:21Z</time><name>PT1898</name></trkpt>
<trkpt lat="53.145183" lon="-3.917844"><ele>689</ele><time>2020-08-16T10:10:25Z</time><name>PT1899</name></trkpt>
<trkpt lat="53.145183" lon="-3.917889"><ele>689</ele><time>2020-08-16T10:10:28Z</time><name>PT1900</name></trkpt>
<trkpt lat="53.145183" lon="-3.917939"><ele>690</ele><time>2020-08-16T10:10:31Z</time><name>PT1901</name></trkpt>
<trkpt lat="53.145184" lon="-3.917996"><ele>691</ele><time>2020-08-16T10:10:36Z</time><name>PT1902</name></trkpt>
<trkpt lat="53.145181" lon="-3.918037"><ele>691</ele><time>2020-08-16T10:10:39Z</time><name>PT1903</name></trkpt>
<trkpt lat="53.145174" lon="-3.918078"><ele>691</ele><time>2020-08-16T10:10:43Z</time><name>PT1904</name></trkpt>
<trkpt lat="53.145163" lon="-3.918130"><ele>692</ele><time>2020-08-16T10:10:48Z</time><name>PT1905</name></trkpt>
<trkpt lat="53.145148" lon="-3.918159"><ele>692</ele><time>2020-08-16T10:10:51Z</time><name>PT1906</name></trkpt>
<trkpt lat="53.145131" lon="-3.918186"><ele>692</ele><time>2020-08-16T10:10:54Z</time><name>PT1907</name></trkpt>
<trkpt lat="53.145113" lon="-3.918214"><ele>693</ele><time>2020-08-16T10:10:57Z</time><name>PT1908</name></trkpt>
<trkpt lat="53.145087" lon="-3.918251"><ele>693</ele><time>2020-08-16T10:11:00Z</time><name>PT1909</name></trkpt>
<trkpt lat="53.145057" lon="-3.918283"><ele>694</ele><time>2020-08-16T10:11:04Z</time><name>PT1910</name></trkpt>
<trkpt lat="53.145032" lon="-3.918312"><ele>694</ele><time>2020-08-16T10:11:09Z</time><name>PT1911</name></trkpt>
<trkpt lat="53.145014" lon="-3.918342"><ele>695</ele><time>2020-08-16T10:11:12Z</time><name>PT1912</name></trkpt>
<trkpt lat="53.144994" lon="-3.918362"><ele>695</ele><time>2020-08-16T10:11:15Z</time><name>PT1913</name></trkpt>
<trkpt lat="53.144978" lon="-3.918394"><ele>696</ele><time>2020-08-16T10:11:18Z</time><name>PT1914</name></trkpt>
<trkpt lat="53.144969" lon="-3.918421"><ele>696</ele><time>2020-08-16T10:11:21Z</time><name>PT1915</name></trkpt>
<trkpt lat="53.144947" lon="-3.918447"><ele>697</ele><time>2020-08-16T10:11:25Z</time><name>PT1916</name></trkpt>
<trkpt lat="53.144929" lon="-3.918469"><ele>697</ele><time>2020-08-16T10:11:28Z</time><name>PT1917</name></trkpt>
<trkpt lat="53.144905" lon="-3.918472"><ele>699</ele><time>2020-08-16T10:11:33Z</time><name>PT1918</name></trkpt>
<trkpt lat="53.144890" lon="-3.918482"><ele>700</ele><time>2020-08-16T10:11:36Z</time><name>PT1919</name></trkpt>
<trkpt lat="53.144876" lon="-3.918494"><ele>700</ele><time>2020-08-16T10:11:39Z</time><name>PT1920</name></trkpt>
<trkpt lat="53.144861" lon="-3.918504"><ele>700</ele><time>2020-08-16T10:11:42Z</time><name>PT1921</name></trkpt>
<trkpt lat="53.144851" lon="-3.918525"><ele>701</ele><time>2020-08-16T10:11:45Z</time><name>PT1922</name></trkpt>
<trkpt lat="53.144824" lon="-3.918556"><ele>702</ele><time>2020-08-16T10:11:49Z</time><name>PT1923</name></trkpt>
<trkpt lat="53.144803" lon="-3.918586"><ele>702</ele><time>2020-08-16T10:11:54Z</time><name>PT1924</name></trkpt>
<trkpt lat="53.144798" lon="-3.918610"><ele>702</ele><time>2020-08-16T10:11:57Z</time><name>PT1925</name></trkpt>
<trkpt lat="53.144781" lon="-3.918649"><ele>702</ele><time>2020-08-16T10:12:00Z</time><name>PT1926</name></trkpt>
<trkpt lat="53.144770" lon="-3.918670"><ele>702</ele><time>2020-08-16T10:12:03Z</time><name>PT1927</name></trkpt>
<trkpt lat="53.144749" lon="-3.918689"><ele>703</ele><time>2020-08-16T10:12:07Z</time><name>PT1928</name></trkpt>
<trkpt lat="53.144729" lon="-3.918703"><ele>703</ele><time>2020-08-16T10:12:12Z</time><name>PT1929</name></trkpt>
<trkpt lat="53.144713" lon="-3.918714"><ele>704</ele><time>2020-08-16T10:12:15Z</time><name>PT1930</name></trkpt>
<trkpt lat="53.144699" lon="-3.918725"><ele>704</ele><time>2020-08-16T10:12:18Z</time><name>PT1931</name></trkpt>
<trkpt lat="53.144682" lon="-3.918749"><ele>704</ele><time>2020-08-16T10:12:21Z</time><name>PT1932</name></trkpt>
<trkpt lat="53.144653" lon="-3.918774"><ele>705</ele><time>2020-08-16T10:12:25Z</time><name>PT1933</name></trkpt>
<trkpt lat="53.144621" lon="-3.918783"><ele>706</ele><time>2020-08-16T10:12:28Z</time><name>PT1934</name></trkpt>
<trkpt lat="53.144589" lon="-3.918808"><ele>707</ele><time>2020-08-16T10:12:33Z</time><name>PT1935</name></trkpt>
<trkpt lat="53.144557" lon="-3.918827"><ele>708</ele><time>2020-08-16T10:12:36Z</time><name>PT1936</name></trkpt>
<trkpt lat="53.144534" lon="-3.918861"><ele>709</ele><time>2020-08-16T10:12:40Z</time><name>PT1937</name></trkpt>
<trkpt lat="53.144510" lon="-3.918872"><ele>710</ele><time>2020-08-16T10:12:43Z</time><name>PT1938</name></trkpt>
<trkpt lat="53.144487" lon="-3.918884"><ele>710</ele><time>2020-08-16T10:12:46Z</time><name>PT1939</name></trkpt>
<trkpt lat="53.144468" lon="-3.918891"><ele>712</ele><time>2020-08-16T10:12:49Z</time><name>PT1940</name></trkpt>
<trkpt lat="53.144457" lon="-3.918896"><ele>712</ele><time>2020-08-16T10:12:54Z</time><name>PT1941</name></trkpt>
<trkpt lat="53.144436" lon="-3.918927"><ele>712</ele><time>2020-08-16T10:12:57Z</time><name>PT1942</name></trkpt>
<trkpt lat="53.144412" lon="-3.918979"><ele>711</ele><time>2020-08-16T10:13:01Z</time><name>PT1943</name></trkpt>
<trkpt lat="53.144392" lon="-3.919016"><ele>713</ele><time>2020-08-16T10:13:06Z</time><name>PT1944</name></trkpt>
<trkpt lat="53.144367" lon="-3.919060"><ele>713</ele><time>2020-08-16T10:13:09Z</time><name>PT1945</name></trkpt>
<trkpt lat="53.144352" lon="-3.919082"><ele>714</ele><time>2020-08-16T10:13:12Z</time><name>PT1946</name></trkpt>
<trkpt lat="53.144339" lon="-3.919109"><ele>715</ele><time>2020-08-16T10:13:15Z</time><name>PT1947</name></trkpt>
<trkpt lat="53.144329" lon="-3.919133"><ele>715</ele><time>2020-08-16T10:13:18Z</time><name>PT1948</name></trkpt>
<trkpt lat="53.144326" lon="-3.919140"><ele>716</ele><time>2020-08-16T10:13:22Z</time><name>PT1949</name></trkpt>
<trkpt lat="53.144318" lon="-3.919158"><ele>717</ele><time>2020-08-16T10:13:25Z</time><name>PT1950</name></trkpt>
<trkpt lat="53.144313" lon="-3.919190"><ele>717</ele><time>2020-08-16T10:13:28Z</time><name>PT1951</name></trkpt>
<trkpt lat="53.144306" lon="-3.919234"><ele>719</ele><time>2020-08-16T10:13:33Z</time><name>PT1952</name></trkpt>
<trkpt lat="53.144297" lon="-3.919264"><ele>720</ele><time>2020-08-16T10:13:36Z</time><name>PT1953</name></trkpt>
<trkpt lat="53.144277" lon="-3.919299"><ele>720</ele><time>2020-08-16T10:13:39Z</time><name>PT1954</name></trkpt>
<trkpt lat="53.144261" lon="-3.919325"><ele>719</ele><time>2020-08-16T10:13:42Z</time><name>PT1955</name></trkpt>
<trkpt lat="53.144232" lon="-3.919350"><ele>720</ele><time>2020-08-16T10:13:46Z</time><name>PT1956</name></trkpt>
<trkpt lat="53.144211" lon="-3.919368"><ele>721</ele><time>2020-08-16T10:13:49Z</time><name>PT1957</name></trkpt>
<trkpt lat="53.144198" lon="-3.919399"><ele>720</ele><time>2020-08-16T10:13:54Z</time><name>PT1958</name></trkpt>
<trkpt lat="53.144183" lon="-3.919426"><ele>721</ele><time>2020-08-16T10:13:57Z</time><name>PT1959</name></trkpt>
<trkpt lat="53.144164" lon="-3.919427"><ele>724</ele><time>2020-08-16T10:14:00Z</time><name>PT1960</name></trkpt>
<trkpt lat="53.144148" lon="-3.919402"><ele>726</ele><time>2020-08-16T10:14:04Z</time><name>PT1961</name></trkpt>
<trkpt lat="53.144130" lon="-3.919418"><ele>727</ele><time>2020-08-16T10:14:09Z</time><name>PT1962</name></trkpt>
<trkpt lat="53.144120" lon="-3.919439"><ele>728</ele><time>2020-08-16T10:14:12Z</time><name>PT1963</name></trkpt>
<trkpt lat="53.144104" lon="-3.919453"><ele>729</ele><time>2020-08-16T10:14:15Z</time><name>PT1964</name></trkpt>
<trkpt lat="53.144102" lon="-3.919470"><ele>729</ele><time>2020-08-16T10:14:18Z</time><name>PT1965</name></trkpt>
<trkpt lat="53.144097" lon="-3.919488"><ele>730</ele><time>2020-08-16T10:14:21Z</time><name>PT1966</name></trkpt>
<trkpt lat="53.144078" lon="-3.919494"><ele>730</ele><time>2020-08-16T10:14:25Z</time><name>PT1967</name></trkpt>
<trkpt lat="53.144074" lon="-3.919494"><ele>731</ele><time>2020-08-16T10:14:30Z</time><name>PT1968</name></trkpt>
<trkpt lat="53.144063" lon="-3.919497"><ele>731</ele><time>2020-08-16T10:14:33Z</time><name>PT1969</name></trkpt>
<trkpt lat="53.144043" lon="-3.919509"><ele>731</ele><time>2020-08-16T10:14:36Z</time><name>PT1970</name></trkpt>
<trkpt lat="53.144021" lon="-3.919516"><ele>731</ele><time>2020-08-16T10:14:40Z</time><name>PT1971</name></trkpt>
<trkpt lat="53.144015" lon="-3.919536"><ele>732</ele><time>2020-08-16T10:14:43Z</time><name>PT1972</name></trkpt>
<trkpt lat="53.144015" lon="-3.919558"><ele>733</ele><time>2020-08-16T10:14:48Z</time><name>PT1973</name></trkpt>
<trkpt lat="53.144010" lon="-3.919568"><ele>733</ele><time>2020-08-16T10:14:51Z</time><name>PT1974</name></trkpt>
<trkpt lat="53.144012" lon="-3.919590"><ele>734</ele><time>2020-08-16T10:14:54Z</time><name>PT1975</name></trkpt>
<trkpt lat="53.144015" lon="-3.919611"><ele>735</ele><time>2020-08-16T10:14:57Z</time><name>PT1976</name></trkpt>
<trkpt lat="53.144016" lon="-3.919613"><ele>736</ele><time>2020-08-16T10:15:00Z</time><name>PT1977</name></trkpt>
<trkpt lat="53.144019" lon="-3.919633"><ele>736</ele><time>2020-08-16T10:15:04Z</time><name>PT1978</name></trkpt>
<trkpt lat="53.144014" lon="-3.919676"><ele>738</ele><time>2020-08-16T10:15:09Z</time><name>PT1979</name></trkpt>
<trkpt lat="53.144005" lon="-3.919698"><ele>737</ele><time>2020-08-16T10:15:12Z</time><name>PT1980</name></trkpt>
<trkpt lat="53.144003" lon="-3.919702"><ele>737</ele><time>2020-08-16T10:15:16Z</time><name>PT1981</name></trkpt>
<trkpt lat="53.144001" lon="-3.919710"><ele>737</ele><time>2020-08-16T10:15:19Z</time><name>PT1982</name></trkpt>
<trkpt lat="53.143989" lon="-3.919730"><ele>737</ele><time>2020-08-16T10:15:22Z</time><name>PT1983</name></trkpt>
<trkpt lat="53.143973" lon="-3.919711"><ele>738</ele><time>2020-08-16T10:15:27Z</time><name>PT1984</name></trkpt>
<trkpt lat="53.143953" lon="-3.919714"><ele>741</ele><time>2020-08-16T10:15:30Z</time><name>PT1985</name></trkpt>
<trkpt lat="53.143949" lon="-3.919706"><ele>742</ele><time>2020-08-16T10:15:33Z</time><name>PT1986</name></trkpt>
<trkpt lat="53.143948" lon="-3.919703"><ele>742</ele><time>2020-08-16T10:15:34Z</time><name>PT1987</name></trkpt>
<trkpt lat="53.143947" lon="-3.919702"><ele>743</ele><time>2020-08-16T10:15:36Z</time><name>PT1988</name></trkpt>
<trkpt lat="53.143949" lon="-3.919700"><ele>743</ele><time>2020-08-16T10:15:36Z</time><name>PT1989</name></trkpt>
<trkpt lat="53.143950" lon="-3.919700"><ele>743</ele><time>2020-08-16T10:15:37Z</time><name>PT1990</name></trkpt>
<trkpt lat="53.143948" lon="-3.919700"><ele>743</ele><time>2020-08-16T10:15:39Z</time><name>PT1991</name></trkpt>
<trkpt lat="53.143944" lon="-3.919701"><ele>743</ele><time>2020-08-16T10:15:39Z</time><name>PT1992</name></trkpt>
<trkpt lat="53.143940" lon="-3.919706"><ele>743</ele><time>2020-08-16T10:15:40Z</time><name>PT1993</name></trkpt>
<trkpt lat="53.143939" lon="-3.919717"><ele>743</ele><time>2020-08-16T10:15:42Z</time><name>PT1994</name></trkpt>
<trkpt lat="53.143937" lon="-3.919724"><ele>743</ele><time>2020-08-16T10:15:42Z</time><name>PT1995</name></trkpt>
<trkpt lat="53.143932" lon="-3.919729"><ele>743</ele><time>2020-08-16T10:15:43Z</time><name>PT1996</name></trkpt>
<trkpt lat="53.143927" lon="-3.919731"><ele>743</ele><time>2020-08-16T10:15:45Z</time><name>PT1997</name></trkpt>
<trkpt lat="53.143923" lon="-3.919734"><ele>743</ele><time>2020-08-16T10:15:45Z</time><name>PT1998</name></trkpt>
<trkpt lat="53.143920" lon="-3.919735"><ele>743</ele><time>2020-08-16T10:15:48Z</time><name>PT1999</name></trkpt>
<trkpt lat="53.143917" lon="-3.919732"><ele>743</ele><time>2020-08-16T10:15:48Z</time><name>PT2000</name></trkpt>
<trkpt lat="53.143912" lon="-3.919727"><ele>743</ele><time>2020-08-16T10:15:49Z</time><name>PT2001</name></trkpt>
<trkpt lat="53.143907" lon="-3.919722"><ele>744</ele><time>2020-08-16T10:15:51Z</time><name>PT2002</name></trkpt>
<trkpt lat="53.143898" lon="-3.919709"><ele>745</ele><time>2020-08-16T10:15:57Z</time><name>PT2003</name></trkpt>
<trkpt lat="53.143894" lon="-3.919718"><ele>745</ele><time>2020-08-16T10:15:57Z</time><name>PT2004</name></trkpt>
<trkpt lat="53.143889" lon="-3.919714"><ele>745</ele><time>2020-08-16T10:15:58Z</time><name>PT2005</name></trkpt>
<trkpt lat="53.143882" lon="-3.919709"><ele>745</ele><time>2020-08-16T10:16:00Z</time><name>PT2006</name></trkpt>
<trkpt lat="53.143877" lon="-3.919708"><ele>745</ele><time>2020-08-16T10:16:00Z</time><name>PT2007</name></trkpt>
<trkpt lat="53.143870" lon="-3.919709"><ele>746</ele><time>2020-08-16T10:16:01Z</time><name>PT2008</name></trkpt>
<trkpt lat="53.143865" lon="-3.919714"><ele>745</ele><time>2020-08-16T10:16:03Z</time><name>PT2009</name></trkpt>
<trkpt lat="53.143854" lon="-3.919710"><ele>746</ele><time>2020-08-16T10:16:03Z</time><name>PT2010</name></trkpt>
<trkpt lat="53.143849" lon="-3.919708"><ele>746</ele><time>2020-08-16T10:16:04Z</time><name>PT2011</name></trkpt>
<trkpt lat="53.143845" lon="-3.919704"><ele>746</ele><time>2020-08-16T10:16:06Z</time><name>PT2012</name></trkpt>
<trkpt lat="53.143841" lon="-3.919697"><ele>747</ele><time>2020-08-16T10:16:06Z</time><name>PT2013</name></trkpt>
<trkpt lat="53.143835" lon="-3.919694"><ele>747</ele><time>2020-08-16T10:16:07Z</time><name>PT2014</name></trkpt>
<trkpt lat="53.143826" lon="-3.919688"><ele>748</ele><time>2020-08-16T10:16:09Z</time><name>PT2015</name></trkpt>
<trkpt lat="53.143820" lon="-3.919688"><ele>747</ele><time>2020-08-16T10:16:09Z</time><name>PT2016</name></trkpt>
<trkpt lat="53.143812" lon="-3.919685"><ele>748</ele><time>2020-08-16T10:16:10Z</time><name>PT2017</name></trkpt>
<trkpt lat="53.143804" lon="-3.919680"><ele>748</ele><time>2020-08-16T10:16:12Z</time><name>PT2018</name></trkpt>
<trkpt lat="53.143799" lon="-3.919679"><ele>748</ele><time>2020-08-16T10:16:12Z</time><name>PT2019</name></trkpt>
<trkpt lat="53.143795" lon="-3.919679"><ele>749</ele><time>2020-08-16T10:16:13Z</time><name>PT2020</name></trkpt>
<trkpt lat="53.143788" lon="-3.919676"><ele>749</ele><time>2020-08-16T10:16:15Z</time><name>PT2021</name></trkpt>
<trkpt lat="53.143784" lon="-3.919675"><ele>749</ele><time>2020-08-16T10:16:15Z</time><name>PT2022</name></trkpt>
<trkpt lat="53.143779" lon="-3.919670"><ele>750</ele><time>2020-08-16T10:16:16Z</time><name>PT2023</name></trkpt>
<trkpt lat="53.143772" lon="-3.919668"><ele>750</ele><time>2020-08-16T10:16:18Z</time><name>PT2024</name></trkpt>
<trkpt lat="53.143767" lon="-3.919671"><ele>750</ele><time>2020-08-16T10:16:18Z</time><name>PT2025</name></trkpt>
<trkpt lat="53.143764" lon="-3.919673"><ele>750</ele><time>2020-08-16T10:16:19Z</time><name>PT2026</name></trkpt>
<trkpt lat="53.143759" lon="-3.919673"><ele>749</ele><time>2020-08-16T10:16:21Z</time><name>PT2027</name></trkpt>
<trkpt lat="53.143753" lon="-3.919670"><ele>750</ele><time>2020-08-16T10:16:21Z</time><name>PT2028</name></trkpt>
<trkpt lat="53.143748" lon="-3.919664"><ele>751</ele><time>2020-08-16T10:16:22Z</time><name>PT2029</name></trkpt>
<trkpt lat="53.143745" lon="-3.919666"><ele>751</ele><time>2020-08-16T10:16:24Z</time><name>PT2030</name></trkpt>
<trkpt lat="53.143741" lon="-3.919666"><ele>751</ele><time>2020-08-16T10:16:24Z</time><name>PT2031</name></trkpt>
<trkpt lat="53.143730" lon="-3.919654"><ele>751</ele><time>2020-08-16T10:16:27Z</time><name>PT2032</name></trkpt>
<trkpt lat="53.143724" lon="-3.919654"><ele>751</ele><time>2020-08-16T10:16:28Z</time><name>PT2033</name></trkpt>
<trkpt lat="53.143715" lon="-3.919648"><ele>751</ele><time>2020-08-16T10:16:30Z</time><name>PT2034</name></trkpt>
<trkpt lat="53.143707" lon="-3.919638"><ele>752</ele><time>2020-08-16T10:16:30Z</time><name>PT2035</name></trkpt>
<trkpt lat="53.143700" lon="-3.919637"><ele>752</ele><time>2020-08-16T10:16:31Z</time><name>PT2036</name></trkpt>
<trkpt lat="53.143692" lon="-3.919640"><ele>752</ele><time>2020-08-16T10:16:33Z</time><name>PT2037</name></trkpt>
<trkpt lat="53.143685" lon="-3.919642"><ele>752</ele><time>2020-08-16T10:16:33Z</time><name>PT2038</name></trkpt>
<trkpt lat="53.143683" lon="-3.919643"><ele>752</ele><time>2020-08-16T10:16:34Z</time><name>PT2039</name></trkpt>
<trkpt lat="53.143678" lon="-3.919642"><ele>752</ele><time>2020-08-16T10:16:36Z</time><name>PT2040</name></trkpt>
<trkpt lat="53.143672" lon="-3.919642"><ele>752</ele><time>2020-08-16T10:16:36Z</time><name>PT2041</name></trkpt>
<trkpt lat="53.143667" lon="-3.919645"><ele>752</ele><time>2020-08-16T10:16:37Z</time><name>PT2042</name></trkpt>
<trkpt lat="53.143662" lon="-3.919643"><ele>753</ele><time>2020-08-16T10:16:39Z</time><name>PT2043</name></trkpt>
<trkpt lat="53.143657" lon="-3.919643"><ele>753</ele><time>2020-08-16T10:16:39Z</time><name>PT2044</name></trkpt>
<trkpt lat="53.143652" lon="-3.919643"><ele>753</ele><time>2020-08-16T10:16:40Z</time><name>PT2045</name></trkpt>
<trkpt lat="53.143646" lon="-3.919644"><ele>753</ele><time>2020-08-16T10:16:42Z</time><name>PT2046</name></trkpt>
<trkpt lat="53.143642" lon="-3.919648"><ele>753</ele><time>2020-08-16T10:16:42Z</time><name>PT2047</name></trkpt>
<trkpt lat="53.143637" lon="-3.919651"><ele>753</ele><time>2020-08-16T10:16:43Z</time><name>PT2048</name></trkpt>
<trkpt lat="53.143632" lon="-3.919649"><ele>753</ele><time>2020-08-16T10:16:45Z</time><name>PT2049</name></trkpt>
<trkpt lat="53.143628" lon="-3.919651"><ele>753</ele><time>2020-08-16T10:16:45Z</time><name>PT2050</name></trkpt>
<trkpt lat="53.143625" lon="-3.919657"><ele>753</ele><time>2020-08-16T10:16:46Z</time><name>PT2051</name></trkpt>
<trkpt lat="53.143623" lon="-3.919659"><ele>753</ele><time>2020-08-16T10:16:48Z</time><name>PT2052</name></trkpt>
<trkpt lat="53.143622" lon="-3.919664"><ele>754</ele><time>2020-08-16T10:16:48Z</time><name>PT2053</name></trkpt>
<trkpt lat="53.143620" lon="-3.919673"><ele>754</ele><time>2020-08-16T10:16:49Z</time><name>PT2054</name></trkpt>
<trkpt lat="53.143618" lon="-3.919679"><ele>754</ele><time>2020-08-16T10:16:51Z</time><name>PT2055</name></trkpt>
<trkpt lat="53.143615" lon="-3.919680"><ele>754</ele><time>2020-08-16T10:16:51Z</time><name>PT2056</name></trkpt>
<trkpt lat="53.143613" lon="-3.919687"><ele>754</ele><time>2020-08-16T10:16:52Z</time><name>PT2057</name></trkpt>
<trkpt lat="53.143610" lon="-3.919689"><ele>754</ele><time>2020-08-16T10:16:54Z</time><name>PT2058</name></trkpt>
<trkpt lat="53.143609" lon="-3.919688"><ele>754</ele><time>2020-08-16T10:16:54Z</time><name>PT2059</name></trkpt>
<trkpt lat="53.143608" lon="-3.919688"><ele>754</ele><time>2020-08-16T10:16:55Z</time><name>PT2060</name></trkpt>
<trkpt lat="53.143606" lon="-3.919690"><ele>755</ele><time>2020-08-16T10:17:07Z</time><name>PT2061</name></trkpt>
<trkpt lat="53.143603" lon="-3.919701"><ele>755</ele><time>2020-08-16T10:17:09Z</time><name>PT2062</name></trkpt>
<trkpt lat="53.143601" lon="-3.919710"><ele>755</ele><time>2020-08-16T10:17:09Z</time><name>PT2063</name></trkpt>
<trkpt lat="53.143599" lon="-3.919719"><ele>755</ele><time>2020-08-16T10:17:10Z</time><name>PT2064</name></trkpt>
<trkpt lat="53.143593" lon="-3.919725"><ele>755</ele><time>2020-08-16T10:17:12Z</time><name>PT2065</name></trkpt>
<trkpt lat="53.143591" lon="-3.919738"><ele>756</ele><time>2020-08-16T10:17:12Z</time><name>PT2066</name></trkpt>
<trkpt lat="53.143591" lon="-3.919745"><ele>756</ele><time>2020-08-16T10:17:13Z</time><name>PT2067</name></trkpt>
<trkpt lat="53.143592" lon="-3.919750"><ele>756</ele><time>2020-08-16T10:17:15Z</time><name>PT2068</name></trkpt>
<trkpt lat="53.143590" lon="-3.919755"><ele>756</ele><time>2020-08-16T10:17:15Z</time><name>PT2069</name></trkpt>
<trkpt lat="53.143586" lon="-3.919759"><ele>756</ele><time>2020-08-16T10:17:16Z</time><name>PT2070</name></trkpt>
<trkpt lat="53.143584" lon="-3.919761"><ele>756</ele><time>2020-08-16T10:17:18Z</time><name>PT2071</name></trkpt>
<trkpt lat="53.143580" lon="-3.919765"><ele>756</ele><time>2020-08-16T10:17:18Z</time><name>PT2072</name></trkpt>
<trkpt lat="53.143579" lon="-3.919768"><ele>756</ele><time>2020-08-16T10:17:19Z</time><name>PT2073</name></trkpt>
<trkpt lat="53.143577" lon="-3.919774"><ele>757</ele><time>2020-08-16T10:17:21Z</time><name>PT2074</name></trkpt>
<trkpt lat="53.143573" lon="-3.919780"><ele>757</ele><time>2020-08-16T10:17:21Z</time><name>PT2075</name></trkpt>
<trkpt lat="53.143571" lon="-3.919786"><ele>757</ele><time>2020-08-16T10:17:22Z</time><name>PT2076</name></trkpt>
<trkpt lat="53.143570" lon="-3.919794"><ele>757</ele><time>2020-08-16T10:17:24Z</time><name>PT2077</name></trkpt>
<trkpt lat="53.143569" lon="-3.919803"><ele>757</ele><time>2020-08-16T10:17:24Z</time><name>PT2078</name></trkpt>
<trkpt lat="53.143567" lon="-3.919812"><ele>758</ele><time>2020-08-16T10:17:25Z</time><name>PT2079</name></trkpt>
<trkpt lat="53.143565" lon="-3.919817"><ele>758</ele><time>2020-08-16T10:17:27Z</time><name>PT2080</name></trkpt>
<trkpt lat="53.143565" lon="-3.919821"><ele>759</ele><time>2020-08-16T10:17:27Z</time><name>PT2081</name></trkpt>
<trkpt lat="53.143564" lon="-3.919824"><ele>759</ele><time>2020-08-16T10:17:28Z</time><name>PT2082</name></trkpt>
<trkpt lat="53.143563" lon="-3.919829"><ele>760</ele><time>2020-08-16T10:17:30Z</time><name>PT2083</name></trkpt>
<trkpt lat="53.143563" lon="-3.919834"><ele>760</ele><time>2020-08-16T10:17:30Z</time><name>PT2084</name></trkpt>
<trkpt lat="53.143563" lon="-3.919837"><ele>760</ele><time>2020-08-16T10:17:31Z</time><name>PT2085</name></trkpt>
<trkpt lat="53.143563" lon="-3.919838"><ele>760</ele><time>2020-08-16T10:17:33Z</time><name>PT2086</name></trkpt>
<trkpt lat="53.143561" lon="-3.919840"><ele>761</ele><time>2020-08-16T10:17:48Z</time><name>PT2087</name></trkpt>
<trkpt lat="53.143560" lon="-3.919855"><ele>761</ele><time>2020-08-16T10:17:49Z</time><name>PT2088</name></trkpt>
<trkpt lat="53.143560" lon="-3.919864"><ele>761</ele><time>2020-08-16T10:17:51Z</time><name>PT2089</name></trkpt>
<trkpt lat="53.143559" lon="-3.919887"><ele>761</ele><time>2020-08-16T10:17:51Z</time><name>PT2090</name></trkpt>
<trkpt lat="53.143556" lon="-3.919891"><ele>761</ele><time>2020-08-16T10:17:52Z</time><name>PT2091</name></trkpt>
<trkpt lat="53.143553" lon="-3.919894"><ele>761</ele><time>2020-08-16T10:17:54Z</time><name>PT2092</name></trkpt>
<trkpt lat="53.143551" lon="-3.919893"><ele>761</ele><time>2020-08-16T10:17:54Z</time><name>PT2093</name></trkpt>
<trkpt lat="53.143547" lon="-3.919889"><ele>761</ele><time>2020-08-16T10:17:55Z</time><name>PT2094</name></trkpt>
<trkpt lat="53.143540" lon="-3.919890"><ele>761</ele><time>2020-08-16T10:17:57Z</time><name>PT2095</name></trkpt>
<trkpt lat="53.143539" lon="-3.919888"><ele>761</ele><time>2020-08-16T10:17:57Z</time><name>PT2096</name></trkpt>
<trkpt lat="53.143539" lon="-3.919890"><ele>762</ele><time>2020-08-16T10:17:58Z</time><name>PT2097</name></trkpt>
<trkpt lat="53.143536" lon="-3.919897"><ele>761</ele><time>2020-08-16T10:18:00Z</time><name>PT2098</name></trkpt>
<trkpt lat="53.143535" lon="-3.919904"><ele>762</ele><time>2020-08-16T10:18:00Z</time><name>PT2099</name></trkpt>
<trkpt lat="53.143535" lon="-3.919904"><ele>762</ele><time>2020-08-16T10:18:01Z</time><name>PT2100</name></trkpt>
<trkpt lat="53.143536" lon="-3.919911"><ele>763</ele><time>2020-08-16T10:18:03Z</time><name>PT2101</name></trkpt>
<trkpt lat="53.143537" lon="-3.919920"><ele>763</ele><time>2020-08-16T10:18:03Z</time><name>PT2102</name></trkpt>
<trkpt lat="53.143536" lon="-3.919926"><ele>763</ele><time>2020-08-16T10:18:04Z</time><name>PT2103</name></trkpt>
<trkpt lat="53.143536" lon="-3.919930"><ele>763</ele><time>2020-08-16T10:18:06Z</time><name>PT2104</name></trkpt>
<trkpt lat="53.143535" lon="-3.919932"><ele>763</ele><time>2020-08-16T10:18:06Z</time><name>PT2105</name></trkpt>
<trkpt lat="53.143534" lon="-3.919934"><ele>764</ele><time>2020-08-16T10:18:07Z</time><name>PT2106</name></trkpt>
<trkpt lat="53.143534" lon="-3.919934"><ele>764</ele><time>2020-08-16T10:18:09Z</time><name>PT2107</name></trkpt>
<trkpt lat="53.143531" lon="-3.919937"><ele>764</ele><time>2020-08-16T10:18:09Z</time><name>PT2108</name></trkpt>
<trkpt lat="53.143528" lon="-3.919937"><ele>764</ele><time>2020-08-16T10:18:10Z</time><name>PT2109</name></trkpt>
<trkpt lat="53.143527" lon="-3.919941"><ele>764</ele><time>2020-08-16T10:18:12Z</time><name>PT2110</name></trkpt>
<trkpt lat="53.143523" lon="-3.919948"><ele>765</ele><time>2020-08-16T10:18:12Z</time><name>PT2111</name></trkpt>
<trkpt lat="53.143521" lon="-3.919953"><ele>764</ele><time>2020-08-16T10:18:13Z</time><name>PT2112</name></trkpt>
<trkpt lat="53.143516" lon="-3.919956"><ele>764</ele><time>2020-08-16T10:18:15Z</time><name>PT2113</name></trkpt>
<trkpt lat="53.143514" lon="-3.919959"><ele>764</ele><time>2020-08-16T10:18:15Z</time><name>PT2114</name></trkpt>
<trkpt lat="53.143512" lon="-3.919962"><ele>765</ele><time>2020-08-16T10:18:16Z</time><name>PT2115</name></trkpt>
<trkpt lat="53.143508" lon="-3.919972"><ele>765</ele><time>2020-08-16T10:18:18Z</time><name>PT2116</name></trkpt>
<trkpt lat="53.143504" lon="-3.919976"><ele>765</ele><time>2020-08-16T10:18:18Z</time><name>PT2117</name></trkpt>
<trkpt lat="53.143504" lon="-3.919981"><ele>766</ele><time>2020-08-16T10:18:19Z</time><name>PT2118</name></trkpt>
<trkpt lat="53.143504" lon="-3.919985"><ele>766</ele><time>2020-08-16T10:18:21Z</time><name>PT2119</name></trkpt>
<trkpt lat="53.143503" lon="-3.919987"><ele>766</ele><time>2020-08-16T10:18:21Z</time><name>PT2120</name></trkpt>
<trkpt lat="53.143502" lon="-3.919990"><ele>766</ele><time>2020-08-16T10:18:22Z</time><name>PT2121</name></trkpt>
<trkpt lat="53.143502" lon="-3.919993"><ele>766</ele><time>2020-08-16T10:18:24Z</time><name>PT2122</name></trkpt>
<trkpt lat="53.143500" lon="-3.919997"><ele>766</ele><time>2020-08-16T10:18:24Z</time><name>PT2123</name></trkpt>
<trkpt lat="53.143501" lon="-3.919997"><ele>766</ele><time>2020-08-16T10:18:27Z</time><name>PT2124</name></trkpt>
<trkpt lat="53.143500" lon="-3.920000"><ele>766</ele><time>2020-08-16T10:18:28Z</time><name>PT2125</name></trkpt>
<trkpt lat="53.143496" lon="-3.920005"><ele>766</ele><time>2020-08-16T10:18:30Z</time><name>PT2126</name></trkpt>
<trkpt lat="53.143491" lon="-3.920011"><ele>766</ele><time>2020-08-16T10:18:30Z</time><name>PT2127</name></trkpt>
<trkpt lat="53.143487" lon="-3.920016"><ele>766</ele><time>2020-08-16T10:18:31Z</time><name>PT2128</name></trkpt>
<trkpt lat="53.143485" lon="-3.920024"><ele>766</ele><time>2020-08-16T10:18:33Z</time><name>PT2129</name></trkpt>
<trkpt lat="53.143466" lon="-3.920041"><ele>767</ele><time>2020-08-16T10:18:36Z</time><name>PT2130</name></trkpt>
<trkpt lat="53.143458" lon="-3.920037"><ele>767</ele><time>2020-08-16T10:18:39Z</time><name>PT2131</name></trkpt>
<trkpt lat="53.143430" lon="-3.920013"><ele>768</ele><time>2020-08-16T10:18:48Z</time><name>PT2132</name></trkpt>
<trkpt lat="53.143415" lon="-3.920007"><ele>769</ele><time>2020-08-16T10:18:51Z</time><name>PT2133</name></trkpt>
<trkpt lat="53.143393" lon="-3.920025"><ele>769</ele><time>2020-08-16T10:18:55Z</time><name>PT2134</name></trkpt>
<trkpt lat="53.143375" lon="-3.920039"><ele>770</ele><time>2020-08-16T10:19:00Z</time><name>PT2135</name></trkpt>
<trkpt lat="53.143364" lon="-3.920043"><ele>770</ele><time>2020-08-16T10:19:03Z</time><name>PT2136</name></trkpt>
<trkpt lat="53.143354" lon="-3.920042"><ele>771</ele><time>2020-08-16T10:19:07Z</time><name>PT2137</name></trkpt>
<trkpt lat="53.143329" lon="-3.920022"><ele>773</ele><time>2020-08-16T10:19:12Z</time><name>PT2138</name></trkpt>
<trkpt lat="53.143316" lon="-3.920000"><ele>774</ele><time>2020-08-16T10:19:15Z</time><name>PT2139</name></trkpt>
<trkpt lat="53.143306" lon="-3.919998"><ele>773</ele><time>2020-08-16T10:19:19Z</time><name>PT2140</name></trkpt>
<trkpt lat="53.143295" lon="-3.919991"><ele>773</ele><time>2020-08-16T10:19:24Z</time><name>PT2141</name></trkpt>
<trkpt lat="53.143284" lon="-3.919992"><ele>773</ele><time>2020-08-16T10:19:27Z</time><name>PT2142</name></trkpt>
<trkpt lat="53.143268" lon="-3.919988"><ele>774</ele><time>2020-08-16T10:19:30Z</time><name>PT2143</name></trkpt>
<trkpt lat="53.143254" lon="-3.919979"><ele>775</ele><time>2020-08-16T10:19:33Z</time><name>PT2144</name></trkpt>
<trkpt lat="53.143238" lon="-3.919984"><ele>776</ele><time>2020-08-16T10:19:36Z</time><name>PT2145</name></trkpt>
<trkpt lat="53.143219" lon="-3.919990"><ele>777</ele><time>2020-08-16T10:19:40Z</time><name>PT2146</name></trkpt>
<trkpt lat="53.143216" lon="-3.919993"><ele>777</ele><time>2020-08-16T10:19:43Z</time><name>PT2147</name></trkpt>
<trkpt lat="53.143206" lon="-3.919992"><ele>777</ele><time>2020-08-16T10:19:48Z</time><name>PT2148</name></trkpt>
<trkpt lat="53.143185" lon="-3.919986"><ele>778</ele><time>2020-08-16T10:19:51Z</time><name>PT2149</name></trkpt>
<trkpt lat="53.143162" lon="-3.919984"><ele>779</ele><time>2020-08-16T10:19:55Z</time><name>PT2150</name></trkpt>
<trkpt lat="53.143147" lon="-3.919978"><ele>780</ele><time>2020-08-16T10:19:58Z</time><name>PT2151</name></trkpt>
<trkpt lat="53.143123" lon="-3.919981"><ele>780</ele><time>2020-08-16T10:20:03Z</time><name>PT2152</name></trkpt>
<trkpt lat="53.143105" lon="-3.919983"><ele>781</ele><time>2020-08-16T10:20:06Z</time><name>PT2153</name></trkpt>
<trkpt lat="53.143096" lon="-3.920008"><ele>782</ele><time>2020-08-16T10:20:10Z</time><name>PT2154</name></trkpt>
<trkpt lat="53.143080" lon="-3.920036"><ele>783</ele><time>2020-08-16T10:20:15Z</time><name>PT2155</name></trkpt>
<trkpt lat="53.143067" lon="-3.920051"><ele>783</ele><time>2020-08-16T10:20:18Z</time><name>PT2156</name></trkpt>
<trkpt lat="53.143045" lon="-3.920056"><ele>784</ele><time>2020-08-16T10:20:21Z</time><name>PT2157</name></trkpt>
<trkpt lat="53.143019" lon="-3.920058"><ele>785</ele><time>2020-08-16T10:20:25Z</time><name>PT2158</name></trkpt>
<trkpt lat="53.143004" lon="-3.920066"><ele>785</ele><time>2020-08-16T10:20:28Z</time><name>PT2159</name></trkpt>
<trkpt lat="53.142981" lon="-3.920079"><ele>785</ele><time>2020-08-16T10:20:31Z</time><name>PT2160</name></trkpt>
<trkpt lat="53.142955" lon="-3.920105"><ele>785</ele><time>2020-08-16T10:20:36Z</time><name>PT2161</name></trkpt>
<trkpt lat="53.142932" lon="-3.920131"><ele>786</ele><time>2020-08-16T10:20:39Z</time><name>PT2162</name></trkpt>
<trkpt lat="53.142911" lon="-3.920151"><ele>787</ele><time>2020-08-16T10:20:43Z</time><name>PT2163</name></trkpt>
<trkpt lat="53.142900" lon="-3.920162"><ele>787</ele><time>2020-08-16T10:20:46Z</time><name>PT2164</name></trkpt>
<trkpt lat="53.142887" lon="-3.920173"><ele>788</ele><time>2020-08-16T10:20:49Z</time><name>PT2165</name></trkpt>
<trkpt lat="53.142875" lon="-3.920185"><ele>789</ele><time>2020-08-16T10:20:52Z</time><name>PT2166</name></trkpt>
<trkpt lat="53.142862" lon="-3.920190"><ele>789</ele><time>2020-08-16T10:20:57Z</time><name>PT2167</name></trkpt>
<trkpt lat="53.142833" lon="-3.920209"><ele>790</ele><time>2020-08-16T10:21:00Z</time><name>PT2168</name></trkpt>
<trkpt lat="53.142812" lon="-3.920222"><ele>791</ele><time>2020-08-16T10:21:04Z</time><name>PT2169</name></trkpt>
<trkpt lat="53.142787" lon="-3.920239"><ele>791</ele><time>2020-08-16T10:21:09Z</time><name>PT2170</name></trkpt>
<trkpt lat="53.142765" lon="-3.920247"><ele>791</ele><time>2020-08-16T10:21:12Z</time><name>PT2171</name></trkpt>
<trkpt lat="53.142740" lon="-3.920255"><ele>792</ele><time>2020-08-16T10:21:15Z</time><name>PT2172</name></trkpt>
<trkpt lat="53.142721" lon="-3.920267"><ele>793</ele><time>2020-08-16T10:21:18Z</time><name>PT2173</name></trkpt>
<trkpt lat="53.142707" lon="-3.920276"><ele>794</ele><time>2020-08-16T10:21:21Z</time><name>PT2174</name></trkpt>
<trkpt lat="53.142687" lon="-3.920291"><ele>794</ele><time>2020-08-16T10:21:24Z</time><name>PT2175</name></trkpt>
<trkpt lat="53.142663" lon="-3.920308"><ele>795</ele><time>2020-08-16T10:21:28Z</time><name>PT2176</name></trkpt>
<trkpt lat="53.142643" lon="-3.920318"><ele>795</ele><time>2020-08-16T10:21:31Z</time><name>PT2177</name></trkpt>
<trkpt lat="53.142625" lon="-3.920329"><ele>796</ele><time>2020-08-16T10:21:34Z</time><name>PT2178</name></trkpt>
<trkpt lat="53.142599" lon="-3.920336"><ele>795</ele><time>2020-08-16T10:21:39Z</time><name>PT2179</name></trkpt>
<trkpt lat="53.142575" lon="-3.920357"><ele>796</ele><time>2020-08-16T10:21:42Z</time><name>PT2180</name></trkpt>
<trkpt lat="53.142556" lon="-3.920377"><ele>796</ele><time>2020-08-16T10:21:45Z</time><name>PT2181</name></trkpt>
<trkpt lat="53.142545" lon="-3.920404"><ele>798</ele><time>2020-08-16T10:21:48Z</time><name>PT2182</name></trkpt>
<trkpt lat="53.142537" lon="-3.920431"><ele>799</ele><time>2020-08-16T10:21:51Z</time><name>PT2183</name></trkpt>
<trkpt lat="53.142534" lon="-3.920436"><ele>799</ele><time>2020-08-16T10:21:52Z</time><name>PT2184</name></trkpt>
<trkpt lat="53.142530" lon="-3.920441"><ele>799</ele><time>2020-08-16T10:21:54Z</time><name>PT2185</name></trkpt>
<trkpt lat="53.142525" lon="-3.920447"><ele>799</ele><time>2020-08-16T10:21:54Z</time><name>PT2186</name></trkpt>
<trkpt lat="53.142520" lon="-3.920451"><ele>800</ele><time>2020-08-16T10:21:55Z</time><name>PT2187</name></trkpt>
<trkpt lat="53.142514" lon="-3.920456"><ele>800</ele><time>2020-08-16T10:21:57Z</time><name>PT2188</name></trkpt>
<trkpt lat="53.142507" lon="-3.920462"><ele>800</ele><time>2020-08-16T10:21:57Z</time><name>PT2189</name></trkpt>
<trkpt lat="53.142502" lon="-3.920471"><ele>800</ele><time>2020-08-16T10:21:58Z</time><name>PT2190</name></trkpt>
<trkpt lat="53.142497" lon="-3.920478"><ele>800</ele><time>2020-08-16T10:22:00Z</time><name>PT2191</name></trkpt>
<trkpt lat="53.142490" lon="-3.920483"><ele>800</ele><time>2020-08-16T10:22:00Z</time><name>PT2192</name></trkpt>
<trkpt lat="53.142482" lon="-3.920490"><ele>801</ele><time>2020-08-16T10:22:01Z</time><name>PT2193</name></trkpt>
<trkpt lat="53.142475" lon="-3.920505"><ele>801</ele><time>2020-08-16T10:22:03Z</time><name>PT2194</name></trkpt>
<trkpt lat="53.142467" lon="-3.920511"><ele>800</ele><time>2020-08-16T10:22:03Z</time><name>PT2195</name></trkpt>
<trkpt lat="53.142458" lon="-3.920513"><ele>800</ele><time>2020-08-16T10:22:04Z</time><name>PT2196</name></trkpt>
<trkpt lat="53.142449" lon="-3.920518"><ele>800</ele><time>2020-08-16T10:22:06Z</time><name>PT2197</name></trkpt>
<trkpt lat="53.142441" lon="-3.920521"><ele>800</ele><time>2020-08-16T10:22:06Z</time><name>PT2198</name></trkpt>
<trkpt lat="53.142433" lon="-3.920527"><ele>801</ele><time>2020-08-16T10:22:07Z</time><name>PT2199</name></trkpt>
<trkpt lat="53.142425" lon="-3.920533"><ele>801</ele><time>2020-08-16T10:22:09Z</time><name>PT2200</name></trkpt>
<trkpt lat="53.142417" lon="-3.920536"><ele>801</ele><time>2020-08-16T10:22:09Z</time><name>PT2201</name></trkpt>
<trkpt lat="53.142411" lon="-3.920536"><ele>801</ele><time>2020-08-16T10:22:10Z</time><name>PT2202</name></trkpt>
<trkpt lat="53.142406" lon="-3.920539"><ele>800</ele><time>2020-08-16T10:22:12Z</time><name>PT2203</name></trkpt>
<trkpt lat="53.142400" lon="-3.920539"><ele>800</ele><time>2020-08-16T10:22:12Z</time><name>PT2204</name></trkpt>
<trkpt lat="53.142392" lon="-3.920543"><ele>800</ele><time>2020-08-16T10:22:13Z</time><name>PT2205</name></trkpt>
<trkpt lat="53.142385" lon="-3.920546"><ele>800</ele><time>2020-08-16T10:22:15Z</time><name>PT2206</name></trkpt>
<trkpt lat="53.142380" lon="-3.920550"><ele>800</ele><time>2020-08-16T10:22:15Z</time><name>PT2207</name></trkpt>
<trkpt lat="53.142373" lon="-3.920549"><ele>800</ele><time>2020-08-16T10:22:16Z</time><name>PT2208</name></trkpt>
<trkpt lat="53.142367" lon="-3.920555"><ele>800</ele><time>2020-08-16T10:22:18Z</time><name>PT2209</name></trkpt>
<trkpt lat="53.142361" lon="-3.920560"><ele>800</ele><time>2020-08-16T10:22:18Z</time><name>PT2210</name></trkpt>
<trkpt lat="53.142356" lon="-3.920564"><ele>801</ele><time>2020-08-16T10:22:19Z</time><name>PT2211</name></trkpt>
<trkpt lat="53.142349" lon="-3.920571"><ele>800</ele><time>2020-08-16T10:22:21Z</time><name>PT2212</name></trkpt>
<trkpt lat="53.142342" lon="-3.920583"><ele>801</ele><time>2020-08-16T10:22:21Z</time><name>PT2213</name></trkpt>
<trkpt lat="53.142335" lon="-3.920592"><ele>801</ele><time>2020-08-16T10:22:22Z</time><name>PT2214</name></trkpt>
<trkpt lat="53.142329" lon="-3.920599"><ele>801</ele><time>2020-08-16T10:22:24Z</time><name>PT2215</name></trkpt>
<trkpt lat="53.142323" lon="-3.920607"><ele>801</ele><time>2020-08-16T10:22:24Z</time><name>PT2216</name></trkpt>
<trkpt lat="53.142317" lon="-3.920616"><ele>801</ele><time>2020-08-16T10:22:25Z</time><name>PT2217</name></trkpt>
<trkpt lat="53.142309" lon="-3.920624"><ele>801</ele><time>2020-08-16T10:22:27Z</time><name>PT2218</name></trkpt>
<trkpt lat="53.142302" lon="-3.920630"><ele>801</ele><time>2020-08-16T10:22:27Z</time><name>PT2219</name></trkpt>
<trkpt lat="53.142296" lon="-3.920636"><ele>801</ele><time>2020-08-16T10:22:28Z</time><name>PT2220</name></trkpt>
<trkpt lat="53.142291" lon="-3.920648"><ele>802</ele><time>2020-08-16T10:22:30Z</time><name>PT2221</name></trkpt>
<trkpt lat="53.142286" lon="-3.920658"><ele>802</ele><time>2020-08-16T10:22:30Z</time><name>PT2222</name></trkpt>
<trkpt lat="53.142278" lon="-3.920666"><ele>802</ele><time>2020-08-16T10:22:31Z</time><name>PT2223</name></trkpt>
<trkpt lat="53.142274" lon="-3.920676"><ele>803</ele><time>2020-08-16T10:22:33Z</time><name>PT2224</name></trkpt>
<trkpt lat="53.142272" lon="-3.920684"><ele>803</ele><time>2020-08-16T10:22:33Z</time><name>PT2225</name></trkpt>
<trkpt lat="53.142274" lon="-3.920694"><ele>804</ele><time>2020-08-16T10:22:34Z</time><name>PT2226</name></trkpt>
<trkpt lat="53.142277" lon="-3.920702"><ele>804</ele><time>2020-08-16T10:22:36Z</time><name>PT2227</name></trkpt>
<trkpt lat="53.142280" lon="-3.920714"><ele>804</ele><time>2020-08-16T10:22:36Z</time><name>PT2228</name></trkpt>
<trkpt lat="53.142281" lon="-3.920720"><ele>805</ele><time>2020-08-16T10:22:37Z</time><name>PT2229</name></trkpt>
<trkpt lat="53.142282" lon="-3.920724"><ele>805</ele><time>2020-08-16T10:22:39Z</time><name>PT2230</name></trkpt>
<trkpt lat="53.142283" lon="-3.920720"><ele>805</ele><time>2020-08-16T10:22:39Z</time><name>PT2231</name></trkpt>
<trkpt lat="53.142282" lon="-3.920718"><ele>805</ele><time>2020-08-16T10:22:40Z</time><name>PT2232</name></trkpt>
<trkpt lat="53.142278" lon="-3.920724"><ele>806</ele><time>2020-08-16T10:22:42Z</time><name>PT2233</name></trkpt>
<trkpt lat="53.142275" lon="-3.920728"><ele>806</ele><time>2020-08-16T10:22:42Z</time><name>PT2234</name></trkpt>
<trkpt lat="53.142274" lon="-3.920742"><ele>806</ele><time>2020-08-16T10:22:43Z</time><name>PT2235</name></trkpt>
<trkpt lat="53.142274" lon="-3.920751"><ele>806</ele><time>2020-08-16T10:22:45Z</time><name>PT2236</name></trkpt>
<trkpt lat="53.142275" lon="-3.920758"><ele>806</ele><time>2020-08-16T10:22:45Z</time><name>PT2237</name></trkpt>
<trkpt lat="53.142276" lon="-3.920763"><ele>806</ele><time>2020-08-16T10:22:46Z</time><name>PT2238</name></trkpt>
<trkpt lat="53.142276" lon="-3.920757"><ele>806</ele><time>2020-08-16T10:22:48Z</time><name>PT2239</name></trkpt>
<trkpt lat="53.142277" lon="-3.920749"><ele>806</ele><time>2020-08-16T10:22:50Z</time><name>PT2240</name></trkpt>
<trkpt lat="53.142276" lon="-3.920745"><ele>806</ele><time>2020-08-16T10:22:51Z</time><name>PT2241</name></trkpt>
<trkpt lat="53.142275" lon="-3.920748"><ele>806</ele><time>2020-08-16T10:22:51Z</time><name>PT2242</name></trkpt>
<trkpt lat="53.142265" lon="-3.920759"><ele>807</ele><time>2020-08-16T10:22:52Z</time><name>PT2243</name></trkpt>
<trkpt lat="53.142261" lon="-3.920766"><ele>805</ele><time>2020-08-16T10:22:54Z</time><name>PT2244</name></trkpt>
<trkpt lat="53.142264" lon="-3.920766"><ele>804</ele><time>2020-08-16T10:22:54Z</time><name>PT2245</name></trkpt>
<trkpt lat="53.142261" lon="-3.920768"><ele>805</ele><time>2020-08-16T10:22:56Z</time><name>PT2246</name></trkpt>
<trkpt lat="53.142261" lon="-3.920766"><ele>805</ele><time>2020-08-16T10:22:57Z</time><name>PT2247</name></trkpt>
<trkpt lat="53.142260" lon="-3.920765"><ele>805</ele><time>2020-08-16T10:22:57Z</time><name>PT2248</name></trkpt>
<trkpt lat="53.142258" lon="-3.920765"><ele>805</ele><time>2020-08-16T10:22:58Z</time><name>PT2249</name></trkpt>
<trkpt lat="53.142257" lon="-3.920766"><ele>805</ele><time>2020-08-16T10:23:00Z</time><name>PT2250</name></trkpt>
<trkpt lat="53.142257" lon="-3.920769"><ele>805</ele><time>2020-08-16T10:23:00Z</time><name>PT2251</name></trkpt>
<trkpt lat="53.142257" lon="-3.920771"><ele>805</ele><time>2020-08-16T10:23:02Z</time><name>PT2252</name></trkpt>
<trkpt lat="53.142256" lon="-3.920773"><ele>805</ele><time>2020-08-16T10:23:03Z</time><name>PT2253</name></trkpt>
<trkpt lat="53.142253" lon="-3.920766"><ele>805</ele><time>2020-08-16T10:23:03Z</time><name>PT2254</name></trkpt>
<trkpt lat="53.142254" lon="-3.920768"><ele>806</ele><time>2020-08-16T10:23:04Z</time><name>PT2255</name></trkpt>
<trkpt lat="53.142250" lon="-3.920769"><ele>805</ele><time>2020-08-16T10:23:06Z</time><name>PT2256</name></trkpt>
<trkpt lat="53.142247" lon="-3.920774"><ele>806</ele><time>2020-08-16T10:23:06Z</time><name>PT2257</name></trkpt>
<trkpt lat="53.142244" lon="-3.920773"><ele>805</ele><time>2020-08-16T10:23:07Z</time><name>PT2258</name></trkpt>
<trkpt lat="53.142242" lon="-3.920766"><ele>806</ele><time>2020-08-16T10:23:09Z</time><name>PT2259</name></trkpt>
<trkpt lat="53.142235" lon="-3.920759"><ele>805</ele><time>2020-08-16T10:23:09Z</time><name>PT2260</name></trkpt>
<trkpt lat="53.142229" lon="-3.920763"><ele>805</ele><time>2020-08-16T10:23:11Z</time><name>PT2261</name></trkpt>
<trkpt lat="53.142227" lon="-3.920767"><ele>806</ele><time>2020-08-16T10:23:12Z</time><name>PT2262</name></trkpt>
<trkpt lat="53.142227" lon="-3.920769"><ele>806</ele><time>2020-08-16T10:23:12Z</time><name>PT2263</name></trkpt>
<trkpt lat="53.142229" lon="-3.920773"><ele>806</ele><time>2020-08-16T10:23:13Z</time><name>PT2264</name></trkpt>
<trkpt lat="53.142231" lon="-3.920779"><ele>807</ele><time>2020-08-16T10:23:15Z</time><name>PT2265</name></trkpt>
<trkpt lat="53.142235" lon="-3.920783"><ele>807</ele><time>2020-08-16T10:23:15Z</time><name>PT2266</name></trkpt>
<trkpt lat="53.142235" lon="-3.920785"><ele>807</ele><time>2020-08-16T10:23:16Z</time><name>PT2267</name></trkpt>
<trkpt lat="53.142231" lon="-3.920786"><ele>807</ele><time>2020-08-16T10:23:18Z</time><name>PT2268</name></trkpt>
<trkpt lat="53.142226" lon="-3.920789"><ele>807</ele><time>2020-08-16T10:23:18Z</time><name>PT2269</name></trkpt>
<trkpt lat="53.142225" lon="-3.920786"><ele>807</ele><time>2020-08-16T10:23:19Z</time><name>PT2270</name></trkpt>
<trkpt lat="53.142225" lon="-3.920787"><ele>807</ele><time>2020-08-16T10:23:21Z</time><name>PT2271</name></trkpt>
<trkpt lat="53.142224" lon="-3.920796"><ele>806</ele><time>2020-08-16T10:23:21Z</time><name>PT2272</name></trkpt>
<trkpt lat="53.142221" lon="-3.920797"><ele>805</ele><time>2020-08-16T10:23:22Z</time><name>PT2273</name></trkpt>
<trkpt lat="53.142225" lon="-3.920790"><ele>804</ele><time>2020-08-16T10:23:24Z</time><name>PT2274</name></trkpt>
<trkpt lat="53.142228" lon="-3.920789"><ele>804</ele><time>2020-08-16T10:23:24Z</time><name>PT2275</name></trkpt>
<trkpt lat="53.142233" lon="-3.920784"><ele>803</ele><time>2020-08-16T10:23:26Z</time><name>PT2276</name></trkpt>
<trkpt lat="53.142238" lon="-3.920779"><ele>803</ele><time>2020-08-16T10:23:27Z</time><name>PT2277</name></trkpt>
<trkpt lat="53.142235" lon="-3.920777"><ele>803</ele><time>2020-08-16T10:23:27Z</time><name>PT2278</name></trkpt>
<trkpt lat="53.142236" lon="-3.920775"><ele>803</ele><time>2020-08-16T10:23:28Z</time><name>PT2279</name></trkpt>
<trkpt lat="53.142240" lon="-3.920768"><ele>803</ele><time>2020-08-16T10:23:30Z</time><name>PT2280</name></trkpt>
<trkpt lat="53.142244" lon="-3.920763"><ele>803</ele><time>2020-08-16T10:23:30Z</time><name>PT2281</name></trkpt>
<trkpt lat="53.142245" lon="-3.920760"><ele>802</ele><time>2020-08-16T10:23:31Z</time><name>PT2282</name></trkpt>
<trkpt lat="53.142248" lon="-3.920760"><ele>802</ele><time>2020-08-16T10:23:33Z</time><name>PT2283</name></trkpt>
<trkpt lat="53.142247" lon="-3.920760"><ele>801</ele><time>2020-08-16T10:23:33Z</time><name>PT2284</name></trkpt>
<trkpt lat="53.142248" lon="-3.920758"><ele>801</ele><time>2020-08-16T10:23:34Z</time><name>PT2285</name></trkpt>
<trkpt lat="53.142245" lon="-3.920753"><ele>801</ele><time>2020-08-16T10:23:36Z</time><name>PT2286</name></trkpt>
<trkpt lat="53.142240" lon="-3.920752"><ele>801</ele><time>2020-08-16T10:23:36Z</time><name>PT2287</name></trkpt>
<trkpt lat="53.142241" lon="-3.920762"><ele>801</ele><time>2020-08-16T10:23:37Z</time><name>PT2288</name></trkpt>
<trkpt lat="53.142243" lon="-3.920761"><ele>801</ele><time>2020-08-16T10:23:39Z</time><name>PT2289</name></trkpt>
<trkpt lat="53.142245" lon="-3.920766"><ele>800</ele><time>2020-08-16T10:23:39Z</time><name>PT2290</name></trkpt>
<trkpt lat="53.142245" lon="-3.920768"><ele>800</ele><time>2020-08-16T10:23:40Z</time><name>PT2291</name></trkpt>
<trkpt lat="53.142248" lon="-3.920776"><ele>800</ele><time>2020-08-16T10:23:42Z</time><name>PT2292</name></trkpt>
<trkpt lat="53.142252" lon="-3.920778"><ele>801</ele><time>2020-08-16T10:23:42Z</time><name>PT2293</name></trkpt>
<trkpt lat="53.142255" lon="-3.920776"><ele>801</ele><time>2020-08-16T10:23:43Z</time><name>PT2294</name></trkpt>
<trkpt lat="53.142256" lon="-3.920777"><ele>800</ele><time>2020-08-16T10:23:45Z</time><name>PT2295</name></trkpt>
<trkpt lat="53.142254" lon="-3.920791"><ele>800</ele><time>2020-08-16T10:23:45Z</time><name>PT2296</name></trkpt>
<trkpt lat="53.142253" lon="-3.920790"><ele>798</ele><time>2020-08-16T10:23:46Z</time><name>PT2297</name></trkpt>
<trkpt lat="53.142254" lon="-3.920785"><ele>798</ele><time>2020-08-16T10:23:48Z</time><name>PT2298</name></trkpt>
<trkpt lat="53.142252" lon="-3.920783"><ele>797</ele><time>2020-08-16T10:23:48Z</time><name>PT2299</name></trkpt>
<trkpt lat="53.142249" lon="-3.920786"><ele>797</ele><time>2020-08-16T10:23:49Z</time><name>PT2300</name></trkpt>
<trkpt lat="53.142250" lon="-3.920797"><ele>797</ele><time>2020-08-16T10:23:51Z</time><name>PT2301</name></trkpt>
<trkpt lat="53.142250" lon="-3.920800"><ele>797</ele><time>2020-08-16T10:23:51Z</time><name>PT2302</name></trkpt>
<trkpt lat="53.142253" lon="-3.920802"><ele>796</ele><time>2020-08-16T10:23:52Z</time><name>PT2303</name></trkpt>
<trkpt lat="53.142254" lon="-3.920805"><ele>796</ele><time>2020-08-16T10:23:54Z</time><name>PT2304</name></trkpt>
<trkpt lat="53.142253" lon="-3.920810"><ele>796</ele><time>2020-08-16T10:23:54Z</time><name>PT2305</name></trkpt>
<trkpt lat="53.142254" lon="-3.920813"><ele>796</ele><time>2020-08-16T10:23:55Z</time><name>PT2306</name></trkpt>
<trkpt lat="53.142255" lon="-3.920816"><ele>796</ele><time>2020-08-16T10:23:57Z</time><name>PT2307</name></trkpt>
<trkpt lat="53.142255" lon="-3.920822"><ele>795</ele><time>2020-08-16T10:23:57Z</time><name>PT2308</name></trkpt>
<trkpt lat="53.142253" lon="-3.920825"><ele>794</ele><time>2020-08-16T10:23:59Z</time><name>PT2309</name></trkpt>
<trkpt lat="53.142253" lon="-3.920827"><ele>794</ele><time>2020-08-16T10:24:00Z</time><name>PT2310</name></trkpt>
<trkpt lat="53.142253" lon="-3.920826"><ele>794</ele><time>2020-08-16T10:24:00Z</time><name>PT2311</name></trkpt>
<trkpt lat="53.142250" lon="-3.920825"><ele>794</ele><time>2020-08-16T10:24:01Z</time><name>PT2312</name></trkpt>
<trkpt lat="53.142248" lon="-3.920825"><ele>795</ele><time>2020-08-16T10:24:03Z</time><name>PT2313</name></trkpt>
<trkpt lat="53.142248" lon="-3.920825"><ele>795</ele><time>2020-08-16T10:24:03Z</time><name>PT2314</name></trkpt>
<trkpt lat="53.142247" lon="-3.920827"><ele>795</ele><time>2020-08-16T10:24:04Z</time><name>PT2315</name></trkpt>
<trkpt lat="53.142253" lon="-3.920826"><ele>795</ele><time>2020-08-16T10:24:06Z</time><name>PT2316</name></trkpt>
<trkpt lat="53.142255" lon="-3.920828"><ele>794</ele><time>2020-08-16T10:24:07Z</time><name>PT2317</name></trkpt>
<trkpt lat="53.142256" lon="-3.920826"><ele>795</ele><time>2020-08-16T10:24:09Z</time><name>PT2318</name></trkpt>
<trkpt lat="53.142259" lon="-3.920826"><ele>795</ele><time>2020-08-16T10:24:09Z</time><name>PT2319</name></trkpt>
<trkpt lat="53.142259" lon="-3.920839"><ele>795</ele><time>2020-08-16T10:24:12Z</time><name>PT2320</name></trkpt>
<trkpt lat="53.142257" lon="-3.920848"><ele>796</ele><time>2020-08-16T10:24:12Z</time><name>PT2321</name></trkpt>
<trkpt lat="53.142251" lon="-3.920862"><ele>797</ele><time>2020-08-16T10:24:13Z</time><name>PT2322</name></trkpt>
<trkpt lat="53.142250" lon="-3.920858"><ele>796</ele><time>2020-08-16T10:24:15Z</time><name>PT2323</name></trkpt>
<trkpt lat="53.142251" lon="-3.920853"><ele>797</ele><time>2020-08-16T10:24:15Z</time><name>PT2324</name></trkpt>
<trkpt lat="53.142254" lon="-3.920823"><ele>797</ele><time>2020-08-16T10:24:16Z</time><name>PT2325</name></trkpt>
<trkpt lat="53.142258" lon="-3.920817"><ele>798</ele><time>2020-08-16T10:24:18Z</time><name>PT2326</name></trkpt>
<trkpt lat="53.142256" lon="-3.920819"><ele>798</ele><time>2020-08-16T10:24:36Z</time><name>PT2327</name></trkpt>
<trkpt lat="53.142251" lon="-3.920813"><ele>799</ele><time>2020-08-16T10:24:36Z</time><name>PT2328</name></trkpt>
<trkpt lat="53.142249" lon="-3.920809"><ele>799</ele><time>2020-08-16T10:24:37Z</time><name>PT2329</name></trkpt>
<trkpt lat="53.142249" lon="-3.920808"><ele>799</ele><time>2020-08-16T10:24:39Z</time><name>PT2330</name></trkpt>
<trkpt lat="53.142248" lon="-3.920810"><ele>800</ele><time>2020-08-16T10:24:45Z</time><name>PT2331</name></trkpt>
<trkpt lat="53.142245" lon="-3.920809"><ele>800</ele><time>2020-08-16T10:24:45Z</time><name>PT2332</name></trkpt>
<trkpt lat="53.142244" lon="-3.920809"><ele>800</ele><time>2020-08-16T10:24:46Z</time><name>PT2333</name></trkpt>
<trkpt lat="53.142240" lon="-3.920816"><ele>800</ele><time>2020-08-16T10:25:24Z</time><name>PT2334</name></trkpt>
<trkpt lat="53.142237" lon="-3.920813"><ele>800</ele><time>2020-08-16T10:25:28Z</time><name>PT2335</name></trkpt>
<trkpt lat="53.142233" lon="-3.920812"><ele>800</ele><time>2020-08-16T10:25:49Z</time><name>PT2336</name></trkpt>
<trkpt lat="53.142234" lon="-3.920812"><ele>800</ele><time>2020-08-16T10:25:51Z</time><name>PT2337</name></trkpt>
<trkpt lat="53.142239" lon="-3.920812"><ele>800</ele><time>2020-08-16T10:25:51Z</time><name>PT2338</name></trkpt>
<trkpt lat="53.142235" lon="-3.920799"><ele>800</ele><time>2020-08-16T10:25:52Z</time><name>PT2339</name></trkpt>
<trkpt lat="53.142233" lon="-3.920793"><ele>800</ele><time>2020-08-16T10:25:54Z</time><name>PT2340</name></trkpt>
<trkpt lat="53.142235" lon="-3.920805"><ele>800</ele><time>2020-08-16T10:25:54Z</time><name>PT2341</name></trkpt>
<trkpt lat="53.142235" lon="-3.920804"><ele>799</ele><time>2020-08-16T10:25:55Z</time><name>PT2342</name></trkpt>
<trkpt lat="53.142237" lon="-3.920809"><ele>799</ele><time>2020-08-16T10:25:57Z</time><name>PT2343</name></trkpt>
<trkpt lat="53.142242" lon="-3.920800"><ele>799</ele><time>2020-08-16T10:25:57Z</time><name>PT2344</name></trkpt>
<trkpt lat="53.142250" lon="-3.920802"><ele>798</ele><time>2020-08-16T10:25:58Z</time><name>PT2345</name></trkpt>
<trkpt lat="53.142255" lon="-3.920802"><ele>798</ele><time>2020-08-16T10:26:00Z</time><name>PT2346</name></trkpt>
<trkpt lat="53.142266" lon="-3.920807"><ele>798</ele><time>2020-08-16T10:26:00Z</time><name>PT2347</name></trkpt>
<trkpt lat="53.142273" lon="-3.920799"><ele>798</ele><time>2020-08-16T10:26:01Z</time><name>PT2348</name></trkpt>
<trkpt lat="53.142278" lon="-3.920783"><ele>799</ele><time>2020-08-16T10:26:03Z</time><name>PT2349</name></trkpt>
<trkpt lat="53.142286" lon="-3.920769"><ele>800</ele><time>2020-08-16T10:26:03Z</time><name>PT2350</name></trkpt>
<trkpt lat="53.142289" lon="-3.920766"><ele>801</ele><time>2020-08-16T10:26:04Z</time><name>PT2351</name></trkpt>
<trkpt lat="53.142286" lon="-3.920765"><ele>801</ele><time>2020-08-16T10:26:06Z</time><name>PT2352</name></trkpt>
<trkpt lat="53.142286" lon="-3.920767"><ele>801</ele><time>2020-08-16T10:26:06Z</time><name>PT2353</name></trkpt>
<trkpt lat="53.142289" lon="-3.920768"><ele>801</ele><time>2020-08-16T10:26:07Z</time><name>PT2354</name></trkpt>
<trkpt lat="53.142283" lon="-3.920764"><ele>801</ele><time>2020-08-16T10:26:09Z</time><name>PT2355</name></trkpt>
<trkpt lat="53.142287" lon="-3.920760"><ele>802</ele><time>2020-08-16T10:26:09Z</time><name>PT2356</name></trkpt>
<trkpt lat="53.142281" lon="-3.920760"><ele>801</ele><time>2020-08-16T10:26:10Z</time><name>PT2357</name></trkpt>
<trkpt lat="53.142273" lon="-3.920763"><ele>800</ele><time>2020-08-16T10:26:12Z</time><name>PT2358</name></trkpt>
<trkpt lat="53.142264" lon="-3.920758"><ele>799</ele><time>2020-08-16T10:26:12Z</time><name>PT2359</name></trkpt>
<trkpt lat="53.142249" lon="-3.920756"><ele>796</ele><time>2020-08-16T10:26:13Z</time><name>PT2360</name></trkpt>
<trkpt lat="53.142259" lon="-3.920756"><ele>799</ele><time>2020-08-16T10:26:15Z</time><name>PT2361</name></trkpt>
<trkpt lat="53.142262" lon="-3.920761"><ele>799</ele><time>2020-08-16T10:26:15Z</time><name>PT2362</name></trkpt>
<trkpt lat="53.142256" lon="-3.920763"><ele>798</ele><time>2020-08-16T10:26:16Z</time><name>PT2363</name></trkpt>
<trkpt lat="53.142248" lon="-3.920764"><ele>797</ele><time>2020-08-16T10:26:18Z</time><name>PT2364</name></trkpt>
<trkpt lat="53.142247" lon="-3.920759"><ele>797</ele><time>2020-08-16T10:26:18Z</time><name>PT2365</name></trkpt>
<trkpt lat="53.142245" lon="-3.920762"><ele>796</ele><time>2020-08-16T10:26:19Z</time><name>PT2366</name></trkpt>
<trkpt lat="53.142243" lon="-3.920769"><ele>797</ele><time>2020-08-16T10:26:21Z</time><name>PT2367</name></trkpt>
<trkpt lat="53.142237" lon="-3.920779"><ele>797</ele><time>2020-08-16T10:26:21Z</time><name>PT2368</name></trkpt>
<trkpt lat="53.142228" lon="-3.920787"><ele>797</ele><time>2020-08-16T10:26:22Z</time><name>PT2369</name></trkpt>
<trkpt lat="53.142221" lon="-3.920790"><ele>797</ele><time>2020-08-16T10:26:24Z</time><name>PT2370</name></trkpt>
<trkpt lat="53.142215" lon="-3.920792"><ele>796</ele><time>2020-08-16T10:26:24Z</time><name>PT2371</name></trkpt>
<trkpt lat="53.142217" lon="-3.920797"><ele>796</ele><time>2020-08-16T10:26:25Z</time><name>PT2372</name></trkpt>
<trkpt lat="53.142211" lon="-3.920794"><ele>795</ele><time>2020-08-16T10:26:27Z</time><name>PT2373</name></trkpt>
<trkpt lat="53.142212" lon="-3.920795"><ele>796</ele><time>2020-08-16T10:26:27Z</time><name>PT2374</name></trkpt>
<trkpt lat="53.142209" lon="-3.920799"><ele>796</ele><time>2020-08-16T10:26:28Z</time><name>PT2375</name></trkpt>
<trkpt lat="53.142207" lon="-3.920798"><ele>795</ele><time>2020-08-16T10:26:30Z</time><name>PT2376</name></trkpt>
<trkpt lat="53.142208" lon="-3.920796"><ele>795</ele><time>2020-08-16T10:26:30Z</time><name>PT2377</name></trkpt>
<trkpt lat="53.142206" lon="-3.920795"><ele>796</ele><time>2020-08-16T10:26:31Z</time><name>PT2378</name></trkpt>
<trkpt lat="53.142207" lon="-3.920799"><ele>796</ele><time>2020-08-16T10:26:33Z</time><name>PT2379</name></trkpt>
<trkpt lat="53.142208" lon="-3.920801"><ele>795</ele><time>2020-08-16T10:26:33Z</time><name>PT2380</name></trkpt>
<trkpt lat="53.142210" lon="-3.920798"><ele>795</ele><time>2020-08-16T10:26:34Z</time><name>PT2381</name></trkpt>
<trkpt lat="53.142212" lon="-3.920793"><ele>796</ele><time>2020-08-16T10:26:36Z</time><name>PT2382</name></trkpt>
<trkpt lat="53.142215" lon="-3.920790"><ele>796</ele><time>2020-08-16T10:26:36Z</time><name>PT2383</name></trkpt>
<trkpt lat="53.142221" lon="-3.920787"><ele>797</ele><time>2020-08-16T10:26:37Z</time><name>PT2384</name></trkpt>
<trkpt lat="53.142221" lon="-3.920780"><ele>797</ele><time>2020-08-16T10:26:39Z</time><name>PT2385</name></trkpt>
<trkpt lat="53.142223" lon="-3.920780"><ele>797</ele><time>2020-08-16T10:26:39Z</time><name>PT2386</name></trkpt>
<trkpt lat="53.142221" lon="-3.920777"><ele>796</ele><time>2020-08-16T10:26:42Z</time><name>PT2387</name></trkpt>
<trkpt lat="53.142216" lon="-3.920786"><ele>797</ele><time>2020-08-16T10:26:47Z</time><name>PT2388</name></trkpt>
<trkpt lat="53.142211" lon="-3.920795"><ele>796</ele><time>2020-08-16T10:26:48Z</time><name>PT2389</name></trkpt>
<trkpt lat="53.142205" lon="-3.920798"><ele>796</ele><time>2020-08-16T10:26:50Z</time><name>PT2390</name></trkpt>
<trkpt lat="53.142200" lon="-3.920803"><ele>796</ele><time>2020-08-16T10:26:50Z</time><name>PT2391</name></trkpt>
<trkpt lat="53.142198" lon="-3.920811"><ele>796</ele><time>2020-08-16T10:26:51Z</time><name>PT2392</name></trkpt>
<trkpt lat="53.142198" lon="-3.920812"><ele>796</ele><time>2020-08-16T10:26:53Z</time><name>PT2393</name></trkpt>
<trkpt lat="53.142202" lon="-3.920811"><ele>796</ele><time>2020-08-16T10:26:53Z</time><name>PT2394</name></trkpt>
<trkpt lat="53.142205" lon="-3.920810"><ele>797</ele><time>2020-08-16T10:26:54Z</time><name>PT2395</name></trkpt>
<trkpt lat="53.142212" lon="-3.920807"><ele>797</ele><time>2020-08-16T10:26:56Z</time><name>PT2396</name></trkpt>
<trkpt lat="53.142217" lon="-3.920810"><ele>798</ele><time>2020-08-16T10:26:56Z</time><name>PT2397</name></trkpt>
<trkpt lat="53.142223" lon="-3.920810"><ele>798</ele><time>2020-08-16T10:26:58Z</time><name>PT2398</name></trkpt>
<trkpt lat="53.142230" lon="-3.920803"><ele>798</ele><time>2020-08-16T10:26:59Z</time><name>PT2399</name></trkpt>
<trkpt lat="53.142237" lon="-3.920801"><ele>799</ele><time>2020-08-16T10:26:59Z</time><name>PT2400</name></trkpt>
<trkpt lat="53.142241" lon="-3.920797"><ele>799</ele><time>2020-08-16T10:27:00Z</time><name>PT2401</name></trkpt>
<trkpt lat="53.142243" lon="-3.920802"><ele>799</ele><time>2020-08-16T10:27:02Z</time><name>PT2402</name></trkpt>
<trkpt lat="53.142245" lon="-3.920806"><ele>799</ele><time>2020-08-16T10:27:02Z</time><name>PT2403</name></trkpt>
<trkpt lat="53.142247" lon="-3.920809"><ele>799</ele><time>2020-08-16T10:27:03Z</time><name>PT2404</name></trkpt>
<trkpt lat="53.142251" lon="-3.920807"><ele>800</ele><time>2020-08-16T10:27:05Z</time><name>PT2405</name></trkpt>
<trkpt lat="53.142253" lon="-3.920805"><ele>800</ele><time>2020-08-16T10:27:05Z</time><name>PT2406</name></trkpt>
<trkpt lat="53.142254" lon="-3.920802"><ele>800</ele><time>2020-08-16T10:27:06Z</time><name>PT2407</name></trkpt>
<trkpt lat="53.142254" lon="-3.920803"><ele>800</ele><time>2020-08-16T10:27:08Z</time><name>PT2408</name></trkpt>
<trkpt lat="53.142254" lon="-3.920801"><ele>801</ele><time>2020-08-16T10:27:08Z</time><name>PT2409</name></trkpt>
<trkpt lat="53.142258" lon="-3.920791"><ele>801</ele><time>2020-08-16T10:27:15Z</time><name>PT2410</name></trkpt>
<trkpt lat="53.142264" lon="-3.920787"><ele>801</ele><time>2020-08-16T10:27:17Z</time><name>PT2411</name></trkpt>
<trkpt lat="53.142270" lon="-3.920787"><ele>801</ele><time>2020-08-16T10:27:17Z</time><name>PT2412</name></trkpt>
<trkpt lat="53.142269" lon="-3.920787"><ele>801</ele><time>2020-08-16T10:27:18Z</time><name>PT2413</name></trkpt>
<trkpt lat="53.142267" lon="-3.920783"><ele>801</ele><time>2020-08-16T10:27:20Z</time><name>PT2414</name></trkpt>
<trkpt lat="53.142266" lon="-3.920791"><ele>800</ele><time>2020-08-16T10:27:20Z</time><name>PT2415</name></trkpt>
<trkpt lat="53.142267" lon="-3.920784"><ele>799</ele><time>2020-08-16T10:27:21Z</time><name>PT2416</name></trkpt>
<trkpt lat="53.142266" lon="-3.920783"><ele>801</ele><time>2020-08-16T10:27:23Z</time><name>PT2417</name></trkpt>
<trkpt lat="53.142266" lon="-3.920771"><ele>802</ele><time>2020-08-16T10:27:23Z</time><name>PT2418</name></trkpt>
<trkpt lat="53.142262" lon="-3.920759"><ele>802</ele><time>2020-08-16T10:27:24Z</time><name>PT2419</name></trkpt>
<trkpt lat="53.142259" lon="-3.920748"><ele>803</ele><time>2020-08-16T10:27:26Z</time><name>PT2420</name></trkpt>
<trkpt lat="53.142259" lon="-3.920747"><ele>804</ele><time>2020-08-16T10:27:26Z</time><name>PT2421</name></trkpt>
<trkpt lat="53.142256" lon="-3.920746"><ele>804</ele><time>2020-08-16T10:27:27Z</time><name>PT2422</name></trkpt>
<trkpt lat="53.142253" lon="-3.920748"><ele>804</ele><time>2020-08-16T10:27:35Z</time><name>PT2423</name></trkpt>
<trkpt lat="53.142251" lon="-3.920751"><ele>805</ele><time>2020-08-16T10:27:35Z</time><name>PT2424</name></trkpt>
<trkpt lat="53.142252" lon="-3.920757"><ele>805</ele><time>2020-08-16T10:27:50Z</time><name>PT2425</name></trkpt>
<trkpt lat="53.142252" lon="-3.920759"><ele>804</ele><time>2020-08-16T10:27:50Z</time><name>PT2426</name></trkpt>
<trkpt lat="53.142253" lon="-3.920764"><ele>805</ele><time>2020-08-16T10:27:51Z</time><name>PT2427</name></trkpt>
<trkpt lat="53.142249" lon="-3.920763"><ele>805</ele><time>2020-08-16T10:28:03Z</time><name>PT2428</name></trkpt>
<trkpt lat="53.142250" lon="-3.920764"><ele>805</ele><time>2020-08-16T10:28:05Z</time><name>PT2429</name></trkpt>
<trkpt lat="53.142248" lon="-3.920762"><ele>805</ele><time>2020-08-16T10:28:05Z</time><name>PT2430</name></trkpt>
<trkpt lat="53.142248" lon="-3.920764"><ele>805</ele><time>2020-08-16T10:28:06Z</time><name>PT2431</name></trkpt>
<trkpt lat="53.142248" lon="-3.920760"><ele>805</ele><time>2020-08-16T10:28:08Z</time><name>PT2432</name></trkpt>
<trkpt lat="53.142249" lon="-3.920757"><ele>804</ele><time>2020-08-16T10:28:08Z</time><name>PT2433</name></trkpt>
<trkpt lat="53.142251" lon="-3.920761"><ele>804</ele><time>2020-08-16T10:28:32Z</time><name>PT2434</name></trkpt>
<trkpt lat="53.142251" lon="-3.920761"><ele>805</ele><time>2020-08-16T10:28:33Z</time><name>PT2435</name></trkpt>
<trkpt lat="53.142252" lon="-3.920762"><ele>805</ele><time>2020-08-16T10:28:35Z</time><name>PT2436</name></trkpt>
<trkpt lat="53.142251" lon="-3.920765"><ele>805</ele><time>2020-08-16T10:28:35Z</time><name>PT2437</name></trkpt>
<trkpt lat="53.142250" lon="-3.920759"><ele>805</ele><time>2020-08-16T10:28:53Z</time><name>PT2438</name></trkpt>
<trkpt lat="53.142256" lon="-3.920764"><ele>806</ele><time>2020-08-16T10:28:56Z</time><name>PT2439</name></trkpt>
<trkpt lat="53.142254" lon="-3.920774"><ele>806</ele><time>2020-08-16T10:28:59Z</time><name>PT2440</name></trkpt>
<trkpt lat="53.142247" lon="-3.920768"><ele>806</ele><time>2020-08-16T10:29:11Z</time><name>PT2441</name></trkpt>
<trkpt lat="53.142224" lon="-3.920772"><ele>805</ele><time>2020-08-16T10:29:14Z</time><name>PT2442</name></trkpt>
<trkpt lat="53.142195" lon="-3.920777"><ele>804</ele><time>2020-08-16T10:29:17Z</time><name>PT2443</name></trkpt>
<trkpt lat="53.142162" lon="-3.920800"><ele>802</ele><time>2020-08-16T10:29:20Z</time><name>PT2444</name></trkpt>
<trkpt lat="53.142142" lon="-3.920819"><ele>802</ele><time>2020-08-16T10:29:23Z</time><name>PT2445</name></trkpt>
<trkpt lat="53.142101" lon="-3.920834"><ele>800</ele><time>2020-08-16T10:29:27Z</time><name>PT2446</name></trkpt>
<trkpt lat="53.142070" lon="-3.920852"><ele>799</ele><time>2020-08-16T10:29:30Z</time><name>PT2447</name></trkpt>
<trkpt lat="53.142027" lon="-3.920869"><ele>799</ele><time>2020-08-16T10:29:35Z</time><name>PT2448</name></trkpt>
<trkpt lat="53.142002" lon="-3.920881"><ele>798</ele><time>2020-08-16T10:29:38Z</time><name>PT2449</name></trkpt>
<trkpt lat="53.141973" lon="-3.920893"><ele>797</ele><time>2020-08-16T10:29:41Z</time><name>PT2450</name></trkpt>
<trkpt lat="53.141954" lon="-3.920895"><ele>796</ele><time>2020-08-16T10:29:44Z</time><name>PT2451</name></trkpt>
<trkpt lat="53.141918" lon="-3.920894"><ele>796</ele><time>2020-08-16T10:29:48Z</time><name>PT2452</name></trkpt>
<trkpt lat="53.141872" lon="-3.920924"><ele>796</ele><time>2020-08-16T10:29:53Z</time><name>PT2453</name></trkpt>
<trkpt lat="53.141834" lon="-3.920952"><ele>796</ele><time>2020-08-16T10:29:56Z</time><name>PT2454</name></trkpt>
<trkpt lat="53.141802" lon="-3.920977"><ele>795</ele><time>2020-08-16T10:30:00Z</time><name>PT2455</name></trkpt>
<trkpt lat="53.141776" lon="-3.920974"><ele>795</ele><time>2020-08-16T10:30:03Z</time><name>PT2456</name></trkpt>
<trkpt lat="53.141744" lon="-3.920968"><ele>794</ele><time>2020-08-16T10:30:08Z</time><name>PT2457</name></trkpt>
<trkpt lat="53.141721" lon="-3.920970"><ele>794</ele><time>2020-08-16T10:30:11Z</time><name>PT2458</name></trkpt>
<trkpt lat="53.141686" lon="-3.920982"><ele>793</ele><time>2020-08-16T10:30:14Z</time><name>PT2459</name></trkpt>
<trkpt lat="53.141652" lon="-3.920977"><ele>792</ele><time>2020-08-16T10:30:18Z</time><name>PT2460</name></trkpt>
<trkpt lat="53.141629" lon="-3.920996"><ele>792</ele><time>2020-08-16T10:30:21Z</time><name>PT2461</name></trkpt>
<trkpt lat="53.141601" lon="-3.921001"><ele>790</ele><time>2020-08-16T10:30:26Z</time><name>PT2462</name></trkpt>
<trkpt lat="53.141575" lon="-3.921001"><ele>790</ele><time>2020-08-16T10:30:29Z</time><name>PT2463</name></trkpt>
<trkpt lat="53.141541" lon="-3.920983"><ele>789</ele><time>2020-08-16T10:30:32Z</time><name>PT2464</name></trkpt>
<trkpt lat="53.141505" lon="-3.920994"><ele>788</ele><time>2020-08-16T10:30:36Z</time><name>PT2465</name></trkpt>
<trkpt lat="53.141467" lon="-3.920999"><ele>788</ele><time>2020-08-16T10:30:41Z</time><name>PT2466</name></trkpt>
<trkpt lat="53.141436" lon="-3.921022"><ele>788</ele><time>2020-08-16T10:30:44Z</time><name>PT2467</name></trkpt>
<trkpt lat="53.141417" lon="-3.921044"><ele>787</ele><time>2020-08-16T10:30:47Z</time><name>PT2468</name></trkpt>
<trkpt lat="53.141399" lon="-3.921065"><ele>786</ele><time>2020-08-16T10:30:50Z</time><name>PT2469</name></trkpt>
<trkpt lat="53.141384" lon="-3.921107"><ele>785</ele><time>2020-08-16T10:30:54Z</time><name>PT2470</name></trkpt>
<trkpt lat="53.141373" lon="-3.921134"><ele>784</ele><time>2020-08-16T10:30:57Z</time><name>PT2471</name></trkpt>
<trkpt lat="53.141354" lon="-3.921141"><ele>783</ele><time>2020-08-16T10:31:00Z</time><name>PT2472</name></trkpt>
<trkpt lat="53.141335" lon="-3.921151"><ele>783</ele><time>2020-08-16T10:31:05Z</time><name>PT2473</name></trkpt>
<trkpt lat="53.141311" lon="-3.921152"><ele>782</ele><time>2020-08-16T10:31:08Z</time><name>PT2474</name></trkpt>
<trkpt lat="53.141288" lon="-3.921162"><ele>782</ele><time>2020-08-16T10:31:12Z</time><name>PT2475</name></trkpt>
<trkpt lat="53.141268" lon="-3.921170"><ele>782</ele><time>2020-08-16T10:31:15Z</time><name>PT2476</name></trkpt>
<trkpt lat="53.141247" lon="-3.921182"><ele>781</ele><time>2020-08-16T10:31:18Z</time><name>PT2477</name></trkpt>
<trkpt lat="53.141218" lon="-3.921192"><ele>780</ele><time>2020-08-16T10:31:23Z</time><name>PT2478</name></trkpt>
<trkpt lat="53.141197" lon="-3.921189"><ele>779</ele><time>2020-08-16T10:31:26Z</time><name>PT2479</name></trkpt>
<trkpt lat="53.141159" lon="-3.921187"><ele>777</ele><time>2020-08-16T10:31:29Z</time><name>PT2480</name></trkpt>
<trkpt lat="53.141138" lon="-3.921189"><ele>777</ele><time>2020-08-16T10:31:32Z</time><name>PT2481</name></trkpt>
<trkpt lat="53.141105" lon="-3.921171"><ele>776</ele><time>2020-08-16T10:31:36Z</time><name>PT2482</name></trkpt>
<trkpt lat="53.141085" lon="-3.921156"><ele>775</ele><time>2020-08-16T10:31:39Z</time><name>PT2483</name></trkpt>
<trkpt lat="53.141050" lon="-3.921136"><ele>772</ele><time>2020-08-16T10:31:44Z</time><name>PT2484</name></trkpt>
<trkpt lat="53.141018" lon="-3.921129"><ele>771</ele><time>2020-08-16T10:31:47Z</time><name>PT2485</name></trkpt>
<trkpt lat="53.140986" lon="-3.921122"><ele>770</ele><time>2020-08-16T10:31:51Z</time><name>PT2486</name></trkpt>
<trkpt lat="53.140962" lon="-3.921107"><ele>769</ele><time>2020-08-16T10:31:54Z</time><name>PT2487</name></trkpt>
<trkpt lat="53.140928" lon="-3.921071"><ele>769</ele><time>2020-08-16T10:31:59Z</time><name>PT2488</name></trkpt>
<trkpt lat="53.140915" lon="-3.921035"><ele>769</ele><time>2020-08-16T10:32:02Z</time><name>PT2489</name></trkpt>
<trkpt lat="53.140890" lon="-3.921008"><ele>767</ele><time>2020-08-16T10:32:05Z</time><name>PT2490</name></trkpt>
<trkpt lat="53.140857" lon="-3.921010"><ele>767</ele><time>2020-08-16T10:32:09Z</time><name>PT2491</name></trkpt>
<trkpt lat="53.140833" lon="-3.921002"><ele>765</ele><time>2020-08-16T10:32:14Z</time><name>PT2492</name></trkpt>
<trkpt lat="53.140819" lon="-3.920980"><ele>764</ele><time>2020-08-16T10:32:17Z</time><name>PT2493</name></trkpt>
<trkpt lat="53.140793" lon="-3.920962"><ele>763</ele><time>2020-08-16T10:32:20Z</time><name>PT2494</name></trkpt>
<trkpt lat="53.140767" lon="-3.920960"><ele>762</ele><time>2020-08-16T10:32:24Z</time><name>PT2495</name></trkpt>
<trkpt lat="53.140742" lon="-3.920945"><ele>762</ele><time>2020-08-16T10:32:29Z</time><name>PT2496</name></trkpt>
<trkpt lat="53.140736" lon="-3.920923"><ele>761</ele><time>2020-08-16T10:32:32Z</time><name>PT2497</name></trkpt>
<trkpt lat="53.140725" lon="-3.920912"><ele>761</ele><time>2020-08-16T10:32:35Z</time><name>PT2498</name></trkpt>
<trkpt lat="53.140684" lon="-3.920880"><ele>761</ele><time>2020-08-16T10:32:38Z</time><name>PT2499</name></trkpt>
<trkpt lat="53.140652" lon="-3.920870"><ele>760</ele><time>2020-08-16T10:32:42Z</time><name>PT2500</name></trkpt>
<trkpt lat="53.140639" lon="-3.920876"><ele>761</ele><time>2020-08-16T10:32:45Z</time><name>PT2501</name></trkpt>
<trkpt lat="53.140626" lon="-3.920893"><ele>759</ele><time>2020-08-16T10:32:48Z</time><name>PT2502</name></trkpt>
<trkpt lat="53.140610" lon="-3.920894"><ele>758</ele><time>2020-08-16T10:32:53Z</time><name>PT2503</name></trkpt>
<trkpt lat="53.140600" lon="-3.920884"><ele>757</ele><time>2020-08-16T10:32:56Z</time><name>PT2504</name></trkpt>
<trkpt lat="53.140579" lon="-3.920865"><ele>756</ele><time>2020-08-16T10:32:59Z</time><name>PT2505</name></trkpt>
<trkpt lat="53.140561" lon="-3.920862"><ele>755</ele><time>2020-08-16T10:33:02Z</time><name>PT2506</name></trkpt>
<trkpt lat="53.140544" lon="-3.920847"><ele>755</ele><time>2020-08-16T10:33:06Z</time><name>PT2507</name></trkpt>
<trkpt lat="53.140537" lon="-3.920845"><ele>755</ele><time>2020-08-16T10:33:11Z</time><name>PT2508</name></trkpt>
<trkpt lat="53.140539" lon="-3.920844"><ele>755</ele><time>2020-08-16T10:33:14Z</time><name>PT2509</name></trkpt>
<trkpt lat="53.140521" lon="-3.920840"><ele>754</ele><time>2020-08-16T10:33:17Z</time><name>PT2510</name></trkpt>
<trkpt lat="53.140485" lon="-3.920838"><ele>753</ele><time>2020-08-16T10:33:20Z</time><name>PT2511</name></trkpt>
<trkpt lat="53.140458" lon="-3.920842"><ele>751</ele><time>2020-08-16T10:33:23Z</time><name>PT2512</name></trkpt>
<trkpt lat="53.140432" lon="-3.920825"><ele>750</ele><time>2020-08-16T10:33:27Z</time><name>PT2513</name></trkpt>
<trkpt lat="53.140416" lon="-3.920824"><ele>749</ele><time>2020-08-16T10:33:30Z</time><name>PT2514</name></trkpt>
<trkpt lat="53.140396" lon="-3.920832"><ele>748</ele><time>2020-08-16T10:33:33Z</time><name>PT2515</name></trkpt>
<trkpt lat="53.140375" lon="-3.920826"><ele>747</ele><time>2020-08-16T10:33:37Z</time><name>PT2516</name></trkpt>
<trkpt lat="53.140355" lon="-3.920824"><ele>745</ele><time>2020-08-16T10:33:41Z</time><name>PT2517</name></trkpt>
<trkpt lat="53.140332" lon="-3.920814"><ele>744</ele><time>2020-08-16T10:33:44Z</time><name>PT2518</name></trkpt>
<trkpt lat="53.140306" lon="-3.920799"><ele>743</ele><time>2020-08-16T10:33:47Z</time><name>PT2519</name></trkpt>
<trkpt lat="53.140302" lon="-3.920801"><ele>742</ele><time>2020-08-16T10:33:51Z</time><name>PT2520</name></trkpt>
<trkpt lat="53.140285" lon="-3.920795"><ele>741</ele><time>2020-08-16T10:33:56Z</time><name>PT2521</name></trkpt>
<trkpt lat="53.140264" lon="-3.920796"><ele>741</ele><time>2020-08-16T10:33:59Z</time><name>PT2522</name></trkpt>
<trkpt lat="53.140242" lon="-3.920807"><ele>739</ele><time>2020-08-16T10:34:02Z</time><name>PT2523</name></trkpt>
<trkpt lat="53.140219" lon="-3.920810"><ele>738</ele><time>2020-08-16T10:34:05Z</time><name>PT2524</name></trkpt>
<trkpt lat="53.140194" lon="-3.920809"><ele>737</ele><time>2020-08-16T10:34:09Z</time><name>PT2525</name></trkpt>
<trkpt lat="53.140172" lon="-3.920810"><ele>735</ele><time>2020-08-16T10:34:12Z</time><name>PT2526</name></trkpt>
<trkpt lat="53.140148" lon="-3.920788"><ele>735</ele><time>2020-08-16T10:34:15Z</time><name>PT2527</name></trkpt>
<trkpt lat="53.140107" lon="-3.920777"><ele>734</ele><time>2020-08-16T10:34:20Z</time><name>PT2528</name></trkpt>
<trkpt lat="53.140080" lon="-3.920775"><ele>734</ele><time>2020-08-16T10:34:23Z</time><name>PT2529</name></trkpt>
<trkpt lat="53.140050" lon="-3.920789"><ele>733</ele><time>2020-08-16T10:34:26Z</time><name>PT2530</name></trkpt>
<trkpt lat="53.140021" lon="-3.920796"><ele>732</ele><time>2020-08-16T10:34:30Z</time><name>PT2531</name></trkpt>
<trkpt lat="53.140001" lon="-3.920802"><ele>731</ele><time>2020-08-16T10:34:33Z</time><name>PT2532</name></trkpt>
<trkpt lat="53.139986" lon="-3.920815"><ele>730</ele><time>2020-08-16T10:34:36Z</time><name>PT2533</name></trkpt>
<trkpt lat="53.139954" lon="-3.920820"><ele>728</ele><time>2020-08-16T10:34:41Z</time><name>PT2534</name></trkpt>
<trkpt lat="53.139930" lon="-3.920813"><ele>727</ele><time>2020-08-16T10:34:44Z</time><name>PT2535</name></trkpt>
<trkpt lat="53.139910" lon="-3.920815"><ele>726</ele><time>2020-08-16T10:34:48Z</time><name>PT2536</name></trkpt>
<trkpt lat="53.139894" lon="-3.920824"><ele>725</ele><time>2020-08-16T10:34:51Z</time><name>PT2537</name></trkpt>
<trkpt lat="53.139876" lon="-3.920797"><ele>725</ele><time>2020-08-16T10:34:56Z</time><name>PT2538</name></trkpt>
<trkpt lat="53.139854" lon="-3.920795"><ele>724</ele><time>2020-08-16T10:34:59Z</time><name>PT2539</name></trkpt>
<trkpt lat="53.139832" lon="-3.920797"><ele>724</ele><time>2020-08-16T10:35:02Z</time><name>PT2540</name></trkpt>
<trkpt lat="53.139813" lon="-3.920812"><ele>723</ele><time>2020-08-16T10:35:05Z</time><name>PT2541</name></trkpt>
<trkpt lat="53.139795" lon="-3.920821"><ele>722</ele><time>2020-08-16T10:35:08Z</time><name>PT2542</name></trkpt>
<trkpt lat="53.139773" lon="-3.920823"><ele>721</ele><time>2020-08-16T10:35:11Z</time><name>PT2543</name></trkpt>
<trkpt lat="53.139754" lon="-3.920813"><ele>721</ele><time>2020-08-16T10:35:14Z</time><name>PT2544</name></trkpt>
<trkpt lat="53.139725" lon="-3.920829"><ele>721</ele><time>2020-08-16T10:35:17Z</time><name>PT2545</name></trkpt>
<trkpt lat="53.139716" lon="-3.920840"><ele>720</ele><time>2020-08-16T10:35:20Z</time><name>PT2546</name></trkpt>
<trkpt lat="53.139708" lon="-3.920841"><ele>720</ele><time>2020-08-16T10:35:24Z</time><name>PT2547</name></trkpt>
<trkpt lat="53.139706" lon="-3.920840"><ele>720</ele><time>2020-08-16T10:35:27Z</time><name>PT2548</name></trkpt>
<trkpt lat="53.139696" lon="-3.920837"><ele>720</ele><time>2020-08-16T10:35:32Z</time><name>PT2549</name></trkpt>
<trkpt lat="53.139690" lon="-3.920842"><ele>719</ele><time>2020-08-16T10:35:35Z</time><name>PT2550</name></trkpt>
<trkpt lat="53.139688" lon="-3.920846"><ele>719</ele><time>2020-08-16T10:35:39Z</time><name>PT2551</name></trkpt>
<trkpt lat="53.139678" lon="-3.920846"><ele>719</ele><time>2020-08-16T10:35:47Z</time><name>PT2552</name></trkpt>
<trkpt lat="53.139640" lon="-3.920851"><ele>717</ele><time>2020-08-16T10:35:50Z</time><name>PT2553</name></trkpt>
<trkpt lat="53.139614" lon="-3.920860"><ele>716</ele><time>2020-08-16T10:35:53Z</time><name>PT2554</name></trkpt>
<trkpt lat="53.139579" lon="-3.920863"><ele>714</ele><time>2020-08-16T10:35:57Z</time><name>PT2555</name></trkpt>
<trkpt lat="53.139556" lon="-3.920862"><ele>714</ele><time>2020-08-16T10:36:00Z</time><name>PT2556</name></trkpt>
<trkpt lat="53.139532" lon="-3.920875"><ele>712</ele><time>2020-08-16T10:36:03Z</time><name>PT2557</name></trkpt>
<trkpt lat="53.139516" lon="-3.920881"><ele>711</ele><time>2020-08-16T10:36:06Z</time><name>PT2558</name></trkpt>
<trkpt lat="53.139501" lon="-3.920904"><ele>710</ele><time>2020-08-16T10:36:11Z</time><name>PT2559</name></trkpt>
<trkpt lat="53.139494" lon="-3.920915"><ele>710</ele><time>2020-08-16T10:36:14Z</time><name>PT2560</name></trkpt>
<trkpt lat="53.139483" lon="-3.920918"><ele>709</ele><time>2020-08-16T10:36:21Z</time><name>PT2561</name></trkpt>
<trkpt lat="53.139466" lon="-3.920915"><ele>708</ele><time>2020-08-16T10:36:25Z</time><name>PT2562</name></trkpt>
<trkpt lat="53.139456" lon="-3.920902"><ele>707</ele><time>2020-08-16T10:36:29Z</time><name>PT2563</name></trkpt>
<trkpt lat="53.139441" lon="-3.920884"><ele>706</ele><time>2020-08-16T10:36:32Z</time><name>PT2564</name></trkpt>
<trkpt lat="53.139439" lon="-3.920884"><ele>706</ele><time>2020-08-16T10:36:35Z</time><name>PT2565</name></trkpt>
<trkpt lat="53.139410" lon="-3.920856"><ele>704</ele><time>2020-08-16T10:36:39Z</time><name>PT2566</name></trkpt>
<trkpt lat="53.139387" lon="-3.920837"><ele>702</ele><time>2020-08-16T10:36:42Z</time><name>PT2567</name></trkpt>
<trkpt lat="53.139367" lon="-3.920823"><ele>702</ele><time>2020-08-16T10:36:47Z</time><name>PT2568</name></trkpt>
<trkpt lat="53.139355" lon="-3.920820"><ele>701</ele><time>2020-08-16T10:36:53Z</time><name>PT2569</name></trkpt>
<trkpt lat="53.139339" lon="-3.920844"><ele>701</ele><time>2020-08-16T10:36:57Z</time><name>PT2570</name></trkpt>
<trkpt lat="53.139327" lon="-3.920847"><ele>700</ele><time>2020-08-16T10:37:02Z</time><name>PT2571</name></trkpt>
<trkpt lat="53.139317" lon="-3.920843"><ele>699</ele><time>2020-08-16T10:37:05Z</time><name>PT2572</name></trkpt>
<trkpt lat="53.139292" lon="-3.920837"><ele>699</ele><time>2020-08-16T10:37:08Z</time><name>PT2573</name></trkpt>
<trkpt lat="53.139280" lon="-3.920813"><ele>697</ele><time>2020-08-16T10:37:12Z</time><name>PT2574</name></trkpt>
<trkpt lat="53.139274" lon="-3.920804"><ele>697</ele><time>2020-08-16T10:37:20Z</time><name>PT2575</name></trkpt>
<trkpt lat="53.139273" lon="-3.920804"><ele>697</ele><time>2020-08-16T10:37:23Z</time><name>PT2576</name></trkpt>
<trkpt lat="53.139268" lon="-3.920808"><ele>697</ele><time>2020-08-16T10:37:26Z</time><name>PT2577</name></trkpt>
<trkpt lat="53.139265" lon="-3.920810"><ele>697</ele><time>2020-08-16T10:37:30Z</time><name>PT2578</name></trkpt>
<trkpt lat="53.139271" lon="-3.920812"><ele>697</ele><time>2020-08-16T10:37:33Z</time><name>PT2579</name></trkpt>
<trkpt lat="53.139251" lon="-3.920825"><ele>696</ele><time>2020-08-16T10:37:36Z</time><name>PT2580</name></trkpt>
<trkpt lat="53.139234" lon="-3.920845"><ele>693</ele><time>2020-08-16T10:37:41Z</time><name>PT2581</name></trkpt>
<trkpt lat="53.139222" lon="-3.920841"><ele>693</ele><time>2020-08-16T10:37:44Z</time><name>PT2582</name></trkpt>
<trkpt lat="53.139211" lon="-3.920836"><ele>691</ele><time>2020-08-16T10:37:47Z</time><name>PT2583</name></trkpt>
<trkpt lat="53.139200" lon="-3.920824"><ele>690</ele><time>2020-08-16T10:37:50Z</time><name>PT2584</name></trkpt>
<trkpt lat="53.139194" lon="-3.920811"><ele>689</ele><time>2020-08-16T10:37:54Z</time><name>PT2585</name></trkpt>
<trkpt lat="53.139180" lon="-3.920805"><ele>689</ele><time>2020-08-16T10:37:57Z</time><name>PT2586</name></trkpt>
<trkpt lat="53.139167" lon="-3.920808"><ele>689</ele><time>2020-08-16T10:38:00Z</time><name>PT2587</name></trkpt>
<trkpt lat="53.139160" lon="-3.920815"><ele>689</ele><time>2020-08-16T10:38:03Z</time><name>PT2588</name></trkpt>
<trkpt lat="53.139157" lon="-3.920816"><ele>689</ele><time>2020-08-16T10:38:08Z</time><name>PT2589</name></trkpt>
<trkpt lat="53.139143" lon="-3.920818"><ele>689</ele><time>2020-08-16T10:38:14Z</time><name>PT2590</name></trkpt>
<trkpt lat="53.139125" lon="-3.920821"><ele>688</ele><time>2020-08-16T10:38:18Z</time><name>PT2591</name></trkpt>
<trkpt lat="53.139112" lon="-3.920844"><ele>688</ele><time>2020-08-16T10:38:21Z</time><name>PT2592</name></trkpt>
<trkpt lat="53.139100" lon="-3.920868"><ele>688</ele><time>2020-08-16T10:38:26Z</time><name>PT2593</name></trkpt>
<trkpt lat="53.139094" lon="-3.920872"><ele>687</ele><time>2020-08-16T10:38:29Z</time><name>PT2594</name></trkpt>
<trkpt lat="53.139063" lon="-3.920886"><ele>686</ele><time>2020-08-16T10:38:33Z</time><name>PT2595</name></trkpt>
<trkpt lat="53.139037" lon="-3.920921"><ele>686</ele><time>2020-08-16T10:38:38Z</time><name>PT2596</name></trkpt>
<trkpt lat="53.139033" lon="-3.920958"><ele>685</ele><time>2020-08-16T10:38:41Z</time><name>PT2597</name></trkpt>
<trkpt lat="53.139030" lon="-3.921009"><ele>685</ele><time>2020-08-16T10:38:45Z</time><name>PT2598</name></trkpt>
<trkpt lat="53.139016" lon="-3.921056"><ele>684</ele><time>2020-08-16T10:38:50Z</time><name>PT2599</name></trkpt>
<trkpt lat="53.139003" lon="-3.921110"><ele>684</ele><time>2020-08-16T10:38:53Z</time><name>PT2600</name></trkpt>
<trkpt lat="53.138991" lon="-3.921163"><ele>684</ele><time>2020-08-16T10:38:56Z</time><name>PT2601</name></trkpt>
<trkpt lat="53.138980" lon="-3.921224"><ele>683</ele><time>2020-08-16T10:38:59Z</time><name>PT2602</name></trkpt>
<trkpt lat="53.138978" lon="-3.921271"><ele>684</ele><time>2020-08-16T10:39:03Z</time><name>PT2603</name></trkpt>
<trkpt lat="53.138969" lon="-3.921286"><ele>683</ele><time>2020-08-16T10:39:06Z</time><name>PT2604</name></trkpt>
<trkpt lat="53.138950" lon="-3.921347"><ele>683</ele><time>2020-08-16T10:39:11Z</time><name>PT2605</name></trkpt>
<trkpt lat="53.138949" lon="-3.921420"><ele>683</ele><time>2020-08-16T10:39:14Z</time><name>PT2606</name></trkpt>
<trkpt lat="53.138944" lon="-3.921488"><ele>683</ele><time>2020-08-16T10:39:18Z</time><name>PT2607</name></trkpt>
<trkpt lat="53.138937" lon="-3.921537"><ele>682</ele><time>2020-08-16T10:39:21Z</time><name>PT2608</name></trkpt>
<trkpt lat="53.138928" lon="-3.921588"><ele>682</ele><time>2020-08-16T10:39:24Z</time><name>PT2609</name></trkpt>
<trkpt lat="53.138898" lon="-3.921644"><ele>681</ele><time>2020-08-16T10:39:29Z</time><name>PT2610</name></trkpt>
<trkpt lat="53.138892" lon="-3.921659"><ele>681</ele><time>2020-08-16T10:39:32Z</time><name>PT2611</name></trkpt>
<trkpt lat="53.138887" lon="-3.921687"><ele>680</ele><time>2020-08-16T10:39:36Z</time><name>PT2612</name></trkpt>
<trkpt lat="53.138874" lon="-3.921721"><ele>679</ele><time>2020-08-16T10:39:39Z</time><name>PT2613</name></trkpt>
<trkpt lat="53.138857" lon="-3.921772"><ele>680</ele><time>2020-08-16T10:39:42Z</time><name>PT2614</name></trkpt>
<trkpt lat="53.138850" lon="-3.921814"><ele>680</ele><time>2020-08-16T10:39:45Z</time><name>PT2615</name></trkpt>
<trkpt lat="53.138847" lon="-3.921876"><ele>679</ele><time>2020-08-16T10:39:50Z</time><name>PT2616</name></trkpt>
<trkpt lat="53.138844" lon="-3.921888"><ele>679</ele><time>2020-08-16T10:39:53Z</time><name>PT2617</name></trkpt>
<trkpt lat="53.138843" lon="-3.921889"><ele>679</ele><time>2020-08-16T10:39:56Z</time><name>PT2618</name></trkpt>
<trkpt lat="53.138860" lon="-3.921941"><ele>677</ele><time>2020-08-16T10:40:00Z</time><name>PT2619</name></trkpt>
<trkpt lat="53.138857" lon="-3.921942"><ele>678</ele><time>2020-08-16T10:41:17Z</time><name>PT2620</name></trkpt>
<trkpt lat="53.138855" lon="-3.921944"><ele>677</ele><time>2020-08-16T10:41:18Z</time><name>PT2621</name></trkpt>
<trkpt lat="53.138854" lon="-3.921946"><ele>677</ele><time>2020-08-16T10:41:20Z</time><name>PT2622</name></trkpt>
<trkpt lat="53.138854" lon="-3.921947"><ele>677</ele><time>2020-08-16T10:41:20Z</time><name>PT2623</name></trkpt>
<trkpt lat="53.138854" lon="-3.921948"><ele>677</ele><time>2020-08-16T10:41:21Z</time><name>PT2624</name></trkpt>
<trkpt lat="53.138854" lon="-3.921947"><ele>677</ele><time>2020-08-16T10:41:23Z</time><name>PT2625</name></trkpt>
<trkpt lat="53.138855" lon="-3.921949"><ele>677</ele><time>2020-08-16T10:41:23Z</time><name>PT2626</name></trkpt>
<trkpt lat="53.138855" lon="-3.921949"><ele>676</ele><time>2020-08-16T10:41:24Z</time><name>PT2627</name></trkpt>
<trkpt lat="53.138854" lon="-3.921951"><ele>676</ele><time>2020-08-16T10:41:26Z</time><name>PT2628</name></trkpt>
<trkpt lat="53.138853" lon="-3.921952"><ele>676</ele><time>2020-08-16T10:41:26Z</time><name>PT2629</name></trkpt>
<trkpt lat="53.138851" lon="-3.921948"><ele>677</ele><time>2020-08-16T10:41:45Z</time><name>PT2630</name></trkpt>
<trkpt lat="53.138848" lon="-3.921952"><ele>676</ele><time>2020-08-16T10:41:47Z</time><name>PT2631</name></trkpt>
<trkpt lat="53.138846" lon="-3.921959"><ele>676</ele><time>2020-08-16T10:41:47Z</time><name>PT2632</name></trkpt>
<trkpt lat="53.138844" lon="-3.921965"><ele>676</ele><time>2020-08-16T10:41:53Z</time><name>PT2633</name></trkpt>
<trkpt lat="53.138840" lon="-3.921988"><ele>676</ele><time>2020-08-16T10:41:53Z</time><name>PT2634</name></trkpt>
<trkpt lat="53.138836" lon="-3.922011"><ele>676</ele><time>2020-08-16T10:41:54Z</time><name>PT2635</name></trkpt>
<trkpt lat="53.138833" lon="-3.922022"><ele>676</ele><time>2020-08-16T10:41:56Z</time><name>PT2636</name></trkpt>
<trkpt lat="53.138832" lon="-3.922032"><ele>675</ele><time>2020-08-16T10:41:56Z</time><name>PT2637</name></trkpt>
<trkpt lat="53.138830" lon="-3.922043"><ele>675</ele><time>2020-08-16T10:41:57Z</time><name>PT2638</name></trkpt>
<trkpt lat="53.138827" lon="-3.922052"><ele>675</ele><time>2020-08-16T10:41:59Z</time><name>PT2639</name></trkpt>
<trkpt lat="53.138823" lon="-3.922066"><ele>675</ele><time>2020-08-16T10:41:59Z</time><name>PT2640</name></trkpt>
<trkpt lat="53.138819" lon="-3.922082"><ele>675</ele><time>2020-08-16T10:42:00Z</time><name>PT2641</name></trkpt>
<trkpt lat="53.138811" lon="-3.922100"><ele>675</ele><time>2020-08-16T10:42:02Z</time><name>PT2642</name></trkpt>
<trkpt lat="53.138803" lon="-3.922122"><ele>675</ele><time>2020-08-16T10:42:02Z</time><name>PT2643</name></trkpt>
<trkpt lat="53.138795" lon="-3.922139"><ele>675</ele><time>2020-08-16T10:42:03Z</time><name>PT2644</name></trkpt>
<trkpt lat="53.138787" lon="-3.922157"><ele>676</ele><time>2020-08-16T10:42:05Z</time><name>PT2645</name></trkpt>
<trkpt lat="53.138782" lon="-3.922172"><ele>676</ele><time>2020-08-16T10:42:05Z</time><name>PT2646</name></trkpt>
<trkpt lat="53.138778" lon="-3.922187"><ele>676</ele><time>2020-08-16T10:42:06Z</time><name>PT2647</name></trkpt>
<trkpt lat="53.138779" lon="-3.922200"><ele>676</ele><time>2020-08-16T10:42:08Z</time><name>PT2648</name></trkpt>
<trkpt lat="53.138775" lon="-3.922214"><ele>676</ele><time>2020-08-16T10:42:08Z</time><name>PT2649</name></trkpt>
<trkpt lat="53.138775" lon="-3.922232"><ele>676</ele><time>2020-08-16T10:42:09Z</time><name>PT2650</name></trkpt>
<trkpt lat="53.138773" lon="-3.922250"><ele>676</ele><time>2020-08-16T10:42:11Z</time><name>PT2651</name></trkpt>
<trkpt lat="53.138769" lon="-3.922267"><ele>676</ele><time>2020-08-16T10:42:11Z</time><name>PT2652</name></trkpt>
<trkpt lat="53.138764" lon="-3.922283"><ele>676</ele><time>2020-08-16T10:42:12Z</time><name>PT2653</name></trkpt>
<trkpt lat="53.138758" lon="-3.922297"><ele>676</ele><time>2020-08-16T10:42:14Z</time><name>PT2654</name></trkpt>
<trkpt lat="53.138753" lon="-3.922313"><ele>676</ele><time>2020-08-16T10:42:14Z</time><name>PT2655</name></trkpt>
<trkpt lat="53.138745" lon="-3.922328"><ele>676</ele><time>2020-08-16T10:42:15Z</time><name>PT2656</name></trkpt>
<trkpt lat="53.138740" lon="-3.922341"><ele>676</ele><time>2020-08-16T10:42:17Z</time><name>PT2657</name></trkpt>
<trkpt lat="53.138737" lon="-3.922355"><ele>676</ele><time>2020-08-16T10:42:17Z</time><name>PT2658</name></trkpt>
<trkpt lat="53.138734" lon="-3.922370"><ele>676</ele><time>2020-08-16T10:42:18Z</time><name>PT2659</name></trkpt>
<trkpt lat="53.138731" lon="-3.922383"><ele>676</ele><time>2020-08-16T10:42:20Z</time><name>PT2660</name></trkpt>
<trkpt lat="53.138725" lon="-3.922389"><ele>676</ele><time>2020-08-16T10:42:20Z</time><name>PT2661</name></trkpt>
<trkpt lat="53.138720" lon="-3.922392"><ele>676</ele><time>2020-08-16T10:42:21Z</time><name>PT2662</name></trkpt>
<trkpt lat="53.138714" lon="-3.922406"><ele>676</ele><time>2020-08-16T10:42:23Z</time><name>PT2663</name></trkpt>
<trkpt lat="53.138705" lon="-3.922412"><ele>676</ele><time>2020-08-16T10:42:23Z</time><name>PT2664</name></trkpt>
<trkpt lat="53.138698" lon="-3.922415"><ele>676</ele><time>2020-08-16T10:42:24Z</time><name>PT2665</name></trkpt>
<trkpt lat="53.138691" lon="-3.922416"><ele>676</ele><time>2020-08-16T10:42:26Z</time><name>PT2666</name></trkpt>
<trkpt lat="53.138684" lon="-3.922417"><ele>676</ele><time>2020-08-16T10:42:26Z</time><name>PT2667</name></trkpt>
<trkpt lat="53.138676" lon="-3.922420"><ele>676</ele><time>2020-08-16T10:42:27Z</time><name>PT2668</name></trkpt>
<trkpt lat="53.138671" lon="-3.922429"><ele>675</ele><time>2020-08-16T10:42:29Z</time><name>PT2669</name></trkpt>
<trkpt lat="53.138663" lon="-3.922438"><ele>676</ele><time>2020-08-16T10:42:29Z</time><name>PT2670</name></trkpt>
<trkpt lat="53.138658" lon="-3.922445"><ele>676</ele><time>2020-08-16T10:42:30Z</time><name>PT2671</name></trkpt>
<trkpt lat="53.138652" lon="-3.922450"><ele>676</ele><time>2020-08-16T10:42:32Z</time><name>PT2672</name></trkpt>
<trkpt lat="53.138648" lon="-3.922457"><ele>676</ele><time>2020-08-16T10:42:32Z</time><name>PT2673</name></trkpt>
<trkpt lat="53.138645" lon="-3.922464"><ele>676</ele><time>2020-08-16T10:42:33Z</time><name>PT2674</name></trkpt>
<trkpt lat="53.138643" lon="-3.922467"><ele>676</ele><time>2020-08-16T10:42:35Z</time><name>PT2675</name></trkpt>
<trkpt lat="53.138641" lon="-3.922470"><ele>676</ele><time>2020-08-16T10:42:35Z</time><name>PT2676</name></trkpt>
<trkpt lat="53.138644" lon="-3.922468"><ele>676</ele><time>2020-08-16T10:42:38Z</time><name>PT2677</name></trkpt>
<trkpt lat="53.138642" lon="-3.922475"><ele>676</ele><time>2020-08-16T10:42:39Z</time><name>PT2678</name></trkpt>
<trkpt lat="53.138640" lon="-3.922472"><ele>676</ele><time>2020-08-16T10:42:41Z</time><name>PT2679</name></trkpt>
<trkpt lat="53.138637" lon="-3.922470"><ele>675</ele><time>2020-08-16T10:42:41Z</time><name>PT2680</name></trkpt>
<trkpt lat="53.138631" lon="-3.922489"><ele>676</ele><time>2020-08-16T10:42:56Z</time><name>PT2681</name></trkpt>
<trkpt lat="53.138634" lon="-3.922507"><ele>676</ele><time>2020-08-16T10:42:57Z</time><name>PT2682</name></trkpt>
<trkpt lat="53.138632" lon="-3.922515"><ele>676</ele><time>2020-08-16T10:42:59Z</time><name>PT2683</name></trkpt>
<trkpt lat="53.138634" lon="-3.922518"><ele>676</ele><time>2020-08-16T10:42:59Z</time><name>PT2684</name></trkpt>
<trkpt lat="53.138632" lon="-3.922519"><ele>676</ele><time>2020-08-16T10:43:51Z</time><name>PT2685</name></trkpt>
<trkpt lat="53.138632" lon="-3.922519"><ele>676</ele><time>2020-08-16T10:43:53Z</time><name>PT2686</name></trkpt>
<trkpt lat="53.138631" lon="-3.922518"><ele>676</ele><time>2020-08-16T10:43:53Z</time><name>PT2687</name></trkpt>
<trkpt lat="53.138630" lon="-3.922516"><ele>676</ele><time>2020-08-16T10:43:54Z</time><name>PT2688</name></trkpt>
<trkpt lat="53.138631" lon="-3.922508"><ele>676</ele><time>2020-08-16T10:43:57Z</time><name>PT2689</name></trkpt>
<trkpt lat="53.138631" lon="-3.922507"><ele>676</ele><time>2020-08-16T10:43:59Z</time><name>PT2690</name></trkpt>
<trkpt lat="53.138635" lon="-3.922507"><ele>676</ele><time>2020-08-16T10:43:59Z</time><name>PT2691</name></trkpt>
<trkpt lat="53.138638" lon="-3.922508"><ele>676</ele><time>2020-08-16T10:44:00Z</time><name>PT2692</name></trkpt>
<trkpt lat="53.138638" lon="-3.922510"><ele>676</ele><time>2020-08-16T10:44:02Z</time><name>PT2693</name></trkpt>
<trkpt lat="53.138640" lon="-3.922512"><ele>676</ele><time>2020-08-16T10:44:02Z</time><name>PT2694</name></trkpt>
<trkpt lat="53.138641" lon="-3.922511"><ele>676</ele><time>2020-08-16T10:44:03Z</time><name>PT2695</name></trkpt>
<trkpt lat="53.138642" lon="-3.922512"><ele>676</ele><time>2020-08-16T10:44:05Z</time><name>PT2696</name></trkpt>
<trkpt lat="53.138640" lon="-3.922516"><ele>676</ele><time>2020-08-16T10:44:11Z</time><name>PT2697</name></trkpt>
<trkpt lat="53.138640" lon="-3.922517"><ele>676</ele><time>2020-08-16T10:44:11Z</time><name>PT2698</name></trkpt>
<trkpt lat="53.138638" lon="-3.922510"><ele>676</ele><time>2020-08-16T10:44:12Z</time><name>PT2699</name></trkpt>
<trkpt lat="53.138637" lon="-3.922507"><ele>677</ele><time>2020-08-16T10:44:14Z</time><name>PT2700</name></trkpt>
<trkpt lat="53.138636" lon="-3.922506"><ele>677</ele><time>2020-08-16T10:44:14Z</time><name>PT2701</name></trkpt>
<trkpt lat="53.138636" lon="-3.922504"><ele>676</ele><time>2020-08-16T10:44:15Z</time><name>PT2702</name></trkpt>
<trkpt lat="53.138636" lon="-3.922502"><ele>676</ele><time>2020-08-16T10:44:17Z</time><name>PT2703</name></trkpt>
<trkpt lat="53.138639" lon="-3.922498"><ele>676</ele><time>2020-08-16T10:44:32Z</time><name>PT2704</name></trkpt>
<trkpt lat="53.138640" lon="-3.922495"><ele>676</ele><time>2020-08-16T10:44:32Z</time><name>PT2705</name></trkpt>
<trkpt lat="53.138639" lon="-3.922494"><ele>676</ele><time>2020-08-16T10:45:02Z</time><name>PT2706</name></trkpt>
<trkpt lat="53.138639" lon="-3.922494"><ele>676</ele><time>2020-08-16T10:45:02Z</time><name>PT2707</name></trkpt>
<trkpt lat="53.138640" lon="-3.922493"><ele>676</ele><time>2020-08-16T10:45:32Z</time><name>PT2708</name></trkpt>
<trkpt lat="53.138640" lon="-3.922497"><ele>676</ele><time>2020-08-16T10:45:32Z</time><name>PT2709</name></trkpt>
<trkpt lat="53.138641" lon="-3.922497"><ele>676</ele><time>2020-08-16T10:45:33Z</time><name>PT2710</name></trkpt>
<trkpt lat="53.138644" lon="-3.922498"><ele>676</ele><time>2020-08-16T10:45:35Z</time><name>PT2711</name></trkpt>
<trkpt lat="53.138644" lon="-3.922496"><ele>676</ele><time>2020-08-16T10:45:50Z</time><name>PT2712</name></trkpt>
<trkpt lat="53.138642" lon="-3.922498"><ele>676</ele><time>2020-08-16T10:45:51Z</time><name>PT2713</name></trkpt>
<trkpt lat="53.138640" lon="-3.922500"><ele>676</ele><time>2020-08-16T10:45:51Z</time><name>PT2714</name></trkpt>
<trkpt lat="53.138640" lon="-3.922501"><ele>676</ele><time>2020-08-16T10:45:53Z</time><name>PT2715</name></trkpt>
<trkpt lat="53.138638" lon="-3.922500"><ele>676</ele><time>2020-08-16T10:45:53Z</time><name>PT2716</name></trkpt>
<trkpt lat="53.138638" lon="-3.922499"><ele>676</ele><time>2020-08-16T10:45:55Z</time><name>PT2717</name></trkpt>
<trkpt lat="53.138638" lon="-3.922497"><ele>676</ele><time>2020-08-16T10:46:12Z</time><name>PT2718</name></trkpt>
<trkpt lat="53.138639" lon="-3.922493"><ele>676</ele><time>2020-08-16T10:46:14Z</time><name>PT2719</name></trkpt>
<trkpt lat="53.138640" lon="-3.922492"><ele>676</ele><time>2020-08-16T10:46:14Z</time><name>PT2720</name></trkpt>
<trkpt lat="53.138638" lon="-3.922489"><ele>676</ele><time>2020-08-16T10:46:29Z</time><name>PT2721</name></trkpt>
<trkpt lat="53.138635" lon="-3.922488"><ele>676</ele><time>2020-08-16T10:46:29Z</time><name>PT2722</name></trkpt>
<trkpt lat="53.138632" lon="-3.922485"><ele>676</ele><time>2020-08-16T10:46:30Z</time><name>PT2723</name></trkpt>
<trkpt lat="53.138633" lon="-3.922487"><ele>676</ele><time>2020-08-16T10:46:32Z</time><name>PT2724</name></trkpt>
<trkpt lat="53.138630" lon="-3.922480"><ele>675</ele><time>2020-08-16T10:46:36Z</time><name>PT2725</name></trkpt>
<trkpt lat="53.138625" lon="-3.922485"><ele>675</ele><time>2020-08-16T10:46:42Z</time><name>PT2726</name></trkpt>
<trkpt lat="53.138619" lon="-3.922493"><ele>675</ele><time>2020-08-16T10:46:47Z</time><name>PT2727</name></trkpt>
<trkpt lat="53.138621" lon="-3.922487"><ele>675</ele><time>2020-08-16T10:47:14Z</time><name>PT2728</name></trkpt>
<trkpt lat="53.138622" lon="-3.922480"><ele>675</ele><time>2020-08-16T10:47:24Z</time><name>PT2729</name></trkpt>
<trkpt lat="53.138621" lon="-3.922478"><ele>674</ele><time>2020-08-16T10:47:27Z</time><name>PT2730</name></trkpt>
<trkpt lat="53.138625" lon="-3.922485"><ele>674</ele><time>2020-08-16T10:47:30Z</time><name>PT2731</name></trkpt>
<trkpt lat="53.138628" lon="-3.922491"><ele>674</ele><time>2020-08-16T10:47:38Z</time><name>PT2732</name></trkpt>
<trkpt lat="53.138632" lon="-3.922486"><ele>674</ele><time>2020-08-16T10:47:42Z</time><name>PT2733</name></trkpt>
<trkpt lat="53.138625" lon="-3.922500"><ele>674</ele><time>2020-08-16T10:47:56Z</time><name>PT2734</name></trkpt>
<trkpt lat="53.138619" lon="-3.922480"><ele>674</ele><time>2020-08-16T10:47:59Z</time><name>PT2735</name></trkpt>
<trkpt lat="53.138621" lon="-3.922477"><ele>674</ele><time>2020-08-16T10:48:00Z</time><name>PT2736</name></trkpt>
<trkpt lat="53.138623" lon="-3.922479"><ele>675</ele><time>2020-08-16T10:48:02Z</time><name>PT2737</name></trkpt>
<trkpt lat="53.138620" lon="-3.922478"><ele>675</ele><time>2020-08-16T10:48:59Z</time><name>PT2738</name></trkpt>
<trkpt lat="53.138622" lon="-3.922485"><ele>674</ele><time>2020-08-16T10:48:59Z</time><name>PT2739</name></trkpt>
<trkpt lat="53.138621" lon="-3.922487"><ele>674</ele><time>2020-08-16T10:49:00Z</time><name>PT2740</name></trkpt>
<trkpt lat="53.138623" lon="-3.922487"><ele>674</ele><time>2020-08-16T10:49:02Z</time><name>PT2741</name></trkpt>
<trkpt lat="53.138623" lon="-3.922494"><ele>675</ele><time>2020-08-16T10:49:02Z</time><name>PT2742</name></trkpt>
<trkpt lat="53.138622" lon="-3.922500"><ele>675</ele><time>2020-08-16T10:49:03Z</time><name>PT2743</name></trkpt>
<trkpt lat="53.138622" lon="-3.922498"><ele>675</ele><time>2020-08-16T10:49:23Z</time><name>PT2744</name></trkpt>
<trkpt lat="53.138622" lon="-3.922503"><ele>675</ele><time>2020-08-16T10:49:24Z</time><name>PT2745</name></trkpt>
<trkpt lat="53.138624" lon="-3.922506"><ele>675</ele><time>2020-08-16T10:49:38Z</time><name>PT2746</name></trkpt>
<trkpt lat="53.138623" lon="-3.922509"><ele>675</ele><time>2020-08-16T10:49:39Z</time><name>PT2747</name></trkpt>
<trkpt lat="53.138623" lon="-3.922509"><ele>675</ele><time>2020-08-16T10:49:41Z</time><name>PT2748</name></trkpt>
<trkpt lat="53.138627" lon="-3.922510"><ele>675</ele><time>2020-08-16T10:49:53Z</time><name>PT2749</name></trkpt>
<trkpt lat="53.138628" lon="-3.922511"><ele>675</ele><time>2020-08-16T10:49:53Z</time><name>PT2750</name></trkpt>
<trkpt lat="53.138628" lon="-3.922511"><ele>675</ele><time>2020-08-16T10:50:11Z</time><name>PT2751</name></trkpt>
<trkpt lat="53.138627" lon="-3.922512"><ele>675</ele><time>2020-08-16T10:50:12Z</time><name>PT2752</name></trkpt>
<trkpt lat="53.138627" lon="-3.922513"><ele>675</ele><time>2020-08-16T10:50:14Z</time><name>PT2753</name></trkpt>
<trkpt lat="53.138630" lon="-3.922513"><ele>675</ele><time>2020-08-16T10:50:26Z</time><name>PT2754</name></trkpt>
<trkpt lat="53.138626" lon="-3.922518"><ele>675</ele><time>2020-08-16T10:50:26Z</time><name>PT2755</name></trkpt>
<trkpt lat="53.138628" lon="-3.922511"><ele>675</ele><time>2020-08-16T10:50:27Z</time><name>PT2756</name></trkpt>
<trkpt lat="53.138626" lon="-3.922513"><ele>675</ele><time>2020-08-16T10:50:29Z</time><name>PT2757</name></trkpt>
<trkpt lat="53.138626" lon="-3.922511"><ele>675</ele><time>2020-08-16T10:50:29Z</time><name>PT2758</name></trkpt>
<trkpt lat="53.138627" lon="-3.922514"><ele>675</ele><time>2020-08-16T10:50:35Z</time><name>PT2759</name></trkpt>
<trkpt lat="53.138627" lon="-3.922515"><ele>675</ele><time>2020-08-16T10:50:35Z</time><name>PT2760</name></trkpt>
<trkpt lat="53.138627" lon="-3.922514"><ele>675</ele><time>2020-08-16T10:50:36Z</time><name>PT2761</name></trkpt>
<trkpt lat="53.138628" lon="-3.922514"><ele>675</ele><time>2020-08-16T10:50:39Z</time><name>PT2762</name></trkpt>
<trkpt lat="53.138627" lon="-3.922514"><ele>675</ele><time>2020-08-16T10:50:41Z</time><name>PT2763</name></trkpt>
<trkpt lat="53.138627" lon="-3.922513"><ele>675</ele><time>2020-08-16T10:50:41Z</time><name>PT2764</name></trkpt>
<trkpt lat="53.138626" lon="-3.922507"><ele>674</ele><time>2020-08-16T10:50:42Z</time><name>PT2765</name></trkpt>
<trkpt lat="53.138626" lon="-3.922505"><ele>674</ele><time>2020-08-16T10:50:44Z</time><name>PT2766</name></trkpt>
<trkpt lat="53.138628" lon="-3.922507"><ele>674</ele><time>2020-08-16T10:51:20Z</time><name>PT2767</name></trkpt>
<trkpt lat="53.138628" lon="-3.922507"><ele>674</ele><time>2020-08-16T10:51:20Z</time><name>PT2768</name></trkpt>
<trkpt lat="53.138627" lon="-3.922515"><ele>674</ele><time>2020-08-16T10:51:21Z</time><name>PT2769</name></trkpt>
<trkpt lat="53.138626" lon="-3.922515"><ele>674</ele><time>2020-08-16T10:51:50Z</time><name>PT2770</name></trkpt>
<trkpt lat="53.138625" lon="-3.922512"><ele>674</ele><time>2020-08-16T10:51:51Z</time><name>PT2771</name></trkpt>
<trkpt lat="53.138624" lon="-3.922510"><ele>674</ele><time>2020-08-16T10:51:53Z</time><name>PT2772</name></trkpt>
<trkpt lat="53.138626" lon="-3.922505"><ele>675</ele><time>2020-08-16T10:51:59Z</time><name>PT2773</name></trkpt>
<trkpt lat="53.138624" lon="-3.922504"><ele>675</ele><time>2020-08-16T10:52:00Z</time><name>PT2774</name></trkpt>
<trkpt lat="53.138622" lon="-3.922510"><ele>675</ele><time>2020-08-16T10:52:02Z</time><name>PT2775</name></trkpt>
<trkpt lat="53.138624" lon="-3.922508"><ele>675</ele><time>2020-08-16T10:52:24Z</time><name>PT2776</name></trkpt>
<trkpt lat="53.138625" lon="-3.922512"><ele>675</ele><time>2020-08-16T10:52:26Z</time><name>PT2777</name></trkpt>
<trkpt lat="53.138625" lon="-3.922517"><ele>675</ele><time>2020-08-16T10:52:26Z</time><name>PT2778</name></trkpt>
<trkpt lat="53.138624" lon="-3.922518"><ele>675</ele><time>2020-08-16T10:52:27Z</time><name>PT2779</name></trkpt>
<trkpt lat="53.138630" lon="-3.922515"><ele>676</ele><time>2020-08-16T10:52:29Z</time><name>PT2780</name></trkpt>
<trkpt lat="53.138634" lon="-3.922516"><ele>676</ele><time>2020-08-16T10:52:29Z</time><name>PT2781</name></trkpt>
<trkpt lat="53.138636" lon="-3.922516"><ele>677</ele><time>2020-08-16T10:52:30Z</time><name>PT2782</name></trkpt>
<trkpt lat="53.138638" lon="-3.922517"><ele>677</ele><time>2020-08-16T10:52:32Z</time><name>PT2783</name></trkpt>
<trkpt lat="53.138638" lon="-3.922516"><ele>677</ele><time>2020-08-16T10:52:32Z</time><name>PT2784</name></trkpt>
<trkpt lat="53.138637" lon="-3.922516"><ele>677</ele><time>2020-08-16T10:52:33Z</time><name>PT2785</name></trkpt>
<trkpt lat="53.138634" lon="-3.922519"><ele>677</ele><time>2020-08-16T10:52:35Z</time><name>PT2786</name></trkpt>
<trkpt lat="53.138635" lon="-3.922518"><ele>677</ele><time>2020-08-16T10:52:36Z</time><name>PT2787</name></trkpt>
<trkpt lat="53.138636" lon="-3.922515"><ele>677</ele><time>2020-08-16T10:52:38Z</time><name>PT2788</name></trkpt>
<trkpt lat="53.138635" lon="-3.922517"><ele>676</ele><time>2020-08-16T10:52:59Z</time><name>PT2789</name></trkpt>
<trkpt lat="53.138636" lon="-3.922511"><ele>676</ele><time>2020-08-16T10:52:59Z</time><name>PT2790</name></trkpt>
<trkpt lat="53.138637" lon="-3.922506"><ele>676</ele><time>2020-08-16T10:53:00Z</time><name>PT2791</name></trkpt>
<trkpt lat="53.138637" lon="-3.922508"><ele>676</ele><time>2020-08-16T10:53:02Z</time><name>PT2792</name></trkpt>
<trkpt lat="53.138637" lon="-3.922509"><ele>676</ele><time>2020-08-16T10:53:02Z</time><name>PT2793</name></trkpt>
<trkpt lat="53.138638" lon="-3.922506"><ele>676</ele><time>2020-08-16T10:53:03Z</time><name>PT2794</name></trkpt>
<trkpt lat="53.138645" lon="-3.922511"><ele>677</ele><time>2020-08-16T10:53:17Z</time><name>PT2795</name></trkpt>
<trkpt lat="53.138647" lon="-3.922515"><ele>677</ele><time>2020-08-16T10:53:18Z</time><name>PT2796</name></trkpt>
<trkpt lat="53.138661" lon="-3.922514"><ele>677</ele><time>2020-08-16T10:53:20Z</time><name>PT2797</name></trkpt>
<trkpt lat="53.138667" lon="-3.922522"><ele>677</ele><time>2020-08-16T10:53:20Z</time><name>PT2798</name></trkpt>
<trkpt lat="53.138671" lon="-3.922523"><ele>677</ele><time>2020-08-16T10:53:21Z</time><name>PT2799</name></trkpt>
<trkpt lat="53.138670" lon="-3.922522"><ele>677</ele><time>2020-08-16T10:53:23Z</time><name>PT2800</name></trkpt>
<trkpt lat="53.138670" lon="-3.922525"><ele>677</ele><time>2020-08-16T10:53:23Z</time><name>PT2801</name></trkpt>
<trkpt lat="53.138670" lon="-3.922519"><ele>677</ele><time>2020-08-16T10:53:24Z</time><name>PT2802</name></trkpt>
<trkpt lat="53.138669" lon="-3.922518"><ele>677</ele><time>2020-08-16T10:53:26Z</time><name>PT2803</name></trkpt>
<trkpt lat="53.138669" lon="-3.922519"><ele>677</ele><time>2020-08-16T10:53:26Z</time><name>PT2804</name></trkpt>
<trkpt lat="53.138669" lon="-3.922516"><ele>677</ele><time>2020-08-16T10:53:27Z</time><name>PT2805</name></trkpt>
<trkpt lat="53.138667" lon="-3.922503"><ele>677</ele><time>2020-08-16T10:53:41Z</time><name>PT2806</name></trkpt>
<trkpt lat="53.138670" lon="-3.922504"><ele>677</ele><time>2020-08-16T10:53:42Z</time><name>PT2807</name></trkpt>
<trkpt lat="53.138675" lon="-3.922508"><ele>677</ele><time>2020-08-16T10:53:44Z</time><name>PT2808</name></trkpt>
<trkpt lat="53.138683" lon="-3.922514"><ele>677</ele><time>2020-08-16T10:53:44Z</time><name>PT2809</name></trkpt>
<trkpt lat="53.138692" lon="-3.922520"><ele>678</ele><time>2020-08-16T10:53:45Z</time><name>PT2810</name></trkpt>
<trkpt lat="53.138697" lon="-3.922526"><ele>678</ele><time>2020-08-16T10:53:47Z</time><name>PT2811</name></trkpt>
<trkpt lat="53.138702" lon="-3.922531"><ele>678</ele><time>2020-08-16T10:53:47Z</time><name>PT2812</name></trkpt>
<trkpt lat="53.138708" lon="-3.922543"><ele>678</ele><time>2020-08-16T10:53:48Z</time><name>PT2813</name></trkpt>
<trkpt lat="53.138713" lon="-3.922552"><ele>678</ele><time>2020-08-16T10:53:50Z</time><name>PT2814</name></trkpt>
<trkpt lat="53.138714" lon="-3.922563"><ele>678</ele><time>2020-08-16T10:53:50Z</time><name>PT2815</name></trkpt>
<trkpt lat="53.138716" lon="-3.922570"><ele>678</ele><time>2020-08-16T10:53:51Z</time><name>PT2816</name></trkpt>
<trkpt lat="53.138721" lon="-3.922575"><ele>678</ele><time>2020-08-16T10:53:53Z</time><name>PT2817</name></trkpt>
<trkpt lat="53.138724" lon="-3.922584"><ele>678</ele><time>2020-08-16T10:53:53Z</time><name>PT2818</name></trkpt>
<trkpt lat="53.138729" lon="-3.922595"><ele>678</ele><time>2020-08-16T10:53:54Z</time><name>PT2819</name></trkpt>
<trkpt lat="53.138732" lon="-3.922611"><ele>679</ele><time>2020-08-16T10:53:56Z</time><name>PT2820</name></trkpt>
<trkpt lat="53.138737" lon="-3.922622"><ele>678</ele><time>2020-08-16T10:53:56Z</time><name>PT2821</name></trkpt>
<trkpt lat="53.138737" lon="-3.922630"><ele>678</ele><time>2020-08-16T10:53:57Z</time><name>PT2822</name></trkpt>
<trkpt lat="53.138738" lon="-3.922639"><ele>678</ele><time>2020-08-16T10:53:59Z</time><name>PT2823</name></trkpt>
<trkpt lat="53.138741" lon="-3.922649"><ele>678</ele><time>2020-08-16T10:53:59Z</time><name>PT2824</name></trkpt>
<trkpt lat="53.138746" lon="-3.922653"><ele>678</ele><time>2020-08-16T10:54:00Z</time><name>PT2825</name></trkpt>
<trkpt lat="53.138751" lon="-3.922661"><ele>677</ele><time>2020-08-16T10:54:02Z</time><name>PT2826</name></trkpt>
<trkpt lat="53.138756" lon="-3.922668"><ele>677</ele><time>2020-08-16T10:54:02Z</time><name>PT2827</name></trkpt>
<trkpt lat="53.138761" lon="-3.922680"><ele>677</ele><time>2020-08-16T10:54:03Z</time><name>PT2828</name></trkpt>
<trkpt lat="53.138769" lon="-3.922693"><ele>677</ele><time>2020-08-16T10:54:05Z</time><name>PT2829</name></trkpt>
<trkpt lat="53.138781" lon="-3.922714"><ele>676</ele><time>2020-08-16T10:54:05Z</time><name>PT2830</name></trkpt>
<trkpt lat="53.138784" lon="-3.922726"><ele>676</ele><time>2020-08-16T10:54:06Z</time><name>PT2831</name></trkpt>
<trkpt lat="53.138787" lon="-3.922739"><ele>677</ele><time>2020-08-16T10:54:08Z</time><name>PT2832</name></trkpt>
<trkpt lat="53.138794" lon="-3.922751"><ele>677</ele><time>2020-08-16T10:54:08Z</time><name>PT2833</name></trkpt>
<trkpt lat="53.138800" lon="-3.922759"><ele>677</ele><time>2020-08-16T10:54:09Z</time><name>PT2834</name></trkpt>
<trkpt lat="53.138807" lon="-3.922769"><ele>677</ele><time>2020-08-16T10:54:11Z</time><name>PT2835</name></trkpt>
<trkpt lat="53.138810" lon="-3.922777"><ele>678</ele><time>2020-08-16T10:54:11Z</time><name>PT2836</name></trkpt>
<trkpt lat="53.138815" lon="-3.922785"><ele>678</ele><time>2020-08-16T10:54:12Z</time><name>PT2837</name></trkpt>
<trkpt lat="53.138820" lon="-3.922795"><ele>678</ele><time>2020-08-16T10:54:14Z</time><name>PT2838</name></trkpt>
<trkpt lat="53.138826" lon="-3.922805"><ele>678</ele><time>2020-08-16T10:54:14Z</time><name>PT2839</name></trkpt>
<trkpt lat="53.138832" lon="-3.922816"><ele>677</ele><time>2020-08-16T10:54:15Z</time><name>PT2840</name></trkpt>
<trkpt lat="53.138836" lon="-3.922828"><ele>677</ele><time>2020-08-16T10:54:17Z</time><name>PT2841</name></trkpt>
<trkpt lat="53.138839" lon="-3.922838"><ele>677</ele><time>2020-08-16T10:54:17Z</time><name>PT2842</name></trkpt>
<trkpt lat="53.138843" lon="-3.922851"><ele>677</ele><time>2020-08-16T10:54:18Z</time><name>PT2843</name></trkpt>
<trkpt lat="53.138849" lon="-3.922866"><ele>677</ele><time>2020-08-16T10:54:20Z</time><name>PT2844</name></trkpt>
<trkpt lat="53.138853" lon="-3.922880"><ele>677</ele><time>2020-08-16T10:54:20Z</time><name>PT2845</name></trkpt>
<trkpt lat="53.138856" lon="-3.922894"><ele>677</ele><time>2020-08-16T10:54:21Z</time><name>PT2846</name></trkpt>
<trkpt lat="53.138859" lon="-3.922906"><ele>677</ele><time>2020-08-16T10:54:23Z</time><name>PT2847</name></trkpt>
<trkpt lat="53.138862" lon="-3.922912"><ele>677</ele><time>2020-08-16T10:54:23Z</time><name>PT2848</name></trkpt>
<trkpt lat="53.138867" lon="-3.922922"><ele>677</ele><time>2020-08-16T10:54:24Z</time><name>PT2849</name></trkpt>
<trkpt lat="53.138871" lon="-3.922935"><ele>677</ele><time>2020-08-16T10:54:26Z</time><name>PT2850</name></trkpt>
<trkpt lat="53.138874" lon="-3.922949"><ele>677</ele><time>2020-08-16T10:54:26Z</time><name>PT2851</name></trkpt>
<trkpt lat="53.138875" lon="-3.922965"><ele>677</ele><time>2020-08-16T10:54:27Z</time><name>PT2852</name></trkpt>
<trkpt lat="53.138878" lon="-3.922980"><ele>676</ele><time>2020-08-16T10:54:29Z</time><name>PT2853</name></trkpt>
<trkpt lat="53.138877" lon="-3.922994"><ele>676</ele><time>2020-08-16T10:54:29Z</time><name>PT2854</name></trkpt>
<trkpt lat="53.138879" lon="-3.922995"><ele>676</ele><time>2020-08-16T10:54:30Z</time><name>PT2855</name></trkpt>
<trkpt lat="53.138878" lon="-3.922998"><ele>676</ele><time>2020-08-16T10:54:32Z</time><name>PT2856</name></trkpt>
<trkpt lat="53.138879" lon="-3.922999"><ele>676</ele><time>2020-08-16T10:54:32Z</time><name>PT2857</name></trkpt>
<trkpt lat="53.138879" lon="-3.923001"><ele>676</ele><time>2020-08-16T10:54:33Z</time><name>PT2858</name></trkpt>
<trkpt lat="53.138877" lon="-3.923005"><ele>676</ele><time>2020-08-16T10:54:35Z</time><name>PT2859</name></trkpt>
<trkpt lat="53.138875" lon="-3.923011"><ele>676</ele><time>2020-08-16T10:54:36Z</time><name>PT2860</name></trkpt>
<trkpt lat="53.138878" lon="-3.923029"><ele>676</ele><time>2020-08-16T10:54:38Z</time><name>PT2861</name></trkpt>
<trkpt lat="53.138878" lon="-3.923042"><ele>676</ele><time>2020-08-16T10:54:38Z</time><name>PT2862</name></trkpt>
<trkpt lat="53.138880" lon="-3.923055"><ele>676</ele><time>2020-08-16T10:54:39Z</time><name>PT2863</name></trkpt>
<trkpt lat="53.138883" lon="-3.923068"><ele>675</ele><time>2020-08-16T10:54:41Z</time><name>PT2864</name></trkpt>
<trkpt lat="53.138889" lon="-3.923082"><ele>675</ele><time>2020-08-16T10:54:41Z</time><name>PT2865</name></trkpt>
<trkpt lat="53.138893" lon="-3.923098"><ele>675</ele><time>2020-08-16T10:54:42Z</time><name>PT2866</name></trkpt>
<trkpt lat="53.138897" lon="-3.923110"><ele>675</ele><time>2020-08-16T10:54:44Z</time><name>PT2867</name></trkpt>
<trkpt lat="53.138901" lon="-3.923122"><ele>675</ele><time>2020-08-16T10:54:44Z</time><name>PT2868</name></trkpt>
<trkpt lat="53.138906" lon="-3.923138"><ele>675</ele><time>2020-08-16T10:54:45Z</time><name>PT2869</name></trkpt>
<trkpt lat="53.138912" lon="-3.923154"><ele>675</ele><time>2020-08-16T10:54:47Z</time><name>PT2870</name></trkpt>
<trkpt lat="53.138917" lon="-3.923168"><ele>675</ele><time>2020-08-16T10:54:47Z</time><name>PT2871</name></trkpt>
<trkpt lat="53.138919" lon="-3.923183"><ele>675</ele><time>2020-08-16T10:54:48Z</time><name>PT2872</name></trkpt>
<trkpt lat="53.138922" lon="-3.923194"><ele>675</ele><time>2020-08-16T10:54:50Z</time><name>PT2873</name></trkpt>
<trkpt lat="53.138926" lon="-3.923206"><ele>675</ele><time>2020-08-16T10:54:50Z</time><name>PT2874</name></trkpt>
<trkpt lat="53.138930" lon="-3.923221"><ele>675</ele><time>2020-08-16T10:54:51Z</time><name>PT2875</name></trkpt>
<trkpt lat="53.138933" lon="-3.923236"><ele>675</ele><time>2020-08-16T10:54:53Z</time><name>PT2876</name></trkpt>
<trkpt lat="53.138937" lon="-3.923248"><ele>675</ele><time>2020-08-16T10:54:53Z</time><name>PT2877</name></trkpt>
<trkpt lat="53.138941" lon="-3.923262"><ele>675</ele><time>2020-08-16T10:54:54Z</time><name>PT2878</name></trkpt>
<trkpt lat="53.138944" lon="-3.923272"><ele>675</ele><time>2020-08-16T10:54:56Z</time><name>PT2879</name></trkpt>
<trkpt lat="53.138949" lon="-3.923281"><ele>675</ele><time>2020-08-16T10:54:56Z</time><name>PT2880</name></trkpt>
<trkpt lat="53.138954" lon="-3.923288"><ele>675</ele><time>2020-08-16T10:54:57Z</time><name>PT2881</name></trkpt>
<trkpt lat="53.138958" lon="-3.923295"><ele>676</ele><time>2020-08-16T10:54:59Z</time><name>PT2882</name></trkpt>
<trkpt lat="53.138957" lon="-3.923303"><ele>676</ele><time>2020-08-16T10:54:59Z</time><name>PT2883</name></trkpt>
<trkpt lat="53.138958" lon="-3.923307"><ele>676</ele><time>2020-08-16T10:55:00Z</time><name>PT2884</name></trkpt>
<trkpt lat="53.138959" lon="-3.923309"><ele>676</ele><time>2020-08-16T10:55:02Z</time><name>PT2885</name></trkpt>
<trkpt lat="53.138961" lon="-3.923313"><ele>676</ele><time>2020-08-16T10:55:02Z</time><name>PT2886</name></trkpt>
<trkpt lat="53.138965" lon="-3.923321"><ele>675</ele><time>2020-08-16T10:55:03Z</time><name>PT2887</name></trkpt>
<trkpt lat="53.138967" lon="-3.923333"><ele>675</ele><time>2020-08-16T10:55:05Z</time><name>PT2888</name></trkpt>
<trkpt lat="53.138969" lon="-3.923346"><ele>675</ele><time>2020-08-16T10:55:05Z</time><name>PT2889</name></trkpt>
<trkpt lat="53.138973" lon="-3.923364"><ele>676</ele><time>2020-08-16T10:55:06Z</time><name>PT2890</name></trkpt>
<trkpt lat="53.138976" lon="-3.923382"><ele>676</ele><time>2020-08-16T10:55:08Z</time><name>PT2891</name></trkpt>
<trkpt lat="53.138981" lon="-3.923393"><ele>676</ele><time>2020-08-16T10:55:08Z</time><name>PT2892</name></trkpt>
<trkpt lat="53.138983" lon="-3.923403"><ele>676</ele><time>2020-08-16T10:55:09Z</time><name>PT2893</name></trkpt>
<trkpt lat="53.138986" lon="-3.923416"><ele>676</ele><time>2020-08-16T10:55:11Z</time><name>PT2894</name></trkpt>
<trkpt lat="53.138991" lon="-3.923429"><ele>676</ele><time>2020-08-16T10:55:11Z</time><name>PT2895</name></trkpt>
<trkpt lat="53.138995" lon="-3.923443"><ele>676</ele><time>2020-08-16T10:55:12Z</time><name>PT2896</name></trkpt>
<trkpt lat="53.138996" lon="-3.923457"><ele>676</ele><time>2020-08-16T10:55:14Z</time><name>PT2897</name></trkpt>
<trkpt lat="53.138997" lon="-3.923470"><ele>676</ele><time>2020-08-16T10:55:14Z</time><name>PT2898</name></trkpt>
<trkpt lat="53.138997" lon="-3.923485"><ele>676</ele><time>2020-08-16T10:55:15Z</time><name>PT2899</name></trkpt>
<trkpt lat="53.138999" lon="-3.923497"><ele>676</ele><time>2020-08-16T10:55:17Z</time><name>PT2900</name></trkpt>
<trkpt lat="53.139005" lon="-3.923505"><ele>676</ele><time>2020-08-16T10:55:17Z</time><name>PT2901</name></trkpt>
<trkpt lat="53.139012" lon="-3.923513"><ele>676</ele><time>2020-08-16T10:55:18Z</time><name>PT2902</name></trkpt>
<trkpt lat="53.139017" lon="-3.923523"><ele>676</ele><time>2020-08-16T10:55:20Z</time><name>PT2903</name></trkpt>
<trkpt lat="53.139035" lon="-3.923546"><ele>677</ele><time>2020-08-16T10:55:23Z</time><name>PT2904</name></trkpt>
<trkpt lat="53.139049" lon="-3.923570"><ele>678</ele><time>2020-08-16T10:55:26Z</time><name>PT2905</name></trkpt>
<trkpt lat="53.139055" lon="-3.923576"><ele>678</ele><time>2020-08-16T10:55:26Z</time><name>PT2906</name></trkpt>
<trkpt lat="53.139060" lon="-3.923582"><ele>678</ele><time>2020-08-16T10:55:27Z</time><name>PT2907</name></trkpt>
<trkpt lat="53.139066" lon="-3.923589"><ele>679</ele><time>2020-08-16T10:55:29Z</time><name>PT2908</name></trkpt>
<trkpt lat="53.139071" lon="-3.923593"><ele>679</ele><time>2020-08-16T10:55:29Z</time><name>PT2909</name></trkpt>
<trkpt lat="53.139078" lon="-3.923595"><ele>680</ele><time>2020-08-16T10:55:30Z</time><name>PT2910</name></trkpt>
<trkpt lat="53.139082" lon="-3.923598"><ele>680</ele><time>2020-08-16T10:55:32Z</time><name>PT2911</name></trkpt>
<trkpt lat="53.139089" lon="-3.923603"><ele>680</ele><time>2020-08-16T10:55:32Z</time><name>PT2912</name></trkpt>
<trkpt lat="53.139093" lon="-3.923607"><ele>680</ele><time>2020-08-16T10:55:33Z</time><name>PT2913</name></trkpt>
<trkpt lat="53.139098" lon="-3.923612"><ele>680</ele><time>2020-08-16T10:55:35Z</time><name>PT2914</name></trkpt>
<trkpt lat="53.139104" lon="-3.923617"><ele>680</ele><time>2020-08-16T10:55:35Z</time><name>PT2915</name></trkpt>
<trkpt lat="53.139111" lon="-3.923619"><ele>681</ele><time>2020-08-16T10:55:36Z</time><name>PT2916</name></trkpt>
<trkpt lat="53.139117" lon="-3.923622"><ele>681</ele><time>2020-08-16T10:55:38Z</time><name>PT2917</name></trkpt>
<trkpt lat="53.139123" lon="-3.923627"><ele>681</ele><time>2020-08-16T10:55:38Z</time><name>PT2918</name></trkpt>
<trkpt lat="53.139127" lon="-3.923629"><ele>681</ele><time>2020-08-16T10:55:39Z</time><name>PT2919</name></trkpt>
<trkpt lat="53.139128" lon="-3.923629"><ele>681</ele><time>2020-08-16T10:55:41Z</time><name>PT2920</name></trkpt>
<trkpt lat="53.139128" lon="-3.923629"><ele>681</ele><time>2020-08-16T10:55:42Z</time><name>PT2921</name></trkpt>
<trkpt lat="53.139133" lon="-3.923626"><ele>682</ele><time>2020-08-16T10:55:44Z</time><name>PT2922</name></trkpt>
<trkpt lat="53.139139" lon="-3.923634"><ele>682</ele><time>2020-08-16T10:55:45Z</time><name>PT2923</name></trkpt>
<trkpt lat="53.139143" lon="-3.923641"><ele>682</ele><time>2020-08-16T10:55:47Z</time><name>PT2924</name></trkpt>
<trkpt lat="53.139149" lon="-3.923644"><ele>682</ele><time>2020-08-16T10:55:47Z</time><name>PT2925</name></trkpt>
<trkpt lat="53.139154" lon="-3.923648"><ele>682</ele><time>2020-08-16T10:55:48Z</time><name>PT2926</name></trkpt>
<trkpt lat="53.139157" lon="-3.923647"><ele>683</ele><time>2020-08-16T10:55:50Z</time><name>PT2927</name></trkpt>
<trkpt lat="53.139162" lon="-3.923646"><ele>683</ele><time>2020-08-16T10:55:50Z</time><name>PT2928</name></trkpt>
<trkpt lat="53.139167" lon="-3.923646"><ele>683</ele><time>2020-08-16T10:55:51Z</time><name>PT2929</name></trkpt>
<trkpt lat="53.139174" lon="-3.923650"><ele>683</ele><time>2020-08-16T10:55:53Z</time><name>PT2930</name></trkpt>
<trkpt lat="53.139178" lon="-3.923658"><ele>683</ele><time>2020-08-16T10:55:53Z</time><name>PT2931</name></trkpt>
<trkpt lat="53.139179" lon="-3.923666"><ele>683</ele><time>2020-08-16T10:55:54Z</time><name>PT2932</name></trkpt>
<trkpt lat="53.139184" lon="-3.923673"><ele>683</ele><time>2020-08-16T10:55:56Z</time><name>PT2933</name></trkpt>
<trkpt lat="53.139191" lon="-3.923682"><ele>683</ele><time>2020-08-16T10:55:56Z</time><name>PT2934</name></trkpt>
<trkpt lat="53.139199" lon="-3.923687"><ele>683</ele><time>2020-08-16T10:55:57Z</time><name>PT2935</name></trkpt>
<trkpt lat="53.139204" lon="-3.923689"><ele>684</ele><time>2020-08-16T10:55:59Z</time><name>PT2936</name></trkpt>
<trkpt lat="53.139209" lon="-3.923691"><ele>684</ele><time>2020-08-16T10:55:59Z</time><name>PT2937</name></trkpt>
<trkpt lat="53.139216" lon="-3.923692"><ele>684</ele><time>2020-08-16T10:56:00Z</time><name>PT2938</name></trkpt>
<trkpt lat="53.139221" lon="-3.923695"><ele>684</ele><time>2020-08-16T10:56:02Z</time><name>PT2939</name></trkpt>
<trkpt lat="53.139226" lon="-3.923702"><ele>684</ele><time>2020-08-16T10:56:02Z</time><name>PT2940</name></trkpt>
<trkpt lat="53.139233" lon="-3.923710"><ele>684</ele><time>2020-08-16T10:56:03Z</time><name>PT2941</name></trkpt>
<trkpt lat="53.139241" lon="-3.923716"><ele>684</ele><time>2020-08-16T10:56:05Z</time><name>PT2942</name></trkpt>
<trkpt lat="53.139249" lon="-3.923720"><ele>684</ele><time>2020-08-16T10:56:05Z</time><name>PT2943</name></trkpt>
<trkpt lat="53.139255" lon="-3.923725"><ele>685</ele><time>2020-08-16T10:56:06Z</time><name>PT2944</name></trkpt>
<trkpt lat="53.139259" lon="-3.923726"><ele>685</ele><time>2020-08-16T10:56:08Z</time><name>PT2945</name></trkpt>
<trkpt lat="53.139265" lon="-3.923730"><ele>685</ele><time>2020-08-16T10:56:08Z</time><name>PT2946</name></trkpt>
<trkpt lat="53.139272" lon="-3.923736"><ele>685</ele><time>2020-08-16T10:56:09Z</time><name>PT2947</name></trkpt>
<trkpt lat="53.139279" lon="-3.923743"><ele>685</ele><time>2020-08-16T10:56:11Z</time><name>PT2948</name></trkpt>
<trkpt lat="53.139284" lon="-3.923749"><ele>685</ele><time>2020-08-16T10:56:11Z</time><name>PT2949</name></trkpt>
<trkpt lat="53.139289" lon="-3.923758"><ele>685</ele><time>2020-08-16T10:56:12Z</time><name>PT2950</name></trkpt>
<trkpt lat="53.139295" lon="-3.923768"><ele>685</ele><time>2020-08-16T10:56:14Z</time><name>PT2951</name></trkpt>
<trkpt lat="53.139300" lon="-3.923775"><ele>685</ele><time>2020-08-16T10:56:14Z</time><name>PT2952</name></trkpt>
<trkpt lat="53.139305" lon="-3.923778"><ele>685</ele><time>2020-08-16T10:56:15Z</time><name>PT2953</name></trkpt>
<trkpt lat="53.139309" lon="-3.923780"><ele>686</ele><time>2020-08-16T10:56:17Z</time><name>PT2954</name></trkpt>
<trkpt lat="53.139315" lon="-3.923779"><ele>686</ele><time>2020-08-16T10:56:17Z</time><name>PT2955</name></trkpt>
<trkpt lat="53.139323" lon="-3.923779"><ele>686</ele><time>2020-08-16T10:56:18Z</time><name>PT2956</name></trkpt>
<trkpt lat="53.139329" lon="-3.923780"><ele>686</ele><time>2020-08-16T10:56:20Z</time><name>PT2957</name></trkpt>
<trkpt lat="53.139334" lon="-3.923783"><ele>686</ele><time>2020-08-16T10:56:20Z</time><name>PT2958</name></trkpt>
<trkpt lat="53.139339" lon="-3.923786"><ele>686</ele><time>2020-08-16T10:56:21Z</time><name>PT2959</name></trkpt>
<trkpt lat="53.139345" lon="-3.923784"><ele>687</ele><time>2020-08-16T10:56:23Z</time><name>PT2960</name></trkpt>
<trkpt lat="53.139351" lon="-3.923780"><ele>687</ele><time>2020-08-16T10:56:23Z</time><name>PT2961</name></trkpt>
<trkpt lat="53.139358" lon="-3.923778"><ele>687</ele><time>2020-08-16T10:56:24Z</time><name>PT2962</name></trkpt>
<trkpt lat="53.139366" lon="-3.923774"><ele>687</ele><time>2020-08-16T10:56:26Z</time><name>PT2963</name></trkpt>
<trkpt lat="53.139374" lon="-3.923772"><ele>687</ele><time>2020-08-16T10:56:26Z</time><name>PT2964</name></trkpt>
<trkpt lat="53.139381" lon="-3.923773"><ele>688</ele><time>2020-08-16T10:56:27Z</time><name>PT2965</name></trkpt>
<trkpt lat="53.139387" lon="-3.923776"><ele>688</ele><time>2020-08-16T10:56:29Z</time><name>PT2966</name></trkpt>
<trkpt lat="53.139392" lon="-3.923779"><ele>688</ele><time>2020-08-16T10:56:29Z</time><name>PT2967</name></trkpt>
<trkpt lat="53.139398" lon="-3.923783"><ele>688</ele><time>2020-08-16T10:56:30Z</time><name>PT2968</name></trkpt>
<trkpt lat="53.139403" lon="-3.923791"><ele>688</ele><time>2020-08-16T10:56:32Z</time><name>PT2969</name></trkpt>
<trkpt lat="53.139408" lon="-3.923799"><ele>689</ele><time>2020-08-16T10:56:32Z</time><name>PT2970</name></trkpt>
<trkpt lat="53.139414" lon="-3.923805"><ele>689</ele><time>2020-08-16T10:56:33Z</time><name>PT2971</name></trkpt>
<trkpt lat="53.139419" lon="-3.923809"><ele>689</ele><time>2020-08-16T10:56:35Z</time><name>PT2972</name></trkpt>
<trkpt lat="53.139426" lon="-3.923812"><ele>689</ele><time>2020-08-16T10:56:35Z</time><name>PT2973</name></trkpt>
<trkpt lat="53.139434" lon="-3.923819"><ele>690</ele><time>2020-08-16T10:56:36Z</time><name>PT2974</name></trkpt>
<trkpt lat="53.139440" lon="-3.923826"><ele>690</ele><time>2020-08-16T10:56:38Z</time><name>PT2975</name></trkpt>
<trkpt lat="53.139444" lon="-3.923833"><ele>690</ele><time>2020-08-16T10:56:38Z</time><name>PT2976</name></trkpt>
<trkpt lat="53.139446" lon="-3.923841"><ele>690</ele><time>2020-08-16T10:56:39Z</time><name>PT2977</name></trkpt>
<trkpt lat="53.139451" lon="-3.923846"><ele>690</ele><time>2020-08-16T10:56:41Z</time><name>PT2978</name></trkpt>
<trkpt lat="53.139459" lon="-3.923851"><ele>690</ele><time>2020-08-16T10:56:41Z</time><name>PT2979</name></trkpt>
<trkpt lat="53.139466" lon="-3.923860"><ele>690</ele><time>2020-08-16T10:56:42Z</time><name>PT2980</name></trkpt>
<trkpt lat="53.139472" lon="-3.923866"><ele>691</ele><time>2020-08-16T10:56:44Z</time><name>PT2981</name></trkpt>
<trkpt lat="53.139478" lon="-3.923874"><ele>691</ele><time>2020-08-16T10:56:44Z</time><name>PT2982</name></trkpt>
<trkpt lat="53.139488" lon="-3.923881"><ele>691</ele><time>2020-08-16T10:56:45Z</time><name>PT2983</name></trkpt>
<trkpt lat="53.139496" lon="-3.923885"><ele>691</ele><time>2020-08-16T10:56:47Z</time><name>PT2984</name></trkpt>
<trkpt lat="53.139505" lon="-3.923890"><ele>691</ele><time>2020-08-16T10:56:47Z</time><name>PT2985</name></trkpt>
<trkpt lat="53.139509" lon="-3.923901"><ele>691</ele><time>2020-08-16T10:56:48Z</time><name>PT2986</name></trkpt>
<trkpt lat="53.139512" lon="-3.923914"><ele>691</ele><time>2020-08-16T10:56:50Z</time><name>PT2987</name></trkpt>
<trkpt lat="53.139516" lon="-3.923924"><ele>691</ele><time>2020-08-16T10:56:50Z</time><name>PT2988</name></trkpt>
<trkpt lat="53.139520" lon="-3.923936"><ele>691</ele><time>2020-08-16T10:56:51Z</time><name>PT2989</name></trkpt>
<trkpt lat="53.139527" lon="-3.923946"><ele>691</ele><time>2020-08-16T10:56:53Z</time><name>PT2990</name></trkpt>
<trkpt lat="53.139534" lon="-3.923954"><ele>691</ele><time>2020-08-16T10:56:53Z</time><name>PT2991</name></trkpt>
<trkpt lat="53.139540" lon="-3.923960"><ele>691</ele><time>2020-08-16T10:56:54Z</time><name>PT2992</name></trkpt>
<trkpt lat="53.139548" lon="-3.923966"><ele>692</ele><time>2020-08-16T10:56:56Z</time><name>PT2993</name></trkpt>
<trkpt lat="53.139556" lon="-3.923973"><ele>692</ele><time>2020-08-16T10:56:56Z</time><name>PT2994</name></trkpt>
<trkpt lat="53.139565" lon="-3.923978"><ele>692</ele><time>2020-08-16T10:56:57Z</time><name>PT2995</name></trkpt>
<trkpt lat="53.139572" lon="-3.923983"><ele>692</ele><time>2020-08-16T10:56:59Z</time><name>PT2996</name></trkpt>
<trkpt lat="53.139578" lon="-3.923987"><ele>693</ele><time>2020-08-16T10:56:59Z</time><name>PT2997</name></trkpt>
<trkpt lat="53.139581" lon="-3.923990"><ele>693</ele><time>2020-08-16T10:57:00Z</time><name>PT2998</name></trkpt>
<trkpt lat="53.139587" lon="-3.923992"><ele>693</ele><time>2020-08-16T10:57:02Z</time><name>PT2999</name></trkpt>
<trkpt lat="53.139594" lon="-3.923990"><ele>693</ele><time>2020-08-16T10:57:02Z</time><name>PT3000</name></trkpt>
<trkpt lat="53.139602" lon="-3.923993"><ele>693</ele><time>2020-08-16T10:57:03Z</time><name>PT3001</name></trkpt>
<trkpt lat="53.139611" lon="-3.923993"><ele>693</ele><time>2020-08-16T10:57:05Z</time><name>PT3002</name></trkpt>
<trkpt lat="53.139619" lon="-3.923994"><ele>693</ele><time>2020-08-16T10:57:05Z</time><name>PT3003</name></trkpt>
<trkpt lat="53.139626" lon="-3.923996"><ele>693</ele><time>2020-08-16T10:57:06Z</time><name>PT3004</name></trkpt>
<trkpt lat="53.139632" lon="-3.924000"><ele>694</ele><time>2020-08-16T10:57:08Z</time><name>PT3005</name></trkpt>
<trkpt lat="53.139638" lon="-3.924005"><ele>694</ele><time>2020-08-16T10:57:08Z</time><name>PT3006</name></trkpt>
<trkpt lat="53.139645" lon="-3.924009"><ele>694</ele><time>2020-08-16T10:57:09Z</time><name>PT3007</name></trkpt>
<trkpt lat="53.139650" lon="-3.924017"><ele>694</ele><time>2020-08-16T10:57:11Z</time><name>PT3008</name></trkpt>
<trkpt lat="53.139655" lon="-3.924024"><ele>694</ele><time>2020-08-16T10:57:11Z</time><name>PT3009</name></trkpt>
<trkpt lat="53.139662" lon="-3.924029"><ele>694</ele><time>2020-08-16T10:57:12Z</time><name>PT3010</name></trkpt>
<trkpt lat="53.139668" lon="-3.924034"><ele>694</ele><time>2020-08-16T10:57:14Z</time><name>PT3011</name></trkpt>
<trkpt lat="53.139673" lon="-3.924040"><ele>694</ele><time>2020-08-16T10:57:14Z</time><name>PT3012</name></trkpt>
<trkpt lat="53.139681" lon="-3.924049"><ele>694</ele><time>2020-08-16T10:57:15Z</time><name>PT3013</name></trkpt>
<trkpt lat="53.139690" lon="-3.924052"><ele>695</ele><time>2020-08-16T10:57:17Z</time><name>PT3014</name></trkpt>
<trkpt lat="53.139698" lon="-3.924053"><ele>695</ele><time>2020-08-16T10:57:17Z</time><name>PT3015</name></trkpt>
<trkpt lat="53.139704" lon="-3.924058"><ele>695</ele><time>2020-08-16T10:57:18Z</time><name>PT3016</name></trkpt>
<trkpt lat="53.139713" lon="-3.924062"><ele>695</ele><time>2020-08-16T10:57:20Z</time><name>PT3017</name></trkpt>
<trkpt lat="53.139723" lon="-3.924064"><ele>695</ele><time>2020-08-16T10:57:20Z</time><name>PT3018</name></trkpt>
<trkpt lat="53.139730" lon="-3.924069"><ele>695</ele><time>2020-08-16T10:57:21Z</time><name>PT3019</name></trkpt>
<trkpt lat="53.139737" lon="-3.924074"><ele>695</ele><time>2020-08-16T10:57:23Z</time><name>PT3020</name></trkpt>
<trkpt lat="53.139744" lon="-3.924082"><ele>695</ele><time>2020-08-16T10:57:23Z</time><name>PT3021</name></trkpt>
<trkpt lat="53.139752" lon="-3.924087"><ele>695</ele><time>2020-08-16T10:57:24Z</time><name>PT3022</name></trkpt>
<trkpt lat="53.139760" lon="-3.924093"><ele>695</ele><time>2020-08-16T10:57:26Z</time><name>PT3023</name></trkpt>
<trkpt lat="53.139768" lon="-3.924097"><ele>695</ele><time>2020-08-16T10:57:26Z</time><name>PT3024</name></trkpt>
<trkpt lat="53.139774" lon="-3.924104"><ele>695</ele><time>2020-08-16T10:57:27Z</time><name>PT3025</name></trkpt>
<trkpt lat="53.139775" lon="-3.924110"><ele>695</ele><time>2020-08-16T10:57:29Z</time><name>PT3026</name></trkpt>
<trkpt lat="53.139781" lon="-3.924110"><ele>695</ele><time>2020-08-16T10:57:29Z</time><name>PT3027</name></trkpt>
<trkpt lat="53.139789" lon="-3.924110"><ele>695</ele><time>2020-08-16T10:57:30Z</time><name>PT3028</name></trkpt>
<trkpt lat="53.139796" lon="-3.924111"><ele>695</ele><time>2020-08-16T10:57:32Z</time><name>PT3029</name></trkpt>
<trkpt lat="53.139804" lon="-3.924113"><ele>696</ele><time>2020-08-16T10:57:32Z</time><name>PT3030</name></trkpt>
<trkpt lat="53.139811" lon="-3.924112"><ele>696</ele><time>2020-08-16T10:57:33Z</time><name>PT3031</name></trkpt>
<trkpt lat="53.139818" lon="-3.924106"><ele>696</ele><time>2020-08-16T10:57:35Z</time><name>PT3032</name></trkpt>
<trkpt lat="53.139824" lon="-3.924101"><ele>696</ele><time>2020-08-16T10:57:35Z</time><name>PT3033</name></trkpt>
<trkpt lat="53.139830" lon="-3.924099"><ele>697</ele><time>2020-08-16T10:57:36Z</time><name>PT3034</name></trkpt>
<trkpt lat="53.139834" lon="-3.924102"><ele>697</ele><time>2020-08-16T10:57:38Z</time><name>PT3035</name></trkpt>
<trkpt lat="53.139839" lon="-3.924107"><ele>697</ele><time>2020-08-16T10:57:38Z</time><name>PT3036</name></trkpt>
<trkpt lat="53.139846" lon="-3.924113"><ele>697</ele><time>2020-08-16T10:57:39Z</time><name>PT3037</name></trkpt>
<trkpt lat="53.139853" lon="-3.924120"><ele>697</ele><time>2020-08-16T10:57:41Z</time><name>PT3038</name></trkpt>
<trkpt lat="53.139860" lon="-3.924125"><ele>697</ele><time>2020-08-16T10:57:41Z</time><name>PT3039</name></trkpt>
<trkpt lat="53.139865" lon="-3.924128"><ele>697</ele><time>2020-08-16T10:57:42Z</time><name>PT3040</name></trkpt>
<trkpt lat="53.139868" lon="-3.924127"><ele>698</ele><time>2020-08-16T10:57:44Z</time><name>PT3041</name></trkpt>
<trkpt lat="53.139873" lon="-3.924133"><ele>698</ele><time>2020-08-16T10:57:44Z</time><name>PT3042</name></trkpt>
<trkpt lat="53.139877" lon="-3.924139"><ele>698</ele><time>2020-08-16T10:57:45Z</time><name>PT3043</name></trkpt>
<trkpt lat="53.139883" lon="-3.924145"><ele>698</ele><time>2020-08-16T10:57:47Z</time><name>PT3044</name></trkpt>
<trkpt lat="53.139891" lon="-3.924154"><ele>697</ele><time>2020-08-16T10:57:47Z</time><name>PT3045</name></trkpt>
<trkpt lat="53.139896" lon="-3.924163"><ele>697</ele><time>2020-08-16T10:57:48Z</time><name>PT3046</name></trkpt>
<trkpt lat="53.139900" lon="-3.924170"><ele>697</ele><time>2020-08-16T10:57:50Z</time><name>PT3047</name></trkpt>
<trkpt lat="53.139904" lon="-3.924176"><ele>697</ele><time>2020-08-16T10:57:50Z</time><name>PT3048</name></trkpt>
<trkpt lat="53.139909" lon="-3.924183"><ele>697</ele><time>2020-08-16T10:57:51Z</time><name>PT3049</name></trkpt>
<trkpt lat="53.139911" lon="-3.924191"><ele>697</ele><time>2020-08-16T10:57:53Z</time><name>PT3050</name></trkpt>
<trkpt lat="53.139912" lon="-3.924203"><ele>696</ele><time>2020-08-16T10:57:53Z</time><name>PT3051</name></trkpt>
<trkpt lat="53.139918" lon="-3.924212"><ele>696</ele><time>2020-08-16T10:57:54Z</time><name>PT3052</name></trkpt>
<trkpt lat="53.139924" lon="-3.924221"><ele>696</ele><time>2020-08-16T10:57:56Z</time><name>PT3053</name></trkpt>
<trkpt lat="53.139930" lon="-3.924223"><ele>696</ele><time>2020-08-16T10:57:56Z</time><name>PT3054</name></trkpt>
<trkpt lat="53.139937" lon="-3.924226"><ele>696</ele><time>2020-08-16T10:57:57Z</time><name>PT3055</name></trkpt>
<trkpt lat="53.139944" lon="-3.924232"><ele>696</ele><time>2020-08-16T10:57:59Z</time><name>PT3056</name></trkpt>
<trkpt lat="53.139950" lon="-3.924237"><ele>696</ele><time>2020-08-16T10:57:59Z</time><name>PT3057</name></trkpt>
<trkpt lat="53.139957" lon="-3.924241"><ele>697</ele><time>2020-08-16T10:58:00Z</time><name>PT3058</name></trkpt>
<trkpt lat="53.139965" lon="-3.924246"><ele>697</ele><time>2020-08-16T10:58:02Z</time><name>PT3059</name></trkpt>
<trkpt lat="53.139971" lon="-3.924251"><ele>697</ele><time>2020-08-16T10:58:02Z</time><name>PT3060</name></trkpt>
<trkpt lat="53.139978" lon="-3.924257"><ele>697</ele><time>2020-08-16T10:58:03Z</time><name>PT3061</name></trkpt>
<trkpt lat="53.139987" lon="-3.924263"><ele>697</ele><time>2020-08-16T10:58:05Z</time><name>PT3062</name></trkpt>
<trkpt lat="53.139992" lon="-3.924268"><ele>697</ele><time>2020-08-16T10:58:05Z</time><name>PT3063</name></trkpt>
<trkpt lat="53.139998" lon="-3.924273"><ele>697</ele><time>2020-08-16T10:58:06Z</time><name>PT3064</name></trkpt>
<trkpt lat="53.140006" lon="-3.924275"><ele>697</ele><time>2020-08-16T10:58:08Z</time><name>PT3065</name></trkpt>
<trkpt lat="53.140012" lon="-3.924280"><ele>698</ele><time>2020-08-16T10:58:08Z</time><name>PT3066</name></trkpt>
<trkpt lat="53.140015" lon="-3.924287"><ele>698</ele><time>2020-08-16T10:58:09Z</time><name>PT3067</name></trkpt>
<trkpt lat="53.140021" lon="-3.924292"><ele>698</ele><time>2020-08-16T10:58:11Z</time><name>PT3068</name></trkpt>
<trkpt lat="53.140027" lon="-3.924298"><ele>697</ele><time>2020-08-16T10:58:11Z</time><name>PT3069</name></trkpt>
<trkpt lat="53.140035" lon="-3.924303"><ele>697</ele><time>2020-08-16T10:58:12Z</time><name>PT3070</name></trkpt>
<trkpt lat="53.140042" lon="-3.924308"><ele>697</ele><time>2020-08-16T10:58:14Z</time><name>PT3071</name></trkpt>
<trkpt lat="53.140048" lon="-3.924315"><ele>698</ele><time>2020-08-16T10:58:14Z</time><name>PT3072</name></trkpt>
<trkpt lat="53.140055" lon="-3.924321"><ele>698</ele><time>2020-08-16T10:58:15Z</time><name>PT3073</name></trkpt>
<trkpt lat="53.140063" lon="-3.924328"><ele>698</ele><time>2020-08-16T10:58:17Z</time><name>PT3074</name></trkpt>
<trkpt lat="53.140072" lon="-3.924335"><ele>698</ele><time>2020-08-16T10:58:17Z</time><name>PT3075</name></trkpt>
<trkpt lat="53.140079" lon="-3.924343"><ele>699</ele><time>2020-08-16T10:58:18Z</time><name>PT3076</name></trkpt>
<trkpt lat="53.140086" lon="-3.924349"><ele>698</ele><time>2020-08-16T10:58:20Z</time><name>PT3077</name></trkpt>
<trkpt lat="53.140097" lon="-3.924357"><ele>698</ele><time>2020-08-16T10:58:20Z</time><name>PT3078</name></trkpt>
<trkpt lat="53.140106" lon="-3.924362"><ele>698</ele><time>2020-08-16T10:58:21Z</time><name>PT3079</name></trkpt>
<trkpt lat="53.140116" lon="-3.924368"><ele>698</ele><time>2020-08-16T10:58:23Z</time><name>PT3080</name></trkpt>
<trkpt lat="53.140125" lon="-3.924377"><ele>698</ele><time>2020-08-16T10:58:23Z</time><name>PT3081</name></trkpt>
<trkpt lat="53.140134" lon="-3.924382"><ele>698</ele><time>2020-08-16T10:58:24Z</time><name>PT3082</name></trkpt>
<trkpt lat="53.140165" lon="-3.924401"><ele>698</ele><time>2020-08-16T10:58:29Z</time><name>PT3083</name></trkpt>
<trkpt lat="53.140173" lon="-3.924401"><ele>699</ele><time>2020-08-16T10:58:29Z</time><name>PT3084</name></trkpt>
<trkpt lat="53.140179" lon="-3.924405"><ele>699</ele><time>2020-08-16T10:58:30Z</time><name>PT3085</name></trkpt>
<trkpt lat="53.140185" lon="-3.924410"><ele>699</ele><time>2020-08-16T10:58:32Z</time><name>PT3086</name></trkpt>
<trkpt lat="53.140190" lon="-3.924415"><ele>699</ele><time>2020-08-16T10:58:32Z</time><name>PT3087</name></trkpt>
<trkpt lat="53.140198" lon="-3.924418"><ele>699</ele><time>2020-08-16T10:58:33Z</time><name>PT3088</name></trkpt>
<trkpt lat="53.140206" lon="-3.924420"><ele>699</ele><time>2020-08-16T10:58:35Z</time><name>PT3089</name></trkpt>
<trkpt lat="53.140214" lon="-3.924424"><ele>699</ele><time>2020-08-16T10:58:35Z</time><name>PT3090</name></trkpt>
<trkpt lat="53.140219" lon="-3.924431"><ele>699</ele><time>2020-08-16T10:58:36Z</time><name>PT3091</name></trkpt>
<trkpt lat="53.140225" lon="-3.924435"><ele>699</ele><time>2020-08-16T10:58:38Z</time><name>PT3092</name></trkpt>
<trkpt lat="53.140233" lon="-3.924439"><ele>699</ele><time>2020-08-16T10:58:38Z</time><name>PT3093</name></trkpt>
<trkpt lat="53.140237" lon="-3.924442"><ele>699</ele><time>2020-08-16T10:58:39Z</time><name>PT3094</name></trkpt>
<trkpt lat="53.140242" lon="-3.924446"><ele>700</ele><time>2020-08-16T10:58:41Z</time><name>PT3095</name></trkpt>
<trkpt lat="53.140250" lon="-3.924445"><ele>700</ele><time>2020-08-16T10:58:41Z</time><name>PT3096</name></trkpt>
<trkpt lat="53.140258" lon="-3.924443"><ele>700</ele><time>2020-08-16T10:58:42Z</time><name>PT3097</name></trkpt>
<trkpt lat="53.140263" lon="-3.924447"><ele>700</ele><time>2020-08-16T10:58:44Z</time><name>PT3098</name></trkpt>
<trkpt lat="53.140270" lon="-3.924452"><ele>700</ele><time>2020-08-16T10:58:44Z</time><name>PT3099</name></trkpt>
<trkpt lat="53.140278" lon="-3.924458"><ele>700</ele><time>2020-08-16T10:58:45Z</time><name>PT3100</name></trkpt>
<trkpt lat="53.140287" lon="-3.924461"><ele>700</ele><time>2020-08-16T10:58:47Z</time><name>PT3101</name></trkpt>
<trkpt lat="53.140293" lon="-3.924466"><ele>700</ele><time>2020-08-16T10:58:47Z</time><name>PT3102</name></trkpt>
<trkpt lat="53.140296" lon="-3.924473"><ele>700</ele><time>2020-08-16T10:58:48Z</time><name>PT3103</name></trkpt>
<trkpt lat="53.140301" lon="-3.924480"><ele>700</ele><time>2020-08-16T10:58:50Z</time><name>PT3104</name></trkpt>
<trkpt lat="53.140310" lon="-3.924489"><ele>700</ele><time>2020-08-16T10:58:50Z</time><name>PT3105</name></trkpt>
<trkpt lat="53.140319" lon="-3.924495"><ele>700</ele><time>2020-08-16T10:58:51Z</time><name>PT3106</name></trkpt>
<trkpt lat="53.140325" lon="-3.924499"><ele>700</ele><time>2020-08-16T10:58:53Z</time><name>PT3107</name></trkpt>
<trkpt lat="53.140331" lon="-3.924504"><ele>700</ele><time>2020-08-16T10:58:53Z</time><name>PT3108</name></trkpt>
<trkpt lat="53.140338" lon="-3.924511"><ele>700</ele><time>2020-08-16T10:58:54Z</time><name>PT3109</name></trkpt>
<trkpt lat="53.140347" lon="-3.924521"><ele>700</ele><time>2020-08-16T10:58:56Z</time><name>PT3110</name></trkpt>
<trkpt lat="53.140355" lon="-3.924529"><ele>700</ele><time>2020-08-16T10:58:56Z</time><name>PT3111</name></trkpt>
<trkpt lat="53.140361" lon="-3.924537"><ele>701</ele><time>2020-08-16T10:58:57Z</time><name>PT3112</name></trkpt>
<trkpt lat="53.140365" lon="-3.924545"><ele>700</ele><time>2020-08-16T10:58:59Z</time><name>PT3113</name></trkpt>
<trkpt lat="53.140371" lon="-3.924553"><ele>700</ele><time>2020-08-16T10:58:59Z</time><name>PT3114</name></trkpt>
<trkpt lat="53.140378" lon="-3.924558"><ele>700</ele><time>2020-08-16T10:59:00Z</time><name>PT3115</name></trkpt>
<trkpt lat="53.140385" lon="-3.924567"><ele>700</ele><time>2020-08-16T10:59:02Z</time><name>PT3116</name></trkpt>
<trkpt lat="53.140392" lon="-3.924575"><ele>700</ele><time>2020-08-16T10:59:02Z</time><name>PT3117</name></trkpt>
<trkpt lat="53.140398" lon="-3.924581"><ele>700</ele><time>2020-08-16T10:59:03Z</time><name>PT3118</name></trkpt>
<trkpt lat="53.140402" lon="-3.924588"><ele>700</ele><time>2020-08-16T10:59:05Z</time><name>PT3119</name></trkpt>
<trkpt lat="53.140408" lon="-3.924597"><ele>700</ele><time>2020-08-16T10:59:05Z</time><name>PT3120</name></trkpt>
<trkpt lat="53.140417" lon="-3.924603"><ele>700</ele><time>2020-08-16T10:59:06Z</time><name>PT3121</name></trkpt>
<trkpt lat="53.140425" lon="-3.924610"><ele>700</ele><time>2020-08-16T10:59:08Z</time><name>PT3122</name></trkpt>
<trkpt lat="53.140432" lon="-3.924615"><ele>700</ele><time>2020-08-16T10:59:08Z</time><name>PT3123</name></trkpt>
<trkpt lat="53.140439" lon="-3.924620"><ele>700</ele><time>2020-08-16T10:59:09Z</time><name>PT3124</name></trkpt>
<trkpt lat="53.140447" lon="-3.924626"><ele>700</ele><time>2020-08-16T10:59:11Z</time><name>PT3125</name></trkpt>
<trkpt lat="53.140454" lon="-3.924623"><ele>701</ele><time>2020-08-16T10:59:11Z</time><name>PT3126</name></trkpt>
<trkpt lat="53.140460" lon="-3.924629"><ele>701</ele><time>2020-08-16T10:59:12Z</time><name>PT3127</name></trkpt>
<trkpt lat="53.140466" lon="-3.924634"><ele>701</ele><time>2020-08-16T10:59:14Z</time><name>PT3128</name></trkpt>
<trkpt lat="53.140475" lon="-3.924634"><ele>701</ele><time>2020-08-16T10:59:14Z</time><name>PT3129</name></trkpt>
<trkpt lat="53.140481" lon="-3.924636"><ele>701</ele><time>2020-08-16T10:59:15Z</time><name>PT3130</name></trkpt>
<trkpt lat="53.140489" lon="-3.924641"><ele>701</ele><time>2020-08-16T10:59:17Z</time><name>PT3131</name></trkpt>
<trkpt lat="53.140497" lon="-3.924644"><ele>701</ele><time>2020-08-16T10:59:17Z</time><name>PT3132</name></trkpt>
<trkpt lat="53.140504" lon="-3.924647"><ele>701</ele><time>2020-08-16T10:59:18Z</time><name>PT3133</name></trkpt>
<trkpt lat="53.140508" lon="-3.924649"><ele>701</ele><time>2020-08-16T10:59:20Z</time><name>PT3134</name></trkpt>
<trkpt lat="53.140512" lon="-3.924649"><ele>701</ele><time>2020-08-16T10:59:20Z</time><name>PT3135</name></trkpt>
<trkpt lat="53.140517" lon="-3.924653"><ele>701</ele><time>2020-08-16T10:59:21Z</time><name>PT3136</name></trkpt>
<trkpt lat="53.140521" lon="-3.924662"><ele>701</ele><time>2020-08-16T10:59:23Z</time><name>PT3137</name></trkpt>
<trkpt lat="53.140529" lon="-3.924670"><ele>701</ele><time>2020-08-16T10:59:23Z</time><name>PT3138</name></trkpt>
<trkpt lat="53.140535" lon="-3.924679"><ele>701</ele><time>2020-08-16T10:59:24Z</time><name>PT3139</name></trkpt>
<trkpt lat="53.140539" lon="-3.924688"><ele>701</ele><time>2020-08-16T10:59:26Z</time><name>PT3140</name></trkpt>
<trkpt lat="53.140546" lon="-3.924695"><ele>701</ele><time>2020-08-16T10:59:26Z</time><name>PT3141</name></trkpt>
<trkpt lat="53.140553" lon="-3.924696"><ele>700</ele><time>2020-08-16T10:59:27Z</time><name>PT3142</name></trkpt>
<trkpt lat="53.140553" lon="-3.924696"><ele>700</ele><time>2020-08-16T10:59:29Z</time><name>PT3143</name></trkpt>
<trkpt lat="53.140553" lon="-3.924695"><ele>700</ele><time>2020-08-16T10:59:29Z</time><name>PT3144</name></trkpt>
<trkpt lat="53.140555" lon="-3.924701"><ele>700</ele><time>2020-08-16T10:59:30Z</time><name>PT3145</name></trkpt>
<trkpt lat="53.140562" lon="-3.924710"><ele>700</ele><time>2020-08-16T10:59:32Z</time><name>PT3146</name></trkpt>
<trkpt lat="53.140572" lon="-3.924718"><ele>700</ele><time>2020-08-16T10:59:32Z</time><name>PT3147</name></trkpt>
<trkpt lat="53.140581" lon="-3.924723"><ele>700</ele><time>2020-08-16T10:59:33Z</time><name>PT3148</name></trkpt>
<trkpt lat="53.140591" lon="-3.924726"><ele>700</ele><time>2020-08-16T10:59:35Z</time><name>PT3149</name></trkpt>
<trkpt lat="53.140600" lon="-3.924732"><ele>700</ele><time>2020-08-16T10:59:35Z</time><name>PT3150</name></trkpt>
<trkpt lat="53.140609" lon="-3.924736"><ele>700</ele><time>2020-08-16T10:59:36Z</time><name>PT3151</name></trkpt>
<trkpt lat="53.140619" lon="-3.924743"><ele>700</ele><time>2020-08-16T10:59:38Z</time><name>PT3152</name></trkpt>
<trkpt lat="53.140630" lon="-3.924749"><ele>700</ele><time>2020-08-16T10:59:38Z</time><name>PT3153</name></trkpt>
<trkpt lat="53.140637" lon="-3.924752"><ele>700</ele><time>2020-08-16T10:59:39Z</time><name>PT3154</name></trkpt>
<trkpt lat="53.140644" lon="-3.924756"><ele>700</ele><time>2020-08-16T10:59:41Z</time><name>PT3155</name></trkpt>
<trkpt lat="53.140654" lon="-3.924765"><ele>700</ele><time>2020-08-16T10:59:41Z</time><name>PT3156</name></trkpt>
<trkpt lat="53.140664" lon="-3.924773"><ele>700</ele><time>2020-08-16T10:59:42Z</time><name>PT3157</name></trkpt>
<trkpt lat="53.140672" lon="-3.924780"><ele>700</ele><time>2020-08-16T10:59:44Z</time><name>PT3158</name></trkpt>
<trkpt lat="53.140681" lon="-3.924790"><ele>700</ele><time>2020-08-16T10:59:44Z</time><name>PT3159</name></trkpt>
<trkpt lat="53.140689" lon="-3.924797"><ele>700</ele><time>2020-08-16T10:59:45Z</time><name>PT3160</name></trkpt>
<trkpt lat="53.140696" lon="-3.924801"><ele>701</ele><time>2020-08-16T10:59:47Z</time><name>PT3161</name></trkpt>
<trkpt lat="53.140702" lon="-3.924807"><ele>700</ele><time>2020-08-16T10:59:47Z</time><name>PT3162</name></trkpt>
<trkpt lat="53.140709" lon="-3.924815"><ele>700</ele><time>2020-08-16T10:59:48Z</time><name>PT3163</name></trkpt>
<trkpt lat="53.140716" lon="-3.924822"><ele>701</ele><time>2020-08-16T10:59:50Z</time><name>PT3164</name></trkpt>
<trkpt lat="53.140722" lon="-3.924824"><ele>700</ele><time>2020-08-16T10:59:50Z</time><name>PT3165</name></trkpt>
<trkpt lat="53.140729" lon="-3.924829"><ele>700</ele><time>2020-08-16T10:59:51Z</time><name>PT3166</name></trkpt>
<trkpt lat="53.140737" lon="-3.924833"><ele>700</ele><time>2020-08-16T10:59:53Z</time><name>PT3167</name></trkpt>
<trkpt lat="53.140745" lon="-3.924840"><ele>700</ele><time>2020-08-16T10:59:53Z</time><name>PT3168</name></trkpt>
<trkpt lat="53.140750" lon="-3.924847"><ele>700</ele><time>2020-08-16T10:59:54Z</time><name>PT3169</name></trkpt>
<trkpt lat="53.140756" lon="-3.924856"><ele>700</ele><time>2020-08-16T10:59:56Z</time><name>PT3170</name></trkpt>
<trkpt lat="53.140764" lon="-3.924865"><ele>700</ele><time>2020-08-16T10:59:56Z</time><name>PT3171</name></trkpt>
<trkpt lat="53.140772" lon="-3.924870"><ele>700</ele><time>2020-08-16T10:59:57Z</time><name>PT3172</name></trkpt>
<trkpt lat="53.140778" lon="-3.924876"><ele>700</ele><time>2020-08-16T10:59:59Z</time><name>PT3173</name></trkpt>
<trkpt lat="53.140787" lon="-3.924882"><ele>700</ele><time>2020-08-16T10:59:59Z</time><name>PT3174</name></trkpt>
<trkpt lat="53.140797" lon="-3.924888"><ele>700</ele><time>2020-08-16T11:00:00Z</time><name>PT3175</name></trkpt>
<trkpt lat="53.140805" lon="-3.924896"><ele>700</ele><time>2020-08-16T11:00:02Z</time><name>PT3176</name></trkpt>
<trkpt lat="53.140812" lon="-3.924901"><ele>700</ele><time>2020-08-16T11:00:02Z</time><name>PT3177</name></trkpt>
<trkpt lat="53.140820" lon="-3.924906"><ele>701</ele><time>2020-08-16T11:00:03Z</time><name>PT3178</name></trkpt>
<trkpt lat="53.140828" lon="-3.924913"><ele>701</ele><time>2020-08-16T11:00:05Z</time><name>PT3179</name></trkpt>
<trkpt lat="53.140838" lon="-3.924920"><ele>701</ele><time>2020-08-16T11:00:05Z</time><name>PT3180</name></trkpt>
<trkpt lat="53.140845" lon="-3.924925"><ele>701</ele><time>2020-08-16T11:00:06Z</time><name>PT3181</name></trkpt>
<trkpt lat="53.140851" lon="-3.924929"><ele>701</ele><time>2020-08-16T11:00:08Z</time><name>PT3182</name></trkpt>
<trkpt lat="53.140858" lon="-3.924932"><ele>701</ele><time>2020-08-16T11:00:08Z</time><name>PT3183</name></trkpt>
<trkpt lat="53.140866" lon="-3.924935"><ele>701</ele><time>2020-08-16T11:00:09Z</time><name>PT3184</name></trkpt>
<trkpt lat="53.140874" lon="-3.924941"><ele>701</ele><time>2020-08-16T11:00:11Z</time><name>PT3185</name></trkpt>
<trkpt lat="53.140881" lon="-3.924943"><ele>701</ele><time>2020-08-16T11:00:11Z</time><name>PT3186</name></trkpt>
<trkpt lat="53.140888" lon="-3.924946"><ele>701</ele><time>2020-08-16T11:00:12Z</time><name>PT3187</name></trkpt>
<trkpt lat="53.140894" lon="-3.924952"><ele>701</ele><time>2020-08-16T11:00:14Z</time><name>PT3188</name></trkpt>
<trkpt lat="53.140900" lon="-3.924961"><ele>701</ele><time>2020-08-16T11:00:14Z</time><name>PT3189</name></trkpt>
<trkpt lat="53.140903" lon="-3.924972"><ele>701</ele><time>2020-08-16T11:00:15Z</time><name>PT3190</name></trkpt>
<trkpt lat="53.140908" lon="-3.924977"><ele>700</ele><time>2020-08-16T11:00:17Z</time><name>PT3191</name></trkpt>
<trkpt lat="53.140915" lon="-3.924980"><ele>700</ele><time>2020-08-16T11:00:17Z</time><name>PT3192</name></trkpt>
<trkpt lat="53.140922" lon="-3.924986"><ele>700</ele><time>2020-08-16T11:00:18Z</time><name>PT3193</name></trkpt>
<trkpt lat="53.140930" lon="-3.924992"><ele>700</ele><time>2020-08-16T11:00:20Z</time><name>PT3194</name></trkpt>
<trkpt lat="53.140939" lon="-3.924997"><ele>701</ele><time>2020-08-16T11:00:20Z</time><name>PT3195</name></trkpt>
<trkpt lat="53.140946" lon="-3.924999"><ele>701</ele><time>2020-08-16T11:00:21Z</time><name>PT3196</name></trkpt>
<trkpt lat="53.140953" lon="-3.925002"><ele>701</ele><time>2020-08-16T11:00:23Z</time><name>PT3197</name></trkpt>
<trkpt lat="53.140962" lon="-3.925006"><ele>701</ele><time>2020-08-16T11:00:23Z</time><name>PT3198</name></trkpt>
<trkpt lat="53.140971" lon="-3.925010"><ele>701</ele><time>2020-08-16T11:00:24Z</time><name>PT3199</name></trkpt>
<trkpt lat="53.140979" lon="-3.925014"><ele>701</ele><time>2020-08-16T11:00:26Z</time><name>PT3200</name></trkpt>
<trkpt lat="53.140986" lon="-3.925019"><ele>701</ele><time>2020-08-16T11:00:26Z</time><name>PT3201</name></trkpt>
<trkpt lat="53.140994" lon="-3.925022"><ele>701</ele><time>2020-08-16T11:00:27Z</time><name>PT3202</name></trkpt>
<trkpt lat="53.141002" lon="-3.925024"><ele>701</ele><time>2020-08-16T11:00:29Z</time><name>PT3203</name></trkpt>
<trkpt lat="53.141010" lon="-3.925028"><ele>701</ele><time>2020-08-16T11:00:29Z</time><name>PT3204</name></trkpt>
<trkpt lat="53.141017" lon="-3.925032"><ele>701</ele><time>2020-08-16T11:00:30Z</time><name>PT3205</name></trkpt>
<trkpt lat="53.141025" lon="-3.925037"><ele>701</ele><time>2020-08-16T11:00:32Z</time><name>PT3206</name></trkpt>
<trkpt lat="53.141032" lon="-3.925043"><ele>701</ele><time>2020-08-16T11:00:32Z</time><name>PT3207</name></trkpt>
<trkpt lat="53.141039" lon="-3.925046"><ele>701</ele><time>2020-08-16T11:00:33Z</time><name>PT3208</name></trkpt>
<trkpt lat="53.141045" lon="-3.925048"><ele>702</ele><time>2020-08-16T11:00:35Z</time><name>PT3209</name></trkpt>
<trkpt lat="53.141051" lon="-3.925051"><ele>702</ele><time>2020-08-16T11:00:35Z</time><name>PT3210</name></trkpt>
<trkpt lat="53.141057" lon="-3.925052"><ele>702</ele><time>2020-08-16T11:00:36Z</time><name>PT3211</name></trkpt>
<trkpt lat="53.141064" lon="-3.925051"><ele>702</ele><time>2020-08-16T11:00:38Z</time><name>PT3212</name></trkpt>
<trkpt lat="53.141071" lon="-3.925052"><ele>702</ele><time>2020-08-16T11:00:38Z</time><name>PT3213</name></trkpt>
<trkpt lat="53.141075" lon="-3.925053"><ele>702</ele><time>2020-08-16T11:00:39Z</time><name>PT3214</name></trkpt>
<trkpt lat="53.141081" lon="-3.925056"><ele>703</ele><time>2020-08-16T11:00:41Z</time><name>PT3215</name></trkpt>
<trkpt lat="53.141087" lon="-3.925060"><ele>703</ele><time>2020-08-16T11:00:41Z</time><name>PT3216</name></trkpt>
<trkpt lat="53.141093" lon="-3.925066"><ele>702</ele><time>2020-08-16T11:00:42Z</time><name>PT3217</name></trkpt>
<trkpt lat="53.141100" lon="-3.925071"><ele>702</ele><time>2020-08-16T11:00:44Z</time><name>PT3218</name></trkpt>
<trkpt lat="53.141109" lon="-3.925076"><ele>702</ele><time>2020-08-16T11:00:44Z</time><name>PT3219</name></trkpt>
<trkpt lat="53.141118" lon="-3.925078"><ele>703</ele><time>2020-08-16T11:00:45Z</time><name>PT3220</name></trkpt>
<trkpt lat="53.141127" lon="-3.925082"><ele>703</ele><time>2020-08-16T11:00:47Z</time><name>PT3221</name></trkpt>
<trkpt lat="53.141134" lon="-3.925088"><ele>703</ele><time>2020-08-16T11:00:47Z</time><name>PT3222</name></trkpt>
<trkpt lat="53.141140" lon="-3.925092"><ele>703</ele><time>2020-08-16T11:00:48Z</time><name>PT3223</name></trkpt>
<trkpt lat="53.141150" lon="-3.925097"><ele>702</ele><time>2020-08-16T11:00:50Z</time><name>PT3224</name></trkpt>
<trkpt lat="53.141158" lon="-3.925101"><ele>702</ele><time>2020-08-16T11:00:50Z</time><name>PT3225</name></trkpt>
<trkpt lat="53.141166" lon="-3.925106"><ele>703</ele><time>2020-08-16T11:00:51Z</time><name>PT3226</name></trkpt>
<trkpt lat="53.141172" lon="-3.925112"><ele>702</ele><time>2020-08-16T11:00:53Z</time><name>PT3227</name></trkpt>
<trkpt lat="53.141181" lon="-3.925118"><ele>702</ele><time>2020-08-16T11:00:53Z</time><name>PT3228</name></trkpt>
<trkpt lat="53.141190" lon="-3.925124"><ele>702</ele><time>2020-08-16T11:00:54Z</time><name>PT3229</name></trkpt>
<trkpt lat="53.141197" lon="-3.925128"><ele>702</ele><time>2020-08-16T11:00:56Z</time><name>PT3230</name></trkpt>
<trkpt lat="53.141205" lon="-3.925137"><ele>702</ele><time>2020-08-16T11:00:56Z</time><name>PT3231</name></trkpt>
<trkpt lat="53.141212" lon="-3.925145"><ele>702</ele><time>2020-08-16T11:00:57Z</time><name>PT3232</name></trkpt>
<trkpt lat="53.141219" lon="-3.925152"><ele>702</ele><time>2020-08-16T11:00:59Z</time><name>PT3233</name></trkpt>
<trkpt lat="53.141225" lon="-3.925157"><ele>702</ele><time>2020-08-16T11:00:59Z</time><name>PT3234</name></trkpt>
<trkpt lat="53.141230" lon="-3.925161"><ele>702</ele><time>2020-08-16T11:01:00Z</time><name>PT3235</name></trkpt>
<trkpt lat="53.141237" lon="-3.925168"><ele>702</ele><time>2020-08-16T11:01:02Z</time><name>PT3236</name></trkpt>
<trkpt lat="53.141242" lon="-3.925174"><ele>701</ele><time>2020-08-16T11:01:02Z</time><name>PT3237</name></trkpt>
<trkpt lat="53.141248" lon="-3.925181"><ele>701</ele><time>2020-08-16T11:01:04Z</time><name>PT3238</name></trkpt>
<trkpt lat="53.141257" lon="-3.925189"><ele>701</ele><time>2020-08-16T11:01:05Z</time><name>PT3239</name></trkpt>
<trkpt lat="53.141265" lon="-3.925195"><ele>701</ele><time>2020-08-16T11:01:05Z</time><name>PT3240</name></trkpt>
<trkpt lat="53.141270" lon="-3.925200"><ele>701</ele><time>2020-08-16T11:01:06Z</time><name>PT3241</name></trkpt>
<trkpt lat="53.141276" lon="-3.925205"><ele>701</ele><time>2020-08-16T11:01:08Z</time><name>PT3242</name></trkpt>
<trkpt lat="53.141282" lon="-3.925209"><ele>701</ele><time>2020-08-16T11:01:08Z</time><name>PT3243</name></trkpt>
<trkpt lat="53.141286" lon="-3.925214"><ele>701</ele><time>2020-08-16T11:01:09Z</time><name>PT3244</name></trkpt>
<trkpt lat="53.141294" lon="-3.925221"><ele>701</ele><time>2020-08-16T11:01:11Z</time><name>PT3245</name></trkpt>
<trkpt lat="53.141300" lon="-3.925227"><ele>701</ele><time>2020-08-16T11:01:11Z</time><name>PT3246</name></trkpt>
<trkpt lat="53.141306" lon="-3.925233"><ele>701</ele><time>2020-08-16T11:01:12Z</time><name>PT3247</name></trkpt>
<trkpt lat="53.141313" lon="-3.925240"><ele>701</ele><time>2020-08-16T11:01:14Z</time><name>PT3248</name></trkpt>
<trkpt lat="53.141319" lon="-3.925248"><ele>701</ele><time>2020-08-16T11:01:14Z</time><name>PT3249</name></trkpt>
<trkpt lat="53.141326" lon="-3.925254"><ele>701</ele><time>2020-08-16T11:01:15Z</time><name>PT3250</name></trkpt>
<trkpt lat="53.141333" lon="-3.925262"><ele>700</ele><time>2020-08-16T11:01:17Z</time><name>PT3251</name></trkpt>
<trkpt lat="53.141340" lon="-3.925270"><ele>700</ele><time>2020-08-16T11:01:17Z</time><name>PT3252</name></trkpt>
<trkpt lat="53.141348" lon="-3.925279"><ele>700</ele><time>2020-08-16T11:01:18Z</time><name>PT3253</name></trkpt>
<trkpt lat="53.141355" lon="-3.925285"><ele>700</ele><time>2020-08-16T11:01:20Z</time><name>PT3254</name></trkpt>
<trkpt lat="53.141361" lon="-3.925293"><ele>700</ele><time>2020-08-16T11:01:20Z</time><name>PT3255</name></trkpt>
<trkpt lat="53.141369" lon="-3.925301"><ele>700</ele><time>2020-08-16T11:01:21Z</time><name>PT3256</name></trkpt>
<trkpt lat="53.141376" lon="-3.925307"><ele>700</ele><time>2020-08-16T11:01:23Z</time><name>PT3257</name></trkpt>
<trkpt lat="53.141384" lon="-3.925309"><ele>700</ele><time>2020-08-16T11:01:23Z</time><name>PT3258</name></trkpt>
<trkpt lat="53.141394" lon="-3.925313"><ele>700</ele><time>2020-08-16T11:01:24Z</time><name>PT3259</name></trkpt>
<trkpt lat="53.141403" lon="-3.925320"><ele>700</ele><time>2020-08-16T11:01:26Z</time><name>PT3260</name></trkpt>
<trkpt lat="53.141411" lon="-3.925328"><ele>700</ele><time>2020-08-16T11:01:26Z</time><name>PT3261</name></trkpt>
<trkpt lat="53.141418" lon="-3.925339"><ele>700</ele><time>2020-08-16T11:01:27Z</time><name>PT3262</name></trkpt>
<trkpt lat="53.141422" lon="-3.925348"><ele>700</ele><time>2020-08-16T11:01:29Z</time><name>PT3263</name></trkpt>
<trkpt lat="53.141442" lon="-3.925370"><ele>700</ele><time>2020-08-16T11:01:32Z</time><name>PT3264</name></trkpt>
<trkpt lat="53.141452" lon="-3.925397"><ele>699</ele><time>2020-08-16T11:01:35Z</time><name>PT3265</name></trkpt>
<trkpt lat="53.141462" lon="-3.925419"><ele>699</ele><time>2020-08-16T11:01:38Z</time><name>PT3266</name></trkpt>
<trkpt lat="53.141489" lon="-3.925441"><ele>699</ele><time>2020-08-16T11:01:41Z</time><name>PT3267</name></trkpt>
<trkpt lat="53.141513" lon="-3.925455"><ele>699</ele><time>2020-08-16T11:01:44Z</time><name>PT3268</name></trkpt>
<trkpt lat="53.141528" lon="-3.925466"><ele>698</ele><time>2020-08-16T11:01:47Z</time><name>PT3269</name></trkpt>
<trkpt lat="53.141534" lon="-3.925470"><ele>698</ele><time>2020-08-16T11:01:47Z</time><name>PT3270</name></trkpt>
<trkpt lat="53.141540" lon="-3.925473"><ele>698</ele><time>2020-08-16T11:01:48Z</time><name>PT3271</name></trkpt>
<trkpt lat="53.141545" lon="-3.925478"><ele>698</ele><time>2020-08-16T11:01:50Z</time><name>PT3272</name></trkpt>
<trkpt lat="53.141552" lon="-3.925484"><ele>698</ele><time>2020-08-16T11:01:50Z</time><name>PT3273</name></trkpt>
<trkpt lat="53.141560" lon="-3.925490"><ele>698</ele><time>2020-08-16T11:01:51Z</time><name>PT3274</name></trkpt>
<trkpt lat="53.141567" lon="-3.925495"><ele>698</ele><time>2020-08-16T11:01:53Z</time><name>PT3275</name></trkpt>
<trkpt lat="53.141574" lon="-3.925501"><ele>698</ele><time>2020-08-16T11:01:53Z</time><name>PT3276</name></trkpt>
<trkpt lat="53.141579" lon="-3.925511"><ele>698</ele><time>2020-08-16T11:01:54Z</time><name>PT3277</name></trkpt>
<trkpt lat="53.141585" lon="-3.925515"><ele>698</ele><time>2020-08-16T11:01:56Z</time><name>PT3278</name></trkpt>
<trkpt lat="53.141592" lon="-3.925516"><ele>697</ele><time>2020-08-16T11:01:56Z</time><name>PT3279</name></trkpt>
<trkpt lat="53.141600" lon="-3.925518"><ele>697</ele><time>2020-08-16T11:01:57Z</time><name>PT3280</name></trkpt>
<trkpt lat="53.141609" lon="-3.925524"><ele>698</ele><time>2020-08-16T11:01:59Z</time><name>PT3281</name></trkpt>
<trkpt lat="53.141614" lon="-3.925530"><ele>698</ele><time>2020-08-16T11:01:59Z</time><name>PT3282</name></trkpt>
<trkpt lat="53.141619" lon="-3.925536"><ele>698</ele><time>2020-08-16T11:02:00Z</time><name>PT3283</name></trkpt>
<trkpt lat="53.141624" lon="-3.925541"><ele>698</ele><time>2020-08-16T11:02:02Z</time><name>PT3284</name></trkpt>
<trkpt lat="53.141632" lon="-3.925544"><ele>698</ele><time>2020-08-16T11:02:02Z</time><name>PT3285</name></trkpt>
<trkpt lat="53.141642" lon="-3.925548"><ele>698</ele><time>2020-08-16T11:02:03Z</time><name>PT3286</name></trkpt>
<trkpt lat="53.141649" lon="-3.925552"><ele>698</ele><time>2020-08-16T11:02:05Z</time><name>PT3287</name></trkpt>
<trkpt lat="53.141652" lon="-3.925555"><ele>698</ele><time>2020-08-16T11:02:05Z</time><name>PT3288</name></trkpt>
<trkpt lat="53.141657" lon="-3.925559"><ele>698</ele><time>2020-08-16T11:02:06Z</time><name>PT3289</name></trkpt>
<trkpt lat="53.141664" lon="-3.925564"><ele>698</ele><time>2020-08-16T11:02:08Z</time><name>PT3290</name></trkpt>
<trkpt lat="53.141672" lon="-3.925567"><ele>698</ele><time>2020-08-16T11:02:08Z</time><name>PT3291</name></trkpt>
<trkpt lat="53.141680" lon="-3.925569"><ele>698</ele><time>2020-08-16T11:02:09Z</time><name>PT3292</name></trkpt>
<trkpt lat="53.141689" lon="-3.925572"><ele>698</ele><time>2020-08-16T11:02:11Z</time><name>PT3293</name></trkpt>
<trkpt lat="53.141696" lon="-3.925575"><ele>698</ele><time>2020-08-16T11:02:11Z</time><name>PT3294</name></trkpt>
<trkpt lat="53.141703" lon="-3.925577"><ele>698</ele><time>2020-08-16T11:02:12Z</time><name>PT3295</name></trkpt>
<trkpt lat="53.141713" lon="-3.925579"><ele>698</ele><time>2020-08-16T11:02:14Z</time><name>PT3296</name></trkpt>
<trkpt lat="53.141721" lon="-3.925576"><ele>698</ele><time>2020-08-16T11:02:14Z</time><name>PT3297</name></trkpt>
<trkpt lat="53.141730" lon="-3.925573"><ele>698</ele><time>2020-08-16T11:02:15Z</time><name>PT3298</name></trkpt>
<trkpt lat="53.141737" lon="-3.925573"><ele>698</ele><time>2020-08-16T11:02:17Z</time><name>PT3299</name></trkpt>
<trkpt lat="53.141743" lon="-3.925574"><ele>698</ele><time>2020-08-16T11:02:17Z</time><name>PT3300</name></trkpt>
<trkpt lat="53.141747" lon="-3.925576"><ele>698</ele><time>2020-08-16T11:02:18Z</time><name>PT3301</name></trkpt>
<trkpt lat="53.141754" lon="-3.925575"><ele>698</ele><time>2020-08-16T11:02:20Z</time><name>PT3302</name></trkpt>
<trkpt lat="53.141761" lon="-3.925575"><ele>698</ele><time>2020-08-16T11:02:20Z</time><name>PT3303</name></trkpt>
<trkpt lat="53.141766" lon="-3.925578"><ele>698</ele><time>2020-08-16T11:02:21Z</time><name>PT3304</name></trkpt>
<trkpt lat="53.141768" lon="-3.925585"><ele>698</ele><time>2020-08-16T11:02:23Z</time><name>PT3305</name></trkpt>
<trkpt lat="53.141773" lon="-3.925591"><ele>698</ele><time>2020-08-16T11:02:23Z</time><name>PT3306</name></trkpt>
<trkpt lat="53.141778" lon="-3.925594"><ele>698</ele><time>2020-08-16T11:02:24Z</time><name>PT3307</name></trkpt>
<trkpt lat="53.141784" lon="-3.925597"><ele>697</ele><time>2020-08-16T11:02:26Z</time><name>PT3308</name></trkpt>
<trkpt lat="53.141790" lon="-3.925600"><ele>697</ele><time>2020-08-16T11:02:26Z</time><name>PT3309</name></trkpt>
<trkpt lat="53.141798" lon="-3.925603"><ele>697</ele><time>2020-08-16T11:02:27Z</time><name>PT3310</name></trkpt>
<trkpt lat="53.141805" lon="-3.925607"><ele>697</ele><time>2020-08-16T11:02:29Z</time><name>PT3311</name></trkpt>
<trkpt lat="53.141808" lon="-3.925608"><ele>697</ele><time>2020-08-16T11:02:29Z</time><name>PT3312</name></trkpt>
<trkpt lat="53.141810" lon="-3.925604"><ele>698</ele><time>2020-08-16T11:02:30Z</time><name>PT3313</name></trkpt>
<trkpt lat="53.141814" lon="-3.925601"><ele>698</ele><time>2020-08-16T11:02:32Z</time><name>PT3314</name></trkpt>
<trkpt lat="53.141818" lon="-3.925602"><ele>698</ele><time>2020-08-16T11:02:32Z</time><name>PT3315</name></trkpt>
<trkpt lat="53.141823" lon="-3.925599"><ele>698</ele><time>2020-08-16T11:02:33Z</time><name>PT3316</name></trkpt>
<trkpt lat="53.141828" lon="-3.925597"><ele>698</ele><time>2020-08-16T11:02:35Z</time><name>PT3317</name></trkpt>
<trkpt lat="53.141834" lon="-3.925596"><ele>699</ele><time>2020-08-16T11:02:35Z</time><name>PT3318</name></trkpt>
<trkpt lat="53.141840" lon="-3.925593"><ele>699</ele><time>2020-08-16T11:02:36Z</time><name>PT3319</name></trkpt>
<trkpt lat="53.141845" lon="-3.925588"><ele>699</ele><time>2020-08-16T11:02:38Z</time><name>PT3320</name></trkpt>
<trkpt lat="53.141849" lon="-3.925586"><ele>699</ele><time>2020-08-16T11:02:38Z</time><name>PT3321</name></trkpt>
<trkpt lat="53.141854" lon="-3.925589"><ele>699</ele><time>2020-08-16T11:02:39Z</time><name>PT3322</name></trkpt>
<trkpt lat="53.141858" lon="-3.925595"><ele>699</ele><time>2020-08-16T11:02:41Z</time><name>PT3323</name></trkpt>
<trkpt lat="53.141863" lon="-3.925603"><ele>699</ele><time>2020-08-16T11:02:41Z</time><name>PT3324</name></trkpt>
<trkpt lat="53.141870" lon="-3.925608"><ele>699</ele><time>2020-08-16T11:02:42Z</time><name>PT3325</name></trkpt>
<trkpt lat="53.141874" lon="-3.925616"><ele>699</ele><time>2020-08-16T11:02:44Z</time><name>PT3326</name></trkpt>
<trkpt lat="53.141878" lon="-3.925624"><ele>699</ele><time>2020-08-16T11:02:44Z</time><name>PT3327</name></trkpt>
<trkpt lat="53.141880" lon="-3.925632"><ele>698</ele><time>2020-08-16T11:02:45Z</time><name>PT3328</name></trkpt>
<trkpt lat="53.141884" lon="-3.925638"><ele>698</ele><time>2020-08-16T11:02:47Z</time><name>PT3329</name></trkpt>
<trkpt lat="53.141891" lon="-3.925643"><ele>698</ele><time>2020-08-16T11:02:47Z</time><name>PT3330</name></trkpt>
<trkpt lat="53.141898" lon="-3.925650"><ele>698</ele><time>2020-08-16T11:02:48Z</time><name>PT3331</name></trkpt>
<trkpt lat="53.141905" lon="-3.925656"><ele>698</ele><time>2020-08-16T11:02:50Z</time><name>PT3332</name></trkpt>
<trkpt lat="53.141912" lon="-3.925658"><ele>698</ele><time>2020-08-16T11:02:50Z</time><name>PT3333</name></trkpt>
<trkpt lat="53.141921" lon="-3.925663"><ele>698</ele><time>2020-08-16T11:02:51Z</time><name>PT3334</name></trkpt>
<trkpt lat="53.141930" lon="-3.925667"><ele>698</ele><time>2020-08-16T11:02:53Z</time><name>PT3335</name></trkpt>
<trkpt lat="53.141941" lon="-3.925671"><ele>698</ele><time>2020-08-16T11:02:53Z</time><name>PT3336</name></trkpt>
<trkpt lat="53.141949" lon="-3.925674"><ele>698</ele><time>2020-08-16T11:02:54Z</time><name>PT3337</name></trkpt>
<trkpt lat="53.141955" lon="-3.925679"><ele>699</ele><time>2020-08-16T11:02:56Z</time><name>PT3338</name></trkpt>
<trkpt lat="53.141962" lon="-3.925682"><ele>699</ele><time>2020-08-16T11:02:56Z</time><name>PT3339</name></trkpt>
<trkpt lat="53.141970" lon="-3.925686"><ele>698</ele><time>2020-08-16T11:02:57Z</time><name>PT3340</name></trkpt>
<trkpt lat="53.141980" lon="-3.925689"><ele>698</ele><time>2020-08-16T11:02:59Z</time><name>PT3341</name></trkpt>
<trkpt lat="53.141987" lon="-3.925696"><ele>698</ele><time>2020-08-16T11:02:59Z</time><name>PT3342</name></trkpt>
<trkpt lat="53.141991" lon="-3.925702"><ele>698</ele><time>2020-08-16T11:03:00Z</time><name>PT3343</name></trkpt>
<trkpt lat="53.141993" lon="-3.925706"><ele>698</ele><time>2020-08-16T11:03:02Z</time><name>PT3344</name></trkpt>
<trkpt lat="53.142000" lon="-3.925710"><ele>698</ele><time>2020-08-16T11:03:02Z</time><name>PT3345</name></trkpt>
<trkpt lat="53.142006" lon="-3.925713"><ele>698</ele><time>2020-08-16T11:03:03Z</time><name>PT3346</name></trkpt>
<trkpt lat="53.142010" lon="-3.925716"><ele>698</ele><time>2020-08-16T11:03:05Z</time><name>PT3347</name></trkpt>
<trkpt lat="53.142016" lon="-3.925719"><ele>698</ele><time>2020-08-16T11:03:05Z</time><name>PT3348</name></trkpt>
<trkpt lat="53.142019" lon="-3.925722"><ele>698</ele><time>2020-08-16T11:03:06Z</time><name>PT3349</name></trkpt>
<trkpt lat="53.142023" lon="-3.925723"><ele>699</ele><time>2020-08-16T11:03:08Z</time><name>PT3350</name></trkpt>
<trkpt lat="53.142028" lon="-3.925723"><ele>699</ele><time>2020-08-16T11:03:08Z</time><name>PT3351</name></trkpt>
<trkpt lat="53.142035" lon="-3.925726"><ele>699</ele><time>2020-08-16T11:03:09Z</time><name>PT3352</name></trkpt>
<trkpt lat="53.142039" lon="-3.925730"><ele>699</ele><time>2020-08-16T11:03:11Z</time><name>PT3353</name></trkpt>
<trkpt lat="53.142044" lon="-3.925733"><ele>699</ele><time>2020-08-16T11:03:11Z</time><name>PT3354</name></trkpt>
<trkpt lat="53.142051" lon="-3.925736"><ele>699</ele><time>2020-08-16T11:03:12Z</time><name>PT3355</name></trkpt>
<trkpt lat="53.142056" lon="-3.925737"><ele>699</ele><time>2020-08-16T11:03:14Z</time><name>PT3356</name></trkpt>
<trkpt lat="53.142062" lon="-3.925739"><ele>699</ele><time>2020-08-16T11:03:14Z</time><name>PT3357</name></trkpt>
<trkpt lat="53.142067" lon="-3.925744"><ele>699</ele><time>2020-08-16T11:03:15Z</time><name>PT3358</name></trkpt>
<trkpt lat="53.142074" lon="-3.925747"><ele>699</ele><time>2020-08-16T11:03:17Z</time><name>PT3359</name></trkpt>
<trkpt lat="53.142081" lon="-3.925751"><ele>699</ele><time>2020-08-16T11:03:17Z</time><name>PT3360</name></trkpt>
<trkpt lat="53.142087" lon="-3.925757"><ele>699</ele><time>2020-08-16T11:03:18Z</time><name>PT3361</name></trkpt>
<trkpt lat="53.142096" lon="-3.925760"><ele>699</ele><time>2020-08-16T11:03:20Z</time><name>PT3362</name></trkpt>
<trkpt lat="53.142102" lon="-3.925762"><ele>699</ele><time>2020-08-16T11:03:20Z</time><name>PT3363</name></trkpt>
<trkpt lat="53.142108" lon="-3.925764"><ele>699</ele><time>2020-08-16T11:03:21Z</time><name>PT3364</name></trkpt>
<trkpt lat="53.142116" lon="-3.925769"><ele>699</ele><time>2020-08-16T11:03:23Z</time><name>PT3365</name></trkpt>
<trkpt lat="53.142122" lon="-3.925774"><ele>699</ele><time>2020-08-16T11:03:23Z</time><name>PT3366</name></trkpt>
<trkpt lat="53.142130" lon="-3.925778"><ele>698</ele><time>2020-08-16T11:03:24Z</time><name>PT3367</name></trkpt>
<trkpt lat="53.142135" lon="-3.925781"><ele>698</ele><time>2020-08-16T11:03:26Z</time><name>PT3368</name></trkpt>
<trkpt lat="53.142139" lon="-3.925784"><ele>698</ele><time>2020-08-16T11:03:26Z</time><name>PT3369</name></trkpt>
<trkpt lat="53.142148" lon="-3.925786"><ele>698</ele><time>2020-08-16T11:03:27Z</time><name>PT3370</name></trkpt>
<trkpt lat="53.142155" lon="-3.925789"><ele>698</ele><time>2020-08-16T11:03:29Z</time><name>PT3371</name></trkpt>
<trkpt lat="53.142162" lon="-3.925794"><ele>698</ele><time>2020-08-16T11:03:29Z</time><name>PT3372</name></trkpt>
<trkpt lat="53.142169" lon="-3.925799"><ele>698</ele><time>2020-08-16T11:03:30Z</time><name>PT3373</name></trkpt>
<trkpt lat="53.142177" lon="-3.925806"><ele>698</ele><time>2020-08-16T11:03:32Z</time><name>PT3374</name></trkpt>
<trkpt lat="53.142185" lon="-3.925813"><ele>698</ele><time>2020-08-16T11:03:32Z</time><name>PT3375</name></trkpt>
<trkpt lat="53.142193" lon="-3.925819"><ele>698</ele><time>2020-08-16T11:03:33Z</time><name>PT3376</name></trkpt>
<trkpt lat="53.142198" lon="-3.925827"><ele>698</ele><time>2020-08-16T11:03:35Z</time><name>PT3377</name></trkpt>
<trkpt lat="53.142202" lon="-3.925827"><ele>698</ele><time>2020-08-16T11:03:35Z</time><name>PT3378</name></trkpt>
<trkpt lat="53.142205" lon="-3.925829"><ele>698</ele><time>2020-08-16T11:03:36Z</time><name>PT3379</name></trkpt>
<trkpt lat="53.142210" lon="-3.925832"><ele>699</ele><time>2020-08-16T11:03:38Z</time><name>PT3380</name></trkpt>
<trkpt lat="53.142215" lon="-3.925838"><ele>699</ele><time>2020-08-16T11:03:38Z</time><name>PT3381</name></trkpt>
<trkpt lat="53.142220" lon="-3.925844"><ele>699</ele><time>2020-08-16T11:03:39Z</time><name>PT3382</name></trkpt>
<trkpt lat="53.142229" lon="-3.925849"><ele>699</ele><time>2020-08-16T11:03:41Z</time><name>PT3383</name></trkpt>
<trkpt lat="53.142235" lon="-3.925853"><ele>699</ele><time>2020-08-16T11:03:41Z</time><name>PT3384</name></trkpt>
<trkpt lat="53.142239" lon="-3.925857"><ele>699</ele><time>2020-08-16T11:03:42Z</time><name>PT3385</name></trkpt>
<trkpt lat="53.142246" lon="-3.925860"><ele>699</ele><time>2020-08-16T11:03:44Z</time><name>PT3386</name></trkpt>
<trkpt lat="53.142256" lon="-3.925862"><ele>699</ele><time>2020-08-16T11:03:44Z</time><name>PT3387</name></trkpt>
<trkpt lat="53.142265" lon="-3.925865"><ele>699</ele><time>2020-08-16T11:03:45Z</time><name>PT3388</name></trkpt>
<trkpt lat="53.142272" lon="-3.925868"><ele>699</ele><time>2020-08-16T11:03:47Z</time><name>PT3389</name></trkpt>
<trkpt lat="53.142277" lon="-3.925869"><ele>699</ele><time>2020-08-16T11:03:47Z</time><name>PT3390</name></trkpt>
<trkpt lat="53.142284" lon="-3.925871"><ele>699</ele><time>2020-08-16T11:03:48Z</time><name>PT3391</name></trkpt>
<trkpt lat="53.142293" lon="-3.925873"><ele>699</ele><time>2020-08-16T11:03:50Z</time><name>PT3392</name></trkpt>
<trkpt lat="53.142300" lon="-3.925877"><ele>699</ele><time>2020-08-16T11:03:50Z</time><name>PT3393</name></trkpt>
<trkpt lat="53.142305" lon="-3.925884"><ele>699</ele><time>2020-08-16T11:03:51Z</time><name>PT3394</name></trkpt>
<trkpt lat="53.142312" lon="-3.925888"><ele>699</ele><time>2020-08-16T11:03:53Z</time><name>PT3395</name></trkpt>
<trkpt lat="53.142319" lon="-3.925892"><ele>699</ele><time>2020-08-16T11:03:53Z</time><name>PT3396</name></trkpt>
<trkpt lat="53.142326" lon="-3.925895"><ele>699</ele><time>2020-08-16T11:03:54Z</time><name>PT3397</name></trkpt>
<trkpt lat="53.142334" lon="-3.925898"><ele>699</ele><time>2020-08-16T11:03:56Z</time><name>PT3398</name></trkpt>
<trkpt lat="53.142344" lon="-3.925904"><ele>699</ele><time>2020-08-16T11:03:56Z</time><name>PT3399</name></trkpt>
<trkpt lat="53.142352" lon="-3.925909"><ele>699</ele><time>2020-08-16T11:03:57Z</time><name>PT3400</name></trkpt>
<trkpt lat="53.142357" lon="-3.925914"><ele>699</ele><time>2020-08-16T11:03:59Z</time><name>PT3401</name></trkpt>
<trkpt lat="53.142361" lon="-3.925922"><ele>699</ele><time>2020-08-16T11:03:59Z</time><name>PT3402</name></trkpt>
<trkpt lat="53.142364" lon="-3.925931"><ele>698</ele><time>2020-08-16T11:04:00Z</time><name>PT3403</name></trkpt>
<trkpt lat="53.142367" lon="-3.925939"><ele>698</ele><time>2020-08-16T11:04:02Z</time><name>PT3404</name></trkpt>
<trkpt lat="53.142374" lon="-3.925944"><ele>698</ele><time>2020-08-16T11:04:02Z</time><name>PT3405</name></trkpt>
<trkpt lat="53.142382" lon="-3.925948"><ele>698</ele><time>2020-08-16T11:04:03Z</time><name>PT3406</name></trkpt>
<trkpt lat="53.142391" lon="-3.925954"><ele>698</ele><time>2020-08-16T11:04:05Z</time><name>PT3407</name></trkpt>
<trkpt lat="53.142398" lon="-3.925959"><ele>699</ele><time>2020-08-16T11:04:05Z</time><name>PT3408</name></trkpt>
<trkpt lat="53.142405" lon="-3.925960"><ele>699</ele><time>2020-08-16T11:04:06Z</time><name>PT3409</name></trkpt>
<trkpt lat="53.142410" lon="-3.925960"><ele>699</ele><time>2020-08-16T11:04:08Z</time><name>PT3410</name></trkpt>
<trkpt lat="53.142413" lon="-3.925963"><ele>699</ele><time>2020-08-16T11:04:08Z</time><name>PT3411</name></trkpt>
<trkpt lat="53.142418" lon="-3.925968"><ele>699</ele><time>2020-08-16T11:04:09Z</time><name>PT3412</name></trkpt>
<trkpt lat="53.142425" lon="-3.925972"><ele>699</ele><time>2020-08-16T11:04:11Z</time><name>PT3413</name></trkpt>
<trkpt lat="53.142433" lon="-3.925976"><ele>699</ele><time>2020-08-16T11:04:11Z</time><name>PT3414</name></trkpt>
<trkpt lat="53.142441" lon="-3.925980"><ele>699</ele><time>2020-08-16T11:04:12Z</time><name>PT3415</name></trkpt>
<trkpt lat="53.142447" lon="-3.925983"><ele>699</ele><time>2020-08-16T11:04:14Z</time><name>PT3416</name></trkpt>
<trkpt lat="53.142454" lon="-3.925979"><ele>699</ele><time>2020-08-16T11:04:14Z</time><name>PT3417</name></trkpt>
<trkpt lat="53.142462" lon="-3.925978"><ele>699</ele><time>2020-08-16T11:04:15Z</time><name>PT3418</name></trkpt>
<trkpt lat="53.142470" lon="-3.925978"><ele>699</ele><time>2020-08-16T11:04:17Z</time><name>PT3419</name></trkpt>
<trkpt lat="53.142475" lon="-3.925979"><ele>699</ele><time>2020-08-16T11:04:17Z</time><name>PT3420</name></trkpt>
<trkpt lat="53.142482" lon="-3.925983"><ele>699</ele><time>2020-08-16T11:04:18Z</time><name>PT3421</name></trkpt>
<trkpt lat="53.142490" lon="-3.925986"><ele>699</ele><time>2020-08-16T11:04:20Z</time><name>PT3422</name></trkpt>
<trkpt lat="53.142498" lon="-3.925988"><ele>699</ele><time>2020-08-16T11:04:20Z</time><name>PT3423</name></trkpt>
<trkpt lat="53.142506" lon="-3.925993"><ele>699</ele><time>2020-08-16T11:04:21Z</time><name>PT3424</name></trkpt>
<trkpt lat="53.142515" lon="-3.925998"><ele>699</ele><time>2020-08-16T11:04:23Z</time><name>PT3425</name></trkpt>
<trkpt lat="53.142521" lon="-3.926004"><ele>699</ele><time>2020-08-16T11:04:23Z</time><name>PT3426</name></trkpt>
<trkpt lat="53.142528" lon="-3.926011"><ele>699</ele><time>2020-08-16T11:04:24Z</time><name>PT3427</name></trkpt>
<trkpt lat="53.142535" lon="-3.926018"><ele>699</ele><time>2020-08-16T11:04:26Z</time><name>PT3428</name></trkpt>
<trkpt lat="53.142542" lon="-3.926025"><ele>699</ele><time>2020-08-16T11:04:26Z</time><name>PT3429</name></trkpt>
<trkpt lat="53.142548" lon="-3.926031"><ele>699</ele><time>2020-08-16T11:04:27Z</time><name>PT3430</name></trkpt>
<trkpt lat="53.142552" lon="-3.926036"><ele>699</ele><time>2020-08-16T11:04:29Z</time><name>PT3431</name></trkpt>
<trkpt lat="53.142557" lon="-3.926037"><ele>699</ele><time>2020-08-16T11:04:29Z</time><name>PT3432</name></trkpt>
<trkpt lat="53.142563" lon="-3.926038"><ele>699</ele><time>2020-08-16T11:04:30Z</time><name>PT3433</name></trkpt>
<trkpt lat="53.142568" lon="-3.926041"><ele>699</ele><time>2020-08-16T11:04:32Z</time><name>PT3434</name></trkpt>
<trkpt lat="53.142572" lon="-3.926042"><ele>699</ele><time>2020-08-16T11:04:32Z</time><name>PT3435</name></trkpt>
<trkpt lat="53.142578" lon="-3.926044"><ele>699</ele><time>2020-08-16T11:04:33Z</time><name>PT3436</name></trkpt>
<trkpt lat="53.142586" lon="-3.926046"><ele>699</ele><time>2020-08-16T11:04:35Z</time><name>PT3437</name></trkpt>
<trkpt lat="53.142595" lon="-3.926046"><ele>699</ele><time>2020-08-16T11:04:35Z</time><name>PT3438</name></trkpt>
<trkpt lat="53.142602" lon="-3.926040"><ele>699</ele><time>2020-08-16T11:04:36Z</time><name>PT3439</name></trkpt>
<trkpt lat="53.142609" lon="-3.926038"><ele>699</ele><time>2020-08-16T11:04:38Z</time><name>PT3440</name></trkpt>
<trkpt lat="53.142614" lon="-3.926037"><ele>700</ele><time>2020-08-16T11:04:38Z</time><name>PT3441</name></trkpt>
<trkpt lat="53.142619" lon="-3.926036"><ele>700</ele><time>2020-08-16T11:04:39Z</time><name>PT3442</name></trkpt>
<trkpt lat="53.142623" lon="-3.926038"><ele>700</ele><time>2020-08-16T11:04:41Z</time><name>PT3443</name></trkpt>
<trkpt lat="53.142629" lon="-3.926042"><ele>700</ele><time>2020-08-16T11:04:41Z</time><name>PT3444</name></trkpt>
<trkpt lat="53.142637" lon="-3.926045"><ele>700</ele><time>2020-08-16T11:04:42Z</time><name>PT3445</name></trkpt>
<trkpt lat="53.142644" lon="-3.926047"><ele>700</ele><time>2020-08-16T11:04:44Z</time><name>PT3446</name></trkpt>
<trkpt lat="53.142643" lon="-3.926050"><ele>699</ele><time>2020-08-16T11:04:44Z</time><name>PT3447</name></trkpt>
<trkpt lat="53.142643" lon="-3.926054"><ele>699</ele><time>2020-08-16T11:04:45Z</time><name>PT3448</name></trkpt>
<trkpt lat="53.142642" lon="-3.926057"><ele>698</ele><time>2020-08-16T11:04:48Z</time><name>PT3449</name></trkpt>
<trkpt lat="53.142660" lon="-3.926063"><ele>698</ele><time>2020-08-16T11:04:51Z</time><name>PT3450</name></trkpt>
<trkpt lat="53.142686" lon="-3.926082"><ele>698</ele><time>2020-08-16T11:04:56Z</time><name>PT3451</name></trkpt>
<trkpt lat="53.142704" lon="-3.926092"><ele>698</ele><time>2020-08-16T11:04:59Z</time><name>PT3452</name></trkpt>
<trkpt lat="53.142712" lon="-3.926094"><ele>698</ele><time>2020-08-16T11:04:59Z</time><name>PT3453</name></trkpt>
<trkpt lat="53.142719" lon="-3.926099"><ele>698</ele><time>2020-08-16T11:05:00Z</time><name>PT3454</name></trkpt>
<trkpt lat="53.142727" lon="-3.926104"><ele>698</ele><time>2020-08-16T11:05:02Z</time><name>PT3455</name></trkpt>
<trkpt lat="53.142735" lon="-3.926106"><ele>698</ele><time>2020-08-16T11:05:02Z</time><name>PT3456</name></trkpt>
<trkpt lat="53.142740" lon="-3.926105"><ele>698</ele><time>2020-08-16T11:05:03Z</time><name>PT3457</name></trkpt>
<trkpt lat="53.142746" lon="-3.926109"><ele>699</ele><time>2020-08-16T11:05:05Z</time><name>PT3458</name></trkpt>
<trkpt lat="53.142753" lon="-3.926116"><ele>698</ele><time>2020-08-16T11:05:05Z</time><name>PT3459</name></trkpt>
<trkpt lat="53.142758" lon="-3.926121"><ele>698</ele><time>2020-08-16T11:05:06Z</time><name>PT3460</name></trkpt>
<trkpt lat="53.142765" lon="-3.926126"><ele>698</ele><time>2020-08-16T11:05:08Z</time><name>PT3461</name></trkpt>
<trkpt lat="53.142773" lon="-3.926131"><ele>698</ele><time>2020-08-16T11:05:08Z</time><name>PT3462</name></trkpt>
<trkpt lat="53.142782" lon="-3.926136"><ele>698</ele><time>2020-08-16T11:05:09Z</time><name>PT3463</name></trkpt>
<trkpt lat="53.142791" lon="-3.926140"><ele>698</ele><time>2020-08-16T11:05:11Z</time><name>PT3464</name></trkpt>
<trkpt lat="53.142796" lon="-3.926146"><ele>698</ele><time>2020-08-16T11:05:11Z</time><name>PT3465</name></trkpt>
<trkpt lat="53.142804" lon="-3.926155"><ele>698</ele><time>2020-08-16T11:05:12Z</time><name>PT3466</name></trkpt>
<trkpt lat="53.142811" lon="-3.926160"><ele>699</ele><time>2020-08-16T11:05:14Z</time><name>PT3467</name></trkpt>
<trkpt lat="53.142818" lon="-3.926165"><ele>699</ele><time>2020-08-16T11:05:14Z</time><name>PT3468</name></trkpt>
<trkpt lat="53.142827" lon="-3.926172"><ele>699</ele><time>2020-08-16T11:05:15Z</time><name>PT3469</name></trkpt>
<trkpt lat="53.142835" lon="-3.926178"><ele>699</ele><time>2020-08-16T11:05:17Z</time><name>PT3470</name></trkpt>
<trkpt lat="53.142841" lon="-3.926184"><ele>699</ele><time>2020-08-16T11:05:17Z</time><name>PT3471</name></trkpt>
<trkpt lat="53.142847" lon="-3.926189"><ele>699</ele><time>2020-08-16T11:05:18Z</time><name>PT3472</name></trkpt>
<trkpt lat="53.142852" lon="-3.926195"><ele>699</ele><time>2020-08-16T11:05:20Z</time><name>PT3473</name></trkpt>
<trkpt lat="53.142859" lon="-3.926201"><ele>699</ele><time>2020-08-16T11:05:20Z</time><name>PT3474</name></trkpt>
<trkpt lat="53.142867" lon="-3.926207"><ele>699</ele><time>2020-08-16T11:05:21Z</time><name>PT3475</name></trkpt>
<trkpt lat="53.142874" lon="-3.926213"><ele>699</ele><time>2020-08-16T11:05:23Z</time><name>PT3476</name></trkpt>
<trkpt lat="53.142879" lon="-3.926218"><ele>699</ele><time>2020-08-16T11:05:23Z</time><name>PT3477</name></trkpt>
<trkpt lat="53.142883" lon="-3.926225"><ele>699</ele><time>2020-08-16T11:05:24Z</time><name>PT3478</name></trkpt>
<trkpt lat="53.142889" lon="-3.926229"><ele>699</ele><time>2020-08-16T11:05:26Z</time><name>PT3479</name></trkpt>
<trkpt lat="53.142896" lon="-3.926235"><ele>698</ele><time>2020-08-16T11:05:26Z</time><name>PT3480</name></trkpt>
<trkpt lat="53.142904" lon="-3.926242"><ele>698</ele><time>2020-08-16T11:05:27Z</time><name>PT3481</name></trkpt>
<trkpt lat="53.142909" lon="-3.926248"><ele>698</ele><time>2020-08-16T11:05:29Z</time><name>PT3482</name></trkpt>
<trkpt lat="53.142916" lon="-3.926255"><ele>698</ele><time>2020-08-16T11:05:29Z</time><name>PT3483</name></trkpt>
<trkpt lat="53.142925" lon="-3.926259"><ele>698</ele><time>2020-08-16T11:05:30Z</time><name>PT3484</name></trkpt>
<trkpt lat="53.142934" lon="-3.926261"><ele>699</ele><time>2020-08-16T11:05:32Z</time><name>PT3485</name></trkpt>
<trkpt lat="53.142942" lon="-3.926265"><ele>699</ele><time>2020-08-16T11:05:32Z</time><name>PT3486</name></trkpt>
<trkpt lat="53.142949" lon="-3.926271"><ele>699</ele><time>2020-08-16T11:05:33Z</time><name>PT3487</name></trkpt>
<trkpt lat="53.142956" lon="-3.926275"><ele>699</ele><time>2020-08-16T11:05:35Z</time><name>PT3488</name></trkpt>
<trkpt lat="53.142964" lon="-3.926281"><ele>699</ele><time>2020-08-16T11:05:35Z</time><name>PT3489</name></trkpt>
<trkpt lat="53.142970" lon="-3.926288"><ele>699</ele><time>2020-08-16T11:05:36Z</time><name>PT3490</name></trkpt>
<trkpt lat="53.142978" lon="-3.926294"><ele>699</ele><time>2020-08-16T11:05:38Z</time><name>PT3491</name></trkpt>
<trkpt lat="53.142986" lon="-3.926302"><ele>699</ele><time>2020-08-16T11:05:38Z</time><name>PT3492</name></trkpt>
<trkpt lat="53.142991" lon="-3.926307"><ele>699</ele><time>2020-08-16T11:05:39Z</time><name>PT3493</name></trkpt>
<trkpt lat="53.142999" lon="-3.926313"><ele>699</ele><time>2020-08-16T11:05:41Z</time><name>PT3494</name></trkpt>
<trkpt lat="53.143007" lon="-3.926317"><ele>699</ele><time>2020-08-16T11:05:41Z</time><name>PT3495</name></trkpt>
<trkpt lat="53.143013" lon="-3.926321"><ele>699</ele><time>2020-08-16T11:05:42Z</time><name>PT3496</name></trkpt>
<trkpt lat="53.143018" lon="-3.926327"><ele>699</ele><time>2020-08-16T11:05:44Z</time><name>PT3497</name></trkpt>
<trkpt lat="53.143026" lon="-3.926332"><ele>699</ele><time>2020-08-16T11:05:44Z</time><name>PT3498</name></trkpt>
<trkpt lat="53.143037" lon="-3.926339"><ele>699</ele><time>2020-08-16T11:05:45Z</time><name>PT3499</name></trkpt>
<trkpt lat="53.143046" lon="-3.926345"><ele>699</ele><time>2020-08-16T11:05:47Z</time><name>PT3500</name></trkpt>
<trkpt lat="53.143055" lon="-3.926348"><ele>699</ele><time>2020-08-16T11:05:47Z</time><name>PT3501</name></trkpt>
<trkpt lat="53.143064" lon="-3.926355"><ele>699</ele><time>2020-08-16T11:05:48Z</time><name>PT3502</name></trkpt>
<trkpt lat="53.143071" lon="-3.926366"><ele>699</ele><time>2020-08-16T11:05:50Z</time><name>PT3503</name></trkpt>
<trkpt lat="53.143077" lon="-3.926372"><ele>699</ele><time>2020-08-16T11:05:50Z</time><name>PT3504</name></trkpt>
<trkpt lat="53.143083" lon="-3.926375"><ele>699</ele><time>2020-08-16T11:05:51Z</time><name>PT3505</name></trkpt>
<trkpt lat="53.143087" lon="-3.926380"><ele>699</ele><time>2020-08-16T11:05:53Z</time><name>PT3506</name></trkpt>
<trkpt lat="53.143091" lon="-3.926388"><ele>699</ele><time>2020-08-16T11:05:53Z</time><name>PT3507</name></trkpt>
<trkpt lat="53.143094" lon="-3.926393"><ele>699</ele><time>2020-08-16T11:05:54Z</time><name>PT3508</name></trkpt>
<trkpt lat="53.143096" lon="-3.926399"><ele>699</ele><time>2020-08-16T11:05:56Z</time><name>PT3509</name></trkpt>
<trkpt lat="53.143100" lon="-3.926402"><ele>699</ele><time>2020-08-16T11:05:56Z</time><name>PT3510</name></trkpt>
<trkpt lat="53.143104" lon="-3.926406"><ele>699</ele><time>2020-08-16T11:05:57Z</time><name>PT3511</name></trkpt>
<trkpt lat="53.143108" lon="-3.926410"><ele>699</ele><time>2020-08-16T11:05:59Z</time><name>PT3512</name></trkpt>
<trkpt lat="53.143110" lon="-3.926417"><ele>698</ele><time>2020-08-16T11:05:59Z</time><name>PT3513</name></trkpt>
<trkpt lat="53.143115" lon="-3.926422"><ele>698</ele><time>2020-08-16T11:06:00Z</time><name>PT3514</name></trkpt>
<trkpt lat="53.143121" lon="-3.926426"><ele>698</ele><time>2020-08-16T11:06:02Z</time><name>PT3515</name></trkpt>
<trkpt lat="53.143129" lon="-3.926434"><ele>698</ele><time>2020-08-16T11:06:02Z</time><name>PT3516</name></trkpt>
<trkpt lat="53.143135" lon="-3.926441"><ele>698</ele><time>2020-08-16T11:06:03Z</time><name>PT3517</name></trkpt>
<trkpt lat="53.143141" lon="-3.926447"><ele>698</ele><time>2020-08-16T11:06:05Z</time><name>PT3518</name></trkpt>
<trkpt lat="53.143146" lon="-3.926453"><ele>698</ele><time>2020-08-16T11:06:05Z</time><name>PT3519</name></trkpt>
<trkpt lat="53.143150" lon="-3.926458"><ele>698</ele><time>2020-08-16T11:06:06Z</time><name>PT3520</name></trkpt>
<trkpt lat="53.143155" lon="-3.926465"><ele>698</ele><time>2020-08-16T11:06:08Z</time><name>PT3521</name></trkpt>
<trkpt lat="53.143163" lon="-3.926474"><ele>698</ele><time>2020-08-16T11:06:08Z</time><name>PT3522</name></trkpt>
<trkpt lat="53.143172" lon="-3.926480"><ele>698</ele><time>2020-08-16T11:06:09Z</time><name>PT3523</name></trkpt>
<trkpt lat="53.143178" lon="-3.926485"><ele>698</ele><time>2020-08-16T11:06:11Z</time><name>PT3524</name></trkpt>
<trkpt lat="53.143185" lon="-3.926488"><ele>697</ele><time>2020-08-16T11:06:11Z</time><name>PT3525</name></trkpt>
<trkpt lat="53.143191" lon="-3.926491"><ele>697</ele><time>2020-08-16T11:06:12Z</time><name>PT3526</name></trkpt>
<trkpt lat="53.143197" lon="-3.926496"><ele>697</ele><time>2020-08-16T11:06:14Z</time><name>PT3527</name></trkpt>
<trkpt lat="53.143203" lon="-3.926503"><ele>697</ele><time>2020-08-16T11:06:14Z</time><name>PT3528</name></trkpt>
<trkpt lat="53.143210" lon="-3.926512"><ele>697</ele><time>2020-08-16T11:06:15Z</time><name>PT3529</name></trkpt>
<trkpt lat="53.143217" lon="-3.926520"><ele>697</ele><time>2020-08-16T11:06:17Z</time><name>PT3530</name></trkpt>
<trkpt lat="53.143222" lon="-3.926529"><ele>697</ele><time>2020-08-16T11:06:17Z</time><name>PT3531</name></trkpt>
<trkpt lat="53.143226" lon="-3.926535"><ele>696</ele><time>2020-08-16T11:06:18Z</time><name>PT3532</name></trkpt>
<trkpt lat="53.143231" lon="-3.926538"><ele>696</ele><time>2020-08-16T11:06:20Z</time><name>PT3533</name></trkpt>
<trkpt lat="53.143237" lon="-3.926540"><ele>696</ele><time>2020-08-16T11:06:20Z</time><name>PT3534</name></trkpt>
<trkpt lat="53.143247" lon="-3.926545"><ele>696</ele><time>2020-08-16T11:06:21Z</time><name>PT3535</name></trkpt>
<trkpt lat="53.143256" lon="-3.926550"><ele>696</ele><time>2020-08-16T11:06:23Z</time><name>PT3536</name></trkpt>
<trkpt lat="53.143263" lon="-3.926553"><ele>696</ele><time>2020-08-16T11:06:23Z</time><name>PT3537</name></trkpt>
<trkpt lat="53.143270" lon="-3.926557"><ele>696</ele><time>2020-08-16T11:06:24Z</time><name>PT3538</name></trkpt>
<trkpt lat="53.143276" lon="-3.926563"><ele>696</ele><time>2020-08-16T11:06:26Z</time><name>PT3539</name></trkpt>
<trkpt lat="53.143283" lon="-3.926572"><ele>696</ele><time>2020-08-16T11:06:26Z</time><name>PT3540</name></trkpt>
<trkpt lat="53.143290" lon="-3.926580"><ele>696</ele><time>2020-08-16T11:06:27Z</time><name>PT3541</name></trkpt>
<trkpt lat="53.143298" lon="-3.926587"><ele>696</ele><time>2020-08-16T11:06:29Z</time><name>PT3542</name></trkpt>
<trkpt lat="53.143303" lon="-3.926590"><ele>696</ele><time>2020-08-16T11:06:29Z</time><name>PT3543</name></trkpt>
<trkpt lat="53.143307" lon="-3.926592"><ele>696</ele><time>2020-08-16T11:06:30Z</time><name>PT3544</name></trkpt>
<trkpt lat="53.143316" lon="-3.926595"><ele>696</ele><time>2020-08-16T11:06:32Z</time><name>PT3545</name></trkpt>
<trkpt lat="53.143324" lon="-3.926597"><ele>696</ele><time>2020-08-16T11:06:32Z</time><name>PT3546</name></trkpt>
<trkpt lat="53.143333" lon="-3.926598"><ele>696</ele><time>2020-08-16T11:06:33Z</time><name>PT3547</name></trkpt>
<trkpt lat="53.143339" lon="-3.926604"><ele>696</ele><time>2020-08-16T11:06:35Z</time><name>PT3548</name></trkpt>
<trkpt lat="53.143347" lon="-3.926613"><ele>696</ele><time>2020-08-16T11:06:35Z</time><name>PT3549</name></trkpt>
<trkpt lat="53.143353" lon="-3.926624"><ele>696</ele><time>2020-08-16T11:06:36Z</time><name>PT3550</name></trkpt>
<trkpt lat="53.143358" lon="-3.926633"><ele>696</ele><time>2020-08-16T11:06:38Z</time><name>PT3551</name></trkpt>
<trkpt lat="53.143362" lon="-3.926643"><ele>696</ele><time>2020-08-16T11:06:38Z</time><name>PT3552</name></trkpt>
<trkpt lat="53.143365" lon="-3.926648"><ele>696</ele><time>2020-08-16T11:06:39Z</time><name>PT3553</name></trkpt>
<trkpt lat="53.143367" lon="-3.926651"><ele>696</ele><time>2020-08-16T11:06:41Z</time><name>PT3554</name></trkpt>
<trkpt lat="53.143372" lon="-3.926650"><ele>696</ele><time>2020-08-16T11:06:41Z</time><name>PT3555</name></trkpt>
<trkpt lat="53.143376" lon="-3.926652"><ele>696</ele><time>2020-08-16T11:06:42Z</time><name>PT3556</name></trkpt>
<trkpt lat="53.143380" lon="-3.926655"><ele>696</ele><time>2020-08-16T11:06:44Z</time><name>PT3557</name></trkpt>
<trkpt lat="53.143385" lon="-3.926656"><ele>696</ele><time>2020-08-16T11:06:44Z</time><name>PT3558</name></trkpt>
<trkpt lat="53.143393" lon="-3.926659"><ele>696</ele><time>2020-08-16T11:06:45Z</time><name>PT3559</name></trkpt>
<trkpt lat="53.143403" lon="-3.926661"><ele>696</ele><time>2020-08-16T11:06:47Z</time><name>PT3560</name></trkpt>
<trkpt lat="53.143412" lon="-3.926664"><ele>697</ele><time>2020-08-16T11:06:47Z</time><name>PT3561</name></trkpt>
<trkpt lat="53.143418" lon="-3.926664"><ele>697</ele><time>2020-08-16T11:06:48Z</time><name>PT3562</name></trkpt>
<trkpt lat="53.143425" lon="-3.926660"><ele>697</ele><time>2020-08-16T11:06:50Z</time><name>PT3563</name></trkpt>
<trkpt lat="53.143430" lon="-3.926659"><ele>697</ele><time>2020-08-16T11:06:50Z</time><name>PT3564</name></trkpt>
<trkpt lat="53.143437" lon="-3.926664"><ele>697</ele><time>2020-08-16T11:06:51Z</time><name>PT3565</name></trkpt>
<trkpt lat="53.143446" lon="-3.926670"><ele>697</ele><time>2020-08-16T11:06:53Z</time><name>PT3566</name></trkpt>
<trkpt lat="53.143456" lon="-3.926676"><ele>697</ele><time>2020-08-16T11:06:53Z</time><name>PT3567</name></trkpt>
<trkpt lat="53.143464" lon="-3.926680"><ele>697</ele><time>2020-08-16T11:06:54Z</time><name>PT3568</name></trkpt>
<trkpt lat="53.143472" lon="-3.926685"><ele>697</ele><time>2020-08-16T11:06:56Z</time><name>PT3569</name></trkpt>
<trkpt lat="53.143477" lon="-3.926688"><ele>697</ele><time>2020-08-16T11:06:56Z</time><name>PT3570</name></trkpt>
<trkpt lat="53.143484" lon="-3.926689"><ele>698</ele><time>2020-08-16T11:06:57Z</time><name>PT3571</name></trkpt>
<trkpt lat="53.143489" lon="-3.926691"><ele>698</ele><time>2020-08-16T11:06:59Z</time><name>PT3572</name></trkpt>
<trkpt lat="53.143495" lon="-3.926693"><ele>698</ele><time>2020-08-16T11:06:59Z</time><name>PT3573</name></trkpt>
<trkpt lat="53.143502" lon="-3.926691"><ele>698</ele><time>2020-08-16T11:07:00Z</time><name>PT3574</name></trkpt>
<trkpt lat="53.143507" lon="-3.926693"><ele>698</ele><time>2020-08-16T11:07:02Z</time><name>PT3575</name></trkpt>
<trkpt lat="53.143511" lon="-3.926698"><ele>698</ele><time>2020-08-16T11:07:02Z</time><name>PT3576</name></trkpt>
<trkpt lat="53.143517" lon="-3.926705"><ele>698</ele><time>2020-08-16T11:07:03Z</time><name>PT3577</name></trkpt>
<trkpt lat="53.143524" lon="-3.926707"><ele>698</ele><time>2020-08-16T11:07:05Z</time><name>PT3578</name></trkpt>
<trkpt lat="53.143529" lon="-3.926708"><ele>698</ele><time>2020-08-16T11:07:05Z</time><name>PT3579</name></trkpt>
<trkpt lat="53.143536" lon="-3.926709"><ele>698</ele><time>2020-08-16T11:07:06Z</time><name>PT3580</name></trkpt>
<trkpt lat="53.143544" lon="-3.926710"><ele>698</ele><time>2020-08-16T11:07:08Z</time><name>PT3581</name></trkpt>
<trkpt lat="53.143550" lon="-3.926716"><ele>698</ele><time>2020-08-16T11:07:08Z</time><name>PT3582</name></trkpt>
<trkpt lat="53.143555" lon="-3.926722"><ele>698</ele><time>2020-08-16T11:07:09Z</time><name>PT3583</name></trkpt>
<trkpt lat="53.143562" lon="-3.926732"><ele>697</ele><time>2020-08-16T11:07:11Z</time><name>PT3584</name></trkpt>
<trkpt lat="53.143569" lon="-3.926744"><ele>697</ele><time>2020-08-16T11:07:11Z</time><name>PT3585</name></trkpt>
<trkpt lat="53.143575" lon="-3.926752"><ele>697</ele><time>2020-08-16T11:07:12Z</time><name>PT3586</name></trkpt>
<trkpt lat="53.143581" lon="-3.926760"><ele>697</ele><time>2020-08-16T11:07:14Z</time><name>PT3587</name></trkpt>
<trkpt lat="53.143585" lon="-3.926765"><ele>697</ele><time>2020-08-16T11:07:14Z</time><name>PT3588</name></trkpt>
<trkpt lat="53.143591" lon="-3.926772"><ele>697</ele><time>2020-08-16T11:07:15Z</time><name>PT3589</name></trkpt>
<trkpt lat="53.143596" lon="-3.926779"><ele>697</ele><time>2020-08-16T11:07:17Z</time><name>PT3590</name></trkpt>
<trkpt lat="53.143601" lon="-3.926786"><ele>697</ele><time>2020-08-16T11:07:17Z</time><name>PT3591</name></trkpt>
<trkpt lat="53.143608" lon="-3.926792"><ele>697</ele><time>2020-08-16T11:07:18Z</time><name>PT3592</name></trkpt>
<trkpt lat="53.143617" lon="-3.926797"><ele>697</ele><time>2020-08-16T11:07:20Z</time><name>PT3593</name></trkpt>
<trkpt lat="53.143625" lon="-3.926801"><ele>697</ele><time>2020-08-16T11:07:20Z</time><name>PT3594</name></trkpt>
<trkpt lat="53.143633" lon="-3.926806"><ele>697</ele><time>2020-08-16T11:07:21Z</time><name>PT3595</name></trkpt>
<trkpt lat="53.143640" lon="-3.926808"><ele>698</ele><time>2020-08-16T11:07:23Z</time><name>PT3596</name></trkpt>
<trkpt lat="53.143644" lon="-3.926812"><ele>698</ele><time>2020-08-16T11:07:23Z</time><name>PT3597</name></trkpt>
<trkpt lat="53.143649" lon="-3.926818"><ele>698</ele><time>2020-08-16T11:07:24Z</time><name>PT3598</name></trkpt>
<trkpt lat="53.143655" lon="-3.926825"><ele>698</ele><time>2020-08-16T11:07:26Z</time><name>PT3599</name></trkpt>
<trkpt lat="53.143662" lon="-3.926831"><ele>698</ele><time>2020-08-16T11:07:26Z</time><name>PT3600</name></trkpt>
<trkpt lat="53.143668" lon="-3.926839"><ele>697</ele><time>2020-08-16T11:07:27Z</time><name>PT3601</name></trkpt>
<trkpt lat="53.143674" lon="-3.926846"><ele>697</ele><time>2020-08-16T11:07:29Z</time><name>PT3602</name></trkpt>
<trkpt lat="53.143683" lon="-3.926851"><ele>697</ele><time>2020-08-16T11:07:29Z</time><name>PT3603</name></trkpt>
<trkpt lat="53.143692" lon="-3.926858"><ele>697</ele><time>2020-08-16T11:07:30Z</time><name>PT3604</name></trkpt>
<trkpt lat="53.143702" lon="-3.926865"><ele>697</ele><time>2020-08-16T11:07:32Z</time><name>PT3605</name></trkpt>
<trkpt lat="53.143712" lon="-3.926872"><ele>697</ele><time>2020-08-16T11:07:32Z</time><name>PT3606</name></trkpt>
<trkpt lat="53.143719" lon="-3.926877"><ele>697</ele><time>2020-08-16T11:07:33Z</time><name>PT3607</name></trkpt>
<trkpt lat="53.143725" lon="-3.926884"><ele>697</ele><time>2020-08-16T11:07:35Z</time><name>PT3608</name></trkpt>
<trkpt lat="53.143732" lon="-3.926892"><ele>697</ele><time>2020-08-16T11:07:35Z</time><name>PT3609</name></trkpt>
<trkpt lat="53.143739" lon="-3.926899"><ele>697</ele><time>2020-08-16T11:07:36Z</time><name>PT3610</name></trkpt>
<trkpt lat="53.143747" lon="-3.926905"><ele>697</ele><time>2020-08-16T11:07:38Z</time><name>PT3611</name></trkpt>
<trkpt lat="53.143754" lon="-3.926909"><ele>697</ele><time>2020-08-16T11:07:38Z</time><name>PT3612</name></trkpt>
<trkpt lat="53.143761" lon="-3.926912"><ele>697</ele><time>2020-08-16T11:07:39Z</time><name>PT3613</name></trkpt>
<trkpt lat="53.143771" lon="-3.926913"><ele>697</ele><time>2020-08-16T11:07:41Z</time><name>PT3614</name></trkpt>
<trkpt lat="53.143779" lon="-3.926917"><ele>697</ele><time>2020-08-16T11:07:41Z</time><name>PT3615</name></trkpt>
<trkpt lat="53.143783" lon="-3.926923"><ele>697</ele><time>2020-08-16T11:07:42Z</time><name>PT3616</name></trkpt>
<trkpt lat="53.143787" lon="-3.926927"><ele>696</ele><time>2020-08-16T11:07:44Z</time><name>PT3617</name></trkpt>
<trkpt lat="53.143793" lon="-3.926927"><ele>696</ele><time>2020-08-16T11:07:44Z</time><name>PT3618</name></trkpt>
<trkpt lat="53.143801" lon="-3.926931"><ele>696</ele><time>2020-08-16T11:07:45Z</time><name>PT3619</name></trkpt>
<trkpt lat="53.143808" lon="-3.926933"><ele>697</ele><time>2020-08-16T11:07:47Z</time><name>PT3620</name></trkpt>
<trkpt lat="53.143817" lon="-3.926938"><ele>697</ele><time>2020-08-16T11:07:47Z</time><name>PT3621</name></trkpt>
<trkpt lat="53.143822" lon="-3.926944"><ele>697</ele><time>2020-08-16T11:07:48Z</time><name>PT3622</name></trkpt>
<trkpt lat="53.143829" lon="-3.926951"><ele>697</ele><time>2020-08-16T11:07:50Z</time><name>PT3623</name></trkpt>
<trkpt lat="53.143834" lon="-3.926956"><ele>697</ele><time>2020-08-16T11:07:50Z</time><name>PT3624</name></trkpt>
<trkpt lat="53.143837" lon="-3.926962"><ele>697</ele><time>2020-08-16T11:07:51Z</time><name>PT3625</name></trkpt>
<trkpt lat="53.143841" lon="-3.926967"><ele>697</ele><time>2020-08-16T11:07:53Z</time><name>PT3626</name></trkpt>
<trkpt lat="53.143846" lon="-3.926976"><ele>697</ele><time>2020-08-16T11:07:53Z</time><name>PT3627</name></trkpt>
<trkpt lat="53.143851" lon="-3.926982"><ele>697</ele><time>2020-08-16T11:07:54Z</time><name>PT3628</name></trkpt>
<trkpt lat="53.143856" lon="-3.926989"><ele>697</ele><time>2020-08-16T11:07:56Z</time><name>PT3629</name></trkpt>
<trkpt lat="53.143865" lon="-3.926996"><ele>696</ele><time>2020-08-16T11:07:56Z</time><name>PT3630</name></trkpt>
<trkpt lat="53.143871" lon="-3.927002"><ele>696</ele><time>2020-08-16T11:07:57Z</time><name>PT3631</name></trkpt>
<trkpt lat="53.143880" lon="-3.927007"><ele>696</ele><time>2020-08-16T11:07:59Z</time><name>PT3632</name></trkpt>
<trkpt lat="53.143890" lon="-3.927010"><ele>696</ele><time>2020-08-16T11:07:59Z</time><name>PT3633</name></trkpt>
<trkpt lat="53.143898" lon="-3.927016"><ele>697</ele><time>2020-08-16T11:08:00Z</time><name>PT3634</name></trkpt>
<trkpt lat="53.143919" lon="-3.927035"><ele>697</ele><time>2020-08-16T11:08:03Z</time><name>PT3635</name></trkpt>
<trkpt lat="53.143948" lon="-3.927055"><ele>697</ele><time>2020-08-16T11:08:08Z</time><name>PT3636</name></trkpt>
<trkpt lat="53.143975" lon="-3.927072"><ele>697</ele><time>2020-08-16T11:08:11Z</time><name>PT3637</name></trkpt>
<trkpt lat="53.143987" lon="-3.927082"><ele>698</ele><time>2020-08-16T11:08:14Z</time><name>PT3638</name></trkpt>
<trkpt lat="53.143993" lon="-3.927088"><ele>698</ele><time>2020-08-16T11:08:15Z</time><name>PT3639</name></trkpt>
<trkpt lat="53.143995" lon="-3.927096"><ele>698</ele><time>2020-08-16T11:08:17Z</time><name>PT3640</name></trkpt>
<trkpt lat="53.144000" lon="-3.927104"><ele>697</ele><time>2020-08-16T11:08:17Z</time><name>PT3641</name></trkpt>
<trkpt lat="53.144006" lon="-3.927110"><ele>697</ele><time>2020-08-16T11:08:18Z</time><name>PT3642</name></trkpt>
<trkpt lat="53.144010" lon="-3.927116"><ele>697</ele><time>2020-08-16T11:08:20Z</time><name>PT3643</name></trkpt>
<trkpt lat="53.144016" lon="-3.927125"><ele>697</ele><time>2020-08-16T11:08:20Z</time><name>PT3644</name></trkpt>
<trkpt lat="53.144023" lon="-3.927133"><ele>697</ele><time>2020-08-16T11:08:21Z</time><name>PT3645</name></trkpt>
<trkpt lat="53.144028" lon="-3.927138"><ele>697</ele><time>2020-08-16T11:08:23Z</time><name>PT3646</name></trkpt>
<trkpt lat="53.144032" lon="-3.927142"><ele>697</ele><time>2020-08-16T11:08:23Z</time><name>PT3647</name></trkpt>
<trkpt lat="53.144037" lon="-3.927147"><ele>697</ele><time>2020-08-16T11:08:24Z</time><name>PT3648</name></trkpt>
<trkpt lat="53.144042" lon="-3.927151"><ele>696</ele><time>2020-08-16T11:08:26Z</time><name>PT3649</name></trkpt>
<trkpt lat="53.144049" lon="-3.927155"><ele>696</ele><time>2020-08-16T11:08:26Z</time><name>PT3650</name></trkpt>
<trkpt lat="53.144058" lon="-3.927160"><ele>696</ele><time>2020-08-16T11:08:27Z</time><name>PT3651</name></trkpt>
<trkpt lat="53.144062" lon="-3.927163"><ele>696</ele><time>2020-08-16T11:08:29Z</time><name>PT3652</name></trkpt>
<trkpt lat="53.144070" lon="-3.927165"><ele>697</ele><time>2020-08-16T11:08:29Z</time><name>PT3653</name></trkpt>
<trkpt lat="53.144075" lon="-3.927170"><ele>697</ele><time>2020-08-16T11:08:30Z</time><name>PT3654</name></trkpt>
<trkpt lat="53.144079" lon="-3.927172"><ele>697</ele><time>2020-08-16T11:08:32Z</time><name>PT3655</name></trkpt>
<trkpt lat="53.144086" lon="-3.927177"><ele>697</ele><time>2020-08-16T11:08:32Z</time><name>PT3656</name></trkpt>
<trkpt lat="53.144094" lon="-3.927183"><ele>697</ele><time>2020-08-16T11:08:33Z</time><name>PT3657</name></trkpt>
<trkpt lat="53.144101" lon="-3.927189"><ele>697</ele><time>2020-08-16T11:08:35Z</time><name>PT3658</name></trkpt>
<trkpt lat="53.144105" lon="-3.927193"><ele>697</ele><time>2020-08-16T11:08:35Z</time><name>PT3659</name></trkpt>
<trkpt lat="53.144110" lon="-3.927198"><ele>697</ele><time>2020-08-16T11:08:36Z</time><name>PT3660</name></trkpt>
<trkpt lat="53.144115" lon="-3.927204"><ele>697</ele><time>2020-08-16T11:08:38Z</time><name>PT3661</name></trkpt>
<trkpt lat="53.144124" lon="-3.927207"><ele>697</ele><time>2020-08-16T11:08:38Z</time><name>PT3662</name></trkpt>
<trkpt lat="53.144132" lon="-3.927210"><ele>697</ele><time>2020-08-16T11:08:39Z</time><name>PT3663</name></trkpt>
<trkpt lat="53.144139" lon="-3.927215"><ele>697</ele><time>2020-08-16T11:08:41Z</time><name>PT3664</name></trkpt>
<trkpt lat="53.144143" lon="-3.927214"><ele>697</ele><time>2020-08-16T11:08:41Z</time><name>PT3665</name></trkpt>
<trkpt lat="53.144149" lon="-3.927213"><ele>697</ele><time>2020-08-16T11:08:42Z</time><name>PT3666</name></trkpt>
<trkpt lat="53.144156" lon="-3.927211"><ele>697</ele><time>2020-08-16T11:08:44Z</time><name>PT3667</name></trkpt>
<trkpt lat="53.144163" lon="-3.927213"><ele>697</ele><time>2020-08-16T11:08:44Z</time><name>PT3668</name></trkpt>
<trkpt lat="53.144169" lon="-3.927219"><ele>697</ele><time>2020-08-16T11:08:45Z</time><name>PT3669</name></trkpt>
<trkpt lat="53.144177" lon="-3.927224"><ele>697</ele><time>2020-08-16T11:08:47Z</time><name>PT3670</name></trkpt>
<trkpt lat="53.144184" lon="-3.927228"><ele>697</ele><time>2020-08-16T11:08:47Z</time><name>PT3671</name></trkpt>
<trkpt lat="53.144191" lon="-3.927233"><ele>697</ele><time>2020-08-16T11:08:48Z</time><name>PT3672</name></trkpt>
<trkpt lat="53.144195" lon="-3.927238"><ele>697</ele><time>2020-08-16T11:08:50Z</time><name>PT3673</name></trkpt>
<trkpt lat="53.144200" lon="-3.927239"><ele>697</ele><time>2020-08-16T11:08:50Z</time><name>PT3674</name></trkpt>
<trkpt lat="53.144207" lon="-3.927243"><ele>697</ele><time>2020-08-16T11:08:51Z</time><name>PT3675</name></trkpt>
<trkpt lat="53.144215" lon="-3.927249"><ele>697</ele><time>2020-08-16T11:08:53Z</time><name>PT3676</name></trkpt>
<trkpt lat="53.144220" lon="-3.927254"><ele>697</ele><time>2020-08-16T11:08:53Z</time><name>PT3677</name></trkpt>
<trkpt lat="53.144224" lon="-3.927259"><ele>697</ele><time>2020-08-16T11:08:54Z</time><name>PT3678</name></trkpt>
<trkpt lat="53.144231" lon="-3.927264"><ele>697</ele><time>2020-08-16T11:08:56Z</time><name>PT3679</name></trkpt>
<trkpt lat="53.144237" lon="-3.927270"><ele>697</ele><time>2020-08-16T11:08:56Z</time><name>PT3680</name></trkpt>
<trkpt lat="53.144239" lon="-3.927275"><ele>697</ele><time>2020-08-16T11:08:57Z</time><name>PT3681</name></trkpt>
<trkpt lat="53.144242" lon="-3.927278"><ele>696</ele><time>2020-08-16T11:08:59Z</time><name>PT3682</name></trkpt>
<trkpt lat="53.144248" lon="-3.927281"><ele>697</ele><time>2020-08-16T11:08:59Z</time><name>PT3683</name></trkpt>
<trkpt lat="53.144254" lon="-3.927280"><ele>697</ele><time>2020-08-16T11:09:00Z</time><name>PT3684</name></trkpt>
<trkpt lat="53.144260" lon="-3.927280"><ele>697</ele><time>2020-08-16T11:09:02Z</time><name>PT3685</name></trkpt>
<trkpt lat="53.144265" lon="-3.927282"><ele>697</ele><time>2020-08-16T11:09:02Z</time><name>PT3686</name></trkpt>
<trkpt lat="53.144269" lon="-3.927287"><ele>697</ele><time>2020-08-16T11:09:03Z</time><name>PT3687</name></trkpt>
<trkpt lat="53.144275" lon="-3.927289"><ele>697</ele><time>2020-08-16T11:09:05Z</time><name>PT3688</name></trkpt>
<trkpt lat="53.144282" lon="-3.927293"><ele>697</ele><time>2020-08-16T11:09:05Z</time><name>PT3689</name></trkpt>
<trkpt lat="53.144290" lon="-3.927299"><ele>697</ele><time>2020-08-16T11:09:06Z</time><name>PT3690</name></trkpt>
<trkpt lat="53.144295" lon="-3.927303"><ele>697</ele><time>2020-08-16T11:09:08Z</time><name>PT3691</name></trkpt>
<trkpt lat="53.144303" lon="-3.927305"><ele>697</ele><time>2020-08-16T11:09:08Z</time><name>PT3692</name></trkpt>
<trkpt lat="53.144307" lon="-3.927305"><ele>698</ele><time>2020-08-16T11:09:09Z</time><name>PT3693</name></trkpt>
<trkpt lat="53.144310" lon="-3.927305"><ele>698</ele><time>2020-08-16T11:09:11Z</time><name>PT3694</name></trkpt>
<trkpt lat="53.144314" lon="-3.927309"><ele>698</ele><time>2020-08-16T11:09:11Z</time><name>PT3695</name></trkpt>
<trkpt lat="53.144321" lon="-3.927314"><ele>698</ele><time>2020-08-16T11:09:12Z</time><name>PT3696</name></trkpt>
<trkpt lat="53.144326" lon="-3.927321"><ele>698</ele><time>2020-08-16T11:09:14Z</time><name>PT3697</name></trkpt>
<trkpt lat="53.144331" lon="-3.927331"><ele>698</ele><time>2020-08-16T11:09:14Z</time><name>PT3698</name></trkpt>
<trkpt lat="53.144338" lon="-3.927338"><ele>698</ele><time>2020-08-16T11:09:15Z</time><name>PT3699</name></trkpt>
<trkpt lat="53.144346" lon="-3.927346"><ele>698</ele><time>2020-08-16T11:09:17Z</time><name>PT3700</name></trkpt>
<trkpt lat="53.144350" lon="-3.927356"><ele>698</ele><time>2020-08-16T11:09:17Z</time><name>PT3701</name></trkpt>
<trkpt lat="53.144357" lon="-3.927364"><ele>698</ele><time>2020-08-16T11:09:18Z</time><name>PT3702</name></trkpt>
<trkpt lat="53.144361" lon="-3.927374"><ele>698</ele><time>2020-08-16T11:09:20Z</time><name>PT3703</name></trkpt>
<trkpt lat="53.144365" lon="-3.927379"><ele>698</ele><time>2020-08-16T11:09:20Z</time><name>PT3704</name></trkpt>
<trkpt lat="53.144366" lon="-3.927385"><ele>698</ele><time>2020-08-16T11:09:21Z</time><name>PT3705</name></trkpt>
<trkpt lat="53.144372" lon="-3.927388"><ele>698</ele><time>2020-08-16T11:09:23Z</time><name>PT3706</name></trkpt>
<trkpt lat="53.144375" lon="-3.927395"><ele>698</ele><time>2020-08-16T11:09:23Z</time><name>PT3707</name></trkpt>
<trkpt lat="53.144379" lon="-3.927403"><ele>698</ele><time>2020-08-16T11:09:24Z</time><name>PT3708</name></trkpt>
<trkpt lat="53.144383" lon="-3.927408"><ele>697</ele><time>2020-08-16T11:09:26Z</time><name>PT3709</name></trkpt>
<trkpt lat="53.144390" lon="-3.927411"><ele>697</ele><time>2020-08-16T11:09:26Z</time><name>PT3710</name></trkpt>
<trkpt lat="53.144397" lon="-3.927416"><ele>697</ele><time>2020-08-16T11:09:27Z</time><name>PT3711</name></trkpt>
<trkpt lat="53.144405" lon="-3.927418"><ele>697</ele><time>2020-08-16T11:09:29Z</time><name>PT3712</name></trkpt>
<trkpt lat="53.144413" lon="-3.927420"><ele>698</ele><time>2020-08-16T11:09:29Z</time><name>PT3713</name></trkpt>
<trkpt lat="53.144418" lon="-3.927427"><ele>698</ele><time>2020-08-16T11:09:30Z</time><name>PT3714</name></trkpt>
<trkpt lat="53.144422" lon="-3.927435"><ele>697</ele><time>2020-08-16T11:09:32Z</time><name>PT3715</name></trkpt>
<trkpt lat="53.144429" lon="-3.927442"><ele>697</ele><time>2020-08-16T11:09:32Z</time><name>PT3716</name></trkpt>
<trkpt lat="53.144433" lon="-3.927449"><ele>697</ele><time>2020-08-16T11:09:33Z</time><name>PT3717</name></trkpt>
<trkpt lat="53.144437" lon="-3.927455"><ele>697</ele><time>2020-08-16T11:09:35Z</time><name>PT3718</name></trkpt>
<trkpt lat="53.144442" lon="-3.927460"><ele>697</ele><time>2020-08-16T11:09:35Z</time><name>PT3719</name></trkpt>
<trkpt lat="53.144441" lon="-3.927467"><ele>697</ele><time>2020-08-16T11:09:36Z</time><name>PT3720</name></trkpt>
<trkpt lat="53.144442" lon="-3.927473"><ele>697</ele><time>2020-08-16T11:09:38Z</time><name>PT3721</name></trkpt>
<trkpt lat="53.144444" lon="-3.927477"><ele>697</ele><time>2020-08-16T11:09:38Z</time><name>PT3722</name></trkpt>
<trkpt lat="53.144445" lon="-3.927483"><ele>696</ele><time>2020-08-16T11:09:39Z</time><name>PT3723</name></trkpt>
<trkpt lat="53.144446" lon="-3.927489"><ele>696</ele><time>2020-08-16T11:09:41Z</time><name>PT3724</name></trkpt>
<trkpt lat="53.144449" lon="-3.927496"><ele>696</ele><time>2020-08-16T11:09:41Z</time><name>PT3725</name></trkpt>
<trkpt lat="53.144450" lon="-3.927504"><ele>696</ele><time>2020-08-16T11:09:42Z</time><name>PT3726</name></trkpt>
<trkpt lat="53.144452" lon="-3.927512"><ele>695</ele><time>2020-08-16T11:09:44Z</time><name>PT3727</name></trkpt>
<trkpt lat="53.144455" lon="-3.927520"><ele>695</ele><time>2020-08-16T11:09:44Z</time><name>PT3728</name></trkpt>
<trkpt lat="53.144460" lon="-3.927527"><ele>695</ele><time>2020-08-16T11:09:45Z</time><name>PT3729</name></trkpt>
<trkpt lat="53.144462" lon="-3.927532"><ele>695</ele><time>2020-08-16T11:09:47Z</time><name>PT3730</name></trkpt>
<trkpt lat="53.144465" lon="-3.927536"><ele>695</ele><time>2020-08-16T11:09:47Z</time><name>PT3731</name></trkpt>
<trkpt lat="53.144470" lon="-3.927544"><ele>694</ele><time>2020-08-16T11:09:48Z</time><name>PT3732</name></trkpt>
<trkpt lat="53.144475" lon="-3.927554"><ele>694</ele><time>2020-08-16T11:09:50Z</time><name>PT3733</name></trkpt>
<trkpt lat="53.144479" lon="-3.927561"><ele>694</ele><time>2020-08-16T11:09:50Z</time><name>PT3734</name></trkpt>
<trkpt lat="53.144485" lon="-3.927566"><ele>694</ele><time>2020-08-16T11:09:51Z</time><name>PT3735</name></trkpt>
<trkpt lat="53.144489" lon="-3.927572"><ele>694</ele><time>2020-08-16T11:09:53Z</time><name>PT3736</name></trkpt>
<trkpt lat="53.144493" lon="-3.927579"><ele>694</ele><time>2020-08-16T11:09:53Z</time><name>PT3737</name></trkpt>
<trkpt lat="53.144499" lon="-3.927583"><ele>694</ele><time>2020-08-16T11:09:54Z</time><name>PT3738</name></trkpt>
<trkpt lat="53.144505" lon="-3.927587"><ele>694</ele><time>2020-08-16T11:09:56Z</time><name>PT3739</name></trkpt>
<trkpt lat="53.144509" lon="-3.927590"><ele>694</ele><time>2020-08-16T11:09:56Z</time><name>PT3740</name></trkpt>
<trkpt lat="53.144513" lon="-3.927593"><ele>694</ele><time>2020-08-16T11:09:57Z</time><name>PT3741</name></trkpt>
<trkpt lat="53.144518" lon="-3.927595"><ele>694</ele><time>2020-08-16T11:09:59Z</time><name>PT3742</name></trkpt>
<trkpt lat="53.144523" lon="-3.927599"><ele>694</ele><time>2020-08-16T11:09:59Z</time><name>PT3743</name></trkpt>
<trkpt lat="53.144528" lon="-3.927607"><ele>694</ele><time>2020-08-16T11:10:00Z</time><name>PT3744</name></trkpt>
<trkpt lat="53.144534" lon="-3.927613"><ele>695</ele><time>2020-08-16T11:10:02Z</time><name>PT3745</name></trkpt>
<trkpt lat="53.144536" lon="-3.927622"><ele>694</ele><time>2020-08-16T11:10:02Z</time><name>PT3746</name></trkpt>
<trkpt lat="53.144540" lon="-3.927629"><ele>695</ele><time>2020-08-16T11:10:03Z</time><name>PT3747</name></trkpt>
<trkpt lat="53.144545" lon="-3.927632"><ele>695</ele><time>2020-08-16T11:10:05Z</time><name>PT3748</name></trkpt>
<trkpt lat="53.144550" lon="-3.927637"><ele>694</ele><time>2020-08-16T11:10:05Z</time><name>PT3749</name></trkpt>
<trkpt lat="53.144556" lon="-3.927642"><ele>695</ele><time>2020-08-16T11:10:06Z</time><name>PT3750</name></trkpt>
<trkpt lat="53.144563" lon="-3.927649"><ele>694</ele><time>2020-08-16T11:10:08Z</time><name>PT3751</name></trkpt>
<trkpt lat="53.144571" lon="-3.927654"><ele>694</ele><time>2020-08-16T11:10:08Z</time><name>PT3752</name></trkpt>
<trkpt lat="53.144580" lon="-3.927656"><ele>694</ele><time>2020-08-16T11:10:09Z</time><name>PT3753</name></trkpt>
<trkpt lat="53.144589" lon="-3.927660"><ele>694</ele><time>2020-08-16T11:10:11Z</time><name>PT3754</name></trkpt>
<trkpt lat="53.144597" lon="-3.927664"><ele>695</ele><time>2020-08-16T11:10:11Z</time><name>PT3755</name></trkpt>
<trkpt lat="53.144601" lon="-3.927668"><ele>695</ele><time>2020-08-16T11:10:12Z</time><name>PT3756</name></trkpt>
<trkpt lat="53.144609" lon="-3.927673"><ele>695</ele><time>2020-08-16T11:10:14Z</time><name>PT3757</name></trkpt>
<trkpt lat="53.144618" lon="-3.927678"><ele>695</ele><time>2020-08-16T11:10:14Z</time><name>PT3758</name></trkpt>
<trkpt lat="53.144622" lon="-3.927683"><ele>695</ele><time>2020-08-16T11:10:15Z</time><name>PT3759</name></trkpt>
<trkpt lat="53.144625" lon="-3.927691"><ele>695</ele><time>2020-08-16T11:10:17Z</time><name>PT3760</name></trkpt>
<trkpt lat="53.144628" lon="-3.927699"><ele>695</ele><time>2020-08-16T11:10:17Z</time><name>PT3761</name></trkpt>
<trkpt lat="53.144630" lon="-3.927703"><ele>694</ele><time>2020-08-16T11:10:18Z</time><name>PT3762</name></trkpt>
<trkpt lat="53.144630" lon="-3.927707"><ele>694</ele><time>2020-08-16T11:10:20Z</time><name>PT3763</name></trkpt>
<trkpt lat="53.144632" lon="-3.927711"><ele>694</ele><time>2020-08-16T11:10:20Z</time><name>PT3764</name></trkpt>
<trkpt lat="53.144641" lon="-3.927723"><ele>694</ele><time>2020-08-16T11:10:21Z</time><name>PT3765</name></trkpt>
<trkpt lat="53.144649" lon="-3.927731"><ele>694</ele><time>2020-08-16T11:10:23Z</time><name>PT3766</name></trkpt>
<trkpt lat="53.144655" lon="-3.927742"><ele>694</ele><time>2020-08-16T11:10:23Z</time><name>PT3767</name></trkpt>
<trkpt lat="53.144662" lon="-3.927749"><ele>693</ele><time>2020-08-16T11:10:24Z</time><name>PT3768</name></trkpt>
<trkpt lat="53.144668" lon="-3.927753"><ele>694</ele><time>2020-08-16T11:10:26Z</time><name>PT3769</name></trkpt>
<trkpt lat="53.144677" lon="-3.927758"><ele>694</ele><time>2020-08-16T11:10:26Z</time><name>PT3770</name></trkpt>
<trkpt lat="53.144682" lon="-3.927758"><ele>694</ele><time>2020-08-16T11:10:27Z</time><name>PT3771</name></trkpt>
<trkpt lat="53.144687" lon="-3.927758"><ele>694</ele><time>2020-08-16T11:10:29Z</time><name>PT3772</name></trkpt>
<trkpt lat="53.144693" lon="-3.927760"><ele>694</ele><time>2020-08-16T11:10:29Z</time><name>PT3773</name></trkpt>
<trkpt lat="53.144701" lon="-3.927757"><ele>694</ele><time>2020-08-16T11:10:30Z</time><name>PT3774</name></trkpt>
<trkpt lat="53.144708" lon="-3.927756"><ele>694</ele><time>2020-08-16T11:10:32Z</time><name>PT3775</name></trkpt>
<trkpt lat="53.144705" lon="-3.927760"><ele>694</ele><time>2020-08-16T11:10:32Z</time><name>PT3776</name></trkpt>
<trkpt lat="53.144710" lon="-3.927763"><ele>694</ele><time>2020-08-16T11:10:33Z</time><name>PT3777</name></trkpt>
<trkpt lat="53.144719" lon="-3.927768"><ele>694</ele><time>2020-08-16T11:10:35Z</time><name>PT3778</name></trkpt>
<trkpt lat="53.144723" lon="-3.927768"><ele>693</ele><time>2020-08-16T11:10:35Z</time><name>PT3779</name></trkpt>
<trkpt lat="53.144724" lon="-3.927769"><ele>694</ele><time>2020-08-16T11:10:36Z</time><name>PT3780</name></trkpt>
<trkpt lat="53.144728" lon="-3.927775"><ele>694</ele><time>2020-08-16T11:10:38Z</time><name>PT3781</name></trkpt>
<trkpt lat="53.144734" lon="-3.927782"><ele>693</ele><time>2020-08-16T11:10:38Z</time><name>PT3782</name></trkpt>
<trkpt lat="53.144739" lon="-3.927788"><ele>693</ele><time>2020-08-16T11:10:39Z</time><name>PT3783</name></trkpt>
<trkpt lat="53.144742" lon="-3.927788"><ele>693</ele><time>2020-08-16T11:10:41Z</time><name>PT3784</name></trkpt>
<trkpt lat="53.144747" lon="-3.927789"><ele>693</ele><time>2020-08-16T11:10:41Z</time><name>PT3785</name></trkpt>
<trkpt lat="53.144756" lon="-3.927788"><ele>694</ele><time>2020-08-16T11:10:42Z</time><name>PT3786</name></trkpt>
<trkpt lat="53.144767" lon="-3.927790"><ele>693</ele><time>2020-08-16T11:10:44Z</time><name>PT3787</name></trkpt>
<trkpt lat="53.144770" lon="-3.927794"><ele>693</ele><time>2020-08-16T11:10:44Z</time><name>PT3788</name></trkpt>
<trkpt lat="53.144776" lon="-3.927798"><ele>693</ele><time>2020-08-16T11:10:45Z</time><name>PT3789</name></trkpt>
<trkpt lat="53.144779" lon="-3.927796"><ele>693</ele><time>2020-08-16T11:10:47Z</time><name>PT3790</name></trkpt>
<trkpt lat="53.144785" lon="-3.927797"><ele>693</ele><time>2020-08-16T11:10:47Z</time><name>PT3791</name></trkpt>
<trkpt lat="53.144787" lon="-3.927799"><ele>693</ele><time>2020-08-16T11:10:48Z</time><name>PT3792</name></trkpt>
<trkpt lat="53.144793" lon="-3.927802"><ele>692</ele><time>2020-08-16T11:10:50Z</time><name>PT3793</name></trkpt>
<trkpt lat="53.144801" lon="-3.927803"><ele>692</ele><time>2020-08-16T11:10:50Z</time><name>PT3794</name></trkpt>
<trkpt lat="53.144808" lon="-3.927801"><ele>692</ele><time>2020-08-16T11:10:51Z</time><name>PT3795</name></trkpt>
<trkpt lat="53.144815" lon="-3.927800"><ele>692</ele><time>2020-08-16T11:10:53Z</time><name>PT3796</name></trkpt>
<trkpt lat="53.144822" lon="-3.927801"><ele>693</ele><time>2020-08-16T11:10:53Z</time><name>PT3797</name></trkpt>
<trkpt lat="53.144825" lon="-3.927802"><ele>693</ele><time>2020-08-16T11:10:54Z</time><name>PT3798</name></trkpt>
<trkpt lat="53.144836" lon="-3.927800"><ele>693</ele><time>2020-08-16T11:10:56Z</time><name>PT3799</name></trkpt>
<trkpt lat="53.144844" lon="-3.927797"><ele>693</ele><time>2020-08-16T11:10:56Z</time><name>PT3800</name></trkpt>
<trkpt lat="53.144848" lon="-3.927797"><ele>692</ele><time>2020-08-16T11:10:57Z</time><name>PT3801</name></trkpt>
<trkpt lat="53.144848" lon="-3.927794"><ele>692</ele><time>2020-08-16T11:10:59Z</time><name>PT3802</name></trkpt>
<trkpt lat="53.144849" lon="-3.927793"><ele>692</ele><time>2020-08-16T11:10:59Z</time><name>PT3803</name></trkpt>
<trkpt lat="53.144848" lon="-3.927794"><ele>692</ele><time>2020-08-16T11:11:00Z</time><name>PT3804</name></trkpt>
<trkpt lat="53.144849" lon="-3.927801"><ele>692</ele><time>2020-08-16T11:11:02Z</time><name>PT3805</name></trkpt>
<trkpt lat="53.144852" lon="-3.927805"><ele>692</ele><time>2020-08-16T11:11:02Z</time><name>PT3806</name></trkpt>
<trkpt lat="53.144857" lon="-3.927808"><ele>693</ele><time>2020-08-16T11:11:03Z</time><name>PT3807</name></trkpt>
<trkpt lat="53.144858" lon="-3.927806"><ele>693</ele><time>2020-08-16T11:11:05Z</time><name>PT3808</name></trkpt>
<trkpt lat="53.144860" lon="-3.927806"><ele>693</ele><time>2020-08-16T11:11:05Z</time><name>PT3809</name></trkpt>
<trkpt lat="53.144867" lon="-3.927806"><ele>693</ele><time>2020-08-16T11:11:06Z</time><name>PT3810</name></trkpt>
<trkpt lat="53.144873" lon="-3.927807"><ele>693</ele><time>2020-08-16T11:11:08Z</time><name>PT3811</name></trkpt>
<trkpt lat="53.144883" lon="-3.927809"><ele>693</ele><time>2020-08-16T11:11:08Z</time><name>PT3812</name></trkpt>
<trkpt lat="53.144889" lon="-3.927806"><ele>692</ele><time>2020-08-16T11:11:09Z</time><name>PT3813</name></trkpt>
<trkpt lat="53.144894" lon="-3.927802"><ele>692</ele><time>2020-08-16T11:11:11Z</time><name>PT3814</name></trkpt>
<trkpt lat="53.144900" lon="-3.927800"><ele>692</ele><time>2020-08-16T11:11:11Z</time><name>PT3815</name></trkpt>
<trkpt lat="53.144904" lon="-3.927801"><ele>692</ele><time>2020-08-16T11:11:12Z</time><name>PT3816</name></trkpt>
<trkpt lat="53.144913" lon="-3.927800"><ele>691</ele><time>2020-08-16T11:11:14Z</time><name>PT3817</name></trkpt>
<trkpt lat="53.144918" lon="-3.927801"><ele>692</ele><time>2020-08-16T11:11:14Z</time><name>PT3818</name></trkpt>
<trkpt lat="53.144915" lon="-3.927801"><ele>692</ele><time>2020-08-16T11:11:18Z</time><name>PT3819</name></trkpt>
<trkpt lat="53.144915" lon="-3.927799"><ele>692</ele><time>2020-08-16T11:11:23Z</time><name>PT3820</name></trkpt>
<trkpt lat="53.144915" lon="-3.927796"><ele>691</ele><time>2020-08-16T11:11:56Z</time><name>PT3821</name></trkpt>
<trkpt lat="53.144917" lon="-3.927800"><ele>691</ele><time>2020-08-16T11:11:59Z</time><name>PT3822</name></trkpt>
<trkpt lat="53.144918" lon="-3.927798"><ele>691</ele><time>2020-08-16T11:12:02Z</time><name>PT3823</name></trkpt>
<trkpt lat="53.144920" lon="-3.927791"><ele>691</ele><time>2020-08-16T11:12:10Z</time><name>PT3824</name></trkpt>
<trkpt lat="53.144922" lon="-3.927791"><ele>691</ele><time>2020-08-16T11:12:13Z</time><name>PT3825</name></trkpt>
<trkpt lat="53.144922" lon="-3.927787"><ele>691</ele><time>2020-08-16T11:12:17Z</time><name>PT3826</name></trkpt>
<trkpt lat="53.144915" lon="-3.927793"><ele>691</ele><time>2020-08-16T11:12:25Z</time><name>PT3827</name></trkpt>
<trkpt lat="53.144913" lon="-3.927800"><ele>691</ele><time>2020-08-16T11:12:28Z</time><name>PT3828</name></trkpt>
<trkpt lat="53.144908" lon="-3.927802"><ele>691</ele><time>2020-08-16T11:12:32Z</time><name>PT3829</name></trkpt>
<trkpt lat="53.144907" lon="-3.927800"><ele>691</ele><time>2020-08-16T11:12:37Z</time><name>PT3830</name></trkpt>
<trkpt lat="53.144910" lon="-3.927819"><ele>691</ele><time>2020-08-16T11:12:40Z</time><name>PT3831</name></trkpt>
<trkpt lat="53.144921" lon="-3.927823"><ele>690</ele><time>2020-08-16T11:12:44Z</time><name>PT3832</name></trkpt>
<trkpt lat="53.144924" lon="-3.927828"><ele>690</ele><time>2020-08-16T11:12:49Z</time><name>PT3833</name></trkpt>
<trkpt lat="53.144916" lon="-3.927840"><ele>689</ele><time>2020-08-16T11:13:10Z</time><name>PT3834</name></trkpt>
<trkpt lat="53.144907" lon="-3.927867"><ele>687</ele><time>2020-08-16T11:13:14Z</time><name>PT3835</name></trkpt>
<trkpt lat="53.144914" lon="-3.927876"><ele>687</ele><time>2020-08-16T11:13:17Z</time><name>PT3836</name></trkpt>
<trkpt lat="53.144916" lon="-3.927892"><ele>687</ele><time>2020-08-16T11:13:22Z</time><name>PT3837</name></trkpt>
<trkpt lat="53.144899" lon="-3.927939"><ele>687</ele><time>2020-08-16T11:13:25Z</time><name>PT3838</name></trkpt>
<trkpt lat="53.144905" lon="-3.927975"><ele>685</ele><time>2020-08-16T11:13:28Z</time><name>PT3839</name></trkpt>
<trkpt lat="53.144930" lon="-3.927986"><ele>686</ele><time>2020-08-16T11:13:31Z</time><name>PT3840</name></trkpt>
<trkpt lat="53.144938" lon="-3.928015"><ele>685</ele><time>2020-08-16T11:13:35Z</time><name>PT3841</name></trkpt>
<trkpt lat="53.144942" lon="-3.928039"><ele>685</ele><time>2020-08-16T11:13:38Z</time><name>PT3842</name></trkpt>
<trkpt lat="53.144950" lon="-3.928078"><ele>683</ele><time>2020-08-16T11:13:43Z</time><name>PT3843</name></trkpt>
<trkpt lat="53.144954" lon="-3.928111"><ele>682</ele><time>2020-08-16T11:13:46Z</time><name>PT3844</name></trkpt>
<trkpt lat="53.144962" lon="-3.928159"><ele>681</ele><time>2020-08-16T11:13:49Z</time><name>PT3845</name></trkpt>
<trkpt lat="53.144964" lon="-3.928180"><ele>681</ele><time>2020-08-16T11:13:53Z</time><name>PT3846</name></trkpt>
<trkpt lat="53.144963" lon="-3.928192"><ele>682</ele><time>2020-08-16T11:13:56Z</time><name>PT3847</name></trkpt>
<trkpt lat="53.144984" lon="-3.928214"><ele>680</ele><time>2020-08-16T11:14:01Z</time><name>PT3848</name></trkpt>
<trkpt lat="53.144996" lon="-3.928230"><ele>680</ele><time>2020-08-16T11:14:04Z</time><name>PT3849</name></trkpt>
<trkpt lat="53.144999" lon="-3.928254"><ele>680</ele><time>2020-08-16T11:14:07Z</time><name>PT3850</name></trkpt>
<trkpt lat="53.145012" lon="-3.928278"><ele>679</ele><time>2020-08-16T11:14:10Z</time><name>PT3851</name></trkpt>
<trkpt lat="53.145031" lon="-3.928319"><ele>678</ele><time>2020-08-16T11:14:13Z</time><name>PT3852</name></trkpt>
<trkpt lat="53.145030" lon="-3.928356"><ele>678</ele><time>2020-08-16T11:14:16Z</time><name>PT3853</name></trkpt>
<trkpt lat="53.145022" lon="-3.928401"><ele>677</ele><time>2020-08-16T11:14:20Z</time><name>PT3854</name></trkpt>
<trkpt lat="53.145006" lon="-3.928430"><ele>678</ele><time>2020-08-16T11:14:23Z</time><name>PT3855</name></trkpt>
<trkpt lat="53.144977" lon="-3.928463"><ele>677</ele><time>2020-08-16T11:14:28Z</time><name>PT3856</name></trkpt>
<trkpt lat="53.144976" lon="-3.928484"><ele>677</ele><time>2020-08-16T11:14:31Z</time><name>PT3857</name></trkpt>
<trkpt lat="53.144973" lon="-3.928508"><ele>676</ele><time>2020-08-16T11:14:34Z</time><name>PT3858</name></trkpt>
<trkpt lat="53.144973" lon="-3.928512"><ele>676</ele><time>2020-08-16T11:14:37Z</time><name>PT3859</name></trkpt>
<trkpt lat="53.144968" lon="-3.928500"><ele>675</ele><time>2020-08-16T11:14:40Z</time><name>PT3860</name></trkpt>
<trkpt lat="53.144972" lon="-3.928502"><ele>675</ele><time>2020-08-16T11:14:44Z</time><name>PT3861</name></trkpt>
<trkpt lat="53.144972" lon="-3.928515"><ele>674</ele><time>2020-08-16T11:14:47Z</time><name>PT3862</name></trkpt>
<trkpt lat="53.144967" lon="-3.928556"><ele>673</ele><time>2020-08-16T11:14:52Z</time><name>PT3863</name></trkpt>
<trkpt lat="53.144973" lon="-3.928598"><ele>673</ele><time>2020-08-16T11:14:55Z</time><name>PT3864</name></trkpt>
<trkpt lat="53.144959" lon="-3.928635"><ele>672</ele><time>2020-08-16T11:14:58Z</time><name>PT3865</name></trkpt>
<trkpt lat="53.144950" lon="-3.928677"><ele>671</ele><time>2020-08-16T11:15:01Z</time><name>PT3866</name></trkpt>
<trkpt lat="53.144945" lon="-3.928731"><ele>670</ele><time>2020-08-16T11:15:05Z</time><name>PT3867</name></trkpt>
<trkpt lat="53.144939" lon="-3.928766"><ele>670</ele><time>2020-08-16T11:15:08Z</time><name>PT3868</name></trkpt>
<trkpt lat="53.144926" lon="-3.928795"><ele>669</ele><time>2020-08-16T11:15:11Z</time><name>PT3869</name></trkpt>
<trkpt lat="53.144925" lon="-3.928802"><ele>669</ele><time>2020-08-16T11:15:14Z</time><name>PT3870</name></trkpt>
<trkpt lat="53.144924" lon="-3.928804"><ele>668</ele><time>2020-08-16T11:15:22Z</time><name>PT3871</name></trkpt>
<trkpt lat="53.144915" lon="-3.928843"><ele>667</ele><time>2020-08-16T11:15:25Z</time><name>PT3872</name></trkpt>
<trkpt lat="53.144892" lon="-3.928896"><ele>665</ele><time>2020-08-16T11:15:29Z</time><name>PT3873</name></trkpt>
<trkpt lat="53.144875" lon="-3.928923"><ele>664</ele><time>2020-08-16T11:15:32Z</time><name>PT3874</name></trkpt>
<trkpt lat="53.144845" lon="-3.928953"><ele>663</ele><time>2020-08-16T11:15:37Z</time><name>PT3875</name></trkpt>
<trkpt lat="53.144835" lon="-3.928987"><ele>662</ele><time>2020-08-16T11:15:40Z</time><name>PT3876</name></trkpt>
<trkpt lat="53.144823" lon="-3.929026"><ele>661</ele><time>2020-08-16T11:15:43Z</time><name>PT3877</name></trkpt>
<trkpt lat="53.144817" lon="-3.929073"><ele>660</ele><time>2020-08-16T11:15:47Z</time><name>PT3878</name></trkpt>
<trkpt lat="53.144824" lon="-3.929080"><ele>659</ele><time>2020-08-16T11:15:50Z</time><name>PT3879</name></trkpt>
<trkpt lat="53.144836" lon="-3.929120"><ele>659</ele><time>2020-08-16T11:15:55Z</time><name>PT3880</name></trkpt>
<trkpt lat="53.144848" lon="-3.929169"><ele>657</ele><time>2020-08-16T11:15:58Z</time><name>PT3881</name></trkpt>
<trkpt lat="53.144859" lon="-3.929183"><ele>656</ele><time>2020-08-16T11:16:02Z</time><name>PT3882</name></trkpt>
<trkpt lat="53.144856" lon="-3.929226"><ele>655</ele><time>2020-08-16T11:16:07Z</time><name>PT3883</name></trkpt>
<trkpt lat="53.144858" lon="-3.929246"><ele>655</ele><time>2020-08-16T11:16:10Z</time><name>PT3884</name></trkpt>
<trkpt lat="53.144845" lon="-3.929280"><ele>654</ele><time>2020-08-16T11:16:13Z</time><name>PT3885</name></trkpt>
<trkpt lat="53.144831" lon="-3.929304"><ele>653</ele><time>2020-08-16T11:16:16Z</time><name>PT3886</name></trkpt>
<trkpt lat="53.144825" lon="-3.929332"><ele>653</ele><time>2020-08-16T11:16:19Z</time><name>PT3887</name></trkpt>
<trkpt lat="53.144832" lon="-3.929368"><ele>651</ele><time>2020-08-16T11:16:23Z</time><name>PT3888</name></trkpt>
<trkpt lat="53.144832" lon="-3.929411"><ele>649</ele><time>2020-08-16T11:16:28Z</time><name>PT3889</name></trkpt>
<trkpt lat="53.144832" lon="-3.929442"><ele>649</ele><time>2020-08-16T11:16:31Z</time><name>PT3890</name></trkpt>
<trkpt lat="53.144833" lon="-3.929480"><ele>647</ele><time>2020-08-16T11:16:35Z</time><name>PT3891</name></trkpt>
<trkpt lat="53.144849" lon="-3.929518"><ele>645</ele><time>2020-08-16T11:16:37Z</time><name>PT3892</name></trkpt>
<trkpt lat="53.144853" lon="-3.929529"><ele>645</ele><time>2020-08-16T11:16:38Z</time><name>PT3893</name></trkpt>
<trkpt lat="53.144854" lon="-3.929538"><ele>645</ele><time>2020-08-16T11:16:40Z</time><name>PT3894</name></trkpt>
<trkpt lat="53.144855" lon="-3.929541"><ele>645</ele><time>2020-08-16T11:16:40Z</time><name>PT3895</name></trkpt>
<trkpt lat="53.144855" lon="-3.929543"><ele>646</ele><time>2020-08-16T11:16:41Z</time><name>PT3896</name></trkpt>
<trkpt lat="53.144854" lon="-3.929546"><ele>645</ele><time>2020-08-16T11:16:43Z</time><name>PT3897</name></trkpt>
<trkpt lat="53.144856" lon="-3.929558"><ele>645</ele><time>2020-08-16T11:16:44Z</time><name>PT3898</name></trkpt>
<trkpt lat="53.144865" lon="-3.929574"><ele>645</ele><time>2020-08-16T11:16:46Z</time><name>PT3899</name></trkpt>
<trkpt lat="53.144873" lon="-3.929583"><ele>645</ele><time>2020-08-16T11:16:46Z</time><name>PT3900</name></trkpt>
<trkpt lat="53.144878" lon="-3.929591"><ele>645</ele><time>2020-08-16T11:16:47Z</time><name>PT3901</name></trkpt>
<trkpt lat="53.144879" lon="-3.929596"><ele>645</ele><time>2020-08-16T11:16:49Z</time><name>PT3902</name></trkpt>
<trkpt lat="53.144883" lon="-3.929602"><ele>645</ele><time>2020-08-16T11:16:49Z</time><name>PT3903</name></trkpt>
<trkpt lat="53.144889" lon="-3.929614"><ele>645</ele><time>2020-08-16T11:16:50Z</time><name>PT3904</name></trkpt>
<trkpt lat="53.144894" lon="-3.929628"><ele>645</ele><time>2020-08-16T11:16:52Z</time><name>PT3905</name></trkpt>
<trkpt lat="53.144898" lon="-3.929640"><ele>645</ele><time>2020-08-16T11:16:52Z</time><name>PT3906</name></trkpt>
<trkpt lat="53.144901" lon="-3.929652"><ele>645</ele><time>2020-08-16T11:16:53Z</time><name>PT3907</name></trkpt>
<trkpt lat="53.144901" lon="-3.929665"><ele>645</ele><time>2020-08-16T11:16:55Z</time><name>PT3908</name></trkpt>
<trkpt lat="53.144901" lon="-3.929679"><ele>645</ele><time>2020-08-16T11:16:55Z</time><name>PT3909</name></trkpt>
<trkpt lat="53.144903" lon="-3.929692"><ele>645</ele><time>2020-08-16T11:16:56Z</time><name>PT3910</name></trkpt>
<trkpt lat="53.144906" lon="-3.929707"><ele>645</ele><time>2020-08-16T11:16:58Z</time><name>PT3911</name></trkpt>
<trkpt lat="53.144909" lon="-3.929719"><ele>645</ele><time>2020-08-16T11:16:58Z</time><name>PT3912</name></trkpt>
<trkpt lat="53.144910" lon="-3.929731"><ele>645</ele><time>2020-08-16T11:16:59Z</time><name>PT3913</name></trkpt>
<trkpt lat="53.144909" lon="-3.929744"><ele>645</ele><time>2020-08-16T11:17:01Z</time><name>PT3914</name></trkpt>
<trkpt lat="53.144907" lon="-3.929755"><ele>645</ele><time>2020-08-16T11:17:01Z</time><name>PT3915</name></trkpt>
<trkpt lat="53.144904" lon="-3.929766"><ele>645</ele><time>2020-08-16T11:17:02Z</time><name>PT3916</name></trkpt>
<trkpt lat="53.144899" lon="-3.929774"><ele>645</ele><time>2020-08-16T11:17:04Z</time><name>PT3917</name></trkpt>
<trkpt lat="53.144893" lon="-3.929781"><ele>645</ele><time>2020-08-16T11:17:04Z</time><name>PT3918</name></trkpt>
<trkpt lat="53.144888" lon="-3.929786"><ele>644</ele><time>2020-08-16T11:17:05Z</time><name>PT3919</name></trkpt>
<trkpt lat="53.144883" lon="-3.929791"><ele>644</ele><time>2020-08-16T11:17:07Z</time><name>PT3920</name></trkpt>
<trkpt lat="53.144878" lon="-3.929798"><ele>644</ele><time>2020-08-16T11:17:07Z</time><name>PT3921</name></trkpt>
<trkpt lat="53.144875" lon="-3.929805"><ele>644</ele><time>2020-08-16T11:17:08Z</time><name>PT3922</name></trkpt>
<trkpt lat="53.144874" lon="-3.929812"><ele>644</ele><time>2020-08-16T11:17:10Z</time><name>PT3923</name></trkpt>
<trkpt lat="53.144872" lon="-3.929818"><ele>644</ele><time>2020-08-16T11:17:10Z</time><name>PT3924</name></trkpt>
<trkpt lat="53.144873" lon="-3.929809"><ele>643</ele><time>2020-08-16T11:17:13Z</time><name>PT3925</name></trkpt>
<trkpt lat="53.144882" lon="-3.929821"><ele>643</ele><time>2020-08-16T11:17:14Z</time><name>PT3926</name></trkpt>
<trkpt lat="53.144891" lon="-3.929838"><ele>643</ele><time>2020-08-16T11:17:16Z</time><name>PT3927</name></trkpt>
<trkpt lat="53.144894" lon="-3.929845"><ele>642</ele><time>2020-08-16T11:17:16Z</time><name>PT3928</name></trkpt>
<trkpt lat="53.144896" lon="-3.929856"><ele>642</ele><time>2020-08-16T11:17:17Z</time><name>PT3929</name></trkpt>
<trkpt lat="53.144900" lon="-3.929865"><ele>642</ele><time>2020-08-16T11:17:19Z</time><name>PT3930</name></trkpt>
<trkpt lat="53.144902" lon="-3.929874"><ele>641</ele><time>2020-08-16T11:17:19Z</time><name>PT3931</name></trkpt>
<trkpt lat="53.144904" lon="-3.929885"><ele>641</ele><time>2020-08-16T11:17:20Z</time><name>PT3932</name></trkpt>
<trkpt lat="53.144904" lon="-3.929894"><ele>641</ele><time>2020-08-16T11:17:22Z</time><name>PT3933</name></trkpt>
<trkpt lat="53.144902" lon="-3.929903"><ele>641</ele><time>2020-08-16T11:17:22Z</time><name>PT3934</name></trkpt>
<trkpt lat="53.144896" lon="-3.929913"><ele>641</ele><time>2020-08-16T11:17:23Z</time><name>PT3935</name></trkpt>
<trkpt lat="53.144889" lon="-3.929922"><ele>640</ele><time>2020-08-16T11:17:25Z</time><name>PT3936</name></trkpt>
<trkpt lat="53.144885" lon="-3.929934"><ele>639</ele><time>2020-08-16T11:17:25Z</time><name>PT3937</name></trkpt>
<trkpt lat="53.144882" lon="-3.929944"><ele>639</ele><time>2020-08-16T11:17:26Z</time><name>PT3938</name></trkpt>
<trkpt lat="53.144879" lon="-3.929953"><ele>638</ele><time>2020-08-16T11:17:28Z</time><name>PT3939</name></trkpt>
<trkpt lat="53.144878" lon="-3.929963"><ele>638</ele><time>2020-08-16T11:17:28Z</time><name>PT3940</name></trkpt>
<trkpt lat="53.144878" lon="-3.929974"><ele>638</ele><time>2020-08-16T11:17:29Z</time><name>PT3941</name></trkpt>
<trkpt lat="53.144875" lon="-3.929988"><ele>638</ele><time>2020-08-16T11:17:31Z</time><name>PT3942</name></trkpt>
<trkpt lat="53.144876" lon="-3.930005"><ele>637</ele><time>2020-08-16T11:17:31Z</time><name>PT3943</name></trkpt>
<trkpt lat="53.144879" lon="-3.930011"><ele>637</ele><time>2020-08-16T11:17:32Z</time><name>PT3944</name></trkpt>
<trkpt lat="53.144878" lon="-3.930023"><ele>636</ele><time>2020-08-16T11:17:34Z</time><name>PT3945</name></trkpt>
<trkpt lat="53.144877" lon="-3.930035"><ele>636</ele><time>2020-08-16T11:17:34Z</time><name>PT3946</name></trkpt>
<trkpt lat="53.144877" lon="-3.930050"><ele>636</ele><time>2020-08-16T11:17:35Z</time><name>PT3947</name></trkpt>
<trkpt lat="53.144877" lon="-3.930065"><ele>635</ele><time>2020-08-16T11:17:37Z</time><name>PT3948</name></trkpt>
<trkpt lat="53.144877" lon="-3.930078"><ele>635</ele><time>2020-08-16T11:17:37Z</time><name>PT3949</name></trkpt>
<trkpt lat="53.144883" lon="-3.930093"><ele>635</ele><time>2020-08-16T11:17:38Z</time><name>PT3950</name></trkpt>
<trkpt lat="53.144889" lon="-3.930103"><ele>635</ele><time>2020-08-16T11:17:40Z</time><name>PT3951</name></trkpt>
<trkpt lat="53.144891" lon="-3.930109"><ele>635</ele><time>2020-08-16T11:17:40Z</time><name>PT3952</name></trkpt>
<trkpt lat="53.144892" lon="-3.930124"><ele>635</ele><time>2020-08-16T11:17:41Z</time><name>PT3953</name></trkpt>
<trkpt lat="53.144898" lon="-3.930132"><ele>634</ele><time>2020-08-16T11:17:43Z</time><name>PT3954</name></trkpt>
<trkpt lat="53.144907" lon="-3.930138"><ele>634</ele><time>2020-08-16T11:17:43Z</time><name>PT3955</name></trkpt>
<trkpt lat="53.144914" lon="-3.930142"><ele>634</ele><time>2020-08-16T11:17:44Z</time><name>PT3956</name></trkpt>
<trkpt lat="53.144918" lon="-3.930141"><ele>634</ele><time>2020-08-16T11:17:46Z</time><name>PT3957</name></trkpt>
<trkpt lat="53.144923" lon="-3.930143"><ele>634</ele><time>2020-08-16T11:17:46Z</time><name>PT3958</name></trkpt>
<trkpt lat="53.144929" lon="-3.930149"><ele>634</ele><time>2020-08-16T11:17:47Z</time><name>PT3959</name></trkpt>
<trkpt lat="53.144935" lon="-3.930161"><ele>634</ele><time>2020-08-16T11:17:49Z</time><name>PT3960</name></trkpt>
<trkpt lat="53.144936" lon="-3.930173"><ele>634</ele><time>2020-08-16T11:17:49Z</time><name>PT3961</name></trkpt>
<trkpt lat="53.144936" lon="-3.930183"><ele>633</ele><time>2020-08-16T11:17:50Z</time><name>PT3962</name></trkpt>
<trkpt lat="53.144939" lon="-3.930187"><ele>633</ele><time>2020-08-16T11:17:52Z</time><name>PT3963</name></trkpt>
<trkpt lat="53.144941" lon="-3.930191"><ele>633</ele><time>2020-08-16T11:17:52Z</time><name>PT3964</name></trkpt>
<trkpt lat="53.144941" lon="-3.930199"><ele>633</ele><time>2020-08-16T11:17:53Z</time><name>PT3965</name></trkpt>
<trkpt lat="53.144939" lon="-3.930213"><ele>633</ele><time>2020-08-16T11:17:55Z</time><name>PT3966</name></trkpt>
<trkpt lat="53.144942" lon="-3.930224"><ele>633</ele><time>2020-08-16T11:17:55Z</time><name>PT3967</name></trkpt>
<trkpt lat="53.144948" lon="-3.930221"><ele>632</ele><time>2020-08-16T11:17:56Z</time><name>PT3968</name></trkpt>
<trkpt lat="53.144953" lon="-3.930222"><ele>631</ele><time>2020-08-16T11:17:58Z</time><name>PT3969</name></trkpt>
<trkpt lat="53.144957" lon="-3.930222"><ele>631</ele><time>2020-08-16T11:17:58Z</time><name>PT3970</name></trkpt>
<trkpt lat="53.144959" lon="-3.930223"><ele>631</ele><time>2020-08-16T11:17:59Z</time><name>PT3971</name></trkpt>
<trkpt lat="53.144960" lon="-3.930231"><ele>631</ele><time>2020-08-16T11:18:01Z</time><name>PT3972</name></trkpt>
<trkpt lat="53.144962" lon="-3.930237"><ele>630</ele><time>2020-08-16T11:18:01Z</time><name>PT3973</name></trkpt>
<trkpt lat="53.144958" lon="-3.930246"><ele>630</ele><time>2020-08-16T11:18:02Z</time><name>PT3974</name></trkpt>
<trkpt lat="53.144957" lon="-3.930258"><ele>630</ele><time>2020-08-16T11:18:04Z</time><name>PT3975</name></trkpt>
<trkpt lat="53.144956" lon="-3.930272"><ele>630</ele><time>2020-08-16T11:18:04Z</time><name>PT3976</name></trkpt>
<trkpt lat="53.144958" lon="-3.930281"><ele>629</ele><time>2020-08-16T11:18:05Z</time><name>PT3977</name></trkpt>
<trkpt lat="53.144959" lon="-3.930299"><ele>629</ele><time>2020-08-16T11:18:07Z</time><name>PT3978</name></trkpt>
<trkpt lat="53.144965" lon="-3.930316"><ele>628</ele><time>2020-08-16T11:18:07Z</time><name>PT3979</name></trkpt>
<trkpt lat="53.144973" lon="-3.930327"><ele>628</ele><time>2020-08-16T11:18:08Z</time><name>PT3980</name></trkpt>
<trkpt lat="53.144980" lon="-3.930338"><ele>628</ele><time>2020-08-16T11:18:10Z</time><name>PT3981</name></trkpt>
<trkpt lat="53.144988" lon="-3.930337"><ele>628</ele><time>2020-08-16T11:18:10Z</time><name>PT3982</name></trkpt>
<trkpt lat="53.144995" lon="-3.930336"><ele>628</ele><time>2020-08-16T11:18:11Z</time><name>PT3983</name></trkpt>
<trkpt lat="53.145000" lon="-3.930356"><ele>627</ele><time>2020-08-16T11:18:13Z</time><name>PT3984</name></trkpt>
<trkpt lat="53.145000" lon="-3.930391"><ele>627</ele><time>2020-08-16T11:18:13Z</time><name>PT3985</name></trkpt>
<trkpt lat="53.145001" lon="-3.930404"><ele>628</ele><time>2020-08-16T11:18:14Z</time><name>PT3986</name></trkpt>
<trkpt lat="53.145002" lon="-3.930402"><ele>627</ele><time>2020-08-16T11:18:16Z</time><name>PT3987</name></trkpt>
<trkpt lat="53.145001" lon="-3.930408"><ele>627</ele><time>2020-08-16T11:18:16Z</time><name>PT3988</name></trkpt>
<trkpt lat="53.145002" lon="-3.930418"><ele>628</ele><time>2020-08-16T11:18:23Z</time><name>PT3989</name></trkpt>
<trkpt lat="53.145004" lon="-3.930431"><ele>628</ele><time>2020-08-16T11:18:25Z</time><name>PT3990</name></trkpt>
<trkpt lat="53.145007" lon="-3.930442"><ele>628</ele><time>2020-08-16T11:18:25Z</time><name>PT3991</name></trkpt>
<trkpt lat="53.145010" lon="-3.930442"><ele>627</ele><time>2020-08-16T11:18:26Z</time><name>PT3992</name></trkpt>
<trkpt lat="53.145010" lon="-3.930442"><ele>627</ele><time>2020-08-16T11:18:28Z</time><name>PT3993</name></trkpt>
<trkpt lat="53.145009" lon="-3.930443"><ele>627</ele><time>2020-08-16T11:18:29Z</time><name>PT3994</name></trkpt>
<trkpt lat="53.145008" lon="-3.930446"><ele>627</ele><time>2020-08-16T11:18:31Z</time><name>PT3995</name></trkpt>
<trkpt lat="53.145008" lon="-3.930450"><ele>627</ele><time>2020-08-16T11:18:31Z</time><name>PT3996</name></trkpt>
<trkpt lat="53.145011" lon="-3.930454"><ele>627</ele><time>2020-08-16T11:18:37Z</time><name>PT3997</name></trkpt>
<trkpt lat="53.145013" lon="-3.930464"><ele>627</ele><time>2020-08-16T11:18:37Z</time><name>PT3998</name></trkpt>
<trkpt lat="53.145020" lon="-3.930480"><ele>627</ele><time>2020-08-16T11:18:38Z</time><name>PT3999</name></trkpt>
<trkpt lat="53.145027" lon="-3.930495"><ele>627</ele><time>2020-08-16T11:18:40Z</time><name>PT4000</name></trkpt>
<trkpt lat="53.145034" lon="-3.930503"><ele>626</ele><time>2020-08-16T11:18:40Z</time><name>PT4001</name></trkpt>
<trkpt lat="53.145041" lon="-3.930511"><ele>626</ele><time>2020-08-16T11:18:41Z</time><name>PT4002</name></trkpt>
<trkpt lat="53.145049" lon="-3.930519"><ele>626</ele><time>2020-08-16T11:18:43Z</time><name>PT4003</name></trkpt>
<trkpt lat="53.145056" lon="-3.930528"><ele>626</ele><time>2020-08-16T11:18:43Z</time><name>PT4004</name></trkpt>
<trkpt lat="53.145063" lon="-3.930537"><ele>625</ele><time>2020-08-16T11:18:44Z</time><name>PT4005</name></trkpt>
<trkpt lat="53.145071" lon="-3.930553"><ele>625</ele><time>2020-08-16T11:18:46Z</time><name>PT4006</name></trkpt>
<trkpt lat="53.145077" lon="-3.930565"><ele>625</ele><time>2020-08-16T11:18:46Z</time><name>PT4007</name></trkpt>
<trkpt lat="53.145083" lon="-3.930574"><ele>625</ele><time>2020-08-16T11:18:47Z</time><name>PT4008</name></trkpt>
<trkpt lat="53.145090" lon="-3.930584"><ele>625</ele><time>2020-08-16T11:18:49Z</time><name>PT4009</name></trkpt>
<trkpt lat="53.145098" lon="-3.930598"><ele>625</ele><time>2020-08-16T11:18:49Z</time><name>PT4010</name></trkpt>
<trkpt lat="53.145107" lon="-3.930613"><ele>625</ele><time>2020-08-16T11:18:50Z</time><name>PT4011</name></trkpt>
<trkpt lat="53.145107" lon="-3.930617"><ele>624</ele><time>2020-08-16T11:18:52Z</time><name>PT4012</name></trkpt>
<trkpt lat="53.145117" lon="-3.930620"><ele>624</ele><time>2020-08-16T11:18:52Z</time><name>PT4013</name></trkpt>
<trkpt lat="53.145125" lon="-3.930622"><ele>624</ele><time>2020-08-16T11:18:53Z</time><name>PT4014</name></trkpt>
<trkpt lat="53.145130" lon="-3.930629"><ele>624</ele><time>2020-08-16T11:18:55Z</time><name>PT4015</name></trkpt>
<trkpt lat="53.145140" lon="-3.930643"><ele>624</ele><time>2020-08-16T11:18:55Z</time><name>PT4016</name></trkpt>
<trkpt lat="53.145146" lon="-3.930661"><ele>624</ele><time>2020-08-16T11:18:56Z</time><name>PT4017</name></trkpt>
<trkpt lat="53.145149" lon="-3.930671"><ele>624</ele><time>2020-08-16T11:18:58Z</time><name>PT4018</name></trkpt>
<trkpt lat="53.145154" lon="-3.930685"><ele>623</ele><time>2020-08-16T11:18:58Z</time><name>PT4019</name></trkpt>
<trkpt lat="53.145157" lon="-3.930703"><ele>623</ele><time>2020-08-16T11:18:59Z</time><name>PT4020</name></trkpt>
<trkpt lat="53.145161" lon="-3.930715"><ele>623</ele><time>2020-08-16T11:19:01Z</time><name>PT4021</name></trkpt>
<trkpt lat="53.145167" lon="-3.930721"><ele>623</ele><time>2020-08-16T11:19:01Z</time><name>PT4022</name></trkpt>
<trkpt lat="53.145174" lon="-3.930726"><ele>623</ele><time>2020-08-16T11:19:02Z</time><name>PT4023</name></trkpt>
<trkpt lat="53.145179" lon="-3.930735"><ele>623</ele><time>2020-08-16T11:19:04Z</time><name>PT4024</name></trkpt>
<trkpt lat="53.145178" lon="-3.930742"><ele>623</ele><time>2020-08-16T11:19:04Z</time><name>PT4025</name></trkpt>
<trkpt lat="53.145178" lon="-3.930751"><ele>623</ele><time>2020-08-16T11:19:05Z</time><name>PT4026</name></trkpt>
<trkpt lat="53.145180" lon="-3.930761"><ele>623</ele><time>2020-08-16T11:19:07Z</time><name>PT4027</name></trkpt>
<trkpt lat="53.145179" lon="-3.930765"><ele>623</ele><time>2020-08-16T11:19:07Z</time><name>PT4028</name></trkpt>
<trkpt lat="53.145175" lon="-3.930788"><ele>623</ele><time>2020-08-16T11:19:16Z</time><name>PT4029</name></trkpt>
<trkpt lat="53.145176" lon="-3.930793"><ele>623</ele><time>2020-08-16T11:19:16Z</time><name>PT4030</name></trkpt>
<trkpt lat="53.145180" lon="-3.930795"><ele>623</ele><time>2020-08-16T11:19:17Z</time><name>PT4031</name></trkpt>
<trkpt lat="53.145184" lon="-3.930792"><ele>623</ele><time>2020-08-16T11:19:19Z</time><name>PT4032</name></trkpt>
<trkpt lat="53.145184" lon="-3.930793"><ele>623</ele><time>2020-08-16T11:19:19Z</time><name>PT4033</name></trkpt>
<trkpt lat="53.145185" lon="-3.930791"><ele>623</ele><time>2020-08-16T11:19:20Z</time><name>PT4034</name></trkpt>
<trkpt lat="53.145185" lon="-3.930797"><ele>623</ele><time>2020-08-16T11:19:22Z</time><name>PT4035</name></trkpt>
<trkpt lat="53.145186" lon="-3.930802"><ele>622</ele><time>2020-08-16T11:19:22Z</time><name>PT4036</name></trkpt>
<trkpt lat="53.145192" lon="-3.930817"><ele>622</ele><time>2020-08-16T11:19:23Z</time><name>PT4037</name></trkpt>
<trkpt lat="53.145202" lon="-3.930838"><ele>623</ele><time>2020-08-16T11:19:25Z</time><name>PT4038</name></trkpt>
<trkpt lat="53.145204" lon="-3.930850"><ele>623</ele><time>2020-08-16T11:19:25Z</time><name>PT4039</name></trkpt>
<trkpt lat="53.145210" lon="-3.930870"><ele>623</ele><time>2020-08-16T11:19:26Z</time><name>PT4040</name></trkpt>
<trkpt lat="53.145213" lon="-3.930884"><ele>623</ele><time>2020-08-16T11:19:28Z</time><name>PT4041</name></trkpt>
<trkpt lat="53.145214" lon="-3.930901"><ele>623</ele><time>2020-08-16T11:19:28Z</time><name>PT4042</name></trkpt>
<trkpt lat="53.145216" lon="-3.930915"><ele>623</ele><time>2020-08-16T11:19:29Z</time><name>PT4043</name></trkpt>
<trkpt lat="53.145214" lon="-3.930928"><ele>623</ele><time>2020-08-16T11:19:31Z</time><name>PT4044</name></trkpt>
<trkpt lat="53.145215" lon="-3.930947"><ele>623</ele><time>2020-08-16T11:19:31Z</time><name>PT4045</name></trkpt>
<trkpt lat="53.145217" lon="-3.930964"><ele>624</ele><time>2020-08-16T11:19:32Z</time><name>PT4046</name></trkpt>
<trkpt lat="53.145220" lon="-3.930980"><ele>624</ele><time>2020-08-16T11:19:34Z</time><name>PT4047</name></trkpt>
<trkpt lat="53.145222" lon="-3.930993"><ele>624</ele><time>2020-08-16T11:19:34Z</time><name>PT4048</name></trkpt>
<trkpt lat="53.145224" lon="-3.931004"><ele>624</ele><time>2020-08-16T11:19:35Z</time><name>PT4049</name></trkpt>
<trkpt lat="53.145224" lon="-3.931021"><ele>625</ele><time>2020-08-16T11:19:37Z</time><name>PT4050</name></trkpt>
<trkpt lat="53.145234" lon="-3.931075"><ele>625</ele><time>2020-08-16T11:19:40Z</time><name>PT4051</name></trkpt>
<trkpt lat="53.145239" lon="-3.931086"><ele>625</ele><time>2020-08-16T11:19:43Z</time><name>PT4052</name></trkpt>
<trkpt lat="53.145259" lon="-3.931106"><ele>626</ele><time>2020-08-16T11:19:46Z</time><name>PT4053</name></trkpt>
<trkpt lat="53.145273" lon="-3.931135"><ele>626</ele><time>2020-08-16T11:19:50Z</time><name>PT4054</name></trkpt>
<trkpt lat="53.145291" lon="-3.931167"><ele>627</ele><time>2020-08-16T11:19:53Z</time><name>PT4055</name></trkpt>
<trkpt lat="53.145307" lon="-3.931212"><ele>626</ele><time>2020-08-16T11:19:58Z</time><name>PT4056</name></trkpt>
<trkpt lat="53.145331" lon="-3.931236"><ele>627</ele><time>2020-08-16T11:20:01Z</time><name>PT4057</name></trkpt>
<trkpt lat="53.145349" lon="-3.931253"><ele>627</ele><time>2020-08-16T11:20:04Z</time><name>PT4058</name></trkpt>
<trkpt lat="53.145359" lon="-3.931286"><ele>627</ele><time>2020-08-16T11:20:08Z</time><name>PT4059</name></trkpt>
<trkpt lat="53.145373" lon="-3.931320"><ele>627</ele><time>2020-08-16T11:20:13Z</time><name>PT4060</name></trkpt>
<trkpt lat="53.145400" lon="-3.931356"><ele>629</ele><time>2020-08-16T11:20:16Z</time><name>PT4061</name></trkpt>
<trkpt lat="53.145421" lon="-3.931387"><ele>629</ele><time>2020-08-16T11:20:20Z</time><name>PT4062</name></trkpt>
<trkpt lat="53.145431" lon="-3.931416"><ele>629</ele><time>2020-08-16T11:20:23Z</time><name>PT4063</name></trkpt>
<trkpt lat="53.145447" lon="-3.931483"><ele>630</ele><time>2020-08-16T11:20:28Z</time><name>PT4064</name></trkpt>
<trkpt lat="53.145459" lon="-3.931524"><ele>631</ele><time>2020-08-16T11:20:31Z</time><name>PT4065</name></trkpt>
<trkpt lat="53.145477" lon="-3.931566"><ele>631</ele><time>2020-08-16T11:20:34Z</time><name>PT4066</name></trkpt>
<trkpt lat="53.145494" lon="-3.931601"><ele>633</ele><time>2020-08-16T11:20:37Z</time><name>PT4067</name></trkpt>
<trkpt lat="53.145510" lon="-3.931636"><ele>634</ele><time>2020-08-16T11:20:40Z</time><name>PT4068</name></trkpt>
<trkpt lat="53.145526" lon="-3.931668"><ele>634</ele><time>2020-08-16T11:20:43Z</time><name>PT4069</name></trkpt>
<trkpt lat="53.145554" lon="-3.931721"><ele>634</ele><time>2020-08-16T11:20:47Z</time><name>PT4070</name></trkpt>
<trkpt lat="53.145565" lon="-3.931755"><ele>634</ele><time>2020-08-16T11:20:50Z</time><name>PT4071</name></trkpt>
<trkpt lat="53.145586" lon="-3.931779"><ele>635</ele><time>2020-08-16T11:20:53Z</time><name>PT4072</name></trkpt>
<trkpt lat="53.145606" lon="-3.931830"><ele>634</ele><time>2020-08-16T11:20:58Z</time><name>PT4073</name></trkpt>
<trkpt lat="53.145620" lon="-3.931856"><ele>635</ele><time>2020-08-16T11:21:01Z</time><name>PT4074</name></trkpt>
<trkpt lat="53.145641" lon="-3.931897"><ele>635</ele><time>2020-08-16T11:21:04Z</time><name>PT4075</name></trkpt>
<trkpt lat="53.145658" lon="-3.931931"><ele>635</ele><time>2020-08-16T11:21:07Z</time><name>PT4076</name></trkpt>
<trkpt lat="53.145675" lon="-3.931970"><ele>635</ele><time>2020-08-16T11:21:10Z</time><name>PT4077</name></trkpt>
<trkpt lat="53.145692" lon="-3.932024"><ele>635</ele><time>2020-08-16T11:21:14Z</time><name>PT4078</name></trkpt>
<trkpt lat="53.145707" lon="-3.932061"><ele>634</ele><time>2020-08-16T11:21:19Z</time><name>PT4079</name></trkpt>
<trkpt lat="53.145718" lon="-3.932102"><ele>634</ele><time>2020-08-16T11:21:22Z</time><name>PT4080</name></trkpt>
<trkpt lat="53.145717" lon="-3.932153"><ele>633</ele><time>2020-08-16T11:21:25Z</time><name>PT4081</name></trkpt>
<trkpt lat="53.145722" lon="-3.932230"><ele>633</ele><time>2020-08-16T11:21:28Z</time><name>PT4082</name></trkpt>
<trkpt lat="53.145723" lon="-3.932278"><ele>632</ele><time>2020-08-16T11:21:31Z</time><name>PT4083</name></trkpt>
<trkpt lat="53.145722" lon="-3.932341"><ele>632</ele><time>2020-08-16T11:21:35Z</time><name>PT4084</name></trkpt>
<trkpt lat="53.145724" lon="-3.932398"><ele>632</ele><time>2020-08-16T11:21:38Z</time><name>PT4085</name></trkpt>
<trkpt lat="53.145729" lon="-3.932471"><ele>632</ele><time>2020-08-16T11:21:43Z</time><name>PT4086</name></trkpt>
<trkpt lat="53.145730" lon="-3.932549"><ele>632</ele><time>2020-08-16T11:21:46Z</time><name>PT4087</name></trkpt>
<trkpt lat="53.145723" lon="-3.932622"><ele>633</ele><time>2020-08-16T11:21:50Z</time><name>PT4088</name></trkpt>
<trkpt lat="53.145727" lon="-3.932688"><ele>633</ele><time>2020-08-16T11:21:55Z</time><name>PT4089</name></trkpt>
<trkpt lat="53.145722" lon="-3.932753"><ele>633</ele><time>2020-08-16T11:21:58Z</time><name>PT4090</name></trkpt>
<trkpt lat="53.145724" lon="-3.932804"><ele>634</ele><time>2020-08-16T11:22:01Z</time><name>PT4091</name></trkpt>
<trkpt lat="53.145718" lon="-3.932873"><ele>635</ele><time>2020-08-16T11:22:05Z</time><name>PT4092</name></trkpt>
<trkpt lat="53.145704" lon="-3.932920"><ele>634</ele><time>2020-08-16T11:22:08Z</time><name>PT4093</name></trkpt>
<trkpt lat="53.145690" lon="-3.932991"><ele>635</ele><time>2020-08-16T11:22:13Z</time><name>PT4094</name></trkpt>
<trkpt lat="53.145680" lon="-3.933047"><ele>634</ele><time>2020-08-16T11:22:16Z</time><name>PT4095</name></trkpt>
<trkpt lat="53.145666" lon="-3.933119"><ele>634</ele><time>2020-08-16T11:22:19Z</time><name>PT4096</name></trkpt>
<trkpt lat="53.145659" lon="-3.933185"><ele>634</ele><time>2020-08-16T11:22:23Z</time><name>PT4097</name></trkpt>
<trkpt lat="53.145652" lon="-3.933247"><ele>634</ele><time>2020-08-16T11:22:28Z</time><name>PT4098</name></trkpt>
<trkpt lat="53.145660" lon="-3.933301"><ele>634</ele><time>2020-08-16T11:22:31Z</time><name>PT4099</name></trkpt>
<trkpt lat="53.145662" lon="-3.933351"><ele>634</ele><time>2020-08-16T11:22:34Z</time><name>PT4100</name></trkpt>
<trkpt lat="53.145659" lon="-3.933420"><ele>633</ele><time>2020-08-16T11:22:37Z</time><name>PT4101</name></trkpt>
<trkpt lat="53.145658" lon="-3.933472"><ele>632</ele><time>2020-08-16T11:22:40Z</time><name>PT4102</name></trkpt>
<trkpt lat="53.145653" lon="-3.933548"><ele>632</ele><time>2020-08-16T11:22:44Z</time><name>PT4103</name></trkpt>
<trkpt lat="53.145643" lon="-3.933604"><ele>633</ele><time>2020-08-16T11:22:47Z</time><name>PT4104</name></trkpt>
<trkpt lat="53.145629" lon="-3.933656"><ele>632</ele><time>2020-08-16T11:22:50Z</time><name>PT4105</name></trkpt>
<trkpt lat="53.145612" lon="-3.933717"><ele>631</ele><time>2020-08-16T11:22:55Z</time><name>PT4106</name></trkpt>
<trkpt lat="53.145602" lon="-3.933796"><ele>630</ele><time>2020-08-16T11:22:58Z</time><name>PT4107</name></trkpt>
<trkpt lat="53.145614" lon="-3.933846"><ele>629</ele><time>2020-08-16T11:23:01Z</time><name>PT4108</name></trkpt>
<trkpt lat="53.145634" lon="-3.933904"><ele>630</ele><time>2020-08-16T11:23:05Z</time><name>PT4109</name></trkpt>
<trkpt lat="53.145665" lon="-3.933967"><ele>631</ele><time>2020-08-16T11:23:10Z</time><name>PT4110</name></trkpt>
<trkpt lat="53.145677" lon="-3.934003"><ele>631</ele><time>2020-08-16T11:23:13Z</time><name>PT4111</name></trkpt>
<trkpt lat="53.145672" lon="-3.934048"><ele>631</ele><time>2020-08-16T11:23:16Z</time><name>PT4112</name></trkpt>
<trkpt lat="53.145680" lon="-3.934105"><ele>632</ele><time>2020-08-16T11:23:19Z</time><name>PT4113</name></trkpt>
<trkpt lat="53.145683" lon="-3.934134"><ele>633</ele><time>2020-08-16T11:23:22Z</time><name>PT4114</name></trkpt>
<trkpt lat="53.145681" lon="-3.934189"><ele>633</ele><time>2020-08-16T11:23:26Z</time><name>PT4115</name></trkpt>
<trkpt lat="53.145678" lon="-3.934238"><ele>634</ele><time>2020-08-16T11:23:31Z</time><name>PT4116</name></trkpt>
<trkpt lat="53.145678" lon="-3.934293"><ele>634</ele><time>2020-08-16T11:23:34Z</time><name>PT4117</name></trkpt>
<trkpt lat="53.145682" lon="-3.934355"><ele>635</ele><time>2020-08-16T11:23:38Z</time><name>PT4118</name></trkpt>
<trkpt lat="53.145685" lon="-3.934412"><ele>636</ele><time>2020-08-16T11:23:43Z</time><name>PT4119</name></trkpt>
<trkpt lat="53.145679" lon="-3.934473"><ele>636</ele><time>2020-08-16T11:23:46Z</time><name>PT4120</name></trkpt>
<trkpt lat="53.145689" lon="-3.934525"><ele>637</ele><time>2020-08-16T11:23:50Z</time><name>PT4121</name></trkpt>
<trkpt lat="53.145697" lon="-3.934582"><ele>637</ele><time>2020-08-16T11:23:55Z</time><name>PT4122</name></trkpt>
<trkpt lat="53.145701" lon="-3.934625"><ele>636</ele><time>2020-08-16T11:23:58Z</time><name>PT4123</name></trkpt>
<trkpt lat="53.145699" lon="-3.934683"><ele>636</ele><time>2020-08-16T11:24:01Z</time><name>PT4124</name></trkpt>
<trkpt lat="53.145693" lon="-3.934760"><ele>636</ele><time>2020-08-16T11:24:05Z</time><name>PT4125</name></trkpt>
<trkpt lat="53.145685" lon="-3.934834"><ele>636</ele><time>2020-08-16T11:24:10Z</time><name>PT4126</name></trkpt>
<trkpt lat="53.145686" lon="-3.934902"><ele>635</ele><time>2020-08-16T11:24:13Z</time><name>PT4127</name></trkpt>
<trkpt lat="53.145683" lon="-3.934953"><ele>635</ele><time>2020-08-16T11:24:16Z</time><name>PT4128</name></trkpt>
<trkpt lat="53.145684" lon="-3.935019"><ele>635</ele><time>2020-08-16T11:24:20Z</time><name>PT4129</name></trkpt>
<trkpt lat="53.145680" lon="-3.935059"><ele>635</ele><time>2020-08-16T11:24:23Z</time><name>PT4130</name></trkpt>
<trkpt lat="53.145681" lon="-3.935105"><ele>636</ele><time>2020-08-16T11:24:26Z</time><name>PT4131</name></trkpt>
<trkpt lat="53.145693" lon="-3.935150"><ele>636</ele><time>2020-08-16T11:24:31Z</time><name>PT4132</name></trkpt>
<trkpt lat="53.145698" lon="-3.935199"><ele>636</ele><time>2020-08-16T11:24:34Z</time><name>PT4133</name></trkpt>
<trkpt lat="53.145703" lon="-3.935264"><ele>636</ele><time>2020-08-16T11:24:37Z</time><name>PT4134</name></trkpt>
<trkpt lat="53.145709" lon="-3.935301"><ele>637</ele><time>2020-08-16T11:24:40Z</time><name>PT4135</name></trkpt>
<trkpt lat="53.145713" lon="-3.935350"><ele>637</ele><time>2020-08-16T11:24:44Z</time><name>PT4136</name></trkpt>
<trkpt lat="53.145719" lon="-3.935385"><ele>638</ele><time>2020-08-16T11:24:47Z</time><name>PT4137</name></trkpt>
<trkpt lat="53.145715" lon="-3.935417"><ele>638</ele><time>2020-08-16T11:24:50Z</time><name>PT4138</name></trkpt>
<trkpt lat="53.145713" lon="-3.935474"><ele>637</ele><time>2020-08-16T11:24:55Z</time><name>PT4139</name></trkpt>
<trkpt lat="53.145708" lon="-3.935515"><ele>638</ele><time>2020-08-16T11:24:58Z</time><name>PT4140</name></trkpt>
<trkpt lat="53.145700" lon="-3.935544"><ele>639</ele><time>2020-08-16T11:25:01Z</time><name>PT4141</name></trkpt>
<trkpt lat="53.145695" lon="-3.935575"><ele>639</ele><time>2020-08-16T11:25:04Z</time><name>PT4142</name></trkpt>
<trkpt lat="53.145698" lon="-3.935615"><ele>640</ele><time>2020-08-16T11:25:08Z</time><name>PT4143</name></trkpt>
<trkpt lat="53.145701" lon="-3.935668"><ele>642</ele><time>2020-08-16T11:25:13Z</time><name>PT4144</name></trkpt>
<trkpt lat="53.145703" lon="-3.935696"><ele>642</ele><time>2020-08-16T11:25:16Z</time><name>PT4145</name></trkpt>
<trkpt lat="53.145711" lon="-3.935732"><ele>643</ele><time>2020-08-16T11:25:19Z</time><name>PT4146</name></trkpt>
<trkpt lat="53.145714" lon="-3.935793"><ele>644</ele><time>2020-08-16T11:25:22Z</time><name>PT4147</name></trkpt>
<trkpt lat="53.145714" lon="-3.935845"><ele>645</ele><time>2020-08-16T11:25:26Z</time><name>PT4148</name></trkpt>
<trkpt lat="53.145715" lon="-3.935885"><ele>644</ele><time>2020-08-16T11:25:29Z</time><name>PT4149</name></trkpt>
<trkpt lat="53.145715" lon="-3.935934"><ele>645</ele><time>2020-08-16T11:25:34Z</time><name>PT4150</name></trkpt>
<trkpt lat="53.145716" lon="-3.935985"><ele>646</ele><time>2020-08-16T11:25:37Z</time><name>PT4151</name></trkpt>
<trkpt lat="53.145717" lon="-3.936018"><ele>647</ele><time>2020-08-16T11:25:40Z</time><name>PT4152</name></trkpt>
<trkpt lat="53.145709" lon="-3.936047"><ele>647</ele><time>2020-08-16T11:25:44Z</time><name>PT4153</name></trkpt>
<trkpt lat="53.145712" lon="-3.936073"><ele>648</ele><time>2020-08-16T11:25:47Z</time><name>PT4154</name></trkpt>
<trkpt lat="53.145706" lon="-3.936111"><ele>648</ele><time>2020-08-16T11:25:52Z</time><name>PT4155</name></trkpt>
<trkpt lat="53.145701" lon="-3.936128"><ele>649</ele><time>2020-08-16T11:25:55Z</time><name>PT4156</name></trkpt>
<trkpt lat="53.145699" lon="-3.936147"><ele>648</ele><time>2020-08-16T11:25:58Z</time><name>PT4157</name></trkpt>
<trkpt lat="53.145699" lon="-3.936192"><ele>648</ele><time>2020-08-16T11:26:02Z</time><name>PT4158</name></trkpt>
<trkpt lat="53.145693" lon="-3.936221"><ele>649</ele><time>2020-08-16T11:26:05Z</time><name>PT4159</name></trkpt>
<trkpt lat="53.145690" lon="-3.936259"><ele>650</ele><time>2020-08-16T11:26:10Z</time><name>PT4160</name></trkpt>
<trkpt lat="53.145678" lon="-3.936292"><ele>651</ele><time>2020-08-16T11:26:13Z</time><name>PT4161</name></trkpt>
<trkpt lat="53.145671" lon="-3.936327"><ele>651</ele><time>2020-08-16T11:26:16Z</time><name>PT4162</name></trkpt>
<trkpt lat="53.145660" lon="-3.936360"><ele>652</ele><time>2020-08-16T11:26:19Z</time><name>PT4163</name></trkpt>
<trkpt lat="53.145647" lon="-3.936396"><ele>653</ele><time>2020-08-16T11:26:22Z</time><name>PT4164</name></trkpt>
<trkpt lat="53.145644" lon="-3.936434"><ele>653</ele><time>2020-08-16T11:26:26Z</time><name>PT4165</name></trkpt>
<trkpt lat="53.145640" lon="-3.936451"><ele>653</ele><time>2020-08-16T11:26:31Z</time><name>PT4166</name></trkpt>
<trkpt lat="53.145638" lon="-3.936500"><ele>654</ele><time>2020-08-16T11:26:37Z</time><name>PT4167</name></trkpt>
<trkpt lat="53.145637" lon="-3.936554"><ele>656</ele><time>2020-08-16T11:26:40Z</time><name>PT4168</name></trkpt>
<trkpt lat="53.145645" lon="-3.936592"><ele>656</ele><time>2020-08-16T11:26:44Z</time><name>PT4169</name></trkpt>
<trkpt lat="53.145649" lon="-3.936614"><ele>657</ele><time>2020-08-16T11:26:47Z</time><name>PT4170</name></trkpt>
<trkpt lat="53.145652" lon="-3.936629"><ele>657</ele><time>2020-08-16T11:26:52Z</time><name>PT4171</name></trkpt>
<trkpt lat="53.145651" lon="-3.936654"><ele>658</ele><time>2020-08-16T11:26:55Z</time><name>PT4172</name></trkpt>
<trkpt lat="53.145648" lon="-3.936688"><ele>658</ele><time>2020-08-16T11:26:58Z</time><name>PT4173</name></trkpt>
<trkpt lat="53.145650" lon="-3.936702"><ele>657</ele><time>2020-08-16T11:27:01Z</time><name>PT4174</name></trkpt>
<trkpt lat="53.145647" lon="-3.936711"><ele>658</ele><time>2020-08-16T11:27:05Z</time><name>PT4175</name></trkpt>
<trkpt lat="53.145631" lon="-3.936765"><ele>659</ele><time>2020-08-16T11:27:08Z</time><name>PT4176</name></trkpt>
<trkpt lat="53.145649" lon="-3.936808"><ele>660</ele><time>2020-08-16T11:27:13Z</time><name>PT4177</name></trkpt>
<trkpt lat="53.145657" lon="-3.936849"><ele>661</ele><time>2020-08-16T11:27:16Z</time><name>PT4178</name></trkpt>
<trkpt lat="53.145666" lon="-3.936883"><ele>662</ele><time>2020-08-16T11:27:19Z</time><name>PT4179</name></trkpt>
<trkpt lat="53.145681" lon="-3.936913"><ele>663</ele><time>2020-08-16T11:27:23Z</time><name>PT4180</name></trkpt>
<trkpt lat="53.145694" lon="-3.936944"><ele>664</ele><time>2020-08-16T11:27:28Z</time><name>PT4181</name></trkpt>
<trkpt lat="53.145683" lon="-3.936973"><ele>665</ele><time>2020-08-16T11:27:31Z</time><name>PT4182</name></trkpt>
<trkpt lat="53.145667" lon="-3.937002"><ele>665</ele><time>2020-08-16T11:27:35Z</time><name>PT4183</name></trkpt>
<trkpt lat="53.145649" lon="-3.937041"><ele>667</ele><time>2020-08-16T11:27:40Z</time><name>PT4184</name></trkpt>
<trkpt lat="53.145639" lon="-3.937058"><ele>668</ele><time>2020-08-16T11:27:43Z</time><name>PT4185</name></trkpt>
<trkpt lat="53.145628" lon="-3.937074"><ele>670</ele><time>2020-08-16T11:27:46Z</time><name>PT4186</name></trkpt>
<trkpt lat="53.145621" lon="-3.937095"><ele>670</ele><time>2020-08-16T11:27:49Z</time><name>PT4187</name></trkpt>
<trkpt lat="53.145620" lon="-3.937105"><ele>671</ele><time>2020-08-16T11:27:52Z</time><name>PT4188</name></trkpt>
<trkpt lat="53.145612" lon="-3.937120"><ele>671</ele><time>2020-08-16T11:27:56Z</time><name>PT4189</name></trkpt>
<trkpt lat="53.145596" lon="-3.937134"><ele>671</ele><time>2020-08-16T11:27:59Z</time><name>PT4190</name></trkpt>
<trkpt lat="53.145596" lon="-3.937162"><ele>671</ele><time>2020-08-16T11:28:04Z</time><name>PT4191</name></trkpt>
<trkpt lat="53.145607" lon="-3.937198"><ele>673</ele><time>2020-08-16T11:28:07Z</time><name>PT4192</name></trkpt>
<trkpt lat="53.145620" lon="-3.937214"><ele>673</ele><time>2020-08-16T11:28:10Z</time><name>PT4193</name></trkpt>
<trkpt lat="53.145632" lon="-3.937233"><ele>673</ele><time>2020-08-16T11:28:13Z</time><name>PT4194</name></trkpt>
<trkpt lat="53.145649" lon="-3.937259"><ele>674</ele><time>2020-08-16T11:28:16Z</time><name>PT4195</name></trkpt>
<trkpt lat="53.145648" lon="-3.937289"><ele>674</ele><time>2020-08-16T11:28:19Z</time><name>PT4196</name></trkpt>
<trkpt lat="53.145644" lon="-3.937294"><ele>674</ele><time>2020-08-16T11:28:22Z</time><name>PT4197</name></trkpt>
<trkpt lat="53.145652" lon="-3.937322"><ele>675</ele><time>2020-08-16T11:28:25Z</time><name>PT4198</name></trkpt>
<trkpt lat="53.145641" lon="-3.937346"><ele>676</ele><time>2020-08-16T11:28:29Z</time><name>PT4199</name></trkpt>
<trkpt lat="53.145628" lon="-3.937373"><ele>675</ele><time>2020-08-16T11:28:32Z</time><name>PT4200</name></trkpt>
<trkpt lat="53.145624" lon="-3.937400"><ele>675</ele><time>2020-08-16T11:28:37Z</time><name>PT4201</name></trkpt>
<trkpt lat="53.145611" lon="-3.937431"><ele>677</ele><time>2020-08-16T11:28:40Z</time><name>PT4202</name></trkpt>
<trkpt lat="53.145610" lon="-3.937452"><ele>678</ele><time>2020-08-16T11:28:43Z</time><name>PT4203</name></trkpt>
<trkpt lat="53.145610" lon="-3.937459"><ele>678</ele><time>2020-08-16T11:28:47Z</time><name>PT4204</name></trkpt>
<trkpt lat="53.145622" lon="-3.937486"><ele>679</ele><time>2020-08-16T11:28:52Z</time><name>PT4205</name></trkpt>
<trkpt lat="53.145646" lon="-3.937523"><ele>680</ele><time>2020-08-16T11:28:55Z</time><name>PT4206</name></trkpt>
<trkpt lat="53.145661" lon="-3.937540"><ele>680</ele><time>2020-08-16T11:28:58Z</time><name>PT4207</name></trkpt>
<trkpt lat="53.145680" lon="-3.937567"><ele>681</ele><time>2020-08-16T11:29:01Z</time><name>PT4208</name></trkpt>
<trkpt lat="53.145693" lon="-3.937594"><ele>682</ele><time>2020-08-16T11:29:05Z</time><name>PT4209</name></trkpt>
<trkpt lat="53.145693" lon="-3.937616"><ele>683</ele><time>2020-08-16T11:29:08Z</time><name>PT4210</name></trkpt>
<trkpt lat="53.145697" lon="-3.937633"><ele>684</ele><time>2020-08-16T11:29:11Z</time><name>PT4211</name></trkpt>
<trkpt lat="53.145707" lon="-3.937648"><ele>684</ele><time>2020-08-16T11:29:14Z</time><name>PT4212</name></trkpt>
<trkpt lat="53.145698" lon="-3.937670"><ele>685</ele><time>2020-08-16T11:29:19Z</time><name>PT4213</name></trkpt>
<trkpt lat="53.145704" lon="-3.937692"><ele>685</ele><time>2020-08-16T11:29:22Z</time><name>PT4214</name></trkpt>
<trkpt lat="53.145706" lon="-3.937707"><ele>686</ele><time>2020-08-16T11:29:25Z</time><name>PT4215</name></trkpt>
<trkpt lat="53.145726" lon="-3.937734"><ele>687</ele><time>2020-08-16T11:29:28Z</time><name>PT4216</name></trkpt>
<trkpt lat="53.145727" lon="-3.937765"><ele>686</ele><time>2020-08-16T11:29:32Z</time><name>PT4217</name></trkpt>
<trkpt lat="53.145737" lon="-3.937799"><ele>687</ele><time>2020-08-16T11:29:37Z</time><name>PT4218</name></trkpt>
<trkpt lat="53.145744" lon="-3.937825"><ele>687</ele><time>2020-08-16T11:29:40Z</time><name>PT4219</name></trkpt>
<trkpt lat="53.145750" lon="-3.937852"><ele>688</ele><time>2020-08-16T11:29:43Z</time><name>PT4220</name></trkpt>
<trkpt lat="53.145746" lon="-3.937878"><ele>688</ele><time>2020-08-16T11:29:46Z</time><name>PT4221</name></trkpt>
<trkpt lat="53.145744" lon="-3.937900"><ele>689</ele><time>2020-08-16T11:29:50Z</time><name>PT4222</name></trkpt>
<trkpt lat="53.145748" lon="-3.937915"><ele>689</ele><time>2020-08-16T11:29:55Z</time><name>PT4223</name></trkpt>
<trkpt lat="53.145759" lon="-3.937936"><ele>690</ele><time>2020-08-16T11:29:58Z</time><name>PT4224</name></trkpt>
<trkpt lat="53.145762" lon="-3.937942"><ele>690</ele><time>2020-08-16T11:30:01Z</time><name>PT4225</name></trkpt>
<trkpt lat="53.145772" lon="-3.937975"><ele>692</ele><time>2020-08-16T11:30:07Z</time><name>PT4226</name></trkpt>
<trkpt lat="53.145790" lon="-3.938010"><ele>693</ele><time>2020-08-16T11:30:11Z</time><name>PT4227</name></trkpt>
<trkpt lat="53.145800" lon="-3.938038"><ele>694</ele><time>2020-08-16T11:30:14Z</time><name>PT4228</name></trkpt>
<trkpt lat="53.145810" lon="-3.938060"><ele>694</ele><time>2020-08-16T11:30:17Z</time><name>PT4229</name></trkpt>
<trkpt lat="53.145824" lon="-3.938074"><ele>694</ele><time>2020-08-16T11:30:20Z</time><name>PT4230</name></trkpt>
<trkpt lat="53.145839" lon="-3.938102"><ele>696</ele><time>2020-08-16T11:30:25Z</time><name>PT4231</name></trkpt>
<trkpt lat="53.145852" lon="-3.938127"><ele>697</ele><time>2020-08-16T11:30:28Z</time><name>PT4232</name></trkpt>
<trkpt lat="53.145857" lon="-3.938147"><ele>697</ele><time>2020-08-16T11:30:31Z</time><name>PT4233</name></trkpt>
<trkpt lat="53.145857" lon="-3.938184"><ele>699</ele><time>2020-08-16T11:30:35Z</time><name>PT4234</name></trkpt>
<trkpt lat="53.145848" lon="-3.938211"><ele>700</ele><time>2020-08-16T11:30:38Z</time><name>PT4235</name></trkpt>
<trkpt lat="53.145836" lon="-3.938236"><ele>700</ele><time>2020-08-16T11:30:43Z</time><name>PT4236</name></trkpt>
<trkpt lat="53.145836" lon="-3.938251"><ele>700</ele><time>2020-08-16T11:30:46Z</time><name>PT4237</name></trkpt>
<trkpt lat="53.145823" lon="-3.938275"><ele>700</ele><time>2020-08-16T11:30:49Z</time><name>PT4238</name></trkpt>
<trkpt lat="53.145826" lon="-3.938318"><ele>701</ele><time>2020-08-16T11:30:53Z</time><name>PT4239</name></trkpt>
<trkpt lat="53.145834" lon="-3.938342"><ele>702</ele><time>2020-08-16T11:30:56Z</time><name>PT4240</name></trkpt>
<trkpt lat="53.145838" lon="-3.938356"><ele>702</ele><time>2020-08-16T11:30:59Z</time><name>PT4241</name></trkpt>
<trkpt lat="53.145831" lon="-3.938385"><ele>703</ele><time>2020-08-16T11:31:04Z</time><name>PT4242</name></trkpt>
<trkpt lat="53.145834" lon="-3.938405"><ele>704</ele><time>2020-08-16T11:31:07Z</time><name>PT4243</name></trkpt>
<trkpt lat="53.145844" lon="-3.938436"><ele>705</ele><time>2020-08-16T11:31:13Z</time><name>PT4244</name></trkpt>
<trkpt lat="53.145846" lon="-3.938465"><ele>706</ele><time>2020-08-16T11:31:17Z</time><name>PT4245</name></trkpt>
<trkpt lat="53.145847" lon="-3.938484"><ele>708</ele><time>2020-08-16T11:31:22Z</time><name>PT4246</name></trkpt>
<trkpt lat="53.145853" lon="-3.938502"><ele>708</ele><time>2020-08-16T11:31:25Z</time><name>PT4247</name></trkpt>
<trkpt lat="53.145854" lon="-3.938507"><ele>708</ele><time>2020-08-16T11:31:28Z</time><name>PT4248</name></trkpt>
<trkpt lat="53.145850" lon="-3.938534"><ele>709</ele><time>2020-08-16T11:31:31Z</time><name>PT4249</name></trkpt>
<trkpt lat="53.145850" lon="-3.938562"><ele>710</ele><time>2020-08-16T11:31:35Z</time><name>PT4250</name></trkpt>
<trkpt lat="53.145860" lon="-3.938582"><ele>710</ele><time>2020-08-16T11:31:40Z</time><name>PT4251</name></trkpt>
<trkpt lat="53.145871" lon="-3.938608"><ele>710</ele><time>2020-08-16T11:31:43Z</time><name>PT4252</name></trkpt>
<trkpt lat="53.145893" lon="-3.938641"><ele>711</ele><time>2020-08-16T11:31:46Z</time><name>PT4253</name></trkpt>
<trkpt lat="53.145897" lon="-3.938659"><ele>712</ele><time>2020-08-16T11:31:49Z</time><name>PT4254</name></trkpt>
<trkpt lat="53.145890" lon="-3.938674"><ele>712</ele><time>2020-08-16T11:31:53Z</time><name>PT4255</name></trkpt>
<trkpt lat="53.145893" lon="-3.938696"><ele>713</ele><time>2020-08-16T11:31:58Z</time><name>PT4256</name></trkpt>
<trkpt lat="53.145892" lon="-3.938705"><ele>713</ele><time>2020-08-16T11:32:01Z</time><name>PT4257</name></trkpt>
<trkpt lat="53.145905" lon="-3.938748"><ele>715</ele><time>2020-08-16T11:32:10Z</time><name>PT4258</name></trkpt>
<trkpt lat="53.145915" lon="-3.938785"><ele>715</ele><time>2020-08-16T11:32:13Z</time><name>PT4259</name></trkpt>
<trkpt lat="53.145929" lon="-3.938830"><ele>717</ele><time>2020-08-16T11:32:16Z</time><name>PT4260</name></trkpt>
<trkpt lat="53.145925" lon="-3.938853"><ele>717</ele><time>2020-08-16T11:32:19Z</time><name>PT4261</name></trkpt>
<trkpt lat="53.145930" lon="-3.938898"><ele>717</ele><time>2020-08-16T11:32:23Z</time><name>PT4262</name></trkpt>
<trkpt lat="53.145939" lon="-3.938932"><ele>718</ele><time>2020-08-16T11:32:26Z</time><name>PT4263</name></trkpt>
<trkpt lat="53.145943" lon="-3.938952"><ele>718</ele><time>2020-08-16T11:32:29Z</time><name>PT4264</name></trkpt>
<trkpt lat="53.145942" lon="-3.938987"><ele>719</ele><time>2020-08-16T11:32:34Z</time><name>PT4265</name></trkpt>
<trkpt lat="53.145952" lon="-3.939012"><ele>720</ele><time>2020-08-16T11:32:37Z</time><name>PT4266</name></trkpt>
<trkpt lat="53.145958" lon="-3.939024"><ele>720</ele><time>2020-08-16T11:32:40Z</time><name>PT4267</name></trkpt>
<trkpt lat="53.145973" lon="-3.939072"><ele>721</ele><time>2020-08-16T11:32:49Z</time><name>PT4268</name></trkpt>
<trkpt lat="53.145975" lon="-3.939122"><ele>722</ele><time>2020-08-16T11:32:53Z</time><name>PT4269</name></trkpt>
<trkpt lat="53.145976" lon="-3.939157"><ele>722</ele><time>2020-08-16T11:32:56Z</time><name>PT4270</name></trkpt>
<trkpt lat="53.145975" lon="-3.939167"><ele>722</ele><time>2020-08-16T11:33:01Z</time><name>PT4271</name></trkpt>
<trkpt lat="53.145971" lon="-3.939197"><ele>722</ele><time>2020-08-16T11:33:04Z</time><name>PT4272</name></trkpt>
<trkpt lat="53.145981" lon="-3.939251"><ele>722</ele><time>2020-08-16T11:33:13Z</time><name>PT4273</name></trkpt>
<trkpt lat="53.145991" lon="-3.939293"><ele>723</ele><time>2020-08-16T11:33:16Z</time><name>PT4274</name></trkpt>
<trkpt lat="53.145996" lon="-3.939350"><ele>724</ele><time>2020-08-16T11:33:19Z</time><name>PT4275</name></trkpt>
<trkpt lat="53.146001" lon="-3.939381"><ele>724</ele><time>2020-08-16T11:33:22Z</time><name>PT4276</name></trkpt>
<trkpt lat="53.146003" lon="-3.939435"><ele>725</ele><time>2020-08-16T11:33:26Z</time><name>PT4277</name></trkpt>
<trkpt lat="53.146011" lon="-3.939483"><ele>726</ele><time>2020-08-16T11:33:31Z</time><name>PT4278</name></trkpt>
<trkpt lat="53.146018" lon="-3.939519"><ele>727</ele><time>2020-08-16T11:33:34Z</time><name>PT4279</name></trkpt>
<trkpt lat="53.146026" lon="-3.939564"><ele>728</ele><time>2020-08-16T11:33:38Z</time><name>PT4280</name></trkpt>
<trkpt lat="53.146029" lon="-3.939596"><ele>729</ele><time>2020-08-16T11:33:41Z</time><name>PT4281</name></trkpt>
<trkpt lat="53.146027" lon="-3.939632"><ele>730</ele><time>2020-08-16T11:33:46Z</time><name>PT4282</name></trkpt>
<trkpt lat="53.146040" lon="-3.939663"><ele>731</ele><time>2020-08-16T11:33:49Z</time><name>PT4283</name></trkpt>
<trkpt lat="53.146058" lon="-3.939686"><ele>732</ele><time>2020-08-16T11:33:53Z</time><name>PT4284</name></trkpt>
<trkpt lat="53.146069" lon="-3.939731"><ele>733</ele><time>2020-08-16T11:33:58Z</time><name>PT4285</name></trkpt>
<trkpt lat="53.146081" lon="-3.939762"><ele>733</ele><time>2020-08-16T11:34:01Z</time><name>PT4286</name></trkpt>
<trkpt lat="53.146092" lon="-3.939811"><ele>734</ele><time>2020-08-16T11:34:04Z</time><name>PT4287</name></trkpt>
<trkpt lat="53.146097" lon="-3.939840"><ele>735</ele><time>2020-08-16T11:34:07Z</time><name>PT4288</name></trkpt>
<trkpt lat="53.146101" lon="-3.939864"><ele>735</ele><time>2020-08-16T11:34:11Z</time><name>PT4289</name></trkpt>
<trkpt lat="53.146109" lon="-3.939910"><ele>736</ele><time>2020-08-16T11:34:17Z</time><name>PT4290</name></trkpt>
<trkpt lat="53.146126" lon="-3.939954"><ele>736</ele><time>2020-08-16T11:34:21Z</time><name>PT4291</name></trkpt>
<trkpt lat="53.146138" lon="-3.939984"><ele>737</ele><time>2020-08-16T11:34:24Z</time><name>PT4292</name></trkpt>
<trkpt lat="53.146147" lon="-3.940018"><ele>737</ele><time>2020-08-16T11:34:28Z</time><name>PT4293</name></trkpt>
<trkpt lat="53.146154" lon="-3.940046"><ele>738</ele><time>2020-08-16T11:34:31Z</time><name>PT4294</name></trkpt>
<trkpt lat="53.146166" lon="-3.940089"><ele>739</ele><time>2020-08-16T11:34:36Z</time><name>PT4295</name></trkpt>
<trkpt lat="53.146168" lon="-3.940129"><ele>739</ele><time>2020-08-16T11:34:39Z</time><name>PT4296</name></trkpt>
<trkpt lat="53.146176" lon="-3.940194"><ele>740</ele><time>2020-08-16T11:34:42Z</time><name>PT4297</name></trkpt>
<trkpt lat="53.146194" lon="-3.940237"><ele>740</ele><time>2020-08-16T11:34:46Z</time><name>PT4298</name></trkpt>
<trkpt lat="53.146217" lon="-3.940289"><ele>740</ele><time>2020-08-16T11:34:51Z</time><name>PT4299</name></trkpt>
<trkpt lat="53.146240" lon="-3.940349"><ele>741</ele><time>2020-08-16T11:34:54Z</time><name>PT4300</name></trkpt>
<trkpt lat="53.146261" lon="-3.940376"><ele>742</ele><time>2020-08-16T11:34:57Z</time><name>PT4301</name></trkpt>
<trkpt lat="53.146274" lon="-3.940401"><ele>742</ele><time>2020-08-16T11:35:00Z</time><name>PT4302</name></trkpt>
<trkpt lat="53.146295" lon="-3.940431"><ele>742</ele><time>2020-08-16T11:35:04Z</time><name>PT4303</name></trkpt>
<trkpt lat="53.146311" lon="-3.940455"><ele>743</ele><time>2020-08-16T11:35:07Z</time><name>PT4304</name></trkpt>
<trkpt lat="53.146318" lon="-3.940490"><ele>743</ele><time>2020-08-16T11:35:10Z</time><name>PT4305</name></trkpt>
<trkpt lat="53.146318" lon="-3.940540"><ele>743</ele><time>2020-08-16T11:35:15Z</time><name>PT4306</name></trkpt>
<trkpt lat="53.146317" lon="-3.940574"><ele>744</ele><time>2020-08-16T11:35:18Z</time><name>PT4307</name></trkpt>
<trkpt lat="53.146320" lon="-3.940618"><ele>744</ele><time>2020-08-16T11:35:21Z</time><name>PT4308</name></trkpt>
<trkpt lat="53.146319" lon="-3.940655"><ele>745</ele><time>2020-08-16T11:35:24Z</time><name>PT4309</name></trkpt>
<trkpt lat="53.146319" lon="-3.940705"><ele>745</ele><time>2020-08-16T11:35:27Z</time><name>PT4310</name></trkpt>
<trkpt lat="53.146328" lon="-3.940755"><ele>746</ele><time>2020-08-16T11:35:31Z</time><name>PT4311</name></trkpt>
<trkpt lat="53.146337" lon="-3.940814"><ele>746</ele><time>2020-08-16T11:35:36Z</time><name>PT4312</name></trkpt>
<trkpt lat="53.146346" lon="-3.940875"><ele>747</ele><time>2020-08-16T11:35:39Z</time><name>PT4313</name></trkpt>
<trkpt lat="53.146356" lon="-3.940935"><ele>748</ele><time>2020-08-16T11:35:43Z</time><name>PT4314</name></trkpt>
<trkpt lat="53.146361" lon="-3.940971"><ele>748</ele><time>2020-08-16T11:35:46Z</time><name>PT4315</name></trkpt>
<trkpt lat="53.146366" lon="-3.941009"><ele>749</ele><time>2020-08-16T11:35:49Z</time><name>PT4316</name></trkpt>
<trkpt lat="53.146375" lon="-3.941051"><ele>749</ele><time>2020-08-16T11:35:54Z</time><name>PT4317</name></trkpt>
<trkpt lat="53.146394" lon="-3.941095"><ele>751</ele><time>2020-08-16T11:35:57Z</time><name>PT4318</name></trkpt>
<trkpt lat="53.146402" lon="-3.941134"><ele>752</ele><time>2020-08-16T11:36:01Z</time><name>PT4319</name></trkpt>
<trkpt lat="53.146407" lon="-3.941171"><ele>753</ele><time>2020-08-16T11:36:04Z</time><name>PT4320</name></trkpt>
<trkpt lat="53.146407" lon="-3.941220"><ele>753</ele><time>2020-08-16T11:36:09Z</time><name>PT4321</name></trkpt>
<trkpt lat="53.146409" lon="-3.941260"><ele>753</ele><time>2020-08-16T11:36:12Z</time><name>PT4322</name></trkpt>
<trkpt lat="53.146422" lon="-3.941319"><ele>754</ele><time>2020-08-16T11:36:15Z</time><name>PT4323</name></trkpt>
<trkpt lat="53.146435" lon="-3.941376"><ele>754</ele><time>2020-08-16T11:36:19Z</time><name>PT4324</name></trkpt>
<trkpt lat="53.146439" lon="-3.941432"><ele>755</ele><time>2020-08-16T11:36:24Z</time><name>PT4325</name></trkpt>
<trkpt lat="53.146444" lon="-3.941471"><ele>755</ele><time>2020-08-16T11:36:27Z</time><name>PT4326</name></trkpt>
<trkpt lat="53.146446" lon="-3.941525"><ele>756</ele><time>2020-08-16T11:36:30Z</time><name>PT4327</name></trkpt>
<trkpt lat="53.146443" lon="-3.941572"><ele>757</ele><time>2020-08-16T11:36:34Z</time><name>PT4328</name></trkpt>
<trkpt lat="53.146431" lon="-3.941608"><ele>757</ele><time>2020-08-16T11:36:37Z</time><name>PT4329</name></trkpt>
<trkpt lat="53.146424" lon="-3.941655"><ele>757</ele><time>2020-08-16T11:36:42Z</time><name>PT4330</name></trkpt>
<trkpt lat="53.146438" lon="-3.941702"><ele>757</ele><time>2020-08-16T11:36:45Z</time><name>PT4331</name></trkpt>
<trkpt lat="53.146448" lon="-3.941728"><ele>757</ele><time>2020-08-16T11:36:48Z</time><name>PT4332</name></trkpt>
<trkpt lat="53.146468" lon="-3.941764"><ele>758</ele><time>2020-08-16T11:36:52Z</time><name>PT4333</name></trkpt>
<trkpt lat="53.146485" lon="-3.941793"><ele>759</ele><time>2020-08-16T11:36:57Z</time><name>PT4334</name></trkpt>
<trkpt lat="53.146497" lon="-3.941833"><ele>759</ele><time>2020-08-16T11:37:00Z</time><name>PT4335</name></trkpt>
<trkpt lat="53.146503" lon="-3.941858"><ele>760</ele><time>2020-08-16T11:37:03Z</time><name>PT4336</name></trkpt>
<trkpt lat="53.146513" lon="-3.941876"><ele>761</ele><time>2020-08-16T11:37:06Z</time><name>PT4337</name></trkpt>
<trkpt lat="53.146531" lon="-3.941907"><ele>762</ele><time>2020-08-16T11:37:10Z</time><name>PT4338</name></trkpt>
<trkpt lat="53.146540" lon="-3.941927"><ele>763</ele><time>2020-08-16T11:37:15Z</time><name>PT4339</name></trkpt>
<trkpt lat="53.146546" lon="-3.941935"><ele>764</ele><time>2020-08-16T11:37:18Z</time><name>PT4340</name></trkpt>
<trkpt lat="53.146568" lon="-3.941964"><ele>765</ele><time>2020-08-16T11:37:21Z</time><name>PT4341</name></trkpt>
<trkpt lat="53.146577" lon="-3.941979"><ele>765</ele><time>2020-08-16T11:37:24Z</time><name>PT4342</name></trkpt>
<trkpt lat="53.146596" lon="-3.941997"><ele>766</ele><time>2020-08-16T11:37:28Z</time><name>PT4343</name></trkpt>
<trkpt lat="53.146609" lon="-3.942019"><ele>767</ele><time>2020-08-16T11:37:33Z</time><name>PT4344</name></trkpt>
<trkpt lat="53.146615" lon="-3.942034"><ele>767</ele><time>2020-08-16T11:37:36Z</time><name>PT4345</name></trkpt>
<trkpt lat="53.146618" lon="-3.942053"><ele>768</ele><time>2020-08-16T11:37:39Z</time><name>PT4346</name></trkpt>
<trkpt lat="53.146614" lon="-3.942083"><ele>768</ele><time>2020-08-16T11:37:42Z</time><name>PT4347</name></trkpt>
<trkpt lat="53.146617" lon="-3.942109"><ele>768</ele><time>2020-08-16T11:37:45Z</time><name>PT4348</name></trkpt>
<trkpt lat="53.146618" lon="-3.942120"><ele>768</ele><time>2020-08-16T11:37:48Z</time><name>PT4349</name></trkpt>
<trkpt lat="53.146617" lon="-3.942137"><ele>769</ele><time>2020-08-16T11:37:52Z</time><name>PT4350</name></trkpt>
<trkpt lat="53.146616" lon="-3.942162"><ele>770</ele><time>2020-08-16T11:37:55Z</time><name>PT4351</name></trkpt>
<trkpt lat="53.146624" lon="-3.942182"><ele>771</ele><time>2020-08-16T11:37:58Z</time><name>PT4352</name></trkpt>
<trkpt lat="53.146623" lon="-3.942195"><ele>771</ele><time>2020-08-16T11:38:01Z</time><name>PT4353</name></trkpt>
<trkpt lat="53.146629" lon="-3.942215"><ele>771</ele><time>2020-08-16T11:38:04Z</time><name>PT4354</name></trkpt>
<trkpt lat="53.146635" lon="-3.942243"><ele>772</ele><time>2020-08-16T11:38:09Z</time><name>PT4355</name></trkpt>
<trkpt lat="53.146636" lon="-3.942251"><ele>772</ele><time>2020-08-16T11:38:12Z</time><name>PT4356</name></trkpt>
<trkpt lat="53.146631" lon="-3.942284"><ele>773</ele><time>2020-08-16T11:38:16Z</time><name>PT4357</name></trkpt>
<trkpt lat="53.146627" lon="-3.942325"><ele>774</ele><time>2020-08-16T11:38:21Z</time><name>PT4358</name></trkpt>
<trkpt lat="53.146623" lon="-3.942354"><ele>775</ele><time>2020-08-16T11:38:24Z</time><name>PT4359</name></trkpt>
<trkpt lat="53.146618" lon="-3.942386"><ele>775</ele><time>2020-08-16T11:38:27Z</time><name>PT4360</name></trkpt>
<trkpt lat="53.146608" lon="-3.942421"><ele>776</ele><time>2020-08-16T11:38:31Z</time><name>PT4361</name></trkpt>
<trkpt lat="53.146607" lon="-3.942452"><ele>777</ele><time>2020-08-16T11:38:36Z</time><name>PT4362</name></trkpt>
<trkpt lat="53.146602" lon="-3.942470"><ele>778</ele><time>2020-08-16T11:38:39Z</time><name>PT4363</name></trkpt>
<trkpt lat="53.146613" lon="-3.942500"><ele>780</ele><time>2020-08-16T11:38:42Z</time><name>PT4364</name></trkpt>
<trkpt lat="53.146614" lon="-3.942509"><ele>780</ele><time>2020-08-16T11:38:45Z</time><name>PT4365</name></trkpt>
<trkpt lat="53.146602" lon="-3.942546"><ele>783</ele><time>2020-08-16T11:38:49Z</time><name>PT4366</name></trkpt>
<trkpt lat="53.146598" lon="-3.942565"><ele>784</ele><time>2020-08-16T11:38:52Z</time><name>PT4367</name></trkpt>
<trkpt lat="53.146590" lon="-3.942587"><ele>784</ele><time>2020-08-16T11:38:57Z</time><name>PT4368</name></trkpt>
<trkpt lat="53.146611" lon="-3.942590"><ele>784</ele><time>2020-08-16T11:39:00Z</time><name>PT4369</name></trkpt>
<trkpt lat="53.146630" lon="-3.942603"><ele>785</ele><time>2020-08-16T11:39:04Z</time><name>PT4370</name></trkpt>
<trkpt lat="53.146633" lon="-3.942607"><ele>785</ele><time>2020-08-16T11:39:07Z</time><name>PT4371</name></trkpt>
<trkpt lat="53.146641" lon="-3.942610"><ele>786</ele><time>2020-08-16T11:39:12Z</time><name>PT4372</name></trkpt>
<trkpt lat="53.146655" lon="-3.942630"><ele>786</ele><time>2020-08-16T11:39:15Z</time><name>PT4373</name></trkpt>
<trkpt lat="53.146671" lon="-3.942661"><ele>787</ele><time>2020-08-16T11:39:18Z</time><name>PT4374</name></trkpt>
<trkpt lat="53.146675" lon="-3.942684"><ele>787</ele><time>2020-08-16T11:39:21Z</time><name>PT4375</name></trkpt>
<trkpt lat="53.146687" lon="-3.942699"><ele>788</ele><time>2020-08-16T11:39:24Z</time><name>PT4376</name></trkpt>
<trkpt lat="53.146690" lon="-3.942718"><ele>789</ele><time>2020-08-16T11:39:27Z</time><name>PT4377</name></trkpt>
<trkpt lat="53.146694" lon="-3.942744"><ele>790</ele><time>2020-08-16T11:39:31Z</time><name>PT4378</name></trkpt>
<trkpt lat="53.146694" lon="-3.942769"><ele>791</ele><time>2020-08-16T11:39:34Z</time><name>PT4379</name></trkpt>
<trkpt lat="53.146687" lon="-3.942799"><ele>791</ele><time>2020-08-16T11:39:39Z</time><name>PT4380</name></trkpt>
<trkpt lat="53.146691" lon="-3.942823"><ele>792</ele><time>2020-08-16T11:39:42Z</time><name>PT4381</name></trkpt>
<trkpt lat="53.146701" lon="-3.942844"><ele>793</ele><time>2020-08-16T11:39:45Z</time><name>PT4382</name></trkpt>
<trkpt lat="53.146708" lon="-3.942874"><ele>794</ele><time>2020-08-16T11:39:49Z</time><name>PT4383</name></trkpt>
<trkpt lat="53.146721" lon="-3.942892"><ele>795</ele><time>2020-08-16T11:39:52Z</time><name>PT4384</name></trkpt>
<trkpt lat="53.146736" lon="-3.942902"><ele>795</ele><time>2020-08-16T11:39:55Z</time><name>PT4385</name></trkpt>
<trkpt lat="53.146762" lon="-3.942920"><ele>796</ele><time>2020-08-16T11:40:00Z</time><name>PT4386</name></trkpt>
<trkpt lat="53.146781" lon="-3.942939"><ele>796</ele><time>2020-08-16T11:40:03Z</time><name>PT4387</name></trkpt>
<trkpt lat="53.146799" lon="-3.942973"><ele>796</ele><time>2020-08-16T11:40:06Z</time><name>PT4388</name></trkpt>
<trkpt lat="53.146802" lon="-3.942998"><ele>796</ele><time>2020-08-16T11:40:09Z</time><name>PT4389</name></trkpt>
<trkpt lat="53.146809" lon="-3.943037"><ele>796</ele><time>2020-08-16T11:40:13Z</time><name>PT4390</name></trkpt>
<trkpt lat="53.146817" lon="-3.943076"><ele>797</ele><time>2020-08-16T11:40:18Z</time><name>PT4391</name></trkpt>
<trkpt lat="53.146824" lon="-3.943112"><ele>798</ele><time>2020-08-16T11:40:21Z</time><name>PT4392</name></trkpt>
<trkpt lat="53.146824" lon="-3.943149"><ele>797</ele><time>2020-08-16T11:40:24Z</time><name>PT4393</name></trkpt>
<trkpt lat="53.146827" lon="-3.943167"><ele>798</ele><time>2020-08-16T11:40:25Z</time><name>PT4394</name></trkpt>
<trkpt lat="53.146827" lon="-3.943185"><ele>798</ele><time>2020-08-16T11:40:27Z</time><name>PT4395</name></trkpt>
<trkpt lat="53.146828" lon="-3.943192"><ele>798</ele><time>2020-08-16T11:40:27Z</time><name>PT4396</name></trkpt>
<trkpt lat="53.146834" lon="-3.943202"><ele>799</ele><time>2020-08-16T11:40:28Z</time><name>PT4397</name></trkpt>
<trkpt lat="53.146834" lon="-3.943215"><ele>799</ele><time>2020-08-16T11:40:30Z</time><name>PT4398</name></trkpt>
<trkpt lat="53.146836" lon="-3.943222"><ele>799</ele><time>2020-08-16T11:40:30Z</time><name>PT4399</name></trkpt>
<trkpt lat="53.146838" lon="-3.943230"><ele>799</ele><time>2020-08-16T11:40:31Z</time><name>PT4400</name></trkpt>
<trkpt lat="53.146838" lon="-3.943239"><ele>799</ele><time>2020-08-16T11:40:33Z</time><name>PT4401</name></trkpt>
<trkpt lat="53.146840" lon="-3.943245"><ele>799</ele><time>2020-08-16T11:40:33Z</time><name>PT4402</name></trkpt>
<trkpt lat="53.146841" lon="-3.943253"><ele>799</ele><time>2020-08-16T11:40:34Z</time><name>PT4403</name></trkpt>
<trkpt lat="53.146844" lon="-3.943265"><ele>800</ele><time>2020-08-16T11:40:36Z</time><name>PT4404</name></trkpt>
<trkpt lat="53.146846" lon="-3.943275"><ele>800</ele><time>2020-08-16T11:40:36Z</time><name>PT4405</name></trkpt>
<trkpt lat="53.146849" lon="-3.943281"><ele>800</ele><time>2020-08-16T11:40:37Z</time><name>PT4406</name></trkpt>
<trkpt lat="53.146854" lon="-3.943285"><ele>801</ele><time>2020-08-16T11:40:39Z</time><name>PT4407</name></trkpt>
<trkpt lat="53.146861" lon="-3.943290"><ele>801</ele><time>2020-08-16T11:40:39Z</time><name>PT4408</name></trkpt>
<trkpt lat="53.146868" lon="-3.943298"><ele>801</ele><time>2020-08-16T11:40:40Z</time><name>PT4409</name></trkpt>
<trkpt lat="53.146873" lon="-3.943309"><ele>801</ele><time>2020-08-16T11:40:42Z</time><name>PT4410</name></trkpt>
<trkpt lat="53.146877" lon="-3.943319"><ele>801</ele><time>2020-08-16T11:40:42Z</time><name>PT4411</name></trkpt>
<trkpt lat="53.146883" lon="-3.943331"><ele>802</ele><time>2020-08-16T11:40:43Z</time><name>PT4412</name></trkpt>
<trkpt lat="53.146886" lon="-3.943342"><ele>802</ele><time>2020-08-16T11:40:45Z</time><name>PT4413</name></trkpt>
<trkpt lat="53.146887" lon="-3.943350"><ele>802</ele><time>2020-08-16T11:40:45Z</time><name>PT4414</name></trkpt>
<trkpt lat="53.146888" lon="-3.943364"><ele>803</ele><time>2020-08-16T11:40:46Z</time><name>PT4415</name></trkpt>
<trkpt lat="53.146886" lon="-3.943375"><ele>803</ele><time>2020-08-16T11:40:48Z</time><name>PT4416</name></trkpt>
<trkpt lat="53.146884" lon="-3.943384"><ele>803</ele><time>2020-08-16T11:40:48Z</time><name>PT4417</name></trkpt>
<trkpt lat="53.146886" lon="-3.943395"><ele>803</ele><time>2020-08-16T11:40:49Z</time><name>PT4418</name></trkpt>
<trkpt lat="53.146888" lon="-3.943406"><ele>803</ele><time>2020-08-16T11:40:51Z</time><name>PT4419</name></trkpt>
<trkpt lat="53.146889" lon="-3.943415"><ele>803</ele><time>2020-08-16T11:40:51Z</time><name>PT4420</name></trkpt>
<trkpt lat="53.146888" lon="-3.943429"><ele>803</ele><time>2020-08-16T11:40:52Z</time><name>PT4421</name></trkpt>
<trkpt lat="53.146886" lon="-3.943438"><ele>804</ele><time>2020-08-16T11:40:54Z</time><name>PT4422</name></trkpt>
<trkpt lat="53.146884" lon="-3.943448"><ele>804</ele><time>2020-08-16T11:40:54Z</time><name>PT4423</name></trkpt>
<trkpt lat="53.146882" lon="-3.943462"><ele>804</ele><time>2020-08-16T11:40:55Z</time><name>PT4424</name></trkpt>
<trkpt lat="53.146881" lon="-3.943475"><ele>805</ele><time>2020-08-16T11:40:57Z</time><name>PT4425</name></trkpt>
<trkpt lat="53.146882" lon="-3.943485"><ele>805</ele><time>2020-08-16T11:40:57Z</time><name>PT4426</name></trkpt>
<trkpt lat="53.146883" lon="-3.943495"><ele>805</ele><time>2020-08-16T11:40:58Z</time><name>PT4427</name></trkpt>
<trkpt lat="53.146884" lon="-3.943506"><ele>806</ele><time>2020-08-16T11:41:00Z</time><name>PT4428</name></trkpt>
<trkpt lat="53.146886" lon="-3.943518"><ele>806</ele><time>2020-08-16T11:41:00Z</time><name>PT4429</name></trkpt>
<trkpt lat="53.146889" lon="-3.943530"><ele>806</ele><time>2020-08-16T11:41:01Z</time><name>PT4430</name></trkpt>
<trkpt lat="53.146891" lon="-3.943542"><ele>806</ele><time>2020-08-16T11:41:03Z</time><name>PT4431</name></trkpt>
<trkpt lat="53.146891" lon="-3.943554"><ele>807</ele><time>2020-08-16T11:41:03Z</time><name>PT4432</name></trkpt>
<trkpt lat="53.146892" lon="-3.943563"><ele>807</ele><time>2020-08-16T11:41:04Z</time><name>PT4433</name></trkpt>
<trkpt lat="53.146893" lon="-3.943576"><ele>807</ele><time>2020-08-16T11:41:06Z</time><name>PT4434</name></trkpt>
<trkpt lat="53.146895" lon="-3.943590"><ele>807</ele><time>2020-08-16T11:41:06Z</time><name>PT4435</name></trkpt>
<trkpt lat="53.146897" lon="-3.943603"><ele>807</ele><time>2020-08-16T11:41:07Z</time><name>PT4436</name></trkpt>
<trkpt lat="53.146898" lon="-3.943617"><ele>808</ele><time>2020-08-16T11:41:09Z</time><name>PT4437</name></trkpt>
<trkpt lat="53.146898" lon="-3.943630"><ele>808</ele><time>2020-08-16T11:41:09Z</time><name>PT4438</name></trkpt>
<trkpt lat="53.146899" lon="-3.943641"><ele>808</ele><time>2020-08-16T11:41:10Z</time><name>PT4439</name></trkpt>
<trkpt lat="53.146900" lon="-3.943658"><ele>808</ele><time>2020-08-16T11:41:12Z</time><name>PT4440</name></trkpt>
<trkpt lat="53.146900" lon="-3.943669"><ele>809</ele><time>2020-08-16T11:41:12Z</time><name>PT4441</name></trkpt>
<trkpt lat="53.146899" lon="-3.943679"><ele>809</ele><time>2020-08-16T11:41:13Z</time><name>PT4442</name></trkpt>
<trkpt lat="53.146898" lon="-3.943693"><ele>809</ele><time>2020-08-16T11:41:15Z</time><name>PT4443</name></trkpt>
<trkpt lat="53.146897" lon="-3.943709"><ele>809</ele><time>2020-08-16T11:41:15Z</time><name>PT4444</name></trkpt>
<trkpt lat="53.146896" lon="-3.943722"><ele>809</ele><time>2020-08-16T11:41:16Z</time><name>PT4445</name></trkpt>
<trkpt lat="53.146895" lon="-3.943737"><ele>809</ele><time>2020-08-16T11:41:18Z</time><name>PT4446</name></trkpt>
<trkpt lat="53.146894" lon="-3.943750"><ele>809</ele><time>2020-08-16T11:41:18Z</time><name>PT4447</name></trkpt>
<trkpt lat="53.146891" lon="-3.943761"><ele>809</ele><time>2020-08-16T11:41:19Z</time><name>PT4448</name></trkpt>
<trkpt lat="53.146889" lon="-3.943777"><ele>809</ele><time>2020-08-16T11:41:21Z</time><name>PT4449</name></trkpt>
<trkpt lat="53.146887" lon="-3.943793"><ele>809</ele><time>2020-08-16T11:41:21Z</time><name>PT4450</name></trkpt>
<trkpt lat="53.146886" lon="-3.943806"><ele>809</ele><time>2020-08-16T11:41:22Z</time><name>PT4451</name></trkpt>
<trkpt lat="53.146885" lon="-3.943820"><ele>809</ele><time>2020-08-16T11:41:24Z</time><name>PT4452</name></trkpt>
<trkpt lat="53.146885" lon="-3.943831"><ele>809</ele><time>2020-08-16T11:41:24Z</time><name>PT4453</name></trkpt>
<trkpt lat="53.146886" lon="-3.943848"><ele>809</ele><time>2020-08-16T11:41:25Z</time><name>PT4454</name></trkpt>
<trkpt lat="53.146886" lon="-3.943863"><ele>809</ele><time>2020-08-16T11:41:27Z</time><name>PT4455</name></trkpt>
<trkpt lat="53.146884" lon="-3.943878"><ele>809</ele><time>2020-08-16T11:41:27Z</time><name>PT4456</name></trkpt>
<trkpt lat="53.146883" lon="-3.943895"><ele>809</ele><time>2020-08-16T11:41:28Z</time><name>PT4457</name></trkpt>
<trkpt lat="53.146881" lon="-3.943908"><ele>809</ele><time>2020-08-16T11:41:30Z</time><name>PT4458</name></trkpt>
<trkpt lat="53.146882" lon="-3.943922"><ele>809</ele><time>2020-08-16T11:41:30Z</time><name>PT4459</name></trkpt>
<trkpt lat="53.146885" lon="-3.943938"><ele>809</ele><time>2020-08-16T11:41:31Z</time><name>PT4460</name></trkpt>
<trkpt lat="53.146889" lon="-3.943954"><ele>809</ele><time>2020-08-16T11:41:33Z</time><name>PT4461</name></trkpt>
<trkpt lat="53.146894" lon="-3.943969"><ele>809</ele><time>2020-08-16T11:41:33Z</time><name>PT4462</name></trkpt>
<trkpt lat="53.146898" lon="-3.943984"><ele>809</ele><time>2020-08-16T11:41:34Z</time><name>PT4463</name></trkpt>
<trkpt lat="53.146900" lon="-3.943998"><ele>809</ele><time>2020-08-16T11:41:36Z</time><name>PT4464</name></trkpt>
<trkpt lat="53.146902" lon="-3.944017"><ele>810</ele><time>2020-08-16T11:41:36Z</time><name>PT4465</name></trkpt>
<trkpt lat="53.146902" lon="-3.944030"><ele>810</ele><time>2020-08-16T11:41:37Z</time><name>PT4466</name></trkpt>
<trkpt lat="53.146898" lon="-3.944047"><ele>810</ele><time>2020-08-16T11:41:39Z</time><name>PT4467</name></trkpt>
<trkpt lat="53.146895" lon="-3.944064"><ele>810</ele><time>2020-08-16T11:41:39Z</time><name>PT4468</name></trkpt>
<trkpt lat="53.146893" lon="-3.944076"><ele>810</ele><time>2020-08-16T11:41:40Z</time><name>PT4469</name></trkpt>
<trkpt lat="53.146892" lon="-3.944090"><ele>810</ele><time>2020-08-16T11:41:42Z</time><name>PT4470</name></trkpt>
<trkpt lat="53.146892" lon="-3.944104"><ele>810</ele><time>2020-08-16T11:41:42Z</time><name>PT4471</name></trkpt>
<trkpt lat="53.146895" lon="-3.944120"><ele>810</ele><time>2020-08-16T11:41:43Z</time><name>PT4472</name></trkpt>
<trkpt lat="53.146895" lon="-3.944131"><ele>810</ele><time>2020-08-16T11:41:45Z</time><name>PT4473</name></trkpt>
<trkpt lat="53.146895" lon="-3.944140"><ele>810</ele><time>2020-08-16T11:41:45Z</time><name>PT4474</name></trkpt>
<trkpt lat="53.146897" lon="-3.944155"><ele>811</ele><time>2020-08-16T11:41:46Z</time><name>PT4475</name></trkpt>
<trkpt lat="53.146896" lon="-3.944169"><ele>811</ele><time>2020-08-16T11:41:48Z</time><name>PT4476</name></trkpt>
<trkpt lat="53.146895" lon="-3.944182"><ele>811</ele><time>2020-08-16T11:41:48Z</time><name>PT4477</name></trkpt>
<trkpt lat="53.146895" lon="-3.944195"><ele>811</ele><time>2020-08-16T11:41:49Z</time><name>PT4478</name></trkpt>
<trkpt lat="53.146896" lon="-3.944210"><ele>811</ele><time>2020-08-16T11:41:51Z</time><name>PT4479</name></trkpt>
<trkpt lat="53.146896" lon="-3.944225"><ele>811</ele><time>2020-08-16T11:41:51Z</time><name>PT4480</name></trkpt>
<trkpt lat="53.146896" lon="-3.944239"><ele>811</ele><time>2020-08-16T11:41:52Z</time><name>PT4481</name></trkpt>
<trkpt lat="53.146899" lon="-3.944254"><ele>812</ele><time>2020-08-16T11:41:54Z</time><name>PT4482</name></trkpt>
<trkpt lat="53.146902" lon="-3.944269"><ele>812</ele><time>2020-08-16T11:41:54Z</time><name>PT4483</name></trkpt>
<trkpt lat="53.146904" lon="-3.944285"><ele>812</ele><time>2020-08-16T11:41:55Z</time><name>PT4484</name></trkpt>
<trkpt lat="53.146908" lon="-3.944299"><ele>813</ele><time>2020-08-16T11:41:57Z</time><name>PT4485</name></trkpt>
<trkpt lat="53.146908" lon="-3.944314"><ele>813</ele><time>2020-08-16T11:41:57Z</time><name>PT4486</name></trkpt>
<trkpt lat="53.146909" lon="-3.944329"><ele>813</ele><time>2020-08-16T11:41:58Z</time><name>PT4487</name></trkpt>
<trkpt lat="53.146910" lon="-3.944342"><ele>812</ele><time>2020-08-16T11:42:00Z</time><name>PT4488</name></trkpt>
<trkpt lat="53.146912" lon="-3.944355"><ele>813</ele><time>2020-08-16T11:42:00Z</time><name>PT4489</name></trkpt>
<trkpt lat="53.146914" lon="-3.944370"><ele>813</ele><time>2020-08-16T11:42:01Z</time><name>PT4490</name></trkpt>
<trkpt lat="53.146915" lon="-3.944385"><ele>813</ele><time>2020-08-16T11:42:03Z</time><name>PT4491</name></trkpt>
<trkpt lat="53.146916" lon="-3.944399"><ele>813</ele><time>2020-08-16T11:42:03Z</time><name>PT4492</name></trkpt>
<trkpt lat="53.146918" lon="-3.944413"><ele>813</ele><time>2020-08-16T11:42:04Z</time><name>PT4493</name></trkpt>
<trkpt lat="53.146921" lon="-3.944428"><ele>814</ele><time>2020-08-16T11:42:06Z</time><name>PT4494</name></trkpt>
<trkpt lat="53.146923" lon="-3.944442"><ele>813</ele><time>2020-08-16T11:42:06Z</time><name>PT4495</name></trkpt>
<trkpt lat="53.146926" lon="-3.944458"><ele>814</ele><time>2020-08-16T11:42:07Z</time><name>PT4496</name></trkpt>
<trkpt lat="53.146926" lon="-3.944473"><ele>814</ele><time>2020-08-16T11:42:09Z</time><name>PT4497</name></trkpt>
<trkpt lat="53.146925" lon="-3.944485"><ele>814</ele><time>2020-08-16T11:42:09Z</time><name>PT4498</name></trkpt>
<trkpt lat="53.146926" lon="-3.944498"><ele>814</ele><time>2020-08-16T11:42:10Z</time><name>PT4499</name></trkpt>
<trkpt lat="53.146927" lon="-3.944508"><ele>814</ele><time>2020-08-16T11:42:12Z</time><name>PT4500</name></trkpt>
<trkpt lat="53.146926" lon="-3.944518"><ele>814</ele><time>2020-08-16T11:42:12Z</time><name>PT4501</name></trkpt>
<trkpt lat="53.146926" lon="-3.944525"><ele>814</ele><time>2020-08-16T11:42:13Z</time><name>PT4502</name></trkpt>
<trkpt lat="53.146925" lon="-3.944534"><ele>814</ele><time>2020-08-16T11:42:15Z</time><name>PT4503</name></trkpt>
<trkpt lat="53.146924" lon="-3.944545"><ele>815</ele><time>2020-08-16T11:42:15Z</time><name>PT4504</name></trkpt>
<trkpt lat="53.146925" lon="-3.944552"><ele>814</ele><time>2020-08-16T11:42:16Z</time><name>PT4505</name></trkpt>
<trkpt lat="53.146926" lon="-3.944560"><ele>814</ele><time>2020-08-16T11:42:18Z</time><name>PT4506</name></trkpt>
<trkpt lat="53.146932" lon="-3.944571"><ele>814</ele><time>2020-08-16T11:42:18Z</time><name>PT4507</name></trkpt>
<trkpt lat="53.146936" lon="-3.944590"><ele>815</ele><time>2020-08-16T11:42:19Z</time><name>PT4508</name></trkpt>
<trkpt lat="53.146940" lon="-3.944612"><ele>816</ele><time>2020-08-16T11:42:21Z</time><name>PT4509</name></trkpt>
<trkpt lat="53.146945" lon="-3.944626"><ele>816</ele><time>2020-08-16T11:42:21Z</time><name>PT4510</name></trkpt>
<trkpt lat="53.146949" lon="-3.944638"><ele>816</ele><time>2020-08-16T11:42:22Z</time><name>PT4511</name></trkpt>
<trkpt lat="53.146955" lon="-3.944654"><ele>816</ele><time>2020-08-16T11:42:24Z</time><name>PT4512</name></trkpt>
<trkpt lat="53.146959" lon="-3.944669"><ele>815</ele><time>2020-08-16T11:42:24Z</time><name>PT4513</name></trkpt>
<trkpt lat="53.146963" lon="-3.944685"><ele>816</ele><time>2020-08-16T11:42:25Z</time><name>PT4514</name></trkpt>
<trkpt lat="53.146963" lon="-3.944695"><ele>816</ele><time>2020-08-16T11:42:27Z</time><name>PT4515</name></trkpt>
<trkpt lat="53.146963" lon="-3.944705"><ele>816</ele><time>2020-08-16T11:42:27Z</time><name>PT4516</name></trkpt>
<trkpt lat="53.146963" lon="-3.944716"><ele>816</ele><time>2020-08-16T11:42:28Z</time><name>PT4517</name></trkpt>
<trkpt lat="53.146965" lon="-3.944727"><ele>816</ele><time>2020-08-16T11:42:30Z</time><name>PT4518</name></trkpt>
<trkpt lat="53.146970" lon="-3.944739"><ele>816</ele><time>2020-08-16T11:42:30Z</time><name>PT4519</name></trkpt>
<trkpt lat="53.146973" lon="-3.944750"><ele>816</ele><time>2020-08-16T11:42:31Z</time><name>PT4520</name></trkpt>
<trkpt lat="53.146979" lon="-3.944763"><ele>816</ele><time>2020-08-16T11:42:33Z</time><name>PT4521</name></trkpt>
<trkpt lat="53.146983" lon="-3.944772"><ele>817</ele><time>2020-08-16T11:42:33Z</time><name>PT4522</name></trkpt>
<trkpt lat="53.146984" lon="-3.944772"><ele>817</ele><time>2020-08-16T11:42:34Z</time><name>PT4523</name></trkpt>
<trkpt lat="53.146984" lon="-3.944775"><ele>817</ele><time>2020-08-16T11:42:36Z</time><name>PT4524</name></trkpt>
<trkpt lat="53.146987" lon="-3.944784"><ele>817</ele><time>2020-08-16T11:42:36Z</time><name>PT4525</name></trkpt>
<trkpt lat="53.146991" lon="-3.944796"><ele>816</ele><time>2020-08-16T11:42:37Z</time><name>PT4526</name></trkpt>
<trkpt lat="53.146998" lon="-3.944808"><ele>816</ele><time>2020-08-16T11:42:39Z</time><name>PT4527</name></trkpt>
<trkpt lat="53.147005" lon="-3.944822"><ele>816</ele><time>2020-08-16T11:42:39Z</time><name>PT4528</name></trkpt>
<trkpt lat="53.147009" lon="-3.944837"><ele>816</ele><time>2020-08-16T11:42:40Z</time><name>PT4529</name></trkpt>
<trkpt lat="53.147013" lon="-3.944853"><ele>816</ele><time>2020-08-16T11:42:42Z</time><name>PT4530</name></trkpt>
<trkpt lat="53.147016" lon="-3.944864"><ele>816</ele><time>2020-08-16T11:42:42Z</time><name>PT4531</name></trkpt>
<trkpt lat="53.147021" lon="-3.944875"><ele>817</ele><time>2020-08-16T11:42:43Z</time><name>PT4532</name></trkpt>
<trkpt lat="53.147024" lon="-3.944886"><ele>817</ele><time>2020-08-16T11:42:45Z</time><name>PT4533</name></trkpt>
<trkpt lat="53.147029" lon="-3.944900"><ele>817</ele><time>2020-08-16T11:42:45Z</time><name>PT4534</name></trkpt>
<trkpt lat="53.147034" lon="-3.944912"><ele>817</ele><time>2020-08-16T11:42:46Z</time><name>PT4535</name></trkpt>
<trkpt lat="53.147041" lon="-3.944925"><ele>817</ele><time>2020-08-16T11:42:48Z</time><name>PT4536</name></trkpt>
<trkpt lat="53.147044" lon="-3.944939"><ele>818</ele><time>2020-08-16T11:42:48Z</time><name>PT4537</name></trkpt>
<trkpt lat="53.147044" lon="-3.944950"><ele>818</ele><time>2020-08-16T11:42:49Z</time><name>PT4538</name></trkpt>
<trkpt lat="53.147046" lon="-3.944962"><ele>818</ele><time>2020-08-16T11:42:51Z</time><name>PT4539</name></trkpt>
<trkpt lat="53.147049" lon="-3.944975"><ele>818</ele><time>2020-08-16T11:42:51Z</time><name>PT4540</name></trkpt>
<trkpt lat="53.147051" lon="-3.944984"><ele>818</ele><time>2020-08-16T11:42:52Z</time><name>PT4541</name></trkpt>
<trkpt lat="53.147055" lon="-3.944994"><ele>818</ele><time>2020-08-16T11:42:54Z</time><name>PT4542</name></trkpt>
<trkpt lat="53.147058" lon="-3.945003"><ele>819</ele><time>2020-08-16T11:42:54Z</time><name>PT4543</name></trkpt>
<trkpt lat="53.147060" lon="-3.945019"><ele>819</ele><time>2020-08-16T11:42:55Z</time><name>PT4544</name></trkpt>
<trkpt lat="53.147062" lon="-3.945031"><ele>819</ele><time>2020-08-16T11:42:57Z</time><name>PT4545</name></trkpt>
<trkpt lat="53.147065" lon="-3.945044"><ele>819</ele><time>2020-08-16T11:42:57Z</time><name>PT4546</name></trkpt>
<trkpt lat="53.147067" lon="-3.945055"><ele>819</ele><time>2020-08-16T11:42:58Z</time><name>PT4547</name></trkpt>
<trkpt lat="53.147068" lon="-3.945069"><ele>819</ele><time>2020-08-16T11:43:00Z</time><name>PT4548</name></trkpt>
<trkpt lat="53.147073" lon="-3.945078"><ele>819</ele><time>2020-08-16T11:43:00Z</time><name>PT4549</name></trkpt>
<trkpt lat="53.147077" lon="-3.945087"><ele>819</ele><time>2020-08-16T11:43:01Z</time><name>PT4550</name></trkpt>
<trkpt lat="53.147081" lon="-3.945097"><ele>820</ele><time>2020-08-16T11:43:03Z</time><name>PT4551</name></trkpt>
<trkpt lat="53.147084" lon="-3.945110"><ele>820</ele><time>2020-08-16T11:43:03Z</time><name>PT4552</name></trkpt>
<trkpt lat="53.147085" lon="-3.945122"><ele>820</ele><time>2020-08-16T11:43:04Z</time><name>PT4553</name></trkpt>
<trkpt lat="53.147088" lon="-3.945134"><ele>820</ele><time>2020-08-16T11:43:06Z</time><name>PT4554</name></trkpt>
<trkpt lat="53.147090" lon="-3.945145"><ele>820</ele><time>2020-08-16T11:43:06Z</time><name>PT4555</name></trkpt>
<trkpt lat="53.147096" lon="-3.945155"><ele>820</ele><time>2020-08-16T11:43:07Z</time><name>PT4556</name></trkpt>
<trkpt lat="53.147100" lon="-3.945166"><ele>820</ele><time>2020-08-16T11:43:09Z</time><name>PT4557</name></trkpt>
<trkpt lat="53.147103" lon="-3.945177"><ele>820</ele><time>2020-08-16T11:43:09Z</time><name>PT4558</name></trkpt>
<trkpt lat="53.147107" lon="-3.945192"><ele>820</ele><time>2020-08-16T11:43:10Z</time><name>PT4559</name></trkpt>
<trkpt lat="53.147110" lon="-3.945205"><ele>820</ele><time>2020-08-16T11:43:12Z</time><name>PT4560</name></trkpt>
<trkpt lat="53.147114" lon="-3.945220"><ele>820</ele><time>2020-08-16T11:43:12Z</time><name>PT4561</name></trkpt>
<trkpt lat="53.147118" lon="-3.945230"><ele>820</ele><time>2020-08-16T11:43:13Z</time><name>PT4562</name></trkpt>
<trkpt lat="53.147126" lon="-3.945242"><ele>820</ele><time>2020-08-16T11:43:15Z</time><name>PT4563</name></trkpt>
<trkpt lat="53.147131" lon="-3.945254"><ele>820</ele><time>2020-08-16T11:43:15Z</time><name>PT4564</name></trkpt>
<trkpt lat="53.147137" lon="-3.945268"><ele>820</ele><time>2020-08-16T11:43:16Z</time><name>PT4565</name></trkpt>
<trkpt lat="53.147143" lon="-3.945282"><ele>820</ele><time>2020-08-16T11:43:18Z</time><name>PT4566</name></trkpt>
<trkpt lat="53.147148" lon="-3.945296"><ele>820</ele><time>2020-08-16T11:43:18Z</time><name>PT4567</name></trkpt>
<trkpt lat="53.147152" lon="-3.945308"><ele>821</ele><time>2020-08-16T11:43:19Z</time><name>PT4568</name></trkpt>
<trkpt lat="53.147154" lon="-3.945320"><ele>821</ele><time>2020-08-16T11:43:21Z</time><name>PT4569</name></trkpt>
<trkpt lat="53.147157" lon="-3.945334"><ele>821</ele><time>2020-08-16T11:43:21Z</time><name>PT4570</name></trkpt>
<trkpt lat="53.147161" lon="-3.945346"><ele>821</ele><time>2020-08-16T11:43:22Z</time><name>PT4571</name></trkpt>
<trkpt lat="53.147166" lon="-3.945360"><ele>821</ele><time>2020-08-16T11:43:24Z</time><name>PT4572</name></trkpt>
<trkpt lat="53.147170" lon="-3.945371"><ele>822</ele><time>2020-08-16T11:43:24Z</time><name>PT4573</name></trkpt>
<trkpt lat="53.147173" lon="-3.945385"><ele>822</ele><time>2020-08-16T11:43:25Z</time><name>PT4574</name></trkpt>
<trkpt lat="53.147190" lon="-3.945434"><ele>822</ele><time>2020-08-16T11:43:30Z</time><name>PT4575</name></trkpt>
<trkpt lat="53.147199" lon="-3.945488"><ele>823</ele><time>2020-08-16T11:43:33Z</time><name>PT4576</name></trkpt>
<trkpt lat="53.147202" lon="-3.945532"><ele>824</ele><time>2020-08-16T11:43:36Z</time><name>PT4577</name></trkpt>
<trkpt lat="53.147208" lon="-3.945566"><ele>823</ele><time>2020-08-16T11:43:40Z</time><name>PT4578</name></trkpt>
<trkpt lat="53.147226" lon="-3.945603"><ele>825</ele><time>2020-08-16T11:43:43Z</time><name>PT4579</name></trkpt>
<trkpt lat="53.147234" lon="-3.945617"><ele>825</ele><time>2020-08-16T11:43:45Z</time><name>PT4580</name></trkpt>
<trkpt lat="53.147240" lon="-3.945626"><ele>825</ele><time>2020-08-16T11:43:45Z</time><name>PT4581</name></trkpt>
<trkpt lat="53.147248" lon="-3.945634"><ele>825</ele><time>2020-08-16T11:43:46Z</time><name>PT4582</name></trkpt>
<trkpt lat="53.147256" lon="-3.945642"><ele>826</ele><time>2020-08-16T11:43:48Z</time><name>PT4583</name></trkpt>
<trkpt lat="53.147263" lon="-3.945648"><ele>826</ele><time>2020-08-16T11:43:48Z</time><name>PT4584</name></trkpt>
<trkpt lat="53.147269" lon="-3.945657"><ele>826</ele><time>2020-08-16T11:43:49Z</time><name>PT4585</name></trkpt>
<trkpt lat="53.147277" lon="-3.945666"><ele>826</ele><time>2020-08-16T11:43:51Z</time><name>PT4586</name></trkpt>
<trkpt lat="53.147285" lon="-3.945675"><ele>826</ele><time>2020-08-16T11:43:51Z</time><name>PT4587</name></trkpt>
<trkpt lat="53.147291" lon="-3.945682"><ele>826</ele><time>2020-08-16T11:43:52Z</time><name>PT4588</name></trkpt>
<trkpt lat="53.147295" lon="-3.945692"><ele>826</ele><time>2020-08-16T11:43:54Z</time><name>PT4589</name></trkpt>
<trkpt lat="53.147297" lon="-3.945703"><ele>827</ele><time>2020-08-16T11:43:54Z</time><name>PT4590</name></trkpt>
<trkpt lat="53.147298" lon="-3.945712"><ele>827</ele><time>2020-08-16T11:43:55Z</time><name>PT4591</name></trkpt>
<trkpt lat="53.147297" lon="-3.945721"><ele>827</ele><time>2020-08-16T11:43:57Z</time><name>PT4592</name></trkpt>
<trkpt lat="53.147297" lon="-3.945727"><ele>827</ele><time>2020-08-16T11:43:57Z</time><name>PT4593</name></trkpt>
<trkpt lat="53.147296" lon="-3.945730"><ele>827</ele><time>2020-08-16T11:43:58Z</time><name>PT4594</name></trkpt>
<trkpt lat="53.147296" lon="-3.945732"><ele>827</ele><time>2020-08-16T11:44:00Z</time><name>PT4595</name></trkpt>
<trkpt lat="53.147294" lon="-3.945732"><ele>827</ele><time>2020-08-16T11:44:00Z</time><name>PT4596</name></trkpt>
<trkpt lat="53.147292" lon="-3.945733"><ele>827</ele><time>2020-08-16T11:44:01Z</time><name>PT4597</name></trkpt>
<trkpt lat="53.147288" lon="-3.945727"><ele>827</ele><time>2020-08-16T11:44:03Z</time><name>PT4598</name></trkpt>
<trkpt lat="53.147287" lon="-3.945726"><ele>827</ele><time>2020-08-16T11:44:03Z</time><name>PT4599</name></trkpt>
<trkpt lat="53.147287" lon="-3.945724"><ele>827</ele><time>2020-08-16T11:44:04Z</time><name>PT4600</name></trkpt>
<trkpt lat="53.147288" lon="-3.945728"><ele>827</ele><time>2020-08-16T11:44:06Z</time><name>PT4601</name></trkpt>
<trkpt lat="53.147288" lon="-3.945727"><ele>827</ele><time>2020-08-16T11:44:06Z</time><name>PT4602</name></trkpt>
<trkpt lat="53.147288" lon="-3.945727"><ele>827</ele><time>2020-08-16T11:44:07Z</time><name>PT4603</name></trkpt>
<trkpt lat="53.147289" lon="-3.945728"><ele>827</ele><time>2020-08-16T11:44:09Z</time><name>PT4604</name></trkpt>
<trkpt lat="53.147289" lon="-3.945727"><ele>826</ele><time>2020-08-16T11:44:13Z</time><name>PT4605</name></trkpt>
<trkpt lat="53.147285" lon="-3.945734"><ele>826</ele><time>2020-08-16T11:44:15Z</time><name>PT4606</name></trkpt>
<trkpt lat="53.147281" lon="-3.945746"><ele>826</ele><time>2020-08-16T11:44:15Z</time><name>PT4607</name></trkpt>
<trkpt lat="53.147276" lon="-3.945751"><ele>827</ele><time>2020-08-16T11:44:16Z</time><name>PT4608</name></trkpt>
<trkpt lat="53.147274" lon="-3.945753"><ele>827</ele><time>2020-08-16T11:44:18Z</time><name>PT4609</name></trkpt>
<trkpt lat="53.147273" lon="-3.945756"><ele>827</ele><time>2020-08-16T11:44:18Z</time><name>PT4610</name></trkpt>
<trkpt lat="53.147273" lon="-3.945758"><ele>826</ele><time>2020-08-16T11:44:19Z</time><name>PT4611</name></trkpt>
<trkpt lat="53.147272" lon="-3.945757"><ele>826</ele><time>2020-08-16T11:44:21Z</time><name>PT4612</name></trkpt>
<trkpt lat="53.147270" lon="-3.945756"><ele>826</ele><time>2020-08-16T11:44:21Z</time><name>PT4613</name></trkpt>
<trkpt lat="53.147267" lon="-3.945756"><ele>826</ele><time>2020-08-16T11:44:22Z</time><name>PT4614</name></trkpt>
<trkpt lat="53.147267" lon="-3.945756"><ele>826</ele><time>2020-08-16T11:44:24Z</time><name>PT4615</name></trkpt>
<trkpt lat="53.147268" lon="-3.945752"><ele>826</ele><time>2020-08-16T11:44:24Z</time><name>PT4616</name></trkpt>
<trkpt lat="53.147274" lon="-3.945751"><ele>826</ele><time>2020-08-16T11:44:25Z</time><name>PT4617</name></trkpt>
<trkpt lat="53.147280" lon="-3.945754"><ele>827</ele><time>2020-08-16T11:44:27Z</time><name>PT4618</name></trkpt>
<trkpt lat="53.147284" lon="-3.945758"><ele>827</ele><time>2020-08-16T11:44:27Z</time><name>PT4619</name></trkpt>
<trkpt lat="53.147286" lon="-3.945764"><ele>827</ele><time>2020-08-16T11:44:28Z</time><name>PT4620</name></trkpt>
<trkpt lat="53.147289" lon="-3.945765"><ele>828</ele><time>2020-08-16T11:44:30Z</time><name>PT4621</name></trkpt>
<trkpt lat="53.147287" lon="-3.945765"><ele>827</ele><time>2020-08-16T11:44:30Z</time><name>PT4622</name></trkpt>
<trkpt lat="53.147286" lon="-3.945773"><ele>827</ele><time>2020-08-16T11:44:31Z</time><name>PT4623</name></trkpt>
<trkpt lat="53.147280" lon="-3.945770"><ele>826</ele><time>2020-08-16T11:44:33Z</time><name>PT4624</name></trkpt>
<trkpt lat="53.147279" lon="-3.945768"><ele>826</ele><time>2020-08-16T11:44:33Z</time><name>PT4625</name></trkpt>
<trkpt lat="53.147277" lon="-3.945763"><ele>827</ele><time>2020-08-16T11:44:34Z</time><name>PT4626</name></trkpt>
<trkpt lat="53.147280" lon="-3.945755"><ele>827</ele><time>2020-08-16T11:44:40Z</time><name>PT4627</name></trkpt>
<trkpt lat="53.147281" lon="-3.945742"><ele>827</ele><time>2020-08-16T11:44:42Z</time><name>PT4628</name></trkpt>
<trkpt lat="53.147284" lon="-3.945747"><ele>827</ele><time>2020-08-16T11:44:42Z</time><name>PT4629</name></trkpt>
<trkpt lat="53.147286" lon="-3.945750"><ele>827</ele><time>2020-08-16T11:44:43Z</time><name>PT4630</name></trkpt>
<trkpt lat="53.147287" lon="-3.945754"><ele>827</ele><time>2020-08-16T11:44:46Z</time><name>PT4631</name></trkpt>
<trkpt lat="53.147284" lon="-3.945755"><ele>828</ele><time>2020-08-16T11:44:48Z</time><name>PT4632</name></trkpt>
<trkpt lat="53.147288" lon="-3.945765"><ele>828</ele><time>2020-08-16T11:44:48Z</time><name>PT4633</name></trkpt>
<trkpt lat="53.147288" lon="-3.945766"><ele>827</ele><time>2020-08-16T11:44:49Z</time><name>PT4634</name></trkpt>
<trkpt lat="53.147286" lon="-3.945771"><ele>826</ele><time>2020-08-16T11:44:51Z</time><name>PT4635</name></trkpt>
<trkpt lat="53.147280" lon="-3.945788"><ele>826</ele><time>2020-08-16T11:44:51Z</time><name>PT4636</name></trkpt>
<trkpt lat="53.147281" lon="-3.945778"><ele>827</ele><time>2020-08-16T11:44:52Z</time><name>PT4637</name></trkpt>
<trkpt lat="53.147280" lon="-3.945777"><ele>827</ele><time>2020-08-16T11:44:54Z</time><name>PT4638</name></trkpt>
<trkpt lat="53.147278" lon="-3.945764"><ele>826</ele><time>2020-08-16T11:44:54Z</time><name>PT4639</name></trkpt>
<trkpt lat="53.147277" lon="-3.945763"><ele>826</ele><time>2020-08-16T11:44:55Z</time><name>PT4640</name></trkpt>
<trkpt lat="53.147274" lon="-3.945762"><ele>826</ele><time>2020-08-16T11:45:43Z</time><name>PT4641</name></trkpt>
<trkpt lat="53.147273" lon="-3.945762"><ele>826</ele><time>2020-08-16T11:45:45Z</time><name>PT4642</name></trkpt>
<trkpt lat="53.147273" lon="-3.945758"><ele>826</ele><time>2020-08-16T11:45:57Z</time><name>PT4643</name></trkpt>
<trkpt lat="53.147276" lon="-3.945756"><ele>827</ele><time>2020-08-16T11:45:58Z</time><name>PT4644</name></trkpt>
<trkpt lat="53.147277" lon="-3.945755"><ele>827</ele><time>2020-08-16T11:46:00Z</time><name>PT4645</name></trkpt>
<trkpt lat="53.147276" lon="-3.945754"><ele>826</ele><time>2020-08-16T11:46:00Z</time><name>PT4646</name></trkpt>
<trkpt lat="53.147276" lon="-3.945756"><ele>826</ele><time>2020-08-16T11:46:01Z</time><name>PT4647</name></trkpt>
<trkpt lat="53.147279" lon="-3.945757"><ele>827</ele><time>2020-08-16T11:46:03Z</time><name>PT4648</name></trkpt>
<trkpt lat="53.147278" lon="-3.945755"><ele>827</ele><time>2020-08-16T11:46:04Z</time><name>PT4649</name></trkpt>
<trkpt lat="53.147281" lon="-3.945752"><ele>827</ele><time>2020-08-16T11:46:45Z</time><name>PT4650</name></trkpt>
<trkpt lat="53.147281" lon="-3.945753"><ele>827</ele><time>2020-08-16T11:46:46Z</time><name>PT4651</name></trkpt>
<trkpt lat="53.147280" lon="-3.945754"><ele>827</ele><time>2020-08-16T11:46:48Z</time><name>PT4652</name></trkpt>
<trkpt lat="53.147279" lon="-3.945757"><ele>827</ele><time>2020-08-16T11:46:48Z</time><name>PT4653</name></trkpt>
<trkpt lat="53.147280" lon="-3.945758"><ele>828</ele><time>2020-08-16T11:46:49Z</time><name>PT4654</name></trkpt>
<trkpt lat="53.147283" lon="-3.945768"><ele>828</ele><time>2020-08-16T11:47:19Z</time><name>PT4655</name></trkpt>
<trkpt lat="53.147286" lon="-3.945779"><ele>828</ele><time>2020-08-16T11:47:21Z</time><name>PT4656</name></trkpt>
<trkpt lat="53.147285" lon="-3.945776"><ele>828</ele><time>2020-08-16T11:47:21Z</time><name>PT4657</name></trkpt>
<trkpt lat="53.147286" lon="-3.945778"><ele>828</ele><time>2020-08-16T11:47:22Z</time><name>PT4658</name></trkpt>
<trkpt lat="53.147288" lon="-3.945778"><ele>828</ele><time>2020-08-16T11:48:27Z</time><name>PT4659</name></trkpt>
<trkpt lat="53.147290" lon="-3.945781"><ele>828</ele><time>2020-08-16T11:48:28Z</time><name>PT4660</name></trkpt>
<trkpt lat="53.147290" lon="-3.945786"><ele>828</ele><time>2020-08-16T11:48:30Z</time><name>PT4661</name></trkpt>
<trkpt lat="53.147289" lon="-3.945787"><ele>828</ele><time>2020-08-16T11:48:30Z</time><name>PT4662</name></trkpt>
<trkpt lat="53.147289" lon="-3.945783"><ele>827</ele><time>2020-08-16T11:48:31Z</time><name>PT4663</name></trkpt>
<trkpt lat="53.147288" lon="-3.945780"><ele>827</ele><time>2020-08-16T11:48:33Z</time><name>PT4664</name></trkpt>
<trkpt lat="53.147287" lon="-3.945782"><ele>827</ele><time>2020-08-16T11:48:33Z</time><name>PT4665</name></trkpt>
<trkpt lat="53.147287" lon="-3.945782"><ele>827</ele><time>2020-08-16T11:48:34Z</time><name>PT4666</name></trkpt>
<trkpt lat="53.147286" lon="-3.945780"><ele>827</ele><time>2020-08-16T11:48:54Z</time><name>PT4667</name></trkpt>
<trkpt lat="53.147286" lon="-3.945782"><ele>827</ele><time>2020-08-16T11:48:54Z</time><name>PT4668</name></trkpt>
<trkpt lat="53.147283" lon="-3.945780"><ele>826</ele><time>2020-08-16T11:50:30Z</time><name>PT4669</name></trkpt>
<trkpt lat="53.147291" lon="-3.945824"><ele>826</ele><time>2020-08-16T11:50:34Z</time><name>PT4670</name></trkpt>
<trkpt lat="53.147292" lon="-3.945880"><ele>826</ele><time>2020-08-16T11:50:37Z</time><name>PT4671</name></trkpt>
<trkpt lat="53.147305" lon="-3.945940"><ele>826</ele><time>2020-08-16T11:50:42Z</time><name>PT4672</name></trkpt>
<trkpt lat="53.147316" lon="-3.945997"><ele>826</ele><time>2020-08-16T11:50:45Z</time><name>PT4673</name></trkpt>
<trkpt lat="53.147334" lon="-3.946045"><ele>825</ele><time>2020-08-16T11:50:49Z</time><name>PT4674</name></trkpt>
<trkpt lat="53.147348" lon="-3.946081"><ele>825</ele><time>2020-08-16T11:50:52Z</time><name>PT4675</name></trkpt>
<trkpt lat="53.147366" lon="-3.946133"><ele>825</ele><time>2020-08-16T11:50:57Z</time><name>PT4676</name></trkpt>
<trkpt lat="53.147381" lon="-3.946156"><ele>825</ele><time>2020-08-16T11:51:00Z</time><name>PT4677</name></trkpt>
<trkpt lat="53.147403" lon="-3.946195"><ele>825</ele><time>2020-08-16T11:51:03Z</time><name>PT4678</name></trkpt>
<trkpt lat="53.147424" lon="-3.946228"><ele>825</ele><time>2020-08-16T11:51:07Z</time><name>PT4679</name></trkpt>
<trkpt lat="53.147442" lon="-3.946261"><ele>825</ele><time>2020-08-16T11:51:10Z</time><name>PT4680</name></trkpt>
<trkpt lat="53.147465" lon="-3.946294"><ele>825</ele><time>2020-08-16T11:51:13Z</time><name>PT4681</name></trkpt>
<trkpt lat="53.147498" lon="-3.946341"><ele>824</ele><time>2020-08-16T11:51:18Z</time><name>PT4682</name></trkpt>
<trkpt lat="53.147514" lon="-3.946397"><ele>824</ele><time>2020-08-16T11:51:21Z</time><name>PT4683</name></trkpt>
<trkpt lat="53.147527" lon="-3.946465"><ele>823</ele><time>2020-08-16T11:51:25Z</time><name>PT4684</name></trkpt>
<trkpt lat="53.147541" lon="-3.946519"><ele>823</ele><time>2020-08-16T11:51:30Z</time><name>PT4685</name></trkpt>
<trkpt lat="53.147557" lon="-3.946567"><ele>824</ele><time>2020-08-16T11:51:33Z</time><name>PT4686</name></trkpt>
<trkpt lat="53.147569" lon="-3.946610"><ele>824</ele><time>2020-08-16T11:51:36Z</time><name>PT4687</name></trkpt>
<trkpt lat="53.147586" lon="-3.946648"><ele>823</ele><time>2020-08-16T11:51:39Z</time><name>PT4688</name></trkpt>
<trkpt lat="53.147604" lon="-3.946710"><ele>823</ele><time>2020-08-16T11:51:43Z</time><name>PT4689</name></trkpt>
<trkpt lat="53.147626" lon="-3.946755"><ele>824</ele><time>2020-08-16T11:51:48Z</time><name>PT4690</name></trkpt>
<trkpt lat="53.147640" lon="-3.946783"><ele>823</ele><time>2020-08-16T11:51:51Z</time><name>PT4691</name></trkpt>
<trkpt lat="53.147660" lon="-3.946812"><ele>822</ele><time>2020-08-16T11:51:54Z</time><name>PT4692</name></trkpt>
<trkpt lat="53.147683" lon="-3.946845"><ele>823</ele><time>2020-08-16T11:51:57Z</time><name>PT4693</name></trkpt>
<trkpt lat="53.147689" lon="-3.946865"><ele>824</ele><time>2020-08-16T11:51:57Z</time><name>PT4694</name></trkpt>
<trkpt lat="53.147697" lon="-3.946878"><ele>824</ele><time>2020-08-16T11:51:58Z</time><name>PT4695</name></trkpt>
<trkpt lat="53.147706" lon="-3.946882"><ele>825</ele><time>2020-08-16T11:52:00Z</time><name>PT4696</name></trkpt>
<trkpt lat="53.147712" lon="-3.946892"><ele>825</ele><time>2020-08-16T11:52:00Z</time><name>PT4697</name></trkpt>
<trkpt lat="53.147717" lon="-3.946901"><ele>825</ele><time>2020-08-16T11:52:01Z</time><name>PT4698</name></trkpt>
<trkpt lat="53.147720" lon="-3.946910"><ele>825</ele><time>2020-08-16T11:52:03Z</time><name>PT4699</name></trkpt>
<trkpt lat="53.147723" lon="-3.946922"><ele>825</ele><time>2020-08-16T11:52:03Z</time><name>PT4700</name></trkpt>
<trkpt lat="53.147726" lon="-3.946933"><ele>825</ele><time>2020-08-16T11:52:04Z</time><name>PT4701</name></trkpt>
<trkpt lat="53.147732" lon="-3.946941"><ele>825</ele><time>2020-08-16T11:52:06Z</time><name>PT4702</name></trkpt>
<trkpt lat="53.147737" lon="-3.946946"><ele>825</ele><time>2020-08-16T11:52:06Z</time><name>PT4703</name></trkpt>
<trkpt lat="53.147745" lon="-3.946954"><ele>824</ele><time>2020-08-16T11:52:07Z</time><name>PT4704</name></trkpt>
<trkpt lat="53.147751" lon="-3.946963"><ele>824</ele><time>2020-08-16T11:52:09Z</time><name>PT4705</name></trkpt>
<trkpt lat="53.147755" lon="-3.946971"><ele>824</ele><time>2020-08-16T11:52:09Z</time><name>PT4706</name></trkpt>
<trkpt lat="53.147763" lon="-3.946975"><ele>825</ele><time>2020-08-16T11:52:10Z</time><name>PT4707</name></trkpt>
<trkpt lat="53.147768" lon="-3.946985"><ele>825</ele><time>2020-08-16T11:52:12Z</time><name>PT4708</name></trkpt>
<trkpt lat="53.147772" lon="-3.946993"><ele>825</ele><time>2020-08-16T11:52:12Z</time><name>PT4709</name></trkpt>
<trkpt lat="53.147779" lon="-3.947001"><ele>825</ele><time>2020-08-16T11:52:13Z</time><name>PT4710</name></trkpt>
<trkpt lat="53.147784" lon="-3.947010"><ele>825</ele><time>2020-08-16T11:52:15Z</time><name>PT4711</name></trkpt>
<trkpt lat="53.147790" lon="-3.947019"><ele>825</ele><time>2020-08-16T11:52:15Z</time><name>PT4712</name></trkpt>
<trkpt lat="53.147796" lon="-3.947027"><ele>824</ele><time>2020-08-16T11:52:16Z</time><name>PT4713</name></trkpt>
<trkpt lat="53.147801" lon="-3.947036"><ele>825</ele><time>2020-08-16T11:52:18Z</time><name>PT4714</name></trkpt>
<trkpt lat="53.147810" lon="-3.947040"><ele>825</ele><time>2020-08-16T11:52:18Z</time><name>PT4715</name></trkpt>
<trkpt lat="53.147816" lon="-3.947053"><ele>825</ele><time>2020-08-16T11:52:19Z</time><name>PT4716</name></trkpt>
<trkpt lat="53.147820" lon="-3.947062"><ele>826</ele><time>2020-08-16T11:52:21Z</time><name>PT4717</name></trkpt>
<trkpt lat="53.147827" lon="-3.947071"><ele>826</ele><time>2020-08-16T11:52:21Z</time><name>PT4718</name></trkpt>
<trkpt lat="53.147832" lon="-3.947081"><ele>826</ele><time>2020-08-16T11:52:22Z</time><name>PT4719</name></trkpt>
<trkpt lat="53.147835" lon="-3.947089"><ele>826</ele><time>2020-08-16T11:52:24Z</time><name>PT4720</name></trkpt>
<trkpt lat="53.147841" lon="-3.947101"><ele>826</ele><time>2020-08-16T11:52:24Z</time><name>PT4721</name></trkpt>
<trkpt lat="53.147844" lon="-3.947111"><ele>826</ele><time>2020-08-16T11:52:25Z</time><name>PT4722</name></trkpt>
<trkpt lat="53.147849" lon="-3.947121"><ele>826</ele><time>2020-08-16T11:52:27Z</time><name>PT4723</name></trkpt>
<trkpt lat="53.147854" lon="-3.947132"><ele>826</ele><time>2020-08-16T11:52:27Z</time><name>PT4724</name></trkpt>
<trkpt lat="53.147857" lon="-3.947140"><ele>826</ele><time>2020-08-16T11:52:28Z</time><name>PT4725</name></trkpt>
<trkpt lat="53.147860" lon="-3.947148"><ele>826</ele><time>2020-08-16T11:52:30Z</time><name>PT4726</name></trkpt>
<trkpt lat="53.147865" lon="-3.947157"><ele>827</ele><time>2020-08-16T11:52:30Z</time><name>PT4727</name></trkpt>
<trkpt lat="53.147868" lon="-3.947166"><ele>827</ele><time>2020-08-16T11:52:31Z</time><name>PT4728</name></trkpt>
<trkpt lat="53.147872" lon="-3.947174"><ele>827</ele><time>2020-08-16T11:52:33Z</time><name>PT4729</name></trkpt>
<trkpt lat="53.147877" lon="-3.947186"><ele>827</ele><time>2020-08-16T11:52:33Z</time><name>PT4730</name></trkpt>
<trkpt lat="53.147882" lon="-3.947194"><ele>827</ele><time>2020-08-16T11:52:34Z</time><name>PT4731</name></trkpt>
<trkpt lat="53.147888" lon="-3.947206"><ele>828</ele><time>2020-08-16T11:52:36Z</time><name>PT4732</name></trkpt>
<trkpt lat="53.147894" lon="-3.947218"><ele>828</ele><time>2020-08-16T11:52:36Z</time><name>PT4733</name></trkpt>
<trkpt lat="53.147895" lon="-3.947227"><ele>828</ele><time>2020-08-16T11:52:37Z</time><name>PT4734</name></trkpt>
<trkpt lat="53.147898" lon="-3.947238"><ele>828</ele><time>2020-08-16T11:52:39Z</time><name>PT4735</name></trkpt>
<trkpt lat="53.147899" lon="-3.947250"><ele>828</ele><time>2020-08-16T11:52:39Z</time><name>PT4736</name></trkpt>
<trkpt lat="53.147898" lon="-3.947262"><ele>828</ele><time>2020-08-16T11:52:40Z</time><name>PT4737</name></trkpt>
<trkpt lat="53.147901" lon="-3.947276"><ele>828</ele><time>2020-08-16T11:52:42Z</time><name>PT4738</name></trkpt>
<trkpt lat="53.147906" lon="-3.947290"><ele>828</ele><time>2020-08-16T11:52:42Z</time><name>PT4739</name></trkpt>
<trkpt lat="53.147911" lon="-3.947306"><ele>829</ele><time>2020-08-16T11:52:43Z</time><name>PT4740</name></trkpt>
<trkpt lat="53.147915" lon="-3.947321"><ele>829</ele><time>2020-08-16T11:52:45Z</time><name>PT4741</name></trkpt>
<trkpt lat="53.147920" lon="-3.947335"><ele>829</ele><time>2020-08-16T11:52:45Z</time><name>PT4742</name></trkpt>
<trkpt lat="53.147924" lon="-3.947351"><ele>829</ele><time>2020-08-16T11:52:46Z</time><name>PT4743</name></trkpt>
<trkpt lat="53.147928" lon="-3.947364"><ele>829</ele><time>2020-08-16T11:52:48Z</time><name>PT4744</name></trkpt>
<trkpt lat="53.147932" lon="-3.947383"><ele>829</ele><time>2020-08-16T11:52:48Z</time><name>PT4745</name></trkpt>
<trkpt lat="53.147939" lon="-3.947394"><ele>829</ele><time>2020-08-16T11:52:49Z</time><name>PT4746</name></trkpt>
<trkpt lat="53.147943" lon="-3.947404"><ele>829</ele><time>2020-08-16T11:52:51Z</time><name>PT4747</name></trkpt>
<trkpt lat="53.147946" lon="-3.947421"><ele>829</ele><time>2020-08-16T11:52:51Z</time><name>PT4748</name></trkpt>
<trkpt lat="53.147950" lon="-3.947434"><ele>829</ele><time>2020-08-16T11:52:52Z</time><name>PT4749</name></trkpt>
<trkpt lat="53.147956" lon="-3.947440"><ele>829</ele><time>2020-08-16T11:52:54Z</time><name>PT4750</name></trkpt>
<trkpt lat="53.147961" lon="-3.947448"><ele>830</ele><time>2020-08-16T11:52:54Z</time><name>PT4751</name></trkpt>
<trkpt lat="53.147966" lon="-3.947456"><ele>830</ele><time>2020-08-16T11:52:55Z</time><name>PT4752</name></trkpt>
<trkpt lat="53.147973" lon="-3.947464"><ele>830</ele><time>2020-08-16T11:52:57Z</time><name>PT4753</name></trkpt>
<trkpt lat="53.147980" lon="-3.947473"><ele>831</ele><time>2020-08-16T11:52:57Z</time><name>PT4754</name></trkpt>
<trkpt lat="53.147987" lon="-3.947488"><ele>831</ele><time>2020-08-16T11:52:58Z</time><name>PT4755</name></trkpt>
<trkpt lat="53.147994" lon="-3.947498"><ele>830</ele><time>2020-08-16T11:53:00Z</time><name>PT4756</name></trkpt>
<trkpt lat="53.148002" lon="-3.947507"><ele>831</ele><time>2020-08-16T11:53:00Z</time><name>PT4757</name></trkpt>
<trkpt lat="53.148011" lon="-3.947515"><ele>830</ele><time>2020-08-16T11:53:01Z</time><name>PT4758</name></trkpt>
<trkpt lat="53.148017" lon="-3.947529"><ele>830</ele><time>2020-08-16T11:53:03Z</time><name>PT4759</name></trkpt>
<trkpt lat="53.148025" lon="-3.947535"><ele>830</ele><time>2020-08-16T11:53:03Z</time><name>PT4760</name></trkpt>
<trkpt lat="53.148034" lon="-3.947546"><ele>830</ele><time>2020-08-16T11:53:04Z</time><name>PT4761</name></trkpt>
<trkpt lat="53.148040" lon="-3.947558"><ele>830</ele><time>2020-08-16T11:53:06Z</time><name>PT4762</name></trkpt>
<trkpt lat="53.148048" lon="-3.947570"><ele>830</ele><time>2020-08-16T11:53:06Z</time><name>PT4763</name></trkpt>
<trkpt lat="53.148056" lon="-3.947577"><ele>830</ele><time>2020-08-16T11:53:07Z</time><name>PT4764</name></trkpt>
<trkpt lat="53.148064" lon="-3.947585"><ele>829</ele><time>2020-08-16T11:53:09Z</time><name>PT4765</name></trkpt>
<trkpt lat="53.148071" lon="-3.947597"><ele>830</ele><time>2020-08-16T11:53:09Z</time><name>PT4766</name></trkpt>
<trkpt lat="53.148078" lon="-3.947610"><ele>830</ele><time>2020-08-16T11:53:10Z</time><name>PT4767</name></trkpt>
<trkpt lat="53.148085" lon="-3.947623"><ele>830</ele><time>2020-08-16T11:53:12Z</time><name>PT4768</name></trkpt>
<trkpt lat="53.148092" lon="-3.947638"><ele>830</ele><time>2020-08-16T11:53:12Z</time><name>PT4769</name></trkpt>
<trkpt lat="53.148099" lon="-3.947651"><ele>830</ele><time>2020-08-16T11:53:13Z</time><name>PT4770</name></trkpt>
<trkpt lat="53.148106" lon="-3.947665"><ele>830</ele><time>2020-08-16T11:53:15Z</time><name>PT4771</name></trkpt>
<trkpt lat="53.148113" lon="-3.947678"><ele>830</ele><time>2020-08-16T11:53:15Z</time><name>PT4772</name></trkpt>
<trkpt lat="53.148119" lon="-3.947691"><ele>830</ele><time>2020-08-16T11:53:16Z</time><name>PT4773</name></trkpt>
<trkpt lat="53.148128" lon="-3.947703"><ele>830</ele><time>2020-08-16T11:53:18Z</time><name>PT4774</name></trkpt>
<trkpt lat="53.148134" lon="-3.947715"><ele>830</ele><time>2020-08-16T11:53:18Z</time><name>PT4775</name></trkpt>
<trkpt lat="53.148141" lon="-3.947725"><ele>830</ele><time>2020-08-16T11:53:19Z</time><name>PT4776</name></trkpt>
<trkpt lat="53.148149" lon="-3.947738"><ele>830</ele><time>2020-08-16T11:53:21Z</time><name>PT4777</name></trkpt>
<trkpt lat="53.148157" lon="-3.947752"><ele>830</ele><time>2020-08-16T11:53:21Z</time><name>PT4778</name></trkpt>
<trkpt lat="53.148163" lon="-3.947772"><ele>831</ele><time>2020-08-16T11:53:22Z</time><name>PT4779</name></trkpt>
<trkpt lat="53.148169" lon="-3.947783"><ele>830</ele><time>2020-08-16T11:53:24Z</time><name>PT4780</name></trkpt>
<trkpt lat="53.148178" lon="-3.947793"><ele>831</ele><time>2020-08-16T11:53:24Z</time><name>PT4781</name></trkpt>
<trkpt lat="53.148188" lon="-3.947805"><ele>831</ele><time>2020-08-16T11:53:25Z</time><name>PT4782</name></trkpt>
<trkpt lat="53.148195" lon="-3.947817"><ele>830</ele><time>2020-08-16T11:53:27Z</time><name>PT4783</name></trkpt>
<trkpt lat="53.148204" lon="-3.947823"><ele>831</ele><time>2020-08-16T11:53:27Z</time><name>PT4784</name></trkpt>
<trkpt lat="53.148215" lon="-3.947834"><ele>831</ele><time>2020-08-16T11:53:28Z</time><name>PT4785</name></trkpt>
<trkpt lat="53.148223" lon="-3.947843"><ele>831</ele><time>2020-08-16T11:53:30Z</time><name>PT4786</name></trkpt>
<trkpt lat="53.148234" lon="-3.947849"><ele>831</ele><time>2020-08-16T11:53:30Z</time><name>PT4787</name></trkpt>
<trkpt lat="53.148247" lon="-3.947855"><ele>831</ele><time>2020-08-16T11:53:31Z</time><name>PT4788</name></trkpt>
<trkpt lat="53.148258" lon="-3.947857"><ele>831</ele><time>2020-08-16T11:53:33Z</time><name>PT4789</name></trkpt>
<trkpt lat="53.148274" lon="-3.947866"><ele>832</ele><time>2020-08-16T11:53:33Z</time><name>PT4790</name></trkpt>
<trkpt lat="53.148288" lon="-3.947880"><ele>832</ele><time>2020-08-16T11:53:34Z</time><name>PT4791</name></trkpt>
<trkpt lat="53.148297" lon="-3.947892"><ele>832</ele><time>2020-08-16T11:53:36Z</time><name>PT4792</name></trkpt>
<trkpt lat="53.148308" lon="-3.947902"><ele>832</ele><time>2020-08-16T11:53:36Z</time><name>PT4793</name></trkpt>
<trkpt lat="53.148317" lon="-3.947910"><ele>832</ele><time>2020-08-16T11:53:37Z</time><name>PT4794</name></trkpt>
<trkpt lat="53.148325" lon="-3.947924"><ele>833</ele><time>2020-08-16T11:53:39Z</time><name>PT4795</name></trkpt>
<trkpt lat="53.148332" lon="-3.947941"><ele>833</ele><time>2020-08-16T11:53:39Z</time><name>PT4796</name></trkpt>
<trkpt lat="53.148339" lon="-3.947956"><ele>833</ele><time>2020-08-16T11:53:40Z</time><name>PT4797</name></trkpt>
<trkpt lat="53.148342" lon="-3.947972"><ele>833</ele><time>2020-08-16T11:53:42Z</time><name>PT4798</name></trkpt>
<trkpt lat="53.148346" lon="-3.947990"><ele>833</ele><time>2020-08-16T11:53:42Z</time><name>PT4799</name></trkpt>
<trkpt lat="53.148346" lon="-3.948006"><ele>833</ele><time>2020-08-16T11:53:43Z</time><name>PT4800</name></trkpt>
<trkpt lat="53.148345" lon="-3.948024"><ele>833</ele><time>2020-08-16T11:53:45Z</time><name>PT4801</name></trkpt>
<trkpt lat="53.148345" lon="-3.948036"><ele>833</ele><time>2020-08-16T11:53:45Z</time><name>PT4802</name></trkpt>
<trkpt lat="53.148344" lon="-3.948049"><ele>833</ele><time>2020-08-16T11:53:46Z</time><name>PT4803</name></trkpt>
<trkpt lat="53.148344" lon="-3.948072"><ele>834</ele><time>2020-08-16T11:53:48Z</time><name>PT4804</name></trkpt>
<trkpt lat="53.148344" lon="-3.948086"><ele>834</ele><time>2020-08-16T11:53:48Z</time><name>PT4805</name></trkpt>
<trkpt lat="53.148345" lon="-3.948102"><ele>835</ele><time>2020-08-16T11:53:49Z</time><name>PT4806</name></trkpt>
<trkpt lat="53.148351" lon="-3.948116"><ele>834</ele><time>2020-08-16T11:53:51Z</time><name>PT4807</name></trkpt>
<trkpt lat="53.148356" lon="-3.948128"><ele>834</ele><time>2020-08-16T11:53:51Z</time><name>PT4808</name></trkpt>
<trkpt lat="53.148359" lon="-3.948140"><ele>835</ele><time>2020-08-16T11:53:52Z</time><name>PT4809</name></trkpt>
<trkpt lat="53.148365" lon="-3.948153"><ele>835</ele><time>2020-08-16T11:53:54Z</time><name>PT4810</name></trkpt>
<trkpt lat="53.148370" lon="-3.948167"><ele>835</ele><time>2020-08-16T11:53:54Z</time><name>PT4811</name></trkpt>
<trkpt lat="53.148373" lon="-3.948184"><ele>835</ele><time>2020-08-16T11:53:55Z</time><name>PT4812</name></trkpt>
<trkpt lat="53.148376" lon="-3.948202"><ele>835</ele><time>2020-08-16T11:53:57Z</time><name>PT4813</name></trkpt>
<trkpt lat="53.148382" lon="-3.948212"><ele>835</ele><time>2020-08-16T11:53:57Z</time><name>PT4814</name></trkpt>
<trkpt lat="53.148391" lon="-3.948221"><ele>834</ele><time>2020-08-16T11:53:58Z</time><name>PT4815</name></trkpt>
<trkpt lat="53.148399" lon="-3.948235"><ele>835</ele><time>2020-08-16T11:54:00Z</time><name>PT4816</name></trkpt>
<trkpt lat="53.148408" lon="-3.948246"><ele>835</ele><time>2020-08-16T11:54:00Z</time><name>PT4817</name></trkpt>
<trkpt lat="53.148416" lon="-3.948257"><ele>835</ele><time>2020-08-16T11:54:01Z</time><name>PT4818</name></trkpt>
<trkpt lat="53.148422" lon="-3.948264"><ele>835</ele><time>2020-08-16T11:54:03Z</time><name>PT4819</name></trkpt>
<trkpt lat="53.148430" lon="-3.948277"><ele>835</ele><time>2020-08-16T11:54:03Z</time><name>PT4820</name></trkpt>
<trkpt lat="53.148438" lon="-3.948286"><ele>835</ele><time>2020-08-16T11:54:04Z</time><name>PT4821</name></trkpt>
<trkpt lat="53.148445" lon="-3.948299"><ele>835</ele><time>2020-08-16T11:54:06Z</time><name>PT4822</name></trkpt>
<trkpt lat="53.148453" lon="-3.948311"><ele>836</ele><time>2020-08-16T11:54:06Z</time><name>PT4823</name></trkpt>
<trkpt lat="53.148461" lon="-3.948325"><ele>836</ele><time>2020-08-16T11:54:07Z</time><name>PT4824</name></trkpt>
<trkpt lat="53.148473" lon="-3.948338"><ele>836</ele><time>2020-08-16T11:54:09Z</time><name>PT4825</name></trkpt>
<trkpt lat="53.148478" lon="-3.948368"><ele>835</ele><time>2020-08-16T11:54:09Z</time><name>PT4826</name></trkpt>
<trkpt lat="53.148483" lon="-3.948391"><ele>835</ele><time>2020-08-16T11:54:10Z</time><name>PT4827</name></trkpt>
<trkpt lat="53.148489" lon="-3.948420"><ele>835</ele><time>2020-08-16T11:54:12Z</time><name>PT4828</name></trkpt>
<trkpt lat="53.148495" lon="-3.948443"><ele>836</ele><time>2020-08-16T11:54:12Z</time><name>PT4829</name></trkpt>
<trkpt lat="53.148500" lon="-3.948461"><ele>836</ele><time>2020-08-16T11:54:13Z</time><name>PT4830</name></trkpt>
<trkpt lat="53.148502" lon="-3.948480"><ele>836</ele><time>2020-08-16T11:54:15Z</time><name>PT4831</name></trkpt>
<trkpt lat="53.148507" lon="-3.948496"><ele>836</ele><time>2020-08-16T11:54:15Z</time><name>PT4832</name></trkpt>
<trkpt lat="53.148513" lon="-3.948512"><ele>836</ele><time>2020-08-16T11:54:16Z</time><name>PT4833</name></trkpt>
<trkpt lat="53.148516" lon="-3.948533"><ele>837</ele><time>2020-08-16T11:54:18Z</time><name>PT4834</name></trkpt>
<trkpt lat="53.148526" lon="-3.948550"><ele>837</ele><time>2020-08-16T11:54:18Z</time><name>PT4835</name></trkpt>
<trkpt lat="53.148532" lon="-3.948564"><ele>837</ele><time>2020-08-16T11:54:19Z</time><name>PT4836</name></trkpt>
<trkpt lat="53.148539" lon="-3.948577"><ele>837</ele><time>2020-08-16T11:54:21Z</time><name>PT4837</name></trkpt>
<trkpt lat="53.148545" lon="-3.948588"><ele>836</ele><time>2020-08-16T11:54:21Z</time><name>PT4838</name></trkpt>
<trkpt lat="53.148550" lon="-3.948599"><ele>836</ele><time>2020-08-16T11:54:22Z</time><name>PT4839</name></trkpt>
<trkpt lat="53.148557" lon="-3.948609"><ele>836</ele><time>2020-08-16T11:54:24Z</time><name>PT4840</name></trkpt>
<trkpt lat="53.148564" lon="-3.948620"><ele>836</ele><time>2020-08-16T11:54:24Z</time><name>PT4841</name></trkpt>
<trkpt lat="53.148572" lon="-3.948634"><ele>836</ele><time>2020-08-16T11:54:25Z</time><name>PT4842</name></trkpt>
<trkpt lat="53.148580" lon="-3.948646"><ele>836</ele><time>2020-08-16T11:54:27Z</time><name>PT4843</name></trkpt>
<trkpt lat="53.148588" lon="-3.948662"><ele>835</ele><time>2020-08-16T11:54:27Z</time><name>PT4844</name></trkpt>
<trkpt lat="53.148594" lon="-3.948677"><ele>835</ele><time>2020-08-16T11:54:28Z</time><name>PT4845</name></trkpt>
<trkpt lat="53.148599" lon="-3.948691"><ele>835</ele><time>2020-08-16T11:54:30Z</time><name>PT4846</name></trkpt>
<trkpt lat="53.148605" lon="-3.948702"><ele>835</ele><time>2020-08-16T11:54:30Z</time><name>PT4847</name></trkpt>
<trkpt lat="53.148613" lon="-3.948713"><ele>835</ele><time>2020-08-16T11:54:31Z</time><name>PT4848</name></trkpt>
<trkpt lat="53.148624" lon="-3.948722"><ele>835</ele><time>2020-08-16T11:54:33Z</time><name>PT4849</name></trkpt>
<trkpt lat="53.148633" lon="-3.948730"><ele>835</ele><time>2020-08-16T11:54:33Z</time><name>PT4850</name></trkpt>
<trkpt lat="53.148640" lon="-3.948736"><ele>835</ele><time>2020-08-16T11:54:34Z</time><name>PT4851</name></trkpt>
<trkpt lat="53.148650" lon="-3.948747"><ele>835</ele><time>2020-08-16T11:54:36Z</time><name>PT4852</name></trkpt>
<trkpt lat="53.148659" lon="-3.948758"><ele>835</ele><time>2020-08-16T11:54:36Z</time><name>PT4853</name></trkpt>
<trkpt lat="53.148666" lon="-3.948768"><ele>835</ele><time>2020-08-16T11:54:37Z</time><name>PT4854</name></trkpt>
<trkpt lat="53.148671" lon="-3.948779"><ele>834</ele><time>2020-08-16T11:54:39Z</time><name>PT4855</name></trkpt>
<trkpt lat="53.148680" lon="-3.948790"><ele>834</ele><time>2020-08-16T11:54:39Z</time><name>PT4856</name></trkpt>
<trkpt lat="53.148686" lon="-3.948799"><ele>834</ele><time>2020-08-16T11:54:40Z</time><name>PT4857</name></trkpt>
<trkpt lat="53.148691" lon="-3.948811"><ele>834</ele><time>2020-08-16T11:54:42Z</time><name>PT4858</name></trkpt>
<trkpt lat="53.148699" lon="-3.948823"><ele>834</ele><time>2020-08-16T11:54:42Z</time><name>PT4859</name></trkpt>
<trkpt lat="53.148707" lon="-3.948833"><ele>834</ele><time>2020-08-16T11:54:43Z</time><name>PT4860</name></trkpt>
<trkpt lat="53.148716" lon="-3.948844"><ele>834</ele><time>2020-08-16T11:54:45Z</time><name>PT4861</name></trkpt>
<trkpt lat="53.148723" lon="-3.948854"><ele>834</ele><time>2020-08-16T11:54:45Z</time><name>PT4862</name></trkpt>
<trkpt lat="53.148730" lon="-3.948864"><ele>834</ele><time>2020-08-16T11:54:46Z</time><name>PT4863</name></trkpt>
<trkpt lat="53.148737" lon="-3.948873"><ele>834</ele><time>2020-08-16T11:54:48Z</time><name>PT4864</name></trkpt>
<trkpt lat="53.148744" lon="-3.948886"><ele>833</ele><time>2020-08-16T11:54:48Z</time><name>PT4865</name></trkpt>
<trkpt lat="53.148749" lon="-3.948904"><ele>833</ele><time>2020-08-16T11:54:49Z</time><name>PT4866</name></trkpt>
<trkpt lat="53.148754" lon="-3.948917"><ele>833</ele><time>2020-08-16T11:54:51Z</time><name>PT4867</name></trkpt>
<trkpt lat="53.148756" lon="-3.948930"><ele>833</ele><time>2020-08-16T11:54:51Z</time><name>PT4868</name></trkpt>
<trkpt lat="53.148762" lon="-3.948940"><ele>833</ele><time>2020-08-16T11:54:52Z</time><name>PT4869</name></trkpt>
<trkpt lat="53.148768" lon="-3.948946"><ele>833</ele><time>2020-08-16T11:54:54Z</time><name>PT4870</name></trkpt>
<trkpt lat="53.148777" lon="-3.948953"><ele>832</ele><time>2020-08-16T11:54:54Z</time><name>PT4871</name></trkpt>
<trkpt lat="53.148784" lon="-3.948961"><ele>832</ele><time>2020-08-16T11:54:55Z</time><name>PT4872</name></trkpt>
<trkpt lat="53.148792" lon="-3.948969"><ele>832</ele><time>2020-08-16T11:54:57Z</time><name>PT4873</name></trkpt>
<trkpt lat="53.148808" lon="-3.949002"><ele>831</ele><time>2020-08-16T11:55:00Z</time><name>PT4874</name></trkpt>
<trkpt lat="53.148824" lon="-3.949035"><ele>831</ele><time>2020-08-16T11:55:03Z</time><name>PT4875</name></trkpt>
<trkpt lat="53.148842" lon="-3.949077"><ele>830</ele><time>2020-08-16T11:55:06Z</time><name>PT4876</name></trkpt>
<trkpt lat="53.148874" lon="-3.949135"><ele>829</ele><time>2020-08-16T11:55:12Z</time><name>PT4877</name></trkpt>
<trkpt lat="53.148906" lon="-3.949160"><ele>828</ele><time>2020-08-16T11:55:15Z</time><name>PT4878</name></trkpt>
<trkpt lat="53.148922" lon="-3.949173"><ele>828</ele><time>2020-08-16T11:55:18Z</time><name>PT4879</name></trkpt>
<trkpt lat="53.148928" lon="-3.949183"><ele>827</ele><time>2020-08-16T11:55:22Z</time><name>PT4880</name></trkpt>
<trkpt lat="53.148931" lon="-3.949196"><ele>828</ele><time>2020-08-16T11:55:25Z</time><name>PT4881</name></trkpt>
<trkpt lat="53.148948" lon="-3.949217"><ele>827</ele><time>2020-08-16T11:55:28Z</time><name>PT4882</name></trkpt>
<trkpt lat="53.148955" lon="-3.949229"><ele>826</ele><time>2020-08-16T11:55:31Z</time><name>PT4883</name></trkpt>
<trkpt lat="53.148967" lon="-3.949272"><ele>825</ele><time>2020-08-16T11:55:36Z</time><name>PT4884</name></trkpt>
<trkpt lat="53.148976" lon="-3.949285"><ele>825</ele><time>2020-08-16T11:55:39Z</time><name>PT4885</name></trkpt>
<trkpt lat="53.148979" lon="-3.949288"><ele>825</ele><time>2020-08-16T11:55:42Z</time><name>PT4886</name></trkpt>
<trkpt lat="53.148982" lon="-3.949320"><ele>826</ele><time>2020-08-16T11:55:49Z</time><name>PT4887</name></trkpt>
<trkpt lat="53.148999" lon="-3.949353"><ele>825</ele><time>2020-08-16T11:55:52Z</time><name>PT4888</name></trkpt>
<trkpt lat="53.148993" lon="-3.949368"><ele>825</ele><time>2020-08-16T11:55:57Z</time><name>PT4889</name></trkpt>
<trkpt lat="53.148997" lon="-3.949381"><ele>824</ele><time>2020-08-16T11:56:00Z</time><name>PT4890</name></trkpt>
<trkpt lat="53.149013" lon="-3.949416"><ele>824</ele><time>2020-08-16T11:56:04Z</time><name>PT4891</name></trkpt>
<trkpt lat="53.149026" lon="-3.949434"><ele>824</ele><time>2020-08-16T11:56:07Z</time><name>PT4892</name></trkpt>
<trkpt lat="53.149035" lon="-3.949454"><ele>823</ele><time>2020-08-16T11:56:12Z</time><name>PT4893</name></trkpt>
<trkpt lat="53.149032" lon="-3.949482"><ele>822</ele><time>2020-08-16T11:56:15Z</time><name>PT4894</name></trkpt>
<trkpt lat="53.149043" lon="-3.949500"><ele>821</ele><time>2020-08-16T11:56:19Z</time><name>PT4895</name></trkpt>
<trkpt lat="53.149044" lon="-3.949520"><ele>821</ele><time>2020-08-16T11:56:22Z</time><name>PT4896</name></trkpt>
<trkpt lat="53.149043" lon="-3.949526"><ele>821</ele><time>2020-08-16T11:56:27Z</time><name>PT4897</name></trkpt>
<trkpt lat="53.149038" lon="-3.949539"><ele>821</ele><time>2020-08-16T11:56:30Z</time><name>PT4898</name></trkpt>
<trkpt lat="53.149039" lon="-3.949547"><ele>820</ele><time>2020-08-16T11:56:33Z</time><name>PT4899</name></trkpt>
<trkpt lat="53.149039" lon="-3.949557"><ele>818</ele><time>2020-08-16T11:56:37Z</time><name>PT4900</name></trkpt>
<trkpt lat="53.149047" lon="-3.949574"><ele>819</ele><time>2020-08-16T11:56:42Z</time><name>PT4901</name></trkpt>
<trkpt lat="53.149052" lon="-3.949587"><ele>819</ele><time>2020-08-16T11:56:45Z</time><name>PT4902</name></trkpt>
<trkpt lat="53.149068" lon="-3.949605"><ele>819</ele><time>2020-08-16T11:56:48Z</time><name>PT4903</name></trkpt>
<trkpt lat="53.149088" lon="-3.949620"><ele>819</ele><time>2020-08-16T11:56:52Z</time><name>PT4904</name></trkpt>
<trkpt lat="53.149100" lon="-3.949628"><ele>819</ele><time>2020-08-16T11:56:57Z</time><name>PT4905</name></trkpt>
<trkpt lat="53.149103" lon="-3.949634"><ele>819</ele><time>2020-08-16T11:57:00Z</time><name>PT4906</name></trkpt>
<trkpt lat="53.149097" lon="-3.949634"><ele>817</ele><time>2020-08-16T11:57:03Z</time><name>PT4907</name></trkpt>
<trkpt lat="53.149101" lon="-3.949634"><ele>817</ele><time>2020-08-16T11:57:12Z</time><name>PT4908</name></trkpt>
<trkpt lat="53.149106" lon="-3.949652"><ele>816</ele><time>2020-08-16T11:57:15Z</time><name>PT4909</name></trkpt>
<trkpt lat="53.149118" lon="-3.949662"><ele>817</ele><time>2020-08-16T11:57:19Z</time><name>PT4910</name></trkpt>
<trkpt lat="53.149130" lon="-3.949671"><ele>816</ele><time>2020-08-16T11:57:37Z</time><name>PT4911</name></trkpt>
<trkpt lat="53.149131" lon="-3.949670"><ele>816</ele><time>2020-08-16T11:57:54Z</time><name>PT4912</name></trkpt>
<trkpt lat="53.149133" lon="-3.949697"><ele>815</ele><time>2020-08-16T11:57:57Z</time><name>PT4913</name></trkpt>
<trkpt lat="53.149139" lon="-3.949703"><ele>815</ele><time>2020-08-16T11:58:09Z</time><name>PT4914</name></trkpt>
<trkpt lat="53.149154" lon="-3.949723"><ele>814</ele><time>2020-08-16T11:58:13Z</time><name>PT4915</name></trkpt>
<trkpt lat="53.149161" lon="-3.949735"><ele>813</ele><time>2020-08-16T11:58:18Z</time><name>PT4916</name></trkpt>
<trkpt lat="53.149154" lon="-3.949752"><ele>812</ele><time>2020-08-16T11:58:21Z</time><name>PT4917</name></trkpt>
<trkpt lat="53.149155" lon="-3.949773"><ele>811</ele><time>2020-08-16T11:58:24Z</time><name>PT4918</name></trkpt>
<trkpt lat="53.149160" lon="-3.949783"><ele>811</ele><time>2020-08-16T11:58:27Z</time><name>PT4919</name></trkpt>
<trkpt lat="53.149152" lon="-3.949797"><ele>810</ele><time>2020-08-16T11:58:39Z</time><name>PT4920</name></trkpt>
<trkpt lat="53.149153" lon="-3.949809"><ele>809</ele><time>2020-08-16T11:58:42Z</time><name>PT4921</name></trkpt>
<trkpt lat="53.149166" lon="-3.949830"><ele>808</ele><time>2020-08-16T11:58:45Z</time><name>PT4922</name></trkpt>
<trkpt lat="53.149171" lon="-3.949848"><ele>808</ele><time>2020-08-16T11:58:48Z</time><name>PT4923</name></trkpt>
<trkpt lat="53.149169" lon="-3.949863"><ele>807</ele><time>2020-08-16T11:58:51Z</time><name>PT4924</name></trkpt>
<trkpt lat="53.149167" lon="-3.949875"><ele>807</ele><time>2020-08-16T11:58:54Z</time><name>PT4925</name></trkpt>
<trkpt lat="53.149174" lon="-3.949885"><ele>806</ele><time>2020-08-16T11:59:01Z</time><name>PT4926</name></trkpt>
<trkpt lat="53.149180" lon="-3.949894"><ele>805</ele><time>2020-08-16T11:59:06Z</time><name>PT4927</name></trkpt>
<trkpt lat="53.149180" lon="-3.949900"><ele>805</ele><time>2020-08-16T11:59:09Z</time><name>PT4928</name></trkpt>
<trkpt lat="53.149180" lon="-3.949899"><ele>805</ele><time>2020-08-16T11:59:12Z</time><name>PT4929</name></trkpt>
<trkpt lat="53.149184" lon="-3.949905"><ele>805</ele><time>2020-08-16T11:59:16Z</time><name>PT4930</name></trkpt>
<trkpt lat="53.149194" lon="-3.949915"><ele>804</ele><time>2020-08-16T11:59:19Z</time><name>PT4931</name></trkpt>
<trkpt lat="53.149197" lon="-3.949917"><ele>804</ele><time>2020-08-16T11:59:22Z</time><name>PT4932</name></trkpt>
<trkpt lat="53.149203" lon="-3.949915"><ele>803</ele><time>2020-08-16T11:59:30Z</time><name>PT4933</name></trkpt>
<trkpt lat="53.149212" lon="-3.949924"><ele>803</ele><time>2020-08-16T11:59:33Z</time><name>PT4934</name></trkpt>
<trkpt lat="53.149220" lon="-3.949943"><ele>802</ele><time>2020-08-16T11:59:36Z</time><name>PT4935</name></trkpt>
<trkpt lat="53.149215" lon="-3.949947"><ele>801</ele><time>2020-08-16T11:59:39Z</time><name>PT4936</name></trkpt>
<trkpt lat="53.149201" lon="-3.949956"><ele>801</ele><time>2020-08-16T11:59:43Z</time><name>PT4937</name></trkpt>
<trkpt lat="53.149200" lon="-3.949962"><ele>800</ele><time>2020-08-16T11:59:48Z</time><name>PT4938</name></trkpt>
<trkpt lat="53.149207" lon="-3.949980"><ele>800</ele><time>2020-08-16T11:59:51Z</time><name>PT4939</name></trkpt>
<trkpt lat="53.149216" lon="-3.949977"><ele>800</ele><time>2020-08-16T11:59:54Z</time><name>PT4940</name></trkpt>
<trkpt lat="53.149221" lon="-3.949982"><ele>800</ele><time>2020-08-16T11:59:57Z</time><name>PT4941</name></trkpt>
<trkpt lat="53.149221" lon="-3.949993"><ele>799</ele><time>2020-08-16T12:00:01Z</time><name>PT4942</name></trkpt>
<trkpt lat="53.149224" lon="-3.949997"><ele>799</ele><time>2020-08-16T12:00:06Z</time><name>PT4943</name></trkpt>
<trkpt lat="53.149225" lon="-3.950000"><ele>799</ele><time>2020-08-16T12:00:09Z</time><name>PT4944</name></trkpt>
<trkpt lat="53.149239" lon="-3.950013"><ele>798</ele><time>2020-08-16T12:00:12Z</time><name>PT4945</name></trkpt>
<trkpt lat="53.149242" lon="-3.950021"><ele>798</ele><time>2020-08-16T12:00:16Z</time><name>PT4946</name></trkpt>
<trkpt lat="53.149250" lon="-3.950029"><ele>797</ele><time>2020-08-16T12:00:19Z</time><name>PT4947</name></trkpt>
<trkpt lat="53.149250" lon="-3.950032"><ele>797</ele><time>2020-08-16T12:00:22Z</time><name>PT4948</name></trkpt>
<trkpt lat="53.149248" lon="-3.950042"><ele>797</ele><time>2020-08-16T12:00:27Z</time><name>PT4949</name></trkpt>
<trkpt lat="53.149235" lon="-3.950056"><ele>797</ele><time>2020-08-16T12:00:33Z</time><name>PT4950</name></trkpt>
<trkpt lat="53.149231" lon="-3.950063"><ele>797</ele><time>2020-08-16T12:00:36Z</time><name>PT4951</name></trkpt>
<trkpt lat="53.149224" lon="-3.950065"><ele>796</ele><time>2020-08-16T12:00:40Z</time><name>PT4952</name></trkpt>
<trkpt lat="53.149224" lon="-3.950065"><ele>796</ele><time>2020-08-16T12:00:43Z</time><name>PT4953</name></trkpt>
<trkpt lat="53.149219" lon="-3.950070"><ele>796</ele><time>2020-08-16T12:00:46Z</time><name>PT4954</name></trkpt>
<trkpt lat="53.149213" lon="-3.950061"><ele>796</ele><time>2020-08-16T12:00:51Z</time><name>PT4955</name></trkpt>
<trkpt lat="53.149208" lon="-3.950062"><ele>796</ele><time>2020-08-16T12:00:59Z</time><name>PT4956</name></trkpt>
<trkpt lat="53.149204" lon="-3.950076"><ele>795</ele><time>2020-08-16T12:01:02Z</time><name>PT4957</name></trkpt>
<trkpt lat="53.149209" lon="-3.950099"><ele>794</ele><time>2020-08-16T12:01:05Z</time><name>PT4958</name></trkpt>
<trkpt lat="53.149213" lon="-3.950109"><ele>793</ele><time>2020-08-16T12:01:08Z</time><name>PT4959</name></trkpt>
<trkpt lat="53.149213" lon="-3.950106"><ele>793</ele><time>2020-08-16T12:01:11Z</time><name>PT4960</name></trkpt>
<trkpt lat="53.149225" lon="-3.950098"><ele>792</ele><time>2020-08-16T12:01:23Z</time><name>PT4961</name></trkpt>
<trkpt lat="53.149236" lon="-3.950104"><ele>790</ele><time>2020-08-16T12:01:26Z</time><name>PT4962</name></trkpt>
<trkpt lat="53.149240" lon="-3.950109"><ele>790</ele><time>2020-08-16T12:01:29Z</time><name>PT4963</name></trkpt>
<trkpt lat="53.149248" lon="-3.950117"><ele>789</ele><time>2020-08-16T12:01:33Z</time><name>PT4964</name></trkpt>
<trkpt lat="53.149250" lon="-3.950134"><ele>789</ele><time>2020-08-16T12:01:36Z</time><name>PT4965</name></trkpt>
<trkpt lat="53.149252" lon="-3.950166"><ele>789</ele><time>2020-08-16T12:01:41Z</time><name>PT4966</name></trkpt>
<trkpt lat="53.149251" lon="-3.950175"><ele>789</ele><time>2020-08-16T12:01:44Z</time><name>PT4967</name></trkpt>
<trkpt lat="53.149253" lon="-3.950176"><ele>788</ele><time>2020-08-16T12:01:47Z</time><name>PT4968</name></trkpt>
<trkpt lat="53.149256" lon="-3.950204"><ele>787</ele><time>2020-08-16T12:01:51Z</time><name>PT4969</name></trkpt>
<trkpt lat="53.149265" lon="-3.950212"><ele>787</ele><time>2020-08-16T12:01:56Z</time><name>PT4970</name></trkpt>
<trkpt lat="53.149268" lon="-3.950225"><ele>787</ele><time>2020-08-16T12:01:59Z</time><name>PT4971</name></trkpt>
<trkpt lat="53.149271" lon="-3.950230"><ele>787</ele><time>2020-08-16T12:02:02Z</time><name>PT4972</name></trkpt>
<trkpt lat="53.149274" lon="-3.950238"><ele>786</ele><time>2020-08-16T12:02:05Z</time><name>PT4973</name></trkpt>
<trkpt lat="53.149276" lon="-3.950236"><ele>785</ele><time>2020-08-16T12:02:09Z</time><name>PT4974</name></trkpt>
<trkpt lat="53.149286" lon="-3.950248"><ele>784</ele><time>2020-08-16T12:02:12Z</time><name>PT4975</name></trkpt>
<trkpt lat="53.149285" lon="-3.950255"><ele>784</ele><time>2020-08-16T12:02:15Z</time><name>PT4976</name></trkpt>
<trkpt lat="53.149286" lon="-3.950278"><ele>783</ele><time>2020-08-16T12:02:20Z</time><name>PT4977</name></trkpt>
<trkpt lat="53.149286" lon="-3.950282"><ele>783</ele><time>2020-08-16T12:02:23Z</time><name>PT4978</name></trkpt>
<trkpt lat="53.149290" lon="-3.950272"><ele>782</ele><time>2020-08-16T12:02:32Z</time><name>PT4979</name></trkpt>
<trkpt lat="53.149284" lon="-3.950278"><ele>782</ele><time>2020-08-16T12:02:36Z</time><name>PT4980</name></trkpt>
<trkpt lat="53.149284" lon="-3.950278"><ele>781</ele><time>2020-08-16T12:02:39Z</time><name>PT4981</name></trkpt>
<trkpt lat="53.149284" lon="-3.950278"><ele>781</ele><time>2020-08-16T12:02:44Z</time><name>PT4982</name></trkpt>
<trkpt lat="53.149278" lon="-3.950281"><ele>781</ele><time>2020-08-16T12:02:50Z</time><name>PT4983</name></trkpt>
<trkpt lat="53.149275" lon="-3.950285"><ele>781</ele><time>2020-08-16T12:02:53Z</time><name>PT4984</name></trkpt>
<trkpt lat="53.149274" lon="-3.950288"><ele>781</ele><time>2020-08-16T12:02:57Z</time><name>PT4985</name></trkpt>
<trkpt lat="53.149281" lon="-3.950279"><ele>780</ele><time>2020-08-16T12:03:02Z</time><name>PT4986</name></trkpt>
<trkpt lat="53.149268" lon="-3.950293"><ele>779</ele><time>2020-08-16T12:03:05Z</time><name>PT4987</name></trkpt>
<trkpt lat="53.149264" lon="-3.950307"><ele>779</ele><time>2020-08-16T12:03:08Z</time><name>PT4988</name></trkpt>
<trkpt lat="53.149265" lon="-3.950326"><ele>779</ele><time>2020-08-16T12:03:17Z</time><name>PT4989</name></trkpt>
<trkpt lat="53.149261" lon="-3.950326"><ele>779</ele><time>2020-08-16T12:03:20Z</time><name>PT4990</name></trkpt>
<trkpt lat="53.149262" lon="-3.950327"><ele>779</ele><time>2020-08-16T12:03:23Z</time><name>PT4991</name></trkpt>
<trkpt lat="53.149265" lon="-3.950321"><ele>778</ele><time>2020-08-16T12:03:26Z</time><name>PT4992</name></trkpt>
<trkpt lat="53.149265" lon="-3.950319"><ele>778</ele><time>2020-08-16T12:03:30Z</time><name>PT4993</name></trkpt>
<trkpt lat="53.149253" lon="-3.950344"><ele>778</ele><time>2020-08-16T12:03:38Z</time><name>PT4994</name></trkpt>
<trkpt lat="53.149264" lon="-3.950353"><ele>778</ele><time>2020-08-16T12:03:41Z</time><name>PT4995</name></trkpt>
<trkpt lat="53.149275" lon="-3.950354"><ele>777</ele><time>2020-08-16T12:03:44Z</time><name>PT4996</name></trkpt>
<trkpt lat="53.149284" lon="-3.950372"><ele>777</ele><time>2020-08-16T12:03:47Z</time><name>PT4997</name></trkpt>
<trkpt lat="53.149298" lon="-3.950369"><ele>777</ele><time>2020-08-16T12:03:50Z</time><name>PT4998</name></trkpt>
<trkpt lat="53.149295" lon="-3.950362"><ele>777</ele><time>2020-08-16T12:03:54Z</time><name>PT4999</name></trkpt>
<trkpt lat="53.149301" lon="-3.950354"><ele>776</ele><time>2020-08-16T12:04:00Z</time><name>PT5000</name></trkpt>
<trkpt lat="53.149326" lon="-3.950364"><ele>776</ele><time>2020-08-16T12:04:03Z</time><name>PT5001</name></trkpt>
<trkpt lat="53.149334" lon="-3.950368"><ele>775</ele><time>2020-08-16T12:04:08Z</time><name>PT5002</name></trkpt>
<trkpt lat="53.149340" lon="-3.950381"><ele>774</ele><time>2020-08-16T12:04:11Z</time><name>PT5003</name></trkpt>
<trkpt lat="53.149353" lon="-3.950380"><ele>773</ele><time>2020-08-16T12:04:14Z</time><name>PT5004</name></trkpt>
<trkpt lat="53.149376" lon="-3.950411"><ele>771</ele><time>2020-08-16T12:04:17Z</time><name>PT5005</name></trkpt>
<trkpt lat="53.149395" lon="-3.950448"><ele>770</ele><time>2020-08-16T12:04:21Z</time><name>PT5006</name></trkpt>
<trkpt lat="53.149423" lon="-3.950498"><ele>769</ele><time>2020-08-16T12:04:26Z</time><name>PT5007</name></trkpt>
<trkpt lat="53.149466" lon="-3.950543"><ele>768</ele><time>2020-08-16T12:04:29Z</time><name>PT5008</name></trkpt>
<trkpt lat="53.149511" lon="-3.950579"><ele>767</ele><time>2020-08-16T12:04:33Z</time><name>PT5009</name></trkpt>
<trkpt lat="53.149551" lon="-3.950623"><ele>767</ele><time>2020-08-16T12:04:38Z</time><name>PT5010</name></trkpt>
<trkpt lat="53.149569" lon="-3.950648"><ele>768</ele><time>2020-08-16T12:04:41Z</time><name>PT5011</name></trkpt>
<trkpt lat="53.149593" lon="-3.950680"><ele>769</ele><time>2020-08-16T12:04:44Z</time><name>PT5012</name></trkpt>
<trkpt lat="53.149613" lon="-3.950679"><ele>768</ele><time>2020-08-16T12:04:47Z</time><name>PT5013</name></trkpt>
<trkpt lat="53.149640" lon="-3.950685"><ele>768</ele><time>2020-08-16T12:04:51Z</time><name>PT5014</name></trkpt>
<trkpt lat="53.149648" lon="-3.950699"><ele>768</ele><time>2020-08-16T12:04:54Z</time><name>PT5015</name></trkpt>
<trkpt lat="53.149649" lon="-3.950743"><ele>767</ele><time>2020-08-16T12:04:59Z</time><name>PT5016</name></trkpt>
<trkpt lat="53.149645" lon="-3.950794"><ele>766</ele><time>2020-08-16T12:05:02Z</time><name>PT5017</name></trkpt>
<trkpt lat="53.149633" lon="-3.950813"><ele>766</ele><time>2020-08-16T12:05:06Z</time><name>PT5018</name></trkpt>
<trkpt lat="53.149628" lon="-3.950848"><ele>767</ele><time>2020-08-16T12:05:11Z</time><name>PT5019</name></trkpt>
<trkpt lat="53.149641" lon="-3.950870"><ele>766</ele><time>2020-08-16T12:05:14Z</time><name>PT5020</name></trkpt>
<trkpt lat="53.149655" lon="-3.950913"><ele>765</ele><time>2020-08-16T12:05:17Z</time><name>PT5021</name></trkpt>
<trkpt lat="53.149663" lon="-3.950936"><ele>764</ele><time>2020-08-16T12:05:20Z</time><name>PT5022</name></trkpt>
<trkpt lat="53.149681" lon="-3.950969"><ele>763</ele><time>2020-08-16T12:05:23Z</time><name>PT5023</name></trkpt>
<trkpt lat="53.149676" lon="-3.951011"><ele>763</ele><time>2020-08-16T12:05:27Z</time><name>PT5024</name></trkpt>
<trkpt lat="53.149700" lon="-3.951034"><ele>762</ele><time>2020-08-16T12:05:32Z</time><name>PT5025</name></trkpt>
<trkpt lat="53.149733" lon="-3.951043"><ele>761</ele><time>2020-08-16T12:05:35Z</time><name>PT5026</name></trkpt>
<trkpt lat="53.149767" lon="-3.951063"><ele>761</ele><time>2020-08-16T12:05:38Z</time><name>PT5027</name></trkpt>
<trkpt lat="53.149792" lon="-3.951061"><ele>759</ele><time>2020-08-16T12:05:42Z</time><name>PT5028</name></trkpt>
<trkpt lat="53.149809" lon="-3.951077"><ele>758</ele><time>2020-08-16T12:05:45Z</time><name>PT5029</name></trkpt>
<trkpt lat="53.149831" lon="-3.951101"><ele>756</ele><time>2020-08-16T12:05:50Z</time><name>PT5030</name></trkpt>
<trkpt lat="53.149846" lon="-3.951135"><ele>754</ele><time>2020-08-16T12:05:53Z</time><name>PT5031</name></trkpt>
<trkpt lat="53.149854" lon="-3.951190"><ele>754</ele><time>2020-08-16T12:05:56Z</time><name>PT5032</name></trkpt>
<trkpt lat="53.149881" lon="-3.951210"><ele>755</ele><time>2020-08-16T12:06:00Z</time><name>PT5033</name></trkpt>
<trkpt lat="53.149905" lon="-3.951236"><ele>755</ele><time>2020-08-16T12:06:03Z</time><name>PT5034</name></trkpt>
<trkpt lat="53.149937" lon="-3.951262"><ele>756</ele><time>2020-08-16T12:06:08Z</time><name>PT5035</name></trkpt>
<trkpt lat="53.149971" lon="-3.951271"><ele>756</ele><time>2020-08-16T12:06:11Z</time><name>PT5036</name></trkpt>
<trkpt lat="53.149987" lon="-3.951283"><ele>756</ele><time>2020-08-16T12:06:14Z</time><name>PT5037</name></trkpt>
<trkpt lat="53.150013" lon="-3.951338"><ele>756</ele><time>2020-08-16T12:06:18Z</time><name>PT5038</name></trkpt>
<trkpt lat="53.150036" lon="-3.951379"><ele>757</ele><time>2020-08-16T12:06:21Z</time><name>PT5039</name></trkpt>
<trkpt lat="53.150057" lon="-3.951417"><ele>758</ele><time>2020-08-16T12:06:26Z</time><name>PT5040</name></trkpt>
<trkpt lat="53.150079" lon="-3.951426"><ele>757</ele><time>2020-08-16T12:06:29Z</time><name>PT5041</name></trkpt>
<trkpt lat="53.150094" lon="-3.951448"><ele>758</ele><time>2020-08-16T12:06:32Z</time><name>PT5042</name></trkpt>
<trkpt lat="53.150100" lon="-3.951474"><ele>758</ele><time>2020-08-16T12:06:36Z</time><name>PT5043</name></trkpt>
<trkpt lat="53.150105" lon="-3.951477"><ele>757</ele><time>2020-08-16T12:06:39Z</time><name>PT5044</name></trkpt>
<trkpt lat="53.150127" lon="-3.951533"><ele>757</ele><time>2020-08-16T12:06:44Z</time><name>PT5045</name></trkpt>
<trkpt lat="53.150151" lon="-3.951584"><ele>757</ele><time>2020-08-16T12:06:47Z</time><name>PT5046</name></trkpt>
<trkpt lat="53.150189" lon="-3.951634"><ele>757</ele><time>2020-08-16T12:06:50Z</time><name>PT5047</name></trkpt>
<trkpt lat="53.150216" lon="-3.951681"><ele>757</ele><time>2020-08-16T12:06:53Z</time><name>PT5048</name></trkpt>
<trkpt lat="53.150261" lon="-3.951726"><ele>756</ele><time>2020-08-16T12:06:57Z</time><name>PT5049</name></trkpt>
<trkpt lat="53.150293" lon="-3.951754"><ele>755</ele><time>2020-08-16T12:07:00Z</time><name>PT5050</name></trkpt>
<trkpt lat="53.150316" lon="-3.951788"><ele>756</ele><time>2020-08-16T12:07:03Z</time><name>PT5051</name></trkpt>
<trkpt lat="53.150358" lon="-3.951873"><ele>757</ele><time>2020-08-16T12:07:08Z</time><name>PT5052</name></trkpt>
<trkpt lat="53.150367" lon="-3.951891"><ele>758</ele><time>2020-08-16T12:07:08Z</time><name>PT5053</name></trkpt>
<trkpt lat="53.150373" lon="-3.951906"><ele>759</ele><time>2020-08-16T12:07:09Z</time><name>PT5054</name></trkpt>
<trkpt lat="53.150383" lon="-3.951923"><ele>760</ele><time>2020-08-16T12:07:11Z</time><name>PT5055</name></trkpt>
<trkpt lat="53.150391" lon="-3.951937"><ele>760</ele><time>2020-08-16T12:07:11Z</time><name>PT5056</name></trkpt>
<trkpt lat="53.150401" lon="-3.951951"><ele>760</ele><time>2020-08-16T12:07:12Z</time><name>PT5057</name></trkpt>
<trkpt lat="53.150409" lon="-3.951965"><ele>760</ele><time>2020-08-16T12:07:14Z</time><name>PT5058</name></trkpt>
<trkpt lat="53.150417" lon="-3.951976"><ele>761</ele><time>2020-08-16T12:07:14Z</time><name>PT5059</name></trkpt>
<trkpt lat="53.150424" lon="-3.951989"><ele>761</ele><time>2020-08-16T12:07:15Z</time><name>PT5060</name></trkpt>
<trkpt lat="53.150431" lon="-3.952004"><ele>761</ele><time>2020-08-16T12:07:17Z</time><name>PT5061</name></trkpt>
<trkpt lat="53.150437" lon="-3.952015"><ele>761</ele><time>2020-08-16T12:07:17Z</time><name>PT5062</name></trkpt>
<trkpt lat="53.150446" lon="-3.952027"><ele>761</ele><time>2020-08-16T12:07:18Z</time><name>PT5063</name></trkpt>
<trkpt lat="53.150456" lon="-3.952041"><ele>761</ele><time>2020-08-16T12:07:20Z</time><name>PT5064</name></trkpt>
<trkpt lat="53.150465" lon="-3.952049"><ele>761</ele><time>2020-08-16T12:07:20Z</time><name>PT5065</name></trkpt>
<trkpt lat="53.150472" lon="-3.952060"><ele>761</ele><time>2020-08-16T12:07:21Z</time><name>PT5066</name></trkpt>
<trkpt lat="53.150478" lon="-3.952070"><ele>761</ele><time>2020-08-16T12:07:23Z</time><name>PT5067</name></trkpt>
<trkpt lat="53.150486" lon="-3.952077"><ele>761</ele><time>2020-08-16T12:07:23Z</time><name>PT5068</name></trkpt>
<trkpt lat="53.150495" lon="-3.952084"><ele>761</ele><time>2020-08-16T12:07:24Z</time><name>PT5069</name></trkpt>
<trkpt lat="53.150505" lon="-3.952095"><ele>761</ele><time>2020-08-16T12:07:26Z</time><name>PT5070</name></trkpt>
<trkpt lat="53.150515" lon="-3.952105"><ele>761</ele><time>2020-08-16T12:07:26Z</time><name>PT5071</name></trkpt>
<trkpt lat="53.150522" lon="-3.952116"><ele>761</ele><time>2020-08-16T12:07:27Z</time><name>PT5072</name></trkpt>
<trkpt lat="53.150527" lon="-3.952129"><ele>760</ele><time>2020-08-16T12:07:29Z</time><name>PT5073</name></trkpt>
<trkpt lat="53.150534" lon="-3.952144"><ele>759</ele><time>2020-08-16T12:07:29Z</time><name>PT5074</name></trkpt>
<trkpt lat="53.150539" lon="-3.952158"><ele>759</ele><time>2020-08-16T12:07:30Z</time><name>PT5075</name></trkpt>
<trkpt lat="53.150543" lon="-3.952172"><ele>759</ele><time>2020-08-16T12:07:32Z</time><name>PT5076</name></trkpt>
<trkpt lat="53.150551" lon="-3.952181"><ele>759</ele><time>2020-08-16T12:07:32Z</time><name>PT5077</name></trkpt>
<trkpt lat="53.150560" lon="-3.952190"><ele>759</ele><time>2020-08-16T12:07:33Z</time><name>PT5078</name></trkpt>
<trkpt lat="53.150566" lon="-3.952198"><ele>759</ele><time>2020-08-16T12:07:35Z</time><name>PT5079</name></trkpt>
<trkpt lat="53.150569" lon="-3.952204"><ele>759</ele><time>2020-08-16T12:07:35Z</time><name>PT5080</name></trkpt>
<trkpt lat="53.150575" lon="-3.952208"><ele>758</ele><time>2020-08-16T12:07:36Z</time><name>PT5081</name></trkpt>
<trkpt lat="53.150582" lon="-3.952216"><ele>758</ele><time>2020-08-16T12:07:38Z</time><name>PT5082</name></trkpt>
<trkpt lat="53.150586" lon="-3.952225"><ele>758</ele><time>2020-08-16T12:07:38Z</time><name>PT5083</name></trkpt>
<trkpt lat="53.150593" lon="-3.952233"><ele>757</ele><time>2020-08-16T12:07:39Z</time><name>PT5084</name></trkpt>
<trkpt lat="53.150604" lon="-3.952243"><ele>757</ele><time>2020-08-16T12:07:41Z</time><name>PT5085</name></trkpt>
<trkpt lat="53.150616" lon="-3.952255"><ele>756</ele><time>2020-08-16T12:07:41Z</time><name>PT5086</name></trkpt>
<trkpt lat="53.150626" lon="-3.952271"><ele>756</ele><time>2020-08-16T12:07:42Z</time><name>PT5087</name></trkpt>
<trkpt lat="53.150636" lon="-3.952282"><ele>756</ele><time>2020-08-16T12:07:44Z</time><name>PT5088</name></trkpt>
<trkpt lat="53.150646" lon="-3.952292"><ele>755</ele><time>2020-08-16T12:07:44Z</time><name>PT5089</name></trkpt>
<trkpt lat="53.150657" lon="-3.952304"><ele>756</ele><time>2020-08-16T12:07:45Z</time><name>PT5090</name></trkpt>
<trkpt lat="53.150666" lon="-3.952313"><ele>757</ele><time>2020-08-16T12:07:47Z</time><name>PT5091</name></trkpt>
<trkpt lat="53.150675" lon="-3.952326"><ele>757</ele><time>2020-08-16T12:07:47Z</time><name>PT5092</name></trkpt>
<trkpt lat="53.150685" lon="-3.952343"><ele>756</ele><time>2020-08-16T12:07:48Z</time><name>PT5093</name></trkpt>
<trkpt lat="53.150693" lon="-3.952357"><ele>755</ele><time>2020-08-16T12:07:50Z</time><name>PT5094</name></trkpt>
<trkpt lat="53.150697" lon="-3.952373"><ele>756</ele><time>2020-08-16T12:07:50Z</time><name>PT5095</name></trkpt>
<trkpt lat="53.150701" lon="-3.952388"><ele>756</ele><time>2020-08-16T12:07:51Z</time><name>PT5096</name></trkpt>
<trkpt lat="53.150705" lon="-3.952406"><ele>756</ele><time>2020-08-16T12:07:53Z</time><name>PT5097</name></trkpt>
<trkpt lat="53.150709" lon="-3.952425"><ele>756</ele><time>2020-08-16T12:07:53Z</time><name>PT5098</name></trkpt>
<trkpt lat="53.150712" lon="-3.952443"><ele>756</ele><time>2020-08-16T12:07:54Z</time><name>PT5099</name></trkpt>
<trkpt lat="53.150716" lon="-3.952458"><ele>756</ele><time>2020-08-16T12:07:56Z</time><name>PT5100</name></trkpt>
<trkpt lat="53.150722" lon="-3.952472"><ele>756</ele><time>2020-08-16T12:07:56Z</time><name>PT5101</name></trkpt>
<trkpt lat="53.150725" lon="-3.952489"><ele>757</ele><time>2020-08-16T12:07:57Z</time><name>PT5102</name></trkpt>
<trkpt lat="53.150726" lon="-3.952515"><ele>757</ele><time>2020-08-16T12:07:59Z</time><name>PT5103</name></trkpt>
<trkpt lat="53.150727" lon="-3.952531"><ele>757</ele><time>2020-08-16T12:07:59Z</time><name>PT5104</name></trkpt>
<trkpt lat="53.150730" lon="-3.952544"><ele>758</ele><time>2020-08-16T12:08:00Z</time><name>PT5105</name></trkpt>
<trkpt lat="53.150733" lon="-3.952554"><ele>758</ele><time>2020-08-16T12:08:02Z</time><name>PT5106</name></trkpt>
<trkpt lat="53.150739" lon="-3.952571"><ele>758</ele><time>2020-08-16T12:08:02Z</time><name>PT5107</name></trkpt>
<trkpt lat="53.150742" lon="-3.952585"><ele>759</ele><time>2020-08-16T12:08:03Z</time><name>PT5108</name></trkpt>
<trkpt lat="53.150745" lon="-3.952597"><ele>759</ele><time>2020-08-16T12:08:05Z</time><name>PT5109</name></trkpt>
<trkpt lat="53.150751" lon="-3.952607"><ele>759</ele><time>2020-08-16T12:08:05Z</time><name>PT5110</name></trkpt>
<trkpt lat="53.150752" lon="-3.952627"><ele>759</ele><time>2020-08-16T12:08:06Z</time><name>PT5111</name></trkpt>
<trkpt lat="53.150755" lon="-3.952636"><ele>759</ele><time>2020-08-16T12:08:08Z</time><name>PT5112</name></trkpt>
<trkpt lat="53.150760" lon="-3.952644"><ele>759</ele><time>2020-08-16T12:08:08Z</time><name>PT5113</name></trkpt>
<trkpt lat="53.150767" lon="-3.952655"><ele>759</ele><time>2020-08-16T12:08:09Z</time><name>PT5114</name></trkpt>
<trkpt lat="53.150772" lon="-3.952664"><ele>759</ele><time>2020-08-16T12:08:11Z</time><name>PT5115</name></trkpt>
<trkpt lat="53.150777" lon="-3.952677"><ele>759</ele><time>2020-08-16T12:08:11Z</time><name>PT5116</name></trkpt>
<trkpt lat="53.150779" lon="-3.952688"><ele>758</ele><time>2020-08-16T12:08:12Z</time><name>PT5117</name></trkpt>
<trkpt lat="53.150781" lon="-3.952703"><ele>758</ele><time>2020-08-16T12:08:14Z</time><name>PT5118</name></trkpt>
<trkpt lat="53.150785" lon="-3.952717"><ele>758</ele><time>2020-08-16T12:08:14Z</time><name>PT5119</name></trkpt>
<trkpt lat="53.150787" lon="-3.952729"><ele>758</ele><time>2020-08-16T12:08:15Z</time><name>PT5120</name></trkpt>
<trkpt lat="53.150789" lon="-3.952744"><ele>758</ele><time>2020-08-16T12:08:17Z</time><name>PT5121</name></trkpt>
<trkpt lat="53.150796" lon="-3.952761"><ele>757</ele><time>2020-08-16T12:08:17Z</time><name>PT5122</name></trkpt>
<trkpt lat="53.150805" lon="-3.952777"><ele>757</ele><time>2020-08-16T12:08:18Z</time><name>PT5123</name></trkpt>
<trkpt lat="53.150816" lon="-3.952788"><ele>757</ele><time>2020-08-16T12:08:20Z</time><name>PT5124</name></trkpt>
<trkpt lat="53.150824" lon="-3.952797"><ele>757</ele><time>2020-08-16T12:08:20Z</time><name>PT5125</name></trkpt>
<trkpt lat="53.150831" lon="-3.952808"><ele>757</ele><time>2020-08-16T12:08:21Z</time><name>PT5126</name></trkpt>
<trkpt lat="53.150839" lon="-3.952821"><ele>757</ele><time>2020-08-16T12:08:23Z</time><name>PT5127</name></trkpt>
<trkpt lat="53.150845" lon="-3.952834"><ele>757</ele><time>2020-08-16T12:08:23Z</time><name>PT5128</name></trkpt>
<trkpt lat="53.150852" lon="-3.952845"><ele>757</ele><time>2020-08-16T12:08:24Z</time><name>PT5129</name></trkpt>
<trkpt lat="53.150859" lon="-3.952853"><ele>756</ele><time>2020-08-16T12:08:26Z</time><name>PT5130</name></trkpt>
<trkpt lat="53.150867" lon="-3.952864"><ele>756</ele><time>2020-08-16T12:08:26Z</time><name>PT5131</name></trkpt>
<trkpt lat="53.150873" lon="-3.952873"><ele>756</ele><time>2020-08-16T12:08:27Z</time><name>PT5132</name></trkpt>
<trkpt lat="53.150880" lon="-3.952882"><ele>756</ele><time>2020-08-16T12:08:29Z</time><name>PT5133</name></trkpt>
<trkpt lat="53.150890" lon="-3.952889"><ele>756</ele><time>2020-08-16T12:08:29Z</time><name>PT5134</name></trkpt>
<trkpt lat="53.150896" lon="-3.952896"><ele>756</ele><time>2020-08-16T12:08:30Z</time><name>PT5135</name></trkpt>
<trkpt lat="53.150901" lon="-3.952911"><ele>756</ele><time>2020-08-16T12:08:32Z</time><name>PT5136</name></trkpt>
<trkpt lat="53.150907" lon="-3.952923"><ele>756</ele><time>2020-08-16T12:08:32Z</time><name>PT5137</name></trkpt>
<trkpt lat="53.150915" lon="-3.952934"><ele>756</ele><time>2020-08-16T12:08:33Z</time><name>PT5138</name></trkpt>
<trkpt lat="53.150923" lon="-3.952942"><ele>756</ele><time>2020-08-16T12:08:35Z</time><name>PT5139</name></trkpt>
<trkpt lat="53.150929" lon="-3.952952"><ele>756</ele><time>2020-08-16T12:08:35Z</time><name>PT5140</name></trkpt>
<trkpt lat="53.150934" lon="-3.952961"><ele>756</ele><time>2020-08-16T12:08:36Z</time><name>PT5141</name></trkpt>
<trkpt lat="53.150940" lon="-3.952978"><ele>756</ele><time>2020-08-16T12:08:38Z</time><name>PT5142</name></trkpt>
<trkpt lat="53.150951" lon="-3.952987"><ele>756</ele><time>2020-08-16T12:08:38Z</time><name>PT5143</name></trkpt>
<trkpt lat="53.150961" lon="-3.952997"><ele>756</ele><time>2020-08-16T12:08:39Z</time><name>PT5144</name></trkpt>
<trkpt lat="53.150966" lon="-3.953008"><ele>757</ele><time>2020-08-16T12:08:41Z</time><name>PT5145</name></trkpt>
<trkpt lat="53.150971" lon="-3.953018"><ele>757</ele><time>2020-08-16T12:08:41Z</time><name>PT5146</name></trkpt>
<trkpt lat="53.150982" lon="-3.953029"><ele>757</ele><time>2020-08-16T12:08:42Z</time><name>PT5147</name></trkpt>
<trkpt lat="53.150988" lon="-3.953039"><ele>758</ele><time>2020-08-16T12:08:44Z</time><name>PT5148</name></trkpt>
<trkpt lat="53.150992" lon="-3.953048"><ele>758</ele><time>2020-08-16T12:08:44Z</time><name>PT5149</name></trkpt>
<trkpt lat="53.150999" lon="-3.953055"><ele>758</ele><time>2020-08-16T12:08:45Z</time><name>PT5150</name></trkpt>
<trkpt lat="53.151008" lon="-3.953067"><ele>758</ele><time>2020-08-16T12:08:47Z</time><name>PT5151</name></trkpt>
<trkpt lat="53.151015" lon="-3.953077"><ele>758</ele><time>2020-08-16T12:08:47Z</time><name>PT5152</name></trkpt>
<trkpt lat="53.151022" lon="-3.953087"><ele>758</ele><time>2020-08-16T12:08:48Z</time><name>PT5153</name></trkpt>
<trkpt lat="53.151028" lon="-3.953096"><ele>758</ele><time>2020-08-16T12:08:50Z</time><name>PT5154</name></trkpt>
<trkpt lat="53.151030" lon="-3.953107"><ele>758</ele><time>2020-08-16T12:08:50Z</time><name>PT5155</name></trkpt>
<trkpt lat="53.151030" lon="-3.953113"><ele>758</ele><time>2020-08-16T12:08:51Z</time><name>PT5156</name></trkpt>
<trkpt lat="53.151032" lon="-3.953116"><ele>758</ele><time>2020-08-16T12:08:53Z</time><name>PT5157</name></trkpt>
<trkpt lat="53.151033" lon="-3.953123"><ele>758</ele><time>2020-08-16T12:08:53Z</time><name>PT5158</name></trkpt>
<trkpt lat="53.151034" lon="-3.953128"><ele>759</ele><time>2020-08-16T12:08:54Z</time><name>PT5159</name></trkpt>
<trkpt lat="53.151035" lon="-3.953135"><ele>759</ele><time>2020-08-16T12:08:56Z</time><name>PT5160</name></trkpt>
<trkpt lat="53.151036" lon="-3.953140"><ele>759</ele><time>2020-08-16T12:09:06Z</time><name>PT5161</name></trkpt>
<trkpt lat="53.151043" lon="-3.953148"><ele>759</ele><time>2020-08-16T12:09:08Z</time><name>PT5162</name></trkpt>
<trkpt lat="53.151048" lon="-3.953154"><ele>758</ele><time>2020-08-16T12:09:08Z</time><name>PT5163</name></trkpt>
<trkpt lat="53.151055" lon="-3.953163"><ele>758</ele><time>2020-08-16T12:09:09Z</time><name>PT5164</name></trkpt>
<trkpt lat="53.151060" lon="-3.953179"><ele>758</ele><time>2020-08-16T12:09:11Z</time><name>PT5165</name></trkpt>
<trkpt lat="53.151065" lon="-3.953199"><ele>758</ele><time>2020-08-16T12:09:11Z</time><name>PT5166</name></trkpt>
<trkpt lat="53.151070" lon="-3.953217"><ele>758</ele><time>2020-08-16T12:09:12Z</time><name>PT5167</name></trkpt>
<trkpt lat="53.151072" lon="-3.953233"><ele>757</ele><time>2020-08-16T12:09:14Z</time><name>PT5168</name></trkpt>
<trkpt lat="53.151074" lon="-3.953253"><ele>757</ele><time>2020-08-16T12:09:14Z</time><name>PT5169</name></trkpt>
<trkpt lat="53.151073" lon="-3.953270"><ele>757</ele><time>2020-08-16T12:09:15Z</time><name>PT5170</name></trkpt>
<trkpt lat="53.151074" lon="-3.953282"><ele>757</ele><time>2020-08-16T12:09:17Z</time><name>PT5171</name></trkpt>
<trkpt lat="53.151075" lon="-3.953289"><ele>757</ele><time>2020-08-16T12:09:17Z</time><name>PT5172</name></trkpt>
<trkpt lat="53.151074" lon="-3.953296"><ele>757</ele><time>2020-08-16T12:09:18Z</time><name>PT5173</name></trkpt>
<trkpt lat="53.151079" lon="-3.953303"><ele>756</ele><time>2020-08-16T12:09:20Z</time><name>PT5174</name></trkpt>
<trkpt lat="53.151083" lon="-3.953315"><ele>756</ele><time>2020-08-16T12:09:20Z</time><name>PT5175</name></trkpt>
<trkpt lat="53.151085" lon="-3.953328"><ele>756</ele><time>2020-08-16T12:09:21Z</time><name>PT5176</name></trkpt>
<trkpt lat="53.151089" lon="-3.953344"><ele>756</ele><time>2020-08-16T12:09:23Z</time><name>PT5177</name></trkpt>
<trkpt lat="53.151086" lon="-3.953363"><ele>756</ele><time>2020-08-16T12:09:23Z</time><name>PT5178</name></trkpt>
<trkpt lat="53.151085" lon="-3.953375"><ele>756</ele><time>2020-08-16T12:09:24Z</time><name>PT5179</name></trkpt>
<trkpt lat="53.151083" lon="-3.953389"><ele>755</ele><time>2020-08-16T12:09:26Z</time><name>PT5180</name></trkpt>
<trkpt lat="53.151085" lon="-3.953402"><ele>755</ele><time>2020-08-16T12:09:26Z</time><name>PT5181</name></trkpt>
<trkpt lat="53.151087" lon="-3.953414"><ele>755</ele><time>2020-08-16T12:09:27Z</time><name>PT5182</name></trkpt>
<trkpt lat="53.151089" lon="-3.953427"><ele>755</ele><time>2020-08-16T12:09:29Z</time><name>PT5183</name></trkpt>
<trkpt lat="53.151096" lon="-3.953441"><ele>755</ele><time>2020-08-16T12:09:29Z</time><name>PT5184</name></trkpt>
<trkpt lat="53.151107" lon="-3.953457"><ele>755</ele><time>2020-08-16T12:09:30Z</time><name>PT5185</name></trkpt>
<trkpt lat="53.151118" lon="-3.953473"><ele>755</ele><time>2020-08-16T12:09:32Z</time><name>PT5186</name></trkpt>
<trkpt lat="53.151124" lon="-3.953491"><ele>754</ele><time>2020-08-16T12:09:32Z</time><name>PT5187</name></trkpt>
<trkpt lat="53.151129" lon="-3.953504"><ele>754</ele><time>2020-08-16T12:09:33Z</time><name>PT5188</name></trkpt>
<trkpt lat="53.151136" lon="-3.953518"><ele>754</ele><time>2020-08-16T12:09:35Z</time><name>PT5189</name></trkpt>
<trkpt lat="53.151141" lon="-3.953533"><ele>754</ele><time>2020-08-16T12:09:35Z</time><name>PT5190</name></trkpt>
<trkpt lat="53.151145" lon="-3.953569"><ele>753</ele><time>2020-08-16T12:09:36Z</time><name>PT5191</name></trkpt>
<trkpt lat="53.151149" lon="-3.953592"><ele>753</ele><time>2020-08-16T12:09:38Z</time><name>PT5192</name></trkpt>
<trkpt lat="53.151152" lon="-3.953605"><ele>753</ele><time>2020-08-16T12:09:38Z</time><name>PT5193</name></trkpt>
<trkpt lat="53.151160" lon="-3.953614"><ele>753</ele><time>2020-08-16T12:09:39Z</time><name>PT5194</name></trkpt>
<trkpt lat="53.151164" lon="-3.953625"><ele>753</ele><time>2020-08-16T12:09:41Z</time><name>PT5195</name></trkpt>
<trkpt lat="53.151173" lon="-3.953635"><ele>753</ele><time>2020-08-16T12:09:41Z</time><name>PT5196</name></trkpt>
<trkpt lat="53.151179" lon="-3.953640"><ele>753</ele><time>2020-08-16T12:09:42Z</time><name>PT5197</name></trkpt>
<trkpt lat="53.151182" lon="-3.953649"><ele>753</ele><time>2020-08-16T12:09:44Z</time><name>PT5198</name></trkpt>
<trkpt lat="53.151188" lon="-3.953653"><ele>753</ele><time>2020-08-16T12:09:44Z</time><name>PT5199</name></trkpt>
<trkpt lat="53.151188" lon="-3.953655"><ele>753</ele><time>2020-08-16T12:09:45Z</time><name>PT5200</name></trkpt>
<trkpt lat="53.151187" lon="-3.953656"><ele>753</ele><time>2020-08-16T12:09:47Z</time><name>PT5201</name></trkpt>
<trkpt lat="53.151187" lon="-3.953659"><ele>753</ele><time>2020-08-16T12:09:47Z</time><name>PT5202</name></trkpt>
<trkpt lat="53.151185" lon="-3.953660"><ele>752</ele><time>2020-08-16T12:09:48Z</time><name>PT5203</name></trkpt>
<trkpt lat="53.151182" lon="-3.953660"><ele>752</ele><time>2020-08-16T12:09:50Z</time><name>PT5204</name></trkpt>
<trkpt lat="53.151183" lon="-3.953662"><ele>753</ele><time>2020-08-16T12:09:50Z</time><name>PT5205</name></trkpt>
<trkpt lat="53.151182" lon="-3.953662"><ele>753</ele><time>2020-08-16T12:09:51Z</time><name>PT5206</name></trkpt>
<trkpt lat="53.151181" lon="-3.953662"><ele>752</ele><time>2020-08-16T12:09:53Z</time><name>PT5207</name></trkpt>
<trkpt lat="53.151182" lon="-3.953668"><ele>752</ele><time>2020-08-16T12:10:00Z</time><name>PT5208</name></trkpt>
<trkpt lat="53.151183" lon="-3.953668"><ele>752</ele><time>2020-08-16T12:10:02Z</time><name>PT5209</name></trkpt>
<trkpt lat="53.151181" lon="-3.953676"><ele>752</ele><time>2020-08-16T12:10:56Z</time><name>PT5210</name></trkpt>
<trkpt lat="53.151188" lon="-3.953701"><ele>752</ele><time>2020-08-16T12:10:59Z</time><name>PT5211</name></trkpt>
<trkpt lat="53.151186" lon="-3.953708"><ele>752</ele><time>2020-08-16T12:11:29Z</time><name>PT5212</name></trkpt>
<trkpt lat="53.151190" lon="-3.953721"><ele>752</ele><time>2020-08-16T12:11:32Z</time><name>PT5213</name></trkpt>
<trkpt lat="53.151191" lon="-3.953729"><ele>750</ele><time>2020-08-16T12:12:38Z</time><name>PT5214</name></trkpt>
<trkpt lat="53.151188" lon="-3.953737"><ele>750</ele><time>2020-08-16T12:12:41Z</time><name>PT5215</name></trkpt>
<trkpt lat="53.151187" lon="-3.953740"><ele>750</ele><time>2020-08-16T12:12:44Z</time><name>PT5216</name></trkpt>
<trkpt lat="53.151186" lon="-3.953735"><ele>750</ele><time>2020-08-16T12:12:47Z</time><name>PT5217</name></trkpt>
<trkpt lat="53.151190" lon="-3.953755"><ele>750</ele><time>2020-08-16T12:12:50Z</time><name>PT5218</name></trkpt>
<trkpt lat="53.151209" lon="-3.953792"><ele>750</ele><time>2020-08-16T12:12:54Z</time><name>PT5219</name></trkpt>
<trkpt lat="53.151223" lon="-3.953820"><ele>751</ele><time>2020-08-16T12:12:57Z</time><name>PT5220</name></trkpt>
<trkpt lat="53.151232" lon="-3.953839"><ele>751</ele><time>2020-08-16T12:13:01Z</time><name>PT5221</name></trkpt>
<trkpt lat="53.151246" lon="-3.953868"><ele>752</ele><time>2020-08-16T12:13:04Z</time><name>PT5222</name></trkpt>
<trkpt lat="53.151259" lon="-3.953920"><ele>752</ele><time>2020-08-16T12:13:08Z</time><name>PT5223</name></trkpt>
<trkpt lat="53.151266" lon="-3.953961"><ele>752</ele><time>2020-08-16T12:13:11Z</time><name>PT5224</name></trkpt>
<trkpt lat="53.151290" lon="-3.953987"><ele>751</ele><time>2020-08-16T12:13:14Z</time><name>PT5225</name></trkpt>
<trkpt lat="53.151312" lon="-3.954022"><ele>751</ele><time>2020-08-16T12:13:19Z</time><name>PT5226</name></trkpt>
<trkpt lat="53.151320" lon="-3.954076"><ele>752</ele><time>2020-08-16T12:13:22Z</time><name>PT5227</name></trkpt>
<trkpt lat="53.151324" lon="-3.954117"><ele>752</ele><time>2020-08-16T12:13:25Z</time><name>PT5228</name></trkpt>
<trkpt lat="53.151345" lon="-3.954181"><ele>752</ele><time>2020-08-16T12:13:29Z</time><name>PT5229</name></trkpt>
<trkpt lat="53.151367" lon="-3.954219"><ele>752</ele><time>2020-08-16T12:13:32Z</time><name>PT5230</name></trkpt>
<trkpt lat="53.151390" lon="-3.954256"><ele>753</ele><time>2020-08-16T12:13:35Z</time><name>PT5231</name></trkpt>
<trkpt lat="53.151410" lon="-3.954297"><ele>753</ele><time>2020-08-16T12:13:40Z</time><name>PT5232</name></trkpt>
<trkpt lat="53.151423" lon="-3.954313"><ele>754</ele><time>2020-08-16T12:13:43Z</time><name>PT5233</name></trkpt>
<trkpt lat="53.151445" lon="-3.954328"><ele>755</ele><time>2020-08-16T12:13:46Z</time><name>PT5234</name></trkpt>
<trkpt lat="53.151460" lon="-3.954369"><ele>756</ele><time>2020-08-16T12:13:49Z</time><name>PT5235</name></trkpt>
<trkpt lat="53.151481" lon="-3.954417"><ele>755</ele><time>2020-08-16T12:13:53Z</time><name>PT5236</name></trkpt>
<trkpt lat="53.151497" lon="-3.954459"><ele>756</ele><time>2020-08-16T12:13:58Z</time><name>PT5237</name></trkpt>
<trkpt lat="53.151506" lon="-3.954498"><ele>757</ele><time>2020-08-16T12:14:01Z</time><name>PT5238</name></trkpt>
<trkpt lat="53.151521" lon="-3.954534"><ele>757</ele><time>2020-08-16T12:14:04Z</time><name>PT5239</name></trkpt>
<trkpt lat="53.151533" lon="-3.954565"><ele>757</ele><time>2020-08-16T12:14:07Z</time><name>PT5240</name></trkpt>
<trkpt lat="53.151542" lon="-3.954591"><ele>758</ele><time>2020-08-16T12:14:10Z</time><name>PT5241</name></trkpt>
<trkpt lat="53.151546" lon="-3.954600"><ele>759</ele><time>2020-08-16T12:14:13Z</time><name>PT5242</name></trkpt>
<trkpt lat="53.151560" lon="-3.954619"><ele>759</ele><time>2020-08-16T12:14:17Z</time><name>PT5243</name></trkpt>
<trkpt lat="53.151565" lon="-3.954640"><ele>759</ele><time>2020-08-16T12:14:20Z</time><name>PT5244</name></trkpt>
<trkpt lat="53.151573" lon="-3.954690"><ele>759</ele><time>2020-08-16T12:14:25Z</time><name>PT5245</name></trkpt>
<trkpt lat="53.151588" lon="-3.954709"><ele>759</ele><time>2020-08-16T12:14:28Z</time><name>PT5246</name></trkpt>
<trkpt lat="53.151596" lon="-3.954732"><ele>760</ele><time>2020-08-16T12:14:31Z</time><name>PT5247</name></trkpt>
<trkpt lat="53.151607" lon="-3.954764"><ele>761</ele><time>2020-08-16T12:14:34Z</time><name>PT5248</name></trkpt>
<trkpt lat="53.151624" lon="-3.954797"><ele>762</ele><time>2020-08-16T12:14:37Z</time><name>PT5249</name></trkpt>
<trkpt lat="53.151636" lon="-3.954826"><ele>762</ele><time>2020-08-16T12:14:40Z</time><name>PT5250</name></trkpt>
<trkpt lat="53.151656" lon="-3.954839"><ele>762</ele><time>2020-08-16T12:14:44Z</time><name>PT5251</name></trkpt>
<trkpt lat="53.151673" lon="-3.954873"><ele>762</ele><time>2020-08-16T12:14:47Z</time><name>PT5252</name></trkpt>
<trkpt lat="53.151693" lon="-3.954925"><ele>761</ele><time>2020-08-16T12:14:52Z</time><name>PT5253</name></trkpt>
<trkpt lat="53.151717" lon="-3.954958"><ele>763</ele><time>2020-08-16T12:14:55Z</time><name>PT5254</name></trkpt>
<trkpt lat="53.151734" lon="-3.954972"><ele>764</ele><time>2020-08-16T12:14:58Z</time><name>PT5255</name></trkpt>
<trkpt lat="53.151744" lon="-3.954988"><ele>765</ele><time>2020-08-16T12:15:02Z</time><name>PT5256</name></trkpt>
<trkpt lat="53.151761" lon="-3.955006"><ele>766</ele><time>2020-08-16T12:15:07Z</time><name>PT5257</name></trkpt>
<trkpt lat="53.151790" lon="-3.955040"><ele>767</ele><time>2020-08-16T12:15:10Z</time><name>PT5258</name></trkpt>
<trkpt lat="53.151807" lon="-3.955072"><ele>767</ele><time>2020-08-16T12:15:14Z</time><name>PT5259</name></trkpt>
<trkpt lat="53.151807" lon="-3.955082"><ele>768</ele><time>2020-08-16T12:15:17Z</time><name>PT5260</name></trkpt>
<trkpt lat="53.151812" lon="-3.955098"><ele>768</ele><time>2020-08-16T12:15:20Z</time><name>PT5261</name></trkpt>
<trkpt lat="53.151816" lon="-3.955104"><ele>768</ele><time>2020-08-16T12:15:23Z</time><name>PT5262</name></trkpt>
<trkpt lat="53.151817" lon="-3.955105"><ele>768</ele><time>2020-08-16T12:15:26Z</time><name>PT5263</name></trkpt>
<trkpt lat="53.151832" lon="-3.955125"><ele>768</ele><time>2020-08-16T12:15:29Z</time><name>PT5264</name></trkpt>
<trkpt lat="53.151844" lon="-3.955169"><ele>767</ele><time>2020-08-16T12:15:34Z</time><name>PT5265</name></trkpt>
<trkpt lat="53.151847" lon="-3.955172"><ele>767</ele><time>2020-08-16T12:15:37Z</time><name>PT5266</name></trkpt>
<trkpt lat="53.151859" lon="-3.955184"><ele>768</ele><time>2020-08-16T12:15:41Z</time><name>PT5267</name></trkpt>
<trkpt lat="53.151895" lon="-3.955224"><ele>769</ele><time>2020-08-16T12:15:46Z</time><name>PT5268</name></trkpt>
<trkpt lat="53.151913" lon="-3.955250"><ele>771</ele><time>2020-08-16T12:15:49Z</time><name>PT5269</name></trkpt>
<trkpt lat="53.151935" lon="-3.955278"><ele>772</ele><time>2020-08-16T12:15:52Z</time><name>PT5270</name></trkpt>
<trkpt lat="53.151962" lon="-3.955310"><ele>773</ele><time>2020-08-16T12:15:55Z</time><name>PT5271</name></trkpt>
<trkpt lat="53.151977" lon="-3.955337"><ele>774</ele><time>2020-08-16T12:15:58Z</time><name>PT5272</name></trkpt>
<trkpt lat="53.151990" lon="-3.955364"><ele>775</ele><time>2020-08-16T12:16:02Z</time><name>PT5273</name></trkpt>
<trkpt lat="53.152011" lon="-3.955383"><ele>775</ele><time>2020-08-16T12:16:05Z</time><name>PT5274</name></trkpt>
<trkpt lat="53.152014" lon="-3.955399"><ele>775</ele><time>2020-08-16T12:16:08Z</time><name>PT5275</name></trkpt>
<trkpt lat="53.152019" lon="-3.955410"><ele>776</ele><time>2020-08-16T12:16:13Z</time><name>PT5276</name></trkpt>
<trkpt lat="53.152023" lon="-3.955437"><ele>776</ele><time>2020-08-16T12:16:16Z</time><name>PT5277</name></trkpt>
<trkpt lat="53.152041" lon="-3.955470"><ele>777</ele><time>2020-08-16T12:16:19Z</time><name>PT5278</name></trkpt>
<trkpt lat="53.152057" lon="-3.955503"><ele>777</ele><time>2020-08-16T12:16:23Z</time><name>PT5279</name></trkpt>
<trkpt lat="53.152063" lon="-3.955525"><ele>778</ele><time>2020-08-16T12:16:26Z</time><name>PT5280</name></trkpt>
<trkpt lat="53.152066" lon="-3.955547"><ele>779</ele><time>2020-08-16T12:16:31Z</time><name>PT5281</name></trkpt>
<trkpt lat="53.152082" lon="-3.955564"><ele>780</ele><time>2020-08-16T12:16:34Z</time><name>PT5282</name></trkpt>
<trkpt lat="53.152090" lon="-3.955583"><ele>781</ele><time>2020-08-16T12:16:37Z</time><name>PT5283</name></trkpt>
<trkpt lat="53.152106" lon="-3.955593"><ele>783</ele><time>2020-08-16T12:16:40Z</time><name>PT5284</name></trkpt>
<trkpt lat="53.152113" lon="-3.955601"><ele>782</ele><time>2020-08-16T12:16:43Z</time><name>PT5285</name></trkpt>
<trkpt lat="53.152118" lon="-3.955612"><ele>783</ele><time>2020-08-16T12:16:47Z</time><name>PT5286</name></trkpt>
<trkpt lat="53.152133" lon="-3.955630"><ele>784</ele><time>2020-08-16T12:16:52Z</time><name>PT5287</name></trkpt>
<trkpt lat="53.152148" lon="-3.955650"><ele>784</ele><time>2020-08-16T12:16:55Z</time><name>PT5288</name></trkpt>
<trkpt lat="53.152150" lon="-3.955667"><ele>786</ele><time>2020-08-16T12:16:58Z</time><name>PT5289</name></trkpt>
<trkpt lat="53.152154" lon="-3.955685"><ele>787</ele><time>2020-08-16T12:17:02Z</time><name>PT5290</name></trkpt>
<trkpt lat="53.152159" lon="-3.955712"><ele>788</ele><time>2020-08-16T12:17:05Z</time><name>PT5291</name></trkpt>
<trkpt lat="53.152177" lon="-3.955724"><ele>788</ele><time>2020-08-16T12:17:10Z</time><name>PT5292</name></trkpt>
<trkpt lat="53.152193" lon="-3.955739"><ele>789</ele><time>2020-08-16T12:17:13Z</time><name>PT5293</name></trkpt>
<trkpt lat="53.152201" lon="-3.955747"><ele>789</ele><time>2020-08-16T12:17:17Z</time><name>PT5294</name></trkpt>
<trkpt lat="53.152209" lon="-3.955748"><ele>790</ele><time>2020-08-16T12:17:20Z</time><name>PT5295</name></trkpt>
<trkpt lat="53.152214" lon="-3.955749"><ele>790</ele><time>2020-08-16T12:17:25Z</time><name>PT5296</name></trkpt>
<trkpt lat="53.152223" lon="-3.955774"><ele>791</ele><time>2020-08-16T12:17:31Z</time><name>PT5297</name></trkpt>
<trkpt lat="53.152236" lon="-3.955790"><ele>792</ele><time>2020-08-16T12:17:34Z</time><name>PT5298</name></trkpt>
<trkpt lat="53.152246" lon="-3.955810"><ele>793</ele><time>2020-08-16T12:17:38Z</time><name>PT5299</name></trkpt>
<trkpt lat="53.152265" lon="-3.955825"><ele>794</ele><time>2020-08-16T12:17:41Z</time><name>PT5300</name></trkpt>
<trkpt lat="53.152282" lon="-3.955838"><ele>794</ele><time>2020-08-16T12:17:44Z</time><name>PT5301</name></trkpt>
<trkpt lat="53.152301" lon="-3.955859"><ele>793</ele><time>2020-08-16T12:17:47Z</time><name>PT5302</name></trkpt>
<trkpt lat="53.152310" lon="-3.955868"><ele>794</ele><time>2020-08-16T12:17:52Z</time><name>PT5303</name></trkpt>
<trkpt lat="53.152314" lon="-3.955871"><ele>794</ele><time>2020-08-16T12:17:55Z</time><name>PT5304</name></trkpt>
<trkpt lat="53.152321" lon="-3.955906"><ele>796</ele><time>2020-08-16T12:18:04Z</time><name>PT5305</name></trkpt>
<trkpt lat="53.152326" lon="-3.955911"><ele>796</ele><time>2020-08-16T12:18:07Z</time><name>PT5306</name></trkpt>
<trkpt lat="53.152340" lon="-3.955915"><ele>796</ele><time>2020-08-16T12:18:10Z</time><name>PT5307</name></trkpt>
<trkpt lat="53.152350" lon="-3.955921"><ele>796</ele><time>2020-08-16T12:18:14Z</time><name>PT5308</name></trkpt>
<trkpt lat="53.152349" lon="-3.955921"><ele>797</ele><time>2020-08-16T12:18:17Z</time><name>PT5309</name></trkpt>
<trkpt lat="53.152349" lon="-3.955922"><ele>797</ele><time>2020-08-16T12:18:22Z</time><name>PT5310</name></trkpt>
<trkpt lat="53.152351" lon="-3.955930"><ele>798</ele><time>2020-08-16T12:18:25Z</time><name>PT5311</name></trkpt>
<trkpt lat="53.152368" lon="-3.955943"><ele>799</ele><time>2020-08-16T12:18:28Z</time><name>PT5312</name></trkpt>
<trkpt lat="53.152388" lon="-3.955962"><ele>800</ele><time>2020-08-16T12:18:32Z</time><name>PT5313</name></trkpt>
<trkpt lat="53.152391" lon="-3.955968"><ele>800</ele><time>2020-08-16T12:18:35Z</time><name>PT5314</name></trkpt>
<trkpt lat="53.152394" lon="-3.955976"><ele>800</ele><time>2020-08-16T12:18:38Z</time><name>PT5315</name></trkpt>
<trkpt lat="53.152417" lon="-3.956010"><ele>800</ele><time>2020-08-16T12:18:43Z</time><name>PT5316</name></trkpt>
<trkpt lat="53.152423" lon="-3.956020"><ele>800</ele><time>2020-08-16T12:18:46Z</time><name>PT5317</name></trkpt>
<trkpt lat="53.152435" lon="-3.956045"><ele>801</ele><time>2020-08-16T12:18:49Z</time><name>PT5318</name></trkpt>
<trkpt lat="53.152444" lon="-3.956053"><ele>801</ele><time>2020-08-16T12:18:52Z</time><name>PT5319</name></trkpt>
<trkpt lat="53.152455" lon="-3.956050"><ele>804</ele><time>2020-08-16T12:19:04Z</time><name>PT5320</name></trkpt>
<trkpt lat="53.152467" lon="-3.956069"><ele>804</ele><time>2020-08-16T12:19:07Z</time><name>PT5321</name></trkpt>
<trkpt lat="53.152486" lon="-3.956102"><ele>805</ele><time>2020-08-16T12:19:11Z</time><name>PT5322</name></trkpt>
<trkpt lat="53.152500" lon="-3.956108"><ele>805</ele><time>2020-08-16T12:19:14Z</time><name>PT5323</name></trkpt>
<trkpt lat="53.152515" lon="-3.956093"><ele>807</ele><time>2020-08-16T12:19:17Z</time><name>PT5324</name></trkpt>
<trkpt lat="53.152522" lon="-3.956089"><ele>807</ele><time>2020-08-16T12:19:20Z</time><name>PT5325</name></trkpt>
<trkpt lat="53.152527" lon="-3.956083"><ele>808</ele><time>2020-08-16T12:19:23Z</time><name>PT5326</name></trkpt>
<trkpt lat="53.152531" lon="-3.956067"><ele>808</ele><time>2020-08-16T12:19:31Z</time><name>PT5327</name></trkpt>
<trkpt lat="53.152553" lon="-3.956067"><ele>809</ele><time>2020-08-16T12:19:34Z</time><name>PT5328</name></trkpt>
<trkpt lat="53.152563" lon="-3.956066"><ele>810</ele><time>2020-08-16T12:19:37Z</time><name>PT5329</name></trkpt>
<trkpt lat="53.152572" lon="-3.956047"><ele>810</ele><time>2020-08-16T12:19:41Z</time><name>PT5330</name></trkpt>
<trkpt lat="53.152573" lon="-3.956050"><ele>812</ele><time>2020-08-16T12:19:44Z</time><name>PT5331</name></trkpt>
<trkpt lat="53.152581" lon="-3.956039"><ele>812</ele><time>2020-08-16T12:19:49Z</time><name>PT5332</name></trkpt>
<trkpt lat="53.152581" lon="-3.956027"><ele>812</ele><time>2020-08-16T12:19:52Z</time><name>PT5333</name></trkpt>
<trkpt lat="53.152587" lon="-3.956014"><ele>813</ele><time>2020-08-16T12:19:55Z</time><name>PT5334</name></trkpt>
<trkpt lat="53.152591" lon="-3.956012"><ele>813</ele><time>2020-08-16T12:19:58Z</time><name>PT5335</name></trkpt>
<trkpt lat="53.152607" lon="-3.956009"><ele>812</ele><time>2020-08-16T12:20:01Z</time><name>PT5336</name></trkpt>
<trkpt lat="53.152625" lon="-3.956001"><ele>812</ele><time>2020-08-16T12:20:04Z</time><name>PT5337</name></trkpt>
<trkpt lat="53.152632" lon="-3.956002"><ele>814</ele><time>2020-08-16T12:20:07Z</time><name>PT5338</name></trkpt>
<trkpt lat="53.152636" lon="-3.956006"><ele>814</ele><time>2020-08-16T12:20:10Z</time><name>PT5339</name></trkpt>
<trkpt lat="53.152633" lon="-3.956011"><ele>814</ele><time>2020-08-16T12:20:20Z</time><name>PT5340</name></trkpt>
<trkpt lat="53.152642" lon="-3.956015"><ele>814</ele><time>2020-08-16T12:20:23Z</time><name>PT5341</name></trkpt>
<trkpt lat="53.152645" lon="-3.956022"><ele>815</ele><time>2020-08-16T12:20:34Z</time><name>PT5342</name></trkpt>
<trkpt lat="53.152661" lon="-3.956047"><ele>816</ele><time>2020-08-16T12:20:37Z</time><name>PT5343</name></trkpt>
<trkpt lat="53.152667" lon="-3.956053"><ele>816</ele><time>2020-08-16T12:20:40Z</time><name>PT5344</name></trkpt>
<trkpt lat="53.152674" lon="-3.956051"><ele>816</ele><time>2020-08-16T12:20:44Z</time><name>PT5345</name></trkpt>
<trkpt lat="53.152680" lon="-3.956062"><ele>817</ele><time>2020-08-16T12:20:49Z</time><name>PT5346</name></trkpt>
<trkpt lat="53.152681" lon="-3.956061"><ele>817</ele><time>2020-08-16T12:20:52Z</time><name>PT5347</name></trkpt>
<trkpt lat="53.152678" lon="-3.956068"><ele>818</ele><time>2020-08-16T12:20:58Z</time><name>PT5348</name></trkpt>
<trkpt lat="53.152678" lon="-3.956091"><ele>818</ele><time>2020-08-16T12:21:11Z</time><name>PT5349</name></trkpt>
<trkpt lat="53.152678" lon="-3.956110"><ele>818</ele><time>2020-08-16T12:21:16Z</time><name>PT5350</name></trkpt>
<trkpt lat="53.152678" lon="-3.956117"><ele>819</ele><time>2020-08-16T12:21:19Z</time><name>PT5351</name></trkpt>
<trkpt lat="53.152679" lon="-3.956133"><ele>819</ele><time>2020-08-16T12:21:22Z</time><name>PT5352</name></trkpt>
<trkpt lat="53.152679" lon="-3.956145"><ele>820</ele><time>2020-08-16T12:21:25Z</time><name>PT5353</name></trkpt>
<trkpt lat="53.152684" lon="-3.956154"><ele>820</ele><time>2020-08-16T12:21:29Z</time><name>PT5354</name></trkpt>
<trkpt lat="53.152683" lon="-3.956155"><ele>820</ele><time>2020-08-16T12:21:32Z</time><name>PT5355</name></trkpt>
<trkpt lat="53.152683" lon="-3.956158"><ele>820</ele><time>2020-08-16T12:21:37Z</time><name>PT5356</name></trkpt>
<trkpt lat="53.152684" lon="-3.956158"><ele>821</ele><time>2020-08-16T12:21:43Z</time><name>PT5357</name></trkpt>
<trkpt lat="53.152690" lon="-3.956174"><ele>822</ele><time>2020-08-16T12:21:46Z</time><name>PT5358</name></trkpt>
<trkpt lat="53.152691" lon="-3.956187"><ele>822</ele><time>2020-08-16T12:21:49Z</time><name>PT5359</name></trkpt>
<trkpt lat="53.152684" lon="-3.956196"><ele>824</ele><time>2020-08-16T12:21:52Z</time><name>PT5360</name></trkpt>
<trkpt lat="53.152694" lon="-3.956205"><ele>825</ele><time>2020-08-16T12:21:56Z</time><name>PT5361</name></trkpt>
<trkpt lat="53.152697" lon="-3.956208"><ele>825</ele><time>2020-08-16T12:21:59Z</time><name>PT5362</name></trkpt>
<trkpt lat="53.152703" lon="-3.956210"><ele>825</ele><time>2020-08-16T12:22:04Z</time><name>PT5363</name></trkpt>
<trkpt lat="53.152703" lon="-3.956193"><ele>826</ele><time>2020-08-16T12:22:07Z</time><name>PT5364</name></trkpt>
<trkpt lat="53.152711" lon="-3.956202"><ele>827</ele><time>2020-08-16T12:22:10Z</time><name>PT5365</name></trkpt>
<trkpt lat="53.152711" lon="-3.956208"><ele>827</ele><time>2020-08-16T12:22:13Z</time><name>PT5366</name></trkpt>
<trkpt lat="53.152714" lon="-3.956234"><ele>828</ele><time>2020-08-16T12:22:17Z</time><name>PT5367</name></trkpt>
<trkpt lat="53.152712" lon="-3.956262"><ele>828</ele><time>2020-08-16T12:22:20Z</time><name>PT5368</name></trkpt>
<trkpt lat="53.152712" lon="-3.956272"><ele>828</ele><time>2020-08-16T12:22:23Z</time><name>PT5369</name></trkpt>
<trkpt lat="53.152715" lon="-3.956290"><ele>829</ele><time>2020-08-16T12:22:26Z</time><name>PT5370</name></trkpt>
<trkpt lat="53.152716" lon="-3.956319"><ele>830</ele><time>2020-08-16T12:22:31Z</time><name>PT5371</name></trkpt>
<trkpt lat="53.152724" lon="-3.956332"><ele>831</ele><time>2020-08-16T12:22:34Z</time><name>PT5372</name></trkpt>
<trkpt lat="53.152732" lon="-3.956330"><ele>831</ele><time>2020-08-16T12:22:37Z</time><name>PT5373</name></trkpt>
<trkpt lat="53.152748" lon="-3.956342"><ele>831</ele><time>2020-08-16T12:22:41Z</time><name>PT5374</name></trkpt>
<trkpt lat="53.152752" lon="-3.956342"><ele>831</ele><time>2020-08-16T12:22:46Z</time><name>PT5375</name></trkpt>
<trkpt lat="53.152755" lon="-3.956366"><ele>832</ele><time>2020-08-16T12:22:53Z</time><name>PT5376</name></trkpt>
<trkpt lat="53.152754" lon="-3.956389"><ele>832</ele><time>2020-08-16T12:22:56Z</time><name>PT5377</name></trkpt>
<trkpt lat="53.152765" lon="-3.956412"><ele>831</ele><time>2020-08-16T12:22:59Z</time><name>PT5378</name></trkpt>
<trkpt lat="53.152775" lon="-3.956444"><ele>831</ele><time>2020-08-16T12:23:02Z</time><name>PT5379</name></trkpt>
<trkpt lat="53.152796" lon="-3.956463"><ele>831</ele><time>2020-08-16T12:23:07Z</time><name>PT5380</name></trkpt>
<trkpt lat="53.152811" lon="-3.956470"><ele>831</ele><time>2020-08-16T12:23:10Z</time><name>PT5381</name></trkpt>
<trkpt lat="53.152821" lon="-3.956487"><ele>832</ele><time>2020-08-16T12:23:14Z</time><name>PT5382</name></trkpt>
<trkpt lat="53.152829" lon="-3.956511"><ele>833</ele><time>2020-08-16T12:23:17Z</time><name>PT5383</name></trkpt>
<trkpt lat="53.152848" lon="-3.956541"><ele>833</ele><time>2020-08-16T12:23:22Z</time><name>PT5384</name></trkpt>
<trkpt lat="53.152858" lon="-3.956554"><ele>833</ele><time>2020-08-16T12:23:25Z</time><name>PT5385</name></trkpt>
<trkpt lat="53.152866" lon="-3.956578"><ele>834</ele><time>2020-08-16T12:23:28Z</time><name>PT5386</name></trkpt>
<trkpt lat="53.152871" lon="-3.956581"><ele>833</ele><time>2020-08-16T12:23:31Z</time><name>PT5387</name></trkpt>
<trkpt lat="53.152870" lon="-3.956580"><ele>834</ele><time>2020-08-16T12:23:34Z</time><name>PT5388</name></trkpt>
<trkpt lat="53.152868" lon="-3.956617"><ele>834</ele><time>2020-08-16T12:23:41Z</time><name>PT5389</name></trkpt>
<trkpt lat="53.152882" lon="-3.956676"><ele>834</ele><time>2020-08-16T12:23:46Z</time><name>PT5390</name></trkpt>
<trkpt lat="53.152897" lon="-3.956695"><ele>835</ele><time>2020-08-16T12:23:49Z</time><name>PT5391</name></trkpt>
<trkpt lat="53.152920" lon="-3.956738"><ele>835</ele><time>2020-08-16T12:23:52Z</time><name>PT5392</name></trkpt>
<trkpt lat="53.152946" lon="-3.956767"><ele>834</ele><time>2020-08-16T12:23:56Z</time><name>PT5393</name></trkpt>
<trkpt lat="53.152964" lon="-3.956805"><ele>834</ele><time>2020-08-16T12:24:01Z</time><name>PT5394</name></trkpt>
<trkpt lat="53.152978" lon="-3.956820"><ele>834</ele><time>2020-08-16T12:24:04Z</time><name>PT5395</name></trkpt>
<trkpt lat="53.152990" lon="-3.956832"><ele>835</ele><time>2020-08-16T12:24:08Z</time><name>PT5396</name></trkpt>
<trkpt lat="53.153003" lon="-3.956838"><ele>836</ele><time>2020-08-16T12:24:11Z</time><name>PT5397</name></trkpt>
<trkpt lat="53.153011" lon="-3.956845"><ele>837</ele><time>2020-08-16T12:24:14Z</time><name>PT5398</name></trkpt>
<trkpt lat="53.153028" lon="-3.956849"><ele>837</ele><time>2020-08-16T12:24:17Z</time><name>PT5399</name></trkpt>
<trkpt lat="53.153046" lon="-3.956847"><ele>838</ele><time>2020-08-16T12:24:22Z</time><name>PT5400</name></trkpt>
<trkpt lat="53.153061" lon="-3.956840"><ele>839</ele><time>2020-08-16T12:24:25Z</time><name>PT5401</name></trkpt>
<trkpt lat="53.153069" lon="-3.956827"><ele>839</ele><time>2020-08-16T12:24:28Z</time><name>PT5402</name></trkpt>
<trkpt lat="53.153077" lon="-3.956819"><ele>839</ele><time>2020-08-16T12:24:31Z</time><name>PT5403</name></trkpt>
<trkpt lat="53.153076" lon="-3.956819"><ele>840</ele><time>2020-08-16T12:24:34Z</time><name>PT5404</name></trkpt>
<trkpt lat="53.153095" lon="-3.956834"><ele>840</ele><time>2020-08-16T12:24:38Z</time><name>PT5405</name></trkpt>
<trkpt lat="53.153101" lon="-3.956845"><ele>841</ele><time>2020-08-16T12:24:43Z</time><name>PT5406</name></trkpt>
<trkpt lat="53.153117" lon="-3.956864"><ele>841</ele><time>2020-08-16T12:24:46Z</time><name>PT5407</name></trkpt>
<trkpt lat="53.153130" lon="-3.956881"><ele>841</ele><time>2020-08-16T12:24:49Z</time><name>PT5408</name></trkpt>
<trkpt lat="53.153151" lon="-3.956911"><ele>841</ele><time>2020-08-16T12:24:53Z</time><name>PT5409</name></trkpt>
<trkpt lat="53.153171" lon="-3.956931"><ele>840</ele><time>2020-08-16T12:24:56Z</time><name>PT5410</name></trkpt>
<trkpt lat="53.153180" lon="-3.956946"><ele>841</ele><time>2020-08-16T12:24:59Z</time><name>PT5411</name></trkpt>
<trkpt lat="53.153179" lon="-3.956949"><ele>841</ele><time>2020-08-16T12:25:02Z</time><name>PT5412</name></trkpt>
<trkpt lat="53.153191" lon="-3.956973"><ele>842</ele><time>2020-08-16T12:25:13Z</time><name>PT5413</name></trkpt>
<trkpt lat="53.153191" lon="-3.956987"><ele>843</ele><time>2020-08-16T12:25:16Z</time><name>PT5414</name></trkpt>
<trkpt lat="53.153194" lon="-3.956988"><ele>843</ele><time>2020-08-16T12:25:19Z</time><name>PT5415</name></trkpt>
<trkpt lat="53.153209" lon="-3.957005"><ele>844</ele><time>2020-08-16T12:25:23Z</time><name>PT5416</name></trkpt>
<trkpt lat="53.153211" lon="-3.957004"><ele>844</ele><time>2020-08-16T12:25:26Z</time><name>PT5417</name></trkpt>
<trkpt lat="53.153210" lon="-3.957006"><ele>844</ele><time>2020-08-16T12:25:29Z</time><name>PT5418</name></trkpt>
<trkpt lat="53.153212" lon="-3.957023"><ele>844</ele><time>2020-08-16T12:25:32Z</time><name>PT5419</name></trkpt>
<trkpt lat="53.153221" lon="-3.957030"><ele>844</ele><time>2020-08-16T12:25:37Z</time><name>PT5420</name></trkpt>
<trkpt lat="53.153236" lon="-3.957011"><ele>845</ele><time>2020-08-16T12:25:40Z</time><name>PT5421</name></trkpt>
<trkpt lat="53.153238" lon="-3.957005"><ele>845</ele><time>2020-08-16T12:25:44Z</time><name>PT5422</name></trkpt>
<trkpt lat="53.153240" lon="-3.957003"><ele>845</ele><time>2020-08-16T12:25:47Z</time><name>PT5423</name></trkpt>
<trkpt lat="53.153241" lon="-3.957002"><ele>846</ele><time>2020-08-16T12:25:57Z</time><name>PT5424</name></trkpt>
<trkpt lat="53.153250" lon="-3.956991"><ele>847</ele><time>2020-08-16T12:26:01Z</time><name>PT5425</name></trkpt>
<trkpt lat="53.153249" lon="-3.956994"><ele>847</ele><time>2020-08-16T12:26:04Z</time><name>PT5426</name></trkpt>
<trkpt lat="53.153262" lon="-3.957012"><ele>847</ele><time>2020-08-16T12:26:09Z</time><name>PT5427</name></trkpt>
<trkpt lat="53.153263" lon="-3.956999"><ele>849</ele><time>2020-08-16T12:26:12Z</time><name>PT5428</name></trkpt>
<trkpt lat="53.153270" lon="-3.957017"><ele>850</ele><time>2020-08-16T12:26:18Z</time><name>PT5429</name></trkpt>
<trkpt lat="53.153293" lon="-3.957022"><ele>851</ele><time>2020-08-16T12:26:22Z</time><name>PT5430</name></trkpt>
<trkpt lat="53.153308" lon="-3.957035"><ele>852</ele><time>2020-08-16T12:26:27Z</time><name>PT5431</name></trkpt>
<trkpt lat="53.153319" lon="-3.957058"><ele>853</ele><time>2020-08-16T12:26:30Z</time><name>PT5432</name></trkpt>
<trkpt lat="53.153327" lon="-3.957068"><ele>853</ele><time>2020-08-16T12:26:34Z</time><name>PT5433</name></trkpt>
<trkpt lat="53.153329" lon="-3.957069"><ele>853</ele><time>2020-08-16T12:26:37Z</time><name>PT5434</name></trkpt>
<trkpt lat="53.153343" lon="-3.957066"><ele>853</ele><time>2020-08-16T12:26:42Z</time><name>PT5435</name></trkpt>
<trkpt lat="53.153365" lon="-3.957047"><ele>854</ele><time>2020-08-16T12:26:45Z</time><name>PT5436</name></trkpt>
<trkpt lat="53.153376" lon="-3.957002"><ele>855</ele><time>2020-08-16T12:26:48Z</time><name>PT5437</name></trkpt>
<trkpt lat="53.153380" lon="-3.956974"><ele>855</ele><time>2020-08-16T12:26:51Z</time><name>PT5438</name></trkpt>
<trkpt lat="53.153397" lon="-3.956967"><ele>855</ele><time>2020-08-16T12:26:54Z</time><name>PT5439</name></trkpt>
<trkpt lat="53.153422" lon="-3.956961"><ele>855</ele><time>2020-08-16T12:26:58Z</time><name>PT5440</name></trkpt>
<trkpt lat="53.153429" lon="-3.956961"><ele>855</ele><time>2020-08-16T12:27:01Z</time><name>PT5441</name></trkpt>
<trkpt lat="53.153434" lon="-3.956962"><ele>855</ele><time>2020-08-16T12:27:06Z</time><name>PT5442</name></trkpt>
<trkpt lat="53.153453" lon="-3.956973"><ele>855</ele><time>2020-08-16T12:27:09Z</time><name>PT5443</name></trkpt>
<trkpt lat="53.153477" lon="-3.956960"><ele>855</ele><time>2020-08-16T12:27:13Z</time><name>PT5444</name></trkpt>
<trkpt lat="53.153488" lon="-3.956963"><ele>855</ele><time>2020-08-16T12:27:16Z</time><name>PT5445</name></trkpt>
<trkpt lat="53.153500" lon="-3.956968"><ele>856</ele><time>2020-08-16T12:27:19Z</time><name>PT5446</name></trkpt>
<trkpt lat="53.153519" lon="-3.956969"><ele>857</ele><time>2020-08-16T12:27:24Z</time><name>PT5447</name></trkpt>
<trkpt lat="53.153529" lon="-3.956963"><ele>858</ele><time>2020-08-16T12:27:27Z</time><name>PT5448</name></trkpt>
<trkpt lat="53.153533" lon="-3.956964"><ele>858</ele><time>2020-08-16T12:27:30Z</time><name>PT5449</name></trkpt>
<trkpt lat="53.153551" lon="-3.956968"><ele>859</ele><time>2020-08-16T12:27:33Z</time><name>PT5450</name></trkpt>
<trkpt lat="53.153572" lon="-3.956982"><ele>859</ele><time>2020-08-16T12:27:36Z</time><name>PT5451</name></trkpt>
<trkpt lat="53.153580" lon="-3.956988"><ele>859</ele><time>2020-08-16T12:27:39Z</time><name>PT5452</name></trkpt>
<trkpt lat="53.153606" lon="-3.956983"><ele>858</ele><time>2020-08-16T12:27:43Z</time><name>PT5453</name></trkpt>
<trkpt lat="53.153623" lon="-3.956987"><ele>858</ele><time>2020-08-16T12:27:46Z</time><name>PT5454</name></trkpt>
<trkpt lat="53.153644" lon="-3.956987"><ele>859</ele><time>2020-08-16T12:27:49Z</time><name>PT5455</name></trkpt>
<trkpt lat="53.153664" lon="-3.956994"><ele>859</ele><time>2020-08-16T12:27:52Z</time><name>PT5456</name></trkpt>
<trkpt lat="53.153684" lon="-3.957023"><ele>860</ele><time>2020-08-16T12:27:57Z</time><name>PT5457</name></trkpt>
<trkpt lat="53.153703" lon="-3.957013"><ele>860</ele><time>2020-08-16T12:28:00Z</time><name>PT5458</name></trkpt>
<trkpt lat="53.153721" lon="-3.957033"><ele>861</ele><time>2020-08-16T12:28:03Z</time><name>PT5459</name></trkpt>
<trkpt lat="53.153748" lon="-3.957063"><ele>860</ele><time>2020-08-16T12:28:07Z</time><name>PT5460</name></trkpt>
<trkpt lat="53.153772" lon="-3.957085"><ele>860</ele><time>2020-08-16T12:28:12Z</time><name>PT5461</name></trkpt>
<trkpt lat="53.153793" lon="-3.957094"><ele>860</ele><time>2020-08-16T12:28:15Z</time><name>PT5462</name></trkpt>
<trkpt lat="53.153823" lon="-3.957092"><ele>858</ele><time>2020-08-16T12:28:18Z</time><name>PT5463</name></trkpt>
<trkpt lat="53.153857" lon="-3.957118"><ele>857</ele><time>2020-08-16T12:28:21Z</time><name>PT5464</name></trkpt>
<trkpt lat="53.153868" lon="-3.957117"><ele>856</ele><time>2020-08-16T12:28:24Z</time><name>PT5465</name></trkpt>
<trkpt lat="53.153877" lon="-3.957126"><ele>856</ele><time>2020-08-16T12:28:27Z</time><name>PT5466</name></trkpt>
<trkpt lat="53.153878" lon="-3.957126"><ele>857</ele><time>2020-08-16T12:28:31Z</time><name>PT5467</name></trkpt>
<trkpt lat="53.153887" lon="-3.957153"><ele>857</ele><time>2020-08-16T12:28:34Z</time><name>PT5468</name></trkpt>
<trkpt lat="53.153891" lon="-3.957204"><ele>857</ele><time>2020-08-16T12:28:39Z</time><name>PT5469</name></trkpt>
<trkpt lat="53.153897" lon="-3.957243"><ele>857</ele><time>2020-08-16T12:28:42Z</time><name>PT5470</name></trkpt>
<trkpt lat="53.153906" lon="-3.957259"><ele>857</ele><time>2020-08-16T12:28:45Z</time><name>PT5471</name></trkpt>
<trkpt lat="53.153914" lon="-3.957283"><ele>856</ele><time>2020-08-16T12:28:48Z</time><name>PT5472</name></trkpt>
<trkpt lat="53.153927" lon="-3.957299"><ele>855</ele><time>2020-08-16T12:28:51Z</time><name>PT5473</name></trkpt>
<trkpt lat="53.153934" lon="-3.957308"><ele>856</ele><time>2020-08-16T12:28:55Z</time><name>PT5474</name></trkpt>
<trkpt lat="53.153953" lon="-3.957322"><ele>855</ele><time>2020-08-16T12:29:10Z</time><name>PT5475</name></trkpt>
<trkpt lat="53.153986" lon="-3.957327"><ele>855</ele><time>2020-08-16T12:29:13Z</time><name>PT5476</name></trkpt>
<trkpt lat="53.154017" lon="-3.957346"><ele>855</ele><time>2020-08-16T12:29:16Z</time><name>PT5477</name></trkpt>
<trkpt lat="53.154049" lon="-3.957363"><ele>854</ele><time>2020-08-16T12:29:19Z</time><name>PT5478</name></trkpt>
<trkpt lat="53.154069" lon="-3.957367"><ele>854</ele><time>2020-08-16T12:29:22Z</time><name>PT5479</name></trkpt>
<trkpt lat="53.154091" lon="-3.957389"><ele>854</ele><time>2020-08-16T12:29:25Z</time><name>PT5480</name></trkpt>
<trkpt lat="53.154118" lon="-3.957391"><ele>852</ele><time>2020-08-16T12:29:30Z</time><name>PT5481</name></trkpt>
<trkpt lat="53.154141" lon="-3.957408"><ele>852</ele><time>2020-08-16T12:29:33Z</time><name>PT5482</name></trkpt>
<trkpt lat="53.154169" lon="-3.957445"><ele>852</ele><time>2020-08-16T12:29:36Z</time><name>PT5483</name></trkpt>
<trkpt lat="53.154204" lon="-3.957459"><ele>854</ele><time>2020-08-16T12:29:39Z</time><name>PT5484</name></trkpt>
<trkpt lat="53.154236" lon="-3.957495"><ele>854</ele><time>2020-08-16T12:29:42Z</time><name>PT5485</name></trkpt>
<trkpt lat="53.154277" lon="-3.957525"><ele>854</ele><time>2020-08-16T12:29:46Z</time><name>PT5486</name></trkpt>
<trkpt lat="53.154325" lon="-3.957551"><ele>853</ele><time>2020-08-16T12:29:51Z</time><name>PT5487</name></trkpt>
<trkpt lat="53.154363" lon="-3.957566"><ele>854</ele><time>2020-08-16T12:29:54Z</time><name>PT5488</name></trkpt>
<trkpt lat="53.154391" lon="-3.957599"><ele>854</ele><time>2020-08-16T12:29:57Z</time><name>PT5489</name></trkpt>
<trkpt lat="53.154427" lon="-3.957655"><ele>852</ele><time>2020-08-16T12:30:00Z</time><name>PT5490</name></trkpt>
<trkpt lat="53.154463" lon="-3.957684"><ele>852</ele><time>2020-08-16T12:30:03Z</time><name>PT5491</name></trkpt>
<trkpt lat="53.154500" lon="-3.957725"><ele>853</ele><time>2020-08-16T12:30:07Z</time><name>PT5492</name></trkpt>
<trkpt lat="53.154526" lon="-3.957754"><ele>853</ele><time>2020-08-16T12:30:10Z</time><name>PT5493</name></trkpt>
<trkpt lat="53.154570" lon="-3.957780"><ele>853</ele><time>2020-08-16T12:30:15Z</time><name>PT5494</name></trkpt>
<trkpt lat="53.154606" lon="-3.957794"><ele>853</ele><time>2020-08-16T12:30:18Z</time><name>PT5495</name></trkpt>
<trkpt lat="53.154654" lon="-3.957822"><ele>854</ele><time>2020-08-16T12:30:21Z</time><name>PT5496</name></trkpt>
<trkpt lat="53.154688" lon="-3.957842"><ele>855</ele><time>2020-08-16T12:30:24Z</time><name>PT5497</name></trkpt>
<trkpt lat="53.154728" lon="-3.957857"><ele>854</ele><time>2020-08-16T12:30:28Z</time><name>PT5498</name></trkpt>
<trkpt lat="53.154756" lon="-3.957882"><ele>853</ele><time>2020-08-16T12:30:31Z</time><name>PT5499</name></trkpt>
<trkpt lat="53.154776" lon="-3.957916"><ele>854</ele><time>2020-08-16T12:30:34Z</time><name>PT5500</name></trkpt>
<trkpt lat="53.154795" lon="-3.957961"><ele>855</ele><time>2020-08-16T12:30:37Z</time><name>PT5501</name></trkpt>
<trkpt lat="53.154821" lon="-3.958020"><ele>856</ele><time>2020-08-16T12:30:42Z</time><name>PT5502</name></trkpt>
<trkpt lat="53.154855" lon="-3.958063"><ele>855</ele><time>2020-08-16T12:30:45Z</time><name>PT5503</name></trkpt>
<trkpt lat="53.154875" lon="-3.958103"><ele>856</ele><time>2020-08-16T12:30:48Z</time><name>PT5504</name></trkpt>
<trkpt lat="53.154887" lon="-3.958158"><ele>856</ele><time>2020-08-16T12:30:52Z</time><name>PT5505</name></trkpt>
<trkpt lat="53.154890" lon="-3.958217"><ele>856</ele><time>2020-08-16T12:30:55Z</time><name>PT5506</name></trkpt>
<trkpt lat="53.154907" lon="-3.958270"><ele>858</ele><time>2020-08-16T12:30:58Z</time><name>PT5507</name></trkpt>
<trkpt lat="53.154937" lon="-3.958301"><ele>858</ele><time>2020-08-16T12:31:03Z</time><name>PT5508</name></trkpt>
<trkpt lat="53.154959" lon="-3.958330"><ele>859</ele><time>2020-08-16T12:31:06Z</time><name>PT5509</name></trkpt>
<trkpt lat="53.154972" lon="-3.958352"><ele>860</ele><time>2020-08-16T12:31:09Z</time><name>PT5510</name></trkpt>
<trkpt lat="53.154985" lon="-3.958371"><ele>861</ele><time>2020-08-16T12:31:12Z</time><name>PT5511</name></trkpt>
<trkpt lat="53.155002" lon="-3.958389"><ele>860</ele><time>2020-08-16T12:31:16Z</time><name>PT5512</name></trkpt>
<trkpt lat="53.155016" lon="-3.958416"><ele>860</ele><time>2020-08-16T12:31:19Z</time><name>PT5513</name></trkpt>
<trkpt lat="53.155038" lon="-3.958433"><ele>860</ele><time>2020-08-16T12:31:22Z</time><name>PT5514</name></trkpt>
<trkpt lat="53.155062" lon="-3.958461"><ele>860</ele><time>2020-08-16T12:31:27Z</time><name>PT5515</name></trkpt>
<trkpt lat="53.155089" lon="-3.958469"><ele>860</ele><time>2020-08-16T12:31:30Z</time><name>PT5516</name></trkpt>
<trkpt lat="53.155107" lon="-3.958498"><ele>860</ele><time>2020-08-16T12:31:34Z</time><name>PT5517</name></trkpt>
<trkpt lat="53.155112" lon="-3.958532"><ele>861</ele><time>2020-08-16T12:31:39Z</time><name>PT5518</name></trkpt>
<trkpt lat="53.155128" lon="-3.958590"><ele>861</ele><time>2020-08-16T12:31:42Z</time><name>PT5519</name></trkpt>
<trkpt lat="53.155150" lon="-3.958637"><ele>860</ele><time>2020-08-16T12:31:46Z</time><name>PT5520</name></trkpt>
<trkpt lat="53.155167" lon="-3.958675"><ele>860</ele><time>2020-08-16T12:31:49Z</time><name>PT5521</name></trkpt>
<trkpt lat="53.155194" lon="-3.958711"><ele>860</ele><time>2020-08-16T12:31:52Z</time><name>PT5522</name></trkpt>
<trkpt lat="53.155226" lon="-3.958773"><ele>861</ele><time>2020-08-16T12:31:57Z</time><name>PT5523</name></trkpt>
<trkpt lat="53.155250" lon="-3.958808"><ele>861</ele><time>2020-08-16T12:32:00Z</time><name>PT5524</name></trkpt>
<trkpt lat="53.155289" lon="-3.958852"><ele>860</ele><time>2020-08-16T12:32:03Z</time><name>PT5525</name></trkpt>
<trkpt lat="53.155318" lon="-3.958880"><ele>861</ele><time>2020-08-16T12:32:06Z</time><name>PT5526</name></trkpt>
<trkpt lat="53.155351" lon="-3.958909"><ele>862</ele><time>2020-08-16T12:32:10Z</time><name>PT5527</name></trkpt>
<trkpt lat="53.155380" lon="-3.958939"><ele>862</ele><time>2020-08-16T12:32:15Z</time><name>PT5528</name></trkpt>
<trkpt lat="53.155397" lon="-3.958951"><ele>863</ele><time>2020-08-16T12:32:18Z</time><name>PT5529</name></trkpt>
<trkpt lat="53.155417" lon="-3.958967"><ele>864</ele><time>2020-08-16T12:32:21Z</time><name>PT5530</name></trkpt>
<trkpt lat="53.155432" lon="-3.958970"><ele>864</ele><time>2020-08-16T12:32:24Z</time><name>PT5531</name></trkpt>
<trkpt lat="53.155442" lon="-3.958982"><ele>865</ele><time>2020-08-16T12:32:27Z</time><name>PT5532</name></trkpt>
<trkpt lat="53.155463" lon="-3.958992"><ele>864</ele><time>2020-08-16T12:32:30Z</time><name>PT5533</name></trkpt>
<trkpt lat="53.155479" lon="-3.959012"><ele>865</ele><time>2020-08-16T12:32:33Z</time><name>PT5534</name></trkpt>
<trkpt lat="53.155514" lon="-3.959033"><ele>865</ele><time>2020-08-16T12:32:37Z</time><name>PT5535</name></trkpt>
<trkpt lat="53.155539" lon="-3.959053"><ele>866</ele><time>2020-08-16T12:32:40Z</time><name>PT5536</name></trkpt>
<trkpt lat="53.155566" lon="-3.959070"><ele>868</ele><time>2020-08-16T12:32:43Z</time><name>PT5537</name></trkpt>
<trkpt lat="53.155601" lon="-3.959108"><ele>869</ele><time>2020-08-16T12:32:48Z</time><name>PT5538</name></trkpt>
<trkpt lat="53.155635" lon="-3.959123"><ele>869</ele><time>2020-08-16T12:32:51Z</time><name>PT5539</name></trkpt>
<trkpt lat="53.155667" lon="-3.959156"><ele>870</ele><time>2020-08-16T12:32:55Z</time><name>PT5540</name></trkpt>
<trkpt lat="53.155710" lon="-3.959193"><ele>870</ele><time>2020-08-16T12:32:59Z</time><name>PT5541</name></trkpt>
<trkpt lat="53.155756" lon="-3.959223"><ele>870</ele><time>2020-08-16T12:33:03Z</time><name>PT5542</name></trkpt>
<trkpt lat="53.155785" lon="-3.959239"><ele>870</ele><time>2020-08-16T12:33:06Z</time><name>PT5543</name></trkpt>
<trkpt lat="53.155821" lon="-3.959285"><ele>870</ele><time>2020-08-16T12:33:10Z</time><name>PT5544</name></trkpt>
<trkpt lat="53.155860" lon="-3.959322"><ele>870</ele><time>2020-08-16T12:33:15Z</time><name>PT5545</name></trkpt>
<trkpt lat="53.155888" lon="-3.959352"><ele>869</ele><time>2020-08-16T12:33:18Z</time><name>PT5546</name></trkpt>
<trkpt lat="53.155921" lon="-3.959392"><ele>870</ele><time>2020-08-16T12:33:21Z</time><name>PT5547</name></trkpt>
<trkpt lat="53.155950" lon="-3.959427"><ele>871</ele><time>2020-08-16T12:33:25Z</time><name>PT5548</name></trkpt>
<trkpt lat="53.155970" lon="-3.959488"><ele>873</ele><time>2020-08-16T12:33:28Z</time><name>PT5549</name></trkpt>
<trkpt lat="53.155982" lon="-3.959500"><ele>873</ele><time>2020-08-16T12:33:30Z</time><name>PT5550</name></trkpt>
<trkpt lat="53.155990" lon="-3.959513"><ele>873</ele><time>2020-08-16T12:33:30Z</time><name>PT5551</name></trkpt>
<trkpt lat="53.155997" lon="-3.959528"><ele>873</ele><time>2020-08-16T12:33:31Z</time><name>PT5552</name></trkpt>
<trkpt lat="53.156005" lon="-3.959539"><ele>874</ele><time>2020-08-16T12:33:33Z</time><name>PT5553</name></trkpt>
<trkpt lat="53.156013" lon="-3.959553"><ele>874</ele><time>2020-08-16T12:33:33Z</time><name>PT5554</name></trkpt>
<trkpt lat="53.156019" lon="-3.959569"><ele>874</ele><time>2020-08-16T12:33:34Z</time><name>PT5555</name></trkpt>
<trkpt lat="53.156025" lon="-3.959583"><ele>874</ele><time>2020-08-16T12:33:36Z</time><name>PT5556</name></trkpt>
<trkpt lat="53.156031" lon="-3.959599"><ele>874</ele><time>2020-08-16T12:33:36Z</time><name>PT5557</name></trkpt>
<trkpt lat="53.156036" lon="-3.959610"><ele>874</ele><time>2020-08-16T12:33:37Z</time><name>PT5558</name></trkpt>
<trkpt lat="53.156042" lon="-3.959622"><ele>874</ele><time>2020-08-16T12:33:39Z</time><name>PT5559</name></trkpt>
<trkpt lat="53.156052" lon="-3.959636"><ele>875</ele><time>2020-08-16T12:33:39Z</time><name>PT5560</name></trkpt>
<trkpt lat="53.156059" lon="-3.959649"><ele>875</ele><time>2020-08-16T12:33:40Z</time><name>PT5561</name></trkpt>
<trkpt lat="53.156066" lon="-3.959664"><ele>875</ele><time>2020-08-16T12:33:42Z</time><name>PT5562</name></trkpt>
<trkpt lat="53.156072" lon="-3.959675"><ele>875</ele><time>2020-08-16T12:33:42Z</time><name>PT5563</name></trkpt>
<trkpt lat="53.156077" lon="-3.959684"><ele>875</ele><time>2020-08-16T12:33:43Z</time><name>PT5564</name></trkpt>
<trkpt lat="53.156086" lon="-3.959695"><ele>876</ele><time>2020-08-16T12:33:45Z</time><name>PT5565</name></trkpt>
<trkpt lat="53.156093" lon="-3.959704"><ele>876</ele><time>2020-08-16T12:33:45Z</time><name>PT5566</name></trkpt>
<trkpt lat="53.156100" lon="-3.959709"><ele>876</ele><time>2020-08-16T12:33:46Z</time><name>PT5567</name></trkpt>
<trkpt lat="53.156108" lon="-3.959714"><ele>876</ele><time>2020-08-16T12:33:48Z</time><name>PT5568</name></trkpt>
<trkpt lat="53.156117" lon="-3.959724"><ele>876</ele><time>2020-08-16T12:33:48Z</time><name>PT5569</name></trkpt>
<trkpt lat="53.156122" lon="-3.959735"><ele>876</ele><time>2020-08-16T12:33:49Z</time><name>PT5570</name></trkpt>
<trkpt lat="53.156131" lon="-3.959742"><ele>876</ele><time>2020-08-16T12:33:51Z</time><name>PT5571</name></trkpt>
<trkpt lat="53.156141" lon="-3.959749"><ele>876</ele><time>2020-08-16T12:33:51Z</time><name>PT5572</name></trkpt>
<trkpt lat="53.156151" lon="-3.959759"><ele>876</ele><time>2020-08-16T12:33:52Z</time><name>PT5573</name></trkpt>
<trkpt lat="53.156163" lon="-3.959769"><ele>876</ele><time>2020-08-16T12:33:54Z</time><name>PT5574</name></trkpt>
<trkpt lat="53.156170" lon="-3.959780"><ele>876</ele><time>2020-08-16T12:33:54Z</time><name>PT5575</name></trkpt>
<trkpt lat="53.156177" lon="-3.959785"><ele>876</ele><time>2020-08-16T12:33:55Z</time><name>PT5576</name></trkpt>
<trkpt lat="53.156183" lon="-3.959794"><ele>877</ele><time>2020-08-16T12:33:57Z</time><name>PT5577</name></trkpt>
<trkpt lat="53.156191" lon="-3.959804"><ele>877</ele><time>2020-08-16T12:33:57Z</time><name>PT5578</name></trkpt>
<trkpt lat="53.156199" lon="-3.959812"><ele>877</ele><time>2020-08-16T12:33:58Z</time><name>PT5579</name></trkpt>
<trkpt lat="53.156206" lon="-3.959820"><ele>877</ele><time>2020-08-16T12:34:00Z</time><name>PT5580</name></trkpt>
<trkpt lat="53.156211" lon="-3.959829"><ele>877</ele><time>2020-08-16T12:34:00Z</time><name>PT5581</name></trkpt>
<trkpt lat="53.156220" lon="-3.959839"><ele>877</ele><time>2020-08-16T12:34:01Z</time><name>PT5582</name></trkpt>
<trkpt lat="53.156227" lon="-3.959849"><ele>877</ele><time>2020-08-16T12:34:03Z</time><name>PT5583</name></trkpt>
<trkpt lat="53.156235" lon="-3.959859"><ele>877</ele><time>2020-08-16T12:34:03Z</time><name>PT5584</name></trkpt>
<trkpt lat="53.156243" lon="-3.959865"><ele>877</ele><time>2020-08-16T12:34:04Z</time><name>PT5585</name></trkpt>
<trkpt lat="53.156250" lon="-3.959873"><ele>878</ele><time>2020-08-16T12:34:05Z</time><name>PT5586</name></trkpt>
<trkpt lat="53.156259" lon="-3.959883"><ele>878</ele><time>2020-08-16T12:34:06Z</time><name>PT5587</name></trkpt>
<trkpt lat="53.156265" lon="-3.959895"><ele>878</ele><time>2020-08-16T12:34:07Z</time><name>PT5588</name></trkpt>
<trkpt lat="53.156272" lon="-3.959906"><ele>878</ele><time>2020-08-16T12:34:09Z</time><name>PT5589</name></trkpt>
<trkpt lat="53.156278" lon="-3.959917"><ele>878</ele><time>2020-08-16T12:34:09Z</time><name>PT5590</name></trkpt>
<trkpt lat="53.156287" lon="-3.959927"><ele>878</ele><time>2020-08-16T12:34:10Z</time><name>PT5591</name></trkpt>
<trkpt lat="53.156292" lon="-3.959934"><ele>878</ele><time>2020-08-16T12:34:12Z</time><name>PT5592</name></trkpt>
<trkpt lat="53.156298" lon="-3.959943"><ele>878</ele><time>2020-08-16T12:34:12Z</time><name>PT5593</name></trkpt>
<trkpt lat="53.156307" lon="-3.959954"><ele>878</ele><time>2020-08-16T12:34:13Z</time><name>PT5594</name></trkpt>
<trkpt lat="53.156315" lon="-3.959960"><ele>878</ele><time>2020-08-16T12:34:15Z</time><name>PT5595</name></trkpt>
<trkpt lat="53.156323" lon="-3.959965"><ele>879</ele><time>2020-08-16T12:34:15Z</time><name>PT5596</name></trkpt>
<trkpt lat="53.156331" lon="-3.959972"><ele>878</ele><time>2020-08-16T12:34:16Z</time><name>PT5597</name></trkpt>
<trkpt lat="53.156342" lon="-3.959980"><ele>878</ele><time>2020-08-16T12:34:18Z</time><name>PT5598</name></trkpt>
<trkpt lat="53.156350" lon="-3.959989"><ele>879</ele><time>2020-08-16T12:34:18Z</time><name>PT5599</name></trkpt>
<trkpt lat="53.156355" lon="-3.960003"><ele>878</ele><time>2020-08-16T12:34:19Z</time><name>PT5600</name></trkpt>
<trkpt lat="53.156360" lon="-3.960016"><ele>878</ele><time>2020-08-16T12:34:21Z</time><name>PT5601</name></trkpt>
<trkpt lat="53.156368" lon="-3.960028"><ele>878</ele><time>2020-08-16T12:34:21Z</time><name>PT5602</name></trkpt>
<trkpt lat="53.156375" lon="-3.960038"><ele>878</ele><time>2020-08-16T12:34:22Z</time><name>PT5603</name></trkpt>
<trkpt lat="53.156383" lon="-3.960045"><ele>878</ele><time>2020-08-16T12:34:24Z</time><name>PT5604</name></trkpt>
<trkpt lat="53.156391" lon="-3.960054"><ele>878</ele><time>2020-08-16T12:34:24Z</time><name>PT5605</name></trkpt>
<trkpt lat="53.156404" lon="-3.960063"><ele>879</ele><time>2020-08-16T12:34:25Z</time><name>PT5606</name></trkpt>
<trkpt lat="53.156412" lon="-3.960072"><ele>879</ele><time>2020-08-16T12:34:27Z</time><name>PT5607</name></trkpt>
<trkpt lat="53.156421" lon="-3.960082"><ele>880</ele><time>2020-08-16T12:34:27Z</time><name>PT5608</name></trkpt>
<trkpt lat="53.156429" lon="-3.960090"><ele>880</ele><time>2020-08-16T12:34:28Z</time><name>PT5609</name></trkpt>
<trkpt lat="53.156435" lon="-3.960097"><ele>880</ele><time>2020-08-16T12:34:30Z</time><name>PT5610</name></trkpt>
<trkpt lat="53.156442" lon="-3.960106"><ele>880</ele><time>2020-08-16T12:34:30Z</time><name>PT5611</name></trkpt>
<trkpt lat="53.156449" lon="-3.960113"><ele>880</ele><time>2020-08-16T12:34:31Z</time><name>PT5612</name></trkpt>
<trkpt lat="53.156454" lon="-3.960123"><ele>880</ele><time>2020-08-16T12:34:33Z</time><name>PT5613</name></trkpt>
<trkpt lat="53.156460" lon="-3.960133"><ele>880</ele><time>2020-08-16T12:34:33Z</time><name>PT5614</name></trkpt>
<trkpt lat="53.156465" lon="-3.960142"><ele>881</ele><time>2020-08-16T12:34:34Z</time><name>PT5615</name></trkpt>
<trkpt lat="53.156472" lon="-3.960152"><ele>880</ele><time>2020-08-16T12:34:36Z</time><name>PT5616</name></trkpt>
<trkpt lat="53.156479" lon="-3.960159"><ele>880</ele><time>2020-08-16T12:34:36Z</time><name>PT5617</name></trkpt>
<trkpt lat="53.156487" lon="-3.960166"><ele>880</ele><time>2020-08-16T12:34:37Z</time><name>PT5618</name></trkpt>
<trkpt lat="53.156494" lon="-3.960173"><ele>880</ele><time>2020-08-16T12:34:39Z</time><name>PT5619</name></trkpt>
<trkpt lat="53.156501" lon="-3.960182"><ele>880</ele><time>2020-08-16T12:34:39Z</time><name>PT5620</name></trkpt>
<trkpt lat="53.156509" lon="-3.960192"><ele>881</ele><time>2020-08-16T12:34:40Z</time><name>PT5621</name></trkpt>
<trkpt lat="53.156513" lon="-3.960203"><ele>881</ele><time>2020-08-16T12:34:41Z</time><name>PT5622</name></trkpt>
<trkpt lat="53.156517" lon="-3.960214"><ele>881</ele><time>2020-08-16T12:34:42Z</time><name>PT5623</name></trkpt>
<trkpt lat="53.156523" lon="-3.960227"><ele>881</ele><time>2020-08-16T12:34:43Z</time><name>PT5624</name></trkpt>
<trkpt lat="53.156529" lon="-3.960241"><ele>881</ele><time>2020-08-16T12:34:45Z</time><name>PT5625</name></trkpt>
<trkpt lat="53.156535" lon="-3.960253"><ele>881</ele><time>2020-08-16T12:34:45Z</time><name>PT5626</name></trkpt>
<trkpt lat="53.156540" lon="-3.960264"><ele>881</ele><time>2020-08-16T12:34:46Z</time><name>PT5627</name></trkpt>
<trkpt lat="53.156548" lon="-3.960273"><ele>881</ele><time>2020-08-16T12:34:48Z</time><name>PT5628</name></trkpt>
<trkpt lat="53.156555" lon="-3.960282"><ele>881</ele><time>2020-08-16T12:34:48Z</time><name>PT5629</name></trkpt>
<trkpt lat="53.156559" lon="-3.960290"><ele>881</ele><time>2020-08-16T12:34:49Z</time><name>PT5630</name></trkpt>
<trkpt lat="53.156564" lon="-3.960298"><ele>881</ele><time>2020-08-16T12:34:51Z</time><name>PT5631</name></trkpt>
<trkpt lat="53.156572" lon="-3.960310"><ele>881</ele><time>2020-08-16T12:34:51Z</time><name>PT5632</name></trkpt>
<trkpt lat="53.156576" lon="-3.960320"><ele>881</ele><time>2020-08-16T12:34:52Z</time><name>PT5633</name></trkpt>
<trkpt lat="53.156583" lon="-3.960331"><ele>881</ele><time>2020-08-16T12:34:54Z</time><name>PT5634</name></trkpt>
<trkpt lat="53.156588" lon="-3.960340"><ele>882</ele><time>2020-08-16T12:34:54Z</time><name>PT5635</name></trkpt>
<trkpt lat="53.156594" lon="-3.960348"><ele>882</ele><time>2020-08-16T12:34:55Z</time><name>PT5636</name></trkpt>
<trkpt lat="53.156601" lon="-3.960359"><ele>883</ele><time>2020-08-16T12:34:57Z</time><name>PT5637</name></trkpt>
<trkpt lat="53.156605" lon="-3.960367"><ele>883</ele><time>2020-08-16T12:34:57Z</time><name>PT5638</name></trkpt>
<trkpt lat="53.156607" lon="-3.960377"><ele>883</ele><time>2020-08-16T12:34:58Z</time><name>PT5639</name></trkpt>
<trkpt lat="53.156612" lon="-3.960391"><ele>883</ele><time>2020-08-16T12:35:00Z</time><name>PT5640</name></trkpt>
<trkpt lat="53.156617" lon="-3.960402"><ele>883</ele><time>2020-08-16T12:35:00Z</time><name>PT5641</name></trkpt>
<trkpt lat="53.156623" lon="-3.960416"><ele>883</ele><time>2020-08-16T12:35:01Z</time><name>PT5642</name></trkpt>
<trkpt lat="53.156629" lon="-3.960424"><ele>884</ele><time>2020-08-16T12:35:03Z</time><name>PT5643</name></trkpt>
<trkpt lat="53.156635" lon="-3.960432"><ele>884</ele><time>2020-08-16T12:35:03Z</time><name>PT5644</name></trkpt>
<trkpt lat="53.156640" lon="-3.960443"><ele>884</ele><time>2020-08-16T12:35:04Z</time><name>PT5645</name></trkpt>
<trkpt lat="53.156647" lon="-3.960450"><ele>885</ele><time>2020-08-16T12:35:06Z</time><name>PT5646</name></trkpt>
<trkpt lat="53.156652" lon="-3.960453"><ele>884</ele><time>2020-08-16T12:35:06Z</time><name>PT5647</name></trkpt>
<trkpt lat="53.156658" lon="-3.960458"><ele>884</ele><time>2020-08-16T12:35:07Z</time><name>PT5648</name></trkpt>
<trkpt lat="53.156664" lon="-3.960464"><ele>885</ele><time>2020-08-16T12:35:09Z</time><name>PT5649</name></trkpt>
<trkpt lat="53.156671" lon="-3.960470"><ele>885</ele><time>2020-08-16T12:35:09Z</time><name>PT5650</name></trkpt>
<trkpt lat="53.156678" lon="-3.960474"><ele>885</ele><time>2020-08-16T12:35:10Z</time><name>PT5651</name></trkpt>
<trkpt lat="53.156687" lon="-3.960482"><ele>885</ele><time>2020-08-16T12:35:12Z</time><name>PT5652</name></trkpt>
<trkpt lat="53.156693" lon="-3.960488"><ele>885</ele><time>2020-08-16T12:35:12Z</time><name>PT5653</name></trkpt>
<trkpt lat="53.156703" lon="-3.960500"><ele>885</ele><time>2020-08-16T12:35:13Z</time><name>PT5654</name></trkpt>
<trkpt lat="53.156712" lon="-3.960510"><ele>886</ele><time>2020-08-16T12:35:14Z</time><name>PT5655</name></trkpt>
<trkpt lat="53.156719" lon="-3.960519"><ele>886</ele><time>2020-08-16T12:35:15Z</time><name>PT5656</name></trkpt>
<trkpt lat="53.156727" lon="-3.960524"><ele>886</ele><time>2020-08-16T12:35:16Z</time><name>PT5657</name></trkpt>
<trkpt lat="53.156733" lon="-3.960528"><ele>887</ele><time>2020-08-16T12:35:18Z</time><name>PT5658</name></trkpt>
<trkpt lat="53.156740" lon="-3.960536"><ele>887</ele><time>2020-08-16T12:35:18Z</time><name>PT5659</name></trkpt>
<trkpt lat="53.156747" lon="-3.960545"><ele>887</ele><time>2020-08-16T12:35:19Z</time><name>PT5660</name></trkpt>
<trkpt lat="53.156756" lon="-3.960547"><ele>886</ele><time>2020-08-16T12:35:21Z</time><name>PT5661</name></trkpt>
<trkpt lat="53.156762" lon="-3.960550"><ele>886</ele><time>2020-08-16T12:35:21Z</time><name>PT5662</name></trkpt>
<trkpt lat="53.156769" lon="-3.960559"><ele>887</ele><time>2020-08-16T12:35:22Z</time><name>PT5663</name></trkpt>
<trkpt lat="53.156778" lon="-3.960568"><ele>887</ele><time>2020-08-16T12:35:24Z</time><name>PT5664</name></trkpt>
<trkpt lat="53.156784" lon="-3.960578"><ele>886</ele><time>2020-08-16T12:35:24Z</time><name>PT5665</name></trkpt>
<trkpt lat="53.156789" lon="-3.960591"><ele>885</ele><time>2020-08-16T12:35:25Z</time><name>PT5666</name></trkpt>
<trkpt lat="53.156798" lon="-3.960608"><ele>886</ele><time>2020-08-16T12:35:27Z</time><name>PT5667</name></trkpt>
<trkpt lat="53.156804" lon="-3.960617"><ele>885</ele><time>2020-08-16T12:35:27Z</time><name>PT5668</name></trkpt>
<trkpt lat="53.156811" lon="-3.960629"><ele>886</ele><time>2020-08-16T12:35:28Z</time><name>PT5669</name></trkpt>
<trkpt lat="53.156817" lon="-3.960637"><ele>886</ele><time>2020-08-16T12:35:29Z</time><name>PT5670</name></trkpt>
<trkpt lat="53.156824" lon="-3.960648"><ele>886</ele><time>2020-08-16T12:35:30Z</time><name>PT5671</name></trkpt>
<trkpt lat="53.156830" lon="-3.960656"><ele>886</ele><time>2020-08-16T12:35:31Z</time><name>PT5672</name></trkpt>
<trkpt lat="53.156838" lon="-3.960664"><ele>886</ele><time>2020-08-16T12:35:32Z</time><name>PT5673</name></trkpt>
<trkpt lat="53.156845" lon="-3.960673"><ele>886</ele><time>2020-08-16T12:35:33Z</time><name>PT5674</name></trkpt>
<trkpt lat="53.156852" lon="-3.960686"><ele>886</ele><time>2020-08-16T12:35:34Z</time><name>PT5675</name></trkpt>
<trkpt lat="53.156861" lon="-3.960692"><ele>887</ele><time>2020-08-16T12:35:36Z</time><name>PT5676</name></trkpt>
<trkpt lat="53.156866" lon="-3.960701"><ele>887</ele><time>2020-08-16T12:35:36Z</time><name>PT5677</name></trkpt>
<trkpt lat="53.156870" lon="-3.960715"><ele>887</ele><time>2020-08-16T12:35:37Z</time><name>PT5678</name></trkpt>
<trkpt lat="53.156879" lon="-3.960727"><ele>888</ele><time>2020-08-16T12:35:38Z</time><name>PT5679</name></trkpt>
<trkpt lat="53.156885" lon="-3.960736"><ele>888</ele><time>2020-08-16T12:35:39Z</time><name>PT5680</name></trkpt>
<trkpt lat="53.156891" lon="-3.960749"><ele>888</ele><time>2020-08-16T12:35:40Z</time><name>PT5681</name></trkpt>
<trkpt lat="53.156897" lon="-3.960761"><ele>888</ele><time>2020-08-16T12:35:42Z</time><name>PT5682</name></trkpt>
<trkpt lat="53.156904" lon="-3.960769"><ele>889</ele><time>2020-08-16T12:35:42Z</time><name>PT5683</name></trkpt>
<trkpt lat="53.156910" lon="-3.960776"><ele>889</ele><time>2020-08-16T12:35:43Z</time><name>PT5684</name></trkpt>
<trkpt lat="53.156920" lon="-3.960790"><ele>889</ele><time>2020-08-16T12:35:44Z</time><name>PT5685</name></trkpt>
<trkpt lat="53.156929" lon="-3.960805"><ele>889</ele><time>2020-08-16T12:35:45Z</time><name>PT5686</name></trkpt>
<trkpt lat="53.156933" lon="-3.960816"><ele>889</ele><time>2020-08-16T12:35:46Z</time><name>PT5687</name></trkpt>
<trkpt lat="53.156938" lon="-3.960829"><ele>889</ele><time>2020-08-16T12:35:48Z</time><name>PT5688</name></trkpt>
<trkpt lat="53.156945" lon="-3.960839"><ele>890</ele><time>2020-08-16T12:35:48Z</time><name>PT5689</name></trkpt>
<trkpt lat="53.156951" lon="-3.960845"><ele>890</ele><time>2020-08-16T12:35:49Z</time><name>PT5690</name></trkpt>
<trkpt lat="53.156958" lon="-3.960850"><ele>890</ele><time>2020-08-16T12:35:51Z</time><name>PT5691</name></trkpt>
<trkpt lat="53.156962" lon="-3.960859"><ele>891</ele><time>2020-08-16T12:35:51Z</time><name>PT5692</name></trkpt>
<trkpt lat="53.156969" lon="-3.960865"><ele>891</ele><time>2020-08-16T12:35:52Z</time><name>PT5693</name></trkpt>
<trkpt lat="53.156975" lon="-3.960874"><ele>892</ele><time>2020-08-16T12:35:54Z</time><name>PT5694</name></trkpt>
<trkpt lat="53.156983" lon="-3.960884"><ele>892</ele><time>2020-08-16T12:35:54Z</time><name>PT5695</name></trkpt>
<trkpt lat="53.156990" lon="-3.960894"><ele>892</ele><time>2020-08-16T12:35:55Z</time><name>PT5696</name></trkpt>
<trkpt lat="53.156993" lon="-3.960904"><ele>892</ele><time>2020-08-16T12:35:57Z</time><name>PT5697</name></trkpt>
<trkpt lat="53.156998" lon="-3.960917"><ele>892</ele><time>2020-08-16T12:35:57Z</time><name>PT5698</name></trkpt>
<trkpt lat="53.157005" lon="-3.960927"><ele>891</ele><time>2020-08-16T12:35:58Z</time><name>PT5699</name></trkpt>
<trkpt lat="53.157012" lon="-3.960933"><ele>892</ele><time>2020-08-16T12:36:00Z</time><name>PT5700</name></trkpt>
<trkpt lat="53.157015" lon="-3.960936"><ele>892</ele><time>2020-08-16T12:36:00Z</time><name>PT5701</name></trkpt>
<trkpt lat="53.157019" lon="-3.960941"><ele>891</ele><time>2020-08-16T12:36:01Z</time><name>PT5702</name></trkpt>
<trkpt lat="53.157024" lon="-3.960950"><ele>892</ele><time>2020-08-16T12:36:03Z</time><name>PT5703</name></trkpt>
<trkpt lat="53.157027" lon="-3.960957"><ele>892</ele><time>2020-08-16T12:36:03Z</time><name>PT5704</name></trkpt>
<trkpt lat="53.157033" lon="-3.960964"><ele>892</ele><time>2020-08-16T12:36:04Z</time><name>PT5705</name></trkpt>
<trkpt lat="53.157037" lon="-3.960975"><ele>892</ele><time>2020-08-16T12:36:06Z</time><name>PT5706</name></trkpt>
<trkpt lat="53.157040" lon="-3.960984"><ele>892</ele><time>2020-08-16T12:36:06Z</time><name>PT5707</name></trkpt>
<trkpt lat="53.157045" lon="-3.960993"><ele>892</ele><time>2020-08-16T12:36:07Z</time><name>PT5708</name></trkpt>
<trkpt lat="53.157051" lon="-3.961001"><ele>892</ele><time>2020-08-16T12:36:09Z</time><name>PT5709</name></trkpt>
<trkpt lat="53.157057" lon="-3.961014"><ele>893</ele><time>2020-08-16T12:36:09Z</time><name>PT5710</name></trkpt>
<trkpt lat="53.157063" lon="-3.961025"><ele>893</ele><time>2020-08-16T12:36:10Z</time><name>PT5711</name></trkpt>
<trkpt lat="53.157072" lon="-3.961035"><ele>893</ele><time>2020-08-16T12:36:12Z</time><name>PT5712</name></trkpt>
<trkpt lat="53.157079" lon="-3.961046"><ele>893</ele><time>2020-08-16T12:36:12Z</time><name>PT5713</name></trkpt>
<trkpt lat="53.157083" lon="-3.961054"><ele>893</ele><time>2020-08-16T12:36:13Z</time><name>PT5714</name></trkpt>
<trkpt lat="53.157086" lon="-3.961060"><ele>893</ele><time>2020-08-16T12:36:15Z</time><name>PT5715</name></trkpt>
<trkpt lat="53.157088" lon="-3.961068"><ele>893</ele><time>2020-08-16T12:36:15Z</time><name>PT5716</name></trkpt>
<trkpt lat="53.157093" lon="-3.961078"><ele>893</ele><time>2020-08-16T12:36:16Z</time><name>PT5717</name></trkpt>
<trkpt lat="53.157099" lon="-3.961089"><ele>894</ele><time>2020-08-16T12:36:18Z</time><name>PT5718</name></trkpt>
<trkpt lat="53.157107" lon="-3.961098"><ele>894</ele><time>2020-08-16T12:36:18Z</time><name>PT5719</name></trkpt>
<trkpt lat="53.157112" lon="-3.961110"><ele>894</ele><time>2020-08-16T12:36:19Z</time><name>PT5720</name></trkpt>
<trkpt lat="53.157118" lon="-3.961119"><ele>894</ele><time>2020-08-16T12:36:21Z</time><name>PT5721</name></trkpt>
<trkpt lat="53.157123" lon="-3.961130"><ele>894</ele><time>2020-08-16T12:36:21Z</time><name>PT5722</name></trkpt>
<trkpt lat="53.157129" lon="-3.961137"><ele>894</ele><time>2020-08-16T12:36:22Z</time><name>PT5723</name></trkpt>
<trkpt lat="53.157135" lon="-3.961147"><ele>894</ele><time>2020-08-16T12:36:24Z</time><name>PT5724</name></trkpt>
<trkpt lat="53.157140" lon="-3.961157"><ele>895</ele><time>2020-08-16T12:36:24Z</time><name>PT5725</name></trkpt>
<trkpt lat="53.157147" lon="-3.961166"><ele>895</ele><time>2020-08-16T12:36:25Z</time><name>PT5726</name></trkpt>
<trkpt lat="53.157153" lon="-3.961173"><ele>895</ele><time>2020-08-16T12:36:27Z</time><name>PT5727</name></trkpt>
<trkpt lat="53.157156" lon="-3.961180"><ele>894</ele><time>2020-08-16T12:36:27Z</time><name>PT5728</name></trkpt>
<trkpt lat="53.157175" lon="-3.961234"><ele>895</ele><time>2020-08-16T12:36:31Z</time><name>PT5729</name></trkpt>
<trkpt lat="53.157191" lon="-3.961290"><ele>896</ele><time>2020-08-16T12:36:36Z</time><name>PT5730</name></trkpt>
<trkpt lat="53.157211" lon="-3.961340"><ele>897</ele><time>2020-08-16T12:36:39Z</time><name>PT5731</name></trkpt>
<trkpt lat="53.157229" lon="-3.961373"><ele>897</ele><time>2020-08-16T12:36:42Z</time><name>PT5732</name></trkpt>
<trkpt lat="53.157254" lon="-3.961420"><ele>897</ele><time>2020-08-16T12:36:46Z</time><name>PT5733</name></trkpt>
<trkpt lat="53.157274" lon="-3.961460"><ele>897</ele><time>2020-08-16T12:36:49Z</time><name>PT5734</name></trkpt>
<trkpt lat="53.157303" lon="-3.961509"><ele>897</ele><time>2020-08-16T12:36:54Z</time><name>PT5735</name></trkpt>
<trkpt lat="53.157321" lon="-3.961561"><ele>897</ele><time>2020-08-16T12:36:57Z</time><name>PT5736</name></trkpt>
<trkpt lat="53.157337" lon="-3.961596"><ele>898</ele><time>2020-08-16T12:37:00Z</time><name>PT5737</name></trkpt>
<trkpt lat="53.157361" lon="-3.961637"><ele>900</ele><time>2020-08-16T12:37:04Z</time><name>PT5738</name></trkpt>
<trkpt lat="53.157380" lon="-3.961675"><ele>901</ele><time>2020-08-16T12:37:07Z</time><name>PT5739</name></trkpt>
<trkpt lat="53.157399" lon="-3.961702"><ele>901</ele><time>2020-08-16T12:37:10Z</time><name>PT5740</name></trkpt>
<trkpt lat="53.157424" lon="-3.961733"><ele>901</ele><time>2020-08-16T12:37:14Z</time><name>PT5741</name></trkpt>
<trkpt lat="53.157440" lon="-3.961765"><ele>901</ele><time>2020-08-16T12:37:18Z</time><name>PT5742</name></trkpt>
<trkpt lat="53.157458" lon="-3.961795"><ele>902</ele><time>2020-08-16T12:37:21Z</time><name>PT5743</name></trkpt>
<trkpt lat="53.157469" lon="-3.961815"><ele>902</ele><time>2020-08-16T12:37:24Z</time><name>PT5744</name></trkpt>
<trkpt lat="53.157493" lon="-3.961849"><ele>902</ele><time>2020-08-16T12:37:27Z</time><name>PT5745</name></trkpt>
<trkpt lat="53.157506" lon="-3.961880"><ele>902</ele><time>2020-08-16T12:37:30Z</time><name>PT5746</name></trkpt>
<trkpt lat="53.157526" lon="-3.961914"><ele>902</ele><time>2020-08-16T12:37:34Z</time><name>PT5747</name></trkpt>
<trkpt lat="53.157549" lon="-3.961946"><ele>902</ele><time>2020-08-16T12:37:39Z</time><name>PT5748</name></trkpt>
<trkpt lat="53.157566" lon="-3.961968"><ele>903</ele><time>2020-08-16T12:37:42Z</time><name>PT5749</name></trkpt>
<trkpt lat="53.157584" lon="-3.961996"><ele>904</ele><time>2020-08-16T12:37:45Z</time><name>PT5750</name></trkpt>
<trkpt lat="53.157602" lon="-3.962029"><ele>904</ele><time>2020-08-16T12:37:48Z</time><name>PT5751</name></trkpt>
<trkpt lat="53.157615" lon="-3.962061"><ele>904</ele><time>2020-08-16T12:37:51Z</time><name>PT5752</name></trkpt>
<trkpt lat="53.157630" lon="-3.962098"><ele>904</ele><time>2020-08-16T12:37:54Z</time><name>PT5753</name></trkpt>
<trkpt lat="53.157652" lon="-3.962151"><ele>903</ele><time>2020-08-16T12:37:58Z</time><name>PT5754</name></trkpt>
<trkpt lat="53.157672" lon="-3.962187"><ele>903</ele><time>2020-08-16T12:38:01Z</time><name>PT5755</name></trkpt>
<trkpt lat="53.157696" lon="-3.962233"><ele>903</ele><time>2020-08-16T12:38:06Z</time><name>PT5756</name></trkpt>
<trkpt lat="53.157712" lon="-3.962277"><ele>904</ele><time>2020-08-16T12:38:09Z</time><name>PT5757</name></trkpt>
<trkpt lat="53.157742" lon="-3.962310"><ele>904</ele><time>2020-08-16T12:38:12Z</time><name>PT5758</name></trkpt>
<trkpt lat="53.157761" lon="-3.962339"><ele>905</ele><time>2020-08-16T12:38:15Z</time><name>PT5759</name></trkpt>
<trkpt lat="53.157793" lon="-3.962371"><ele>905</ele><time>2020-08-16T12:38:19Z</time><name>PT5760</name></trkpt>
<trkpt lat="53.157815" lon="-3.962397"><ele>906</ele><time>2020-08-16T12:38:22Z</time><name>PT5761</name></trkpt>
<trkpt lat="53.157834" lon="-3.962431"><ele>906</ele><time>2020-08-16T12:38:27Z</time><name>PT5762</name></trkpt>
<trkpt lat="53.157863" lon="-3.962456"><ele>906</ele><time>2020-08-16T12:38:30Z</time><name>PT5763</name></trkpt>
<trkpt lat="53.157885" lon="-3.962485"><ele>908</ele><time>2020-08-16T12:38:33Z</time><name>PT5764</name></trkpt>
<trkpt lat="53.157910" lon="-3.962530"><ele>908</ele><time>2020-08-16T12:38:37Z</time><name>PT5765</name></trkpt>
<trkpt lat="53.157927" lon="-3.962566"><ele>909</ele><time>2020-08-16T12:38:40Z</time><name>PT5766</name></trkpt>
<trkpt lat="53.157941" lon="-3.962601"><ele>909</ele><time>2020-08-16T12:38:43Z</time><name>PT5767</name></trkpt>
<trkpt lat="53.157968" lon="-3.962650"><ele>909</ele><time>2020-08-16T12:38:48Z</time><name>PT5768</name></trkpt>
<trkpt lat="53.158000" lon="-3.962695"><ele>910</ele><time>2020-08-16T12:38:51Z</time><name>PT5769</name></trkpt>
<trkpt lat="53.158025" lon="-3.962745"><ele>909</ele><time>2020-08-16T12:38:55Z</time><name>PT5770</name></trkpt>
<trkpt lat="53.158045" lon="-3.962773"><ele>909</ele><time>2020-08-16T12:38:58Z</time><name>PT5771</name></trkpt>
<trkpt lat="53.158065" lon="-3.962793"><ele>909</ele><time>2020-08-16T12:39:01Z</time><name>PT5772</name></trkpt>
<trkpt lat="53.158090" lon="-3.962828"><ele>909</ele><time>2020-08-16T12:39:06Z</time><name>PT5773</name></trkpt>
<trkpt lat="53.158116" lon="-3.962860"><ele>910</ele><time>2020-08-16T12:39:09Z</time><name>PT5774</name></trkpt>
<trkpt lat="53.158144" lon="-3.962889"><ele>911</ele><time>2020-08-16T12:39:12Z</time><name>PT5775</name></trkpt>
<trkpt lat="53.158175" lon="-3.962923"><ele>912</ele><time>2020-08-16T12:39:16Z</time><name>PT5776</name></trkpt>
<trkpt lat="53.158193" lon="-3.962954"><ele>913</ele><time>2020-08-16T12:39:19Z</time><name>PT5777</name></trkpt>
<trkpt lat="53.158206" lon="-3.962981"><ele>913</ele><time>2020-08-16T12:39:22Z</time><name>PT5778</name></trkpt>
<trkpt lat="53.158221" lon="-3.963011"><ele>913</ele><time>2020-08-16T12:39:25Z</time><name>PT5779</name></trkpt>
<trkpt lat="53.158234" lon="-3.963040"><ele>913</ele><time>2020-08-16T12:39:30Z</time><name>PT5780</name></trkpt>
<trkpt lat="53.158248" lon="-3.963074"><ele>914</ele><time>2020-08-16T12:39:33Z</time><name>PT5781</name></trkpt>
<trkpt lat="53.158262" lon="-3.963091"><ele>914</ele><time>2020-08-16T12:39:36Z</time><name>PT5782</name></trkpt>
<trkpt lat="53.158280" lon="-3.963118"><ele>915</ele><time>2020-08-16T12:39:41Z</time><name>PT5783</name></trkpt>
<trkpt lat="53.158301" lon="-3.963138"><ele>917</ele><time>2020-08-16T12:39:44Z</time><name>PT5784</name></trkpt>
<trkpt lat="53.158312" lon="-3.963173"><ele>917</ele><time>2020-08-16T12:39:48Z</time><name>PT5785</name></trkpt>
<trkpt lat="53.158328" lon="-3.963191"><ele>918</ele><time>2020-08-16T12:39:51Z</time><name>PT5786</name></trkpt>
<trkpt lat="53.158343" lon="-3.963225"><ele>919</ele><time>2020-08-16T12:39:55Z</time><name>PT5787</name></trkpt>
<trkpt lat="53.158359" lon="-3.963259"><ele>919</ele><time>2020-08-16T12:39:59Z</time><name>PT5788</name></trkpt>
<trkpt lat="53.158377" lon="-3.963287"><ele>920</ele><time>2020-08-16T12:40:02Z</time><name>PT5789</name></trkpt>
<trkpt lat="53.158400" lon="-3.963326"><ele>921</ele><time>2020-08-16T12:40:06Z</time><name>PT5790</name></trkpt>
<trkpt lat="53.158416" lon="-3.963356"><ele>922</ele><time>2020-08-16T12:40:09Z</time><name>PT5791</name></trkpt>
<trkpt lat="53.158432" lon="-3.963385"><ele>923</ele><time>2020-08-16T12:40:12Z</time><name>PT5792</name></trkpt>
<trkpt lat="53.158452" lon="-3.963411"><ele>923</ele><time>2020-08-16T12:40:17Z</time><name>PT5793</name></trkpt>
<trkpt lat="53.158480" lon="-3.963445"><ele>923</ele><time>2020-08-16T12:40:20Z</time><name>PT5794</name></trkpt>
<trkpt lat="53.158507" lon="-3.963484"><ele>923</ele><time>2020-08-16T12:40:24Z</time><name>PT5795</name></trkpt>
<trkpt lat="53.158524" lon="-3.963534"><ele>924</ele><time>2020-08-16T12:40:29Z</time><name>PT5796</name></trkpt>
<trkpt lat="53.158542" lon="-3.963571"><ele>925</ele><time>2020-08-16T12:40:32Z</time><name>PT5797</name></trkpt>
<trkpt lat="53.158559" lon="-3.963601"><ele>925</ele><time>2020-08-16T12:40:35Z</time><name>PT5798</name></trkpt>
<trkpt lat="53.158576" lon="-3.963634"><ele>926</ele><time>2020-08-16T12:40:39Z</time><name>PT5799</name></trkpt>
<trkpt lat="53.158586" lon="-3.963659"><ele>926</ele><time>2020-08-16T12:40:42Z</time><name>PT5800</name></trkpt>
<trkpt lat="53.158599" lon="-3.963679"><ele>927</ele><time>2020-08-16T12:40:45Z</time><name>PT5801</name></trkpt>
<trkpt lat="53.158615" lon="-3.963703"><ele>927</ele><time>2020-08-16T12:40:50Z</time><name>PT5802</name></trkpt>
<trkpt lat="53.158620" lon="-3.963732"><ele>928</ele><time>2020-08-16T12:40:53Z</time><name>PT5803</name></trkpt>
<trkpt lat="53.158604" lon="-3.963768"><ele>928</ele><time>2020-08-16T12:40:57Z</time><name>PT5804</name></trkpt>
<trkpt lat="53.158585" lon="-3.963793"><ele>929</ele><time>2020-08-16T12:41:00Z</time><name>PT5805</name></trkpt>
<trkpt lat="53.158562" lon="-3.963822"><ele>928</ele><time>2020-08-16T12:41:05Z</time><name>PT5806</name></trkpt>
<trkpt lat="53.158563" lon="-3.963853"><ele>928</ele><time>2020-08-16T12:41:08Z</time><name>PT5807</name></trkpt>
<trkpt lat="53.158571" lon="-3.963892"><ele>930</ele><time>2020-08-16T12:41:11Z</time><name>PT5808</name></trkpt>
<trkpt lat="53.158583" lon="-3.963917"><ele>930</ele><time>2020-08-16T12:41:14Z</time><name>PT5809</name></trkpt>
<trkpt lat="53.158606" lon="-3.963957"><ele>931</ele><time>2020-08-16T12:41:18Z</time><name>PT5810</name></trkpt>
<trkpt lat="53.158621" lon="-3.963992"><ele>931</ele><time>2020-08-16T12:41:21Z</time><name>PT5811</name></trkpt>
<trkpt lat="53.158630" lon="-3.964024"><ele>931</ele><time>2020-08-16T12:41:24Z</time><name>PT5812</name></trkpt>
<trkpt lat="53.158654" lon="-3.964052"><ele>933</ele><time>2020-08-16T12:41:29Z</time><name>PT5813</name></trkpt>
<trkpt lat="53.158665" lon="-3.964076"><ele>933</ele><time>2020-08-16T12:41:32Z</time><name>PT5814</name></trkpt>
<trkpt lat="53.158666" lon="-3.964126"><ele>934</ele><time>2020-08-16T12:41:35Z</time><name>PT5815</name></trkpt>
<trkpt lat="53.158673" lon="-3.964157"><ele>934</ele><time>2020-08-16T12:41:38Z</time><name>PT5816</name></trkpt>
<trkpt lat="53.158678" lon="-3.964197"><ele>934</ele><time>2020-08-16T12:41:41Z</time><name>PT5817</name></trkpt>
<trkpt lat="53.158687" lon="-3.964255"><ele>935</ele><time>2020-08-16T12:41:45Z</time><name>PT5818</name></trkpt>
<trkpt lat="53.158705" lon="-3.964309"><ele>935</ele><time>2020-08-16T12:41:49Z</time><name>PT5819</name></trkpt>
<trkpt lat="53.158725" lon="-3.964353"><ele>936</ele><time>2020-08-16T12:41:53Z</time><name>PT5820</name></trkpt>
<trkpt lat="53.158737" lon="-3.964400"><ele>936</ele><time>2020-08-16T12:41:57Z</time><name>PT5821</name></trkpt>
<trkpt lat="53.158755" lon="-3.964437"><ele>937</ele><time>2020-08-16T12:42:01Z</time><name>PT5822</name></trkpt>
<trkpt lat="53.158766" lon="-3.964477"><ele>937</ele><time>2020-08-16T12:42:05Z</time><name>PT5823</name></trkpt>
<trkpt lat="53.158785" lon="-3.964515"><ele>937</ele><time>2020-08-16T12:42:08Z</time><name>PT5824</name></trkpt>
<trkpt lat="53.158797" lon="-3.964566"><ele>938</ele><time>2020-08-16T12:42:12Z</time><name>PT5825</name></trkpt>
<trkpt lat="53.158808" lon="-3.964616"><ele>940</ele><time>2020-08-16T12:42:16Z</time><name>PT5826</name></trkpt>
<trkpt lat="53.158824" lon="-3.964656"><ele>941</ele><time>2020-08-16T12:42:20Z</time><name>PT5827</name></trkpt>
<trkpt lat="53.158847" lon="-3.964698"><ele>941</ele><time>2020-08-16T12:42:23Z</time><name>PT5828</name></trkpt>
<trkpt lat="53.158863" lon="-3.964739"><ele>942</ele><time>2020-08-16T12:42:27Z</time><name>PT5829</name></trkpt>
<trkpt lat="53.158878" lon="-3.964765"><ele>942</ele><time>2020-08-16T12:42:30Z</time><name>PT5830</name></trkpt>
<trkpt lat="53.158892" lon="-3.964794"><ele>942</ele><time>2020-08-16T12:42:33Z</time><name>PT5831</name></trkpt>
<trkpt lat="53.158909" lon="-3.964829"><ele>943</ele><time>2020-08-16T12:42:38Z</time><name>PT5832</name></trkpt>
<trkpt lat="53.158923" lon="-3.964854"><ele>944</ele><time>2020-08-16T12:42:41Z</time><name>PT5833</name></trkpt>
<trkpt lat="53.158943" lon="-3.964888"><ele>945</ele><time>2020-08-16T12:42:44Z</time><name>PT5834</name></trkpt>
<trkpt lat="53.158961" lon="-3.964924"><ele>945</ele><time>2020-08-16T12:42:48Z</time><name>PT5835</name></trkpt>
<trkpt lat="53.158975" lon="-3.964949"><ele>946</ele><time>2020-08-16T12:42:51Z</time><name>PT5836</name></trkpt>
<trkpt lat="53.158991" lon="-3.964972"><ele>947</ele><time>2020-08-16T12:42:55Z</time><name>PT5837</name></trkpt>
<trkpt lat="53.159008" lon="-3.964993"><ele>947</ele><time>2020-08-16T12:42:59Z</time><name>PT5838</name></trkpt>
<trkpt lat="53.159020" lon="-3.965026"><ele>949</ele><time>2020-08-16T12:43:03Z</time><name>PT5839</name></trkpt>
<trkpt lat="53.159027" lon="-3.965051"><ele>949</ele><time>2020-08-16T12:43:06Z</time><name>PT5840</name></trkpt>
<trkpt lat="53.159038" lon="-3.965072"><ele>950</ele><time>2020-08-16T12:43:09Z</time><name>PT5841</name></trkpt>
<trkpt lat="53.159052" lon="-3.965090"><ele>952</ele><time>2020-08-16T12:43:12Z</time><name>PT5842</name></trkpt>
<trkpt lat="53.159060" lon="-3.965115"><ele>952</ele><time>2020-08-16T12:43:17Z</time><name>PT5843</name></trkpt>
<trkpt lat="53.159066" lon="-3.965121"><ele>953</ele><time>2020-08-16T12:43:20Z</time><name>PT5844</name></trkpt>
<trkpt lat="53.159091" lon="-3.965133"><ele>954</ele><time>2020-08-16T12:43:27Z</time><name>PT5845</name></trkpt>
<trkpt lat="53.159117" lon="-3.965147"><ele>956</ele><time>2020-08-16T12:43:32Z</time><name>PT5846</name></trkpt>
<trkpt lat="53.159144" lon="-3.965179"><ele>956</ele><time>2020-08-16T12:43:35Z</time><name>PT5847</name></trkpt>
<trkpt lat="53.159159" lon="-3.965186"><ele>956</ele><time>2020-08-16T12:43:39Z</time><name>PT5848</name></trkpt>
<trkpt lat="53.159172" lon="-3.965204"><ele>956</ele><time>2020-08-16T12:43:47Z</time><name>PT5849</name></trkpt>
<trkpt lat="53.159186" lon="-3.965201"><ele>956</ele><time>2020-08-16T12:44:08Z</time><name>PT5850</name></trkpt>
<trkpt lat="53.159188" lon="-3.965201"><ele>956</ele><time>2020-08-16T12:44:11Z</time><name>PT5851</name></trkpt>
<trkpt lat="53.159211" lon="-3.965193"><ele>957</ele><time>2020-08-16T12:44:15Z</time><name>PT5852</name></trkpt>
<trkpt lat="53.159233" lon="-3.965184"><ele>958</ele><time>2020-08-16T12:44:20Z</time><name>PT5853</name></trkpt>
<trkpt lat="53.159259" lon="-3.965164"><ele>959</ele><time>2020-08-16T12:44:23Z</time><name>PT5854</name></trkpt>
<trkpt lat="53.159270" lon="-3.965147"><ele>959</ele><time>2020-08-16T12:44:26Z</time><name>PT5855</name></trkpt>
<trkpt lat="53.159278" lon="-3.965135"><ele>960</ele><time>2020-08-16T12:44:29Z</time><name>PT5856</name></trkpt>
<trkpt lat="53.159279" lon="-3.965132"><ele>960</ele><time>2020-08-16T12:44:32Z</time><name>PT5857</name></trkpt>
<trkpt lat="53.159288" lon="-3.965127"><ele>960</ele><time>2020-08-16T12:44:39Z</time><name>PT5858</name></trkpt>
<trkpt lat="53.159292" lon="-3.965135"><ele>960</ele><time>2020-08-16T12:44:44Z</time><name>PT5859</name></trkpt>
<trkpt lat="53.159294" lon="-3.965128"><ele>960</ele><time>2020-08-16T12:45:11Z</time><name>PT5860</name></trkpt>
<trkpt lat="53.159296" lon="-3.965131"><ele>960</ele><time>2020-08-16T12:45:14Z</time><name>PT5861</name></trkpt>
<trkpt lat="53.159297" lon="-3.965131"><ele>960</ele><time>2020-08-16T12:45:32Z</time><name>PT5862</name></trkpt>
<trkpt lat="53.159309" lon="-3.965108"><ele>959</ele><time>2020-08-16T12:45:35Z</time><name>PT5863</name></trkpt>
<trkpt lat="53.159313" lon="-3.965102"><ele>958</ele><time>2020-08-16T12:45:36Z</time><name>PT5864</name></trkpt>
<trkpt lat="53.159311" lon="-3.965103"><ele>958</ele><time>2020-08-16T12:46:53Z</time><name>PT5865</name></trkpt>
<trkpt lat="53.159310" lon="-3.965103"><ele>958</ele><time>2020-08-16T12:46:53Z</time><name>PT5866</name></trkpt>
<trkpt lat="53.159306" lon="-3.965098"><ele>958</ele><time>2020-08-16T12:46:54Z</time><name>PT5867</name></trkpt>
<trkpt lat="53.159303" lon="-3.965099"><ele>959</ele><time>2020-08-16T12:46:56Z</time><name>PT5868</name></trkpt>
<trkpt lat="53.159300" lon="-3.965099"><ele>959</ele><time>2020-08-16T12:46:56Z</time><name>PT5869</name></trkpt>
<trkpt lat="53.159298" lon="-3.965100"><ele>959</ele><time>2020-08-16T12:46:57Z</time><name>PT5870</name></trkpt>
<trkpt lat="53.159298" lon="-3.965101"><ele>959</ele><time>2020-08-16T12:46:59Z</time><name>PT5871</name></trkpt>
<trkpt lat="53.159298" lon="-3.965100"><ele>959</ele><time>2020-08-16T12:46:59Z</time><name>PT5872</name></trkpt>
<trkpt lat="53.159301" lon="-3.965099"><ele>959</ele><time>2020-08-16T12:47:00Z</time><name>PT5873</name></trkpt>
<trkpt lat="53.159300" lon="-3.965100"><ele>960</ele><time>2020-08-16T12:47:02Z</time><name>PT5874</name></trkpt>
<trkpt lat="53.159316" lon="-3.965101"><ele>958</ele><time>2020-08-16T12:54:32Z</time><name>PT5875</name></trkpt>
<trkpt lat="53.159317" lon="-3.965100"><ele>958</ele><time>2020-08-16T12:54:33Z</time><name>PT5876</name></trkpt>
<trkpt lat="53.159315" lon="-3.965105"><ele>958</ele><time>2020-08-16T12:54:51Z</time><name>PT5877</name></trkpt>
<trkpt lat="53.159315" lon="-3.965106"><ele>958</ele><time>2020-08-16T12:54:52Z</time><name>PT5878</name></trkpt>
<trkpt lat="53.159316" lon="-3.965106"><ele>958</ele><time>2020-08-16T12:54:53Z</time><name>PT5879</name></trkpt>
<trkpt lat="53.159316" lon="-3.965105"><ele>959</ele><time>2020-08-16T12:54:54Z</time><name>PT5880</name></trkpt>
<trkpt lat="53.159315" lon="-3.965107"><ele>959</ele><time>2020-08-16T12:55:06Z</time><name>PT5881</name></trkpt>
<trkpt lat="53.159315" lon="-3.965109"><ele>959</ele><time>2020-08-16T12:55:08Z</time><name>PT5882</name></trkpt>
<trkpt lat="53.159316" lon="-3.965113"><ele>958</ele><time>2020-08-16T12:57:39Z</time><name>PT5883</name></trkpt>
<trkpt lat="53.159317" lon="-3.965117"><ele>958</ele><time>2020-08-16T12:57:42Z</time><name>PT5884</name></trkpt>
<trkpt lat="53.159316" lon="-3.965126"><ele>958</ele><time>2020-08-16T12:57:50Z</time><name>PT5885</name></trkpt>
<trkpt lat="53.159307" lon="-3.965123"><ele>958</ele><time>2020-08-16T12:57:54Z</time><name>PT5886</name></trkpt>
<trkpt lat="53.159309" lon="-3.965104"><ele>959</ele><time>2020-08-16T12:57:57Z</time><name>PT5887</name></trkpt>
<trkpt lat="53.159313" lon="-3.965103"><ele>959</ele><time>2020-08-16T12:58:01Z</time><name>PT5888</name></trkpt>
<trkpt lat="53.159313" lon="-3.965085"><ele>959</ele><time>2020-08-16T12:58:09Z</time><name>PT5889</name></trkpt>
<trkpt lat="53.159310" lon="-3.965074"><ele>958</ele><time>2020-08-16T12:58:12Z</time><name>PT5890</name></trkpt>
<trkpt lat="53.159309" lon="-3.965068"><ele>958</ele><time>2020-08-16T12:58:17Z</time><name>PT5891</name></trkpt>
<trkpt lat="53.159310" lon="-3.965064"><ele>957</ele><time>2020-08-16T12:58:41Z</time><name>PT5892</name></trkpt>
<trkpt lat="53.159312" lon="-3.965078"><ele>958</ele><time>2020-08-16T12:59:17Z</time><name>PT5893</name></trkpt>
<trkpt lat="53.159309" lon="-3.965094"><ele>957</ele><time>2020-08-16T12:59:21Z</time><name>PT5894</name></trkpt>
<trkpt lat="53.159301" lon="-3.965122"><ele>957</ele><time>2020-08-16T12:59:24Z</time><name>PT5895</name></trkpt>
<trkpt lat="53.159299" lon="-3.965143"><ele>958</ele><time>2020-08-16T12:59:27Z</time><name>PT5896</name></trkpt>
<trkpt lat="53.159283" lon="-3.965159"><ele>958</ele><time>2020-08-16T12:59:54Z</time><name>PT5897</name></trkpt>
<trkpt lat="53.159283" lon="-3.965171"><ele>958</ele><time>2020-08-16T12:59:58Z</time><name>PT5898</name></trkpt>
<trkpt lat="53.159282" lon="-3.965171"><ele>958</ele><time>2020-08-16T13:00:01Z</time><name>PT5899</name></trkpt>
<trkpt lat="53.159272" lon="-3.965190"><ele>958</ele><time>2020-08-16T13:00:04Z</time><name>PT5900</name></trkpt>
<trkpt lat="53.159256" lon="-3.965222"><ele>958</ele><time>2020-08-16T13:00:08Z</time><name>PT5901</name></trkpt>
<trkpt lat="53.159251" lon="-3.965259"><ele>959</ele><time>2020-08-16T13:00:11Z</time><name>PT5902</name></trkpt>
<trkpt lat="53.159245" lon="-3.965292"><ele>959</ele><time>2020-08-16T13:00:14Z</time><name>PT5903</name></trkpt>
<trkpt lat="53.159242" lon="-3.965328"><ele>961</ele><time>2020-08-16T13:00:18Z</time><name>PT5904</name></trkpt>
<trkpt lat="53.159246" lon="-3.965364"><ele>962</ele><time>2020-08-16T13:00:21Z</time><name>PT5905</name></trkpt>
<trkpt lat="53.159254" lon="-3.965397"><ele>963</ele><time>2020-08-16T13:00:25Z</time><name>PT5906</name></trkpt>
<trkpt lat="53.159287" lon="-3.965482"><ele>964</ele><time>2020-08-16T13:00:44Z</time><name>PT5907</name></trkpt>
<trkpt lat="53.159291" lon="-3.965525"><ele>964</ele><time>2020-08-16T13:00:48Z</time><name>PT5908</name></trkpt>
<trkpt lat="53.159302" lon="-3.965537"><ele>965</ele><time>2020-08-16T13:00:51Z</time><name>PT5909</name></trkpt>
<trkpt lat="53.159311" lon="-3.965540"><ele>966</ele><time>2020-08-16T13:00:55Z</time><name>PT5910</name></trkpt>
<trkpt lat="53.159326" lon="-3.965546"><ele>967</ele><time>2020-08-16T13:01:02Z</time><name>PT5911</name></trkpt>
<trkpt lat="53.159340" lon="-3.965575"><ele>968</ele><time>2020-08-16T13:01:05Z</time><name>PT5912</name></trkpt>
<trkpt lat="53.159339" lon="-3.965603"><ele>969</ele><time>2020-08-16T13:01:09Z</time><name>PT5913</name></trkpt>
<trkpt lat="53.159359" lon="-3.965634"><ele>970</ele><time>2020-08-16T13:01:12Z</time><name>PT5914</name></trkpt>
<trkpt lat="53.159358" lon="-3.965659"><ele>970</ele><time>2020-08-16T13:01:16Z</time><name>PT5915</name></trkpt>
<trkpt lat="53.159361" lon="-3.965697"><ele>971</ele><time>2020-08-16T13:01:20Z</time><name>PT5916</name></trkpt>
<trkpt lat="53.159364" lon="-3.965695"><ele>971</ele><time>2020-08-16T13:01:31Z</time><name>PT5917</name></trkpt>
<trkpt lat="53.159374" lon="-3.965732"><ele>971</ele><time>2020-08-16T13:01:34Z</time><name>PT5918</name></trkpt>
<trkpt lat="53.159380" lon="-3.965768"><ele>972</ele><time>2020-08-16T13:01:38Z</time><name>PT5919</name></trkpt>
<trkpt lat="53.159373" lon="-3.965780"><ele>973</ele><time>2020-08-16T13:01:41Z</time><name>PT5920</name></trkpt>
<trkpt lat="53.159372" lon="-3.965797"><ele>974</ele><time>2020-08-16T13:01:45Z</time><name>PT5921</name></trkpt>
<trkpt lat="53.159376" lon="-3.965817"><ele>974</ele><time>2020-08-16T13:01:48Z</time><name>PT5922</name></trkpt>
<trkpt lat="53.159367" lon="-3.965830"><ele>974</ele><time>2020-08-16T13:01:51Z</time><name>PT5923</name></trkpt>
<trkpt lat="53.159359" lon="-3.965847"><ele>975</ele><time>2020-08-16T13:01:54Z</time><name>PT5924</name></trkpt>
<trkpt lat="53.159354" lon="-3.965869"><ele>976</ele><time>2020-08-16T13:01:58Z</time><name>PT5925</name></trkpt>
<trkpt lat="53.159347" lon="-3.965876"><ele>977</ele><time>2020-08-16T13:02:02Z</time><name>PT5926</name></trkpt>
<trkpt lat="53.159334" lon="-3.965902"><ele>976</ele><time>2020-08-16T13:02:06Z</time><name>PT5927</name></trkpt>
<trkpt lat="53.159334" lon="-3.965910"><ele>977</ele><time>2020-08-16T13:02:09Z</time><name>PT5928</name></trkpt>
<trkpt lat="53.159323" lon="-3.965935"><ele>978</ele><time>2020-08-16T13:02:12Z</time><name>PT5929</name></trkpt>
<trkpt lat="53.159323" lon="-3.965955"><ele>978</ele><time>2020-08-16T13:02:15Z</time><name>PT5930</name></trkpt>
<trkpt lat="53.159327" lon="-3.965990"><ele>978</ele><time>2020-08-16T13:02:19Z</time><name>PT5931</name></trkpt>
<trkpt lat="53.159341" lon="-3.966015"><ele>979</ele><time>2020-08-16T13:02:23Z</time><name>PT5932</name></trkpt>
<trkpt lat="53.159341" lon="-3.966033"><ele>980</ele><time>2020-08-16T13:02:27Z</time><name>PT5933</name></trkpt>
<trkpt lat="53.159338" lon="-3.966045"><ele>981</ele><time>2020-08-16T13:02:30Z</time><name>PT5934</name></trkpt>
<trkpt lat="53.159332" lon="-3.966066"><ele>982</ele><time>2020-08-16T13:02:37Z</time><name>PT5935</name></trkpt>
<trkpt lat="53.159324" lon="-3.966092"><ele>982</ele><time>2020-08-16T13:02:41Z</time><name>PT5936</name></trkpt>
<trkpt lat="53.159311" lon="-3.966127"><ele>983</ele><time>2020-08-16T13:02:45Z</time><name>PT5937</name></trkpt>
<trkpt lat="53.159306" lon="-3.966155"><ele>981</ele><time>2020-08-16T13:02:49Z</time><name>PT5938</name></trkpt>
<trkpt lat="53.159293" lon="-3.966189"><ele>982</ele><time>2020-08-16T13:02:53Z</time><name>PT5939</name></trkpt>
<trkpt lat="53.159291" lon="-3.966208"><ele>982</ele><time>2020-08-16T13:02:57Z</time><name>PT5940</name></trkpt>
<trkpt lat="53.159284" lon="-3.966243"><ele>983</ele><time>2020-08-16T13:03:01Z</time><name>PT5941</name></trkpt>
<trkpt lat="53.159276" lon="-3.966269"><ele>983</ele><time>2020-08-16T13:03:05Z</time><name>PT5942</name></trkpt>
<trkpt lat="53.159276" lon="-3.966281"><ele>982</ele><time>2020-08-16T13:03:08Z</time><name>PT5943</name></trkpt>
<trkpt lat="53.159282" lon="-3.966302"><ele>982</ele><time>2020-08-16T13:03:12Z</time><name>PT5944</name></trkpt>
<trkpt lat="53.159283" lon="-3.966322"><ele>983</ele><time>2020-08-16T13:03:15Z</time><name>PT5945</name></trkpt>
<trkpt lat="53.159283" lon="-3.966325"><ele>983</ele><time>2020-08-16T13:03:19Z</time><name>PT5946</name></trkpt>
<trkpt lat="53.159287" lon="-3.966349"><ele>984</ele><time>2020-08-16T13:03:22Z</time><name>PT5947</name></trkpt>
<trkpt lat="53.159282" lon="-3.966367"><ele>985</ele><time>2020-08-16T13:03:32Z</time><name>PT5948</name></trkpt>
<trkpt lat="53.159293" lon="-3.966383"><ele>986</ele><time>2020-08-16T13:03:35Z</time><name>PT5949</name></trkpt>
<trkpt lat="53.159293" lon="-3.966403"><ele>986</ele><time>2020-08-16T13:03:39Z</time><name>PT5950</name></trkpt>
<trkpt lat="53.159300" lon="-3.966426"><ele>986</ele><time>2020-08-16T13:03:43Z</time><name>PT5951</name></trkpt>
<trkpt lat="53.159302" lon="-3.966443"><ele>988</ele><time>2020-08-16T13:03:46Z</time><name>PT5952</name></trkpt>
<trkpt lat="53.159312" lon="-3.966486"><ele>990</ele><time>2020-08-16T13:03:50Z</time><name>PT5953</name></trkpt>
<trkpt lat="53.159322" lon="-3.966503"><ele>992</ele><time>2020-08-16T13:03:53Z</time><name>PT5954</name></trkpt>
<trkpt lat="53.159334" lon="-3.966531"><ele>992</ele><time>2020-08-16T13:03:57Z</time><name>PT5955</name></trkpt>
<trkpt lat="53.159338" lon="-3.966549"><ele>994</ele><time>2020-08-16T13:04:00Z</time><name>PT5956</name></trkpt>
<trkpt lat="53.159341" lon="-3.966566"><ele>994</ele><time>2020-08-16T13:04:04Z</time><name>PT5957</name></trkpt>
<trkpt lat="53.159345" lon="-3.966603"><ele>994</ele><time>2020-08-16T13:04:11Z</time><name>PT5958</name></trkpt>
<trkpt lat="53.159346" lon="-3.966622"><ele>995</ele><time>2020-08-16T13:04:15Z</time><name>PT5959</name></trkpt>
<trkpt lat="53.159341" lon="-3.966633"><ele>995</ele><time>2020-08-16T13:04:18Z</time><name>PT5960</name></trkpt>
<trkpt lat="53.159345" lon="-3.966674"><ele>995</ele><time>2020-08-16T13:04:21Z</time><name>PT5961</name></trkpt>
<trkpt lat="53.159349" lon="-3.966677"><ele>996</ele><time>2020-08-16T13:04:24Z</time><name>PT5962</name></trkpt>
<trkpt lat="53.159356" lon="-3.966698"><ele>997</ele><time>2020-08-16T13:04:31Z</time><name>PT5963</name></trkpt>
<trkpt lat="53.159359" lon="-3.966733"><ele>997</ele><time>2020-08-16T13:04:34Z</time><name>PT5964</name></trkpt>
<trkpt lat="53.159361" lon="-3.966762"><ele>997</ele><time>2020-08-16T13:04:37Z</time><name>PT5965</name></trkpt>
<trkpt lat="53.159366" lon="-3.966779"><ele>997</ele><time>2020-08-16T13:04:40Z</time><name>PT5966</name></trkpt>
<trkpt lat="53.159369" lon="-3.966865"><ele>999</ele><time>2020-08-16T13:05:04Z</time><name>PT5967</name></trkpt>
<trkpt lat="53.159377" lon="-3.966871"><ele>999</ele><time>2020-08-16T13:05:08Z</time><name>PT5968</name></trkpt>
<trkpt lat="53.159395" lon="-3.966919"><ele>1000</ele><time>2020-08-16T13:05:11Z</time><name>PT5969</name></trkpt>
<trkpt lat="53.159389" lon="-3.966946"><ele>1001</ele><time>2020-08-16T13:05:18Z</time><name>PT5970</name></trkpt>
<trkpt lat="53.159390" lon="-3.966986"><ele>1000</ele><time>2020-08-16T13:05:22Z</time><name>PT5971</name></trkpt>
<trkpt lat="53.159394" lon="-3.967017"><ele>1000</ele><time>2020-08-16T13:05:26Z</time><name>PT5972</name></trkpt>
<trkpt lat="53.159388" lon="-3.967034"><ele>1001</ele><time>2020-08-16T13:05:30Z</time><name>PT5973</name></trkpt>
<trkpt lat="53.159390" lon="-3.967097"><ele>1003</ele><time>2020-08-16T13:05:49Z</time><name>PT5974</name></trkpt>
<trkpt lat="53.159376" lon="-3.967124"><ele>1004</ele><time>2020-08-16T13:05:53Z</time><name>PT5975</name></trkpt>
<trkpt lat="53.159381" lon="-3.967163"><ele>1004</ele><time>2020-08-16T13:06:00Z</time><name>PT5976</name></trkpt>
<trkpt lat="53.159376" lon="-3.967207"><ele>1006</ele><time>2020-08-16T13:06:04Z</time><name>PT5977</name></trkpt>
<trkpt lat="53.159363" lon="-3.967236"><ele>1007</ele><time>2020-08-16T13:06:08Z</time><name>PT5978</name></trkpt>
<trkpt lat="53.159365" lon="-3.967280"><ele>1009</ele><time>2020-08-16T13:06:11Z</time><name>PT5979</name></trkpt>
<trkpt lat="53.159369" lon="-3.967312"><ele>1009</ele><time>2020-08-16T13:06:15Z</time><name>PT5980</name></trkpt>
<trkpt lat="53.159358" lon="-3.967330"><ele>1010</ele><time>2020-08-16T13:06:18Z</time><name>PT5981</name></trkpt>
<trkpt lat="53.159355" lon="-3.967356"><ele>1010</ele><time>2020-08-16T13:06:23Z</time><name>PT5982</name></trkpt>
<trkpt lat="53.159370" lon="-3.967408"><ele>1011</ele><time>2020-08-16T13:06:26Z</time><name>PT5983</name></trkpt>
<trkpt lat="53.159365" lon="-3.967429"><ele>1012</ele><time>2020-08-16T13:06:29Z</time><name>PT5984</name></trkpt>
<trkpt lat="53.159352" lon="-3.967454"><ele>1013</ele><time>2020-08-16T13:06:33Z</time><name>PT5985</name></trkpt>
<trkpt lat="53.159344" lon="-3.967482"><ele>1014</ele><time>2020-08-16T13:06:38Z</time><name>PT5986</name></trkpt>
<trkpt lat="53.159338" lon="-3.967514"><ele>1015</ele><time>2020-08-16T13:06:41Z</time><name>PT5987</name></trkpt>
<trkpt lat="53.159342" lon="-3.967539"><ele>1016</ele><time>2020-08-16T13:06:44Z</time><name>PT5988</name></trkpt>
<trkpt lat="53.159354" lon="-3.967566"><ele>1017</ele><time>2020-08-16T13:06:48Z</time><name>PT5989</name></trkpt>
<trkpt lat="53.159361" lon="-3.967576"><ele>1017</ele><time>2020-08-16T13:06:52Z</time><name>PT5990</name></trkpt>
<trkpt lat="53.159370" lon="-3.967600"><ele>1018</ele><time>2020-08-16T13:06:56Z</time><name>PT5991</name></trkpt>
<trkpt lat="53.159385" lon="-3.967612"><ele>1019</ele><time>2020-08-16T13:06:59Z</time><name>PT5992</name></trkpt>
<trkpt lat="53.159393" lon="-3.967631"><ele>1020</ele><time>2020-08-16T13:07:02Z</time><name>PT5993</name></trkpt>
<trkpt lat="53.159405" lon="-3.967660"><ele>1021</ele><time>2020-08-16T13:07:05Z</time><name>PT5994</name></trkpt>
<trkpt lat="53.159404" lon="-3.967685"><ele>1021</ele><time>2020-08-16T13:07:08Z</time><name>PT5995</name></trkpt>
<trkpt lat="53.159401" lon="-3.967700"><ele>1022</ele><time>2020-08-16T13:07:11Z</time><name>PT5996</name></trkpt>
<trkpt lat="53.159394" lon="-3.967718"><ele>1022</ele><time>2020-08-16T13:07:18Z</time><name>PT5997</name></trkpt>
<trkpt lat="53.159383" lon="-3.967739"><ele>1023</ele><time>2020-08-16T13:07:21Z</time><name>PT5998</name></trkpt>
<trkpt lat="53.159368" lon="-3.967762"><ele>1023</ele><time>2020-08-16T13:07:25Z</time><name>PT5999</name></trkpt>
<trkpt lat="53.159357" lon="-3.967784"><ele>1023</ele><time>2020-08-16T13:07:29Z</time><name>PT6000</name></trkpt>
<trkpt lat="53.159366" lon="-3.967810"><ele>1024</ele><time>2020-08-16T13:07:33Z</time><name>PT6001</name></trkpt>
<trkpt lat="53.159370" lon="-3.967817"><ele>1024</ele><time>2020-08-16T13:07:37Z</time><name>PT6002</name></trkpt>
<trkpt lat="53.159375" lon="-3.967840"><ele>1025</ele><time>2020-08-16T13:07:51Z</time><name>PT6003</name></trkpt>
<trkpt lat="53.159375" lon="-3.967893"><ele>1026</ele><time>2020-08-16T13:07:55Z</time><name>PT6004</name></trkpt>
<trkpt lat="53.159379" lon="-3.967915"><ele>1027</ele><time>2020-08-16T13:07:58Z</time><name>PT6005</name></trkpt>
<trkpt lat="53.159395" lon="-3.967951"><ele>1028</ele><time>2020-08-16T13:08:06Z</time><name>PT6006</name></trkpt>
<trkpt lat="53.159404" lon="-3.967999"><ele>1029</ele><time>2020-08-16T13:08:21Z</time><name>PT6007</name></trkpt>
<trkpt lat="53.159405" lon="-3.968028"><ele>1028</ele><time>2020-08-16T13:08:24Z</time><name>PT6008</name></trkpt>
<trkpt lat="53.159393" lon="-3.968061"><ele>1029</ele><time>2020-08-16T13:08:27Z</time><name>PT6009</name></trkpt>
<trkpt lat="53.159390" lon="-3.968089"><ele>1029</ele><time>2020-08-16T13:08:31Z</time><name>PT6010</name></trkpt>
<trkpt lat="53.159389" lon="-3.968115"><ele>1030</ele><time>2020-08-16T13:08:35Z</time><name>PT6011</name></trkpt>
<trkpt lat="53.159383" lon="-3.968140"><ele>1030</ele><time>2020-08-16T13:08:42Z</time><name>PT6012</name></trkpt>
<trkpt lat="53.159378" lon="-3.968165"><ele>1031</ele><time>2020-08-16T13:08:46Z</time><name>PT6013</name></trkpt>
<trkpt lat="53.159375" lon="-3.968180"><ele>1032</ele><time>2020-08-16T13:08:53Z</time><name>PT6014</name></trkpt>
<trkpt lat="53.159372" lon="-3.968225"><ele>1034</ele><time>2020-08-16T13:08:57Z</time><name>PT6015</name></trkpt>
<trkpt lat="53.159363" lon="-3.968243"><ele>1034</ele><time>2020-08-16T13:09:00Z</time><name>PT6016</name></trkpt>
<trkpt lat="53.159356" lon="-3.968261"><ele>1034</ele><time>2020-08-16T13:09:03Z</time><name>PT6017</name></trkpt>
<trkpt lat="53.159369" lon="-3.968280"><ele>1035</ele><time>2020-08-16T13:09:07Z</time><name>PT6018</name></trkpt>
<trkpt lat="53.159372" lon="-3.968307"><ele>1036</ele><time>2020-08-16T13:09:11Z</time><name>PT6019</name></trkpt>
<trkpt lat="53.159367" lon="-3.968321"><ele>1037</ele><time>2020-08-16T13:09:14Z</time><name>PT6020</name></trkpt>
<trkpt lat="53.159369" lon="-3.968345"><ele>1038</ele><time>2020-08-16T13:09:23Z</time><name>PT6021</name></trkpt>
<trkpt lat="53.159370" lon="-3.968365"><ele>1038</ele><time>2020-08-16T13:09:27Z</time><name>PT6022</name></trkpt>
<trkpt lat="53.159363" lon="-3.968401"><ele>1040</ele><time>2020-08-16T13:09:31Z</time><name>PT6023</name></trkpt>
<trkpt lat="53.159380" lon="-3.968418"><ele>1040</ele><time>2020-08-16T13:09:35Z</time><name>PT6024</name></trkpt>
<trkpt lat="53.159386" lon="-3.968429"><ele>1042</ele><time>2020-08-16T13:09:38Z</time><name>PT6025</name></trkpt>
<trkpt lat="53.159389" lon="-3.968443"><ele>1044</ele><time>2020-08-16T13:09:42Z</time><name>PT6026</name></trkpt>
<trkpt lat="53.159395" lon="-3.968467"><ele>1044</ele><time>2020-08-16T13:09:45Z</time><name>PT6027</name></trkpt>
<trkpt lat="53.159397" lon="-3.968494"><ele>1044</ele><time>2020-08-16T13:09:48Z</time><name>PT6028</name></trkpt>
<trkpt lat="53.159408" lon="-3.968537"><ele>1047</ele><time>2020-08-16T13:09:52Z</time><name>PT6029</name></trkpt>
<trkpt lat="53.159415" lon="-3.968573"><ele>1048</ele><time>2020-08-16T13:09:56Z</time><name>PT6030</name></trkpt>
<trkpt lat="53.159422" lon="-3.968607"><ele>1049</ele><time>2020-08-16T13:10:00Z</time><name>PT6031</name></trkpt>
<trkpt lat="53.159423" lon="-3.968655"><ele>1049</ele><time>2020-08-16T13:10:04Z</time><name>PT6032</name></trkpt>
<trkpt lat="53.159424" lon="-3.968698"><ele>1051</ele><time>2020-08-16T13:10:08Z</time><name>PT6033</name></trkpt>
<trkpt lat="53.159425" lon="-3.968738"><ele>1052</ele><time>2020-08-16T13:10:11Z</time><name>PT6034</name></trkpt>
<trkpt lat="53.159433" lon="-3.968796"><ele>1053</ele><time>2020-08-16T13:10:15Z</time><name>PT6035</name></trkpt>
<trkpt lat="53.159439" lon="-3.968841"><ele>1054</ele><time>2020-08-16T13:10:18Z</time><name>PT6036</name></trkpt>
<trkpt lat="53.159454" lon="-3.968879"><ele>1056</ele><time>2020-08-16T13:10:22Z</time><name>PT6037</name></trkpt>
<trkpt lat="53.159462" lon="-3.968919"><ele>1057</ele><time>2020-08-16T13:10:26Z</time><name>PT6038</name></trkpt>
<trkpt lat="53.159467" lon="-3.968950"><ele>1057</ele><time>2020-08-16T13:10:29Z</time><name>PT6039</name></trkpt>
<trkpt lat="53.159479" lon="-3.968995"><ele>1058</ele><time>2020-08-16T13:10:33Z</time><name>PT6040</name></trkpt>
<trkpt lat="53.159489" lon="-3.969025"><ele>1059</ele><time>2020-08-16T13:10:36Z</time><name>PT6041</name></trkpt>
<trkpt lat="53.159500" lon="-3.969047"><ele>1059</ele><time>2020-08-16T13:10:39Z</time><name>PT6042</name></trkpt>
<trkpt lat="53.159510" lon="-3.969076"><ele>1060</ele><time>2020-08-16T13:10:42Z</time><name>PT6043</name></trkpt>
<trkpt lat="53.159524" lon="-3.969109"><ele>1059</ele><time>2020-08-16T13:10:45Z</time><name>PT6044</name></trkpt>
<trkpt lat="53.159539" lon="-3.969165"><ele>1059</ele><time>2020-08-16T13:10:49Z</time><name>PT6045</name></trkpt>
<trkpt lat="53.159562" lon="-3.969221"><ele>1060</ele><time>2020-08-16T13:10:53Z</time><name>PT6046</name></trkpt>
<trkpt lat="53.159583" lon="-3.969278"><ele>1060</ele><time>2020-08-16T13:10:57Z</time><name>PT6047</name></trkpt>
<trkpt lat="53.159602" lon="-3.969332"><ele>1061</ele><time>2020-08-16T13:11:01Z</time><name>PT6048</name></trkpt>
<trkpt lat="53.159615" lon="-3.969370"><ele>1061</ele><time>2020-08-16T13:11:04Z</time><name>PT6049</name></trkpt>
<trkpt lat="53.159628" lon="-3.969411"><ele>1062</ele><time>2020-08-16T13:11:07Z</time><name>PT6050</name></trkpt>
<trkpt lat="53.159651" lon="-3.969459"><ele>1063</ele><time>2020-08-16T13:11:11Z</time><name>PT6051</name></trkpt>
<trkpt lat="53.159669" lon="-3.969522"><ele>1062</ele><time>2020-08-16T13:11:15Z</time><name>PT6052</name></trkpt>
<trkpt lat="53.159686" lon="-3.969562"><ele>1063</ele><time>2020-08-16T13:11:18Z</time><name>PT6053</name></trkpt>
<trkpt lat="53.159707" lon="-3.969596"><ele>1063</ele><time>2020-08-16T13:11:21Z</time><name>PT6054</name></trkpt>
<trkpt lat="53.159737" lon="-3.969632"><ele>1064</ele><time>2020-08-16T13:11:25Z</time><name>PT6055</name></trkpt>
<trkpt lat="53.159762" lon="-3.969663"><ele>1064</ele><time>2020-08-16T13:11:28Z</time><name>PT6056</name></trkpt>
<trkpt lat="53.159788" lon="-3.969674"><ele>1064</ele><time>2020-08-16T13:11:31Z</time><name>PT6057</name></trkpt>
<trkpt lat="53.159815" lon="-3.969689"><ele>1064</ele><time>2020-08-16T13:11:34Z</time><name>PT6058</name></trkpt>
<trkpt lat="53.159836" lon="-3.969712"><ele>1064</ele><time>2020-08-16T13:11:37Z</time><name>PT6059</name></trkpt>
<trkpt lat="53.159866" lon="-3.969742"><ele>1065</ele><time>2020-08-16T13:11:41Z</time><name>PT6060</name></trkpt>
<trkpt lat="53.159886" lon="-3.969764"><ele>1065</ele><time>2020-08-16T13:11:44Z</time><name>PT6061</name></trkpt>
<trkpt lat="53.159907" lon="-3.969783"><ele>1066</ele><time>2020-08-16T13:11:47Z</time><name>PT6062</name></trkpt>
<trkpt lat="53.159925" lon="-3.969834"><ele>1068</ele><time>2020-08-16T13:11:51Z</time><name>PT6063</name></trkpt>
<trkpt lat="53.159945" lon="-3.969866"><ele>1069</ele><time>2020-08-16T13:11:55Z</time><name>PT6064</name></trkpt>
<trkpt lat="53.159964" lon="-3.969919"><ele>1070</ele><time>2020-08-16T13:11:59Z</time><name>PT6065</name></trkpt>
<trkpt lat="53.159981" lon="-3.969957"><ele>1072</ele><time>2020-08-16T13:12:02Z</time><name>PT6066</name></trkpt>
<trkpt lat="53.159998" lon="-3.969994"><ele>1072</ele><time>2020-08-16T13:12:06Z</time><name>PT6067</name></trkpt>
<trkpt lat="53.160010" lon="-3.970018"><ele>1072</ele><time>2020-08-16T13:12:09Z</time><name>PT6068</name></trkpt>
<trkpt lat="53.160032" lon="-3.970042"><ele>1073</ele><time>2020-08-16T13:12:12Z</time><name>PT6069</name></trkpt>
<trkpt lat="53.160044" lon="-3.970082"><ele>1072</ele><time>2020-08-16T13:12:16Z</time><name>PT6070</name></trkpt>
<trkpt lat="53.160067" lon="-3.970117"><ele>1071</ele><time>2020-08-16T13:12:20Z</time><name>PT6071</name></trkpt>
<trkpt lat="53.160075" lon="-3.970184"><ele>1070</ele><time>2020-08-16T13:12:24Z</time><name>PT6072</name></trkpt>
<trkpt lat="53.160093" lon="-3.970231"><ele>1071</ele><time>2020-08-16T13:12:28Z</time><name>PT6073</name></trkpt>
<trkpt lat="53.160112" lon="-3.970279"><ele>1070</ele><time>2020-08-16T13:12:32Z</time><name>PT6074</name></trkpt>
<trkpt lat="53.160121" lon="-3.970293"><ele>1070</ele><time>2020-08-16T13:12:35Z</time><name>PT6075</name></trkpt>
<trkpt lat="53.160136" lon="-3.970293"><ele>1069</ele><time>2020-08-16T13:12:39Z</time><name>PT6076</name></trkpt>
<trkpt lat="53.160171" lon="-3.970323"><ele>1068</ele><time>2020-08-16T13:12:43Z</time><name>PT6077</name></trkpt>
<trkpt lat="53.160170" lon="-3.970319"><ele>1067</ele><time>2020-08-16T13:12:50Z</time><name>PT6078</name></trkpt>
<trkpt lat="53.160168" lon="-3.970320"><ele>1067</ele><time>2020-08-16T13:12:51Z</time><name>PT6079</name></trkpt>
<trkpt lat="53.160167" lon="-3.970318"><ele>1068</ele><time>2020-08-16T13:12:52Z</time><name>PT6080</name></trkpt>
<trkpt lat="53.160167" lon="-3.970318"><ele>1068</ele><time>2020-08-16T13:12:55Z</time><name>PT6081</name></trkpt>
<trkpt lat="53.160168" lon="-3.970317"><ele>1068</ele><time>2020-08-16T13:12:56Z</time><name>PT6082</name></trkpt>
<trkpt lat="53.160164" lon="-3.970320"><ele>1068</ele><time>2020-08-16T13:12:57Z</time><name>PT6083</name></trkpt>
<trkpt lat="53.160162" lon="-3.970322"><ele>1068</ele><time>2020-08-16T13:12:58Z</time><name>PT6084</name></trkpt>
<trkpt lat="53.160162" lon="-3.970329"><ele>1068</ele><time>2020-08-16T13:12:59Z</time><name>PT6085</name></trkpt>
<trkpt lat="53.160160" lon="-3.970334"><ele>1068</ele><time>2020-08-16T13:13:00Z</time><name>PT6086</name></trkpt>
<trkpt lat="53.160159" lon="-3.970343"><ele>1068</ele><time>2020-08-16T13:13:01Z</time><name>PT6087</name></trkpt>
<trkpt lat="53.160162" lon="-3.970350"><ele>1068</ele><time>2020-08-16T13:13:02Z</time><name>PT6088</name></trkpt>
<trkpt lat="53.160164" lon="-3.970357"><ele>1068</ele><time>2020-08-16T13:13:03Z</time><name>PT6089</name></trkpt>
<trkpt lat="53.160166" lon="-3.970363"><ele>1068</ele><time>2020-08-16T13:13:04Z</time><name>PT6090</name></trkpt>
<trkpt lat="53.160167" lon="-3.970368"><ele>1068</ele><time>2020-08-16T13:13:05Z</time><name>PT6091</name></trkpt>
<trkpt lat="53.160166" lon="-3.970370"><ele>1069</ele><time>2020-08-16T13:13:06Z</time><name>PT6092</name></trkpt>
<trkpt lat="53.160165" lon="-3.970371"><ele>1069</ele><time>2020-08-16T13:13:07Z</time><name>PT6093</name></trkpt>
<trkpt lat="53.160166" lon="-3.970370"><ele>1069</ele><time>2020-08-16T13:13:08Z</time><name>PT6094</name></trkpt>
<trkpt lat="53.160166" lon="-3.970372"><ele>1069</ele><time>2020-08-16T13:13:11Z</time><name>PT6095</name></trkpt>
<trkpt lat="53.160167" lon="-3.970369"><ele>1069</ele><time>2020-08-16T13:13:12Z</time><name>PT6096</name></trkpt>
<trkpt lat="53.160173" lon="-3.970349"><ele>1069</ele><time>2020-08-16T13:13:36Z</time><name>PT6097</name></trkpt>
<trkpt lat="53.160167" lon="-3.970347"><ele>1069</ele><time>2020-08-16T13:13:37Z</time><name>PT6098</name></trkpt>
<trkpt lat="53.160163" lon="-3.970347"><ele>1069</ele><time>2020-08-16T13:13:38Z</time><name>PT6099</name></trkpt>
<trkpt lat="53.160160" lon="-3.970354"><ele>1069</ele><time>2020-08-16T13:13:39Z</time><name>PT6100</name></trkpt>
<trkpt lat="53.160158" lon="-3.970362"><ele>1069</ele><time>2020-08-16T13:13:40Z</time><name>PT6101</name></trkpt>
<trkpt lat="53.160155" lon="-3.970367"><ele>1069</ele><time>2020-08-16T13:13:41Z</time><name>PT6102</name></trkpt>
<trkpt lat="53.160154" lon="-3.970374"><ele>1069</ele><time>2020-08-16T13:13:42Z</time><name>PT6103</name></trkpt>
<trkpt lat="53.160151" lon="-3.970383"><ele>1069</ele><time>2020-08-16T13:13:43Z</time><name>PT6104</name></trkpt>
<trkpt lat="53.160150" lon="-3.970393"><ele>1069</ele><time>2020-08-16T13:13:44Z</time><name>PT6105</name></trkpt>
<trkpt lat="53.160152" lon="-3.970399"><ele>1069</ele><time>2020-08-16T13:13:45Z</time><name>PT6106</name></trkpt>
<trkpt lat="53.160153" lon="-3.970408"><ele>1069</ele><time>2020-08-16T13:13:46Z</time><name>PT6107</name></trkpt>
<trkpt lat="53.160154" lon="-3.970415"><ele>1069</ele><time>2020-08-16T13:13:47Z</time><name>PT6108</name></trkpt>
<trkpt lat="53.160154" lon="-3.970424"><ele>1069</ele><time>2020-08-16T13:13:48Z</time><name>PT6109</name></trkpt>
<trkpt lat="53.160156" lon="-3.970431"><ele>1068</ele><time>2020-08-16T13:13:49Z</time><name>PT6110</name></trkpt>
<trkpt lat="53.160157" lon="-3.970441"><ele>1069</ele><time>2020-08-16T13:13:50Z</time><name>PT6111</name></trkpt>
<trkpt lat="53.160160" lon="-3.970448"><ele>1069</ele><time>2020-08-16T13:13:51Z</time><name>PT6112</name></trkpt>
<trkpt lat="53.160163" lon="-3.970453"><ele>1069</ele><time>2020-08-16T13:13:52Z</time><name>PT6113</name></trkpt>
<trkpt lat="53.160166" lon="-3.970457"><ele>1069</ele><time>2020-08-16T13:13:53Z</time><name>PT6114</name></trkpt>
<trkpt lat="53.160171" lon="-3.970460"><ele>1069</ele><time>2020-08-16T13:13:54Z</time><name>PT6115</name></trkpt>
<trkpt lat="53.160177" lon="-3.970466"><ele>1069</ele><time>2020-08-16T13:13:55Z</time><name>PT6116</name></trkpt>
<trkpt lat="53.160182" lon="-3.970471"><ele>1068</ele><time>2020-08-16T13:13:56Z</time><name>PT6117</name></trkpt>
<trkpt lat="53.160188" lon="-3.970478"><ele>1068</ele><time>2020-08-16T13:13:57Z</time><name>PT6118</name></trkpt>
<trkpt lat="53.160192" lon="-3.970484"><ele>1068</ele><time>2020-08-16T13:13:58Z</time><name>PT6119</name></trkpt>
<trkpt lat="53.160197" lon="-3.970488"><ele>1068</ele><time>2020-08-16T13:13:59Z</time><name>PT6120</name></trkpt>
<trkpt lat="53.160201" lon="-3.970489"><ele>1068</ele><time>2020-08-16T13:14:00Z</time><name>PT6121</name></trkpt>
<trkpt lat="53.160207" lon="-3.970490"><ele>1068</ele><time>2020-08-16T13:14:01Z</time><name>PT6122</name></trkpt>
<trkpt lat="53.160213" lon="-3.970491"><ele>1068</ele><time>2020-08-16T13:14:02Z</time><name>PT6123</name></trkpt>
<trkpt lat="53.160218" lon="-3.970491"><ele>1068</ele><time>2020-08-16T13:14:03Z</time><name>PT6124</name></trkpt>
<trkpt lat="53.160223" lon="-3.970496"><ele>1068</ele><time>2020-08-16T13:14:04Z</time><name>PT6125</name></trkpt>
<trkpt lat="53.160227" lon="-3.970500"><ele>1068</ele><time>2020-08-16T13:14:05Z</time><name>PT6126</name></trkpt>
<trkpt lat="53.160230" lon="-3.970500"><ele>1069</ele><time>2020-08-16T13:14:06Z</time><name>PT6127</name></trkpt>
<trkpt lat="53.160238" lon="-3.970511"><ele>1068</ele><time>2020-08-16T13:14:10Z</time><name>PT6128</name></trkpt>
<trkpt lat="53.160252" lon="-3.970521"><ele>1067</ele><time>2020-08-16T13:14:11Z</time><name>PT6129</name></trkpt>
<trkpt lat="53.160260" lon="-3.970537"><ele>1067</ele><time>2020-08-16T13:14:12Z</time><name>PT6130</name></trkpt>
<trkpt lat="53.160266" lon="-3.970546"><ele>1067</ele><time>2020-08-16T13:14:13Z</time><name>PT6131</name></trkpt>
<trkpt lat="53.160269" lon="-3.970532"><ele>1067</ele><time>2020-08-16T13:14:15Z</time><name>PT6132</name></trkpt>
<trkpt lat="53.160280" lon="-3.970530"><ele>1067</ele><time>2020-08-16T13:14:16Z</time><name>PT6133</name></trkpt>
<trkpt lat="53.160291" lon="-3.970524"><ele>1067</ele><time>2020-08-16T13:14:17Z</time><name>PT6134</name></trkpt>
<trkpt lat="53.160298" lon="-3.970523"><ele>1067</ele><time>2020-08-16T13:14:18Z</time><name>PT6135</name></trkpt>
<trkpt lat="53.160307" lon="-3.970524"><ele>1067</ele><time>2020-08-16T13:14:19Z</time><name>PT6136</name></trkpt>
<trkpt lat="53.160316" lon="-3.970522"><ele>1067</ele><time>2020-08-16T13:14:20Z</time><name>PT6137</name></trkpt>
<trkpt lat="53.160323" lon="-3.970520"><ele>1066</ele><time>2020-08-16T13:14:21Z</time><name>PT6138</name></trkpt>
<trkpt lat="53.160334" lon="-3.970516"><ele>1066</ele><time>2020-08-16T13:14:22Z</time><name>PT6139</name></trkpt>
<trkpt lat="53.160342" lon="-3.970511"><ele>1067</ele><time>2020-08-16T13:14:23Z</time><name>PT6140</name></trkpt>
<trkpt lat="53.160351" lon="-3.970509"><ele>1067</ele><time>2020-08-16T13:14:24Z</time><name>PT6141</name></trkpt>
<trkpt lat="53.160360" lon="-3.970508"><ele>1067</ele><time>2020-08-16T13:14:25Z</time><name>PT6142</name></trkpt>
<trkpt lat="53.160365" lon="-3.970508"><ele>1067</ele><time>2020-08-16T13:14:26Z</time><name>PT6143</name></trkpt>
<trkpt lat="53.160369" lon="-3.970510"><ele>1067</ele><time>2020-08-16T13:14:27Z</time><name>PT6144</name></trkpt>
<trkpt lat="53.160374" lon="-3.970513"><ele>1067</ele><time>2020-08-16T13:14:28Z</time><name>PT6145</name></trkpt>
<trkpt lat="53.160373" lon="-3.970516"><ele>1067</ele><time>2020-08-16T13:14:29Z</time><name>PT6146</name></trkpt>
<trkpt lat="53.160373" lon="-3.970518"><ele>1067</ele><time>2020-08-16T13:14:30Z</time><name>PT6147</name></trkpt>
<trkpt lat="53.160374" lon="-3.970515"><ele>1067</ele><time>2020-08-16T13:14:31Z</time><name>PT6148</name></trkpt>
<trkpt lat="53.160375" lon="-3.970512"><ele>1068</ele><time>2020-08-16T13:14:32Z</time><name>PT6149</name></trkpt>
<trkpt lat="53.160371" lon="-3.970509"><ele>1067</ele><time>2020-08-16T13:14:33Z</time><name>PT6150</name></trkpt>
<trkpt lat="53.160369" lon="-3.970508"><ele>1067</ele><time>2020-08-16T13:14:34Z</time><name>PT6151</name></trkpt>
<trkpt lat="53.160364" lon="-3.970502"><ele>1067</ele><time>2020-08-16T13:14:35Z</time><name>PT6152</name></trkpt>
<trkpt lat="53.160357" lon="-3.970491"><ele>1067</ele><time>2020-08-16T13:14:36Z</time><name>PT6153</name></trkpt>
<trkpt lat="53.160354" lon="-3.970479"><ele>1067</ele><time>2020-08-16T13:14:37Z</time><name>PT6154</name></trkpt>
<trkpt lat="53.160351" lon="-3.970472"><ele>1067</ele><time>2020-08-16T13:14:38Z</time><name>PT6155</name></trkpt>
<trkpt lat="53.160346" lon="-3.970462"><ele>1067</ele><time>2020-08-16T13:14:39Z</time><name>PT6156</name></trkpt>
<trkpt lat="53.160343" lon="-3.970451"><ele>1067</ele><time>2020-08-16T13:14:40Z</time><name>PT6157</name></trkpt>
<trkpt lat="53.160336" lon="-3.970442"><ele>1067</ele><time>2020-08-16T13:14:41Z</time><name>PT6158</name></trkpt>
<trkpt lat="53.160333" lon="-3.970436"><ele>1067</ele><time>2020-08-16T13:14:42Z</time><name>PT6159</name></trkpt>
<trkpt lat="53.160333" lon="-3.970427"><ele>1067</ele><time>2020-08-16T13:14:44Z</time><name>PT6160</name></trkpt>
<trkpt lat="53.160335" lon="-3.970408"><ele>1066</ele><time>2020-08-16T13:14:44Z</time><name>PT6161</name></trkpt>
<trkpt lat="53.160331" lon="-3.970401"><ele>1066</ele><time>2020-08-16T13:14:45Z</time><name>PT6162</name></trkpt>
<trkpt lat="53.160330" lon="-3.970404"><ele>1066</ele><time>2020-08-16T13:14:46Z</time><name>PT6163</name></trkpt>
<trkpt lat="53.160329" lon="-3.970407"><ele>1066</ele><time>2020-08-16T13:14:47Z</time><name>PT6164</name></trkpt>
<trkpt lat="53.160327" lon="-3.970415"><ele>1066</ele><time>2020-08-16T13:14:48Z</time><name>PT6165</name></trkpt>
<trkpt lat="53.160330" lon="-3.970423"><ele>1066</ele><time>2020-08-16T13:14:49Z</time><name>PT6166</name></trkpt>
<trkpt lat="53.160328" lon="-3.970425"><ele>1066</ele><time>2020-08-16T13:14:50Z</time><name>PT6167</name></trkpt>
<trkpt lat="53.160328" lon="-3.970433"><ele>1066</ele><time>2020-08-16T13:14:51Z</time><name>PT6168</name></trkpt>
<trkpt lat="53.160327" lon="-3.970441"><ele>1066</ele><time>2020-08-16T13:14:52Z</time><name>PT6169</name></trkpt>
<trkpt lat="53.160327" lon="-3.970451"><ele>1066</ele><time>2020-08-16T13:14:53Z</time><name>PT6170</name></trkpt>
<trkpt lat="53.160328" lon="-3.970453"><ele>1066</ele><time>2020-08-16T13:14:56Z</time><name>PT6171</name></trkpt>
<trkpt lat="53.160327" lon="-3.970459"><ele>1067</ele><time>2020-08-16T13:14:57Z</time><name>PT6172</name></trkpt>
<trkpt lat="53.160326" lon="-3.970451"><ele>1067</ele><time>2020-08-16T13:14:59Z</time><name>PT6173</name></trkpt>
<trkpt lat="53.160327" lon="-3.970457"><ele>1067</ele><time>2020-08-16T13:14:59Z</time><name>PT6174</name></trkpt>
<trkpt lat="53.160327" lon="-3.970465"><ele>1067</ele><time>2020-08-16T13:15:00Z</time><name>PT6175</name></trkpt>
<trkpt lat="53.160340" lon="-3.970456"><ele>1066</ele><time>2020-08-16T13:15:01Z</time><name>PT6176</name></trkpt>
<trkpt lat="53.160346" lon="-3.970463"><ele>1066</ele><time>2020-08-16T13:15:02Z</time><name>PT6177</name></trkpt>
<trkpt lat="53.160349" lon="-3.970477"><ele>1066</ele><time>2020-08-16T13:15:03Z</time><name>PT6178</name></trkpt>
<trkpt lat="53.160355" lon="-3.970492"><ele>1066</ele><time>2020-08-16T13:15:04Z</time><name>PT6179</name></trkpt>
<trkpt lat="53.160362" lon="-3.970507"><ele>1065</ele><time>2020-08-16T13:15:05Z</time><name>PT6180</name></trkpt>
<trkpt lat="53.160370" lon="-3.970525"><ele>1065</ele><time>2020-08-16T13:15:06Z</time><name>PT6181</name></trkpt>
<trkpt lat="53.160371" lon="-3.970535"><ele>1065</ele><time>2020-08-16T13:15:07Z</time><name>PT6182</name></trkpt>
<trkpt lat="53.160376" lon="-3.970547"><ele>1065</ele><time>2020-08-16T13:15:08Z</time><name>PT6183</name></trkpt>
<trkpt lat="53.160384" lon="-3.970564"><ele>1066</ele><time>2020-08-16T13:15:09Z</time><name>PT6184</name></trkpt>
<trkpt lat="53.160394" lon="-3.970585"><ele>1066</ele><time>2020-08-16T13:15:10Z</time><name>PT6185</name></trkpt>
<trkpt lat="53.160399" lon="-3.970600"><ele>1065</ele><time>2020-08-16T13:15:11Z</time><name>PT6186</name></trkpt>
<trkpt lat="53.160408" lon="-3.970613"><ele>1065</ele><time>2020-08-16T13:15:12Z</time><name>PT6187</name></trkpt>
<trkpt lat="53.160418" lon="-3.970627"><ele>1065</ele><time>2020-08-16T13:15:14Z</time><name>PT6188</name></trkpt>
<trkpt lat="53.160425" lon="-3.970633"><ele>1065</ele><time>2020-08-16T13:15:14Z</time><name>PT6189</name></trkpt>
<trkpt lat="53.160430" lon="-3.970641"><ele>1064</ele><time>2020-08-16T13:15:15Z</time><name>PT6190</name></trkpt>
<trkpt lat="53.160442" lon="-3.970650"><ele>1064</ele><time>2020-08-16T13:15:16Z</time><name>PT6191</name></trkpt>
<trkpt lat="53.160447" lon="-3.970656"><ele>1064</ele><time>2020-08-16T13:15:17Z</time><name>PT6192</name></trkpt>
<trkpt lat="53.160457" lon="-3.970665"><ele>1064</ele><time>2020-08-16T13:15:18Z</time><name>PT6193</name></trkpt>
<trkpt lat="53.160468" lon="-3.970673"><ele>1064</ele><time>2020-08-16T13:15:19Z</time><name>PT6194</name></trkpt>
<trkpt lat="53.160473" lon="-3.970686"><ele>1063</ele><time>2020-08-16T13:15:20Z</time><name>PT6195</name></trkpt>
<trkpt lat="53.160477" lon="-3.970705"><ele>1063</ele><time>2020-08-16T13:15:21Z</time><name>PT6196</name></trkpt>
<trkpt lat="53.160474" lon="-3.970720"><ele>1062</ele><time>2020-08-16T13:15:22Z</time><name>PT6197</name></trkpt>
<trkpt lat="53.160475" lon="-3.970731"><ele>1062</ele><time>2020-08-16T13:15:23Z</time><name>PT6198</name></trkpt>
<trkpt lat="53.160481" lon="-3.970735"><ele>1063</ele><time>2020-08-16T13:15:24Z</time><name>PT6199</name></trkpt>
<trkpt lat="53.160468" lon="-3.970737"><ele>1061</ele><time>2020-08-16T13:15:26Z</time><name>PT6200</name></trkpt>
<trkpt lat="53.160507" lon="-3.970716"><ele>1063</ele><time>2020-08-16T13:15:26Z</time><name>PT6201</name></trkpt>
<trkpt lat="53.160514" lon="-3.970711"><ele>1065</ele><time>2020-08-16T13:15:27Z</time><name>PT6202</name></trkpt>
<trkpt lat="53.160529" lon="-3.970708"><ele>1065</ele><time>2020-08-16T13:15:29Z</time><name>PT6203</name></trkpt>
<trkpt lat="53.160544" lon="-3.970705"><ele>1066</ele><time>2020-08-16T13:15:29Z</time><name>PT6204</name></trkpt>
<trkpt lat="53.160554" lon="-3.970702"><ele>1066</ele><time>2020-08-16T13:15:30Z</time><name>PT6205</name></trkpt>
<trkpt lat="53.160562" lon="-3.970695"><ele>1066</ele><time>2020-08-16T13:15:31Z</time><name>PT6206</name></trkpt>
<trkpt lat="53.160567" lon="-3.970690"><ele>1065</ele><time>2020-08-16T13:15:32Z</time><name>PT6207</name></trkpt>
<trkpt lat="53.160576" lon="-3.970684"><ele>1065</ele><time>2020-08-16T13:15:33Z</time><name>PT6208</name></trkpt>
<trkpt lat="53.160584" lon="-3.970679"><ele>1065</ele><time>2020-08-16T13:15:34Z</time><name>PT6209</name></trkpt>
<trkpt lat="53.160590" lon="-3.970670"><ele>1065</ele><time>2020-08-16T13:15:35Z</time><name>PT6210</name></trkpt>
<trkpt lat="53.160597" lon="-3.970664"><ele>1065</ele><time>2020-08-16T13:15:36Z</time><name>PT6211</name></trkpt>
<trkpt lat="53.160606" lon="-3.970660"><ele>1065</ele><time>2020-08-16T13:15:37Z</time><name>PT6212</name></trkpt>
<trkpt lat="53.160616" lon="-3.970660"><ele>1065</ele><time>2020-08-16T13:15:38Z</time><name>PT6213</name></trkpt>
<trkpt lat="53.160625" lon="-3.970660"><ele>1065</ele><time>2020-08-16T13:15:39Z</time><name>PT6214</name></trkpt>
<trkpt lat="53.160635" lon="-3.970658"><ele>1065</ele><time>2020-08-16T13:15:40Z</time><name>PT6215</name></trkpt>
<trkpt lat="53.160646" lon="-3.970659"><ele>1065</ele><time>2020-08-16T13:15:41Z</time><name>PT6216</name></trkpt>
<trkpt lat="53.160656" lon="-3.970658"><ele>1065</ele><time>2020-08-16T13:15:42Z</time><name>PT6217</name></trkpt>
<trkpt lat="53.160668" lon="-3.970653"><ele>1065</ele><time>2020-08-16T13:15:43Z</time><name>PT6218</name></trkpt>
<trkpt lat="53.160678" lon="-3.970645"><ele>1065</ele><time>2020-08-16T13:15:44Z</time><name>PT6219</name></trkpt>
<trkpt lat="53.160709" lon="-3.970635"><ele>1065</ele><time>2020-08-16T13:15:47Z</time><name>PT6220</name></trkpt>
<trkpt lat="53.160735" lon="-3.970627"><ele>1065</ele><time>2020-08-16T13:15:49Z</time><name>PT6221</name></trkpt>
<trkpt lat="53.160746" lon="-3.970621"><ele>1065</ele><time>2020-08-16T13:15:50Z</time><name>PT6222</name></trkpt>
<trkpt lat="53.160756" lon="-3.970620"><ele>1065</ele><time>2020-08-16T13:15:51Z</time><name>PT6223</name></trkpt>
<trkpt lat="53.160764" lon="-3.970620"><ele>1065</ele><time>2020-08-16T13:15:52Z</time><name>PT6224</name></trkpt>
<trkpt lat="53.160773" lon="-3.970618"><ele>1065</ele><time>2020-08-16T13:15:53Z</time><name>PT6225</name></trkpt>
<trkpt lat="53.160783" lon="-3.970612"><ele>1065</ele><time>2020-08-16T13:15:54Z</time><name>PT6226</name></trkpt>
<trkpt lat="53.160792" lon="-3.970605"><ele>1065</ele><time>2020-08-16T13:15:55Z</time><name>PT6227</name></trkpt>
<trkpt lat="53.160801" lon="-3.970597"><ele>1064</ele><time>2020-08-16T13:15:56Z</time><name>PT6228</name></trkpt>
<trkpt lat="53.160811" lon="-3.970587"><ele>1064</ele><time>2020-08-16T13:15:57Z</time><name>PT6229</name></trkpt>
<trkpt lat="53.160820" lon="-3.970579"><ele>1064</ele><time>2020-08-16T13:15:58Z</time><name>PT6230</name></trkpt>
<trkpt lat="53.160829" lon="-3.970571"><ele>1064</ele><time>2020-08-16T13:15:59Z</time><name>PT6231</name></trkpt>
<trkpt lat="53.160838" lon="-3.970561"><ele>1064</ele><time>2020-08-16T13:16:00Z</time><name>PT6232</name></trkpt>
<trkpt lat="53.160846" lon="-3.970551"><ele>1064</ele><time>2020-08-16T13:16:01Z</time><name>PT6233</name></trkpt>
<trkpt lat="53.160856" lon="-3.970542"><ele>1064</ele><time>2020-08-16T13:16:02Z</time><name>PT6234</name></trkpt>
<trkpt lat="53.160865" lon="-3.970533"><ele>1064</ele><time>2020-08-16T13:16:03Z</time><name>PT6235</name></trkpt>
<trkpt lat="53.160874" lon="-3.970523"><ele>1064</ele><time>2020-08-16T13:16:04Z</time><name>PT6236</name></trkpt>
<trkpt lat="53.160883" lon="-3.970516"><ele>1064</ele><time>2020-08-16T13:16:05Z</time><name>PT6237</name></trkpt>
<trkpt lat="53.160894" lon="-3.970512"><ele>1064</ele><time>2020-08-16T13:16:06Z</time><name>PT6238</name></trkpt>
<trkpt lat="53.160902" lon="-3.970511"><ele>1064</ele><time>2020-08-16T13:16:07Z</time><name>PT6239</name></trkpt>
<trkpt lat="53.160912" lon="-3.970513"><ele>1064</ele><time>2020-08-16T13:16:08Z</time><name>PT6240</name></trkpt>
<trkpt lat="53.160920" lon="-3.970513"><ele>1064</ele><time>2020-08-16T13:16:09Z</time><name>PT6241</name></trkpt>
<trkpt lat="53.160929" lon="-3.970512"><ele>1064</ele><time>2020-08-16T13:16:10Z</time><name>PT6242</name></trkpt>
<trkpt lat="53.160938" lon="-3.970512"><ele>1064</ele><time>2020-08-16T13:16:11Z</time><name>PT6243</name></trkpt>
<trkpt lat="53.160947" lon="-3.970512"><ele>1064</ele><time>2020-08-16T13:16:12Z</time><name>PT6244</name></trkpt>
<trkpt lat="53.160959" lon="-3.970511"><ele>1064</ele><time>2020-08-16T13:16:13Z</time><name>PT6245</name></trkpt>
<trkpt lat="53.160969" lon="-3.970507"><ele>1064</ele><time>2020-08-16T13:16:14Z</time><name>PT6246</name></trkpt>
<trkpt lat="53.160979" lon="-3.970499"><ele>1064</ele><time>2020-08-16T13:16:15Z</time><name>PT6247</name></trkpt>
<trkpt lat="53.160989" lon="-3.970492"><ele>1064</ele><time>2020-08-16T13:16:16Z</time><name>PT6248</name></trkpt>
<trkpt lat="53.161001" lon="-3.970485"><ele>1064</ele><time>2020-08-16T13:16:17Z</time><name>PT6249</name></trkpt>
<trkpt lat="53.161010" lon="-3.970481"><ele>1064</ele><time>2020-08-16T13:16:18Z</time><name>PT6250</name></trkpt>
<trkpt lat="53.161020" lon="-3.970479"><ele>1064</ele><time>2020-08-16T13:16:19Z</time><name>PT6251</name></trkpt>
<trkpt lat="53.161031" lon="-3.970476"><ele>1064</ele><time>2020-08-16T13:16:20Z</time><name>PT6252</name></trkpt>
<trkpt lat="53.161038" lon="-3.970472"><ele>1064</ele><time>2020-08-16T13:16:21Z</time><name>PT6253</name></trkpt>
<trkpt lat="53.161048" lon="-3.970467"><ele>1064</ele><time>2020-08-16T13:16:22Z</time><name>PT6254</name></trkpt>
<trkpt lat="53.161057" lon="-3.970466"><ele>1063</ele><time>2020-08-16T13:16:23Z</time><name>PT6255</name></trkpt>
<trkpt lat="53.161069" lon="-3.970465"><ele>1063</ele><time>2020-08-16T13:16:24Z</time><name>PT6256</name></trkpt>
<trkpt lat="53.161078" lon="-3.970463"><ele>1063</ele><time>2020-08-16T13:16:25Z</time><name>PT6257</name></trkpt>
<trkpt lat="53.161087" lon="-3.970461"><ele>1063</ele><time>2020-08-16T13:16:26Z</time><name>PT6258</name></trkpt>
<trkpt lat="53.161099" lon="-3.970459"><ele>1063</ele><time>2020-08-16T13:16:27Z</time><name>PT6259</name></trkpt>
<trkpt lat="53.161110" lon="-3.970457"><ele>1063</ele><time>2020-08-16T13:16:28Z</time><name>PT6260</name></trkpt>
<trkpt lat="53.161118" lon="-3.970455"><ele>1063</ele><time>2020-08-16T13:16:29Z</time><name>PT6261</name></trkpt>
<trkpt lat="53.161128" lon="-3.970451"><ele>1063</ele><time>2020-08-16T13:16:30Z</time><name>PT6262</name></trkpt>
<trkpt lat="53.161138" lon="-3.970448"><ele>1063</ele><time>2020-08-16T13:16:31Z</time><name>PT6263</name></trkpt>
<trkpt lat="53.161149" lon="-3.970443"><ele>1063</ele><time>2020-08-16T13:16:32Z</time><name>PT6264</name></trkpt>
<trkpt lat="53.161157" lon="-3.970436"><ele>1062</ele><time>2020-08-16T13:16:33Z</time><name>PT6265</name></trkpt>
<trkpt lat="53.161166" lon="-3.970427"><ele>1062</ele><time>2020-08-16T13:16:34Z</time><name>PT6266</name></trkpt>
<trkpt lat="53.161176" lon="-3.970421"><ele>1062</ele><time>2020-08-16T13:16:35Z</time><name>PT6267</name></trkpt>
<trkpt lat="53.161187" lon="-3.970419"><ele>1062</ele><time>2020-08-16T13:16:36Z</time><name>PT6268</name></trkpt>
<trkpt lat="53.161199" lon="-3.970416"><ele>1062</ele><time>2020-08-16T13:16:37Z</time><name>PT6269</name></trkpt>
<trkpt lat="53.161209" lon="-3.970413"><ele>1062</ele><time>2020-08-16T13:16:38Z</time><name>PT6270</name></trkpt>
<trkpt lat="53.161220" lon="-3.970407"><ele>1062</ele><time>2020-08-16T13:16:39Z</time><name>PT6271</name></trkpt>
<trkpt lat="53.161230" lon="-3.970400"><ele>1062</ele><time>2020-08-16T13:16:40Z</time><name>PT6272</name></trkpt>
<trkpt lat="53.161241" lon="-3.970394"><ele>1062</ele><time>2020-08-16T13:16:41Z</time><name>PT6273</name></trkpt>
<trkpt lat="53.161250" lon="-3.970389"><ele>1062</ele><time>2020-08-16T13:16:42Z</time><name>PT6274</name></trkpt>
<trkpt lat="53.161258" lon="-3.970381"><ele>1062</ele><time>2020-08-16T13:16:43Z</time><name>PT6275</name></trkpt>
<trkpt lat="53.161266" lon="-3.970376"><ele>1062</ele><time>2020-08-16T13:16:44Z</time><name>PT6276</name></trkpt>
<trkpt lat="53.161276" lon="-3.970372"><ele>1062</ele><time>2020-08-16T13:16:45Z</time><name>PT6277</name></trkpt>
<trkpt lat="53.161283" lon="-3.970366"><ele>1063</ele><time>2020-08-16T13:16:46Z</time><name>PT6278</name></trkpt>
<trkpt lat="53.161293" lon="-3.970362"><ele>1063</ele><time>2020-08-16T13:16:47Z</time><name>PT6279</name></trkpt>
<trkpt lat="53.161302" lon="-3.970359"><ele>1063</ele><time>2020-08-16T13:16:48Z</time><name>PT6280</name></trkpt>
<trkpt lat="53.161312" lon="-3.970353"><ele>1063</ele><time>2020-08-16T13:16:49Z</time><name>PT6281</name></trkpt>
<trkpt lat="53.161321" lon="-3.970344"><ele>1062</ele><time>2020-08-16T13:16:50Z</time><name>PT6282</name></trkpt>
<trkpt lat="53.161332" lon="-3.970337"><ele>1062</ele><time>2020-08-16T13:16:51Z</time><name>PT6283</name></trkpt>
<trkpt lat="53.161341" lon="-3.970329"><ele>1062</ele><time>2020-08-16T13:16:52Z</time><name>PT6284</name></trkpt>
<trkpt lat="53.161349" lon="-3.970318"><ele>1062</ele><time>2020-08-16T13:16:53Z</time><name>PT6285</name></trkpt>
<trkpt lat="53.161356" lon="-3.970307"><ele>1062</ele><time>2020-08-16T13:16:54Z</time><name>PT6286</name></trkpt>
<trkpt lat="53.161363" lon="-3.970296"><ele>1061</ele><time>2020-08-16T13:16:55Z</time><name>PT6287</name></trkpt>
<trkpt lat="53.161369" lon="-3.970289"><ele>1061</ele><time>2020-08-16T13:16:56Z</time><name>PT6288</name></trkpt>
<trkpt lat="53.161377" lon="-3.970280"><ele>1061</ele><time>2020-08-16T13:16:57Z</time><name>PT6289</name></trkpt>
<trkpt lat="53.161384" lon="-3.970270"><ele>1061</ele><time>2020-08-16T13:16:58Z</time><name>PT6290</name></trkpt>
<trkpt lat="53.161392" lon="-3.970261"><ele>1060</ele><time>2020-08-16T13:16:59Z</time><name>PT6291</name></trkpt>
<trkpt lat="53.161400" lon="-3.970253"><ele>1060</ele><time>2020-08-16T13:17:00Z</time><name>PT6292</name></trkpt>
<trkpt lat="53.161408" lon="-3.970250"><ele>1060</ele><time>2020-08-16T13:17:01Z</time><name>PT6293</name></trkpt>
<trkpt lat="53.161418" lon="-3.970250"><ele>1060</ele><time>2020-08-16T13:17:02Z</time><name>PT6294</name></trkpt>
<trkpt lat="53.161428" lon="-3.970248"><ele>1059</ele><time>2020-08-16T13:17:03Z</time><name>PT6295</name></trkpt>
<trkpt lat="53.161439" lon="-3.970245"><ele>1059</ele><time>2020-08-16T13:17:04Z</time><name>PT6296</name></trkpt>
<trkpt lat="53.161450" lon="-3.970245"><ele>1059</ele><time>2020-08-16T13:17:05Z</time><name>PT6297</name></trkpt>
<trkpt lat="53.161459" lon="-3.970243"><ele>1059</ele><time>2020-08-16T13:17:06Z</time><name>PT6298</name></trkpt>
<trkpt lat="53.161467" lon="-3.970242"><ele>1059</ele><time>2020-08-16T13:17:07Z</time><name>PT6299</name></trkpt>
<trkpt lat="53.161476" lon="-3.970238"><ele>1059</ele><time>2020-08-16T13:17:08Z</time><name>PT6300</name></trkpt>
<trkpt lat="53.161486" lon="-3.970236"><ele>1059</ele><time>2020-08-16T13:17:09Z</time><name>PT6301</name></trkpt>
<trkpt lat="53.161494" lon="-3.970234"><ele>1059</ele><time>2020-08-16T13:17:10Z</time><name>PT6302</name></trkpt>
<trkpt lat="53.161503" lon="-3.970228"><ele>1058</ele><time>2020-08-16T13:17:11Z</time><name>PT6303</name></trkpt>
<trkpt lat="53.161509" lon="-3.970223"><ele>1058</ele><time>2020-08-16T13:17:12Z</time><name>PT6304</name></trkpt>
<trkpt lat="53.161518" lon="-3.970214"><ele>1058</ele><time>2020-08-16T13:17:13Z</time><name>PT6305</name></trkpt>
<trkpt lat="53.161529" lon="-3.970204"><ele>1058</ele><time>2020-08-16T13:17:14Z</time><name>PT6306</name></trkpt>
<trkpt lat="53.161539" lon="-3.970197"><ele>1057</ele><time>2020-08-16T13:17:15Z</time><name>PT6307</name></trkpt>
<trkpt lat="53.161548" lon="-3.970190"><ele>1057</ele><time>2020-08-16T13:17:16Z</time><name>PT6308</name></trkpt>
<trkpt lat="53.161557" lon="-3.970183"><ele>1057</ele><time>2020-08-16T13:17:17Z</time><name>PT6309</name></trkpt>
<trkpt lat="53.161565" lon="-3.970175"><ele>1057</ele><time>2020-08-16T13:17:18Z</time><name>PT6310</name></trkpt>
<trkpt lat="53.161573" lon="-3.970162"><ele>1057</ele><time>2020-08-16T13:17:19Z</time><name>PT6311</name></trkpt>
<trkpt lat="53.161579" lon="-3.970149"><ele>1057</ele><time>2020-08-16T13:17:20Z</time><name>PT6312</name></trkpt>
<trkpt lat="53.161586" lon="-3.970137"><ele>1057</ele><time>2020-08-16T13:17:21Z</time><name>PT6313</name></trkpt>
<trkpt lat="53.161594" lon="-3.970127"><ele>1057</ele><time>2020-08-16T13:17:22Z</time><name>PT6314</name></trkpt>
<trkpt lat="53.161601" lon="-3.970118"><ele>1056</ele><time>2020-08-16T13:17:23Z</time><name>PT6315</name></trkpt>
<trkpt lat="53.161607" lon="-3.970107"><ele>1057</ele><time>2020-08-16T13:17:24Z</time><name>PT6316</name></trkpt>
<trkpt lat="53.161616" lon="-3.970093"><ele>1056</ele><time>2020-08-16T13:17:25Z</time><name>PT6317</name></trkpt>
<trkpt lat="53.161624" lon="-3.970081"><ele>1056</ele><time>2020-08-16T13:17:26Z</time><name>PT6318</name></trkpt>
<trkpt lat="53.161631" lon="-3.970069"><ele>1056</ele><time>2020-08-16T13:17:27Z</time><name>PT6319</name></trkpt>
<trkpt lat="53.161636" lon="-3.970059"><ele>1056</ele><time>2020-08-16T13:17:28Z</time><name>PT6320</name></trkpt>
<trkpt lat="53.161641" lon="-3.970049"><ele>1057</ele><time>2020-08-16T13:17:29Z</time><name>PT6321</name></trkpt>
<trkpt lat="53.161647" lon="-3.970046"><ele>1057</ele><time>2020-08-16T13:17:30Z</time><name>PT6322</name></trkpt>
<trkpt lat="53.161655" lon="-3.970046"><ele>1057</ele><time>2020-08-16T13:17:31Z</time><name>PT6323</name></trkpt>
<trkpt lat="53.161664" lon="-3.970046"><ele>1057</ele><time>2020-08-16T13:17:32Z</time><name>PT6324</name></trkpt>
<trkpt lat="53.161674" lon="-3.970044"><ele>1057</ele><time>2020-08-16T13:17:33Z</time><name>PT6325</name></trkpt>
<trkpt lat="53.161685" lon="-3.970045"><ele>1057</ele><time>2020-08-16T13:17:34Z</time><name>PT6326</name></trkpt>
<trkpt lat="53.161695" lon="-3.970050"><ele>1057</ele><time>2020-08-16T13:17:35Z</time><name>PT6327</name></trkpt>
<trkpt lat="53.161705" lon="-3.970053"><ele>1057</ele><time>2020-08-16T13:17:36Z</time><name>PT6328</name></trkpt>
<trkpt lat="53.161714" lon="-3.970054"><ele>1057</ele><time>2020-08-16T13:17:37Z</time><name>PT6329</name></trkpt>
<trkpt lat="53.161724" lon="-3.970057"><ele>1056</ele><time>2020-08-16T13:17:38Z</time><name>PT6330</name></trkpt>
<trkpt lat="53.161733" lon="-3.970064"><ele>1056</ele><time>2020-08-16T13:17:39Z</time><name>PT6331</name></trkpt>
<trkpt lat="53.161743" lon="-3.970068"><ele>1056</ele><time>2020-08-16T13:17:40Z</time><name>PT6332</name></trkpt>
<trkpt lat="53.161753" lon="-3.970077"><ele>1055</ele><time>2020-08-16T13:17:41Z</time><name>PT6333</name></trkpt>
<trkpt lat="53.161762" lon="-3.970085"><ele>1055</ele><time>2020-08-16T13:17:42Z</time><name>PT6334</name></trkpt>
<trkpt lat="53.161772" lon="-3.970092"><ele>1055</ele><time>2020-08-16T13:17:43Z</time><name>PT6335</name></trkpt>
<trkpt lat="53.161782" lon="-3.970099"><ele>1055</ele><time>2020-08-16T13:17:44Z</time><name>PT6336</name></trkpt>
<trkpt lat="53.161791" lon="-3.970102"><ele>1055</ele><time>2020-08-16T13:17:45Z</time><name>PT6337</name></trkpt>
<trkpt lat="53.161802" lon="-3.970106"><ele>1055</ele><time>2020-08-16T13:17:46Z</time><name>PT6338</name></trkpt>
<trkpt lat="53.161812" lon="-3.970109"><ele>1055</ele><time>2020-08-16T13:17:47Z</time><name>PT6339</name></trkpt>
<trkpt lat="53.161821" lon="-3.970111"><ele>1055</ele><time>2020-08-16T13:17:48Z</time><name>PT6340</name></trkpt>
<trkpt lat="53.161832" lon="-3.970117"><ele>1055</ele><time>2020-08-16T13:17:49Z</time><name>PT6341</name></trkpt>
<trkpt lat="53.161842" lon="-3.970122"><ele>1055</ele><time>2020-08-16T13:17:50Z</time><name>PT6342</name></trkpt>
<trkpt lat="53.161852" lon="-3.970128"><ele>1055</ele><time>2020-08-16T13:17:51Z</time><name>PT6343</name></trkpt>
<trkpt lat="53.161862" lon="-3.970137"><ele>1055</ele><time>2020-08-16T13:17:52Z</time><name>PT6344</name></trkpt>
<trkpt lat="53.161870" lon="-3.970144"><ele>1055</ele><time>2020-08-16T13:17:53Z</time><name>PT6345</name></trkpt>
<trkpt lat="53.161879" lon="-3.970148"><ele>1055</ele><time>2020-08-16T13:17:54Z</time><name>PT6346</name></trkpt>
<trkpt lat="53.161888" lon="-3.970148"><ele>1055</ele><time>2020-08-16T13:17:55Z</time><name>PT6347</name></trkpt>
<trkpt lat="53.161898" lon="-3.970145"><ele>1055</ele><time>2020-08-16T13:17:56Z</time><name>PT6348</name></trkpt>
<trkpt lat="53.161908" lon="-3.970139"><ele>1055</ele><time>2020-08-16T13:17:57Z</time><name>PT6349</name></trkpt>
<trkpt lat="53.161918" lon="-3.970134"><ele>1055</ele><time>2020-08-16T13:17:58Z</time><name>PT6350</name></trkpt>
<trkpt lat="53.161928" lon="-3.970128"><ele>1054</ele><time>2020-08-16T13:17:59Z</time><name>PT6351</name></trkpt>
<trkpt lat="53.161938" lon="-3.970119"><ele>1054</ele><time>2020-08-16T13:18:00Z</time><name>PT6352</name></trkpt>
<trkpt lat="53.161948" lon="-3.970110"><ele>1054</ele><time>2020-08-16T13:18:01Z</time><name>PT6353</name></trkpt>
<trkpt lat="53.161959" lon="-3.970098"><ele>1054</ele><time>2020-08-16T13:18:02Z</time><name>PT6354</name></trkpt>
<trkpt lat="53.161968" lon="-3.970087"><ele>1054</ele><time>2020-08-16T13:18:03Z</time><name>PT6355</name></trkpt>
<trkpt lat="53.161976" lon="-3.970077"><ele>1054</ele><time>2020-08-16T13:18:04Z</time><name>PT6356</name></trkpt>
<trkpt lat="53.161983" lon="-3.970064"><ele>1054</ele><time>2020-08-16T13:18:05Z</time><name>PT6357</name></trkpt>
<trkpt lat="53.161991" lon="-3.970050"><ele>1054</ele><time>2020-08-16T13:18:06Z</time><name>PT6358</name></trkpt>
<trkpt lat="53.161998" lon="-3.970035"><ele>1054</ele><time>2020-08-16T13:18:07Z</time><name>PT6359</name></trkpt>
<trkpt lat="53.162005" lon="-3.970019"><ele>1054</ele><time>2020-08-16T13:18:08Z</time><name>PT6360</name></trkpt>
<trkpt lat="53.162011" lon="-3.970003"><ele>1054</ele><time>2020-08-16T13:18:09Z</time><name>PT6361</name></trkpt>
<trkpt lat="53.162016" lon="-3.969987"><ele>1054</ele><time>2020-08-16T13:18:10Z</time><name>PT6362</name></trkpt>
<trkpt lat="53.162024" lon="-3.969971"><ele>1054</ele><time>2020-08-16T13:18:11Z</time><name>PT6363</name></trkpt>
<trkpt lat="53.162032" lon="-3.969956"><ele>1054</ele><time>2020-08-16T13:18:12Z</time><name>PT6364</name></trkpt>
<trkpt lat="53.162041" lon="-3.969939"><ele>1054</ele><time>2020-08-16T13:18:13Z</time><name>PT6365</name></trkpt>
<trkpt lat="53.162048" lon="-3.969925"><ele>1054</ele><time>2020-08-16T13:18:14Z</time><name>PT6366</name></trkpt>
<trkpt lat="53.162054" lon="-3.969909"><ele>1053</ele><time>2020-08-16T13:18:15Z</time><name>PT6367</name></trkpt>
<trkpt lat="53.162059" lon="-3.969895"><ele>1053</ele><time>2020-08-16T13:18:16Z</time><name>PT6368</name></trkpt>
<trkpt lat="53.162065" lon="-3.969883"><ele>1053</ele><time>2020-08-16T13:18:17Z</time><name>PT6369</name></trkpt>
<trkpt lat="53.162070" lon="-3.969870"><ele>1053</ele><time>2020-08-16T13:18:18Z</time><name>PT6370</name></trkpt>
<trkpt lat="53.162076" lon="-3.969855"><ele>1053</ele><time>2020-08-16T13:18:19Z</time><name>PT6371</name></trkpt>
<trkpt lat="53.162083" lon="-3.969841"><ele>1053</ele><time>2020-08-16T13:18:20Z</time><name>PT6372</name></trkpt>
<trkpt lat="53.162088" lon="-3.969827"><ele>1053</ele><time>2020-08-16T13:18:21Z</time><name>PT6373</name></trkpt>
<trkpt lat="53.162092" lon="-3.969816"><ele>1053</ele><time>2020-08-16T13:18:22Z</time><name>PT6374</name></trkpt>
<trkpt lat="53.162096" lon="-3.969804"><ele>1053</ele><time>2020-08-16T13:18:23Z</time><name>PT6375</name></trkpt>
<trkpt lat="53.162102" lon="-3.969789"><ele>1053</ele><time>2020-08-16T13:18:24Z</time><name>PT6376</name></trkpt>
<trkpt lat="53.162106" lon="-3.969777"><ele>1052</ele><time>2020-08-16T13:18:25Z</time><name>PT6377</name></trkpt>
<trkpt lat="53.162113" lon="-3.969763"><ele>1052</ele><time>2020-08-16T13:18:26Z</time><name>PT6378</name></trkpt>
<trkpt lat="53.162118" lon="-3.969753"><ele>1052</ele><time>2020-08-16T13:18:27Z</time><name>PT6379</name></trkpt>
<trkpt lat="53.162125" lon="-3.969739"><ele>1052</ele><time>2020-08-16T13:18:28Z</time><name>PT6380</name></trkpt>
<trkpt lat="53.162130" lon="-3.969724"><ele>1052</ele><time>2020-08-16T13:18:29Z</time><name>PT6381</name></trkpt>
<trkpt lat="53.162138" lon="-3.969712"><ele>1052</ele><time>2020-08-16T13:18:30Z</time><name>PT6382</name></trkpt>
<trkpt lat="53.162146" lon="-3.969698"><ele>1052</ele><time>2020-08-16T13:18:31Z</time><name>PT6383</name></trkpt>
<trkpt lat="53.162152" lon="-3.969687"><ele>1052</ele><time>2020-08-16T13:18:32Z</time><name>PT6384</name></trkpt>
<trkpt lat="53.162158" lon="-3.969674"><ele>1052</ele><time>2020-08-16T13:18:33Z</time><name>PT6385</name></trkpt>
<trkpt lat="53.162163" lon="-3.969661"><ele>1052</ele><time>2020-08-16T13:18:34Z</time><name>PT6386</name></trkpt>
<trkpt lat="53.162169" lon="-3.969648"><ele>1052</ele><time>2020-08-16T13:18:35Z</time><name>PT6387</name></trkpt>
<trkpt lat="53.162176" lon="-3.969640"><ele>1052</ele><time>2020-08-16T13:18:36Z</time><name>PT6388</name></trkpt>
<trkpt lat="53.162185" lon="-3.969632"><ele>1051</ele><time>2020-08-16T13:18:37Z</time><name>PT6389</name></trkpt>
<trkpt lat="53.162194" lon="-3.969628"><ele>1051</ele><time>2020-08-16T13:18:38Z</time><name>PT6390</name></trkpt>
<trkpt lat="53.162202" lon="-3.969619"><ele>1051</ele><time>2020-08-16T13:18:39Z</time><name>PT6391</name></trkpt>
<trkpt lat="53.162208" lon="-3.969609"><ele>1051</ele><time>2020-08-16T13:18:40Z</time><name>PT6392</name></trkpt>
<trkpt lat="53.162213" lon="-3.969593"><ele>1051</ele><time>2020-08-16T13:18:41Z</time><name>PT6393</name></trkpt>
<trkpt lat="53.162215" lon="-3.969577"><ele>1051</ele><time>2020-08-16T13:18:42Z</time><name>PT6394</name></trkpt>
<trkpt lat="53.162217" lon="-3.969561"><ele>1051</ele><time>2020-08-16T13:18:43Z</time><name>PT6395</name></trkpt>
<trkpt lat="53.162220" lon="-3.969551"><ele>1051</ele><time>2020-08-16T13:18:44Z</time><name>PT6396</name></trkpt>
<trkpt lat="53.162224" lon="-3.969539"><ele>1051</ele><time>2020-08-16T13:18:45Z</time><name>PT6397</name></trkpt>
<trkpt lat="53.162227" lon="-3.969530"><ele>1050</ele><time>2020-08-16T13:18:46Z</time><name>PT6398</name></trkpt>
<trkpt lat="53.162231" lon="-3.969521"><ele>1050</ele><time>2020-08-16T13:18:47Z</time><name>PT6399</name></trkpt>
<trkpt lat="53.162239" lon="-3.969516"><ele>1050</ele><time>2020-08-16T13:18:48Z</time><name>PT6400</name></trkpt>
<trkpt lat="53.162260" lon="-3.969507"><ele>1050</ele><time>2020-08-16T13:18:51Z</time><name>PT6401</name></trkpt>
<trkpt lat="53.162280" lon="-3.969487"><ele>1049</ele><time>2020-08-16T13:18:54Z</time><name>PT6402</name></trkpt>
<trkpt lat="53.162284" lon="-3.969477"><ele>1049</ele><time>2020-08-16T13:18:55Z</time><name>PT6403</name></trkpt>
<trkpt lat="53.162290" lon="-3.969467"><ele>1049</ele><time>2020-08-16T13:18:56Z</time><name>PT6404</name></trkpt>
<trkpt lat="53.162294" lon="-3.969460"><ele>1049</ele><time>2020-08-16T13:18:57Z</time><name>PT6405</name></trkpt>
<trkpt lat="53.162297" lon="-3.969451"><ele>1049</ele><time>2020-08-16T13:18:58Z</time><name>PT6406</name></trkpt>
<trkpt lat="53.162302" lon="-3.969440"><ele>1049</ele><time>2020-08-16T13:18:59Z</time><name>PT6407</name></trkpt>
<trkpt lat="53.162307" lon="-3.969431"><ele>1048</ele><time>2020-08-16T13:19:00Z</time><name>PT6408</name></trkpt>
<trkpt lat="53.162313" lon="-3.969421"><ele>1048</ele><time>2020-08-16T13:19:01Z</time><name>PT6409</name></trkpt>
<trkpt lat="53.162319" lon="-3.969410"><ele>1048</ele><time>2020-08-16T13:19:02Z</time><name>PT6410</name></trkpt>
<trkpt lat="53.162325" lon="-3.969400"><ele>1048</ele><time>2020-08-16T13:19:03Z</time><name>PT6411</name></trkpt>
<trkpt lat="53.162331" lon="-3.969389"><ele>1048</ele><time>2020-08-16T13:19:04Z</time><name>PT6412</name></trkpt>
<trkpt lat="53.162336" lon="-3.969382"><ele>1047</ele><time>2020-08-16T13:19:05Z</time><name>PT6413</name></trkpt>
<trkpt lat="53.162343" lon="-3.969372"><ele>1047</ele><time>2020-08-16T13:19:06Z</time><name>PT6414</name></trkpt>
<trkpt lat="53.162350" lon="-3.969361"><ele>1047</ele><time>2020-08-16T13:19:07Z</time><name>PT6415</name></trkpt>
<trkpt lat="53.162356" lon="-3.969349"><ele>1047</ele><time>2020-08-16T13:19:08Z</time><name>PT6416</name></trkpt>
<trkpt lat="53.162360" lon="-3.969340"><ele>1047</ele><time>2020-08-16T13:19:09Z</time><name>PT6417</name></trkpt>
<trkpt lat="53.162366" lon="-3.969332"><ele>1047</ele><time>2020-08-16T13:19:10Z</time><name>PT6418</name></trkpt>
<trkpt lat="53.162371" lon="-3.969324"><ele>1046</ele><time>2020-08-16T13:19:11Z</time><name>PT6419</name></trkpt>
<trkpt lat="53.162379" lon="-3.969316"><ele>1046</ele><time>2020-08-16T13:19:12Z</time><name>PT6420</name></trkpt>
<trkpt lat="53.162387" lon="-3.969311"><ele>1046</ele><time>2020-08-16T13:19:13Z</time><name>PT6421</name></trkpt>
<trkpt lat="53.162393" lon="-3.969304"><ele>1046</ele><time>2020-08-16T13:19:14Z</time><name>PT6422</name></trkpt>
<trkpt lat="53.162401" lon="-3.969294"><ele>1046</ele><time>2020-08-16T13:19:15Z</time><name>PT6423</name></trkpt>
<trkpt lat="53.162408" lon="-3.969287"><ele>1046</ele><time>2020-08-16T13:19:16Z</time><name>PT6424</name></trkpt>
<trkpt lat="53.162415" lon="-3.969280"><ele>1046</ele><time>2020-08-16T13:19:17Z</time><name>PT6425</name></trkpt>
<trkpt lat="53.162422" lon="-3.969278"><ele>1046</ele><time>2020-08-16T13:19:18Z</time><name>PT6426</name></trkpt>
<trkpt lat="53.162428" lon="-3.969273"><ele>1046</ele><time>2020-08-16T13:19:19Z</time><name>PT6427</name></trkpt>
<trkpt lat="53.162434" lon="-3.969262"><ele>1046</ele><time>2020-08-16T13:19:20Z</time><name>PT6428</name></trkpt>
<trkpt lat="53.162439" lon="-3.969248"><ele>1046</ele><time>2020-08-16T13:19:21Z</time><name>PT6429</name></trkpt>
<trkpt lat="53.162445" lon="-3.969237"><ele>1046</ele><time>2020-08-16T13:19:22Z</time><name>PT6430</name></trkpt>
<trkpt lat="53.162449" lon="-3.969223"><ele>1046</ele><time>2020-08-16T13:19:23Z</time><name>PT6431</name></trkpt>
<trkpt lat="53.162452" lon="-3.969209"><ele>1046</ele><time>2020-08-16T13:19:24Z</time><name>PT6432</name></trkpt>
<trkpt lat="53.162456" lon="-3.969196"><ele>1046</ele><time>2020-08-16T13:19:25Z</time><name>PT6433</name></trkpt>
<trkpt lat="53.162459" lon="-3.969182"><ele>1047</ele><time>2020-08-16T13:19:26Z</time><name>PT6434</name></trkpt>
<trkpt lat="53.162461" lon="-3.969166"><ele>1047</ele><time>2020-08-16T13:19:27Z</time><name>PT6435</name></trkpt>
<trkpt lat="53.162462" lon="-3.969152"><ele>1047</ele><time>2020-08-16T13:19:28Z</time><name>PT6436</name></trkpt>
<trkpt lat="53.162460" lon="-3.969141"><ele>1047</ele><time>2020-08-16T13:19:29Z</time><name>PT6437</name></trkpt>
<trkpt lat="53.162460" lon="-3.969129"><ele>1047</ele><time>2020-08-16T13:19:30Z</time><name>PT6438</name></trkpt>
<trkpt lat="53.162462" lon="-3.969120"><ele>1047</ele><time>2020-08-16T13:19:31Z</time><name>PT6439</name></trkpt>
<trkpt lat="53.162466" lon="-3.969111"><ele>1047</ele><time>2020-08-16T13:19:32Z</time><name>PT6440</name></trkpt>
<trkpt lat="53.162470" lon="-3.969102"><ele>1047</ele><time>2020-08-16T13:19:33Z</time><name>PT6441</name></trkpt>
<trkpt lat="53.162474" lon="-3.969092"><ele>1047</ele><time>2020-08-16T13:19:34Z</time><name>PT6442</name></trkpt>
<trkpt lat="53.162477" lon="-3.969080"><ele>1047</ele><time>2020-08-16T13:19:35Z</time><name>PT6443</name></trkpt>
<trkpt lat="53.162480" lon="-3.969067"><ele>1047</ele><time>2020-08-16T13:19:36Z</time><name>PT6444</name></trkpt>
<trkpt lat="53.162483" lon="-3.969052"><ele>1046</ele><time>2020-08-16T13:19:37Z</time><name>PT6445</name></trkpt>
<trkpt lat="53.162487" lon="-3.969043"><ele>1046</ele><time>2020-08-16T13:19:38Z</time><name>PT6446</name></trkpt>
<trkpt lat="53.162490" lon="-3.969032"><ele>1046</ele><time>2020-08-16T13:19:39Z</time><name>PT6447</name></trkpt>
<trkpt lat="53.162497" lon="-3.969025"><ele>1046</ele><time>2020-08-16T13:19:40Z</time><name>PT6448</name></trkpt>
<trkpt lat="53.162502" lon="-3.969016"><ele>1046</ele><time>2020-08-16T13:19:41Z</time><name>PT6449</name></trkpt>
<trkpt lat="53.162507" lon="-3.969010"><ele>1046</ele><time>2020-08-16T13:19:42Z</time><name>PT6450</name></trkpt>
<trkpt lat="53.162510" lon="-3.969001"><ele>1045</ele><time>2020-08-16T13:19:43Z</time><name>PT6451</name></trkpt>
<trkpt lat="53.162510" lon="-3.968986"><ele>1045</ele><time>2020-08-16T13:19:44Z</time><name>PT6452</name></trkpt>
<trkpt lat="53.162512" lon="-3.968971"><ele>1045</ele><time>2020-08-16T13:19:45Z</time><name>PT6453</name></trkpt>
<trkpt lat="53.162515" lon="-3.968960"><ele>1045</ele><time>2020-08-16T13:19:46Z</time><name>PT6454</name></trkpt>
<trkpt lat="53.162520" lon="-3.968950"><ele>1045</ele><time>2020-08-16T13:19:47Z</time><name>PT6455</name></trkpt>
<trkpt lat="53.162525" lon="-3.968944"><ele>1045</ele><time>2020-08-16T13:19:48Z</time><name>PT6456</name></trkpt>
<trkpt lat="53.162529" lon="-3.968940"><ele>1045</ele><time>2020-08-16T13:19:49Z</time><name>PT6457</name></trkpt>
<trkpt lat="53.162532" lon="-3.968933"><ele>1045</ele><time>2020-08-16T13:19:50Z</time><name>PT6458</name></trkpt>
<trkpt lat="53.162536" lon="-3.968922"><ele>1045</ele><time>2020-08-16T13:19:51Z</time><name>PT6459</name></trkpt>
<trkpt lat="53.162538" lon="-3.968913"><ele>1045</ele><time>2020-08-16T13:19:52Z</time><name>PT6460</name></trkpt>
<trkpt lat="53.162537" lon="-3.968901"><ele>1044</ele><time>2020-08-16T13:19:53Z</time><name>PT6461</name></trkpt>
<trkpt lat="53.162539" lon="-3.968890"><ele>1044</ele><time>2020-08-16T13:19:54Z</time><name>PT6462</name></trkpt>
<trkpt lat="53.162542" lon="-3.968877"><ele>1044</ele><time>2020-08-16T13:19:55Z</time><name>PT6463</name></trkpt>
<trkpt lat="53.162548" lon="-3.968865"><ele>1044</ele><time>2020-08-16T13:19:56Z</time><name>PT6464</name></trkpt>
<trkpt lat="53.162555" lon="-3.968862"><ele>1044</ele><time>2020-08-16T13:19:57Z</time><name>PT6465</name></trkpt>
<trkpt lat="53.162562" lon="-3.968860"><ele>1044</ele><time>2020-08-16T13:19:58Z</time><name>PT6466</name></trkpt>
<trkpt lat="53.162568" lon="-3.968856"><ele>1044</ele><time>2020-08-16T13:19:59Z</time><name>PT6467</name></trkpt>
<trkpt lat="53.162573" lon="-3.968852"><ele>1044</ele><time>2020-08-16T13:20:00Z</time><name>PT6468</name></trkpt>
<trkpt lat="53.162578" lon="-3.968842"><ele>1044</ele><time>2020-08-16T13:20:01Z</time><name>PT6469</name></trkpt>
<trkpt lat="53.162584" lon="-3.968831"><ele>1043</ele><time>2020-08-16T13:20:02Z</time><name>PT6470</name></trkpt>
<trkpt lat="53.162590" lon="-3.968822"><ele>1043</ele><time>2020-08-16T13:20:03Z</time><name>PT6471</name></trkpt>
<trkpt lat="53.162596" lon="-3.968815"><ele>1043</ele><time>2020-08-16T13:20:04Z</time><name>PT6472</name></trkpt>
<trkpt lat="53.162600" lon="-3.968806"><ele>1043</ele><time>2020-08-16T13:20:05Z</time><name>PT6473</name></trkpt>
<trkpt lat="53.162601" lon="-3.968796"><ele>1043</ele><time>2020-08-16T13:20:06Z</time><name>PT6474</name></trkpt>
<trkpt lat="53.162607" lon="-3.968782"><ele>1043</ele><time>2020-08-16T13:20:07Z</time><name>PT6475</name></trkpt>
<trkpt lat="53.162615" lon="-3.968775"><ele>1042</ele><time>2020-08-16T13:20:08Z</time><name>PT6476</name></trkpt>
<trkpt lat="53.162622" lon="-3.968786"><ele>1042</ele><time>2020-08-16T13:20:09Z</time><name>PT6477</name></trkpt>
<trkpt lat="53.162626" lon="-3.968777"><ele>1042</ele><time>2020-08-16T13:20:10Z</time><name>PT6478</name></trkpt>
<trkpt lat="53.162631" lon="-3.968776"><ele>1042</ele><time>2020-08-16T13:20:11Z</time><name>PT6479</name></trkpt>
<trkpt lat="53.162642" lon="-3.968771"><ele>1042</ele><time>2020-08-16T13:20:12Z</time><name>PT6480</name></trkpt>
<trkpt lat="53.162651" lon="-3.968767"><ele>1042</ele><time>2020-08-16T13:20:13Z</time><name>PT6481</name></trkpt>
<trkpt lat="53.162659" lon="-3.968768"><ele>1042</ele><time>2020-08-16T13:20:14Z</time><name>PT6482</name></trkpt>
<trkpt lat="53.162669" lon="-3.968767"><ele>1042</ele><time>2020-08-16T13:20:15Z</time><name>PT6483</name></trkpt>
<trkpt lat="53.162678" lon="-3.968762"><ele>1042</ele><time>2020-08-16T13:20:16Z</time><name>PT6484</name></trkpt>
<trkpt lat="53.162685" lon="-3.968754"><ele>1042</ele><time>2020-08-16T13:20:17Z</time><name>PT6485</name></trkpt>
<trkpt lat="53.162692" lon="-3.968749"><ele>1042</ele><time>2020-08-16T13:20:18Z</time><name>PT6486</name></trkpt>
<trkpt lat="53.162699" lon="-3.968744"><ele>1042</ele><time>2020-08-16T13:20:19Z</time><name>PT6487</name></trkpt>
<trkpt lat="53.162706" lon="-3.968737"><ele>1041</ele><time>2020-08-16T13:20:20Z</time><name>PT6488</name></trkpt>
<trkpt lat="53.162714" lon="-3.968730"><ele>1041</ele><time>2020-08-16T13:20:21Z</time><name>PT6489</name></trkpt>
<trkpt lat="53.162724" lon="-3.968728"><ele>1041</ele><time>2020-08-16T13:20:22Z</time><name>PT6490</name></trkpt>
<trkpt lat="53.162732" lon="-3.968725"><ele>1041</ele><time>2020-08-16T13:20:23Z</time><name>PT6491</name></trkpt>
<trkpt lat="53.162740" lon="-3.968720"><ele>1040</ele><time>2020-08-16T13:20:24Z</time><name>PT6492</name></trkpt>
<trkpt lat="53.162744" lon="-3.968715"><ele>1040</ele><time>2020-08-16T13:20:25Z</time><name>PT6493</name></trkpt>
<trkpt lat="53.162751" lon="-3.968709"><ele>1040</ele><time>2020-08-16T13:20:26Z</time><name>PT6494</name></trkpt>
<trkpt lat="53.162758" lon="-3.968702"><ele>1040</ele><time>2020-08-16T13:20:27Z</time><name>PT6495</name></trkpt>
<trkpt lat="53.162766" lon="-3.968694"><ele>1039</ele><time>2020-08-16T13:20:28Z</time><name>PT6496</name></trkpt>
<trkpt lat="53.162771" lon="-3.968687"><ele>1039</ele><time>2020-08-16T13:20:29Z</time><name>PT6497</name></trkpt>
<trkpt lat="53.162775" lon="-3.968683"><ele>1039</ele><time>2020-08-16T13:20:30Z</time><name>PT6498</name></trkpt>
<trkpt lat="53.162780" lon="-3.968677"><ele>1039</ele><time>2020-08-16T13:20:31Z</time><name>PT6499</name></trkpt>
<trkpt lat="53.162786" lon="-3.968673"><ele>1039</ele><time>2020-08-16T13:20:32Z</time><name>PT6500</name></trkpt>
<trkpt lat="53.162792" lon="-3.968668"><ele>1039</ele><time>2020-08-16T13:20:33Z</time><name>PT6501</name></trkpt>
<trkpt lat="53.162799" lon="-3.968662"><ele>1038</ele><time>2020-08-16T13:20:35Z</time><name>PT6502</name></trkpt>
<trkpt lat="53.162808" lon="-3.968664"><ele>1037</ele><time>2020-08-16T13:20:35Z</time><name>PT6503</name></trkpt>
<trkpt lat="53.162816" lon="-3.968660"><ele>1037</ele><time>2020-08-16T13:20:36Z</time><name>PT6504</name></trkpt>
<trkpt lat="53.162823" lon="-3.968656"><ele>1037</ele><time>2020-08-16T13:20:37Z</time><name>PT6505</name></trkpt>
<trkpt lat="53.162830" lon="-3.968650"><ele>1038</ele><time>2020-08-16T13:20:38Z</time><name>PT6506</name></trkpt>
<trkpt lat="53.162838" lon="-3.968641"><ele>1037</ele><time>2020-08-16T13:20:39Z</time><name>PT6507</name></trkpt>
<trkpt lat="53.162846" lon="-3.968632"><ele>1037</ele><time>2020-08-16T13:20:40Z</time><name>PT6508</name></trkpt>
<trkpt lat="53.162853" lon="-3.968625"><ele>1037</ele><time>2020-08-16T13:20:41Z</time><name>PT6509</name></trkpt>
<trkpt lat="53.162856" lon="-3.968621"><ele>1037</ele><time>2020-08-16T13:20:42Z</time><name>PT6510</name></trkpt>
<trkpt lat="53.162861" lon="-3.968612"><ele>1037</ele><time>2020-08-16T13:20:43Z</time><name>PT6511</name></trkpt>
<trkpt lat="53.162865" lon="-3.968602"><ele>1037</ele><time>2020-08-16T13:20:44Z</time><name>PT6512</name></trkpt>
<trkpt lat="53.162875" lon="-3.968598"><ele>1036</ele><time>2020-08-16T13:20:45Z</time><name>PT6513</name></trkpt>
<trkpt lat="53.162881" lon="-3.968597"><ele>1036</ele><time>2020-08-16T13:20:46Z</time><name>PT6514</name></trkpt>
<trkpt lat="53.162887" lon="-3.968591"><ele>1036</ele><time>2020-08-16T13:20:47Z</time><name>PT6515</name></trkpt>
<trkpt lat="53.162896" lon="-3.968591"><ele>1036</ele><time>2020-08-16T13:20:48Z</time><name>PT6516</name></trkpt>
<trkpt lat="53.162905" lon="-3.968595"><ele>1036</ele><time>2020-08-16T13:20:50Z</time><name>PT6517</name></trkpt>
<trkpt lat="53.162908" lon="-3.968599"><ele>1035</ele><time>2020-08-16T13:20:50Z</time><name>PT6518</name></trkpt>
<trkpt lat="53.162909" lon="-3.968600"><ele>1035</ele><time>2020-08-16T13:20:51Z</time><name>PT6519</name></trkpt>
<trkpt lat="53.162909" lon="-3.968604"><ele>1035</ele><time>2020-08-16T13:20:52Z</time><name>PT6520</name></trkpt>
<trkpt lat="53.162916" lon="-3.968609"><ele>1035</ele><time>2020-08-16T13:20:53Z</time><name>PT6521</name></trkpt>
<trkpt lat="53.162924" lon="-3.968618"><ele>1035</ele><time>2020-08-16T13:20:54Z</time><name>PT6522</name></trkpt>
<trkpt lat="53.162930" lon="-3.968627"><ele>1035</ele><time>2020-08-16T13:20:55Z</time><name>PT6523</name></trkpt>
<trkpt lat="53.162936" lon="-3.968637"><ele>1035</ele><time>2020-08-16T13:20:56Z</time><name>PT6524</name></trkpt>
<trkpt lat="53.162932" lon="-3.968644"><ele>1034</ele><time>2020-08-16T13:20:57Z</time><name>PT6525</name></trkpt>
<trkpt lat="53.162932" lon="-3.968645"><ele>1034</ele><time>2020-08-16T13:20:58Z</time><name>PT6526</name></trkpt>
<trkpt lat="53.162932" lon="-3.968644"><ele>1034</ele><time>2020-08-16T13:20:59Z</time><name>PT6527</name></trkpt>
<trkpt lat="53.162928" lon="-3.968643"><ele>1034</ele><time>2020-08-16T13:21:00Z</time><name>PT6528</name></trkpt>
<trkpt lat="53.162930" lon="-3.968642"><ele>1033</ele><time>2020-08-16T13:21:01Z</time><name>PT6529</name></trkpt>
<trkpt lat="53.162934" lon="-3.968646"><ele>1033</ele><time>2020-08-16T13:21:02Z</time><name>PT6530</name></trkpt>
<trkpt lat="53.162937" lon="-3.968649"><ele>1033</ele><time>2020-08-16T13:21:03Z</time><name>PT6531</name></trkpt>
<trkpt lat="53.162941" lon="-3.968652"><ele>1033</ele><time>2020-08-16T13:21:05Z</time><name>PT6532</name></trkpt>
<trkpt lat="53.162941" lon="-3.968657"><ele>1033</ele><time>2020-08-16T13:21:05Z</time><name>PT6533</name></trkpt>
<trkpt lat="53.162947" lon="-3.968666"><ele>1033</ele><time>2020-08-16T13:21:06Z</time><name>PT6534</name></trkpt>
<trkpt lat="53.162953" lon="-3.968672"><ele>1033</ele><time>2020-08-16T13:21:07Z</time><name>PT6535</name></trkpt>
<trkpt lat="53.162957" lon="-3.968675"><ele>1033</ele><time>2020-08-16T13:21:08Z</time><name>PT6536</name></trkpt>
<trkpt lat="53.162961" lon="-3.968673"><ele>1032</ele><time>2020-08-16T13:21:09Z</time><name>PT6537</name></trkpt>
<trkpt lat="53.162969" lon="-3.968674"><ele>1032</ele><time>2020-08-16T13:21:10Z</time><name>PT6538</name></trkpt>
<trkpt lat="53.162971" lon="-3.968677"><ele>1032</ele><time>2020-08-16T13:21:11Z</time><name>PT6539</name></trkpt>
<trkpt lat="53.162977" lon="-3.968676"><ele>1032</ele><time>2020-08-16T13:21:12Z</time><name>PT6540</name></trkpt>
<trkpt lat="53.162982" lon="-3.968674"><ele>1032</ele><time>2020-08-16T13:21:13Z</time><name>PT6541</name></trkpt>
<trkpt lat="53.162985" lon="-3.968668"><ele>1032</ele><time>2020-08-16T13:21:14Z</time><name>PT6542</name></trkpt>
<trkpt lat="53.162987" lon="-3.968657"><ele>1032</ele><time>2020-08-16T13:21:15Z</time><name>PT6543</name></trkpt>
<trkpt lat="53.162985" lon="-3.968648"><ele>1032</ele><time>2020-08-16T13:21:16Z</time><name>PT6544</name></trkpt>
<trkpt lat="53.162987" lon="-3.968643"><ele>1032</ele><time>2020-08-16T13:21:17Z</time><name>PT6545</name></trkpt>
<trkpt lat="53.162990" lon="-3.968631"><ele>1032</ele><time>2020-08-16T13:21:18Z</time><name>PT6546</name></trkpt>
<trkpt lat="53.162989" lon="-3.968629"><ele>1032</ele><time>2020-08-16T13:21:19Z</time><name>PT6547</name></trkpt>
<trkpt lat="53.162985" lon="-3.968624"><ele>1031</ele><time>2020-08-16T13:21:20Z</time><name>PT6548</name></trkpt>
<trkpt lat="53.162985" lon="-3.968617"><ele>1032</ele><time>2020-08-16T13:21:21Z</time><name>PT6549</name></trkpt>
<trkpt lat="53.162988" lon="-3.968613"><ele>1032</ele><time>2020-08-16T13:21:22Z</time><name>PT6550</name></trkpt>
<trkpt lat="53.162987" lon="-3.968611"><ele>1032</ele><time>2020-08-16T13:21:23Z</time><name>PT6551</name></trkpt>
<trkpt lat="53.162984" lon="-3.968607"><ele>1031</ele><time>2020-08-16T13:21:24Z</time><name>PT6552</name></trkpt>
<trkpt lat="53.162988" lon="-3.968615"><ele>1031</ele><time>2020-08-16T13:21:25Z</time><name>PT6553</name></trkpt>
<trkpt lat="53.162992" lon="-3.968620"><ele>1030</ele><time>2020-08-16T13:21:26Z</time><name>PT6554</name></trkpt>
<trkpt lat="53.162994" lon="-3.968618"><ele>1030</ele><time>2020-08-16T13:21:27Z</time><name>PT6555</name></trkpt>
<trkpt lat="53.162998" lon="-3.968615"><ele>1030</ele><time>2020-08-16T13:21:28Z</time><name>PT6556</name></trkpt>
<trkpt lat="53.163002" lon="-3.968597"><ele>1031</ele><time>2020-08-16T13:21:29Z</time><name>PT6557</name></trkpt>
<trkpt lat="53.163001" lon="-3.968590"><ele>1030</ele><time>2020-08-16T13:21:30Z</time><name>PT6558</name></trkpt>
<trkpt lat="53.163002" lon="-3.968582"><ele>1030</ele><time>2020-08-16T13:21:31Z</time><name>PT6559</name></trkpt>
<trkpt lat="53.163004" lon="-3.968576"><ele>1030</ele><time>2020-08-16T13:21:32Z</time><name>PT6560</name></trkpt>
<trkpt lat="53.163007" lon="-3.968571"><ele>1030</ele><time>2020-08-16T13:21:33Z</time><name>PT6561</name></trkpt>
<trkpt lat="53.163016" lon="-3.968561"><ele>1030</ele><time>2020-08-16T13:21:34Z</time><name>PT6562</name></trkpt>
<trkpt lat="53.163023" lon="-3.968553"><ele>1030</ele><time>2020-08-16T13:21:35Z</time><name>PT6563</name></trkpt>
<trkpt lat="53.163028" lon="-3.968547"><ele>1030</ele><time>2020-08-16T13:21:36Z</time><name>PT6564</name></trkpt>
<trkpt lat="53.163032" lon="-3.968543"><ele>1030</ele><time>2020-08-16T13:21:37Z</time><name>PT6565</name></trkpt>
<trkpt lat="53.163034" lon="-3.968537"><ele>1030</ele><time>2020-08-16T13:21:38Z</time><name>PT6566</name></trkpt>
<trkpt lat="53.163032" lon="-3.968538"><ele>1030</ele><time>2020-08-16T13:21:39Z</time><name>PT6567</name></trkpt>
<trkpt lat="53.163034" lon="-3.968534"><ele>1029</ele><time>2020-08-16T13:21:40Z</time><name>PT6568</name></trkpt>
<trkpt lat="53.163037" lon="-3.968525"><ele>1029</ele><time>2020-08-16T13:21:41Z</time><name>PT6569</name></trkpt>
<trkpt lat="53.163040" lon="-3.968509"><ele>1029</ele><time>2020-08-16T13:21:42Z</time><name>PT6570</name></trkpt>
<trkpt lat="53.163042" lon="-3.968498"><ele>1029</ele><time>2020-08-16T13:21:43Z</time><name>PT6571</name></trkpt>
<trkpt lat="53.163041" lon="-3.968498"><ele>1029</ele><time>2020-08-16T13:21:44Z</time><name>PT6572</name></trkpt>
<trkpt lat="53.163040" lon="-3.968495"><ele>1028</ele><time>2020-08-16T13:21:45Z</time><name>PT6573</name></trkpt>
<trkpt lat="53.163047" lon="-3.968487"><ele>1028</ele><time>2020-08-16T13:21:46Z</time><name>PT6574</name></trkpt>
<trkpt lat="53.163052" lon="-3.968484"><ele>1028</ele><time>2020-08-16T13:21:47Z</time><name>PT6575</name></trkpt>
<trkpt lat="53.163057" lon="-3.968475"><ele>1028</ele><time>2020-08-16T13:21:48Z</time><name>PT6576</name></trkpt>
<trkpt lat="53.163057" lon="-3.968468"><ele>1028</ele><time>2020-08-16T13:21:49Z</time><name>PT6577</name></trkpt>
<trkpt lat="53.163061" lon="-3.968459"><ele>1028</ele><time>2020-08-16T13:21:50Z</time><name>PT6578</name></trkpt>
<trkpt lat="53.163063" lon="-3.968450"><ele>1028</ele><time>2020-08-16T13:21:51Z</time><name>PT6579</name></trkpt>
<trkpt lat="53.163080" lon="-3.968441"><ele>1028</ele><time>2020-08-16T13:21:52Z</time><name>PT6580</name></trkpt>
<trkpt lat="53.163101" lon="-3.968429"><ele>1029</ele><time>2020-08-16T13:21:53Z</time><name>PT6581</name></trkpt>
<trkpt lat="53.163108" lon="-3.968423"><ele>1029</ele><time>2020-08-16T13:21:54Z</time><name>PT6582</name></trkpt>
<trkpt lat="53.163131" lon="-3.968419"><ele>1029</ele><time>2020-08-16T13:21:57Z</time><name>PT6583</name></trkpt>
<trkpt lat="53.163163" lon="-3.968429"><ele>1029</ele><time>2020-08-16T13:22:01Z</time><name>PT6584</name></trkpt>
<trkpt lat="53.163188" lon="-3.968423"><ele>1027</ele><time>2020-08-16T13:22:05Z</time><name>PT6585</name></trkpt>
<trkpt lat="53.163211" lon="-3.968417"><ele>1026</ele><time>2020-08-16T13:22:08Z</time><name>PT6586</name></trkpt>
<trkpt lat="53.163248" lon="-3.968398"><ele>1026</ele><time>2020-08-16T13:22:12Z</time><name>PT6587</name></trkpt>
<trkpt lat="53.163260" lon="-3.968399"><ele>1026</ele><time>2020-08-16T13:22:14Z</time><name>PT6588</name></trkpt>
<trkpt lat="53.163262" lon="-3.968406"><ele>1026</ele><time>2020-08-16T13:22:15Z</time><name>PT6589</name></trkpt>
<trkpt lat="53.163268" lon="-3.968413"><ele>1025</ele><time>2020-08-16T13:22:16Z</time><name>PT6590</name></trkpt>
<trkpt lat="53.163271" lon="-3.968418"><ele>1025</ele><time>2020-08-16T13:22:17Z</time><name>PT6591</name></trkpt>
<trkpt lat="53.163270" lon="-3.968422"><ele>1025</ele><time>2020-08-16T13:22:18Z</time><name>PT6592</name></trkpt>
<trkpt lat="53.163274" lon="-3.968423"><ele>1025</ele><time>2020-08-16T13:22:19Z</time><name>PT6593</name></trkpt>
<trkpt lat="53.163282" lon="-3.968419"><ele>1024</ele><time>2020-08-16T13:22:20Z</time><name>PT6594</name></trkpt>
<trkpt lat="53.163289" lon="-3.968412"><ele>1024</ele><time>2020-08-16T13:22:21Z</time><name>PT6595</name></trkpt>
<trkpt lat="53.163292" lon="-3.968406"><ele>1024</ele><time>2020-08-16T13:22:22Z</time><name>PT6596</name></trkpt>
<trkpt lat="53.163292" lon="-3.968405"><ele>1024</ele><time>2020-08-16T13:22:23Z</time><name>PT6597</name></trkpt>
<trkpt lat="53.163299" lon="-3.968396"><ele>1024</ele><time>2020-08-16T13:22:24Z</time><name>PT6598</name></trkpt>
<trkpt lat="53.163310" lon="-3.968382"><ele>1024</ele><time>2020-08-16T13:22:25Z</time><name>PT6599</name></trkpt>
<trkpt lat="53.163316" lon="-3.968375"><ele>1023</ele><time>2020-08-16T13:22:26Z</time><name>PT6600</name></trkpt>
<trkpt lat="53.163321" lon="-3.968370"><ele>1023</ele><time>2020-08-16T13:22:27Z</time><name>PT6601</name></trkpt>
<trkpt lat="53.163323" lon="-3.968369"><ele>1023</ele><time>2020-08-16T13:22:28Z</time><name>PT6602</name></trkpt>
<trkpt lat="53.163330" lon="-3.968365"><ele>1023</ele><time>2020-08-16T13:22:29Z</time><name>PT6603</name></trkpt>
<trkpt lat="53.163336" lon="-3.968360"><ele>1022</ele><time>2020-08-16T13:22:30Z</time><name>PT6604</name></trkpt>
<trkpt lat="53.163343" lon="-3.968360"><ele>1022</ele><time>2020-08-16T13:22:31Z</time><name>PT6605</name></trkpt>
<trkpt lat="53.163349" lon="-3.968358"><ele>1022</ele><time>2020-08-16T13:22:32Z</time><name>PT6606</name></trkpt>
<trkpt lat="53.163358" lon="-3.968349"><ele>1022</ele><time>2020-08-16T13:22:33Z</time><name>PT6607</name></trkpt>
<trkpt lat="53.163365" lon="-3.968339"><ele>1021</ele><time>2020-08-16T13:22:34Z</time><name>PT6608</name></trkpt>
<trkpt lat="53.163373" lon="-3.968330"><ele>1021</ele><time>2020-08-16T13:22:35Z</time><name>PT6609</name></trkpt>
<trkpt lat="53.163378" lon="-3.968323"><ele>1021</ele><time>2020-08-16T13:22:36Z</time><name>PT6610</name></trkpt>
<trkpt lat="53.163381" lon="-3.968321"><ele>1021</ele><time>2020-08-16T13:22:37Z</time><name>PT6611</name></trkpt>
<trkpt lat="53.163388" lon="-3.968313"><ele>1021</ele><time>2020-08-16T13:22:38Z</time><name>PT6612</name></trkpt>
<trkpt lat="53.163397" lon="-3.968300"><ele>1021</ele><time>2020-08-16T13:22:39Z</time><name>PT6613</name></trkpt>
<trkpt lat="53.163402" lon="-3.968289"><ele>1021</ele><time>2020-08-16T13:22:40Z</time><name>PT6614</name></trkpt>
<trkpt lat="53.163406" lon="-3.968282"><ele>1020</ele><time>2020-08-16T13:22:41Z</time><name>PT6615</name></trkpt>
<trkpt lat="53.163414" lon="-3.968273"><ele>1020</ele><time>2020-08-16T13:22:42Z</time><name>PT6616</name></trkpt>
<trkpt lat="53.163426" lon="-3.968263"><ele>1020</ele><time>2020-08-16T13:22:43Z</time><name>PT6617</name></trkpt>
<trkpt lat="53.163438" lon="-3.968252"><ele>1020</ele><time>2020-08-16T13:22:44Z</time><name>PT6618</name></trkpt>
<trkpt lat="53.163446" lon="-3.968240"><ele>1019</ele><time>2020-08-16T13:22:45Z</time><name>PT6619</name></trkpt>
<trkpt lat="53.163453" lon="-3.968234"><ele>1020</ele><time>2020-08-16T13:22:46Z</time><name>PT6620</name></trkpt>
<trkpt lat="53.163456" lon="-3.968228"><ele>1020</ele><time>2020-08-16T13:22:47Z</time><name>PT6621</name></trkpt>
<trkpt lat="53.163464" lon="-3.968223"><ele>1020</ele><time>2020-08-16T13:22:48Z</time><name>PT6622</name></trkpt>
<trkpt lat="53.163473" lon="-3.968217"><ele>1020</ele><time>2020-08-16T13:22:49Z</time><name>PT6623</name></trkpt>
<trkpt lat="53.163481" lon="-3.968213"><ele>1020</ele><time>2020-08-16T13:22:50Z</time><name>PT6624</name></trkpt>
<trkpt lat="53.163489" lon="-3.968208"><ele>1020</ele><time>2020-08-16T13:22:51Z</time><name>PT6625</name></trkpt>
<trkpt lat="53.163489" lon="-3.968205"><ele>1019</ele><time>2020-08-16T13:22:52Z</time><name>PT6626</name></trkpt>
<trkpt lat="53.163489" lon="-3.968202"><ele>1019</ele><time>2020-08-16T13:22:53Z</time><name>PT6627</name></trkpt>
<trkpt lat="53.163493" lon="-3.968200"><ele>1019</ele><time>2020-08-16T13:22:54Z</time><name>PT6628</name></trkpt>
<trkpt lat="53.163495" lon="-3.968201"><ele>1019</ele><time>2020-08-16T13:22:55Z</time><name>PT6629</name></trkpt>
<trkpt lat="53.163503" lon="-3.968197"><ele>1019</ele><time>2020-08-16T13:22:56Z</time><name>PT6630</name></trkpt>
<trkpt lat="53.163510" lon="-3.968200"><ele>1018</ele><time>2020-08-16T13:22:57Z</time><name>PT6631</name></trkpt>
<trkpt lat="53.163526" lon="-3.968191"><ele>1019</ele><time>2020-08-16T13:22:58Z</time><name>PT6632</name></trkpt>
<trkpt lat="53.163532" lon="-3.968181"><ele>1019</ele><time>2020-08-16T13:22:59Z</time><name>PT6633</name></trkpt>
<trkpt lat="53.163535" lon="-3.968176"><ele>1018</ele><time>2020-08-16T13:23:00Z</time><name>PT6634</name></trkpt>
<trkpt lat="53.163540" lon="-3.968168"><ele>1018</ele><time>2020-08-16T13:23:01Z</time><name>PT6635</name></trkpt>
<trkpt lat="53.163547" lon="-3.968163"><ele>1018</ele><time>2020-08-16T13:23:02Z</time><name>PT6636</name></trkpt>
<trkpt lat="53.163559" lon="-3.968154"><ele>1017</ele><time>2020-08-16T13:23:03Z</time><name>PT6637</name></trkpt>
<trkpt lat="53.163568" lon="-3.968146"><ele>1017</ele><time>2020-08-16T13:23:04Z</time><name>PT6638</name></trkpt>
<trkpt lat="53.163571" lon="-3.968143"><ele>1017</ele><time>2020-08-16T13:23:05Z</time><name>PT6639</name></trkpt>
<trkpt lat="53.163575" lon="-3.968142"><ele>1017</ele><time>2020-08-16T13:23:06Z</time><name>PT6640</name></trkpt>
<trkpt lat="53.163582" lon="-3.968138"><ele>1016</ele><time>2020-08-16T13:23:07Z</time><name>PT6641</name></trkpt>
<trkpt lat="53.163590" lon="-3.968136"><ele>1016</ele><time>2020-08-16T13:23:08Z</time><name>PT6642</name></trkpt>
<trkpt lat="53.163598" lon="-3.968140"><ele>1016</ele><time>2020-08-16T13:23:09Z</time><name>PT6643</name></trkpt>
<trkpt lat="53.163603" lon="-3.968140"><ele>1016</ele><time>2020-08-16T13:23:10Z</time><name>PT6644</name></trkpt>
<trkpt lat="53.163607" lon="-3.968139"><ele>1016</ele><time>2020-08-16T13:23:11Z</time><name>PT6645</name></trkpt>
<trkpt lat="53.163612" lon="-3.968137"><ele>1016</ele><time>2020-08-16T13:23:12Z</time><name>PT6646</name></trkpt>
<trkpt lat="53.163624" lon="-3.968118"><ele>1015</ele><time>2020-08-16T13:23:13Z</time><name>PT6647</name></trkpt>
<trkpt lat="53.163628" lon="-3.968103"><ele>1015</ele><time>2020-08-16T13:23:14Z</time><name>PT6648</name></trkpt>
<trkpt lat="53.163628" lon="-3.968097"><ele>1014</ele><time>2020-08-16T13:23:15Z</time><name>PT6649</name></trkpt>
<trkpt lat="53.163636" lon="-3.968081"><ele>1014</ele><time>2020-08-16T13:23:16Z</time><name>PT6650</name></trkpt>
<trkpt lat="53.163641" lon="-3.968067"><ele>1014</ele><time>2020-08-16T13:23:17Z</time><name>PT6651</name></trkpt>
<trkpt lat="53.163646" lon="-3.968059"><ele>1014</ele><time>2020-08-16T13:23:18Z</time><name>PT6652</name></trkpt>
<trkpt lat="53.163647" lon="-3.968054"><ele>1014</ele><time>2020-08-16T13:23:19Z</time><name>PT6653</name></trkpt>
<trkpt lat="53.163651" lon="-3.968049"><ele>1014</ele><time>2020-08-16T13:23:20Z</time><name>PT6654</name></trkpt>
<trkpt lat="53.163655" lon="-3.968044"><ele>1014</ele><time>2020-08-16T13:23:21Z</time><name>PT6655</name></trkpt>
<trkpt lat="53.163657" lon="-3.968040"><ele>1013</ele><time>2020-08-16T13:23:22Z</time><name>PT6656</name></trkpt>
<trkpt lat="53.163661" lon="-3.968032"><ele>1013</ele><time>2020-08-16T13:23:23Z</time><name>PT6657</name></trkpt>
<trkpt lat="53.163670" lon="-3.968032"><ele>1012</ele><time>2020-08-16T13:23:24Z</time><name>PT6658</name></trkpt>
<trkpt lat="53.163679" lon="-3.968037"><ele>1012</ele><time>2020-08-16T13:23:25Z</time><name>PT6659</name></trkpt>
<trkpt lat="53.163684" lon="-3.968034"><ele>1012</ele><time>2020-08-16T13:23:26Z</time><name>PT6660</name></trkpt>
<trkpt lat="53.163686" lon="-3.968029"><ele>1012</ele><time>2020-08-16T13:23:27Z</time><name>PT6661</name></trkpt>
<trkpt lat="53.163692" lon="-3.968021"><ele>1012</ele><time>2020-08-16T13:23:28Z</time><name>PT6662</name></trkpt>
<trkpt lat="53.163706" lon="-3.968016"><ele>1011</ele><time>2020-08-16T13:23:29Z</time><name>PT6663</name></trkpt>
<trkpt lat="53.163717" lon="-3.968015"><ele>1011</ele><time>2020-08-16T13:23:30Z</time><name>PT6664</name></trkpt>
<trkpt lat="53.163725" lon="-3.968018"><ele>1011</ele><time>2020-08-16T13:23:31Z</time><name>PT6665</name></trkpt>
<trkpt lat="53.163730" lon="-3.968021"><ele>1011</ele><time>2020-08-16T13:23:32Z</time><name>PT6666</name></trkpt>
<trkpt lat="53.163733" lon="-3.968022"><ele>1011</ele><time>2020-08-16T13:23:33Z</time><name>PT6667</name></trkpt>
<trkpt lat="53.163740" lon="-3.968023"><ele>1011</ele><time>2020-08-16T13:23:34Z</time><name>PT6668</name></trkpt>
<trkpt lat="53.163747" lon="-3.968017"><ele>1011</ele><time>2020-08-16T13:23:35Z</time><name>PT6669</name></trkpt>
<trkpt lat="53.163751" lon="-3.968015"><ele>1011</ele><time>2020-08-16T13:23:36Z</time><name>PT6670</name></trkpt>
<trkpt lat="53.163755" lon="-3.968015"><ele>1010</ele><time>2020-08-16T13:23:37Z</time><name>PT6671</name></trkpt>
<trkpt lat="53.163761" lon="-3.968008"><ele>1010</ele><time>2020-08-16T13:23:38Z</time><name>PT6672</name></trkpt>
<trkpt lat="53.163768" lon="-3.967995"><ele>1010</ele><time>2020-08-16T13:23:39Z</time><name>PT6673</name></trkpt>
<trkpt lat="53.163774" lon="-3.967989"><ele>1010</ele><time>2020-08-16T13:23:40Z</time><name>PT6674</name></trkpt>
<trkpt lat="53.163776" lon="-3.967987"><ele>1010</ele><time>2020-08-16T13:23:41Z</time><name>PT6675</name></trkpt>
<trkpt lat="53.163779" lon="-3.967984"><ele>1009</ele><time>2020-08-16T13:23:42Z</time><name>PT6676</name></trkpt>
<trkpt lat="53.163783" lon="-3.967976"><ele>1009</ele><time>2020-08-16T13:23:43Z</time><name>PT6677</name></trkpt>
<trkpt lat="53.163786" lon="-3.967970"><ele>1009</ele><time>2020-08-16T13:23:44Z</time><name>PT6678</name></trkpt>
<trkpt lat="53.163787" lon="-3.967966"><ele>1009</ele><time>2020-08-16T13:23:45Z</time><name>PT6679</name></trkpt>
<trkpt lat="53.163795" lon="-3.967965"><ele>1009</ele><time>2020-08-16T13:23:46Z</time><name>PT6680</name></trkpt>
<trkpt lat="53.163806" lon="-3.967961"><ele>1009</ele><time>2020-08-16T13:23:47Z</time><name>PT6681</name></trkpt>
<trkpt lat="53.163819" lon="-3.967959"><ele>1008</ele><time>2020-08-16T13:23:48Z</time><name>PT6682</name></trkpt>
<trkpt lat="53.163825" lon="-3.967958"><ele>1008</ele><time>2020-08-16T13:23:49Z</time><name>PT6683</name></trkpt>
<trkpt lat="53.163831" lon="-3.967960"><ele>1008</ele><time>2020-08-16T13:23:50Z</time><name>PT6684</name></trkpt>
<trkpt lat="53.163848" lon="-3.967958"><ele>1009</ele><time>2020-08-16T13:23:51Z</time><name>PT6685</name></trkpt>
<trkpt lat="53.163857" lon="-3.967958"><ele>1008</ele><time>2020-08-16T13:23:52Z</time><name>PT6686</name></trkpt>
<trkpt lat="53.163860" lon="-3.967962"><ele>1008</ele><time>2020-08-16T13:23:53Z</time><name>PT6687</name></trkpt>
<trkpt lat="53.163865" lon="-3.967963"><ele>1007</ele><time>2020-08-16T13:23:54Z</time><name>PT6688</name></trkpt>
<trkpt lat="53.163873" lon="-3.967955"><ele>1007</ele><time>2020-08-16T13:23:55Z</time><name>PT6689</name></trkpt>
<trkpt lat="53.163876" lon="-3.967950"><ele>1007</ele><time>2020-08-16T13:23:56Z</time><name>PT6690</name></trkpt>
<trkpt lat="53.163878" lon="-3.967945"><ele>1007</ele><time>2020-08-16T13:23:57Z</time><name>PT6691</name></trkpt>
<trkpt lat="53.163882" lon="-3.967937"><ele>1007</ele><time>2020-08-16T13:23:58Z</time><name>PT6692</name></trkpt>
<trkpt lat="53.163885" lon="-3.967926"><ele>1007</ele><time>2020-08-16T13:23:59Z</time><name>PT6693</name></trkpt>
<trkpt lat="53.163887" lon="-3.967919"><ele>1007</ele><time>2020-08-16T13:24:00Z</time><name>PT6694</name></trkpt>
<trkpt lat="53.163891" lon="-3.967911"><ele>1007</ele><time>2020-08-16T13:24:01Z</time><name>PT6695</name></trkpt>
<trkpt lat="53.163899" lon="-3.967900"><ele>1007</ele><time>2020-08-16T13:24:02Z</time><name>PT6696</name></trkpt>
<trkpt lat="53.163902" lon="-3.967884"><ele>1006</ele><time>2020-08-16T13:24:03Z</time><name>PT6697</name></trkpt>
<trkpt lat="53.163904" lon="-3.967873"><ele>1006</ele><time>2020-08-16T13:24:04Z</time><name>PT6698</name></trkpt>
<trkpt lat="53.163916" lon="-3.967857"><ele>1006</ele><time>2020-08-16T13:24:05Z</time><name>PT6699</name></trkpt>
<trkpt lat="53.163928" lon="-3.967848"><ele>1006</ele><time>2020-08-16T13:24:06Z</time><name>PT6700</name></trkpt>
<trkpt lat="53.163938" lon="-3.967841"><ele>1006</ele><time>2020-08-16T13:24:07Z</time><name>PT6701</name></trkpt>
<trkpt lat="53.163946" lon="-3.967831"><ele>1006</ele><time>2020-08-16T13:24:08Z</time><name>PT6702</name></trkpt>
<trkpt lat="53.163953" lon="-3.967823"><ele>1006</ele><time>2020-08-16T13:24:09Z</time><name>PT6703</name></trkpt>
<trkpt lat="53.163965" lon="-3.967810"><ele>1006</ele><time>2020-08-16T13:24:10Z</time><name>PT6704</name></trkpt>
<trkpt lat="53.163980" lon="-3.967794"><ele>1006</ele><time>2020-08-16T13:24:11Z</time><name>PT6705</name></trkpt>
<trkpt lat="53.163988" lon="-3.967786"><ele>1006</ele><time>2020-08-16T13:24:12Z</time><name>PT6706</name></trkpt>
<trkpt lat="53.163993" lon="-3.967783"><ele>1006</ele><time>2020-08-16T13:24:13Z</time><name>PT6707</name></trkpt>
<trkpt lat="53.164004" lon="-3.967767"><ele>1006</ele><time>2020-08-16T13:24:14Z</time><name>PT6708</name></trkpt>
<trkpt lat="53.164013" lon="-3.967749"><ele>1006</ele><time>2020-08-16T13:24:15Z</time><name>PT6709</name></trkpt>
<trkpt lat="53.164019" lon="-3.967741"><ele>1006</ele><time>2020-08-16T13:24:16Z</time><name>PT6710</name></trkpt>
<trkpt lat="53.164026" lon="-3.967738"><ele>1006</ele><time>2020-08-16T13:24:17Z</time><name>PT6711</name></trkpt>
<trkpt lat="53.164034" lon="-3.967718"><ele>1006</ele><time>2020-08-16T13:24:18Z</time><name>PT6712</name></trkpt>
<trkpt lat="53.164040" lon="-3.967697"><ele>1006</ele><time>2020-08-16T13:24:19Z</time><name>PT6713</name></trkpt>
<trkpt lat="53.164045" lon="-3.967687"><ele>1006</ele><time>2020-08-16T13:24:20Z</time><name>PT6714</name></trkpt>
<trkpt lat="53.164049" lon="-3.967682"><ele>1006</ele><time>2020-08-16T13:24:21Z</time><name>PT6715</name></trkpt>
<trkpt lat="53.164058" lon="-3.967673"><ele>1006</ele><time>2020-08-16T13:24:22Z</time><name>PT6716</name></trkpt>
<trkpt lat="53.164072" lon="-3.967661"><ele>1006</ele><time>2020-08-16T13:24:23Z</time><name>PT6717</name></trkpt>
<trkpt lat="53.164080" lon="-3.967650"><ele>1006</ele><time>2020-08-16T13:24:24Z</time><name>PT6718</name></trkpt>
<trkpt lat="53.164083" lon="-3.967645"><ele>1006</ele><time>2020-08-16T13:24:25Z</time><name>PT6719</name></trkpt>
<trkpt lat="53.164088" lon="-3.967636"><ele>1005</ele><time>2020-08-16T13:24:26Z</time><name>PT6720</name></trkpt>
<trkpt lat="53.164096" lon="-3.967626"><ele>1006</ele><time>2020-08-16T13:24:27Z</time><name>PT6721</name></trkpt>
<trkpt lat="53.164104" lon="-3.967621"><ele>1005</ele><time>2020-08-16T13:24:28Z</time><name>PT6722</name></trkpt>
<trkpt lat="53.164108" lon="-3.967624"><ele>1005</ele><time>2020-08-16T13:24:29Z</time><name>PT6723</name></trkpt>
<trkpt lat="53.164110" lon="-3.967629"><ele>1004</ele><time>2020-08-16T13:24:30Z</time><name>PT6724</name></trkpt>
<trkpt lat="53.164110" lon="-3.967631"><ele>1004</ele><time>2020-08-16T13:24:31Z</time><name>PT6725</name></trkpt>
<trkpt lat="53.164111" lon="-3.967630"><ele>1004</ele><time>2020-08-16T13:24:32Z</time><name>PT6726</name></trkpt>
<trkpt lat="53.164110" lon="-3.967631"><ele>1004</ele><time>2020-08-16T13:24:33Z</time><name>PT6727</name></trkpt>
<trkpt lat="53.164109" lon="-3.967631"><ele>1004</ele><time>2020-08-16T13:24:34Z</time><name>PT6728</name></trkpt>
<trkpt lat="53.164109" lon="-3.967635"><ele>1005</ele><time>2020-08-16T13:24:35Z</time><name>PT6729</name></trkpt>
<trkpt lat="53.164105" lon="-3.967639"><ele>1005</ele><time>2020-08-16T13:24:36Z</time><name>PT6730</name></trkpt>
<trkpt lat="53.164103" lon="-3.967639"><ele>1005</ele><time>2020-08-16T13:24:37Z</time><name>PT6731</name></trkpt>
<trkpt lat="53.164100" lon="-3.967643"><ele>1005</ele><time>2020-08-16T13:24:38Z</time><name>PT6732</name></trkpt>
<trkpt lat="53.164095" lon="-3.967648"><ele>1005</ele><time>2020-08-16T13:24:39Z</time><name>PT6733</name></trkpt>
<trkpt lat="53.164092" lon="-3.967651"><ele>1005</ele><time>2020-08-16T13:24:40Z</time><name>PT6734</name></trkpt>
<trkpt lat="53.164090" lon="-3.967651"><ele>1006</ele><time>2020-08-16T13:24:41Z</time><name>PT6735</name></trkpt>
<trkpt lat="53.164085" lon="-3.967657"><ele>1006</ele><time>2020-08-16T13:24:42Z</time><name>PT6736</name></trkpt>
<trkpt lat="53.164079" lon="-3.967664"><ele>1006</ele><time>2020-08-16T13:24:43Z</time><name>PT6737</name></trkpt>
<trkpt lat="53.164076" lon="-3.967670"><ele>1006</ele><time>2020-08-16T13:24:44Z</time><name>PT6738</name></trkpt>
<trkpt lat="53.164071" lon="-3.967677"><ele>1005</ele><time>2020-08-16T13:24:45Z</time><name>PT6739</name></trkpt>
<trkpt lat="53.164067" lon="-3.967681"><ele>1005</ele><time>2020-08-16T13:24:46Z</time><name>PT6740</name></trkpt>
<trkpt lat="53.164065" lon="-3.967684"><ele>1006</ele><time>2020-08-16T13:24:47Z</time><name>PT6741</name></trkpt>
<trkpt lat="53.164061" lon="-3.967688"><ele>1006</ele><time>2020-08-16T13:24:48Z</time><name>PT6742</name></trkpt>
<trkpt lat="53.164057" lon="-3.967692"><ele>1006</ele><time>2020-08-16T13:24:49Z</time><name>PT6743</name></trkpt>
<trkpt lat="53.164053" lon="-3.967698"><ele>1006</ele><time>2020-08-16T13:24:50Z</time><name>PT6744</name></trkpt>
<trkpt lat="53.164048" lon="-3.967709"><ele>1006</ele><time>2020-08-16T13:24:51Z</time><name>PT6745</name></trkpt>
<trkpt lat="53.164042" lon="-3.967717"><ele>1006</ele><time>2020-08-16T13:24:52Z</time><name>PT6746</name></trkpt>
<trkpt lat="53.164038" lon="-3.967725"><ele>1006</ele><time>2020-08-16T13:24:53Z</time><name>PT6747</name></trkpt>
<trkpt lat="53.164037" lon="-3.967728"><ele>1005</ele><time>2020-08-16T13:24:54Z</time><name>PT6748</name></trkpt>
<trkpt lat="53.164037" lon="-3.967731"><ele>1005</ele><time>2020-08-16T13:24:55Z</time><name>PT6749</name></trkpt>
<trkpt lat="53.164036" lon="-3.967732"><ele>1005</ele><time>2020-08-16T13:24:56Z</time><name>PT6750</name></trkpt>
<trkpt lat="53.164035" lon="-3.967732"><ele>1005</ele><time>2020-08-16T13:24:57Z</time><name>PT6751</name></trkpt>
<trkpt lat="53.164037" lon="-3.967733"><ele>1005</ele><time>2020-08-16T13:24:58Z</time><name>PT6752</name></trkpt>
<trkpt lat="53.164033" lon="-3.967732"><ele>1005</ele><time>2020-08-16T13:25:02Z</time><name>PT6753</name></trkpt>
<trkpt lat="53.164034" lon="-3.967728"><ele>1005</ele><time>2020-08-16T13:25:03Z</time><name>PT6754</name></trkpt>
<trkpt lat="53.164039" lon="-3.967724"><ele>1005</ele><time>2020-08-16T13:25:04Z</time><name>PT6755</name></trkpt>
<trkpt lat="53.164040" lon="-3.967720"><ele>1004</ele><time>2020-08-16T13:25:05Z</time><name>PT6756</name></trkpt>
<trkpt lat="53.164042" lon="-3.967715"><ele>1004</ele><time>2020-08-16T13:25:06Z</time><name>PT6757</name></trkpt>
<trkpt lat="53.164044" lon="-3.967705"><ele>1004</ele><time>2020-08-16T13:25:07Z</time><name>PT6758</name></trkpt>
<trkpt lat="53.164046" lon="-3.967694"><ele>1004</ele><time>2020-08-16T13:25:08Z</time><name>PT6759</name></trkpt>
<trkpt lat="53.164051" lon="-3.967687"><ele>1004</ele><time>2020-08-16T13:25:09Z</time><name>PT6760</name></trkpt>
<trkpt lat="53.164057" lon="-3.967683"><ele>1004</ele><time>2020-08-16T13:25:11Z</time><name>PT6761</name></trkpt>
<trkpt lat="53.164063" lon="-3.967676"><ele>1004</ele><time>2020-08-16T13:25:11Z</time><name>PT6762</name></trkpt>
<trkpt lat="53.164064" lon="-3.967676"><ele>1004</ele><time>2020-08-16T13:25:12Z</time><name>PT6763</name></trkpt>
<trkpt lat="53.164072" lon="-3.967674"><ele>1005</ele><time>2020-08-16T13:25:13Z</time><name>PT6764</name></trkpt>
<trkpt lat="53.164081" lon="-3.967656"><ele>1004</ele><time>2020-08-16T13:25:16Z</time><name>PT6765</name></trkpt>
<trkpt lat="53.164103" lon="-3.967637"><ele>1003</ele><time>2020-08-16T13:25:20Z</time><name>PT6766</name></trkpt>
<trkpt lat="53.164137" lon="-3.967614"><ele>1003</ele><time>2020-08-16T13:25:24Z</time><name>PT6767</name></trkpt>
<trkpt lat="53.164164" lon="-3.967588"><ele>1002</ele><time>2020-08-16T13:25:28Z</time><name>PT6768</name></trkpt>
<trkpt lat="53.164177" lon="-3.967561"><ele>1002</ele><time>2020-08-16T13:25:31Z</time><name>PT6769</name></trkpt>
<trkpt lat="53.164186" lon="-3.967537"><ele>1000</ele><time>2020-08-16T13:25:34Z</time><name>PT6770</name></trkpt>
<trkpt lat="53.164201" lon="-3.967505"><ele>999</ele><time>2020-08-16T13:25:38Z</time><name>PT6771</name></trkpt>
<trkpt lat="53.164227" lon="-3.967488"><ele>999</ele><time>2020-08-16T13:25:41Z</time><name>PT6772</name></trkpt>
<trkpt lat="53.164245" lon="-3.967468"><ele>999</ele><time>2020-08-16T13:25:44Z</time><name>PT6773</name></trkpt>
<trkpt lat="53.164262" lon="-3.967439"><ele>998</ele><time>2020-08-16T13:25:48Z</time><name>PT6774</name></trkpt>
<trkpt lat="53.164274" lon="-3.967406"><ele>998</ele><time>2020-08-16T13:25:51Z</time><name>PT6775</name></trkpt>
<trkpt lat="53.164293" lon="-3.967384"><ele>999</ele><time>2020-08-16T13:25:55Z</time><name>PT6776</name></trkpt>
<trkpt lat="53.164303" lon="-3.967362"><ele>998</ele><time>2020-08-16T13:25:58Z</time><name>PT6777</name></trkpt>
<trkpt lat="53.164308" lon="-3.967321"><ele>998</ele><time>2020-08-16T13:26:01Z</time><name>PT6778</name></trkpt>
<trkpt lat="53.164315" lon="-3.967276"><ele>998</ele><time>2020-08-16T13:26:04Z</time><name>PT6779</name></trkpt>
<trkpt lat="53.164327" lon="-3.967246"><ele>998</ele><time>2020-08-16T13:26:07Z</time><name>PT6780</name></trkpt>
<trkpt lat="53.164350" lon="-3.967211"><ele>997</ele><time>2020-08-16T13:26:11Z</time><name>PT6781</name></trkpt>
<trkpt lat="53.164383" lon="-3.967175"><ele>997</ele><time>2020-08-16T13:26:15Z</time><name>PT6782</name></trkpt>
<trkpt lat="53.164408" lon="-3.967152"><ele>997</ele><time>2020-08-16T13:26:18Z</time><name>PT6783</name></trkpt>
<trkpt lat="53.164424" lon="-3.967123"><ele>996</ele><time>2020-08-16T13:26:22Z</time><name>PT6784</name></trkpt>
<trkpt lat="53.164441" lon="-3.967111"><ele>996</ele><time>2020-08-16T13:26:25Z</time><name>PT6785</name></trkpt>
<trkpt lat="53.164468" lon="-3.967112"><ele>995</ele><time>2020-08-16T13:26:28Z</time><name>PT6786</name></trkpt>
<trkpt lat="53.164503" lon="-3.967109"><ele>995</ele><time>2020-08-16T13:26:32Z</time><name>PT6787</name></trkpt>
<trkpt lat="53.164533" lon="-3.967098"><ele>995</ele><time>2020-08-16T13:26:36Z</time><name>PT6788</name></trkpt>
<trkpt lat="53.164554" lon="-3.967062"><ele>995</ele><time>2020-08-16T13:26:40Z</time><name>PT6789</name></trkpt>
<trkpt lat="53.164565" lon="-3.967028"><ele>995</ele><time>2020-08-16T13:26:43Z</time><name>PT6790</name></trkpt>
<trkpt lat="53.164579" lon="-3.966994"><ele>994</ele><time>2020-08-16T13:26:46Z</time><name>PT6791</name></trkpt>
<trkpt lat="53.164605" lon="-3.966970"><ele>994</ele><time>2020-08-16T13:26:50Z</time><name>PT6792</name></trkpt>
<trkpt lat="53.164630" lon="-3.966961"><ele>993</ele><time>2020-08-16T13:26:53Z</time><name>PT6793</name></trkpt>
<trkpt lat="53.164653" lon="-3.966949"><ele>993</ele><time>2020-08-16T13:26:57Z</time><name>PT6794</name></trkpt>
<trkpt lat="53.164674" lon="-3.966939"><ele>991</ele><time>2020-08-16T13:27:00Z</time><name>PT6795</name></trkpt>
<trkpt lat="53.164701" lon="-3.966916"><ele>991</ele><time>2020-08-16T13:27:04Z</time><name>PT6796</name></trkpt>
<trkpt lat="53.164749" lon="-3.966894"><ele>990</ele><time>2020-08-16T13:27:07Z</time><name>PT6797</name></trkpt>
<trkpt lat="53.164764" lon="-3.966892"><ele>989</ele><time>2020-08-16T13:27:08Z</time><name>PT6798</name></trkpt>
<trkpt lat="53.164770" lon="-3.966887"><ele>989</ele><time>2020-08-16T13:27:09Z</time><name>PT6799</name></trkpt>
<trkpt lat="53.164773" lon="-3.966882"><ele>989</ele><time>2020-08-16T13:27:10Z</time><name>PT6800</name></trkpt>
<trkpt lat="53.164777" lon="-3.966877"><ele>989</ele><time>2020-08-16T13:27:11Z</time><name>PT6801</name></trkpt>
<trkpt lat="53.164783" lon="-3.966874"><ele>989</ele><time>2020-08-16T13:27:12Z</time><name>PT6802</name></trkpt>
<trkpt lat="53.164784" lon="-3.966870"><ele>989</ele><time>2020-08-16T13:27:13Z</time><name>PT6803</name></trkpt>
<trkpt lat="53.164789" lon="-3.966863"><ele>989</ele><time>2020-08-16T13:27:14Z</time><name>PT6804</name></trkpt>
<trkpt lat="53.164794" lon="-3.966854"><ele>989</ele><time>2020-08-16T13:27:15Z</time><name>PT6805</name></trkpt>
<trkpt lat="53.164795" lon="-3.966842"><ele>989</ele><time>2020-08-16T13:27:16Z</time><name>PT6806</name></trkpt>
<trkpt lat="53.164795" lon="-3.966830"><ele>989</ele><time>2020-08-16T13:27:17Z</time><name>PT6807</name></trkpt>
<trkpt lat="53.164794" lon="-3.966819"><ele>988</ele><time>2020-08-16T13:27:18Z</time><name>PT6808</name></trkpt>
<trkpt lat="53.164795" lon="-3.966808"><ele>989</ele><time>2020-08-16T13:27:19Z</time><name>PT6809</name></trkpt>
<trkpt lat="53.164799" lon="-3.966798"><ele>989</ele><time>2020-08-16T13:27:20Z</time><name>PT6810</name></trkpt>
<trkpt lat="53.164809" lon="-3.966782"><ele>989</ele><time>2020-08-16T13:27:23Z</time><name>PT6811</name></trkpt>
<trkpt lat="53.164812" lon="-3.966777"><ele>989</ele><time>2020-08-16T13:27:23Z</time><name>PT6812</name></trkpt>
<trkpt lat="53.164818" lon="-3.966772"><ele>989</ele><time>2020-08-16T13:27:24Z</time><name>PT6813</name></trkpt>
<trkpt lat="53.164827" lon="-3.966769"><ele>989</ele><time>2020-08-16T13:27:25Z</time><name>PT6814</name></trkpt>
<trkpt lat="53.164832" lon="-3.966764"><ele>989</ele><time>2020-08-16T13:27:26Z</time><name>PT6815</name></trkpt>
<trkpt lat="53.164834" lon="-3.966753"><ele>989</ele><time>2020-08-16T13:27:27Z</time><name>PT6816</name></trkpt>
<trkpt lat="53.164837" lon="-3.966743"><ele>989</ele><time>2020-08-16T13:27:28Z</time><name>PT6817</name></trkpt>
<trkpt lat="53.164839" lon="-3.966734"><ele>989</ele><time>2020-08-16T13:27:29Z</time><name>PT6818</name></trkpt>
<trkpt lat="53.164839" lon="-3.966724"><ele>988</ele><time>2020-08-16T13:27:30Z</time><name>PT6819</name></trkpt>
<trkpt lat="53.164839" lon="-3.966711"><ele>988</ele><time>2020-08-16T13:27:31Z</time><name>PT6820</name></trkpt>
<trkpt lat="53.164844" lon="-3.966699"><ele>988</ele><time>2020-08-16T13:27:32Z</time><name>PT6821</name></trkpt>
<trkpt lat="53.164847" lon="-3.966685"><ele>988</ele><time>2020-08-16T13:27:33Z</time><name>PT6822</name></trkpt>
<trkpt lat="53.164849" lon="-3.966676"><ele>988</ele><time>2020-08-16T13:27:34Z</time><name>PT6823</name></trkpt>
<trkpt lat="53.164850" lon="-3.966666"><ele>987</ele><time>2020-08-16T13:27:35Z</time><name>PT6824</name></trkpt>
<trkpt lat="53.164848" lon="-3.966657"><ele>987</ele><time>2020-08-16T13:27:36Z</time><name>PT6825</name></trkpt>
<trkpt lat="53.164843" lon="-3.966648"><ele>986</ele><time>2020-08-16T13:27:37Z</time><name>PT6826</name></trkpt>
<trkpt lat="53.164842" lon="-3.966634"><ele>986</ele><time>2020-08-16T13:27:38Z</time><name>PT6827</name></trkpt>
<trkpt lat="53.164841" lon="-3.966627"><ele>986</ele><time>2020-08-16T13:27:39Z</time><name>PT6828</name></trkpt>
<trkpt lat="53.164841" lon="-3.966617"><ele>986</ele><time>2020-08-16T13:27:40Z</time><name>PT6829</name></trkpt>
<trkpt lat="53.164842" lon="-3.966609"><ele>985</ele><time>2020-08-16T13:27:41Z</time><name>PT6830</name></trkpt>
<trkpt lat="53.164846" lon="-3.966606"><ele>985</ele><time>2020-08-16T13:27:42Z</time><name>PT6831</name></trkpt>
<trkpt lat="53.164852" lon="-3.966604"><ele>984</ele><time>2020-08-16T13:27:43Z</time><name>PT6832</name></trkpt>
<trkpt lat="53.164858" lon="-3.966605"><ele>984</ele><time>2020-08-16T13:27:44Z</time><name>PT6833</name></trkpt>
<trkpt lat="53.164865" lon="-3.966604"><ele>984</ele><time>2020-08-16T13:27:45Z</time><name>PT6834</name></trkpt>
<trkpt lat="53.164870" lon="-3.966606"><ele>983</ele><time>2020-08-16T13:27:46Z</time><name>PT6835</name></trkpt>
<trkpt lat="53.164880" lon="-3.966603"><ele>982</ele><time>2020-08-16T13:27:47Z</time><name>PT6836</name></trkpt>
<trkpt lat="53.164886" lon="-3.966602"><ele>982</ele><time>2020-08-16T13:27:48Z</time><name>PT6837</name></trkpt>
<trkpt lat="53.164891" lon="-3.966602"><ele>982</ele><time>2020-08-16T13:27:49Z</time><name>PT6838</name></trkpt>
<trkpt lat="53.164897" lon="-3.966603"><ele>982</ele><time>2020-08-16T13:27:50Z</time><name>PT6839</name></trkpt>
<trkpt lat="53.164898" lon="-3.966609"><ele>982</ele><time>2020-08-16T13:27:51Z</time><name>PT6840</name></trkpt>
<trkpt lat="53.164900" lon="-3.966613"><ele>982</ele><time>2020-08-16T13:27:52Z</time><name>PT6841</name></trkpt>
<trkpt lat="53.164905" lon="-3.966616"><ele>982</ele><time>2020-08-16T13:27:53Z</time><name>PT6842</name></trkpt>
<trkpt lat="53.164910" lon="-3.966606"><ele>981</ele><time>2020-08-16T13:27:54Z</time><name>PT6843</name></trkpt>
<trkpt lat="53.164918" lon="-3.966594"><ele>981</ele><time>2020-08-16T13:27:55Z</time><name>PT6844</name></trkpt>
<trkpt lat="53.164923" lon="-3.966590"><ele>980</ele><time>2020-08-16T13:27:56Z</time><name>PT6845</name></trkpt>
<trkpt lat="53.164927" lon="-3.966580"><ele>980</ele><time>2020-08-16T13:27:57Z</time><name>PT6846</name></trkpt>
<trkpt lat="53.164934" lon="-3.966572"><ele>979</ele><time>2020-08-16T13:27:58Z</time><name>PT6847</name></trkpt>
<trkpt lat="53.164938" lon="-3.966570"><ele>979</ele><time>2020-08-16T13:27:59Z</time><name>PT6848</name></trkpt>
<trkpt lat="53.164945" lon="-3.966565"><ele>979</ele><time>2020-08-16T13:28:00Z</time><name>PT6849</name></trkpt>
<trkpt lat="53.164951" lon="-3.966559"><ele>979</ele><time>2020-08-16T13:28:01Z</time><name>PT6850</name></trkpt>
<trkpt lat="53.164956" lon="-3.966555"><ele>979</ele><time>2020-08-16T13:28:02Z</time><name>PT6851</name></trkpt>
<trkpt lat="53.164965" lon="-3.966547"><ele>979</ele><time>2020-08-16T13:28:03Z</time><name>PT6852</name></trkpt>
<trkpt lat="53.164972" lon="-3.966538"><ele>978</ele><time>2020-08-16T13:28:04Z</time><name>PT6853</name></trkpt>
<trkpt lat="53.164981" lon="-3.966528"><ele>978</ele><time>2020-08-16T13:28:05Z</time><name>PT6854</name></trkpt>
<trkpt lat="53.164983" lon="-3.966519"><ele>979</ele><time>2020-08-16T13:28:06Z</time><name>PT6855</name></trkpt>
<trkpt lat="53.164987" lon="-3.966508"><ele>979</ele><time>2020-08-16T13:28:07Z</time><name>PT6856</name></trkpt>
<trkpt lat="53.164993" lon="-3.966501"><ele>979</ele><time>2020-08-16T13:28:08Z</time><name>PT6857</name></trkpt>
<trkpt lat="53.165000" lon="-3.966499"><ele>979</ele><time>2020-08-16T13:28:09Z</time><name>PT6858</name></trkpt>
<trkpt lat="53.165010" lon="-3.966497"><ele>979</ele><time>2020-08-16T13:28:10Z</time><name>PT6859</name></trkpt>
<trkpt lat="53.165013" lon="-3.966493"><ele>979</ele><time>2020-08-16T13:28:11Z</time><name>PT6860</name></trkpt>
<trkpt lat="53.165019" lon="-3.966493"><ele>979</ele><time>2020-08-16T13:28:12Z</time><name>PT6861</name></trkpt>
<trkpt lat="53.165017" lon="-3.966492"><ele>979</ele><time>2020-08-16T13:28:13Z</time><name>PT6862</name></trkpt>
<trkpt lat="53.165017" lon="-3.966494"><ele>979</ele><time>2020-08-16T13:28:14Z</time><name>PT6863</name></trkpt>
<trkpt lat="53.165018" lon="-3.966494"><ele>979</ele><time>2020-08-16T13:28:15Z</time><name>PT6864</name></trkpt>
<trkpt lat="53.165020" lon="-3.966494"><ele>978</ele><time>2020-08-16T13:28:16Z</time><name>PT6865</name></trkpt>
<trkpt lat="53.165020" lon="-3.966495"><ele>978</ele><time>2020-08-16T13:28:17Z</time><name>PT6866</name></trkpt>
<trkpt lat="53.165022" lon="-3.966496"><ele>978</ele><time>2020-08-16T13:28:18Z</time><name>PT6867</name></trkpt>
<trkpt lat="53.165030" lon="-3.966495"><ele>978</ele><time>2020-08-16T13:28:19Z</time><name>PT6868</name></trkpt>
<trkpt lat="53.165043" lon="-3.966498"><ele>978</ele><time>2020-08-16T13:28:20Z</time><name>PT6869</name></trkpt>
<trkpt lat="53.165055" lon="-3.966496"><ele>979</ele><time>2020-08-16T13:28:21Z</time><name>PT6870</name></trkpt>
<trkpt lat="53.165065" lon="-3.966492"><ele>979</ele><time>2020-08-16T13:28:22Z</time><name>PT6871</name></trkpt>
<trkpt lat="53.165076" lon="-3.966489"><ele>979</ele><time>2020-08-16T13:28:23Z</time><name>PT6872</name></trkpt>
<trkpt lat="53.165085" lon="-3.966482"><ele>979</ele><time>2020-08-16T13:28:24Z</time><name>PT6873</name></trkpt>
<trkpt lat="53.165092" lon="-3.966476"><ele>978</ele><time>2020-08-16T13:28:25Z</time><name>PT6874</name></trkpt>
<trkpt lat="53.165101" lon="-3.966469"><ele>978</ele><time>2020-08-16T13:28:26Z</time><name>PT6875</name></trkpt>
<trkpt lat="53.165113" lon="-3.966461"><ele>979</ele><time>2020-08-16T13:28:27Z</time><name>PT6876</name></trkpt>
<trkpt lat="53.165125" lon="-3.966449"><ele>978</ele><time>2020-08-16T13:28:28Z</time><name>PT6877</name></trkpt>
<trkpt lat="53.165136" lon="-3.966440"><ele>978</ele><time>2020-08-16T13:28:29Z</time><name>PT6878</name></trkpt>
<trkpt lat="53.165146" lon="-3.966434"><ele>978</ele><time>2020-08-16T13:28:30Z</time><name>PT6879</name></trkpt>
<trkpt lat="53.165157" lon="-3.966426"><ele>978</ele><time>2020-08-16T13:28:31Z</time><name>PT6880</name></trkpt>
<trkpt lat="53.165166" lon="-3.966419"><ele>978</ele><time>2020-08-16T13:28:32Z</time><name>PT6881</name></trkpt>
<trkpt lat="53.165195" lon="-3.966399"><ele>978</ele><time>2020-08-16T13:28:34Z</time><name>PT6882</name></trkpt>
<trkpt lat="53.165207" lon="-3.966386"><ele>978</ele><time>2020-08-16T13:28:35Z</time><name>PT6883</name></trkpt>
<trkpt lat="53.165219" lon="-3.966372"><ele>978</ele><time>2020-08-16T13:28:36Z</time><name>PT6884</name></trkpt>
<trkpt lat="53.165231" lon="-3.966363"><ele>977</ele><time>2020-08-16T13:28:37Z</time><name>PT6885</name></trkpt>
<trkpt lat="53.165242" lon="-3.966358"><ele>977</ele><time>2020-08-16T13:28:38Z</time><name>PT6886</name></trkpt>
<trkpt lat="53.165253" lon="-3.966352"><ele>977</ele><time>2020-08-16T13:28:39Z</time><name>PT6887</name></trkpt>
<trkpt lat="53.165265" lon="-3.966347"><ele>977</ele><time>2020-08-16T13:28:40Z</time><name>PT6888</name></trkpt>
<trkpt lat="53.165276" lon="-3.966337"><ele>977</ele><time>2020-08-16T13:28:41Z</time><name>PT6889</name></trkpt>
<trkpt lat="53.165287" lon="-3.966331"><ele>977</ele><time>2020-08-16T13:28:42Z</time><name>PT6890</name></trkpt>
<trkpt lat="53.165298" lon="-3.966323"><ele>977</ele><time>2020-08-16T13:28:43Z</time><name>PT6891</name></trkpt>
<trkpt lat="53.165309" lon="-3.966317"><ele>977</ele><time>2020-08-16T13:28:44Z</time><name>PT6892</name></trkpt>
<trkpt lat="53.165318" lon="-3.966309"><ele>977</ele><time>2020-08-16T13:28:45Z</time><name>PT6893</name></trkpt>
<trkpt lat="53.165328" lon="-3.966299"><ele>976</ele><time>2020-08-16T13:28:46Z</time><name>PT6894</name></trkpt>
<trkpt lat="53.165335" lon="-3.966292"><ele>976</ele><time>2020-08-16T13:28:47Z</time><name>PT6895</name></trkpt>
<trkpt lat="53.165341" lon="-3.966284"><ele>976</ele><time>2020-08-16T13:28:48Z</time><name>PT6896</name></trkpt>
<trkpt lat="53.165347" lon="-3.966281"><ele>976</ele><time>2020-08-16T13:28:49Z</time><name>PT6897</name></trkpt>
<trkpt lat="53.165354" lon="-3.966278"><ele>976</ele><time>2020-08-16T13:28:50Z</time><name>PT6898</name></trkpt>
<trkpt lat="53.165363" lon="-3.966274"><ele>976</ele><time>2020-08-16T13:28:51Z</time><name>PT6899</name></trkpt>
<trkpt lat="53.165370" lon="-3.966270"><ele>976</ele><time>2020-08-16T13:28:52Z</time><name>PT6900</name></trkpt>
<trkpt lat="53.165374" lon="-3.966268"><ele>976</ele><time>2020-08-16T13:28:53Z</time><name>PT6901</name></trkpt>
<trkpt lat="53.165382" lon="-3.966266"><ele>976</ele><time>2020-08-16T13:28:54Z</time><name>PT6902</name></trkpt>
<trkpt lat="53.165389" lon="-3.966267"><ele>975</ele><time>2020-08-16T13:28:55Z</time><name>PT6903</name></trkpt>
<trkpt lat="53.165395" lon="-3.966265"><ele>975</ele><time>2020-08-16T13:28:56Z</time><name>PT6904</name></trkpt>
<trkpt lat="53.165402" lon="-3.966258"><ele>975</ele><time>2020-08-16T13:28:57Z</time><name>PT6905</name></trkpt>
<trkpt lat="53.165409" lon="-3.966253"><ele>975</ele><time>2020-08-16T13:28:58Z</time><name>PT6906</name></trkpt>
<trkpt lat="53.165415" lon="-3.966250"><ele>975</ele><time>2020-08-16T13:28:59Z</time><name>PT6907</name></trkpt>
<trkpt lat="53.165420" lon="-3.966244"><ele>975</ele><time>2020-08-16T13:29:00Z</time><name>PT6908</name></trkpt>
<trkpt lat="53.165424" lon="-3.966238"><ele>974</ele><time>2020-08-16T13:29:01Z</time><name>PT6909</name></trkpt>
<trkpt lat="53.165430" lon="-3.966228"><ele>974</ele><time>2020-08-16T13:29:02Z</time><name>PT6910</name></trkpt>
<trkpt lat="53.165448" lon="-3.966202"><ele>974</ele><time>2020-08-16T13:29:04Z</time><name>PT6911</name></trkpt>
<trkpt lat="53.165459" lon="-3.966191"><ele>974</ele><time>2020-08-16T13:29:05Z</time><name>PT6912</name></trkpt>
<trkpt lat="53.165468" lon="-3.966180"><ele>974</ele><time>2020-08-16T13:29:06Z</time><name>PT6913</name></trkpt>
<trkpt lat="53.165476" lon="-3.966174"><ele>974</ele><time>2020-08-16T13:29:07Z</time><name>PT6914</name></trkpt>
<trkpt lat="53.165488" lon="-3.966164"><ele>974</ele><time>2020-08-16T13:29:08Z</time><name>PT6915</name></trkpt>
<trkpt lat="53.165492" lon="-3.966153"><ele>974</ele><time>2020-08-16T13:29:09Z</time><name>PT6916</name></trkpt>
<trkpt lat="53.165499" lon="-3.966140"><ele>974</ele><time>2020-08-16T13:29:10Z</time><name>PT6917</name></trkpt>
<trkpt lat="53.165506" lon="-3.966127"><ele>975</ele><time>2020-08-16T13:29:11Z</time><name>PT6918</name></trkpt>
<trkpt lat="53.165511" lon="-3.966113"><ele>975</ele><time>2020-08-16T13:29:12Z</time><name>PT6919</name></trkpt>
<trkpt lat="53.165513" lon="-3.966101"><ele>975</ele><time>2020-08-16T13:29:13Z</time><name>PT6920</name></trkpt>
<trkpt lat="53.165516" lon="-3.966087"><ele>974</ele><time>2020-08-16T13:29:14Z</time><name>PT6921</name></trkpt>
<trkpt lat="53.165518" lon="-3.966069"><ele>974</ele><time>2020-08-16T13:29:15Z</time><name>PT6922</name></trkpt>
<trkpt lat="53.165524" lon="-3.966052"><ele>974</ele><time>2020-08-16T13:29:16Z</time><name>PT6923</name></trkpt>
<trkpt lat="53.165528" lon="-3.966039"><ele>974</ele><time>2020-08-16T13:29:17Z</time><name>PT6924</name></trkpt>
<trkpt lat="53.165533" lon="-3.966032"><ele>974</ele><time>2020-08-16T13:29:18Z</time><name>PT6925</name></trkpt>
<trkpt lat="53.165535" lon="-3.966023"><ele>974</ele><time>2020-08-16T13:29:19Z</time><name>PT6926</name></trkpt>
<trkpt lat="53.165539" lon="-3.966010"><ele>974</ele><time>2020-08-16T13:29:20Z</time><name>PT6927</name></trkpt>
<trkpt lat="53.165540" lon="-3.965995"><ele>974</ele><time>2020-08-16T13:29:21Z</time><name>PT6928</name></trkpt>
<trkpt lat="53.165542" lon="-3.965978"><ele>974</ele><time>2020-08-16T13:29:22Z</time><name>PT6929</name></trkpt>
<trkpt lat="53.165541" lon="-3.965963"><ele>974</ele><time>2020-08-16T13:29:23Z</time><name>PT6930</name></trkpt>
<trkpt lat="53.165541" lon="-3.965948"><ele>974</ele><time>2020-08-16T13:29:24Z</time><name>PT6931</name></trkpt>
<trkpt lat="53.165545" lon="-3.965933"><ele>974</ele><time>2020-08-16T13:29:25Z</time><name>PT6932</name></trkpt>
<trkpt lat="53.165548" lon="-3.965916"><ele>974</ele><time>2020-08-16T13:29:26Z</time><name>PT6933</name></trkpt>
<trkpt lat="53.165550" lon="-3.965897"><ele>974</ele><time>2020-08-16T13:29:27Z</time><name>PT6934</name></trkpt>
<trkpt lat="53.165552" lon="-3.965880"><ele>974</ele><time>2020-08-16T13:29:28Z</time><name>PT6935</name></trkpt>
<trkpt lat="53.165555" lon="-3.965863"><ele>974</ele><time>2020-08-16T13:29:29Z</time><name>PT6936</name></trkpt>
<trkpt lat="53.165558" lon="-3.965854"><ele>974</ele><time>2020-08-16T13:29:30Z</time><name>PT6937</name></trkpt>
<trkpt lat="53.165561" lon="-3.965842"><ele>974</ele><time>2020-08-16T13:29:31Z</time><name>PT6938</name></trkpt>
<trkpt lat="53.165563" lon="-3.965832"><ele>974</ele><time>2020-08-16T13:29:32Z</time><name>PT6939</name></trkpt>
<trkpt lat="53.165566" lon="-3.965818"><ele>974</ele><time>2020-08-16T13:29:33Z</time><name>PT6940</name></trkpt>
<trkpt lat="53.165571" lon="-3.965802"><ele>974</ele><time>2020-08-16T13:29:34Z</time><name>PT6941</name></trkpt>
<trkpt lat="53.165577" lon="-3.965786"><ele>974</ele><time>2020-08-16T13:29:35Z</time><name>PT6942</name></trkpt>
<trkpt lat="53.165580" lon="-3.965771"><ele>974</ele><time>2020-08-16T13:29:36Z</time><name>PT6943</name></trkpt>
<trkpt lat="53.165583" lon="-3.965758"><ele>974</ele><time>2020-08-16T13:29:37Z</time><name>PT6944</name></trkpt>
<trkpt lat="53.165589" lon="-3.965745"><ele>973</ele><time>2020-08-16T13:29:38Z</time><name>PT6945</name></trkpt>
<trkpt lat="53.165595" lon="-3.965733"><ele>973</ele><time>2020-08-16T13:29:39Z</time><name>PT6946</name></trkpt>
<trkpt lat="53.165599" lon="-3.965717"><ele>973</ele><time>2020-08-16T13:29:40Z</time><name>PT6947</name></trkpt>
<trkpt lat="53.165597" lon="-3.965707"><ele>972</ele><time>2020-08-16T13:29:41Z</time><name>PT6948</name></trkpt>
<trkpt lat="53.165595" lon="-3.965690"><ele>972</ele><time>2020-08-16T13:29:42Z</time><name>PT6949</name></trkpt>
<trkpt lat="53.165594" lon="-3.965669"><ele>972</ele><time>2020-08-16T13:29:43Z</time><name>PT6950</name></trkpt>
<trkpt lat="53.165594" lon="-3.965649"><ele>972</ele><time>2020-08-16T13:29:44Z</time><name>PT6951</name></trkpt>
<trkpt lat="53.165595" lon="-3.965629"><ele>972</ele><time>2020-08-16T13:29:45Z</time><name>PT6952</name></trkpt>
<trkpt lat="53.165598" lon="-3.965609"><ele>972</ele><time>2020-08-16T13:29:46Z</time><name>PT6953</name></trkpt>
<trkpt lat="53.165602" lon="-3.965594"><ele>972</ele><time>2020-08-16T13:29:47Z</time><name>PT6954</name></trkpt>
<trkpt lat="53.165604" lon="-3.965577"><ele>972</ele><time>2020-08-16T13:29:48Z</time><name>PT6955</name></trkpt>
<trkpt lat="53.165610" lon="-3.965559"><ele>972</ele><time>2020-08-16T13:29:49Z</time><name>PT6956</name></trkpt>
<trkpt lat="53.165617" lon="-3.965542"><ele>972</ele><time>2020-08-16T13:29:50Z</time><name>PT6957</name></trkpt>
<trkpt lat="53.165624" lon="-3.965523"><ele>972</ele><time>2020-08-16T13:29:51Z</time><name>PT6958</name></trkpt>
<trkpt lat="53.165631" lon="-3.965504"><ele>971</ele><time>2020-08-16T13:29:52Z</time><name>PT6959</name></trkpt>
<trkpt lat="53.165638" lon="-3.965484"><ele>971</ele><time>2020-08-16T13:29:53Z</time><name>PT6960</name></trkpt>
<trkpt lat="53.165644" lon="-3.965464"><ele>971</ele><time>2020-08-16T13:29:54Z</time><name>PT6961</name></trkpt>
<trkpt lat="53.165651" lon="-3.965448"><ele>971</ele><time>2020-08-16T13:29:55Z</time><name>PT6962</name></trkpt>
<trkpt lat="53.165659" lon="-3.965431"><ele>971</ele><time>2020-08-16T13:29:56Z</time><name>PT6963</name></trkpt>
<trkpt lat="53.165663" lon="-3.965412"><ele>971</ele><time>2020-08-16T13:29:57Z</time><name>PT6964</name></trkpt>
<trkpt lat="53.165670" lon="-3.965394"><ele>971</ele><time>2020-08-16T13:29:58Z</time><name>PT6965</name></trkpt>
<trkpt lat="53.165676" lon="-3.965378"><ele>971</ele><time>2020-08-16T13:29:59Z</time><name>PT6966</name></trkpt>
<trkpt lat="53.165682" lon="-3.965362"><ele>971</ele><time>2020-08-16T13:30:00Z</time><name>PT6967</name></trkpt>
<trkpt lat="53.165687" lon="-3.965343"><ele>970</ele><time>2020-08-16T13:30:01Z</time><name>PT6968</name></trkpt>
<trkpt lat="53.165691" lon="-3.965325"><ele>970</ele><time>2020-08-16T13:30:02Z</time><name>PT6969</name></trkpt>
<trkpt lat="53.165696" lon="-3.965306"><ele>970</ele><time>2020-08-16T13:30:03Z</time><name>PT6970</name></trkpt>
<trkpt lat="53.165701" lon="-3.965288"><ele>970</ele><time>2020-08-16T13:30:04Z</time><name>PT6971</name></trkpt>
<trkpt lat="53.165708" lon="-3.965272"><ele>970</ele><time>2020-08-16T13:30:05Z</time><name>PT6972</name></trkpt>
<trkpt lat="53.165715" lon="-3.965255"><ele>969</ele><time>2020-08-16T13:30:06Z</time><name>PT6973</name></trkpt>
<trkpt lat="53.165736" lon="-3.965189"><ele>969</ele><time>2020-08-16T13:30:10Z</time><name>PT6974</name></trkpt>
<trkpt lat="53.165752" lon="-3.965136"><ele>968</ele><time>2020-08-16T13:30:13Z</time><name>PT6975</name></trkpt>
<trkpt lat="53.165756" lon="-3.965116"><ele>968</ele><time>2020-08-16T13:30:14Z</time><name>PT6976</name></trkpt>
<trkpt lat="53.165760" lon="-3.965098"><ele>968</ele><time>2020-08-16T13:30:15Z</time><name>PT6977</name></trkpt>
<trkpt lat="53.165764" lon="-3.965079"><ele>968</ele><time>2020-08-16T13:30:17Z</time><name>PT6978</name></trkpt>
<trkpt lat="53.165770" lon="-3.965060"><ele>968</ele><time>2020-08-16T13:30:17Z</time><name>PT6979</name></trkpt>
<trkpt lat="53.165775" lon="-3.965043"><ele>968</ele><time>2020-08-16T13:30:18Z</time><name>PT6980</name></trkpt>
<trkpt lat="53.165781" lon="-3.965026"><ele>968</ele><time>2020-08-16T13:30:19Z</time><name>PT6981</name></trkpt>
<trkpt lat="53.165786" lon="-3.965008"><ele>967</ele><time>2020-08-16T13:30:20Z</time><name>PT6982</name></trkpt>
<trkpt lat="53.165791" lon="-3.964990"><ele>967</ele><time>2020-08-16T13:30:21Z</time><name>PT6983</name></trkpt>
<trkpt lat="53.165796" lon="-3.964970"><ele>967</ele><time>2020-08-16T13:30:23Z</time><name>PT6984</name></trkpt>
<trkpt lat="53.165801" lon="-3.964951"><ele>967</ele><time>2020-08-16T13:30:23Z</time><name>PT6985</name></trkpt>
<trkpt lat="53.165806" lon="-3.964933"><ele>967</ele><time>2020-08-16T13:30:24Z</time><name>PT6986</name></trkpt>
<trkpt lat="53.165811" lon="-3.964915"><ele>967</ele><time>2020-08-16T13:30:25Z</time><name>PT6987</name></trkpt>
<trkpt lat="53.165816" lon="-3.964898"><ele>967</ele><time>2020-08-16T13:30:26Z</time><name>PT6988</name></trkpt>
<trkpt lat="53.165822" lon="-3.964879"><ele>966</ele><time>2020-08-16T13:30:27Z</time><name>PT6989</name></trkpt>
<trkpt lat="53.165828" lon="-3.964860"><ele>966</ele><time>2020-08-16T13:30:28Z</time><name>PT6990</name></trkpt>
<trkpt lat="53.165835" lon="-3.964840"><ele>966</ele><time>2020-08-16T13:30:29Z</time><name>PT6991</name></trkpt>
<trkpt lat="53.165841" lon="-3.964821"><ele>966</ele><time>2020-08-16T13:30:30Z</time><name>PT6992</name></trkpt>
<trkpt lat="53.165848" lon="-3.964803"><ele>966</ele><time>2020-08-16T13:30:31Z</time><name>PT6993</name></trkpt>
<trkpt lat="53.165853" lon="-3.964785"><ele>966</ele><time>2020-08-16T13:30:32Z</time><name>PT6994</name></trkpt>
<trkpt lat="53.165860" lon="-3.964769"><ele>965</ele><time>2020-08-16T13:30:33Z</time><name>PT6995</name></trkpt>
<trkpt lat="53.165869" lon="-3.964752"><ele>965</ele><time>2020-08-16T13:30:34Z</time><name>PT6996</name></trkpt>
<trkpt lat="53.165876" lon="-3.964734"><ele>965</ele><time>2020-08-16T13:30:35Z</time><name>PT6997</name></trkpt>
<trkpt lat="53.165885" lon="-3.964719"><ele>965</ele><time>2020-08-16T13:30:36Z</time><name>PT6998</name></trkpt>
<trkpt lat="53.165892" lon="-3.964702"><ele>965</ele><time>2020-08-16T13:30:37Z</time><name>PT6999</name></trkpt>
<trkpt lat="53.165899" lon="-3.964686"><ele>965</ele><time>2020-08-16T13:30:38Z</time><name>PT7000</name></trkpt>
<trkpt lat="53.165906" lon="-3.964669"><ele>964</ele><time>2020-08-16T13:30:39Z</time><name>PT7001</name></trkpt>
<trkpt lat="53.165912" lon="-3.964648"><ele>964</ele><time>2020-08-16T13:30:40Z</time><name>PT7002</name></trkpt>
<trkpt lat="53.165919" lon="-3.964630"><ele>964</ele><time>2020-08-16T13:30:41Z</time><name>PT7003</name></trkpt>
<trkpt lat="53.165927" lon="-3.964618"><ele>963</ele><time>2020-08-16T13:30:42Z</time><name>PT7004</name></trkpt>
<trkpt lat="53.165935" lon="-3.964604"><ele>963</ele><time>2020-08-16T13:30:43Z</time><name>PT7005</name></trkpt>
<trkpt lat="53.165944" lon="-3.964589"><ele>963</ele><time>2020-08-16T13:30:44Z</time><name>PT7006</name></trkpt>
<trkpt lat="53.165951" lon="-3.964573"><ele>963</ele><time>2020-08-16T13:30:45Z</time><name>PT7007</name></trkpt>
<trkpt lat="53.165959" lon="-3.964555"><ele>963</ele><time>2020-08-16T13:30:46Z</time><name>PT7008</name></trkpt>
<trkpt lat="53.165967" lon="-3.964537"><ele>962</ele><time>2020-08-16T13:30:47Z</time><name>PT7009</name></trkpt>
<trkpt lat="53.165975" lon="-3.964522"><ele>962</ele><time>2020-08-16T13:30:48Z</time><name>PT7010</name></trkpt>
<trkpt lat="53.165984" lon="-3.964505"><ele>962</ele><time>2020-08-16T13:30:49Z</time><name>PT7011</name></trkpt>
<trkpt lat="53.165991" lon="-3.964488"><ele>962</ele><time>2020-08-16T13:30:50Z</time><name>PT7012</name></trkpt>
<trkpt lat="53.165998" lon="-3.964470"><ele>962</ele><time>2020-08-16T13:30:51Z</time><name>PT7013</name></trkpt>
<trkpt lat="53.166007" lon="-3.964454"><ele>962</ele><time>2020-08-16T13:30:52Z</time><name>PT7014</name></trkpt>
<trkpt lat="53.166018" lon="-3.964440"><ele>962</ele><time>2020-08-16T13:30:53Z</time><name>PT7015</name></trkpt>
<trkpt lat="53.166028" lon="-3.964428"><ele>962</ele><time>2020-08-16T13:30:54Z</time><name>PT7016</name></trkpt>
<trkpt lat="53.166038" lon="-3.964415"><ele>962</ele><time>2020-08-16T13:30:55Z</time><name>PT7017</name></trkpt>
<trkpt lat="53.166048" lon="-3.964403"><ele>962</ele><time>2020-08-16T13:30:56Z</time><name>PT7018</name></trkpt>
<trkpt lat="53.166056" lon="-3.964392"><ele>962</ele><time>2020-08-16T13:30:57Z</time><name>PT7019</name></trkpt>
<trkpt lat="53.166065" lon="-3.964379"><ele>962</ele><time>2020-08-16T13:30:58Z</time><name>PT7020</name></trkpt>
<trkpt lat="53.166074" lon="-3.964366"><ele>961</ele><time>2020-08-16T13:30:59Z</time><name>PT7021</name></trkpt>
<trkpt lat="53.166081" lon="-3.964358"><ele>962</ele><time>2020-08-16T13:31:00Z</time><name>PT7022</name></trkpt>
<trkpt lat="53.166091" lon="-3.964351"><ele>962</ele><time>2020-08-16T13:31:01Z</time><name>PT7023</name></trkpt>
<trkpt lat="53.166101" lon="-3.964340"><ele>961</ele><time>2020-08-16T13:31:02Z</time><name>PT7024</name></trkpt>
<trkpt lat="53.166110" lon="-3.964328"><ele>961</ele><time>2020-08-16T13:31:03Z</time><name>PT7025</name></trkpt>
<trkpt lat="53.166117" lon="-3.964317"><ele>961</ele><time>2020-08-16T13:31:04Z</time><name>PT7026</name></trkpt>
<trkpt lat="53.166126" lon="-3.964304"><ele>960</ele><time>2020-08-16T13:31:05Z</time><name>PT7027</name></trkpt>
<trkpt lat="53.166133" lon="-3.964289"><ele>960</ele><time>2020-08-16T13:31:06Z</time><name>PT7028</name></trkpt>
<trkpt lat="53.166139" lon="-3.964274"><ele>960</ele><time>2020-08-16T13:31:07Z</time><name>PT7029</name></trkpt>
<trkpt lat="53.166143" lon="-3.964257"><ele>960</ele><time>2020-08-16T13:31:08Z</time><name>PT7030</name></trkpt>
<trkpt lat="53.166149" lon="-3.964241"><ele>959</ele><time>2020-08-16T13:31:09Z</time><name>PT7031</name></trkpt>
<trkpt lat="53.166154" lon="-3.964226"><ele>959</ele><time>2020-08-16T13:31:10Z</time><name>PT7032</name></trkpt>
<trkpt lat="53.166160" lon="-3.964212"><ele>959</ele><time>2020-08-16T13:31:11Z</time><name>PT7033</name></trkpt>
<trkpt lat="53.166168" lon="-3.964198"><ele>959</ele><time>2020-08-16T13:31:12Z</time><name>PT7034</name></trkpt>
<trkpt lat="53.166177" lon="-3.964184"><ele>958</ele><time>2020-08-16T13:31:13Z</time><name>PT7035</name></trkpt>
<trkpt lat="53.166187" lon="-3.964175"><ele>958</ele><time>2020-08-16T13:31:14Z</time><name>PT7036</name></trkpt>
<trkpt lat="53.166199" lon="-3.964168"><ele>958</ele><time>2020-08-16T13:31:15Z</time><name>PT7037</name></trkpt>
<trkpt lat="53.166208" lon="-3.964159"><ele>958</ele><time>2020-08-16T13:31:16Z</time><name>PT7038</name></trkpt>
<trkpt lat="53.166218" lon="-3.964154"><ele>958</ele><time>2020-08-16T13:31:17Z</time><name>PT7039</name></trkpt>
<trkpt lat="53.166228" lon="-3.964150"><ele>958</ele><time>2020-08-16T13:31:18Z</time><name>PT7040</name></trkpt>
<trkpt lat="53.166238" lon="-3.964143"><ele>958</ele><time>2020-08-16T13:31:19Z</time><name>PT7041</name></trkpt>
<trkpt lat="53.166247" lon="-3.964138"><ele>958</ele><time>2020-08-16T13:31:20Z</time><name>PT7042</name></trkpt>
<trkpt lat="53.166257" lon="-3.964134"><ele>958</ele><time>2020-08-16T13:31:21Z</time><name>PT7043</name></trkpt>
<trkpt lat="53.166268" lon="-3.964131"><ele>958</ele><time>2020-08-16T13:31:22Z</time><name>PT7044</name></trkpt>
<trkpt lat="53.166279" lon="-3.964129"><ele>957</ele><time>2020-08-16T13:31:23Z</time><name>PT7045</name></trkpt>
<trkpt lat="53.166292" lon="-3.964127"><ele>958</ele><time>2020-08-16T13:31:24Z</time><name>PT7046</name></trkpt>
<trkpt lat="53.166304" lon="-3.964126"><ele>957</ele><time>2020-08-16T13:31:25Z</time><name>PT7047</name></trkpt>
<trkpt lat="53.166315" lon="-3.964127"><ele>957</ele><time>2020-08-16T13:31:26Z</time><name>PT7048</name></trkpt>
<trkpt lat="53.166326" lon="-3.964127"><ele>957</ele><time>2020-08-16T13:31:27Z</time><name>PT7049</name></trkpt>
<trkpt lat="53.166336" lon="-3.964121"><ele>957</ele><time>2020-08-16T13:31:28Z</time><name>PT7050</name></trkpt>
<trkpt lat="53.166346" lon="-3.964111"><ele>957</ele><time>2020-08-16T13:31:29Z</time><name>PT7051</name></trkpt>
<trkpt lat="53.166352" lon="-3.964098"><ele>957</ele><time>2020-08-16T13:31:30Z</time><name>PT7052</name></trkpt>
<trkpt lat="53.166357" lon="-3.964083"><ele>957</ele><time>2020-08-16T13:31:31Z</time><name>PT7053</name></trkpt>
<trkpt lat="53.166362" lon="-3.964069"><ele>957</ele><time>2020-08-16T13:31:32Z</time><name>PT7054</name></trkpt>
<trkpt lat="53.166370" lon="-3.964057"><ele>957</ele><time>2020-08-16T13:31:33Z</time><name>PT7055</name></trkpt>
<trkpt lat="53.166376" lon="-3.964046"><ele>956</ele><time>2020-08-16T13:31:34Z</time><name>PT7056</name></trkpt>
<trkpt lat="53.166383" lon="-3.964035"><ele>956</ele><time>2020-08-16T13:31:35Z</time><name>PT7057</name></trkpt>
<trkpt lat="53.166391" lon="-3.964023"><ele>956</ele><time>2020-08-16T13:31:36Z</time><name>PT7058</name></trkpt>
<trkpt lat="53.166396" lon="-3.964008"><ele>956</ele><time>2020-08-16T13:31:37Z</time><name>PT7059</name></trkpt>
<trkpt lat="53.166398" lon="-3.963992"><ele>956</ele><time>2020-08-16T13:31:38Z</time><name>PT7060</name></trkpt>
<trkpt lat="53.166401" lon="-3.963975"><ele>955</ele><time>2020-08-16T13:31:39Z</time><name>PT7061</name></trkpt>
<trkpt lat="53.166405" lon="-3.963960"><ele>955</ele><time>2020-08-16T13:31:40Z</time><name>PT7062</name></trkpt>
<trkpt lat="53.166410" lon="-3.963947"><ele>955</ele><time>2020-08-16T13:31:41Z</time><name>PT7063</name></trkpt>
<trkpt lat="53.166417" lon="-3.963933"><ele>954</ele><time>2020-08-16T13:31:42Z</time><name>PT7064</name></trkpt>
<trkpt lat="53.166420" lon="-3.963920"><ele>954</ele><time>2020-08-16T13:31:43Z</time><name>PT7065</name></trkpt>
<trkpt lat="53.166423" lon="-3.963906"><ele>953</ele><time>2020-08-16T13:31:44Z</time><name>PT7066</name></trkpt>
<trkpt lat="53.166426" lon="-3.963890"><ele>953</ele><time>2020-08-16T13:31:45Z</time><name>PT7067</name></trkpt>
<trkpt lat="53.166430" lon="-3.963874"><ele>953</ele><time>2020-08-16T13:31:46Z</time><name>PT7068</name></trkpt>
<trkpt lat="53.166437" lon="-3.963862"><ele>953</ele><time>2020-08-16T13:31:47Z</time><name>PT7069</name></trkpt>
<trkpt lat="53.166444" lon="-3.963846"><ele>952</ele><time>2020-08-16T13:31:48Z</time><name>PT7070</name></trkpt>
<trkpt lat="53.166450" lon="-3.963829"><ele>952</ele><time>2020-08-16T13:31:49Z</time><name>PT7071</name></trkpt>
<trkpt lat="53.166457" lon="-3.963812"><ele>952</ele><time>2020-08-16T13:31:50Z</time><name>PT7072</name></trkpt>
<trkpt lat="53.166465" lon="-3.963796"><ele>952</ele><time>2020-08-16T13:31:51Z</time><name>PT7073</name></trkpt>
<trkpt lat="53.166473" lon="-3.963784"><ele>952</ele><time>2020-08-16T13:31:52Z</time><name>PT7074</name></trkpt>
<trkpt lat="53.166482" lon="-3.963775"><ele>952</ele><time>2020-08-16T13:31:53Z</time><name>PT7075</name></trkpt>
<trkpt lat="53.166492" lon="-3.963767"><ele>952</ele><time>2020-08-16T13:31:54Z</time><name>PT7076</name></trkpt>
<trkpt lat="53.166502" lon="-3.963759"><ele>952</ele><time>2020-08-16T13:31:55Z</time><name>PT7077</name></trkpt>
<trkpt lat="53.166513" lon="-3.963755"><ele>952</ele><time>2020-08-16T13:31:56Z</time><name>PT7078</name></trkpt>
<trkpt lat="53.166525" lon="-3.963750"><ele>952</ele><time>2020-08-16T13:31:57Z</time><name>PT7079</name></trkpt>
<trkpt lat="53.166536" lon="-3.963743"><ele>952</ele><time>2020-08-16T13:31:58Z</time><name>PT7080</name></trkpt>
<trkpt lat="53.166548" lon="-3.963736"><ele>952</ele><time>2020-08-16T13:31:59Z</time><name>PT7081</name></trkpt>
<trkpt lat="53.166558" lon="-3.963730"><ele>952</ele><time>2020-08-16T13:32:00Z</time><name>PT7082</name></trkpt>
<trkpt lat="53.166568" lon="-3.963722"><ele>952</ele><time>2020-08-16T13:32:01Z</time><name>PT7083</name></trkpt>
<trkpt lat="53.166579" lon="-3.963717"><ele>952</ele><time>2020-08-16T13:32:02Z</time><name>PT7084</name></trkpt>
<trkpt lat="53.166588" lon="-3.963711"><ele>952</ele><time>2020-08-16T13:32:03Z</time><name>PT7085</name></trkpt>
<trkpt lat="53.166599" lon="-3.963706"><ele>952</ele><time>2020-08-16T13:32:04Z</time><name>PT7086</name></trkpt>
<trkpt lat="53.166611" lon="-3.963700"><ele>952</ele><time>2020-08-16T13:32:05Z</time><name>PT7087</name></trkpt>
<trkpt lat="53.166621" lon="-3.963698"><ele>952</ele><time>2020-08-16T13:32:06Z</time><name>PT7088</name></trkpt>
<trkpt lat="53.166631" lon="-3.963697"><ele>952</ele><time>2020-08-16T13:32:07Z</time><name>PT7089</name></trkpt>
<trkpt lat="53.166643" lon="-3.963698"><ele>951</ele><time>2020-08-16T13:32:08Z</time><name>PT7090</name></trkpt>
<trkpt lat="53.166656" lon="-3.963698"><ele>951</ele><time>2020-08-16T13:32:09Z</time><name>PT7091</name></trkpt>
<trkpt lat="53.166668" lon="-3.963700"><ele>952</ele><time>2020-08-16T13:32:10Z</time><name>PT7092</name></trkpt>
<trkpt lat="53.166680" lon="-3.963706"><ele>952</ele><time>2020-08-16T13:32:11Z</time><name>PT7093</name></trkpt>
<trkpt lat="53.166689" lon="-3.963712"><ele>952</ele><time>2020-08-16T13:32:12Z</time><name>PT7094</name></trkpt>
<trkpt lat="53.166700" lon="-3.963717"><ele>952</ele><time>2020-08-16T13:32:13Z</time><name>PT7095</name></trkpt>
<trkpt lat="53.166710" lon="-3.963720"><ele>951</ele><time>2020-08-16T13:32:14Z</time><name>PT7096</name></trkpt>
<trkpt lat="53.166720" lon="-3.963719"><ele>951</ele><time>2020-08-16T13:32:15Z</time><name>PT7097</name></trkpt>
<trkpt lat="53.166731" lon="-3.963719"><ele>951</ele><time>2020-08-16T13:32:16Z</time><name>PT7098</name></trkpt>
<trkpt lat="53.166743" lon="-3.963719"><ele>951</ele><time>2020-08-16T13:32:17Z</time><name>PT7099</name></trkpt>
<trkpt lat="53.166754" lon="-3.963717"><ele>951</ele><time>2020-08-16T13:32:18Z</time><name>PT7100</name></trkpt>
<trkpt lat="53.166766" lon="-3.963717"><ele>951</ele><time>2020-08-16T13:32:19Z</time><name>PT7101</name></trkpt>
<trkpt lat="53.166776" lon="-3.963716"><ele>951</ele><time>2020-08-16T13:32:20Z</time><name>PT7102</name></trkpt>
<trkpt lat="53.166789" lon="-3.963718"><ele>951</ele><time>2020-08-16T13:32:21Z</time><name>PT7103</name></trkpt>
<trkpt lat="53.166802" lon="-3.963718"><ele>951</ele><time>2020-08-16T13:32:22Z</time><name>PT7104</name></trkpt>
<trkpt lat="53.166813" lon="-3.963721"><ele>951</ele><time>2020-08-16T13:32:23Z</time><name>PT7105</name></trkpt>
<trkpt lat="53.166826" lon="-3.963719"><ele>951</ele><time>2020-08-16T13:32:24Z</time><name>PT7106</name></trkpt>
<trkpt lat="53.166836" lon="-3.963710"><ele>951</ele><time>2020-08-16T13:32:25Z</time><name>PT7107</name></trkpt>
<trkpt lat="53.166846" lon="-3.963698"><ele>951</ele><time>2020-08-16T13:32:26Z</time><name>PT7108</name></trkpt>
<trkpt lat="53.166855" lon="-3.963686"><ele>951</ele><time>2020-08-16T13:32:27Z</time><name>PT7109</name></trkpt>
<trkpt lat="53.166862" lon="-3.963674"><ele>951</ele><time>2020-08-16T13:32:28Z</time><name>PT7110</name></trkpt>
<trkpt lat="53.166871" lon="-3.963661"><ele>951</ele><time>2020-08-16T13:32:29Z</time><name>PT7111</name></trkpt>
<trkpt lat="53.166880" lon="-3.963650"><ele>950</ele><time>2020-08-16T13:32:30Z</time><name>PT7112</name></trkpt>
<trkpt lat="53.166890" lon="-3.963638"><ele>950</ele><time>2020-08-16T13:32:31Z</time><name>PT7113</name></trkpt>
<trkpt lat="53.166901" lon="-3.963625"><ele>950</ele><time>2020-08-16T13:32:32Z</time><name>PT7114</name></trkpt>
<trkpt lat="53.166910" lon="-3.963613"><ele>950</ele><time>2020-08-16T13:32:33Z</time><name>PT7115</name></trkpt>
<trkpt lat="53.166918" lon="-3.963600"><ele>950</ele><time>2020-08-16T13:32:34Z</time><name>PT7116</name></trkpt>
<trkpt lat="53.166927" lon="-3.963587"><ele>950</ele><time>2020-08-16T13:32:35Z</time><name>PT7117</name></trkpt>
<trkpt lat="53.166937" lon="-3.963573"><ele>950</ele><time>2020-08-16T13:32:36Z</time><name>PT7118</name></trkpt>
<trkpt lat="53.166946" lon="-3.963558"><ele>950</ele><time>2020-08-16T13:32:37Z</time><name>PT7119</name></trkpt>
<trkpt lat="53.166955" lon="-3.963546"><ele>950</ele><time>2020-08-16T13:32:38Z</time><name>PT7120</name></trkpt>
<trkpt lat="53.166964" lon="-3.963534"><ele>950</ele><time>2020-08-16T13:32:39Z</time><name>PT7121</name></trkpt>
<trkpt lat="53.166973" lon="-3.963518"><ele>950</ele><time>2020-08-16T13:32:40Z</time><name>PT7122</name></trkpt>
<trkpt lat="53.166982" lon="-3.963503"><ele>949</ele><time>2020-08-16T13:32:41Z</time><name>PT7123</name></trkpt>
<trkpt lat="53.166991" lon="-3.963491"><ele>949</ele><time>2020-08-16T13:32:42Z</time><name>PT7124</name></trkpt>
<trkpt lat="53.167001" lon="-3.963479"><ele>949</ele><time>2020-08-16T13:32:43Z</time><name>PT7125</name></trkpt>
<trkpt lat="53.167010" lon="-3.963466"><ele>949</ele><time>2020-08-16T13:32:44Z</time><name>PT7126</name></trkpt>
<trkpt lat="53.167017" lon="-3.963451"><ele>949</ele><time>2020-08-16T13:32:45Z</time><name>PT7127</name></trkpt>
<trkpt lat="53.167025" lon="-3.963434"><ele>949</ele><time>2020-08-16T13:32:46Z</time><name>PT7128</name></trkpt>
<trkpt lat="53.167034" lon="-3.963419"><ele>949</ele><time>2020-08-16T13:32:47Z</time><name>PT7129</name></trkpt>
<trkpt lat="53.167042" lon="-3.963405"><ele>949</ele><time>2020-08-16T13:32:48Z</time><name>PT7130</name></trkpt>
<trkpt lat="53.167050" lon="-3.963392"><ele>949</ele><time>2020-08-16T13:32:49Z</time><name>PT7131</name></trkpt>
<trkpt lat="53.167059" lon="-3.963379"><ele>949</ele><time>2020-08-16T13:32:50Z</time><name>PT7132</name></trkpt>
<trkpt lat="53.167068" lon="-3.963364"><ele>949</ele><time>2020-08-16T13:32:51Z</time><name>PT7133</name></trkpt>
<trkpt lat="53.167079" lon="-3.963352"><ele>949</ele><time>2020-08-16T13:32:52Z</time><name>PT7134</name></trkpt>
<trkpt lat="53.167090" lon="-3.963341"><ele>949</ele><time>2020-08-16T13:32:53Z</time><name>PT7135</name></trkpt>
<trkpt lat="53.167099" lon="-3.963329"><ele>949</ele><time>2020-08-16T13:32:54Z</time><name>PT7136</name></trkpt>
<trkpt lat="53.167108" lon="-3.963316"><ele>949</ele><time>2020-08-16T13:32:55Z</time><name>PT7137</name></trkpt>
<trkpt lat="53.167117" lon="-3.963306"><ele>949</ele><time>2020-08-16T13:32:56Z</time><name>PT7138</name></trkpt>
<trkpt lat="53.167127" lon="-3.963300"><ele>948</ele><time>2020-08-16T13:32:57Z</time><name>PT7139</name></trkpt>
<trkpt lat="53.167136" lon="-3.963295"><ele>949</ele><time>2020-08-16T13:32:58Z</time><name>PT7140</name></trkpt>
<trkpt lat="53.167145" lon="-3.963290"><ele>949</ele><time>2020-08-16T13:32:59Z</time><name>PT7141</name></trkpt>
<trkpt lat="53.167157" lon="-3.963285"><ele>949</ele><time>2020-08-16T13:33:00Z</time><name>PT7142</name></trkpt>
<trkpt lat="53.167167" lon="-3.963283"><ele>949</ele><time>2020-08-16T13:33:01Z</time><name>PT7143</name></trkpt>
<trkpt lat="53.167176" lon="-3.963282"><ele>949</ele><time>2020-08-16T13:33:02Z</time><name>PT7144</name></trkpt>
<trkpt lat="53.167186" lon="-3.963283"><ele>949</ele><time>2020-08-16T13:33:03Z</time><name>PT7145</name></trkpt>
<trkpt lat="53.167198" lon="-3.963288"><ele>949</ele><time>2020-08-16T13:33:04Z</time><name>PT7146</name></trkpt>
<trkpt lat="53.167208" lon="-3.963288"><ele>949</ele><time>2020-08-16T13:33:05Z</time><name>PT7147</name></trkpt>
<trkpt lat="53.167219" lon="-3.963287"><ele>949</ele><time>2020-08-16T13:33:06Z</time><name>PT7148</name></trkpt>
<trkpt lat="53.167230" lon="-3.963286"><ele>949</ele><time>2020-08-16T13:33:07Z</time><name>PT7149</name></trkpt>
<trkpt lat="53.167242" lon="-3.963285"><ele>949</ele><time>2020-08-16T13:33:08Z</time><name>PT7150</name></trkpt>
<trkpt lat="53.167253" lon="-3.963284"><ele>949</ele><time>2020-08-16T13:33:09Z</time><name>PT7151</name></trkpt>
<trkpt lat="53.167264" lon="-3.963281"><ele>949</ele><time>2020-08-16T13:33:10Z</time><name>PT7152</name></trkpt>
<trkpt lat="53.167274" lon="-3.963277"><ele>949</ele><time>2020-08-16T13:33:11Z</time><name>PT7153</name></trkpt>
<trkpt lat="53.167286" lon="-3.963275"><ele>949</ele><time>2020-08-16T13:33:12Z</time><name>PT7154</name></trkpt>
<trkpt lat="53.167316" lon="-3.963291"><ele>949</ele><time>2020-08-16T13:33:15Z</time><name>PT7155</name></trkpt>
<trkpt lat="53.167335" lon="-3.963307"><ele>948</ele><time>2020-08-16T13:33:17Z</time><name>PT7156</name></trkpt>
<trkpt lat="53.167344" lon="-3.963309"><ele>948</ele><time>2020-08-16T13:33:18Z</time><name>PT7157</name></trkpt>
<trkpt lat="53.167353" lon="-3.963308"><ele>948</ele><time>2020-08-16T13:33:19Z</time><name>PT7158</name></trkpt>
<trkpt lat="53.167363" lon="-3.963308"><ele>948</ele><time>2020-08-16T13:33:20Z</time><name>PT7159</name></trkpt>
<trkpt lat="53.167372" lon="-3.963311"><ele>949</ele><time>2020-08-16T13:33:21Z</time><name>PT7160</name></trkpt>
<trkpt lat="53.167385" lon="-3.963316"><ele>948</ele><time>2020-08-16T13:33:22Z</time><name>PT7161</name></trkpt>
<trkpt lat="53.167396" lon="-3.963319"><ele>948</ele><time>2020-08-16T13:33:23Z</time><name>PT7162</name></trkpt>
<trkpt lat="53.167408" lon="-3.963321"><ele>948</ele><time>2020-08-16T13:33:24Z</time><name>PT7163</name></trkpt>
<trkpt lat="53.167418" lon="-3.963323"><ele>948</ele><time>2020-08-16T13:33:25Z</time><name>PT7164</name></trkpt>
<trkpt lat="53.167430" lon="-3.963324"><ele>948</ele><time>2020-08-16T13:33:26Z</time><name>PT7165</name></trkpt>
<trkpt lat="53.167441" lon="-3.963325"><ele>948</ele><time>2020-08-16T13:33:27Z</time><name>PT7166</name></trkpt>
<trkpt lat="53.167453" lon="-3.963326"><ele>948</ele><time>2020-08-16T13:33:28Z</time><name>PT7167</name></trkpt>
<trkpt lat="53.167463" lon="-3.963324"><ele>948</ele><time>2020-08-16T13:33:29Z</time><name>PT7168</name></trkpt>
<trkpt lat="53.167472" lon="-3.963326"><ele>948</ele><time>2020-08-16T13:33:30Z</time><name>PT7169</name></trkpt>
<trkpt lat="53.167484" lon="-3.963329"><ele>948</ele><time>2020-08-16T13:33:31Z</time><name>PT7170</name></trkpt>
<trkpt lat="53.167495" lon="-3.963333"><ele>948</ele><time>2020-08-16T13:33:32Z</time><name>PT7171</name></trkpt>
<trkpt lat="53.167506" lon="-3.963337"><ele>948</ele><time>2020-08-16T13:33:33Z</time><name>PT7172</name></trkpt>
<trkpt lat="53.167517" lon="-3.963340"><ele>948</ele><time>2020-08-16T13:33:34Z</time><name>PT7173</name></trkpt>
<trkpt lat="53.167529" lon="-3.963341"><ele>948</ele><time>2020-08-16T13:33:35Z</time><name>PT7174</name></trkpt>
<trkpt lat="53.167541" lon="-3.963342"><ele>948</ele><time>2020-08-16T13:33:36Z</time><name>PT7175</name></trkpt>
<trkpt lat="53.167552" lon="-3.963341"><ele>948</ele><time>2020-08-16T13:33:37Z</time><name>PT7176</name></trkpt>
<trkpt lat="53.167563" lon="-3.963340"><ele>948</ele><time>2020-08-16T13:33:38Z</time><name>PT7177</name></trkpt>
<trkpt lat="53.167573" lon="-3.963340"><ele>947</ele><time>2020-08-16T13:33:39Z</time><name>PT7178</name></trkpt>
<trkpt lat="53.167584" lon="-3.963338"><ele>947</ele><time>2020-08-16T13:33:40Z</time><name>PT7179</name></trkpt>
<trkpt lat="53.167595" lon="-3.963337"><ele>947</ele><time>2020-08-16T13:33:41Z</time><name>PT7180</name></trkpt>
<trkpt lat="53.167607" lon="-3.963334"><ele>947</ele><time>2020-08-16T13:33:43Z</time><name>PT7181</name></trkpt>
<trkpt lat="53.167618" lon="-3.963330"><ele>947</ele><time>2020-08-16T13:33:43Z</time><name>PT7182</name></trkpt>
<trkpt lat="53.167630" lon="-3.963325"><ele>947</ele><time>2020-08-16T13:33:44Z</time><name>PT7183</name></trkpt>
<trkpt lat="53.167641" lon="-3.963324"><ele>946</ele><time>2020-08-16T13:33:45Z</time><name>PT7184</name></trkpt>
<trkpt lat="53.167652" lon="-3.963322"><ele>946</ele><time>2020-08-16T13:33:46Z</time><name>PT7185</name></trkpt>
<trkpt lat="53.167664" lon="-3.963317"><ele>946</ele><time>2020-08-16T13:33:47Z</time><name>PT7186</name></trkpt>
<trkpt lat="53.167675" lon="-3.963312"><ele>946</ele><time>2020-08-16T13:33:48Z</time><name>PT7187</name></trkpt>
<trkpt lat="53.167688" lon="-3.963309"><ele>945</ele><time>2020-08-16T13:33:49Z</time><name>PT7188</name></trkpt>
<trkpt lat="53.167699" lon="-3.963304"><ele>945</ele><time>2020-08-16T13:33:50Z</time><name>PT7189</name></trkpt>
<trkpt lat="53.167710" lon="-3.963299"><ele>945</ele><time>2020-08-16T13:33:51Z</time><name>PT7190</name></trkpt>
<trkpt lat="53.167722" lon="-3.963295"><ele>945</ele><time>2020-08-16T13:33:52Z</time><name>PT7191</name></trkpt>
<trkpt lat="53.167734" lon="-3.963294"><ele>945</ele><time>2020-08-16T13:33:53Z</time><name>PT7192</name></trkpt>
<trkpt lat="53.167746" lon="-3.963294"><ele>945</ele><time>2020-08-16T13:33:54Z</time><name>PT7193</name></trkpt>
<trkpt lat="53.167758" lon="-3.963291"><ele>945</ele><time>2020-08-16T13:33:55Z</time><name>PT7194</name></trkpt>
<trkpt lat="53.167771" lon="-3.963290"><ele>945</ele><time>2020-08-16T13:33:56Z</time><name>PT7195</name></trkpt>
<trkpt lat="53.167782" lon="-3.963291"><ele>945</ele><time>2020-08-16T13:33:57Z</time><name>PT7196</name></trkpt>
<trkpt lat="53.167794" lon="-3.963292"><ele>945</ele><time>2020-08-16T13:33:58Z</time><name>PT7197</name></trkpt>
<trkpt lat="53.167803" lon="-3.963289"><ele>945</ele><time>2020-08-16T13:33:59Z</time><name>PT7198</name></trkpt>
<trkpt lat="53.167814" lon="-3.963287"><ele>945</ele><time>2020-08-16T13:34:00Z</time><name>PT7199</name></trkpt>
<trkpt lat="53.167825" lon="-3.963286"><ele>944</ele><time>2020-08-16T13:34:01Z</time><name>PT7200</name></trkpt>
<trkpt lat="53.167834" lon="-3.963277"><ele>944</ele><time>2020-08-16T13:34:02Z</time><name>PT7201</name></trkpt>
<trkpt lat="53.167840" lon="-3.963265"><ele>944</ele><time>2020-08-16T13:34:03Z</time><name>PT7202</name></trkpt>
<trkpt lat="53.167846" lon="-3.963256"><ele>944</ele><time>2020-08-16T13:34:04Z</time><name>PT7203</name></trkpt>
<trkpt lat="53.167854" lon="-3.963251"><ele>944</ele><time>2020-08-16T13:34:05Z</time><name>PT7204</name></trkpt>
<trkpt lat="53.167861" lon="-3.963242"><ele>944</ele><time>2020-08-16T13:34:06Z</time><name>PT7205</name></trkpt>
<trkpt lat="53.167867" lon="-3.963234"><ele>944</ele><time>2020-08-16T13:34:07Z</time><name>PT7206</name></trkpt>
<trkpt lat="53.167870" lon="-3.963228"><ele>944</ele><time>2020-08-16T13:34:08Z</time><name>PT7207</name></trkpt>
<trkpt lat="53.167872" lon="-3.963222"><ele>944</ele><time>2020-08-16T13:34:09Z</time><name>PT7208</name></trkpt>
<trkpt lat="53.167872" lon="-3.963220"><ele>944</ele><time>2020-08-16T13:34:10Z</time><name>PT7209</name></trkpt>
<trkpt lat="53.167872" lon="-3.963220"><ele>944</ele><time>2020-08-16T13:34:11Z</time><name>PT7210</name></trkpt>
<trkpt lat="53.167873" lon="-3.963220"><ele>944</ele><time>2020-08-16T13:34:12Z</time><name>PT7211</name></trkpt>
<trkpt lat="53.167874" lon="-3.963214"><ele>944</ele><time>2020-08-16T13:34:17Z</time><name>PT7212</name></trkpt>
<trkpt lat="53.167882" lon="-3.963202"><ele>944</ele><time>2020-08-16T13:34:18Z</time><name>PT7213</name></trkpt>
<trkpt lat="53.167890" lon="-3.963189"><ele>944</ele><time>2020-08-16T13:34:19Z</time><name>PT7214</name></trkpt>
<trkpt lat="53.167898" lon="-3.963175"><ele>943</ele><time>2020-08-16T13:34:20Z</time><name>PT7215</name></trkpt>
<trkpt lat="53.167905" lon="-3.963163"><ele>943</ele><time>2020-08-16T13:34:21Z</time><name>PT7216</name></trkpt>
<trkpt lat="53.167913" lon="-3.963149"><ele>943</ele><time>2020-08-16T13:34:22Z</time><name>PT7217</name></trkpt>
<trkpt lat="53.167921" lon="-3.963136"><ele>943</ele><time>2020-08-16T13:34:23Z</time><name>PT7218</name></trkpt>
<trkpt lat="53.167922" lon="-3.963133"><ele>943</ele><time>2020-08-16T13:34:24Z</time><name>PT7219</name></trkpt>
<trkpt lat="53.167924" lon="-3.963130"><ele>943</ele><time>2020-08-16T13:34:25Z</time><name>PT7220</name></trkpt>
<trkpt lat="53.167925" lon="-3.963130"><ele>943</ele><time>2020-08-16T13:34:26Z</time><name>PT7221</name></trkpt>
<trkpt lat="53.167926" lon="-3.963130"><ele>943</ele><time>2020-08-16T13:34:27Z</time><name>PT7222</name></trkpt>
<trkpt lat="53.167927" lon="-3.963130"><ele>943</ele><time>2020-08-16T13:34:28Z</time><name>PT7223</name></trkpt>
<trkpt lat="53.167930" lon="-3.963128"><ele>943</ele><time>2020-08-16T13:34:29Z</time><name>PT7224</name></trkpt>
<trkpt lat="53.167935" lon="-3.963119"><ele>943</ele><time>2020-08-16T13:34:30Z</time><name>PT7225</name></trkpt>
<trkpt lat="53.167941" lon="-3.963105"><ele>943</ele><time>2020-08-16T13:34:31Z</time><name>PT7226</name></trkpt>
<trkpt lat="53.167945" lon="-3.963091"><ele>943</ele><time>2020-08-16T13:34:32Z</time><name>PT7227</name></trkpt>
<trkpt lat="53.167954" lon="-3.963077"><ele>943</ele><time>2020-08-16T13:34:33Z</time><name>PT7228</name></trkpt>
<trkpt lat="53.167960" lon="-3.963066"><ele>943</ele><time>2020-08-16T13:34:34Z</time><name>PT7229</name></trkpt>
<trkpt lat="53.167965" lon="-3.963051"><ele>943</ele><time>2020-08-16T13:34:35Z</time><name>PT7230</name></trkpt>
<trkpt lat="53.167972" lon="-3.963034"><ele>942</ele><time>2020-08-16T13:34:36Z</time><name>PT7231</name></trkpt>
<trkpt lat="53.167977" lon="-3.963015"><ele>942</ele><time>2020-08-16T13:34:37Z</time><name>PT7232</name></trkpt>
<trkpt lat="53.167979" lon="-3.962995"><ele>942</ele><time>2020-08-16T13:34:38Z</time><name>PT7233</name></trkpt>
<trkpt lat="53.167982" lon="-3.962974"><ele>942</ele><time>2020-08-16T13:34:39Z</time><name>PT7234</name></trkpt>
<trkpt lat="53.167984" lon="-3.962953"><ele>942</ele><time>2020-08-16T13:34:40Z</time><name>PT7235</name></trkpt>
<trkpt lat="53.167985" lon="-3.962931"><ele>942</ele><time>2020-08-16T13:34:41Z</time><name>PT7236</name></trkpt>
<trkpt lat="53.167988" lon="-3.962911"><ele>942</ele><time>2020-08-16T13:34:42Z</time><name>PT7237</name></trkpt>
<trkpt lat="53.167989" lon="-3.962890"><ele>942</ele><time>2020-08-16T13:34:43Z</time><name>PT7238</name></trkpt>
<trkpt lat="53.167989" lon="-3.962871"><ele>942</ele><time>2020-08-16T13:34:44Z</time><name>PT7239</name></trkpt>
<trkpt lat="53.167991" lon="-3.962855"><ele>942</ele><time>2020-08-16T13:34:45Z</time><name>PT7240</name></trkpt>
<trkpt lat="53.167992" lon="-3.962837"><ele>942</ele><time>2020-08-16T13:34:46Z</time><name>PT7241</name></trkpt>
<trkpt lat="53.167993" lon="-3.962818"><ele>942</ele><time>2020-08-16T13:34:47Z</time><name>PT7242</name></trkpt>
<trkpt lat="53.167994" lon="-3.962798"><ele>942</ele><time>2020-08-16T13:34:48Z</time><name>PT7243</name></trkpt>
<trkpt lat="53.167996" lon="-3.962779"><ele>941</ele><time>2020-08-16T13:34:49Z</time><name>PT7244</name></trkpt>
<trkpt lat="53.167999" lon="-3.962760"><ele>941</ele><time>2020-08-16T13:34:50Z</time><name>PT7245</name></trkpt>
<trkpt lat="53.168002" lon="-3.962744"><ele>941</ele><time>2020-08-16T13:34:51Z</time><name>PT7246</name></trkpt>
<trkpt lat="53.168004" lon="-3.962723"><ele>941</ele><time>2020-08-16T13:34:52Z</time><name>PT7247</name></trkpt>
<trkpt lat="53.168007" lon="-3.962704"><ele>941</ele><time>2020-08-16T13:34:53Z</time><name>PT7248</name></trkpt>
<trkpt lat="53.168012" lon="-3.962683"><ele>941</ele><time>2020-08-16T13:34:54Z</time><name>PT7249</name></trkpt>
<trkpt lat="53.168018" lon="-3.962665"><ele>941</ele><time>2020-08-16T13:34:55Z</time><name>PT7250</name></trkpt>
<trkpt lat="53.168024" lon="-3.962646"><ele>941</ele><time>2020-08-16T13:34:56Z</time><name>PT7251</name></trkpt>
<trkpt lat="53.168028" lon="-3.962628"><ele>941</ele><time>2020-08-16T13:34:57Z</time><name>PT7252</name></trkpt>
<trkpt lat="53.168032" lon="-3.962608"><ele>941</ele><time>2020-08-16T13:34:58Z</time><name>PT7253</name></trkpt>
<trkpt lat="53.168038" lon="-3.962589"><ele>940</ele><time>2020-08-16T13:34:59Z</time><name>PT7254</name></trkpt>
<trkpt lat="53.168044" lon="-3.962572"><ele>940</ele><time>2020-08-16T13:35:00Z</time><name>PT7255</name></trkpt>
<trkpt lat="53.168048" lon="-3.962555"><ele>940</ele><time>2020-08-16T13:35:01Z</time><name>PT7256</name></trkpt>
<trkpt lat="53.168052" lon="-3.962540"><ele>940</ele><time>2020-08-16T13:35:02Z</time><name>PT7257</name></trkpt>
<trkpt lat="53.168056" lon="-3.962522"><ele>940</ele><time>2020-08-16T13:35:03Z</time><name>PT7258</name></trkpt>
<trkpt lat="53.168061" lon="-3.962505"><ele>940</ele><time>2020-08-16T13:35:04Z</time><name>PT7259</name></trkpt>
<trkpt lat="53.168066" lon="-3.962488"><ele>940</ele><time>2020-08-16T13:35:05Z</time><name>PT7260</name></trkpt>
<trkpt lat="53.168070" lon="-3.962470"><ele>940</ele><time>2020-08-16T13:35:06Z</time><name>PT7261</name></trkpt>
<trkpt lat="53.168075" lon="-3.962452"><ele>940</ele><time>2020-08-16T13:35:07Z</time><name>PT7262</name></trkpt>
<trkpt lat="53.168078" lon="-3.962432"><ele>939</ele><time>2020-08-16T13:35:08Z</time><name>PT7263</name></trkpt>
<trkpt lat="53.168082" lon="-3.962413"><ele>939</ele><time>2020-08-16T13:35:09Z</time><name>PT7264</name></trkpt>
<trkpt lat="53.168086" lon="-3.962393"><ele>939</ele><time>2020-08-16T13:35:10Z</time><name>PT7265</name></trkpt>
<trkpt lat="53.168090" lon="-3.962375"><ele>939</ele><time>2020-08-16T13:35:11Z</time><name>PT7266</name></trkpt>
<trkpt lat="53.168095" lon="-3.962356"><ele>939</ele><time>2020-08-16T13:35:12Z</time><name>PT7267</name></trkpt>
<trkpt lat="53.168100" lon="-3.962338"><ele>939</ele><time>2020-08-16T13:35:13Z</time><name>PT7268</name></trkpt>
<trkpt lat="53.168104" lon="-3.962320"><ele>939</ele><time>2020-08-16T13:35:14Z</time><name>PT7269</name></trkpt>
<trkpt lat="53.168107" lon="-3.962303"><ele>939</ele><time>2020-08-16T13:35:15Z</time><name>PT7270</name></trkpt>
<trkpt lat="53.168112" lon="-3.962283"><ele>938</ele><time>2020-08-16T13:35:16Z</time><name>PT7271</name></trkpt>
<trkpt lat="53.168115" lon="-3.962264"><ele>938</ele><time>2020-08-16T13:35:17Z</time><name>PT7272</name></trkpt>
<trkpt lat="53.168119" lon="-3.962244"><ele>938</ele><time>2020-08-16T13:35:18Z</time><name>PT7273</name></trkpt>
<trkpt lat="53.168124" lon="-3.962226"><ele>938</ele><time>2020-08-16T13:35:19Z</time><name>PT7274</name></trkpt>
<trkpt lat="53.168128" lon="-3.962206"><ele>938</ele><time>2020-08-16T13:35:20Z</time><name>PT7275</name></trkpt>
<trkpt lat="53.168134" lon="-3.962185"><ele>938</ele><time>2020-08-16T13:35:21Z</time><name>PT7276</name></trkpt>
<trkpt lat="53.168139" lon="-3.962167"><ele>938</ele><time>2020-08-16T13:35:22Z</time><name>PT7277</name></trkpt>
<trkpt lat="53.168143" lon="-3.962149"><ele>938</ele><time>2020-08-16T13:35:23Z</time><name>PT7278</name></trkpt>
<trkpt lat="53.168146" lon="-3.962128"><ele>938</ele><time>2020-08-16T13:35:24Z</time><name>PT7279</name></trkpt>
<trkpt lat="53.168150" lon="-3.962107"><ele>938</ele><time>2020-08-16T13:35:25Z</time><name>PT7280</name></trkpt>
<trkpt lat="53.168154" lon="-3.962089"><ele>938</ele><time>2020-08-16T13:35:26Z</time><name>PT7281</name></trkpt>
<trkpt lat="53.168158" lon="-3.962070"><ele>938</ele><time>2020-08-16T13:35:27Z</time><name>PT7282</name></trkpt>
<trkpt lat="53.168162" lon="-3.962052"><ele>938</ele><time>2020-08-16T13:35:28Z</time><name>PT7283</name></trkpt>
<trkpt lat="53.168166" lon="-3.962033"><ele>938</ele><time>2020-08-16T13:35:29Z</time><name>PT7284</name></trkpt>
<trkpt lat="53.168169" lon="-3.962014"><ele>938</ele><time>2020-08-16T13:35:30Z</time><name>PT7285</name></trkpt>
<trkpt lat="53.168172" lon="-3.961995"><ele>938</ele><time>2020-08-16T13:35:31Z</time><name>PT7286</name></trkpt>
<trkpt lat="53.168175" lon="-3.961975"><ele>937</ele><time>2020-08-16T13:35:32Z</time><name>PT7287</name></trkpt>
<trkpt lat="53.168178" lon="-3.961956"><ele>937</ele><time>2020-08-16T13:35:33Z</time><name>PT7288</name></trkpt>
<trkpt lat="53.168180" lon="-3.961938"><ele>937</ele><time>2020-08-16T13:35:34Z</time><name>PT7289</name></trkpt>
<trkpt lat="53.168184" lon="-3.961919"><ele>937</ele><time>2020-08-16T13:35:35Z</time><name>PT7290</name></trkpt>
<trkpt lat="53.168185" lon="-3.961901"><ele>937</ele><time>2020-08-16T13:35:36Z</time><name>PT7291</name></trkpt>
<trkpt lat="53.168187" lon="-3.961883"><ele>937</ele><time>2020-08-16T13:35:37Z</time><name>PT7292</name></trkpt>
<trkpt lat="53.168192" lon="-3.961862"><ele>937</ele><time>2020-08-16T13:35:38Z</time><name>PT7293</name></trkpt>
<trkpt lat="53.168198" lon="-3.961844"><ele>937</ele><time>2020-08-16T13:35:39Z</time><name>PT7294</name></trkpt>
<trkpt lat="53.168202" lon="-3.961825"><ele>937</ele><time>2020-08-16T13:35:40Z</time><name>PT7295</name></trkpt>
<trkpt lat="53.168203" lon="-3.961812"><ele>937</ele><time>2020-08-16T13:35:41Z</time><name>PT7296</name></trkpt>
<trkpt lat="53.168206" lon="-3.961795"><ele>937</ele><time>2020-08-16T13:35:42Z</time><name>PT7297</name></trkpt>
<trkpt lat="53.168212" lon="-3.961775"><ele>937</ele><time>2020-08-16T13:35:43Z</time><name>PT7298</name></trkpt>
<trkpt lat="53.168217" lon="-3.961757"><ele>937</ele><time>2020-08-16T13:35:44Z</time><name>PT7299</name></trkpt>
<trkpt lat="53.168218" lon="-3.961736"><ele>937</ele><time>2020-08-16T13:35:45Z</time><name>PT7300</name></trkpt>
<trkpt lat="53.168220" lon="-3.961717"><ele>937</ele><time>2020-08-16T13:35:46Z</time><name>PT7301</name></trkpt>
<trkpt lat="53.168223" lon="-3.961698"><ele>937</ele><time>2020-08-16T13:35:47Z</time><name>PT7302</name></trkpt>
<trkpt lat="53.168225" lon="-3.961682"><ele>937</ele><time>2020-08-16T13:35:48Z</time><name>PT7303</name></trkpt>
<trkpt lat="53.168228" lon="-3.961664"><ele>936</ele><time>2020-08-16T13:35:49Z</time><name>PT7304</name></trkpt>
<trkpt lat="53.168230" lon="-3.961645"><ele>936</ele><time>2020-08-16T13:35:50Z</time><name>PT7305</name></trkpt>
<trkpt lat="53.168233" lon="-3.961623"><ele>936</ele><time>2020-08-16T13:35:51Z</time><name>PT7306</name></trkpt>
<trkpt lat="53.168236" lon="-3.961606"><ele>936</ele><time>2020-08-16T13:35:52Z</time><name>PT7307</name></trkpt>
<trkpt lat="53.168238" lon="-3.961589"><ele>936</ele><time>2020-08-16T13:35:53Z</time><name>PT7308</name></trkpt>
<trkpt lat="53.168237" lon="-3.961570"><ele>936</ele><time>2020-08-16T13:35:54Z</time><name>PT7309</name></trkpt>
<trkpt lat="53.168239" lon="-3.961550"><ele>936</ele><time>2020-08-16T13:35:55Z</time><name>PT7310</name></trkpt>
<trkpt lat="53.168241" lon="-3.961529"><ele>936</ele><time>2020-08-16T13:35:56Z</time><name>PT7311</name></trkpt>
<trkpt lat="53.168242" lon="-3.961511"><ele>936</ele><time>2020-08-16T13:35:57Z</time><name>PT7312</name></trkpt>
<trkpt lat="53.168244" lon="-3.961491"><ele>936</ele><time>2020-08-16T13:35:58Z</time><name>PT7313</name></trkpt>
<trkpt lat="53.168244" lon="-3.961471"><ele>936</ele><time>2020-08-16T13:35:59Z</time><name>PT7314</name></trkpt>
<trkpt lat="53.168247" lon="-3.961450"><ele>936</ele><time>2020-08-16T13:36:00Z</time><name>PT7315</name></trkpt>
<trkpt lat="53.168250" lon="-3.961434"><ele>936</ele><time>2020-08-16T13:36:01Z</time><name>PT7316</name></trkpt>
<trkpt lat="53.168254" lon="-3.961416"><ele>935</ele><time>2020-08-16T13:36:02Z</time><name>PT7317</name></trkpt>
<trkpt lat="53.168258" lon="-3.961399"><ele>935</ele><time>2020-08-16T13:36:03Z</time><name>PT7318</name></trkpt>
<trkpt lat="53.168262" lon="-3.961383"><ele>935</ele><time>2020-08-16T13:36:04Z</time><name>PT7319</name></trkpt>
<trkpt lat="53.168265" lon="-3.961364"><ele>935</ele><time>2020-08-16T13:36:05Z</time><name>PT7320</name></trkpt>
<trkpt lat="53.168268" lon="-3.961344"><ele>935</ele><time>2020-08-16T13:36:06Z</time><name>PT7321</name></trkpt>
<trkpt lat="53.168270" lon="-3.961323"><ele>935</ele><time>2020-08-16T13:36:07Z</time><name>PT7322</name></trkpt>
<trkpt lat="53.168272" lon="-3.961305"><ele>935</ele><time>2020-08-16T13:36:08Z</time><name>PT7323</name></trkpt>
<trkpt lat="53.168274" lon="-3.961281"><ele>935</ele><time>2020-08-16T13:36:09Z</time><name>PT7324</name></trkpt>
<trkpt lat="53.168277" lon="-3.961261"><ele>935</ele><time>2020-08-16T13:36:10Z</time><name>PT7325</name></trkpt>
<trkpt lat="53.168279" lon="-3.961241"><ele>935</ele><time>2020-08-16T13:36:11Z</time><name>PT7326</name></trkpt>
<trkpt lat="53.168279" lon="-3.961222"><ele>935</ele><time>2020-08-16T13:36:12Z</time><name>PT7327</name></trkpt>
<trkpt lat="53.168278" lon="-3.961202"><ele>935</ele><time>2020-08-16T13:36:13Z</time><name>PT7328</name></trkpt>
<trkpt lat="53.168277" lon="-3.961180"><ele>934</ele><time>2020-08-16T13:36:14Z</time><name>PT7329</name></trkpt>
<trkpt lat="53.168278" lon="-3.961161"><ele>934</ele><time>2020-08-16T13:36:15Z</time><name>PT7330</name></trkpt>
<trkpt lat="53.168278" lon="-3.961139"><ele>934</ele><time>2020-08-16T13:36:16Z</time><name>PT7331</name></trkpt>
<trkpt lat="53.168279" lon="-3.961119"><ele>934</ele><time>2020-08-16T13:36:17Z</time><name>PT7332</name></trkpt>
<trkpt lat="53.168286" lon="-3.961058"><ele>934</ele><time>2020-08-16T13:36:20Z</time><name>PT7333</name></trkpt>
<trkpt lat="53.168288" lon="-3.961038"><ele>934</ele><time>2020-08-16T13:36:21Z</time><name>PT7334</name></trkpt>
<trkpt lat="53.168289" lon="-3.961018"><ele>934</ele><time>2020-08-16T13:36:22Z</time><name>PT7335</name></trkpt>
<trkpt lat="53.168291" lon="-3.960996"><ele>934</ele><time>2020-08-16T13:36:23Z</time><name>PT7336</name></trkpt>
<trkpt lat="53.168293" lon="-3.960977"><ele>934</ele><time>2020-08-16T13:36:24Z</time><name>PT7337</name></trkpt>
<trkpt lat="53.168296" lon="-3.960957"><ele>934</ele><time>2020-08-16T13:36:25Z</time><name>PT7338</name></trkpt>
<trkpt lat="53.168298" lon="-3.960937"><ele>934</ele><time>2020-08-16T13:36:26Z</time><name>PT7339</name></trkpt>
<trkpt lat="53.168300" lon="-3.960917"><ele>934</ele><time>2020-08-16T13:36:27Z</time><name>PT7340</name></trkpt>
<trkpt lat="53.168304" lon="-3.960897"><ele>933</ele><time>2020-08-16T13:36:28Z</time><name>PT7341</name></trkpt>
<trkpt lat="53.168306" lon="-3.960880"><ele>933</ele><time>2020-08-16T13:36:29Z</time><name>PT7342</name></trkpt>
<trkpt lat="53.168307" lon="-3.960861"><ele>933</ele><time>2020-08-16T13:36:30Z</time><name>PT7343</name></trkpt>
<trkpt lat="53.168309" lon="-3.960841"><ele>933</ele><time>2020-08-16T13:36:31Z</time><name>PT7344</name></trkpt>
<trkpt lat="53.168311" lon="-3.960820"><ele>933</ele><time>2020-08-16T13:36:32Z</time><name>PT7345</name></trkpt>
<trkpt lat="53.168313" lon="-3.960802"><ele>933</ele><time>2020-08-16T13:36:33Z</time><name>PT7346</name></trkpt>
<trkpt lat="53.168315" lon="-3.960783"><ele>933</ele><time>2020-08-16T13:36:34Z</time><name>PT7347</name></trkpt>
<trkpt lat="53.168318" lon="-3.960763"><ele>933</ele><time>2020-08-16T13:36:35Z</time><name>PT7348</name></trkpt>
<trkpt lat="53.168322" lon="-3.960744"><ele>933</ele><time>2020-08-16T13:36:36Z</time><name>PT7349</name></trkpt>
<trkpt lat="53.168325" lon="-3.960724"><ele>933</ele><time>2020-08-16T13:36:37Z</time><name>PT7350</name></trkpt>
<trkpt lat="53.168328" lon="-3.960705"><ele>933</ele><time>2020-08-16T13:36:38Z</time><name>PT7351</name></trkpt>
<trkpt lat="53.168332" lon="-3.960688"><ele>933</ele><time>2020-08-16T13:36:39Z</time><name>PT7352</name></trkpt>
<trkpt lat="53.168336" lon="-3.960669"><ele>933</ele><time>2020-08-16T13:36:40Z</time><name>PT7353</name></trkpt>
<trkpt lat="53.168339" lon="-3.960647"><ele>932</ele><time>2020-08-16T13:36:41Z</time><name>PT7354</name></trkpt>
<trkpt lat="53.168342" lon="-3.960628"><ele>932</ele><time>2020-08-16T13:36:42Z</time><name>PT7355</name></trkpt>
<trkpt lat="53.168345" lon="-3.960608"><ele>932</ele><time>2020-08-16T13:36:43Z</time><name>PT7356</name></trkpt>
<trkpt lat="53.168348" lon="-3.960588"><ele>932</ele><time>2020-08-16T13:36:44Z</time><name>PT7357</name></trkpt>
<trkpt lat="53.168352" lon="-3.960566"><ele>932</ele><time>2020-08-16T13:36:45Z</time><name>PT7358</name></trkpt>
<trkpt lat="53.168356" lon="-3.960546"><ele>932</ele><time>2020-08-16T13:36:46Z</time><name>PT7359</name></trkpt>
<trkpt lat="53.168360" lon="-3.960528"><ele>932</ele><time>2020-08-16T13:36:47Z</time><name>PT7360</name></trkpt>
<trkpt lat="53.168362" lon="-3.960509"><ele>932</ele><time>2020-08-16T13:36:48Z</time><name>PT7361</name></trkpt>
<trkpt lat="53.168363" lon="-3.960491"><ele>932</ele><time>2020-08-16T13:36:49Z</time><name>PT7362</name></trkpt>
<trkpt lat="53.168366" lon="-3.960472"><ele>932</ele><time>2020-08-16T13:36:50Z</time><name>PT7363</name></trkpt>
<trkpt lat="53.168370" lon="-3.960454"><ele>932</ele><time>2020-08-16T13:36:51Z</time><name>PT7364</name></trkpt>
<trkpt lat="53.168371" lon="-3.960436"><ele>932</ele><time>2020-08-16T13:36:52Z</time><name>PT7365</name></trkpt>
<trkpt lat="53.168373" lon="-3.960417"><ele>932</ele><time>2020-08-16T13:36:53Z</time><name>PT7366</name></trkpt>
<trkpt lat="53.168376" lon="-3.960396"><ele>932</ele><time>2020-08-16T13:36:54Z</time><name>PT7367</name></trkpt>
<trkpt lat="53.168378" lon="-3.960376"><ele>931</ele><time>2020-08-16T13:36:55Z</time><name>PT7368</name></trkpt>
<trkpt lat="53.168381" lon="-3.960357"><ele>931</ele><time>2020-08-16T13:36:56Z</time><name>PT7369</name></trkpt>
<trkpt lat="53.168382" lon="-3.960339"><ele>931</ele><time>2020-08-16T13:36:57Z</time><name>PT7370</name></trkpt>
<trkpt lat="53.168383" lon="-3.960319"><ele>932</ele><time>2020-08-16T13:36:58Z</time><name>PT7371</name></trkpt>
<trkpt lat="53.168385" lon="-3.960298"><ele>931</ele><time>2020-08-16T13:36:59Z</time><name>PT7372</name></trkpt>
<trkpt lat="53.168386" lon="-3.960281"><ele>932</ele><time>2020-08-16T13:37:00Z</time><name>PT7373</name></trkpt>
<trkpt lat="53.168388" lon="-3.960265"><ele>932</ele><time>2020-08-16T13:37:01Z</time><name>PT7374</name></trkpt>
<trkpt lat="53.168391" lon="-3.960247"><ele>932</ele><time>2020-08-16T13:37:02Z</time><name>PT7375</name></trkpt>
<trkpt lat="53.168395" lon="-3.960228"><ele>931</ele><time>2020-08-16T13:37:03Z</time><name>PT7376</name></trkpt>
<trkpt lat="53.168398" lon="-3.960209"><ele>931</ele><time>2020-08-16T13:37:04Z</time><name>PT7377</name></trkpt>
<trkpt lat="53.168400" lon="-3.960188"><ele>931</ele><time>2020-08-16T13:37:05Z</time><name>PT7378</name></trkpt>
<trkpt lat="53.168402" lon="-3.960171"><ele>931</ele><time>2020-08-16T13:37:06Z</time><name>PT7379</name></trkpt>
<trkpt lat="53.168405" lon="-3.960151"><ele>931</ele><time>2020-08-16T13:37:07Z</time><name>PT7380</name></trkpt>
<trkpt lat="53.168408" lon="-3.960134"><ele>931</ele><time>2020-08-16T13:37:08Z</time><name>PT7381</name></trkpt>
<trkpt lat="53.168410" lon="-3.960116"><ele>931</ele><time>2020-08-16T13:37:09Z</time><name>PT7382</name></trkpt>
<trkpt lat="53.168413" lon="-3.960098"><ele>931</ele><time>2020-08-16T13:37:10Z</time><name>PT7383</name></trkpt>
<trkpt lat="53.168415" lon="-3.960080"><ele>931</ele><time>2020-08-16T13:37:11Z</time><name>PT7384</name></trkpt>
<trkpt lat="53.168416" lon="-3.960064"><ele>931</ele><time>2020-08-16T13:37:12Z</time><name>PT7385</name></trkpt>
<trkpt lat="53.168417" lon="-3.960047"><ele>931</ele><time>2020-08-16T13:37:13Z</time><name>PT7386</name></trkpt>
<trkpt lat="53.168420" lon="-3.960028"><ele>931</ele><time>2020-08-16T13:37:14Z</time><name>PT7387</name></trkpt>
<trkpt lat="53.168423" lon="-3.960013"><ele>931</ele><time>2020-08-16T13:37:15Z</time><name>PT7388</name></trkpt>
<trkpt lat="53.168425" lon="-3.959996"><ele>931</ele><time>2020-08-16T13:37:16Z</time><name>PT7389</name></trkpt>
<trkpt lat="53.168428" lon="-3.959980"><ele>931</ele><time>2020-08-16T13:37:17Z</time><name>PT7390</name></trkpt>
<trkpt lat="53.168429" lon="-3.959961"><ele>930</ele><time>2020-08-16T13:37:18Z</time><name>PT7391</name></trkpt>
<trkpt lat="53.168430" lon="-3.959944"><ele>930</ele><time>2020-08-16T13:37:19Z</time><name>PT7392</name></trkpt>
<trkpt lat="53.168430" lon="-3.959929"><ele>930</ele><time>2020-08-16T13:37:20Z</time><name>PT7393</name></trkpt>
<trkpt lat="53.168430" lon="-3.959915"><ele>930</ele><time>2020-08-16T13:37:21Z</time><name>PT7394</name></trkpt>
<trkpt lat="53.168431" lon="-3.959899"><ele>929</ele><time>2020-08-16T13:37:22Z</time><name>PT7395</name></trkpt>
<trkpt lat="53.168433" lon="-3.959883"><ele>929</ele><time>2020-08-16T13:37:23Z</time><name>PT7396</name></trkpt>
<trkpt lat="53.168436" lon="-3.959860"><ele>928</ele><time>2020-08-16T13:37:24Z</time><name>PT7397</name></trkpt>
<trkpt lat="53.168440" lon="-3.959839"><ele>928</ele><time>2020-08-16T13:37:25Z</time><name>PT7398</name></trkpt>
<trkpt lat="53.168443" lon="-3.959819"><ele>928</ele><time>2020-08-16T13:37:26Z</time><name>PT7399</name></trkpt>
<trkpt lat="53.168447" lon="-3.959801"><ele>928</ele><time>2020-08-16T13:37:28Z</time><name>PT7400</name></trkpt>
<trkpt lat="53.168450" lon="-3.959785"><ele>928</ele><time>2020-08-16T13:37:28Z</time><name>PT7401</name></trkpt>
<trkpt lat="53.168450" lon="-3.959765"><ele>928</ele><time>2020-08-16T13:37:29Z</time><name>PT7402</name></trkpt>
<trkpt lat="53.168453" lon="-3.959748"><ele>928</ele><time>2020-08-16T13:37:30Z</time><name>PT7403</name></trkpt>
<trkpt lat="53.168456" lon="-3.959727"><ele>928</ele><time>2020-08-16T13:37:31Z</time><name>PT7404</name></trkpt>
<trkpt lat="53.168458" lon="-3.959709"><ele>928</ele><time>2020-08-16T13:37:32Z</time><name>PT7405</name></trkpt>
<trkpt lat="53.168460" lon="-3.959687"><ele>928</ele><time>2020-08-16T13:37:33Z</time><name>PT7406</name></trkpt>
<trkpt lat="53.168463" lon="-3.959668"><ele>928</ele><time>2020-08-16T13:37:34Z</time><name>PT7407</name></trkpt>
<trkpt lat="53.168468" lon="-3.959647"><ele>928</ele><time>2020-08-16T13:37:35Z</time><name>PT7408</name></trkpt>
<trkpt lat="53.168471" lon="-3.959628"><ele>928</ele><time>2020-08-16T13:37:36Z</time><name>PT7409</name></trkpt>
<trkpt lat="53.168473" lon="-3.959608"><ele>928</ele><time>2020-08-16T13:37:37Z</time><name>PT7410</name></trkpt>
<trkpt lat="53.168476" lon="-3.959589"><ele>928</ele><time>2020-08-16T13:37:38Z</time><name>PT7411</name></trkpt>
<trkpt lat="53.168479" lon="-3.959570"><ele>928</ele><time>2020-08-16T13:37:39Z</time><name>PT7412</name></trkpt>
<trkpt lat="53.168482" lon="-3.959553"><ele>927</ele><time>2020-08-16T13:37:40Z</time><name>PT7413</name></trkpt>
<trkpt lat="53.168485" lon="-3.959534"><ele>927</ele><time>2020-08-16T13:37:41Z</time><name>PT7414</name></trkpt>
<trkpt lat="53.168488" lon="-3.959516"><ele>927</ele><time>2020-08-16T13:37:42Z</time><name>PT7415</name></trkpt>
<trkpt lat="53.168492" lon="-3.959497"><ele>927</ele><time>2020-08-16T13:37:43Z</time><name>PT7416</name></trkpt>
<trkpt lat="53.168495" lon="-3.959480"><ele>927</ele><time>2020-08-16T13:37:44Z</time><name>PT7417</name></trkpt>
<trkpt lat="53.168497" lon="-3.959461"><ele>927</ele><time>2020-08-16T13:37:45Z</time><name>PT7418</name></trkpt>
<trkpt lat="53.168499" lon="-3.959442"><ele>927</ele><time>2020-08-16T13:37:46Z</time><name>PT7419</name></trkpt>
<trkpt lat="53.168501" lon="-3.959422"><ele>927</ele><time>2020-08-16T13:37:47Z</time><name>PT7420</name></trkpt>
<trkpt lat="53.168504" lon="-3.959404"><ele>927</ele><time>2020-08-16T13:37:48Z</time><name>PT7421</name></trkpt>
<trkpt lat="53.168506" lon="-3.959386"><ele>927</ele><time>2020-08-16T13:37:49Z</time><name>PT7422</name></trkpt>
<trkpt lat="53.168508" lon="-3.959367"><ele>927</ele><time>2020-08-16T13:37:50Z</time><name>PT7423</name></trkpt>
<trkpt lat="53.168511" lon="-3.959348"><ele>927</ele><time>2020-08-16T13:37:51Z</time><name>PT7424</name></trkpt>
<trkpt lat="53.168515" lon="-3.959330"><ele>927</ele><time>2020-08-16T13:37:52Z</time><name>PT7425</name></trkpt>
<trkpt lat="53.168518" lon="-3.959311"><ele>927</ele><time>2020-08-16T13:37:53Z</time><name>PT7426</name></trkpt>
<trkpt lat="53.168521" lon="-3.959293"><ele>927</ele><time>2020-08-16T13:37:54Z</time><name>PT7427</name></trkpt>
<trkpt lat="53.168523" lon="-3.959274"><ele>927</ele><time>2020-08-16T13:37:55Z</time><name>PT7428</name></trkpt>
<trkpt lat="53.168526" lon="-3.959257"><ele>927</ele><time>2020-08-16T13:37:56Z</time><name>PT7429</name></trkpt>
<trkpt lat="53.168528" lon="-3.959239"><ele>927</ele><time>2020-08-16T13:37:57Z</time><name>PT7430</name></trkpt>
<trkpt lat="53.168529" lon="-3.959222"><ele>927</ele><time>2020-08-16T13:37:58Z</time><name>PT7431</name></trkpt>
<trkpt lat="53.168532" lon="-3.959202"><ele>927</ele><time>2020-08-16T13:37:59Z</time><name>PT7432</name></trkpt>
<trkpt lat="53.168533" lon="-3.959183"><ele>927</ele><time>2020-08-16T13:38:00Z</time><name>PT7433</name></trkpt>
<trkpt lat="53.168534" lon="-3.959163"><ele>927</ele><time>2020-08-16T13:38:01Z</time><name>PT7434</name></trkpt>
<trkpt lat="53.168535" lon="-3.959143"><ele>927</ele><time>2020-08-16T13:38:02Z</time><name>PT7435</name></trkpt>
<trkpt lat="53.168536" lon="-3.959122"><ele>927</ele><time>2020-08-16T13:38:03Z</time><name>PT7436</name></trkpt>
<trkpt lat="53.168535" lon="-3.959102"><ele>926</ele><time>2020-08-16T13:38:04Z</time><name>PT7437</name></trkpt>
<trkpt lat="53.168535" lon="-3.959082"><ele>926</ele><time>2020-08-16T13:38:05Z</time><name>PT7438</name></trkpt>
<trkpt lat="53.168536" lon="-3.959062"><ele>926</ele><time>2020-08-16T13:38:06Z</time><name>PT7439</name></trkpt>
<trkpt lat="53.168537" lon="-3.959042"><ele>926</ele><time>2020-08-16T13:38:07Z</time><name>PT7440</name></trkpt>
<trkpt lat="53.168540" lon="-3.959021"><ele>926</ele><time>2020-08-16T13:38:08Z</time><name>PT7441</name></trkpt>
<trkpt lat="53.168542" lon="-3.959003"><ele>926</ele><time>2020-08-16T13:38:09Z</time><name>PT7442</name></trkpt>
<trkpt lat="53.168542" lon="-3.958983"><ele>926</ele><time>2020-08-16T13:38:10Z</time><name>PT7443</name></trkpt>
<trkpt lat="53.168544" lon="-3.958964"><ele>926</ele><time>2020-08-16T13:38:11Z</time><name>PT7444</name></trkpt>
<trkpt lat="53.168545" lon="-3.958941"><ele>926</ele><time>2020-08-16T13:38:12Z</time><name>PT7445</name></trkpt>
<trkpt lat="53.168545" lon="-3.958919"><ele>926</ele><time>2020-08-16T13:38:13Z</time><name>PT7446</name></trkpt>
<trkpt lat="53.168544" lon="-3.958898"><ele>926</ele><time>2020-08-16T13:38:14Z</time><name>PT7447</name></trkpt>
<trkpt lat="53.168543" lon="-3.958879"><ele>926</ele><time>2020-08-16T13:38:15Z</time><name>PT7448</name></trkpt>
<trkpt lat="53.168542" lon="-3.958859"><ele>926</ele><time>2020-08-16T13:38:16Z</time><name>PT7449</name></trkpt>
<trkpt lat="53.168539" lon="-3.958840"><ele>925</ele><time>2020-08-16T13:38:17Z</time><name>PT7450</name></trkpt>
<trkpt lat="53.168537" lon="-3.958823"><ele>925</ele><time>2020-08-16T13:38:18Z</time><name>PT7451</name></trkpt>
<trkpt lat="53.168536" lon="-3.958806"><ele>925</ele><time>2020-08-16T13:38:19Z</time><name>PT7452</name></trkpt>
<trkpt lat="53.168536" lon="-3.958789"><ele>925</ele><time>2020-08-16T13:38:20Z</time><name>PT7453</name></trkpt>
<trkpt lat="53.168537" lon="-3.958767"><ele>924</ele><time>2020-08-16T13:38:21Z</time><name>PT7454</name></trkpt>
<trkpt lat="53.168539" lon="-3.958748"><ele>924</ele><time>2020-08-16T13:38:22Z</time><name>PT7455</name></trkpt>
<trkpt lat="53.168539" lon="-3.958728"><ele>924</ele><time>2020-08-16T13:38:23Z</time><name>PT7456</name></trkpt>
<trkpt lat="53.168540" lon="-3.958707"><ele>924</ele><time>2020-08-16T13:38:24Z</time><name>PT7457</name></trkpt>
<trkpt lat="53.168541" lon="-3.958684"><ele>924</ele><time>2020-08-16T13:38:25Z</time><name>PT7458</name></trkpt>
<trkpt lat="53.168537" lon="-3.958663"><ele>924</ele><time>2020-08-16T13:38:26Z</time><name>PT7459</name></trkpt>
<trkpt lat="53.168537" lon="-3.958644"><ele>924</ele><time>2020-08-16T13:38:27Z</time><name>PT7460</name></trkpt>
<trkpt lat="53.168536" lon="-3.958626"><ele>924</ele><time>2020-08-16T13:38:28Z</time><name>PT7461</name></trkpt>
<trkpt lat="53.168536" lon="-3.958605"><ele>924</ele><time>2020-08-16T13:38:29Z</time><name>PT7462</name></trkpt>
<trkpt lat="53.168536" lon="-3.958585"><ele>924</ele><time>2020-08-16T13:38:30Z</time><name>PT7463</name></trkpt>
<trkpt lat="53.168536" lon="-3.958564"><ele>924</ele><time>2020-08-16T13:38:31Z</time><name>PT7464</name></trkpt>
<trkpt lat="53.168535" lon="-3.958543"><ele>924</ele><time>2020-08-16T13:38:32Z</time><name>PT7465</name></trkpt>
<trkpt lat="53.168537" lon="-3.958524"><ele>924</ele><time>2020-08-16T13:38:33Z</time><name>PT7466</name></trkpt>
<trkpt lat="53.168539" lon="-3.958504"><ele>924</ele><time>2020-08-16T13:38:34Z</time><name>PT7467</name></trkpt>
<trkpt lat="53.168542" lon="-3.958486"><ele>924</ele><time>2020-08-16T13:38:35Z</time><name>PT7468</name></trkpt>
<trkpt lat="53.168546" lon="-3.958470"><ele>924</ele><time>2020-08-16T13:38:36Z</time><name>PT7469</name></trkpt>
<trkpt lat="53.168551" lon="-3.958452"><ele>924</ele><time>2020-08-16T13:38:37Z</time><name>PT7470</name></trkpt>
<trkpt lat="53.168554" lon="-3.958434"><ele>924</ele><time>2020-08-16T13:38:38Z</time><name>PT7471</name></trkpt>
<trkpt lat="53.168558" lon="-3.958415"><ele>924</ele><time>2020-08-16T13:38:39Z</time><name>PT7472</name></trkpt>
<trkpt lat="53.168559" lon="-3.958397"><ele>924</ele><time>2020-08-16T13:38:40Z</time><name>PT7473</name></trkpt>
<trkpt lat="53.168561" lon="-3.958378"><ele>923</ele><time>2020-08-16T13:38:41Z</time><name>PT7474</name></trkpt>
<trkpt lat="53.168560" lon="-3.958361"><ele>923</ele><time>2020-08-16T13:38:42Z</time><name>PT7475</name></trkpt>
<trkpt lat="53.168558" lon="-3.958343"><ele>923</ele><time>2020-08-16T13:38:43Z</time><name>PT7476</name></trkpt>
<trkpt lat="53.168558" lon="-3.958327"><ele>923</ele><time>2020-08-16T13:38:44Z</time><name>PT7477</name></trkpt>
<trkpt lat="53.168558" lon="-3.958311"><ele>923</ele><time>2020-08-16T13:38:45Z</time><name>PT7478</name></trkpt>
<trkpt lat="53.168555" lon="-3.958293"><ele>922</ele><time>2020-08-16T13:38:46Z</time><name>PT7479</name></trkpt>
<trkpt lat="53.168554" lon="-3.958274"><ele>922</ele><time>2020-08-16T13:38:47Z</time><name>PT7480</name></trkpt>
<trkpt lat="53.168553" lon="-3.958255"><ele>922</ele><time>2020-08-16T13:38:48Z</time><name>PT7481</name></trkpt>
<trkpt lat="53.168554" lon="-3.958239"><ele>922</ele><time>2020-08-16T13:38:49Z</time><name>PT7482</name></trkpt>
<trkpt lat="53.168555" lon="-3.958221"><ele>921</ele><time>2020-08-16T13:38:50Z</time><name>PT7483</name></trkpt>
<trkpt lat="53.168555" lon="-3.958201"><ele>921</ele><time>2020-08-16T13:38:51Z</time><name>PT7484</name></trkpt>
<trkpt lat="53.168555" lon="-3.958181"><ele>921</ele><time>2020-08-16T13:38:52Z</time><name>PT7485</name></trkpt>
<trkpt lat="53.168558" lon="-3.958159"><ele>921</ele><time>2020-08-16T13:38:53Z</time><name>PT7486</name></trkpt>
<trkpt lat="53.168561" lon="-3.958141"><ele>921</ele><time>2020-08-16T13:38:54Z</time><name>PT7487</name></trkpt>
<trkpt lat="53.168564" lon="-3.958124"><ele>921</ele><time>2020-08-16T13:38:55Z</time><name>PT7488</name></trkpt>
<trkpt lat="53.168567" lon="-3.958104"><ele>921</ele><time>2020-08-16T13:38:56Z</time><name>PT7489</name></trkpt>
<trkpt lat="53.168572" lon="-3.958087"><ele>921</ele><time>2020-08-16T13:38:57Z</time><name>PT7490</name></trkpt>
<trkpt lat="53.168577" lon="-3.958072"><ele>920</ele><time>2020-08-16T13:38:58Z</time><name>PT7491</name></trkpt>
<trkpt lat="53.168582" lon="-3.958056"><ele>920</ele><time>2020-08-16T13:38:59Z</time><name>PT7492</name></trkpt>
<trkpt lat="53.168585" lon="-3.958038"><ele>920</ele><time>2020-08-16T13:39:00Z</time><name>PT7493</name></trkpt>
<trkpt lat="53.168588" lon="-3.958020"><ele>920</ele><time>2020-08-16T13:39:01Z</time><name>PT7494</name></trkpt>
<trkpt lat="53.168590" lon="-3.958002"><ele>920</ele><time>2020-08-16T13:39:02Z</time><name>PT7495</name></trkpt>
<trkpt lat="53.168592" lon="-3.957982"><ele>920</ele><time>2020-08-16T13:39:03Z</time><name>PT7496</name></trkpt>
<trkpt lat="53.168594" lon="-3.957967"><ele>920</ele><time>2020-08-16T13:39:04Z</time><name>PT7497</name></trkpt>
<trkpt lat="53.168594" lon="-3.957954"><ele>920</ele><time>2020-08-16T13:39:05Z</time><name>PT7498</name></trkpt>
<trkpt lat="53.168595" lon="-3.957942"><ele>920</ele><time>2020-08-16T13:39:06Z</time><name>PT7499</name></trkpt>
<trkpt lat="53.168598" lon="-3.957926"><ele>920</ele><time>2020-08-16T13:39:07Z</time><name>PT7500</name></trkpt>
<trkpt lat="53.168601" lon="-3.957906"><ele>920</ele><time>2020-08-16T13:39:08Z</time><name>PT7501</name></trkpt>
<trkpt lat="53.168603" lon="-3.957887"><ele>920</ele><time>2020-08-16T13:39:09Z</time><name>PT7502</name></trkpt>
<trkpt lat="53.168606" lon="-3.957871"><ele>920</ele><time>2020-08-16T13:39:10Z</time><name>PT7503</name></trkpt>
<trkpt lat="53.168610" lon="-3.957856"><ele>919</ele><time>2020-08-16T13:39:11Z</time><name>PT7504</name></trkpt>
<trkpt lat="53.168614" lon="-3.957839"><ele>920</ele><time>2020-08-16T13:39:12Z</time><name>PT7505</name></trkpt>
<trkpt lat="53.168617" lon="-3.957821"><ele>920</ele><time>2020-08-16T13:39:13Z</time><name>PT7506</name></trkpt>
<trkpt lat="53.168621" lon="-3.957804"><ele>920</ele><time>2020-08-16T13:39:14Z</time><name>PT7507</name></trkpt>
<trkpt lat="53.168624" lon="-3.957786"><ele>920</ele><time>2020-08-16T13:39:15Z</time><name>PT7508</name></trkpt>
<trkpt lat="53.168628" lon="-3.957769"><ele>920</ele><time>2020-08-16T13:39:16Z</time><name>PT7509</name></trkpt>
<trkpt lat="53.168632" lon="-3.957751"><ele>920</ele><time>2020-08-16T13:39:17Z</time><name>PT7510</name></trkpt>
<trkpt lat="53.168636" lon="-3.957733"><ele>920</ele><time>2020-08-16T13:39:18Z</time><name>PT7511</name></trkpt>
<trkpt lat="53.168640" lon="-3.957716"><ele>920</ele><time>2020-08-16T13:39:19Z</time><name>PT7512</name></trkpt>
<trkpt lat="53.168649" lon="-3.957667"><ele>920</ele><time>2020-08-16T13:39:22Z</time><name>PT7513</name></trkpt>
<trkpt lat="53.168660" lon="-3.957597"><ele>919</ele><time>2020-08-16T13:39:26Z</time><name>PT7514</name></trkpt>
<trkpt lat="53.168666" lon="-3.957549"><ele>918</ele><time>2020-08-16T13:39:29Z</time><name>PT7515</name></trkpt>
<trkpt lat="53.168667" lon="-3.957532"><ele>918</ele><time>2020-08-16T13:39:30Z</time><name>PT7516</name></trkpt>
<trkpt lat="53.168671" lon="-3.957513"><ele>918</ele><time>2020-08-16T13:39:31Z</time><name>PT7517</name></trkpt>
<trkpt lat="53.168674" lon="-3.957496"><ele>918</ele><time>2020-08-16T13:39:32Z</time><name>PT7518</name></trkpt>
<trkpt lat="53.168677" lon="-3.957479"><ele>918</ele><time>2020-08-16T13:39:33Z</time><name>PT7519</name></trkpt>
<trkpt lat="53.168680" lon="-3.957464"><ele>918</ele><time>2020-08-16T13:39:34Z</time><name>PT7520</name></trkpt>
<trkpt lat="53.168681" lon="-3.957448"><ele>917</ele><time>2020-08-16T13:39:35Z</time><name>PT7521</name></trkpt>
<trkpt lat="53.168684" lon="-3.957428"><ele>917</ele><time>2020-08-16T13:39:36Z</time><name>PT7522</name></trkpt>
<trkpt lat="53.168686" lon="-3.957408"><ele>917</ele><time>2020-08-16T13:39:37Z</time><name>PT7523</name></trkpt>
<trkpt lat="53.168689" lon="-3.957391"><ele>917</ele><time>2020-08-16T13:39:38Z</time><name>PT7524</name></trkpt>
<trkpt lat="53.168693" lon="-3.957371"><ele>917</ele><time>2020-08-16T13:39:39Z</time><name>PT7525</name></trkpt>
<trkpt lat="53.168696" lon="-3.957354"><ele>917</ele><time>2020-08-16T13:39:40Z</time><name>PT7526</name></trkpt>
<trkpt lat="53.168698" lon="-3.957336"><ele>917</ele><time>2020-08-16T13:39:41Z</time><name>PT7527</name></trkpt>
<trkpt lat="53.168702" lon="-3.957317"><ele>917</ele><time>2020-08-16T13:39:42Z</time><name>PT7528</name></trkpt>
<trkpt lat="53.168706" lon="-3.957301"><ele>917</ele><time>2020-08-16T13:39:43Z</time><name>PT7529</name></trkpt>
<trkpt lat="53.168711" lon="-3.957283"><ele>917</ele><time>2020-08-16T13:39:44Z</time><name>PT7530</name></trkpt>
<trkpt lat="53.168717" lon="-3.957264"><ele>917</ele><time>2020-08-16T13:39:45Z</time><name>PT7531</name></trkpt>
<trkpt lat="53.168722" lon="-3.957247"><ele>917</ele><time>2020-08-16T13:39:46Z</time><name>PT7532</name></trkpt>
<trkpt lat="53.168727" lon="-3.957234"><ele>917</ele><time>2020-08-16T13:39:47Z</time><name>PT7533</name></trkpt>
<trkpt lat="53.168732" lon="-3.957221"><ele>917</ele><time>2020-08-16T13:39:48Z</time><name>PT7534</name></trkpt>
<trkpt lat="53.168737" lon="-3.957207"><ele>917</ele><time>2020-08-16T13:39:49Z</time><name>PT7535</name></trkpt>
<trkpt lat="53.168743" lon="-3.957194"><ele>918</ele><time>2020-08-16T13:39:50Z</time><name>PT7536</name></trkpt>
<trkpt lat="53.168748" lon="-3.957184"><ele>918</ele><time>2020-08-16T13:39:51Z</time><name>PT7537</name></trkpt>
<trkpt lat="53.168753" lon="-3.957172"><ele>918</ele><time>2020-08-16T13:39:52Z</time><name>PT7538</name></trkpt>
<trkpt lat="53.168758" lon="-3.957158"><ele>918</ele><time>2020-08-16T13:39:53Z</time><name>PT7539</name></trkpt>
<trkpt lat="53.168764" lon="-3.957144"><ele>918</ele><time>2020-08-16T13:39:54Z</time><name>PT7540</name></trkpt>
<trkpt lat="53.168769" lon="-3.957137"><ele>918</ele><time>2020-08-16T13:39:55Z</time><name>PT7541</name></trkpt>
<trkpt lat="53.168776" lon="-3.957131"><ele>918</ele><time>2020-08-16T13:39:56Z</time><name>PT7542</name></trkpt>
<trkpt lat="53.168785" lon="-3.957127"><ele>918</ele><time>2020-08-16T13:39:57Z</time><name>PT7543</name></trkpt>
<trkpt lat="53.168795" lon="-3.957125"><ele>918</ele><time>2020-08-16T13:39:58Z</time><name>PT7544</name></trkpt>
<trkpt lat="53.168802" lon="-3.957120"><ele>918</ele><time>2020-08-16T13:39:59Z</time><name>PT7545</name></trkpt>
<trkpt lat="53.168807" lon="-3.957109"><ele>919</ele><time>2020-08-16T13:40:00Z</time><name>PT7546</name></trkpt>
<trkpt lat="53.168812" lon="-3.957099"><ele>919</ele><time>2020-08-16T13:40:01Z</time><name>PT7547</name></trkpt>
<trkpt lat="53.168817" lon="-3.957089"><ele>919</ele><time>2020-08-16T13:40:02Z</time><name>PT7548</name></trkpt>
<trkpt lat="53.168823" lon="-3.957081"><ele>919</ele><time>2020-08-16T13:40:03Z</time><name>PT7549</name></trkpt>
<trkpt lat="53.168828" lon="-3.957073"><ele>919</ele><time>2020-08-16T13:40:04Z</time><name>PT7550</name></trkpt>
<trkpt lat="53.168833" lon="-3.957064"><ele>919</ele><time>2020-08-16T13:40:05Z</time><name>PT7551</name></trkpt>
<trkpt lat="53.168836" lon="-3.957062"><ele>919</ele><time>2020-08-16T13:40:06Z</time><name>PT7552</name></trkpt>
<trkpt lat="53.168843" lon="-3.957055"><ele>919</ele><time>2020-08-16T13:40:07Z</time><name>PT7553</name></trkpt>
<trkpt lat="53.168849" lon="-3.957048"><ele>919</ele><time>2020-08-16T13:40:08Z</time><name>PT7554</name></trkpt>
<trkpt lat="53.168857" lon="-3.957042"><ele>919</ele><time>2020-08-16T13:40:09Z</time><name>PT7555</name></trkpt>
<trkpt lat="53.168861" lon="-3.957032"><ele>918</ele><time>2020-08-16T13:40:10Z</time><name>PT7556</name></trkpt>
<trkpt lat="53.168866" lon="-3.957020"><ele>918</ele><time>2020-08-16T13:40:11Z</time><name>PT7557</name></trkpt>
<trkpt lat="53.168865" lon="-3.957007"><ele>918</ele><time>2020-08-16T13:40:12Z</time><name>PT7558</name></trkpt>
<trkpt lat="53.168870" lon="-3.956994"><ele>918</ele><time>2020-08-16T13:40:13Z</time><name>PT7559</name></trkpt>
<trkpt lat="53.168877" lon="-3.956986"><ele>918</ele><time>2020-08-16T13:40:14Z</time><name>PT7560</name></trkpt>
<trkpt lat="53.168886" lon="-3.956975"><ele>918</ele><time>2020-08-16T13:40:15Z</time><name>PT7561</name></trkpt>
<trkpt lat="53.168896" lon="-3.956965"><ele>917</ele><time>2020-08-16T13:40:16Z</time><name>PT7562</name></trkpt>
<trkpt lat="53.168905" lon="-3.956960"><ele>918</ele><time>2020-08-16T13:40:17Z</time><name>PT7563</name></trkpt>
<trkpt lat="53.168915" lon="-3.956954"><ele>918</ele><time>2020-08-16T13:40:18Z</time><name>PT7564</name></trkpt>
<trkpt lat="53.168927" lon="-3.956950"><ele>918</ele><time>2020-08-16T13:40:19Z</time><name>PT7565</name></trkpt>
<trkpt lat="53.168940" lon="-3.956950"><ele>918</ele><time>2020-08-16T13:40:20Z</time><name>PT7566</name></trkpt>
<trkpt lat="53.168951" lon="-3.956952"><ele>918</ele><time>2020-08-16T13:40:21Z</time><name>PT7567</name></trkpt>
<trkpt lat="53.168961" lon="-3.956948"><ele>919</ele><time>2020-08-16T13:40:22Z</time><name>PT7568</name></trkpt>
<trkpt lat="53.168968" lon="-3.956940"><ele>918</ele><time>2020-08-16T13:40:23Z</time><name>PT7569</name></trkpt>
<trkpt lat="53.168972" lon="-3.956938"><ele>918</ele><time>2020-08-16T13:40:24Z</time><name>PT7570</name></trkpt>
<trkpt lat="53.168976" lon="-3.956927"><ele>918</ele><time>2020-08-16T13:40:25Z</time><name>PT7571</name></trkpt>
<trkpt lat="53.168981" lon="-3.956916"><ele>918</ele><time>2020-08-16T13:40:26Z</time><name>PT7572</name></trkpt>
<trkpt lat="53.168985" lon="-3.956907"><ele>917</ele><time>2020-08-16T13:40:27Z</time><name>PT7573</name></trkpt>
<trkpt lat="53.168990" lon="-3.956896"><ele>917</ele><time>2020-08-16T13:40:28Z</time><name>PT7574</name></trkpt>
<trkpt lat="53.168997" lon="-3.956882"><ele>917</ele><time>2020-08-16T13:40:29Z</time><name>PT7575</name></trkpt>
<trkpt lat="53.169003" lon="-3.956867"><ele>917</ele><time>2020-08-16T13:40:30Z</time><name>PT7576</name></trkpt>
<trkpt lat="53.169011" lon="-3.956852"><ele>917</ele><time>2020-08-16T13:40:31Z</time><name>PT7577</name></trkpt>
<trkpt lat="53.169017" lon="-3.956838"><ele>917</ele><time>2020-08-16T13:40:32Z</time><name>PT7578</name></trkpt>
<trkpt lat="53.169025" lon="-3.956827"><ele>917</ele><time>2020-08-16T13:40:33Z</time><name>PT7579</name></trkpt>
<trkpt lat="53.169032" lon="-3.956816"><ele>917</ele><time>2020-08-16T13:40:34Z</time><name>PT7580</name></trkpt>
<trkpt lat="53.169040" lon="-3.956806"><ele>917</ele><time>2020-08-16T13:40:35Z</time><name>PT7581</name></trkpt>
<trkpt lat="53.169048" lon="-3.956796"><ele>917</ele><time>2020-08-16T13:40:36Z</time><name>PT7582</name></trkpt>
<trkpt lat="53.169056" lon="-3.956786"><ele>917</ele><time>2020-08-16T13:40:37Z</time><name>PT7583</name></trkpt>
<trkpt lat="53.169063" lon="-3.956780"><ele>917</ele><time>2020-08-16T13:40:38Z</time><name>PT7584</name></trkpt>
<trkpt lat="53.169071" lon="-3.956773"><ele>917</ele><time>2020-08-16T13:40:39Z</time><name>PT7585</name></trkpt>
<trkpt lat="53.169081" lon="-3.956766"><ele>917</ele><time>2020-08-16T13:40:40Z</time><name>PT7586</name></trkpt>
<trkpt lat="53.169089" lon="-3.956762"><ele>917</ele><time>2020-08-16T13:40:41Z</time><name>PT7587</name></trkpt>
<trkpt lat="53.169098" lon="-3.956761"><ele>917</ele><time>2020-08-16T13:40:42Z</time><name>PT7588</name></trkpt>
<trkpt lat="53.169106" lon="-3.956760"><ele>917</ele><time>2020-08-16T13:40:43Z</time><name>PT7589</name></trkpt>
<trkpt lat="53.169114" lon="-3.956753"><ele>917</ele><time>2020-08-16T13:40:44Z</time><name>PT7590</name></trkpt>
<trkpt lat="53.169119" lon="-3.956749"><ele>917</ele><time>2020-08-16T13:40:45Z</time><name>PT7591</name></trkpt>
<trkpt lat="53.169126" lon="-3.956743"><ele>917</ele><time>2020-08-16T13:40:46Z</time><name>PT7592</name></trkpt>
<trkpt lat="53.169132" lon="-3.956740"><ele>917</ele><time>2020-08-16T13:40:47Z</time><name>PT7593</name></trkpt>
<trkpt lat="53.169138" lon="-3.956734"><ele>916</ele><time>2020-08-16T13:40:48Z</time><name>PT7594</name></trkpt>
<trkpt lat="53.169146" lon="-3.956725"><ele>916</ele><time>2020-08-16T13:40:49Z</time><name>PT7595</name></trkpt>
<trkpt lat="53.169155" lon="-3.956714"><ele>916</ele><time>2020-08-16T13:40:50Z</time><name>PT7596</name></trkpt>
<trkpt lat="53.169163" lon="-3.956705"><ele>916</ele><time>2020-08-16T13:40:51Z</time><name>PT7597</name></trkpt>
<trkpt lat="53.169172" lon="-3.956696"><ele>915</ele><time>2020-08-16T13:40:52Z</time><name>PT7598</name></trkpt>
<trkpt lat="53.169180" lon="-3.956685"><ele>915</ele><time>2020-08-16T13:40:53Z</time><name>PT7599</name></trkpt>
<trkpt lat="53.169189" lon="-3.956672"><ele>915</ele><time>2020-08-16T13:40:54Z</time><name>PT7600</name></trkpt>
<trkpt lat="53.169197" lon="-3.956659"><ele>915</ele><time>2020-08-16T13:40:55Z</time><name>PT7601</name></trkpt>
<trkpt lat="53.169201" lon="-3.956648"><ele>915</ele><time>2020-08-16T13:40:56Z</time><name>PT7602</name></trkpt>
<trkpt lat="53.169206" lon="-3.956637"><ele>915</ele><time>2020-08-16T13:40:57Z</time><name>PT7603</name></trkpt>
<trkpt lat="53.169211" lon="-3.956623"><ele>915</ele><time>2020-08-16T13:40:58Z</time><name>PT7604</name></trkpt>
<trkpt lat="53.169218" lon="-3.956607"><ele>914</ele><time>2020-08-16T13:40:59Z</time><name>PT7605</name></trkpt>
<trkpt lat="53.169225" lon="-3.956595"><ele>914</ele><time>2020-08-16T13:41:00Z</time><name>PT7606</name></trkpt>
<trkpt lat="53.169231" lon="-3.956583"><ele>914</ele><time>2020-08-16T13:41:01Z</time><name>PT7607</name></trkpt>
<trkpt lat="53.169239" lon="-3.956574"><ele>915</ele><time>2020-08-16T13:41:02Z</time><name>PT7608</name></trkpt>
<trkpt lat="53.169249" lon="-3.956562"><ele>915</ele><time>2020-08-16T13:41:03Z</time><name>PT7609</name></trkpt>
<trkpt lat="53.169257" lon="-3.956551"><ele>915</ele><time>2020-08-16T13:41:04Z</time><name>PT7610</name></trkpt>
<trkpt lat="53.169264" lon="-3.956541"><ele>915</ele><time>2020-08-16T13:41:05Z</time><name>PT7611</name></trkpt>
<trkpt lat="53.169272" lon="-3.956532"><ele>915</ele><time>2020-08-16T13:41:06Z</time><name>PT7612</name></trkpt>
<trkpt lat="53.169280" lon="-3.956519"><ele>914</ele><time>2020-08-16T13:41:07Z</time><name>PT7613</name></trkpt>
<trkpt lat="53.169287" lon="-3.956511"><ele>914</ele><time>2020-08-16T13:41:08Z</time><name>PT7614</name></trkpt>
<trkpt lat="53.169294" lon="-3.956503"><ele>914</ele><time>2020-08-16T13:41:09Z</time><name>PT7615</name></trkpt>
<trkpt lat="53.169303" lon="-3.956496"><ele>914</ele><time>2020-08-16T13:41:10Z</time><name>PT7616</name></trkpt>
<trkpt lat="53.169314" lon="-3.956490"><ele>914</ele><time>2020-08-16T13:41:11Z</time><name>PT7617</name></trkpt>
<trkpt lat="53.169322" lon="-3.956482"><ele>914</ele><time>2020-08-16T13:41:12Z</time><name>PT7618</name></trkpt>
<trkpt lat="53.169331" lon="-3.956472"><ele>913</ele><time>2020-08-16T13:41:13Z</time><name>PT7619</name></trkpt>
<trkpt lat="53.169339" lon="-3.956460"><ele>913</ele><time>2020-08-16T13:41:14Z</time><name>PT7620</name></trkpt>
<trkpt lat="53.169346" lon="-3.956448"><ele>913</ele><time>2020-08-16T13:41:15Z</time><name>PT7621</name></trkpt>
<trkpt lat="53.169352" lon="-3.956434"><ele>913</ele><time>2020-08-16T13:41:16Z</time><name>PT7622</name></trkpt>
<trkpt lat="53.169358" lon="-3.956421"><ele>913</ele><time>2020-08-16T13:41:17Z</time><name>PT7623</name></trkpt>
<trkpt lat="53.169365" lon="-3.956405"><ele>912</ele><time>2020-08-16T13:41:19Z</time><name>PT7624</name></trkpt>
<trkpt lat="53.169373" lon="-3.956391"><ele>912</ele><time>2020-08-16T13:41:19Z</time><name>PT7625</name></trkpt>
<trkpt lat="53.169379" lon="-3.956376"><ele>912</ele><time>2020-08-16T13:41:20Z</time><name>PT7626</name></trkpt>
<trkpt lat="53.169387" lon="-3.956364"><ele>912</ele><time>2020-08-16T13:41:21Z</time><name>PT7627</name></trkpt>
<trkpt lat="53.169395" lon="-3.956353"><ele>912</ele><time>2020-08-16T13:41:22Z</time><name>PT7628</name></trkpt>
<trkpt lat="53.169403" lon="-3.956342"><ele>912</ele><time>2020-08-16T13:41:23Z</time><name>PT7629</name></trkpt>
<trkpt lat="53.169410" lon="-3.956330"><ele>911</ele><time>2020-08-16T13:41:24Z</time><name>PT7630</name></trkpt>
<trkpt lat="53.169418" lon="-3.956316"><ele>911</ele><time>2020-08-16T13:41:25Z</time><name>PT7631</name></trkpt>
<trkpt lat="53.169426" lon="-3.956303"><ele>911</ele><time>2020-08-16T13:41:26Z</time><name>PT7632</name></trkpt>
<trkpt lat="53.169434" lon="-3.956288"><ele>911</ele><time>2020-08-16T13:41:27Z</time><name>PT7633</name></trkpt>
<trkpt lat="53.169443" lon="-3.956276"><ele>911</ele><time>2020-08-16T13:41:28Z</time><name>PT7634</name></trkpt>
<trkpt lat="53.169450" lon="-3.956260"><ele>911</ele><time>2020-08-16T13:41:29Z</time><name>PT7635</name></trkpt>
<trkpt lat="53.169457" lon="-3.956250"><ele>911</ele><time>2020-08-16T13:41:30Z</time><name>PT7636</name></trkpt>
<trkpt lat="53.169464" lon="-3.956239"><ele>911</ele><time>2020-08-16T13:41:31Z</time><name>PT7637</name></trkpt>
<trkpt lat="53.169472" lon="-3.956228"><ele>911</ele><time>2020-08-16T13:41:32Z</time><name>PT7638</name></trkpt>
<trkpt lat="53.169481" lon="-3.956214"><ele>911</ele><time>2020-08-16T13:41:33Z</time><name>PT7639</name></trkpt>
<trkpt lat="53.169490" lon="-3.956202"><ele>911</ele><time>2020-08-16T13:41:34Z</time><name>PT7640</name></trkpt>
<trkpt lat="53.169499" lon="-3.956188"><ele>911</ele><time>2020-08-16T13:41:35Z</time><name>PT7641</name></trkpt>
<trkpt lat="53.169508" lon="-3.956178"><ele>911</ele><time>2020-08-16T13:41:36Z</time><name>PT7642</name></trkpt>
<trkpt lat="53.169517" lon="-3.956168"><ele>911</ele><time>2020-08-16T13:41:37Z</time><name>PT7643</name></trkpt>
<trkpt lat="53.169524" lon="-3.956159"><ele>911</ele><time>2020-08-16T13:41:38Z</time><name>PT7644</name></trkpt>
<trkpt lat="53.169534" lon="-3.956148"><ele>911</ele><time>2020-08-16T13:41:39Z</time><name>PT7645</name></trkpt>
<trkpt lat="53.169544" lon="-3.956140"><ele>911</ele><time>2020-08-16T13:41:40Z</time><name>PT7646</name></trkpt>
<trkpt lat="53.169554" lon="-3.956131"><ele>911</ele><time>2020-08-16T13:41:41Z</time><name>PT7647</name></trkpt>
<trkpt lat="53.169563" lon="-3.956123"><ele>911</ele><time>2020-08-16T13:41:42Z</time><name>PT7648</name></trkpt>
<trkpt lat="53.169572" lon="-3.956114"><ele>911</ele><time>2020-08-16T13:41:43Z</time><name>PT7649</name></trkpt>
<trkpt lat="53.169582" lon="-3.956103"><ele>911</ele><time>2020-08-16T13:41:44Z</time><name>PT7650</name></trkpt>
<trkpt lat="53.169592" lon="-3.956093"><ele>911</ele><time>2020-08-16T13:41:45Z</time><name>PT7651</name></trkpt>
<trkpt lat="53.169600" lon="-3.956084"><ele>911</ele><time>2020-08-16T13:41:46Z</time><name>PT7652</name></trkpt>
<trkpt lat="53.169609" lon="-3.956073"><ele>910</ele><time>2020-08-16T13:41:47Z</time><name>PT7653</name></trkpt>
<trkpt lat="53.169620" lon="-3.956065"><ele>910</ele><time>2020-08-16T13:41:48Z</time><name>PT7654</name></trkpt>
<trkpt lat="53.169628" lon="-3.956057"><ele>910</ele><time>2020-08-16T13:41:49Z</time><name>PT7655</name></trkpt>
<trkpt lat="53.169636" lon="-3.956046"><ele>910</ele><time>2020-08-16T13:41:50Z</time><name>PT7656</name></trkpt>
<trkpt lat="53.169645" lon="-3.956035"><ele>910</ele><time>2020-08-16T13:41:51Z</time><name>PT7657</name></trkpt>
<trkpt lat="53.169653" lon="-3.956028"><ele>910</ele><time>2020-08-16T13:41:52Z</time><name>PT7658</name></trkpt>
<trkpt lat="53.169660" lon="-3.956017"><ele>910</ele><time>2020-08-16T13:41:53Z</time><name>PT7659</name></trkpt>
<trkpt lat="53.169668" lon="-3.956009"><ele>910</ele><time>2020-08-16T13:41:54Z</time><name>PT7660</name></trkpt>
<trkpt lat="53.169677" lon="-3.956003"><ele>910</ele><time>2020-08-16T13:41:55Z</time><name>PT7661</name></trkpt>
<trkpt lat="53.169686" lon="-3.955995"><ele>910</ele><time>2020-08-16T13:41:56Z</time><name>PT7662</name></trkpt>
<trkpt lat="53.169693" lon="-3.955986"><ele>910</ele><time>2020-08-16T13:41:57Z</time><name>PT7663</name></trkpt>
<trkpt lat="53.169700" lon="-3.955976"><ele>910</ele><time>2020-08-16T13:41:58Z</time><name>PT7664</name></trkpt>
<trkpt lat="53.169707" lon="-3.955972"><ele>910</ele><time>2020-08-16T13:41:59Z</time><name>PT7665</name></trkpt>
<trkpt lat="53.169714" lon="-3.955968"><ele>910</ele><time>2020-08-16T13:42:00Z</time><name>PT7666</name></trkpt>
<trkpt lat="53.169721" lon="-3.955962"><ele>909</ele><time>2020-08-16T13:42:01Z</time><name>PT7667</name></trkpt>
<trkpt lat="53.169730" lon="-3.955955"><ele>909</ele><time>2020-08-16T13:42:02Z</time><name>PT7668</name></trkpt>
<trkpt lat="53.169738" lon="-3.955951"><ele>909</ele><time>2020-08-16T13:42:04Z</time><name>PT7669</name></trkpt>
<trkpt lat="53.169746" lon="-3.955948"><ele>909</ele><time>2020-08-16T13:42:04Z</time><name>PT7670</name></trkpt>
<trkpt lat="53.169754" lon="-3.955949"><ele>909</ele><time>2020-08-16T13:42:05Z</time><name>PT7671</name></trkpt>
<trkpt lat="53.169761" lon="-3.955944"><ele>910</ele><time>2020-08-16T13:42:06Z</time><name>PT7672</name></trkpt>
<trkpt lat="53.169769" lon="-3.955942"><ele>909</ele><time>2020-08-16T13:42:07Z</time><name>PT7673</name></trkpt>
<trkpt lat="53.169778" lon="-3.955932"><ele>909</ele><time>2020-08-16T13:42:08Z</time><name>PT7674</name></trkpt>
<trkpt lat="53.169782" lon="-3.955926"><ele>909</ele><time>2020-08-16T13:42:09Z</time><name>PT7675</name></trkpt>
<trkpt lat="53.169788" lon="-3.955925"><ele>909</ele><time>2020-08-16T13:42:10Z</time><name>PT7676</name></trkpt>
<trkpt lat="53.169794" lon="-3.955921"><ele>909</ele><time>2020-08-16T13:42:11Z</time><name>PT7677</name></trkpt>
<trkpt lat="53.169798" lon="-3.955915"><ele>909</ele><time>2020-08-16T13:42:12Z</time><name>PT7678</name></trkpt>
<trkpt lat="53.169804" lon="-3.955911"><ele>909</ele><time>2020-08-16T13:42:13Z</time><name>PT7679</name></trkpt>
<trkpt lat="53.169810" lon="-3.955905"><ele>909</ele><time>2020-08-16T13:42:14Z</time><name>PT7680</name></trkpt>
<trkpt lat="53.169815" lon="-3.955900"><ele>909</ele><time>2020-08-16T13:42:15Z</time><name>PT7681</name></trkpt>
<trkpt lat="53.169811" lon="-3.955898"><ele>908</ele><time>2020-08-16T13:42:16Z</time><name>PT7682</name></trkpt>
<trkpt lat="53.169815" lon="-3.955897"><ele>908</ele><time>2020-08-16T13:42:17Z</time><name>PT7683</name></trkpt>
<trkpt lat="53.169819" lon="-3.955893"><ele>908</ele><time>2020-08-16T13:42:18Z</time><name>PT7684</name></trkpt>
<trkpt lat="53.169824" lon="-3.955884"><ele>908</ele><time>2020-08-16T13:42:19Z</time><name>PT7685</name></trkpt>
<trkpt lat="53.169828" lon="-3.955878"><ele>908</ele><time>2020-08-16T13:42:20Z</time><name>PT7686</name></trkpt>
<trkpt lat="53.169835" lon="-3.955874"><ele>908</ele><time>2020-08-16T13:42:21Z</time><name>PT7687</name></trkpt>
<trkpt lat="53.169842" lon="-3.955867"><ele>908</ele><time>2020-08-16T13:42:22Z</time><name>PT7688</name></trkpt>
<trkpt lat="53.169846" lon="-3.955862"><ele>908</ele><time>2020-08-16T13:42:23Z</time><name>PT7689</name></trkpt>
<trkpt lat="53.169853" lon="-3.955853"><ele>908</ele><time>2020-08-16T13:42:24Z</time><name>PT7690</name></trkpt>
<trkpt lat="53.169860" lon="-3.955843"><ele>908</ele><time>2020-08-16T13:42:25Z</time><name>PT7691</name></trkpt>
<trkpt lat="53.169864" lon="-3.955838"><ele>907</ele><time>2020-08-16T13:42:26Z</time><name>PT7692</name></trkpt>
<trkpt lat="53.169868" lon="-3.955827"><ele>907</ele><time>2020-08-16T13:42:27Z</time><name>PT7693</name></trkpt>
<trkpt lat="53.169874" lon="-3.955815"><ele>907</ele><time>2020-08-16T13:42:28Z</time><name>PT7694</name></trkpt>
<trkpt lat="53.169883" lon="-3.955798"><ele>906</ele><time>2020-08-16T13:42:32Z</time><name>PT7695</name></trkpt>
<trkpt lat="53.169888" lon="-3.955781"><ele>905</ele><time>2020-08-16T13:42:35Z</time><name>PT7696</name></trkpt>
<trkpt lat="53.169881" lon="-3.955762"><ele>905</ele><time>2020-08-16T13:42:38Z</time><name>PT7697</name></trkpt>
<trkpt lat="53.169878" lon="-3.955753"><ele>905</ele><time>2020-08-16T13:42:39Z</time><name>PT7698</name></trkpt>
<trkpt lat="53.169879" lon="-3.955743"><ele>905</ele><time>2020-08-16T13:42:40Z</time><name>PT7699</name></trkpt>
<trkpt lat="53.169877" lon="-3.955734"><ele>904</ele><time>2020-08-16T13:42:41Z</time><name>PT7700</name></trkpt>
<trkpt lat="53.169876" lon="-3.955725"><ele>904</ele><time>2020-08-16T13:42:42Z</time><name>PT7701</name></trkpt>
<trkpt lat="53.169877" lon="-3.955713"><ele>904</ele><time>2020-08-16T13:42:43Z</time><name>PT7702</name></trkpt>
<trkpt lat="53.169876" lon="-3.955700"><ele>904</ele><time>2020-08-16T13:42:44Z</time><name>PT7703</name></trkpt>
<trkpt lat="53.169875" lon="-3.955688"><ele>904</ele><time>2020-08-16T13:42:45Z</time><name>PT7704</name></trkpt>
<trkpt lat="53.169875" lon="-3.955678"><ele>903</ele><time>2020-08-16T13:42:46Z</time><name>PT7705</name></trkpt>
<trkpt lat="53.169875" lon="-3.955666"><ele>903</ele><time>2020-08-16T13:42:47Z</time><name>PT7706</name></trkpt>
<trkpt lat="53.169876" lon="-3.955655"><ele>903</ele><time>2020-08-16T13:42:48Z</time><name>PT7707</name></trkpt>
<trkpt lat="53.169878" lon="-3.955642"><ele>903</ele><time>2020-08-16T13:42:49Z</time><name>PT7708</name></trkpt>
<trkpt lat="53.169879" lon="-3.955629"><ele>903</ele><time>2020-08-16T13:42:50Z</time><name>PT7709</name></trkpt>
<trkpt lat="53.169880" lon="-3.955617"><ele>902</ele><time>2020-08-16T13:42:51Z</time><name>PT7710</name></trkpt>
<trkpt lat="53.169882" lon="-3.955606"><ele>902</ele><time>2020-08-16T13:42:52Z</time><name>PT7711</name></trkpt>
<trkpt lat="53.169882" lon="-3.955592"><ele>902</ele><time>2020-08-16T13:42:53Z</time><name>PT7712</name></trkpt>
<trkpt lat="53.169882" lon="-3.955583"><ele>901</ele><time>2020-08-16T13:42:54Z</time><name>PT7713</name></trkpt>
<trkpt lat="53.169883" lon="-3.955575"><ele>901</ele><time>2020-08-16T13:42:55Z</time><name>PT7714</name></trkpt>
<trkpt lat="53.169886" lon="-3.955574"><ele>901</ele><time>2020-08-16T13:42:56Z</time><name>PT7715</name></trkpt>
<trkpt lat="53.169885" lon="-3.955574"><ele>901</ele><time>2020-08-16T13:42:57Z</time><name>PT7716</name></trkpt>
<trkpt lat="53.169882" lon="-3.955572"><ele>901</ele><time>2020-08-16T13:42:58Z</time><name>PT7717</name></trkpt>
<trkpt lat="53.169879" lon="-3.955564"><ele>901</ele><time>2020-08-16T13:42:59Z</time><name>PT7718</name></trkpt>
<trkpt lat="53.169872" lon="-3.955559"><ele>900</ele><time>2020-08-16T13:43:00Z</time><name>PT7719</name></trkpt>
<trkpt lat="53.169863" lon="-3.955553"><ele>900</ele><time>2020-08-16T13:43:01Z</time><name>PT7720</name></trkpt>
<trkpt lat="53.169860" lon="-3.955544"><ele>900</ele><time>2020-08-16T13:43:02Z</time><name>PT7721</name></trkpt>
<trkpt lat="53.169854" lon="-3.955533"><ele>900</ele><time>2020-08-16T13:43:03Z</time><name>PT7722</name></trkpt>
<trkpt lat="53.169846" lon="-3.955525"><ele>899</ele><time>2020-08-16T13:43:04Z</time><name>PT7723</name></trkpt>
<trkpt lat="53.169840" lon="-3.955516"><ele>899</ele><time>2020-08-16T13:43:05Z</time><name>PT7724</name></trkpt>
<trkpt lat="53.169834" lon="-3.955507"><ele>898</ele><time>2020-08-16T13:43:06Z</time><name>PT7725</name></trkpt>
<trkpt lat="53.169829" lon="-3.955495"><ele>898</ele><time>2020-08-16T13:43:07Z</time><name>PT7726</name></trkpt>
<trkpt lat="53.169824" lon="-3.955485"><ele>898</ele><time>2020-08-16T13:43:08Z</time><name>PT7727</name></trkpt>
<trkpt lat="53.169823" lon="-3.955475"><ele>897</ele><time>2020-08-16T13:43:09Z</time><name>PT7728</name></trkpt>
<trkpt lat="53.169820" lon="-3.955461"><ele>897</ele><time>2020-08-16T13:43:10Z</time><name>PT7729</name></trkpt>
<trkpt lat="53.169816" lon="-3.955446"><ele>897</ele><time>2020-08-16T13:43:11Z</time><name>PT7730</name></trkpt>
<trkpt lat="53.169810" lon="-3.955433"><ele>896</ele><time>2020-08-16T13:43:12Z</time><name>PT7731</name></trkpt>
<trkpt lat="53.169801" lon="-3.955425"><ele>896</ele><time>2020-08-16T13:43:13Z</time><name>PT7732</name></trkpt>
<trkpt lat="53.169795" lon="-3.955416"><ele>896</ele><time>2020-08-16T13:43:14Z</time><name>PT7733</name></trkpt>
<trkpt lat="53.169790" lon="-3.955409"><ele>896</ele><time>2020-08-16T13:43:15Z</time><name>PT7734</name></trkpt>
<trkpt lat="53.169785" lon="-3.955400"><ele>895</ele><time>2020-08-16T13:43:16Z</time><name>PT7735</name></trkpt>
<trkpt lat="53.169781" lon="-3.955386"><ele>895</ele><time>2020-08-16T13:43:17Z</time><name>PT7736</name></trkpt>
<trkpt lat="53.169778" lon="-3.955374"><ele>895</ele><time>2020-08-16T13:43:18Z</time><name>PT7737</name></trkpt>
<trkpt lat="53.169774" lon="-3.955359"><ele>895</ele><time>2020-08-16T13:43:19Z</time><name>PT7738</name></trkpt>
<trkpt lat="53.169775" lon="-3.955349"><ele>895</ele><time>2020-08-16T13:43:20Z</time><name>PT7739</name></trkpt>
<trkpt lat="53.169775" lon="-3.955338"><ele>895</ele><time>2020-08-16T13:43:21Z</time><name>PT7740</name></trkpt>
<trkpt lat="53.169775" lon="-3.955330"><ele>894</ele><time>2020-08-16T13:43:22Z</time><name>PT7741</name></trkpt>
<trkpt lat="53.169773" lon="-3.955322"><ele>894</ele><time>2020-08-16T13:43:23Z</time><name>PT7742</name></trkpt>
<trkpt lat="53.169774" lon="-3.955309"><ele>894</ele><time>2020-08-16T13:43:24Z</time><name>PT7743</name></trkpt>
<trkpt lat="53.169776" lon="-3.955294"><ele>894</ele><time>2020-08-16T13:43:25Z</time><name>PT7744</name></trkpt>
<trkpt lat="53.169778" lon="-3.955278"><ele>893</ele><time>2020-08-16T13:43:26Z</time><name>PT7745</name></trkpt>
<trkpt lat="53.169779" lon="-3.955264"><ele>893</ele><time>2020-08-16T13:43:27Z</time><name>PT7746</name></trkpt>
<trkpt lat="53.169782" lon="-3.955251"><ele>894</ele><time>2020-08-16T13:43:28Z</time><name>PT7747</name></trkpt>
<trkpt lat="53.169782" lon="-3.955230"><ele>894</ele><time>2020-08-16T13:43:29Z</time><name>PT7748</name></trkpt>
<trkpt lat="53.169782" lon="-3.955214"><ele>894</ele><time>2020-08-16T13:43:30Z</time><name>PT7749</name></trkpt>
<trkpt lat="53.169780" lon="-3.955198"><ele>893</ele><time>2020-08-16T13:43:31Z</time><name>PT7750</name></trkpt>
<trkpt lat="53.169776" lon="-3.955186"><ele>893</ele><time>2020-08-16T13:43:32Z</time><name>PT7751</name></trkpt>
<trkpt lat="53.169769" lon="-3.955177"><ele>893</ele><time>2020-08-16T13:43:33Z</time><name>PT7752</name></trkpt>
<trkpt lat="53.169762" lon="-3.955166"><ele>892</ele><time>2020-08-16T13:43:34Z</time><name>PT7753</name></trkpt>
<trkpt lat="53.169755" lon="-3.955161"><ele>892</ele><time>2020-08-16T13:43:35Z</time><name>PT7754</name></trkpt>
<trkpt lat="53.169748" lon="-3.955154"><ele>892</ele><time>2020-08-16T13:43:36Z</time><name>PT7755</name></trkpt>
<trkpt lat="53.169739" lon="-3.955145"><ele>892</ele><time>2020-08-16T13:43:37Z</time><name>PT7756</name></trkpt>
<trkpt lat="53.169734" lon="-3.955135"><ele>891</ele><time>2020-08-16T13:43:38Z</time><name>PT7757</name></trkpt>
<trkpt lat="53.169730" lon="-3.955119"><ele>892</ele><time>2020-08-16T13:43:39Z</time><name>PT7758</name></trkpt>
<trkpt lat="53.169727" lon="-3.955103"><ele>892</ele><time>2020-08-16T13:43:40Z</time><name>PT7759</name></trkpt>
<trkpt lat="53.169724" lon="-3.955087"><ele>892</ele><time>2020-08-16T13:43:41Z</time><name>PT7760</name></trkpt>
<trkpt lat="53.169724" lon="-3.955075"><ele>891</ele><time>2020-08-16T13:43:42Z</time><name>PT7761</name></trkpt>
<trkpt lat="53.169722" lon="-3.955062"><ele>891</ele><time>2020-08-16T13:43:43Z</time><name>PT7762</name></trkpt>
<trkpt lat="53.169722" lon="-3.955047"><ele>891</ele><time>2020-08-16T13:43:44Z</time><name>PT7763</name></trkpt>
<trkpt lat="53.169720" lon="-3.955031"><ele>890</ele><time>2020-08-16T13:43:45Z</time><name>PT7764</name></trkpt>
<trkpt lat="53.169716" lon="-3.955018"><ele>890</ele><time>2020-08-16T13:43:46Z</time><name>PT7765</name></trkpt>
<trkpt lat="53.169712" lon="-3.955004"><ele>890</ele><time>2020-08-16T13:43:47Z</time><name>PT7766</name></trkpt>
<trkpt lat="53.169714" lon="-3.954987"><ele>890</ele><time>2020-08-16T13:43:48Z</time><name>PT7767</name></trkpt>
<trkpt lat="53.169715" lon="-3.954976"><ele>890</ele><time>2020-08-16T13:43:49Z</time><name>PT7768</name></trkpt>
<trkpt lat="53.169715" lon="-3.954963"><ele>890</ele><time>2020-08-16T13:43:50Z</time><name>PT7769</name></trkpt>
<trkpt lat="53.169713" lon="-3.954948"><ele>890</ele><time>2020-08-16T13:43:51Z</time><name>PT7770</name></trkpt>
<trkpt lat="53.169716" lon="-3.954934"><ele>890</ele><time>2020-08-16T13:43:52Z</time><name>PT7771</name></trkpt>
<trkpt lat="53.169722" lon="-3.954924"><ele>889</ele><time>2020-08-16T13:43:53Z</time><name>PT7772</name></trkpt>
<trkpt lat="53.169729" lon="-3.954915"><ele>889</ele><time>2020-08-16T13:43:54Z</time><name>PT7773</name></trkpt>
<trkpt lat="53.169735" lon="-3.954906"><ele>889</ele><time>2020-08-16T13:43:55Z</time><name>PT7774</name></trkpt>
<trkpt lat="53.169742" lon="-3.954895"><ele>889</ele><time>2020-08-16T13:43:56Z</time><name>PT7775</name></trkpt>
<trkpt lat="53.169746" lon="-3.954883"><ele>889</ele><time>2020-08-16T13:43:57Z</time><name>PT7776</name></trkpt>
<trkpt lat="53.169750" lon="-3.954872"><ele>889</ele><time>2020-08-16T13:43:58Z</time><name>PT7777</name></trkpt>
<trkpt lat="53.169756" lon="-3.954860"><ele>888</ele><time>2020-08-16T13:43:59Z</time><name>PT7778</name></trkpt>
<trkpt lat="53.169757" lon="-3.954848"><ele>888</ele><time>2020-08-16T13:44:00Z</time><name>PT7779</name></trkpt>
<trkpt lat="53.169758" lon="-3.954833"><ele>887</ele><time>2020-08-16T13:44:01Z</time><name>PT7780</name></trkpt>
<trkpt lat="53.169757" lon="-3.954815"><ele>887</ele><time>2020-08-16T13:44:02Z</time><name>PT7781</name></trkpt>
<trkpt lat="53.169757" lon="-3.954799"><ele>887</ele><time>2020-08-16T13:44:03Z</time><name>PT7782</name></trkpt>
<trkpt lat="53.169759" lon="-3.954786"><ele>887</ele><time>2020-08-16T13:44:04Z</time><name>PT7783</name></trkpt>
<trkpt lat="53.169764" lon="-3.954775"><ele>886</ele><time>2020-08-16T13:44:05Z</time><name>PT7784</name></trkpt>
<trkpt lat="53.169768" lon="-3.954768"><ele>886</ele><time>2020-08-16T13:44:07Z</time><name>PT7785</name></trkpt>
<trkpt lat="53.169773" lon="-3.954761"><ele>886</ele><time>2020-08-16T13:44:07Z</time><name>PT7786</name></trkpt>
<trkpt lat="53.169780" lon="-3.954751"><ele>886</ele><time>2020-08-16T13:44:08Z</time><name>PT7787</name></trkpt>
<trkpt lat="53.169787" lon="-3.954743"><ele>886</ele><time>2020-08-16T13:44:09Z</time><name>PT7788</name></trkpt>
<trkpt lat="53.169792" lon="-3.954732"><ele>886</ele><time>2020-08-16T13:44:10Z</time><name>PT7789</name></trkpt>
<trkpt lat="53.169795" lon="-3.954721"><ele>886</ele><time>2020-08-16T13:44:11Z</time><name>PT7790</name></trkpt>
<trkpt lat="53.169797" lon="-3.954710"><ele>886</ele><time>2020-08-16T13:44:12Z</time><name>PT7791</name></trkpt>
<trkpt lat="53.169800" lon="-3.954699"><ele>886</ele><time>2020-08-16T13:44:13Z</time><name>PT7792</name></trkpt>
<trkpt lat="53.169803" lon="-3.954693"><ele>886</ele><time>2020-08-16T13:44:14Z</time><name>PT7793</name></trkpt>
<trkpt lat="53.169803" lon="-3.954694"><ele>886</ele><time>2020-08-16T13:44:15Z</time><name>PT7794</name></trkpt>
<trkpt lat="53.169803" lon="-3.954696"><ele>886</ele><time>2020-08-16T13:44:16Z</time><name>PT7795</name></trkpt>
<trkpt lat="53.169803" lon="-3.954695"><ele>886</ele><time>2020-08-16T13:44:17Z</time><name>PT7796</name></trkpt>
<trkpt lat="53.169802" lon="-3.954694"><ele>886</ele><time>2020-08-16T13:44:18Z</time><name>PT7797</name></trkpt>
<trkpt lat="53.169803" lon="-3.954694"><ele>886</ele><time>2020-08-16T13:44:19Z</time><name>PT7798</name></trkpt>
<trkpt lat="53.169797" lon="-3.954699"><ele>885</ele><time>2020-08-16T13:44:20Z</time><name>PT7799</name></trkpt>
<trkpt lat="53.169792" lon="-3.954702"><ele>886</ele><time>2020-08-16T13:44:21Z</time><name>PT7800</name></trkpt>
<trkpt lat="53.169787" lon="-3.954703"><ele>886</ele><time>2020-08-16T13:44:22Z</time><name>PT7801</name></trkpt>
<trkpt lat="53.169780" lon="-3.954700"><ele>886</ele><time>2020-08-16T13:44:23Z</time><name>PT7802</name></trkpt>
<trkpt lat="53.169773" lon="-3.954693"><ele>885</ele><time>2020-08-16T13:44:24Z</time><name>PT7803</name></trkpt>
<trkpt lat="53.169765" lon="-3.954686"><ele>885</ele><time>2020-08-16T13:44:25Z</time><name>PT7804</name></trkpt>
<trkpt lat="53.169758" lon="-3.954678"><ele>885</ele><time>2020-08-16T13:44:26Z</time><name>PT7805</name></trkpt>
<trkpt lat="53.169749" lon="-3.954668"><ele>885</ele><time>2020-08-16T13:44:27Z</time><name>PT7806</name></trkpt>
<trkpt lat="53.169741" lon="-3.954658"><ele>885</ele><time>2020-08-16T13:44:28Z</time><name>PT7807</name></trkpt>
<trkpt lat="53.169734" lon="-3.954643"><ele>885</ele><time>2020-08-16T13:44:29Z</time><name>PT7808</name></trkpt>
<trkpt lat="53.169728" lon="-3.954629"><ele>885</ele><time>2020-08-16T13:44:30Z</time><name>PT7809</name></trkpt>
<trkpt lat="53.169723" lon="-3.954614"><ele>884</ele><time>2020-08-16T13:44:31Z</time><name>PT7810</name></trkpt>
<trkpt lat="53.169716" lon="-3.954599"><ele>884</ele><time>2020-08-16T13:44:32Z</time><name>PT7811</name></trkpt>
<trkpt lat="53.169710" lon="-3.954585"><ele>884</ele><time>2020-08-16T13:44:33Z</time><name>PT7812</name></trkpt>
<trkpt lat="53.169701" lon="-3.954573"><ele>884</ele><time>2020-08-16T13:44:34Z</time><name>PT7813</name></trkpt>
<trkpt lat="53.169695" lon="-3.954564"><ele>884</ele><time>2020-08-16T13:44:35Z</time><name>PT7814</name></trkpt>
<trkpt lat="53.169690" lon="-3.954553"><ele>884</ele><time>2020-08-16T13:44:36Z</time><name>PT7815</name></trkpt>
<trkpt lat="53.169684" lon="-3.954541"><ele>884</ele><time>2020-08-16T13:44:37Z</time><name>PT7816</name></trkpt>
<trkpt lat="53.169677" lon="-3.954528"><ele>883</ele><time>2020-08-16T13:44:38Z</time><name>PT7817</name></trkpt>
<trkpt lat="53.169672" lon="-3.954519"><ele>883</ele><time>2020-08-16T13:44:39Z</time><name>PT7818</name></trkpt>
<trkpt lat="53.169667" lon="-3.954507"><ele>883</ele><time>2020-08-16T13:44:40Z</time><name>PT7819</name></trkpt>
<trkpt lat="53.169665" lon="-3.954493"><ele>883</ele><time>2020-08-16T13:44:41Z</time><name>PT7820</name></trkpt>
<trkpt lat="53.169662" lon="-3.954476"><ele>882</ele><time>2020-08-16T13:44:42Z</time><name>PT7821</name></trkpt>
<trkpt lat="53.169660" lon="-3.954457"><ele>882</ele><time>2020-08-16T13:44:43Z</time><name>PT7822</name></trkpt>
<trkpt lat="53.169657" lon="-3.954438"><ele>882</ele><time>2020-08-16T13:44:44Z</time><name>PT7823</name></trkpt>
<trkpt lat="53.169651" lon="-3.954423"><ele>882</ele><time>2020-08-16T13:44:45Z</time><name>PT7824</name></trkpt>
<trkpt lat="53.169643" lon="-3.954411"><ele>882</ele><time>2020-08-16T13:44:46Z</time><name>PT7825</name></trkpt>
<trkpt lat="53.169633" lon="-3.954398"><ele>882</ele><time>2020-08-16T13:44:47Z</time><name>PT7826</name></trkpt>
<trkpt lat="53.169625" lon="-3.954388"><ele>881</ele><time>2020-08-16T13:44:48Z</time><name>PT7827</name></trkpt>
<trkpt lat="53.169617" lon="-3.954376"><ele>881</ele><time>2020-08-16T13:44:49Z</time><name>PT7828</name></trkpt>
<trkpt lat="53.169607" lon="-3.954366"><ele>881</ele><time>2020-08-16T13:44:50Z</time><name>PT7829</name></trkpt>
<trkpt lat="53.169598" lon="-3.954353"><ele>881</ele><time>2020-08-16T13:44:51Z</time><name>PT7830</name></trkpt>
<trkpt lat="53.169591" lon="-3.954339"><ele>881</ele><time>2020-08-16T13:44:52Z</time><name>PT7831</name></trkpt>
<trkpt lat="53.169583" lon="-3.954324"><ele>881</ele><time>2020-08-16T13:44:53Z</time><name>PT7832</name></trkpt>
<trkpt lat="53.169576" lon="-3.954309"><ele>881</ele><time>2020-08-16T13:44:54Z</time><name>PT7833</name></trkpt>
<trkpt lat="53.169569" lon="-3.954293"><ele>881</ele><time>2020-08-16T13:44:55Z</time><name>PT7834</name></trkpt>
<trkpt lat="53.169563" lon="-3.954277"><ele>881</ele><time>2020-08-16T13:44:56Z</time><name>PT7835</name></trkpt>
<trkpt lat="53.169556" lon="-3.954264"><ele>881</ele><time>2020-08-16T13:44:57Z</time><name>PT7836</name></trkpt>
<trkpt lat="53.169547" lon="-3.954253"><ele>881</ele><time>2020-08-16T13:44:58Z</time><name>PT7837</name></trkpt>
<trkpt lat="53.169538" lon="-3.954244"><ele>880</ele><time>2020-08-16T13:44:59Z</time><name>PT7838</name></trkpt>
<trkpt lat="53.169529" lon="-3.954232"><ele>880</ele><time>2020-08-16T13:45:00Z</time><name>PT7839</name></trkpt>
<trkpt lat="53.169520" lon="-3.954219"><ele>880</ele><time>2020-08-16T13:45:01Z</time><name>PT7840</name></trkpt>
<trkpt lat="53.169515" lon="-3.954207"><ele>880</ele><time>2020-08-16T13:45:02Z</time><name>PT7841</name></trkpt>
<trkpt lat="53.169507" lon="-3.954198"><ele>879</ele><time>2020-08-16T13:45:03Z</time><name>PT7842</name></trkpt>
<trkpt lat="53.169500" lon="-3.954188"><ele>879</ele><time>2020-08-16T13:45:04Z</time><name>PT7843</name></trkpt>
<trkpt lat="53.169491" lon="-3.954180"><ele>879</ele><time>2020-08-16T13:45:05Z</time><name>PT7844</name></trkpt>
<trkpt lat="53.169483" lon="-3.954173"><ele>879</ele><time>2020-08-16T13:45:06Z</time><name>PT7845</name></trkpt>
<trkpt lat="53.169476" lon="-3.954169"><ele>879</ele><time>2020-08-16T13:45:07Z</time><name>PT7846</name></trkpt>
<trkpt lat="53.169467" lon="-3.954168"><ele>878</ele><time>2020-08-16T13:45:08Z</time><name>PT7847</name></trkpt>
<trkpt lat="53.169459" lon="-3.954166"><ele>878</ele><time>2020-08-16T13:45:10Z</time><name>PT7848</name></trkpt>
<trkpt lat="53.169450" lon="-3.954166"><ele>878</ele><time>2020-08-16T13:45:10Z</time><name>PT7849</name></trkpt>
<trkpt lat="53.169443" lon="-3.954164"><ele>878</ele><time>2020-08-16T13:45:11Z</time><name>PT7850</name></trkpt>
<trkpt lat="53.169434" lon="-3.954161"><ele>878</ele><time>2020-08-16T13:45:12Z</time><name>PT7851</name></trkpt>
<trkpt lat="53.169425" lon="-3.954157"><ele>877</ele><time>2020-08-16T13:45:13Z</time><name>PT7852</name></trkpt>
<trkpt lat="53.169418" lon="-3.954151"><ele>877</ele><time>2020-08-16T13:45:14Z</time><name>PT7853</name></trkpt>
<trkpt lat="53.169413" lon="-3.954145"><ele>877</ele><time>2020-08-16T13:45:15Z</time><name>PT7854</name></trkpt>
<trkpt lat="53.169410" lon="-3.954135"><ele>877</ele><time>2020-08-16T13:45:16Z</time><name>PT7855</name></trkpt>
<trkpt lat="53.169404" lon="-3.954127"><ele>876</ele><time>2020-08-16T13:45:17Z</time><name>PT7856</name></trkpt>
<trkpt lat="53.169397" lon="-3.954118"><ele>876</ele><time>2020-08-16T13:45:18Z</time><name>PT7857</name></trkpt>
<trkpt lat="53.169387" lon="-3.954107"><ele>876</ele><time>2020-08-16T13:45:19Z</time><name>PT7858</name></trkpt>
<trkpt lat="53.169380" lon="-3.954097"><ele>875</ele><time>2020-08-16T13:45:20Z</time><name>PT7859</name></trkpt>
<trkpt lat="53.169373" lon="-3.954080"><ele>875</ele><time>2020-08-16T13:45:21Z</time><name>PT7860</name></trkpt>
<trkpt lat="53.169368" lon="-3.954065"><ele>875</ele><time>2020-08-16T13:45:22Z</time><name>PT7861</name></trkpt>
<trkpt lat="53.169365" lon="-3.954049"><ele>875</ele><time>2020-08-16T13:45:23Z</time><name>PT7862</name></trkpt>
<trkpt lat="53.169361" lon="-3.954032"><ele>875</ele><time>2020-08-16T13:45:24Z</time><name>PT7863</name></trkpt>
<trkpt lat="53.169356" lon="-3.954013"><ele>875</ele><time>2020-08-16T13:45:25Z</time><name>PT7864</name></trkpt>
<trkpt lat="53.169353" lon="-3.953994"><ele>875</ele><time>2020-08-16T13:45:26Z</time><name>PT7865</name></trkpt>
<trkpt lat="53.169349" lon="-3.953977"><ele>875</ele><time>2020-08-16T13:45:27Z</time><name>PT7866</name></trkpt>
<trkpt lat="53.169345" lon="-3.953961"><ele>875</ele><time>2020-08-16T13:45:28Z</time><name>PT7867</name></trkpt>
<trkpt lat="53.169341" lon="-3.953945"><ele>875</ele><time>2020-08-16T13:45:29Z</time><name>PT7868</name></trkpt>
<trkpt lat="53.169339" lon="-3.953930"><ele>875</ele><time>2020-08-16T13:45:30Z</time><name>PT7869</name></trkpt>
<trkpt lat="53.169334" lon="-3.953920"><ele>875</ele><time>2020-08-16T13:45:31Z</time><name>PT7870</name></trkpt>
<trkpt lat="53.169328" lon="-3.953909"><ele>875</ele><time>2020-08-16T13:45:32Z</time><name>PT7871</name></trkpt>
<trkpt lat="53.169323" lon="-3.953896"><ele>875</ele><time>2020-08-16T13:45:33Z</time><name>PT7872</name></trkpt>
<trkpt lat="53.169314" lon="-3.953885"><ele>874</ele><time>2020-08-16T13:45:34Z</time><name>PT7873</name></trkpt>
<trkpt lat="53.169307" lon="-3.953875"><ele>874</ele><time>2020-08-16T13:45:35Z</time><name>PT7874</name></trkpt>
<trkpt lat="53.169298" lon="-3.953867"><ele>874</ele><time>2020-08-16T13:45:36Z</time><name>PT7875</name></trkpt>
<trkpt lat="53.169287" lon="-3.953864"><ele>874</ele><time>2020-08-16T13:45:37Z</time><name>PT7876</name></trkpt>
<trkpt lat="53.169261" lon="-3.953849"><ele>874</ele><time>2020-08-16T13:45:40Z</time><name>PT7877</name></trkpt>
<trkpt lat="53.169238" lon="-3.953840"><ele>874</ele><time>2020-08-16T13:45:43Z</time><name>PT7878</name></trkpt>
<trkpt lat="53.169214" lon="-3.953829"><ele>874</ele><time>2020-08-16T13:45:46Z</time><name>PT7879</name></trkpt>
<trkpt lat="53.169206" lon="-3.953823"><ele>874</ele><time>2020-08-16T13:45:47Z</time><name>PT7880</name></trkpt>
<trkpt lat="53.169198" lon="-3.953819"><ele>874</ele><time>2020-08-16T13:45:48Z</time><name>PT7881</name></trkpt>
<trkpt lat="53.169187" lon="-3.953815"><ele>873</ele><time>2020-08-16T13:45:49Z</time><name>PT7882</name></trkpt>
<trkpt lat="53.169177" lon="-3.953816"><ele>873</ele><time>2020-08-16T13:45:50Z</time><name>PT7883</name></trkpt>
<trkpt lat="53.169169" lon="-3.953818"><ele>873</ele><time>2020-08-16T13:45:51Z</time><name>PT7884</name></trkpt>
<trkpt lat="53.169160" lon="-3.953823"><ele>873</ele><time>2020-08-16T13:45:52Z</time><name>PT7885</name></trkpt>
<trkpt lat="53.169153" lon="-3.953826"><ele>873</ele><time>2020-08-16T13:45:53Z</time><name>PT7886</name></trkpt>
<trkpt lat="53.169147" lon="-3.953833"><ele>873</ele><time>2020-08-16T13:45:54Z</time><name>PT7887</name></trkpt>
<trkpt lat="53.169138" lon="-3.953839"><ele>874</ele><time>2020-08-16T13:45:55Z</time><name>PT7888</name></trkpt>
<trkpt lat="53.169128" lon="-3.953849"><ele>873</ele><time>2020-08-16T13:45:56Z</time><name>PT7889</name></trkpt>
<trkpt lat="53.169123" lon="-3.953861"><ele>873</ele><time>2020-08-16T13:45:57Z</time><name>PT7890</name></trkpt>
<trkpt lat="53.169118" lon="-3.953870"><ele>873</ele><time>2020-08-16T13:45:58Z</time><name>PT7891</name></trkpt>
<trkpt lat="53.169112" lon="-3.953877"><ele>873</ele><time>2020-08-16T13:45:59Z</time><name>PT7892</name></trkpt>
<trkpt lat="53.169110" lon="-3.953884"><ele>874</ele><time>2020-08-16T13:46:00Z</time><name>PT7893</name></trkpt>
<trkpt lat="53.169106" lon="-3.953881"><ele>874</ele><time>2020-08-16T13:46:01Z</time><name>PT7894</name></trkpt>
<trkpt lat="53.169100" lon="-3.953876"><ele>874</ele><time>2020-08-16T13:46:02Z</time><name>PT7895</name></trkpt>
<trkpt lat="53.169095" lon="-3.953866"><ele>873</ele><time>2020-08-16T13:46:03Z</time><name>PT7896</name></trkpt>
<trkpt lat="53.169088" lon="-3.953856"><ele>873</ele><time>2020-08-16T13:46:04Z</time><name>PT7897</name></trkpt>
<trkpt lat="53.169073" lon="-3.953844"><ele>873</ele><time>2020-08-16T13:46:05Z</time><name>PT7898</name></trkpt>
<trkpt lat="53.169065" lon="-3.953831"><ele>873</ele><time>2020-08-16T13:46:06Z</time><name>PT7899</name></trkpt>
<trkpt lat="53.169056" lon="-3.953819"><ele>873</ele><time>2020-08-16T13:46:07Z</time><name>PT7900</name></trkpt>
<trkpt lat="53.169048" lon="-3.953807"><ele>873</ele><time>2020-08-16T13:46:08Z</time><name>PT7901</name></trkpt>
<trkpt lat="53.169042" lon="-3.953797"><ele>873</ele><time>2020-08-16T13:46:10Z</time><name>PT7902</name></trkpt>
<trkpt lat="53.169032" lon="-3.953786"><ele>873</ele><time>2020-08-16T13:46:10Z</time><name>PT7903</name></trkpt>
<trkpt lat="53.169023" lon="-3.953773"><ele>872</ele><time>2020-08-16T13:46:11Z</time><name>PT7904</name></trkpt>
<trkpt lat="53.169014" lon="-3.953760"><ele>872</ele><time>2020-08-16T13:46:12Z</time><name>PT7905</name></trkpt>
<trkpt lat="53.169006" lon="-3.953745"><ele>872</ele><time>2020-08-16T13:46:13Z</time><name>PT7906</name></trkpt>
<trkpt lat="53.168998" lon="-3.953733"><ele>872</ele><time>2020-08-16T13:46:14Z</time><name>PT7907</name></trkpt>
<trkpt lat="53.168989" lon="-3.953719"><ele>872</ele><time>2020-08-16T13:46:15Z</time><name>PT7908</name></trkpt>
<trkpt lat="53.168981" lon="-3.953704"><ele>872</ele><time>2020-08-16T13:46:16Z</time><name>PT7909</name></trkpt>
<trkpt lat="53.168976" lon="-3.953694"><ele>872</ele><time>2020-08-16T13:46:17Z</time><name>PT7910</name></trkpt>
<trkpt lat="53.168968" lon="-3.953683"><ele>871</ele><time>2020-08-16T13:46:18Z</time><name>PT7911</name></trkpt>
<trkpt lat="53.168958" lon="-3.953673"><ele>871</ele><time>2020-08-16T13:46:19Z</time><name>PT7912</name></trkpt>
<trkpt lat="53.168947" lon="-3.953663"><ele>871</ele><time>2020-08-16T13:46:20Z</time><name>PT7913</name></trkpt>
<trkpt lat="53.168937" lon="-3.953651"><ele>871</ele><time>2020-08-16T13:46:21Z</time><name>PT7914</name></trkpt>
<trkpt lat="53.168929" lon="-3.953638"><ele>871</ele><time>2020-08-16T13:46:22Z</time><name>PT7915</name></trkpt>
<trkpt lat="53.168920" lon="-3.953626"><ele>871</ele><time>2020-08-16T13:46:23Z</time><name>PT7916</name></trkpt>
<trkpt lat="53.168910" lon="-3.953613"><ele>871</ele><time>2020-08-16T13:46:24Z</time><name>PT7917</name></trkpt>
<trkpt lat="53.168902" lon="-3.953598"><ele>871</ele><time>2020-08-16T13:46:25Z</time><name>PT7918</name></trkpt>
<trkpt lat="53.168896" lon="-3.953580"><ele>870</ele><time>2020-08-16T13:46:26Z</time><name>PT7919</name></trkpt>
<trkpt lat="53.168890" lon="-3.953562"><ele>870</ele><time>2020-08-16T13:46:27Z</time><name>PT7920</name></trkpt>
<trkpt lat="53.168884" lon="-3.953546"><ele>870</ele><time>2020-08-16T13:46:28Z</time><name>PT7921</name></trkpt>
<trkpt lat="53.168879" lon="-3.953530"><ele>870</ele><time>2020-08-16T13:46:29Z</time><name>PT7922</name></trkpt>
<trkpt lat="53.168876" lon="-3.953516"><ele>870</ele><time>2020-08-16T13:46:30Z</time><name>PT7923</name></trkpt>
<trkpt lat="53.168873" lon="-3.953502"><ele>870</ele><time>2020-08-16T13:46:31Z</time><name>PT7924</name></trkpt>
<trkpt lat="53.168870" lon="-3.953483"><ele>870</ele><time>2020-08-16T13:46:32Z</time><name>PT7925</name></trkpt>
<trkpt lat="53.168865" lon="-3.953469"><ele>870</ele><time>2020-08-16T13:46:33Z</time><name>PT7926</name></trkpt>
<trkpt lat="53.168860" lon="-3.953457"><ele>870</ele><time>2020-08-16T13:46:34Z</time><name>PT7927</name></trkpt>
<trkpt lat="53.168852" lon="-3.953443"><ele>869</ele><time>2020-08-16T13:46:35Z</time><name>PT7928</name></trkpt>
<trkpt lat="53.168844" lon="-3.953430"><ele>869</ele><time>2020-08-16T13:46:36Z</time><name>PT7929</name></trkpt>
<trkpt lat="53.168834" lon="-3.953417"><ele>868</ele><time>2020-08-16T13:46:37Z</time><name>PT7930</name></trkpt>
<trkpt lat="53.168828" lon="-3.953401"><ele>868</ele><time>2020-08-16T13:46:38Z</time><name>PT7931</name></trkpt>
<trkpt lat="53.168824" lon="-3.953391"><ele>868</ele><time>2020-08-16T13:46:39Z</time><name>PT7932</name></trkpt>
<trkpt lat="53.168816" lon="-3.953379"><ele>868</ele><time>2020-08-16T13:46:40Z</time><name>PT7933</name></trkpt>
<trkpt lat="53.168807" lon="-3.953365"><ele>868</ele><time>2020-08-16T13:46:41Z</time><name>PT7934</name></trkpt>
<trkpt lat="53.168800" lon="-3.953349"><ele>867</ele><time>2020-08-16T13:46:42Z</time><name>PT7935</name></trkpt>
<trkpt lat="53.168794" lon="-3.953329"><ele>867</ele><time>2020-08-16T13:46:43Z</time><name>PT7936</name></trkpt>
<trkpt lat="53.168788" lon="-3.953312"><ele>867</ele><time>2020-08-16T13:46:44Z</time><name>PT7937</name></trkpt>
<trkpt lat="53.168782" lon="-3.953297"><ele>867</ele><time>2020-08-16T13:46:45Z</time><name>PT7938</name></trkpt>
<trkpt lat="53.168776" lon="-3.953283"><ele>867</ele><time>2020-08-16T13:46:46Z</time><name>PT7939</name></trkpt>
<trkpt lat="53.168771" lon="-3.953265"><ele>867</ele><time>2020-08-16T13:46:47Z</time><name>PT7940</name></trkpt>
<trkpt lat="53.168764" lon="-3.953247"><ele>867</ele><time>2020-08-16T13:46:48Z</time><name>PT7941</name></trkpt>
<trkpt lat="53.168763" lon="-3.953229"><ele>867</ele><time>2020-08-16T13:46:49Z</time><name>PT7942</name></trkpt>
<trkpt lat="53.168759" lon="-3.953215"><ele>867</ele><time>2020-08-16T13:46:50Z</time><name>PT7943</name></trkpt>
<trkpt lat="53.168751" lon="-3.953210"><ele>866</ele><time>2020-08-16T13:46:51Z</time><name>PT7944</name></trkpt>
<trkpt lat="53.168747" lon="-3.953200"><ele>866</ele><time>2020-08-16T13:46:52Z</time><name>PT7945</name></trkpt>
<trkpt lat="53.168745" lon="-3.953190"><ele>866</ele><time>2020-08-16T13:46:53Z</time><name>PT7946</name></trkpt>
<trkpt lat="53.168746" lon="-3.953179"><ele>866</ele><time>2020-08-16T13:46:54Z</time><name>PT7947</name></trkpt>
<trkpt lat="53.168745" lon="-3.953165"><ele>866</ele><time>2020-08-16T13:46:55Z</time><name>PT7948</name></trkpt>
<trkpt lat="53.168742" lon="-3.953148"><ele>865</ele><time>2020-08-16T13:46:56Z</time><name>PT7949</name></trkpt>
<trkpt lat="53.168740" lon="-3.953130"><ele>865</ele><time>2020-08-16T13:46:57Z</time><name>PT7950</name></trkpt>
<trkpt lat="53.168739" lon="-3.953114"><ele>865</ele><time>2020-08-16T13:46:58Z</time><name>PT7951</name></trkpt>
<trkpt lat="53.168736" lon="-3.953092"><ele>866</ele><time>2020-08-16T13:46:59Z</time><name>PT7952</name></trkpt>
<trkpt lat="53.168732" lon="-3.953081"><ele>866</ele><time>2020-08-16T13:47:00Z</time><name>PT7953</name></trkpt>
<trkpt lat="53.168727" lon="-3.953070"><ele>865</ele><time>2020-08-16T13:47:01Z</time><name>PT7954</name></trkpt>
<trkpt lat="53.168722" lon="-3.953057"><ele>865</ele><time>2020-08-16T13:47:02Z</time><name>PT7955</name></trkpt>
<trkpt lat="53.168715" lon="-3.953043"><ele>865</ele><time>2020-08-16T13:47:03Z</time><name>PT7956</name></trkpt>
<trkpt lat="53.168706" lon="-3.953035"><ele>865</ele><time>2020-08-16T13:47:04Z</time><name>PT7957</name></trkpt>
<trkpt lat="53.168697" lon="-3.953026"><ele>864</ele><time>2020-08-16T13:47:05Z</time><name>PT7958</name></trkpt>
<trkpt lat="53.168687" lon="-3.953024"><ele>864</ele><time>2020-08-16T13:47:06Z</time><name>PT7959</name></trkpt>
<trkpt lat="53.168678" lon="-3.953028"><ele>864</ele><time>2020-08-16T13:47:07Z</time><name>PT7960</name></trkpt>
<trkpt lat="53.168670" lon="-3.953030"><ele>864</ele><time>2020-08-16T13:47:08Z</time><name>PT7961</name></trkpt>
<trkpt lat="53.168658" lon="-3.953035"><ele>864</ele><time>2020-08-16T13:47:09Z</time><name>PT7962</name></trkpt>
<trkpt lat="53.168645" lon="-3.953037"><ele>864</ele><time>2020-08-16T13:47:10Z</time><name>PT7963</name></trkpt>
<trkpt lat="53.168634" lon="-3.953043"><ele>864</ele><time>2020-08-16T13:47:11Z</time><name>PT7964</name></trkpt>
<trkpt lat="53.168623" lon="-3.953050"><ele>864</ele><time>2020-08-16T13:47:12Z</time><name>PT7965</name></trkpt>
<trkpt lat="53.168611" lon="-3.953055"><ele>864</ele><time>2020-08-16T13:47:13Z</time><name>PT7966</name></trkpt>
<trkpt lat="53.168600" lon="-3.953057"><ele>863</ele><time>2020-08-16T13:47:14Z</time><name>PT7967</name></trkpt>
<trkpt lat="53.168590" lon="-3.953058"><ele>863</ele><time>2020-08-16T13:47:15Z</time><name>PT7968</name></trkpt>
<trkpt lat="53.168579" lon="-3.953059"><ele>863</ele><time>2020-08-16T13:47:16Z</time><name>PT7969</name></trkpt>
<trkpt lat="53.168570" lon="-3.953057"><ele>863</ele><time>2020-08-16T13:47:17Z</time><name>PT7970</name></trkpt>
<trkpt lat="53.168563" lon="-3.953051"><ele>863</ele><time>2020-08-16T13:47:18Z</time><name>PT7971</name></trkpt>
<trkpt lat="53.168556" lon="-3.953042"><ele>863</ele><time>2020-08-16T13:47:19Z</time><name>PT7972</name></trkpt>
<trkpt lat="53.168548" lon="-3.953033"><ele>862</ele><time>2020-08-16T13:47:20Z</time><name>PT7973</name></trkpt>
<trkpt lat="53.168539" lon="-3.953020"><ele>862</ele><time>2020-08-16T13:47:21Z</time><name>PT7974</name></trkpt>
<trkpt lat="53.168532" lon="-3.953005"><ele>862</ele><time>2020-08-16T13:47:22Z</time><name>PT7975</name></trkpt>
<trkpt lat="53.168524" lon="-3.952989"><ele>862</ele><time>2020-08-16T13:47:23Z</time><name>PT7976</name></trkpt>
<trkpt lat="53.168519" lon="-3.952973"><ele>862</ele><time>2020-08-16T13:47:24Z</time><name>PT7977</name></trkpt>
<trkpt lat="53.168513" lon="-3.952962"><ele>862</ele><time>2020-08-16T13:47:25Z</time><name>PT7978</name></trkpt>
<trkpt lat="53.168505" lon="-3.952950"><ele>862</ele><time>2020-08-16T13:47:26Z</time><name>PT7979</name></trkpt>
<trkpt lat="53.168498" lon="-3.952937"><ele>862</ele><time>2020-08-16T13:47:27Z</time><name>PT7980</name></trkpt>
<trkpt lat="53.168490" lon="-3.952923"><ele>862</ele><time>2020-08-16T13:47:28Z</time><name>PT7981</name></trkpt>
<trkpt lat="53.168485" lon="-3.952913"><ele>862</ele><time>2020-08-16T13:47:29Z</time><name>PT7982</name></trkpt>
<trkpt lat="53.168482" lon="-3.952903"><ele>862</ele><time>2020-08-16T13:47:30Z</time><name>PT7983</name></trkpt>
<trkpt lat="53.168482" lon="-3.952892"><ele>861</ele><time>2020-08-16T13:47:31Z</time><name>PT7984</name></trkpt>
<trkpt lat="53.168485" lon="-3.952875"><ele>861</ele><time>2020-08-16T13:47:32Z</time><name>PT7985</name></trkpt>
<trkpt lat="53.168488" lon="-3.952858"><ele>861</ele><time>2020-08-16T13:47:33Z</time><name>PT7986</name></trkpt>
<trkpt lat="53.168491" lon="-3.952838"><ele>861</ele><time>2020-08-16T13:47:34Z</time><name>PT7987</name></trkpt>
<trkpt lat="53.168495" lon="-3.952822"><ele>861</ele><time>2020-08-16T13:47:35Z</time><name>PT7988</name></trkpt>
<trkpt lat="53.168499" lon="-3.952807"><ele>861</ele><time>2020-08-16T13:47:36Z</time><name>PT7989</name></trkpt>
<trkpt lat="53.168496" lon="-3.952794"><ele>861</ele><time>2020-08-16T13:47:37Z</time><name>PT7990</name></trkpt>
<trkpt lat="53.168489" lon="-3.952786"><ele>861</ele><time>2020-08-16T13:47:38Z</time><name>PT7991</name></trkpt>
<trkpt lat="53.168479" lon="-3.952778"><ele>861</ele><time>2020-08-16T13:47:39Z</time><name>PT7992</name></trkpt>
<trkpt lat="53.168471" lon="-3.952766"><ele>860</ele><time>2020-08-16T13:47:40Z</time><name>PT7993</name></trkpt>
<trkpt lat="53.168466" lon="-3.952753"><ele>860</ele><time>2020-08-16T13:47:41Z</time><name>PT7994</name></trkpt>
<trkpt lat="53.168465" lon="-3.952743"><ele>860</ele><time>2020-08-16T13:47:42Z</time><name>PT7995</name></trkpt>
<trkpt lat="53.168467" lon="-3.952732"><ele>860</ele><time>2020-08-16T13:47:43Z</time><name>PT7996</name></trkpt>
<trkpt lat="53.168475" lon="-3.952721"><ele>860</ele><time>2020-08-16T13:47:44Z</time><name>PT7997</name></trkpt>
<trkpt lat="53.168481" lon="-3.952711"><ele>860</ele><time>2020-08-16T13:47:45Z</time><name>PT7998</name></trkpt>
<trkpt lat="53.168486" lon="-3.952702"><ele>861</ele><time>2020-08-16T13:47:46Z</time><name>PT7999</name></trkpt>
<trkpt lat="53.168489" lon="-3.952696"><ele>860</ele><time>2020-08-16T13:47:47Z</time><name>PT8000</name></trkpt>
<trkpt lat="53.168493" lon="-3.952688"><ele>860</ele><time>2020-08-16T13:47:48Z</time><name>PT8001</name></trkpt>
<trkpt lat="53.168493" lon="-3.952684"><ele>860</ele><time>2020-08-16T13:47:49Z</time><name>PT8002</name></trkpt>
<trkpt lat="53.168493" lon="-3.952687"><ele>860</ele><time>2020-08-16T13:47:50Z</time><name>PT8003</name></trkpt>
<trkpt lat="53.168495" lon="-3.952685"><ele>860</ele><time>2020-08-16T13:47:51Z</time><name>PT8004</name></trkpt>
<trkpt lat="53.168495" lon="-3.952682"><ele>860</ele><time>2020-08-16T13:47:52Z</time><name>PT8005</name></trkpt>
<trkpt lat="53.168496" lon="-3.952677"><ele>861</ele><time>2020-08-16T13:47:53Z</time><name>PT8006</name></trkpt>
<trkpt lat="53.168499" lon="-3.952675"><ele>861</ele><time>2020-08-16T13:47:54Z</time><name>PT8007</name></trkpt>
<trkpt lat="53.168505" lon="-3.952671"><ele>860</ele><time>2020-08-16T13:47:55Z</time><name>PT8008</name></trkpt>
<trkpt lat="53.168512" lon="-3.952662"><ele>860</ele><time>2020-08-16T13:47:56Z</time><name>PT8009</name></trkpt>
<trkpt lat="53.168518" lon="-3.952653"><ele>860</ele><time>2020-08-16T13:47:57Z</time><name>PT8010</name></trkpt>
<trkpt lat="53.168520" lon="-3.952646"><ele>860</ele><time>2020-08-16T13:47:58Z</time><name>PT8011</name></trkpt>
<trkpt lat="53.168523" lon="-3.952641"><ele>860</ele><time>2020-08-16T13:47:59Z</time><name>PT8012</name></trkpt>
<trkpt lat="53.168527" lon="-3.952635"><ele>860</ele><time>2020-08-16T13:48:00Z</time><name>PT8013</name></trkpt>
<trkpt lat="53.168527" lon="-3.952627"><ele>860</ele><time>2020-08-16T13:48:01Z</time><name>PT8014</name></trkpt>
<trkpt lat="53.168530" lon="-3.952619"><ele>860</ele><time>2020-08-16T13:48:02Z</time><name>PT8015</name></trkpt>
<trkpt lat="53.168535" lon="-3.952604"><ele>860</ele><time>2020-08-16T13:48:03Z</time><name>PT8016</name></trkpt>
<trkpt lat="53.168537" lon="-3.952590"><ele>859</ele><time>2020-08-16T13:48:04Z</time><name>PT8017</name></trkpt>
<trkpt lat="53.168543" lon="-3.952574"><ele>859</ele><time>2020-08-16T13:48:05Z</time><name>PT8018</name></trkpt>
<trkpt lat="53.168549" lon="-3.952557"><ele>860</ele><time>2020-08-16T13:48:06Z</time><name>PT8019</name></trkpt>
<trkpt lat="53.168556" lon="-3.952540"><ele>860</ele><time>2020-08-16T13:48:07Z</time><name>PT8020</name></trkpt>
<trkpt lat="53.168563" lon="-3.952521"><ele>859</ele><time>2020-08-16T13:48:08Z</time><name>PT8021</name></trkpt>
<trkpt lat="53.168569" lon="-3.952504"><ele>859</ele><time>2020-08-16T13:48:09Z</time><name>PT8022</name></trkpt>
<trkpt lat="53.168575" lon="-3.952484"><ele>859</ele><time>2020-08-16T13:48:10Z</time><name>PT8023</name></trkpt>
<trkpt lat="53.168580" lon="-3.952466"><ele>859</ele><time>2020-08-16T13:48:11Z</time><name>PT8024</name></trkpt>
<trkpt lat="53.168584" lon="-3.952444"><ele>860</ele><time>2020-08-16T13:48:12Z</time><name>PT8025</name></trkpt>
<trkpt lat="53.168587" lon="-3.952423"><ele>860</ele><time>2020-08-16T13:48:13Z</time><name>PT8026</name></trkpt>
<trkpt lat="53.168589" lon="-3.952406"><ele>860</ele><time>2020-08-16T13:48:14Z</time><name>PT8027</name></trkpt>
<trkpt lat="53.168586" lon="-3.952396"><ele>860</ele><time>2020-08-16T13:48:15Z</time><name>PT8028</name></trkpt>
<trkpt lat="53.168586" lon="-3.952386"><ele>860</ele><time>2020-08-16T13:48:16Z</time><name>PT8029</name></trkpt>
<trkpt lat="53.168587" lon="-3.952373"><ele>859</ele><time>2020-08-16T13:48:17Z</time><name>PT8030</name></trkpt>
<trkpt lat="53.168587" lon="-3.952359"><ele>859</ele><time>2020-08-16T13:48:18Z</time><name>PT8031</name></trkpt>
<trkpt lat="53.168583" lon="-3.952345"><ele>859</ele><time>2020-08-16T13:48:19Z</time><name>PT8032</name></trkpt>
<trkpt lat="53.168587" lon="-3.952331"><ele>859</ele><time>2020-08-16T13:48:20Z</time><name>PT8033</name></trkpt>
<trkpt lat="53.168588" lon="-3.952318"><ele>859</ele><time>2020-08-16T13:48:21Z</time><name>PT8034</name></trkpt>
<trkpt lat="53.168583" lon="-3.952305"><ele>859</ele><time>2020-08-16T13:48:22Z</time><name>PT8035</name></trkpt>
<trkpt lat="53.168572" lon="-3.952316"><ele>858</ele><time>2020-08-16T13:48:23Z</time><name>PT8036</name></trkpt>
<trkpt lat="53.168565" lon="-3.952307"><ele>858</ele><time>2020-08-16T13:48:24Z</time><name>PT8037</name></trkpt>
<trkpt lat="53.168561" lon="-3.952290"><ele>858</ele><time>2020-08-16T13:48:25Z</time><name>PT8038</name></trkpt>
<trkpt lat="53.168551" lon="-3.952277"><ele>857</ele><time>2020-08-16T13:48:26Z</time><name>PT8039</name></trkpt>
<trkpt lat="53.168548" lon="-3.952260"><ele>857</ele><time>2020-08-16T13:48:27Z</time><name>PT8040</name></trkpt>
<trkpt lat="53.168540" lon="-3.952247"><ele>857</ele><time>2020-08-16T13:48:28Z</time><name>PT8041</name></trkpt>
<trkpt lat="53.168533" lon="-3.952235"><ele>857</ele><time>2020-08-16T13:48:29Z</time><name>PT8042</name></trkpt>
<trkpt lat="53.168527" lon="-3.952227"><ele>857</ele><time>2020-08-16T13:48:30Z</time><name>PT8043</name></trkpt>
<trkpt lat="53.168519" lon="-3.952221"><ele>857</ele><time>2020-08-16T13:48:31Z</time><name>PT8044</name></trkpt>
<trkpt lat="53.168511" lon="-3.952216"><ele>856</ele><time>2020-08-16T13:48:32Z</time><name>PT8045</name></trkpt>
<trkpt lat="53.168502" lon="-3.952211"><ele>856</ele><time>2020-08-16T13:48:33Z</time><name>PT8046</name></trkpt>
<trkpt lat="53.168498" lon="-3.952203"><ele>857</ele><time>2020-08-16T13:48:34Z</time><name>PT8047</name></trkpt>
<trkpt lat="53.168493" lon="-3.952203"><ele>857</ele><time>2020-08-16T13:48:35Z</time><name>PT8048</name></trkpt>
<trkpt lat="53.168485" lon="-3.952198"><ele>857</ele><time>2020-08-16T13:48:36Z</time><name>PT8049</name></trkpt>
<trkpt lat="53.168475" lon="-3.952196"><ele>856</ele><time>2020-08-16T13:48:37Z</time><name>PT8050</name></trkpt>
<trkpt lat="53.168465" lon="-3.952194"><ele>856</ele><time>2020-08-16T13:48:38Z</time><name>PT8051</name></trkpt>
<trkpt lat="53.168453" lon="-3.952186"><ele>856</ele><time>2020-08-16T13:48:39Z</time><name>PT8052</name></trkpt>
<trkpt lat="53.168442" lon="-3.952176"><ele>856</ele><time>2020-08-16T13:48:40Z</time><name>PT8053</name></trkpt>
<trkpt lat="53.168433" lon="-3.952164"><ele>856</ele><time>2020-08-16T13:48:41Z</time><name>PT8054</name></trkpt>
<trkpt lat="53.168424" lon="-3.952152"><ele>856</ele><time>2020-08-16T13:48:42Z</time><name>PT8055</name></trkpt>
<trkpt lat="53.168415" lon="-3.952137"><ele>856</ele><time>2020-08-16T13:48:43Z</time><name>PT8056</name></trkpt>
<trkpt lat="53.168408" lon="-3.952121"><ele>856</ele><time>2020-08-16T13:48:44Z</time><name>PT8057</name></trkpt>
<trkpt lat="53.168401" lon="-3.952110"><ele>856</ele><time>2020-08-16T13:48:45Z</time><name>PT8058</name></trkpt>
<trkpt lat="53.168371" lon="-3.952074"><ele>856</ele><time>2020-08-16T13:48:48Z</time><name>PT8059</name></trkpt>
<trkpt lat="53.168344" lon="-3.952020"><ele>855</ele><time>2020-08-16T13:48:52Z</time><name>PT8060</name></trkpt>
<trkpt lat="53.168322" lon="-3.951984"><ele>855</ele><time>2020-08-16T13:48:55Z</time><name>PT8061</name></trkpt>
<trkpt lat="53.168315" lon="-3.951974"><ele>855</ele><time>2020-08-16T13:48:56Z</time><name>PT8062</name></trkpt>
<trkpt lat="53.168309" lon="-3.951962"><ele>855</ele><time>2020-08-16T13:48:57Z</time><name>PT8063</name></trkpt>
<trkpt lat="53.168301" lon="-3.951951"><ele>855</ele><time>2020-08-16T13:48:58Z</time><name>PT8064</name></trkpt>
<trkpt lat="53.168293" lon="-3.951953"><ele>855</ele><time>2020-08-16T13:48:59Z</time><name>PT8065</name></trkpt>
<trkpt lat="53.168288" lon="-3.951950"><ele>855</ele><time>2020-08-16T13:49:00Z</time><name>PT8066</name></trkpt>
<trkpt lat="53.168285" lon="-3.951954"><ele>855</ele><time>2020-08-16T13:49:01Z</time><name>PT8067</name></trkpt>
<trkpt lat="53.168277" lon="-3.951946"><ele>855</ele><time>2020-08-16T13:49:02Z</time><name>PT8068</name></trkpt>
<trkpt lat="53.168267" lon="-3.951940"><ele>855</ele><time>2020-08-16T13:49:03Z</time><name>PT8069</name></trkpt>
<trkpt lat="53.168258" lon="-3.951932"><ele>854</ele><time>2020-08-16T13:49:04Z</time><name>PT8070</name></trkpt>
<trkpt lat="53.168249" lon="-3.951925"><ele>854</ele><time>2020-08-16T13:49:05Z</time><name>PT8071</name></trkpt>
<trkpt lat="53.168239" lon="-3.951919"><ele>854</ele><time>2020-08-16T13:49:06Z</time><name>PT8072</name></trkpt>
<trkpt lat="53.168227" lon="-3.951915"><ele>854</ele><time>2020-08-16T13:49:07Z</time><name>PT8073</name></trkpt>
<trkpt lat="53.168216" lon="-3.951915"><ele>854</ele><time>2020-08-16T13:49:08Z</time><name>PT8074</name></trkpt>
<trkpt lat="53.168204" lon="-3.951915"><ele>854</ele><time>2020-08-16T13:49:09Z</time><name>PT8075</name></trkpt>
<trkpt lat="53.168193" lon="-3.951915"><ele>854</ele><time>2020-08-16T13:49:10Z</time><name>PT8076</name></trkpt>
<trkpt lat="53.168182" lon="-3.951918"><ele>854</ele><time>2020-08-16T13:49:11Z</time><name>PT8077</name></trkpt>
<trkpt lat="53.168170" lon="-3.951922"><ele>854</ele><time>2020-08-16T13:49:12Z</time><name>PT8078</name></trkpt>
<trkpt lat="53.168160" lon="-3.951923"><ele>853</ele><time>2020-08-16T13:49:13Z</time><name>PT8079</name></trkpt>
<trkpt lat="53.168150" lon="-3.951920"><ele>853</ele><time>2020-08-16T13:49:14Z</time><name>PT8080</name></trkpt>
<trkpt lat="53.168137" lon="-3.951918"><ele>853</ele><time>2020-08-16T13:49:15Z</time><name>PT8081</name></trkpt>
<trkpt lat="53.168123" lon="-3.951917"><ele>853</ele><time>2020-08-16T13:49:16Z</time><name>PT8082</name></trkpt>
<trkpt lat="53.168112" lon="-3.951912"><ele>853</ele><time>2020-08-16T13:49:17Z</time><name>PT8083</name></trkpt>
<trkpt lat="53.168104" lon="-3.951903"><ele>853</ele><time>2020-08-16T13:49:18Z</time><name>PT8084</name></trkpt>
<trkpt lat="53.168096" lon="-3.951889"><ele>852</ele><time>2020-08-16T13:49:19Z</time><name>PT8085</name></trkpt>
<trkpt lat="53.168086" lon="-3.951866"><ele>852</ele><time>2020-08-16T13:49:20Z</time><name>PT8086</name></trkpt>
<trkpt lat="53.168075" lon="-3.951845"><ele>852</ele><time>2020-08-16T13:49:21Z</time><name>PT8087</name></trkpt>
<trkpt lat="53.168064" lon="-3.951827"><ele>851</ele><time>2020-08-16T13:49:22Z</time><name>PT8088</name></trkpt>
<trkpt lat="53.168057" lon="-3.951806"><ele>851</ele><time>2020-08-16T13:49:23Z</time><name>PT8089</name></trkpt>
<trkpt lat="53.168056" lon="-3.951784"><ele>851</ele><time>2020-08-16T13:49:24Z</time><name>PT8090</name></trkpt>
<trkpt lat="53.168049" lon="-3.951770"><ele>851</ele><time>2020-08-16T13:49:25Z</time><name>PT8091</name></trkpt>
<trkpt lat="53.168041" lon="-3.951753"><ele>851</ele><time>2020-08-16T13:49:26Z</time><name>PT8092</name></trkpt>
<trkpt lat="53.168034" lon="-3.951733"><ele>851</ele><time>2020-08-16T13:49:27Z</time><name>PT8093</name></trkpt>
<trkpt lat="53.168030" lon="-3.951712"><ele>851</ele><time>2020-08-16T13:49:28Z</time><name>PT8094</name></trkpt>
<trkpt lat="53.168028" lon="-3.951692"><ele>851</ele><time>2020-08-16T13:49:29Z</time><name>PT8095</name></trkpt>
<trkpt lat="53.168026" lon="-3.951672"><ele>851</ele><time>2020-08-16T13:49:31Z</time><name>PT8096</name></trkpt>
<trkpt lat="53.168023" lon="-3.951651"><ele>850</ele><time>2020-08-16T13:49:31Z</time><name>PT8097</name></trkpt>
<trkpt lat="53.168020" lon="-3.951630"><ele>851</ele><time>2020-08-16T13:49:32Z</time><name>PT8098</name></trkpt>
<trkpt lat="53.168018" lon="-3.951607"><ele>851</ele><time>2020-08-16T13:49:33Z</time><name>PT8099</name></trkpt>
<trkpt lat="53.168017" lon="-3.951589"><ele>851</ele><time>2020-08-16T13:49:34Z</time><name>PT8100</name></trkpt>
<trkpt lat="53.168016" lon="-3.951572"><ele>851</ele><time>2020-08-16T13:49:35Z</time><name>PT8101</name></trkpt>
<trkpt lat="53.168015" lon="-3.951551"><ele>851</ele><time>2020-08-16T13:49:36Z</time><name>PT8102</name></trkpt>
<trkpt lat="53.168013" lon="-3.951531"><ele>850</ele><time>2020-08-16T13:49:37Z</time><name>PT8103</name></trkpt>
<trkpt lat="53.168009" lon="-3.951511"><ele>850</ele><time>2020-08-16T13:49:38Z</time><name>PT8104</name></trkpt>
<trkpt lat="53.168006" lon="-3.951494"><ele>850</ele><time>2020-08-16T13:49:39Z</time><name>PT8105</name></trkpt>
<trkpt lat="53.168003" lon="-3.951476"><ele>850</ele><time>2020-08-16T13:49:40Z</time><name>PT8106</name></trkpt>
<trkpt lat="53.167998" lon="-3.951462"><ele>850</ele><time>2020-08-16T13:49:41Z</time><name>PT8107</name></trkpt>
<trkpt lat="53.167992" lon="-3.951446"><ele>850</ele><time>2020-08-16T13:49:42Z</time><name>PT8108</name></trkpt>
<trkpt lat="53.167988" lon="-3.951429"><ele>850</ele><time>2020-08-16T13:49:43Z</time><name>PT8109</name></trkpt>
<trkpt lat="53.167984" lon="-3.951415"><ele>850</ele><time>2020-08-16T13:49:44Z</time><name>PT8110</name></trkpt>
<trkpt lat="53.167977" lon="-3.951401"><ele>850</ele><time>2020-08-16T13:49:45Z</time><name>PT8111</name></trkpt>
<trkpt lat="53.167971" lon="-3.951383"><ele>849</ele><time>2020-08-16T13:49:46Z</time><name>PT8112</name></trkpt>
<trkpt lat="53.167965" lon="-3.951366"><ele>849</ele><time>2020-08-16T13:49:47Z</time><name>PT8113</name></trkpt>
<trkpt lat="53.167959" lon="-3.951346"><ele>849</ele><time>2020-08-16T13:49:48Z</time><name>PT8114</name></trkpt>
<trkpt lat="53.167955" lon="-3.951328"><ele>849</ele><time>2020-08-16T13:49:49Z</time><name>PT8115</name></trkpt>
<trkpt lat="53.167951" lon="-3.951309"><ele>849</ele><time>2020-08-16T13:49:50Z</time><name>PT8116</name></trkpt>
<trkpt lat="53.167947" lon="-3.951290"><ele>849</ele><time>2020-08-16T13:49:51Z</time><name>PT8117</name></trkpt>
<trkpt lat="53.167945" lon="-3.951269"><ele>848</ele><time>2020-08-16T13:49:52Z</time><name>PT8118</name></trkpt>
<trkpt lat="53.167943" lon="-3.951246"><ele>848</ele><time>2020-08-16T13:49:53Z</time><name>PT8119</name></trkpt>
<trkpt lat="53.167939" lon="-3.951227"><ele>848</ele><time>2020-08-16T13:49:54Z</time><name>PT8120</name></trkpt>
<trkpt lat="53.167934" lon="-3.951209"><ele>848</ele><time>2020-08-16T13:49:55Z</time><name>PT8121</name></trkpt>
<trkpt lat="53.167928" lon="-3.951191"><ele>848</ele><time>2020-08-16T13:49:56Z</time><name>PT8122</name></trkpt>
<trkpt lat="53.167922" lon="-3.951172"><ele>848</ele><time>2020-08-16T13:49:57Z</time><name>PT8123</name></trkpt>
<trkpt lat="53.167916" lon="-3.951155"><ele>848</ele><time>2020-08-16T13:49:58Z</time><name>PT8124</name></trkpt>
<trkpt lat="53.167911" lon="-3.951139"><ele>848</ele><time>2020-08-16T13:49:59Z</time><name>PT8125</name></trkpt>
<trkpt lat="53.167906" lon="-3.951120"><ele>848</ele><time>2020-08-16T13:50:00Z</time><name>PT8126</name></trkpt>
<trkpt lat="53.167900" lon="-3.951105"><ele>848</ele><time>2020-08-16T13:50:01Z</time><name>PT8127</name></trkpt>
<trkpt lat="53.167892" lon="-3.951086"><ele>847</ele><time>2020-08-16T13:50:02Z</time><name>PT8128</name></trkpt>
<trkpt lat="53.167886" lon="-3.951069"><ele>847</ele><time>2020-08-16T13:50:03Z</time><name>PT8129</name></trkpt>
<trkpt lat="53.167881" lon="-3.951052"><ele>848</ele><time>2020-08-16T13:50:04Z</time><name>PT8130</name></trkpt>
<trkpt lat="53.167875" lon="-3.951035"><ele>848</ele><time>2020-08-16T13:50:05Z</time><name>PT8131</name></trkpt>
<trkpt lat="53.167869" lon="-3.951016"><ele>848</ele><time>2020-08-16T13:50:06Z</time><name>PT8132</name></trkpt>
<trkpt lat="53.167866" lon="-3.951000"><ele>848</ele><time>2020-08-16T13:50:07Z</time><name>PT8133</name></trkpt>
<trkpt lat="53.167862" lon="-3.950987"><ele>847</ele><time>2020-08-16T13:50:08Z</time><name>PT8134</name></trkpt>
<trkpt lat="53.167860" lon="-3.950970"><ele>847</ele><time>2020-08-16T13:50:09Z</time><name>PT8135</name></trkpt>
<trkpt lat="53.167860" lon="-3.950953"><ele>848</ele><time>2020-08-16T13:50:10Z</time><name>PT8136</name></trkpt>
<trkpt lat="53.167861" lon="-3.950934"><ele>847</ele><time>2020-08-16T13:50:11Z</time><name>PT8137</name></trkpt>
<trkpt lat="53.167861" lon="-3.950912"><ele>847</ele><time>2020-08-16T13:50:12Z</time><name>PT8138</name></trkpt>
<trkpt lat="53.167863" lon="-3.950891"><ele>847</ele><time>2020-08-16T13:50:13Z</time><name>PT8139</name></trkpt>
<trkpt lat="53.167862" lon="-3.950869"><ele>847</ele><time>2020-08-16T13:50:14Z</time><name>PT8140</name></trkpt>
<trkpt lat="53.167859" lon="-3.950849"><ele>847</ele><time>2020-08-16T13:50:15Z</time><name>PT8141</name></trkpt>
<trkpt lat="53.167858" lon="-3.950830"><ele>847</ele><time>2020-08-16T13:50:16Z</time><name>PT8142</name></trkpt>
<trkpt lat="53.167854" lon="-3.950805"><ele>847</ele><time>2020-08-16T13:50:17Z</time><name>PT8143</name></trkpt>
<trkpt lat="53.167852" lon="-3.950786"><ele>846</ele><time>2020-08-16T13:50:18Z</time><name>PT8144</name></trkpt>
<trkpt lat="53.167850" lon="-3.950766"><ele>846</ele><time>2020-08-16T13:50:19Z</time><name>PT8145</name></trkpt>
<trkpt lat="53.167849" lon="-3.950748"><ele>846</ele><time>2020-08-16T13:50:20Z</time><name>PT8146</name></trkpt>
<trkpt lat="53.167848" lon="-3.950726"><ele>846</ele><time>2020-08-16T13:50:21Z</time><name>PT8147</name></trkpt>
<trkpt lat="53.167847" lon="-3.950700"><ele>846</ele><time>2020-08-16T13:50:22Z</time><name>PT8148</name></trkpt>
<trkpt lat="53.167844" lon="-3.950677"><ele>846</ele><time>2020-08-16T13:50:23Z</time><name>PT8149</name></trkpt>
<trkpt lat="53.167843" lon="-3.950659"><ele>846</ele><time>2020-08-16T13:50:24Z</time><name>PT8150</name></trkpt>
<trkpt lat="53.167841" lon="-3.950643"><ele>846</ele><time>2020-08-16T13:50:25Z</time><name>PT8151</name></trkpt>
<trkpt lat="53.167841" lon="-3.950629"><ele>846</ele><time>2020-08-16T13:50:26Z</time><name>PT8152</name></trkpt>
<trkpt lat="53.167842" lon="-3.950622"><ele>846</ele><time>2020-08-16T13:50:27Z</time><name>PT8153</name></trkpt>
<trkpt lat="53.167844" lon="-3.950610"><ele>846</ele><time>2020-08-16T13:50:28Z</time><name>PT8154</name></trkpt>
<trkpt lat="53.167844" lon="-3.950609"><ele>846</ele><time>2020-08-16T13:50:29Z</time><name>PT8155</name></trkpt>
<trkpt lat="53.167844" lon="-3.950607"><ele>846</ele><time>2020-08-16T13:50:30Z</time><name>PT8156</name></trkpt>
<trkpt lat="53.167845" lon="-3.950606"><ele>846</ele><time>2020-08-16T13:50:31Z</time><name>PT8157</name></trkpt>
<trkpt lat="53.167845" lon="-3.950606"><ele>846</ele><time>2020-08-16T13:50:32Z</time><name>PT8158</name></trkpt>
<trkpt lat="53.167843" lon="-3.950594"><ele>846</ele><time>2020-08-16T13:50:33Z</time><name>PT8159</name></trkpt>
<trkpt lat="53.167841" lon="-3.950575"><ele>846</ele><time>2020-08-16T13:50:34Z</time><name>PT8160</name></trkpt>
<trkpt lat="53.167840" lon="-3.950556"><ele>846</ele><time>2020-08-16T13:50:35Z</time><name>PT8161</name></trkpt>
<trkpt lat="53.167842" lon="-3.950535"><ele>846</ele><time>2020-08-16T13:50:36Z</time><name>PT8162</name></trkpt>
<trkpt lat="53.167844" lon="-3.950514"><ele>846</ele><time>2020-08-16T13:50:37Z</time><name>PT8163</name></trkpt>
<trkpt lat="53.167845" lon="-3.950495"><ele>846</ele><time>2020-08-16T13:50:38Z</time><name>PT8164</name></trkpt>
<trkpt lat="53.167843" lon="-3.950477"><ele>846</ele><time>2020-08-16T13:50:39Z</time><name>PT8165</name></trkpt>
<trkpt lat="53.167843" lon="-3.950454"><ele>846</ele><time>2020-08-16T13:50:40Z</time><name>PT8166</name></trkpt>
<trkpt lat="53.167844" lon="-3.950433"><ele>845</ele><time>2020-08-16T13:50:41Z</time><name>PT8167</name></trkpt>
<trkpt lat="53.167849" lon="-3.950412"><ele>846</ele><time>2020-08-16T13:50:42Z</time><name>PT8168</name></trkpt>
<trkpt lat="53.167855" lon="-3.950391"><ele>845</ele><time>2020-08-16T13:50:43Z</time><name>PT8169</name></trkpt>
<trkpt lat="53.167848" lon="-3.950391"><ele>846</ele><time>2020-08-16T13:50:45Z</time><name>PT8170</name></trkpt>
<trkpt lat="53.167848" lon="-3.950387"><ele>846</ele><time>2020-08-16T13:50:45Z</time><name>PT8171</name></trkpt>
<trkpt lat="53.167848" lon="-3.950389"><ele>846</ele><time>2020-08-16T13:50:46Z</time><name>PT8172</name></trkpt>
<trkpt lat="53.167846" lon="-3.950388"><ele>846</ele><time>2020-08-16T13:50:47Z</time><name>PT8173</name></trkpt>
<trkpt lat="53.167852" lon="-3.950372"><ele>846</ele><time>2020-08-16T13:50:48Z</time><name>PT8174</name></trkpt>
<trkpt lat="53.167861" lon="-3.950359"><ele>846</ele><time>2020-08-16T13:50:49Z</time><name>PT8175</name></trkpt>
<trkpt lat="53.167862" lon="-3.950335"><ele>845</ele><time>2020-08-16T13:50:50Z</time><name>PT8176</name></trkpt>
<trkpt lat="53.167863" lon="-3.950312"><ele>845</ele><time>2020-08-16T13:50:51Z</time><name>PT8177</name></trkpt>
<trkpt lat="53.167868" lon="-3.950297"><ele>845</ele><time>2020-08-16T13:50:52Z</time><name>PT8178</name></trkpt>
<trkpt lat="53.167874" lon="-3.950291"><ele>845</ele><time>2020-08-16T13:50:54Z</time><name>PT8179</name></trkpt>
<trkpt lat="53.167877" lon="-3.950278"><ele>845</ele><time>2020-08-16T13:50:54Z</time><name>PT8180</name></trkpt>
<trkpt lat="53.167881" lon="-3.950262"><ele>845</ele><time>2020-08-16T13:50:55Z</time><name>PT8181</name></trkpt>
<trkpt lat="53.167883" lon="-3.950247"><ele>845</ele><time>2020-08-16T13:50:56Z</time><name>PT8182</name></trkpt>
<trkpt lat="53.167889" lon="-3.950228"><ele>845</ele><time>2020-08-16T13:50:57Z</time><name>PT8183</name></trkpt>
<trkpt lat="53.167890" lon="-3.950213"><ele>845</ele><time>2020-08-16T13:50:58Z</time><name>PT8184</name></trkpt>
<trkpt lat="53.167890" lon="-3.950197"><ele>845</ele><time>2020-08-16T13:50:59Z</time><name>PT8185</name></trkpt>
<trkpt lat="53.167892" lon="-3.950180"><ele>845</ele><time>2020-08-16T13:51:00Z</time><name>PT8186</name></trkpt>
<trkpt lat="53.167892" lon="-3.950165"><ele>845</ele><time>2020-08-16T13:51:01Z</time><name>PT8187</name></trkpt>
<trkpt lat="53.167892" lon="-3.950149"><ele>845</ele><time>2020-08-16T13:51:02Z</time><name>PT8188</name></trkpt>
<trkpt lat="53.167891" lon="-3.950132"><ele>845</ele><time>2020-08-16T13:51:03Z</time><name>PT8189</name></trkpt>
<trkpt lat="53.167893" lon="-3.950115"><ele>845</ele><time>2020-08-16T13:51:04Z</time><name>PT8190</name></trkpt>
<trkpt lat="53.167894" lon="-3.950101"><ele>845</ele><time>2020-08-16T13:51:05Z</time><name>PT8191</name></trkpt>
<trkpt lat="53.167893" lon="-3.950084"><ele>845</ele><time>2020-08-16T13:51:06Z</time><name>PT8192</name></trkpt>
<trkpt lat="53.167887" lon="-3.950071"><ele>844</ele><time>2020-08-16T13:51:07Z</time><name>PT8193</name></trkpt>
<trkpt lat="53.167882" lon="-3.950053"><ele>844</ele><time>2020-08-16T13:51:08Z</time><name>PT8194</name></trkpt>
<trkpt lat="53.167878" lon="-3.950033"><ele>844</ele><time>2020-08-16T13:51:09Z</time><name>PT8195</name></trkpt>
<trkpt lat="53.167874" lon="-3.950019"><ele>843</ele><time>2020-08-16T13:51:10Z</time><name>PT8196</name></trkpt>
<trkpt lat="53.167871" lon="-3.950002"><ele>843</ele><time>2020-08-16T13:51:11Z</time><name>PT8197</name></trkpt>
<trkpt lat="53.167872" lon="-3.949990"><ele>843</ele><time>2020-08-16T13:51:12Z</time><name>PT8198</name></trkpt>
<trkpt lat="53.167871" lon="-3.949975"><ele>842</ele><time>2020-08-16T13:51:13Z</time><name>PT8199</name></trkpt>
<trkpt lat="53.167868" lon="-3.949956"><ele>842</ele><time>2020-08-16T13:51:14Z</time><name>PT8200</name></trkpt>
<trkpt lat="53.167868" lon="-3.949942"><ele>842</ele><time>2020-08-16T13:51:15Z</time><name>PT8201</name></trkpt>
<trkpt lat="53.167869" lon="-3.949930"><ele>841</ele><time>2020-08-16T13:51:16Z</time><name>PT8202</name></trkpt>
<trkpt lat="53.167868" lon="-3.949919"><ele>841</ele><time>2020-08-16T13:51:17Z</time><name>PT8203</name></trkpt>
<trkpt lat="53.167865" lon="-3.949907"><ele>841</ele><time>2020-08-16T13:51:18Z</time><name>PT8204</name></trkpt>
<trkpt lat="53.167863" lon="-3.949892"><ele>841</ele><time>2020-08-16T13:51:19Z</time><name>PT8205</name></trkpt>
<trkpt lat="53.167861" lon="-3.949879"><ele>841</ele><time>2020-08-16T13:51:20Z</time><name>PT8206</name></trkpt>
<trkpt lat="53.167858" lon="-3.949864"><ele>841</ele><time>2020-08-16T13:51:21Z</time><name>PT8207</name></trkpt>
<trkpt lat="53.167853" lon="-3.949846"><ele>840</ele><time>2020-08-16T13:51:22Z</time><name>PT8208</name></trkpt>
<trkpt lat="53.167846" lon="-3.949842"><ele>840</ele><time>2020-08-16T13:51:23Z</time><name>PT8209</name></trkpt>
<trkpt lat="53.167839" lon="-3.949831"><ele>840</ele><time>2020-08-16T13:51:24Z</time><name>PT8210</name></trkpt>
<trkpt lat="53.167834" lon="-3.949818"><ele>840</ele><time>2020-08-16T13:51:25Z</time><name>PT8211</name></trkpt>
<trkpt lat="53.167829" lon="-3.949806"><ele>839</ele><time>2020-08-16T13:51:26Z</time><name>PT8212</name></trkpt>
<trkpt lat="53.167823" lon="-3.949792"><ele>839</ele><time>2020-08-16T13:51:27Z</time><name>PT8213</name></trkpt>
<trkpt lat="53.167819" lon="-3.949780"><ele>839</ele><time>2020-08-16T13:51:28Z</time><name>PT8214</name></trkpt>
<trkpt lat="53.167819" lon="-3.949775"><ele>839</ele><time>2020-08-16T13:51:29Z</time><name>PT8215</name></trkpt>
<trkpt lat="53.167816" lon="-3.949763"><ele>838</ele><time>2020-08-16T13:51:30Z</time><name>PT8216</name></trkpt>
<trkpt lat="53.167814" lon="-3.949752"><ele>838</ele><time>2020-08-16T13:51:31Z</time><name>PT8217</name></trkpt>
<trkpt lat="53.167815" lon="-3.949739"><ele>838</ele><time>2020-08-16T13:51:32Z</time><name>PT8218</name></trkpt>
<trkpt lat="53.167814" lon="-3.949725"><ele>838</ele><time>2020-08-16T13:51:33Z</time><name>PT8219</name></trkpt>
<trkpt lat="53.167811" lon="-3.949714"><ele>837</ele><time>2020-08-16T13:51:34Z</time><name>PT8220</name></trkpt>
<trkpt lat="53.167808" lon="-3.949703"><ele>837</ele><time>2020-08-16T13:51:35Z</time><name>PT8221</name></trkpt>
<trkpt lat="53.167805" lon="-3.949693"><ele>837</ele><time>2020-08-16T13:51:36Z</time><name>PT8222</name></trkpt>
<trkpt lat="53.167803" lon="-3.949681"><ele>836</ele><time>2020-08-16T13:51:37Z</time><name>PT8223</name></trkpt>
<trkpt lat="53.167801" lon="-3.949669"><ele>836</ele><time>2020-08-16T13:51:38Z</time><name>PT8224</name></trkpt>
<trkpt lat="53.167800" lon="-3.949659"><ele>836</ele><time>2020-08-16T13:51:39Z</time><name>PT8225</name></trkpt>
<trkpt lat="53.167799" lon="-3.949655"><ele>836</ele><time>2020-08-16T13:51:40Z</time><name>PT8226</name></trkpt>
<trkpt lat="53.167800" lon="-3.949647"><ele>836</ele><time>2020-08-16T13:51:41Z</time><name>PT8227</name></trkpt>
<trkpt lat="53.167799" lon="-3.949637"><ele>835</ele><time>2020-08-16T13:51:42Z</time><name>PT8228</name></trkpt>
<trkpt lat="53.167795" lon="-3.949624"><ele>835</ele><time>2020-08-16T13:51:43Z</time><name>PT8229</name></trkpt>
<trkpt lat="53.167788" lon="-3.949619"><ele>834</ele><time>2020-08-16T13:51:44Z</time><name>PT8230</name></trkpt>
<trkpt lat="53.167783" lon="-3.949610"><ele>834</ele><time>2020-08-16T13:51:45Z</time><name>PT8231</name></trkpt>
<trkpt lat="53.167777" lon="-3.949604"><ele>834</ele><time>2020-08-16T13:51:46Z</time><name>PT8232</name></trkpt>
<trkpt lat="53.167774" lon="-3.949593"><ele>833</ele><time>2020-08-16T13:51:47Z</time><name>PT8233</name></trkpt>
<trkpt lat="53.167771" lon="-3.949579"><ele>834</ele><time>2020-08-16T13:51:48Z</time><name>PT8234</name></trkpt>
<trkpt lat="53.167768" lon="-3.949574"><ele>834</ele><time>2020-08-16T13:51:49Z</time><name>PT8235</name></trkpt>
<trkpt lat="53.167768" lon="-3.949571"><ele>834</ele><time>2020-08-16T13:51:50Z</time><name>PT8236</name></trkpt>
<trkpt lat="53.167763" lon="-3.949562"><ele>834</ele><time>2020-08-16T13:51:51Z</time><name>PT8237</name></trkpt>
<trkpt lat="53.167759" lon="-3.949547"><ele>834</ele><time>2020-08-16T13:51:52Z</time><name>PT8238</name></trkpt>
<trkpt lat="53.167754" lon="-3.949536"><ele>834</ele><time>2020-08-16T13:51:53Z</time><name>PT8239</name></trkpt>
<trkpt lat="53.167749" lon="-3.949519"><ele>834</ele><time>2020-08-16T13:51:54Z</time><name>PT8240</name></trkpt>
<trkpt lat="53.167745" lon="-3.949500"><ele>833</ele><time>2020-08-16T13:51:55Z</time><name>PT8241</name></trkpt>
<trkpt lat="53.167722" lon="-3.949429"><ele>832</ele><time>2020-08-16T13:51:59Z</time><name>PT8242</name></trkpt>
<trkpt lat="53.167717" lon="-3.949374"><ele>831</ele><time>2020-08-16T13:52:03Z</time><name>PT8243</name></trkpt>
<trkpt lat="53.167714" lon="-3.949345"><ele>831</ele><time>2020-08-16T13:52:06Z</time><name>PT8244</name></trkpt>
<trkpt lat="53.167709" lon="-3.949332"><ele>831</ele><time>2020-08-16T13:52:07Z</time><name>PT8245</name></trkpt>
<trkpt lat="53.167706" lon="-3.949312"><ele>830</ele><time>2020-08-16T13:52:08Z</time><name>PT8246</name></trkpt>
<trkpt lat="53.167705" lon="-3.949298"><ele>830</ele><time>2020-08-16T13:52:09Z</time><name>PT8247</name></trkpt>
<trkpt lat="53.167703" lon="-3.949285"><ele>830</ele><time>2020-08-16T13:52:10Z</time><name>PT8248</name></trkpt>
<trkpt lat="53.167702" lon="-3.949271"><ele>829</ele><time>2020-08-16T13:52:11Z</time><name>PT8249</name></trkpt>
<trkpt lat="53.167699" lon="-3.949257"><ele>829</ele><time>2020-08-16T13:52:12Z</time><name>PT8250</name></trkpt>
<trkpt lat="53.167696" lon="-3.949245"><ele>828</ele><time>2020-08-16T13:52:13Z</time><name>PT8251</name></trkpt>
<trkpt lat="53.167691" lon="-3.949236"><ele>828</ele><time>2020-08-16T13:52:14Z</time><name>PT8252</name></trkpt>
<trkpt lat="53.167687" lon="-3.949226"><ele>828</ele><time>2020-08-16T13:52:15Z</time><name>PT8253</name></trkpt>
<trkpt lat="53.167686" lon="-3.949223"><ele>828</ele><time>2020-08-16T13:52:16Z</time><name>PT8254</name></trkpt>
<trkpt lat="53.167684" lon="-3.949217"><ele>827</ele><time>2020-08-16T13:52:17Z</time><name>PT8255</name></trkpt>
<trkpt lat="53.167681" lon="-3.949207"><ele>827</ele><time>2020-08-16T13:52:18Z</time><name>PT8256</name></trkpt>
<trkpt lat="53.167677" lon="-3.949196"><ele>826</ele><time>2020-08-16T13:52:19Z</time><name>PT8257</name></trkpt>
<trkpt lat="53.167673" lon="-3.949182"><ele>826</ele><time>2020-08-16T13:52:20Z</time><name>PT8258</name></trkpt>
<trkpt lat="53.167669" lon="-3.949167"><ele>825</ele><time>2020-08-16T13:52:21Z</time><name>PT8259</name></trkpt>
<trkpt lat="53.167666" lon="-3.949152"><ele>825</ele><time>2020-08-16T13:52:22Z</time><name>PT8260</name></trkpt>
<trkpt lat="53.167663" lon="-3.949140"><ele>824</ele><time>2020-08-16T13:52:23Z</time><name>PT8261</name></trkpt>
<trkpt lat="53.167659" lon="-3.949127"><ele>824</ele><time>2020-08-16T13:52:24Z</time><name>PT8262</name></trkpt>
<trkpt lat="53.167654" lon="-3.949115"><ele>824</ele><time>2020-08-16T13:52:25Z</time><name>PT8263</name></trkpt>
<trkpt lat="53.167649" lon="-3.949100"><ele>823</ele><time>2020-08-16T13:52:26Z</time><name>PT8264</name></trkpt>
<trkpt lat="53.167649" lon="-3.949101"><ele>823</ele><time>2020-08-16T13:52:27Z</time><name>PT8265</name></trkpt>
<trkpt lat="53.167648" lon="-3.949097"><ele>823</ele><time>2020-08-16T13:52:28Z</time><name>PT8266</name></trkpt>
<trkpt lat="53.167646" lon="-3.949107"><ele>823</ele><time>2020-08-16T13:52:29Z</time><name>PT8267</name></trkpt>
<trkpt lat="53.167645" lon="-3.949110"><ele>823</ele><time>2020-08-16T13:52:30Z</time><name>PT8268</name></trkpt>
<trkpt lat="53.167644" lon="-3.949112"><ele>823</ele><time>2020-08-16T13:52:31Z</time><name>PT8269</name></trkpt>
<trkpt lat="53.167639" lon="-3.949102"><ele>823</ele><time>2020-08-16T13:52:35Z</time><name>PT8270</name></trkpt>
<trkpt lat="53.167629" lon="-3.949089"><ele>823</ele><time>2020-08-16T13:52:36Z</time><name>PT8271</name></trkpt>
<trkpt lat="53.167624" lon="-3.949076"><ele>823</ele><time>2020-08-16T13:52:37Z</time><name>PT8272</name></trkpt>
<trkpt lat="53.167624" lon="-3.949058"><ele>823</ele><time>2020-08-16T13:52:38Z</time><name>PT8273</name></trkpt>
<trkpt lat="53.167622" lon="-3.949040"><ele>822</ele><time>2020-08-16T13:52:39Z</time><name>PT8274</name></trkpt>
<trkpt lat="53.167618" lon="-3.949023"><ele>822</ele><time>2020-08-16T13:52:40Z</time><name>PT8275</name></trkpt>
<trkpt lat="53.167615" lon="-3.949009"><ele>822</ele><time>2020-08-16T13:52:41Z</time><name>PT8276</name></trkpt>
<trkpt lat="53.167612" lon="-3.948992"><ele>822</ele><time>2020-08-16T13:52:42Z</time><name>PT8277</name></trkpt>
<trkpt lat="53.167608" lon="-3.948972"><ele>821</ele><time>2020-08-16T13:52:43Z</time><name>PT8278</name></trkpt>
<trkpt lat="53.167608" lon="-3.948957"><ele>821</ele><time>2020-08-16T13:52:44Z</time><name>PT8279</name></trkpt>
<trkpt lat="53.167609" lon="-3.948944"><ele>821</ele><time>2020-08-16T13:52:45Z</time><name>PT8280</name></trkpt>
<trkpt lat="53.167606" lon="-3.948932"><ele>821</ele><time>2020-08-16T13:52:46Z</time><name>PT8281</name></trkpt>
<trkpt lat="53.167605" lon="-3.948925"><ele>821</ele><time>2020-08-16T13:52:48Z</time><name>PT8282</name></trkpt>
<trkpt lat="53.167599" lon="-3.948909"><ele>821</ele><time>2020-08-16T13:52:48Z</time><name>PT8283</name></trkpt>
<trkpt lat="53.167596" lon="-3.948897"><ele>820</ele><time>2020-08-16T13:52:49Z</time><name>PT8284</name></trkpt>
<trkpt lat="53.167594" lon="-3.948884"><ele>820</ele><time>2020-08-16T13:52:50Z</time><name>PT8285</name></trkpt>
<trkpt lat="53.167589" lon="-3.948870"><ele>820</ele><time>2020-08-16T13:52:51Z</time><name>PT8286</name></trkpt>
<trkpt lat="53.167591" lon="-3.948856"><ele>820</ele><time>2020-08-16T13:52:52Z</time><name>PT8287</name></trkpt>
<trkpt lat="53.167589" lon="-3.948841"><ele>820</ele><time>2020-08-16T13:52:53Z</time><name>PT8288</name></trkpt>
<trkpt lat="53.167585" lon="-3.948825"><ele>819</ele><time>2020-08-16T13:52:54Z</time><name>PT8289</name></trkpt>
<trkpt lat="53.167583" lon="-3.948810"><ele>819</ele><time>2020-08-16T13:52:55Z</time><name>PT8290</name></trkpt>
<trkpt lat="53.167579" lon="-3.948796"><ele>819</ele><time>2020-08-16T13:52:56Z</time><name>PT8291</name></trkpt>
<trkpt lat="53.167575" lon="-3.948782"><ele>818</ele><time>2020-08-16T13:52:57Z</time><name>PT8292</name></trkpt>
<trkpt lat="53.167574" lon="-3.948769"><ele>818</ele><time>2020-08-16T13:52:58Z</time><name>PT8293</name></trkpt>
<trkpt lat="53.167572" lon="-3.948754"><ele>818</ele><time>2020-08-16T13:52:59Z</time><name>PT8294</name></trkpt>
<trkpt lat="53.167568" lon="-3.948741"><ele>818</ele><time>2020-08-16T13:53:00Z</time><name>PT8295</name></trkpt>
<trkpt lat="53.167564" lon="-3.948730"><ele>817</ele><time>2020-08-16T13:53:01Z</time><name>PT8296</name></trkpt>
<trkpt lat="53.167563" lon="-3.948716"><ele>817</ele><time>2020-08-16T13:53:02Z</time><name>PT8297</name></trkpt>
<trkpt lat="53.167561" lon="-3.948700"><ele>817</ele><time>2020-08-16T13:53:03Z</time><name>PT8298</name></trkpt>
<trkpt lat="53.167557" lon="-3.948682"><ele>817</ele><time>2020-08-16T13:53:04Z</time><name>PT8299</name></trkpt>
<trkpt lat="53.167556" lon="-3.948664"><ele>816</ele><time>2020-08-16T13:53:05Z</time><name>PT8300</name></trkpt>
<trkpt lat="53.167554" lon="-3.948647"><ele>816</ele><time>2020-08-16T13:53:06Z</time><name>PT8301</name></trkpt>
<trkpt lat="53.167551" lon="-3.948628"><ele>816</ele><time>2020-08-16T13:53:07Z</time><name>PT8302</name></trkpt>
<trkpt lat="53.167549" lon="-3.948609"><ele>816</ele><time>2020-08-16T13:53:08Z</time><name>PT8303</name></trkpt>
<trkpt lat="53.167545" lon="-3.948593"><ele>816</ele><time>2020-08-16T13:53:09Z</time><name>PT8304</name></trkpt>
<trkpt lat="53.167544" lon="-3.948585"><ele>816</ele><time>2020-08-16T13:53:10Z</time><name>PT8305</name></trkpt>
<trkpt lat="53.167544" lon="-3.948580"><ele>816</ele><time>2020-08-16T13:53:11Z</time><name>PT8306</name></trkpt>
<trkpt lat="53.167544" lon="-3.948576"><ele>816</ele><time>2020-08-16T13:53:12Z</time><name>PT8307</name></trkpt>
<trkpt lat="53.167543" lon="-3.948573"><ele>816</ele><time>2020-08-16T13:53:13Z</time><name>PT8308</name></trkpt>
<trkpt lat="53.167543" lon="-3.948566"><ele>816</ele><time>2020-08-16T13:53:14Z</time><name>PT8309</name></trkpt>
<trkpt lat="53.167545" lon="-3.948555"><ele>816</ele><time>2020-08-16T13:53:15Z</time><name>PT8310</name></trkpt>
<trkpt lat="53.167545" lon="-3.948543"><ele>816</ele><time>2020-08-16T13:53:16Z</time><name>PT8311</name></trkpt>
<trkpt lat="53.167544" lon="-3.948531"><ele>816</ele><time>2020-08-16T13:53:17Z</time><name>PT8312</name></trkpt>
<trkpt lat="53.167544" lon="-3.948517"><ele>816</ele><time>2020-08-16T13:53:18Z</time><name>PT8313</name></trkpt>
<trkpt lat="53.167544" lon="-3.948502"><ele>816</ele><time>2020-08-16T13:53:19Z</time><name>PT8314</name></trkpt>
<trkpt lat="53.167543" lon="-3.948480"><ele>816</ele><time>2020-08-16T13:53:20Z</time><name>PT8315</name></trkpt>
<trkpt lat="53.167543" lon="-3.948466"><ele>816</ele><time>2020-08-16T13:53:21Z</time><name>PT8316</name></trkpt>
<trkpt lat="53.167542" lon="-3.948448"><ele>816</ele><time>2020-08-16T13:53:22Z</time><name>PT8317</name></trkpt>
<trkpt lat="53.167540" lon="-3.948428"><ele>816</ele><time>2020-08-16T13:53:23Z</time><name>PT8318</name></trkpt>
<trkpt lat="53.167538" lon="-3.948411"><ele>816</ele><time>2020-08-16T13:53:24Z</time><name>PT8319</name></trkpt>
<trkpt lat="53.167538" lon="-3.948390"><ele>816</ele><time>2020-08-16T13:53:25Z</time><name>PT8320</name></trkpt>
<trkpt lat="53.167536" lon="-3.948368"><ele>816</ele><time>2020-08-16T13:53:26Z</time><name>PT8321</name></trkpt>
<trkpt lat="53.167537" lon="-3.948351"><ele>816</ele><time>2020-08-16T13:53:27Z</time><name>PT8322</name></trkpt>
<trkpt lat="53.167537" lon="-3.948330"><ele>816</ele><time>2020-08-16T13:53:28Z</time><name>PT8323</name></trkpt>
<trkpt lat="53.167537" lon="-3.948313"><ele>816</ele><time>2020-08-16T13:53:29Z</time><name>PT8324</name></trkpt>
<trkpt lat="53.167537" lon="-3.948298"><ele>816</ele><time>2020-08-16T13:53:30Z</time><name>PT8325</name></trkpt>
<trkpt lat="53.167536" lon="-3.948281"><ele>815</ele><time>2020-08-16T13:53:31Z</time><name>PT8326</name></trkpt>
<trkpt lat="53.167536" lon="-3.948267"><ele>815</ele><time>2020-08-16T13:53:32Z</time><name>PT8327</name></trkpt>
<trkpt lat="53.167535" lon="-3.948250"><ele>815</ele><time>2020-08-16T13:53:33Z</time><name>PT8328</name></trkpt>
<trkpt lat="53.167535" lon="-3.948237"><ele>815</ele><time>2020-08-16T13:53:34Z</time><name>PT8329</name></trkpt>
<trkpt lat="53.167533" lon="-3.948221"><ele>815</ele><time>2020-08-16T13:53:35Z</time><name>PT8330</name></trkpt>
<trkpt lat="53.167530" lon="-3.948205"><ele>815</ele><time>2020-08-16T13:53:36Z</time><name>PT8331</name></trkpt>
<trkpt lat="53.167526" lon="-3.948189"><ele>814</ele><time>2020-08-16T13:53:37Z</time><name>PT8332</name></trkpt>
<trkpt lat="53.167523" lon="-3.948175"><ele>814</ele><time>2020-08-16T13:53:38Z</time><name>PT8333</name></trkpt>
<trkpt lat="53.167522" lon="-3.948161"><ele>814</ele><time>2020-08-16T13:53:39Z</time><name>PT8334</name></trkpt>
<trkpt lat="53.167521" lon="-3.948145"><ele>814</ele><time>2020-08-16T13:53:40Z</time><name>PT8335</name></trkpt>
<trkpt lat="53.167520" lon="-3.948129"><ele>813</ele><time>2020-08-16T13:53:41Z</time><name>PT8336</name></trkpt>
<trkpt lat="53.167519" lon="-3.948114"><ele>813</ele><time>2020-08-16T13:53:42Z</time><name>PT8337</name></trkpt>
<trkpt lat="53.167518" lon="-3.948098"><ele>813</ele><time>2020-08-16T13:53:43Z</time><name>PT8338</name></trkpt>
<trkpt lat="53.167518" lon="-3.948084"><ele>812</ele><time>2020-08-16T13:53:44Z</time><name>PT8339</name></trkpt>
<trkpt lat="53.167518" lon="-3.948069"><ele>812</ele><time>2020-08-16T13:53:45Z</time><name>PT8340</name></trkpt>
<trkpt lat="53.167518" lon="-3.948055"><ele>812</ele><time>2020-08-16T13:53:46Z</time><name>PT8341</name></trkpt>
<trkpt lat="53.167518" lon="-3.948041"><ele>812</ele><time>2020-08-16T13:53:47Z</time><name>PT8342</name></trkpt>
<trkpt lat="53.167520" lon="-3.948027"><ele>811</ele><time>2020-08-16T13:53:48Z</time><name>PT8343</name></trkpt>
<trkpt lat="53.167521" lon="-3.948014"><ele>811</ele><time>2020-08-16T13:53:49Z</time><name>PT8344</name></trkpt>
<trkpt lat="53.167522" lon="-3.948002"><ele>811</ele><time>2020-08-16T13:53:50Z</time><name>PT8345</name></trkpt>
<trkpt lat="53.167523" lon="-3.947989"><ele>810</ele><time>2020-08-16T13:53:51Z</time><name>PT8346</name></trkpt>
<trkpt lat="53.167525" lon="-3.947975"><ele>810</ele><time>2020-08-16T13:53:52Z</time><name>PT8347</name></trkpt>
<trkpt lat="53.167526" lon="-3.947962"><ele>810</ele><time>2020-08-16T13:53:53Z</time><name>PT8348</name></trkpt>
<trkpt lat="53.167527" lon="-3.947949"><ele>810</ele><time>2020-08-16T13:53:54Z</time><name>PT8349</name></trkpt>
<trkpt lat="53.167529" lon="-3.947936"><ele>809</ele><time>2020-08-16T13:53:55Z</time><name>PT8350</name></trkpt>
<trkpt lat="53.167531" lon="-3.947922"><ele>809</ele><time>2020-08-16T13:53:56Z</time><name>PT8351</name></trkpt>
<trkpt lat="53.167533" lon="-3.947909"><ele>809</ele><time>2020-08-16T13:53:57Z</time><name>PT8352</name></trkpt>
<trkpt lat="53.167534" lon="-3.947895"><ele>809</ele><time>2020-08-16T13:53:58Z</time><name>PT8353</name></trkpt>
<trkpt lat="53.167534" lon="-3.947880"><ele>808</ele><time>2020-08-16T13:53:59Z</time><name>PT8354</name></trkpt>
<trkpt lat="53.167532" lon="-3.947866"><ele>807</ele><time>2020-08-16T13:54:00Z</time><name>PT8355</name></trkpt>
<trkpt lat="53.167532" lon="-3.947852"><ele>807</ele><time>2020-08-16T13:54:01Z</time><name>PT8356</name></trkpt>
<trkpt lat="53.167532" lon="-3.947835"><ele>807</ele><time>2020-08-16T13:54:02Z</time><name>PT8357</name></trkpt>
<trkpt lat="53.167532" lon="-3.947824"><ele>806</ele><time>2020-08-16T13:54:03Z</time><name>PT8358</name></trkpt>
<trkpt lat="53.167530" lon="-3.947814"><ele>806</ele><time>2020-08-16T13:54:04Z</time><name>PT8359</name></trkpt>
<trkpt lat="53.167528" lon="-3.947806"><ele>805</ele><time>2020-08-16T13:54:05Z</time><name>PT8360</name></trkpt>
<trkpt lat="53.167527" lon="-3.947792"><ele>806</ele><time>2020-08-16T13:54:06Z</time><name>PT8361</name></trkpt>
<trkpt lat="53.167526" lon="-3.947777"><ele>806</ele><time>2020-08-16T13:54:07Z</time><name>PT8362</name></trkpt>
<trkpt lat="53.167525" lon="-3.947761"><ele>805</ele><time>2020-08-16T13:54:08Z</time><name>PT8363</name></trkpt>
<trkpt lat="53.167523" lon="-3.947751"><ele>805</ele><time>2020-08-16T13:54:09Z</time><name>PT8364</name></trkpt>
<trkpt lat="53.167521" lon="-3.947739"><ele>805</ele><time>2020-08-16T13:54:10Z</time><name>PT8365</name></trkpt>
<trkpt lat="53.167521" lon="-3.947725"><ele>804</ele><time>2020-08-16T13:54:11Z</time><name>PT8366</name></trkpt>
<trkpt lat="53.167521" lon="-3.947711"><ele>804</ele><time>2020-08-16T13:54:12Z</time><name>PT8367</name></trkpt>
<trkpt lat="53.167518" lon="-3.947698"><ele>804</ele><time>2020-08-16T13:54:13Z</time><name>PT8368</name></trkpt>
<trkpt lat="53.167516" lon="-3.947684"><ele>803</ele><time>2020-08-16T13:54:14Z</time><name>PT8369</name></trkpt>
<trkpt lat="53.167514" lon="-3.947670"><ele>803</ele><time>2020-08-16T13:54:15Z</time><name>PT8370</name></trkpt>
<trkpt lat="53.167515" lon="-3.947665"><ele>803</ele><time>2020-08-16T13:54:16Z</time><name>PT8371</name></trkpt>
<trkpt lat="53.167515" lon="-3.947665"><ele>803</ele><time>2020-08-16T13:54:17Z</time><name>PT8372</name></trkpt>
<trkpt lat="53.167515" lon="-3.947666"><ele>803</ele><time>2020-08-16T13:54:18Z</time><name>PT8373</name></trkpt>
<trkpt lat="53.167518" lon="-3.947667"><ele>803</ele><time>2020-08-16T13:54:21Z</time><name>PT8374</name></trkpt>
<trkpt lat="53.167516" lon="-3.947653"><ele>803</ele><time>2020-08-16T13:54:22Z</time><name>PT8375</name></trkpt>
<trkpt lat="53.167514" lon="-3.947642"><ele>802</ele><time>2020-08-16T13:54:23Z</time><name>PT8376</name></trkpt>
<trkpt lat="53.167512" lon="-3.947631"><ele>802</ele><time>2020-08-16T13:54:24Z</time><name>PT8377</name></trkpt>
<trkpt lat="53.167509" lon="-3.947617"><ele>802</ele><time>2020-08-16T13:54:25Z</time><name>PT8378</name></trkpt>
<trkpt lat="53.167509" lon="-3.947604"><ele>802</ele><time>2020-08-16T13:54:26Z</time><name>PT8379</name></trkpt>
<trkpt lat="53.167506" lon="-3.947592"><ele>802</ele><time>2020-08-16T13:54:27Z</time><name>PT8380</name></trkpt>
<trkpt lat="53.167501" lon="-3.947574"><ele>802</ele><time>2020-08-16T13:54:28Z</time><name>PT8381</name></trkpt>
<trkpt lat="53.167496" lon="-3.947558"><ele>801</ele><time>2020-08-16T13:54:29Z</time><name>PT8382</name></trkpt>
<trkpt lat="53.167493" lon="-3.947544"><ele>801</ele><time>2020-08-16T13:54:30Z</time><name>PT8383</name></trkpt>
<trkpt lat="53.167490" lon="-3.947526"><ele>801</ele><time>2020-08-16T13:54:31Z</time><name>PT8384</name></trkpt>
<trkpt lat="53.167485" lon="-3.947508"><ele>801</ele><time>2020-08-16T13:54:32Z</time><name>PT8385</name></trkpt>
<trkpt lat="53.167481" lon="-3.947493"><ele>800</ele><time>2020-08-16T13:54:33Z</time><name>PT8386</name></trkpt>
<trkpt lat="53.167478" lon="-3.947474"><ele>800</ele><time>2020-08-16T13:54:34Z</time><name>PT8387</name></trkpt>
<trkpt lat="53.167473" lon="-3.947454"><ele>800</ele><time>2020-08-16T13:54:35Z</time><name>PT8388</name></trkpt>
<trkpt lat="53.167469" lon="-3.947435"><ele>800</ele><time>2020-08-16T13:54:36Z</time><name>PT8389</name></trkpt>
<trkpt lat="53.167463" lon="-3.947418"><ele>800</ele><time>2020-08-16T13:54:37Z</time><name>PT8390</name></trkpt>
<trkpt lat="53.167458" lon="-3.947402"><ele>800</ele><time>2020-08-16T13:54:38Z</time><name>PT8391</name></trkpt>
<trkpt lat="53.167454" lon="-3.947385"><ele>800</ele><time>2020-08-16T13:54:39Z</time><name>PT8392</name></trkpt>
<trkpt lat="53.167449" lon="-3.947367"><ele>800</ele><time>2020-08-16T13:54:40Z</time><name>PT8393</name></trkpt>
<trkpt lat="53.167444" lon="-3.947349"><ele>799</ele><time>2020-08-16T13:54:41Z</time><name>PT8394</name></trkpt>
<trkpt lat="53.167438" lon="-3.947333"><ele>799</ele><time>2020-08-16T13:54:42Z</time><name>PT8395</name></trkpt>
<trkpt lat="53.167434" lon="-3.947317"><ele>799</ele><time>2020-08-16T13:54:43Z</time><name>PT8396</name></trkpt>
<trkpt lat="53.167428" lon="-3.947301"><ele>798</ele><time>2020-08-16T13:54:44Z</time><name>PT8397</name></trkpt>
<trkpt lat="53.167423" lon="-3.947286"><ele>798</ele><time>2020-08-16T13:54:45Z</time><name>PT8398</name></trkpt>
<trkpt lat="53.167418" lon="-3.947270"><ele>798</ele><time>2020-08-16T13:54:46Z</time><name>PT8399</name></trkpt>
<trkpt lat="53.167413" lon="-3.947255"><ele>798</ele><time>2020-08-16T13:54:47Z</time><name>PT8400</name></trkpt>
<trkpt lat="53.167408" lon="-3.947240"><ele>798</ele><time>2020-08-16T13:54:48Z</time><name>PT8401</name></trkpt>
<trkpt lat="53.167402" lon="-3.947223"><ele>797</ele><time>2020-08-16T13:54:49Z</time><name>PT8402</name></trkpt>
<trkpt lat="53.167400" lon="-3.947206"><ele>797</ele><time>2020-08-16T13:54:50Z</time><name>PT8403</name></trkpt>
<trkpt lat="53.167396" lon="-3.947188"><ele>797</ele><time>2020-08-16T13:54:51Z</time><name>PT8404</name></trkpt>
<trkpt lat="53.167392" lon="-3.947170"><ele>797</ele><time>2020-08-16T13:54:52Z</time><name>PT8405</name></trkpt>
<trkpt lat="53.167388" lon="-3.947152"><ele>796</ele><time>2020-08-16T13:54:53Z</time><name>PT8406</name></trkpt>
<trkpt lat="53.167385" lon="-3.947135"><ele>796</ele><time>2020-08-16T13:54:54Z</time><name>PT8407</name></trkpt>
<trkpt lat="53.167381" lon="-3.947117"><ele>796</ele><time>2020-08-16T13:54:55Z</time><name>PT8408</name></trkpt>
<trkpt lat="53.167378" lon="-3.947099"><ele>796</ele><time>2020-08-16T13:54:56Z</time><name>PT8409</name></trkpt>
<trkpt lat="53.167375" lon="-3.947080"><ele>796</ele><time>2020-08-16T13:54:57Z</time><name>PT8410</name></trkpt>
<trkpt lat="53.167372" lon="-3.947062"><ele>795</ele><time>2020-08-16T13:54:58Z</time><name>PT8411</name></trkpt>
<trkpt lat="53.167370" lon="-3.947047"><ele>795</ele><time>2020-08-16T13:54:59Z</time><name>PT8412</name></trkpt>
<trkpt lat="53.167367" lon="-3.947032"><ele>795</ele><time>2020-08-16T13:55:00Z</time><name>PT8413</name></trkpt>
<trkpt lat="53.167364" lon="-3.947014"><ele>795</ele><time>2020-08-16T13:55:01Z</time><name>PT8414</name></trkpt>
<trkpt lat="53.167362" lon="-3.946998"><ele>794</ele><time>2020-08-16T13:55:02Z</time><name>PT8415</name></trkpt>
<trkpt lat="53.167359" lon="-3.946982"><ele>794</ele><time>2020-08-16T13:55:03Z</time><name>PT8416</name></trkpt>
<trkpt lat="53.167357" lon="-3.946966"><ele>794</ele><time>2020-08-16T13:55:04Z</time><name>PT8417</name></trkpt>
<trkpt lat="53.167353" lon="-3.946949"><ele>794</ele><time>2020-08-16T13:55:05Z</time><name>PT8418</name></trkpt>
<trkpt lat="53.167349" lon="-3.946932"><ele>793</ele><time>2020-08-16T13:55:06Z</time><name>PT8419</name></trkpt>
<trkpt lat="53.167348" lon="-3.946915"><ele>793</ele><time>2020-08-16T13:55:07Z</time><name>PT8420</name></trkpt>
<trkpt lat="53.167338" lon="-3.946851"><ele>793</ele><time>2020-08-16T13:55:11Z</time><name>PT8421</name></trkpt>
<trkpt lat="53.167336" lon="-3.946835"><ele>792</ele><time>2020-08-16T13:55:13Z</time><name>PT8422</name></trkpt>
<trkpt lat="53.167334" lon="-3.946816"><ele>792</ele><time>2020-08-16T13:55:13Z</time><name>PT8423</name></trkpt>
<trkpt lat="53.167332" lon="-3.946797"><ele>792</ele><time>2020-08-16T13:55:14Z</time><name>PT8424</name></trkpt>
<trkpt lat="53.167329" lon="-3.946780"><ele>792</ele><time>2020-08-16T13:55:15Z</time><name>PT8425</name></trkpt>
<trkpt lat="53.167328" lon="-3.946761"><ele>792</ele><time>2020-08-16T13:55:16Z</time><name>PT8426</name></trkpt>
<trkpt lat="53.167328" lon="-3.946749"><ele>792</ele><time>2020-08-16T13:55:17Z</time><name>PT8427</name></trkpt>
<trkpt lat="53.167329" lon="-3.946749"><ele>792</ele><time>2020-08-16T13:55:18Z</time><name>PT8428</name></trkpt>
<trkpt lat="53.167329" lon="-3.946750"><ele>792</ele><time>2020-08-16T13:55:19Z</time><name>PT8429</name></trkpt>
<trkpt lat="53.167329" lon="-3.946750"><ele>792</ele><time>2020-08-16T13:55:20Z</time><name>PT8430</name></trkpt>
<trkpt lat="53.167329" lon="-3.946749"><ele>792</ele><time>2020-08-16T13:55:21Z</time><name>PT8431</name></trkpt>
<trkpt lat="53.167332" lon="-3.946750"><ele>792</ele><time>2020-08-16T13:55:33Z</time><name>PT8432</name></trkpt>
<trkpt lat="53.167332" lon="-3.946746"><ele>793</ele><time>2020-08-16T13:55:56Z</time><name>PT8433</name></trkpt>
<trkpt lat="53.167332" lon="-3.946743"><ele>793</ele><time>2020-08-16T13:55:57Z</time><name>PT8434</name></trkpt>
<trkpt lat="53.167332" lon="-3.946740"><ele>793</ele><time>2020-08-16T13:55:58Z</time><name>PT8435</name></trkpt>
<trkpt lat="53.167331" lon="-3.946740"><ele>793</ele><time>2020-08-16T13:55:59Z</time><name>PT8436</name></trkpt>
<trkpt lat="53.167330" lon="-3.946738"><ele>793</ele><time>2020-08-16T13:56:00Z</time><name>PT8437</name></trkpt>
<trkpt lat="53.167332" lon="-3.946737"><ele>792</ele><time>2020-08-16T13:56:01Z</time><name>PT8438</name></trkpt>
<trkpt lat="53.167334" lon="-3.946736"><ele>793</ele><time>2020-08-16T13:56:02Z</time><name>PT8439</name></trkpt>
<trkpt lat="53.167335" lon="-3.946736"><ele>792</ele><time>2020-08-16T13:56:03Z</time><name>PT8440</name></trkpt>
<trkpt lat="53.167338" lon="-3.946743"><ele>793</ele><time>2020-08-16T13:56:04Z</time><name>PT8441</name></trkpt>
<trkpt lat="53.167337" lon="-3.946742"><ele>793</ele><time>2020-08-16T13:56:05Z</time><name>PT8442</name></trkpt>
<trkpt lat="53.167335" lon="-3.946741"><ele>792</ele><time>2020-08-16T13:56:06Z</time><name>PT8443</name></trkpt>
<trkpt lat="53.167335" lon="-3.946740"><ele>792</ele><time>2020-08-16T13:56:07Z</time><name>PT8444</name></trkpt>
<trkpt lat="53.167335" lon="-3.946741"><ele>792</ele><time>2020-08-16T13:56:08Z</time><name>PT8445</name></trkpt>
<trkpt lat="53.167335" lon="-3.946740"><ele>792</ele><time>2020-08-16T13:56:09Z</time><name>PT8446</name></trkpt>
<trkpt lat="53.167337" lon="-3.946741"><ele>792</ele><time>2020-08-16T13:56:18Z</time><name>PT8447</name></trkpt>
<trkpt lat="53.167340" lon="-3.946742"><ele>792</ele><time>2020-08-16T13:56:19Z</time><name>PT8448</name></trkpt>
<trkpt lat="53.167342" lon="-3.946745"><ele>793</ele><time>2020-08-16T13:56:20Z</time><name>PT8449</name></trkpt>
<trkpt lat="53.167343" lon="-3.946731"><ele>792</ele><time>2020-08-16T13:56:52Z</time><name>PT8450</name></trkpt>
<trkpt lat="53.167341" lon="-3.946726"><ele>792</ele><time>2020-08-16T13:56:53Z</time><name>PT8451</name></trkpt>
<trkpt lat="53.167342" lon="-3.946715"><ele>792</ele><time>2020-08-16T13:56:54Z</time><name>PT8452</name></trkpt>
<trkpt lat="53.167341" lon="-3.946697"><ele>792</ele><time>2020-08-16T13:56:55Z</time><name>PT8453</name></trkpt>
<trkpt lat="53.167335" lon="-3.946672"><ele>792</ele><time>2020-08-16T13:56:56Z</time><name>PT8454</name></trkpt>
<trkpt lat="53.167331" lon="-3.946654"><ele>792</ele><time>2020-08-16T13:56:57Z</time><name>PT8455</name></trkpt>
<trkpt lat="53.167327" lon="-3.946635"><ele>792</ele><time>2020-08-16T13:56:58Z</time><name>PT8456</name></trkpt>
<trkpt lat="53.167321" lon="-3.946617"><ele>791</ele><time>2020-08-16T13:56:59Z</time><name>PT8457</name></trkpt>
<trkpt lat="53.167317" lon="-3.946601"><ele>791</ele><time>2020-08-16T13:57:00Z</time><name>PT8458</name></trkpt>
<trkpt lat="53.167315" lon="-3.946587"><ele>791</ele><time>2020-08-16T13:57:01Z</time><name>PT8459</name></trkpt>
<trkpt lat="53.167313" lon="-3.946570"><ele>791</ele><time>2020-08-16T13:57:02Z</time><name>PT8460</name></trkpt>
<trkpt lat="53.167311" lon="-3.946553"><ele>790</ele><time>2020-08-16T13:57:03Z</time><name>PT8461</name></trkpt>
<trkpt lat="53.167311" lon="-3.946539"><ele>790</ele><time>2020-08-16T13:57:04Z</time><name>PT8462</name></trkpt>
<trkpt lat="53.167310" lon="-3.946532"><ele>790</ele><time>2020-08-16T13:57:05Z</time><name>PT8463</name></trkpt>
<trkpt lat="53.167307" lon="-3.946520"><ele>790</ele><time>2020-08-16T13:57:06Z</time><name>PT8464</name></trkpt>
<trkpt lat="53.167303" lon="-3.946505"><ele>790</ele><time>2020-08-16T13:57:07Z</time><name>PT8465</name></trkpt>
<trkpt lat="53.167301" lon="-3.946489"><ele>790</ele><time>2020-08-16T13:57:08Z</time><name>PT8466</name></trkpt>
<trkpt lat="53.167301" lon="-3.946473"><ele>790</ele><time>2020-08-16T13:57:09Z</time><name>PT8467</name></trkpt>
<trkpt lat="53.167301" lon="-3.946455"><ele>789</ele><time>2020-08-16T13:57:10Z</time><name>PT8468</name></trkpt>
<trkpt lat="53.167301" lon="-3.946438"><ele>789</ele><time>2020-08-16T13:57:11Z</time><name>PT8469</name></trkpt>
<trkpt lat="53.167303" lon="-3.946424"><ele>789</ele><time>2020-08-16T13:57:12Z</time><name>PT8470</name></trkpt>
<trkpt lat="53.167302" lon="-3.946413"><ele>789</ele><time>2020-08-16T13:57:13Z</time><name>PT8471</name></trkpt>
<trkpt lat="53.167300" lon="-3.946404"><ele>789</ele><time>2020-08-16T13:57:14Z</time><name>PT8472</name></trkpt>
<trkpt lat="53.167298" lon="-3.946393"><ele>789</ele><time>2020-08-16T13:57:15Z</time><name>PT8473</name></trkpt>
<trkpt lat="53.167297" lon="-3.946379"><ele>788</ele><time>2020-08-16T13:57:16Z</time><name>PT8474</name></trkpt>
<trkpt lat="53.167296" lon="-3.946364"><ele>788</ele><time>2020-08-16T13:57:17Z</time><name>PT8475</name></trkpt>
<trkpt lat="53.167295" lon="-3.946348"><ele>788</ele><time>2020-08-16T13:57:18Z</time><name>PT8476</name></trkpt>
<trkpt lat="53.167294" lon="-3.946329"><ele>788</ele><time>2020-08-16T13:57:19Z</time><name>PT8477</name></trkpt>
<trkpt lat="53.167293" lon="-3.946313"><ele>787</ele><time>2020-08-16T13:57:20Z</time><name>PT8478</name></trkpt>
<trkpt lat="53.167292" lon="-3.946297"><ele>787</ele><time>2020-08-16T13:57:21Z</time><name>PT8479</name></trkpt>
<trkpt lat="53.167292" lon="-3.946281"><ele>787</ele><time>2020-08-16T13:57:22Z</time><name>PT8480</name></trkpt>
<trkpt lat="53.167291" lon="-3.946263"><ele>786</ele><time>2020-08-16T13:57:23Z</time><name>PT8481</name></trkpt>
<trkpt lat="53.167288" lon="-3.946245"><ele>786</ele><time>2020-08-16T13:57:24Z</time><name>PT8482</name></trkpt>
<trkpt lat="53.167287" lon="-3.946224"><ele>786</ele><time>2020-08-16T13:57:25Z</time><name>PT8483</name></trkpt>
<trkpt lat="53.167286" lon="-3.946206"><ele>786</ele><time>2020-08-16T13:57:26Z</time><name>PT8484</name></trkpt>
<trkpt lat="53.167283" lon="-3.946188"><ele>786</ele><time>2020-08-16T13:57:27Z</time><name>PT8485</name></trkpt>
<trkpt lat="53.167282" lon="-3.946170"><ele>785</ele><time>2020-08-16T13:57:28Z</time><name>PT8486</name></trkpt>
<trkpt lat="53.167278" lon="-3.946151"><ele>785</ele><time>2020-08-16T13:57:29Z</time><name>PT8487</name></trkpt>
<trkpt lat="53.167275" lon="-3.946135"><ele>785</ele><time>2020-08-16T13:57:30Z</time><name>PT8488</name></trkpt>
<trkpt lat="53.167273" lon="-3.946119"><ele>784</ele><time>2020-08-16T13:57:31Z</time><name>PT8489</name></trkpt>
<trkpt lat="53.167273" lon="-3.946100"><ele>784</ele><time>2020-08-16T13:57:32Z</time><name>PT8490</name></trkpt>
<trkpt lat="53.167272" lon="-3.946079"><ele>784</ele><time>2020-08-16T13:57:33Z</time><name>PT8491</name></trkpt>
<trkpt lat="53.167271" lon="-3.946059"><ele>783</ele><time>2020-08-16T13:57:34Z</time><name>PT8492</name></trkpt>
<trkpt lat="53.167269" lon="-3.946038"><ele>783</ele><time>2020-08-16T13:57:35Z</time><name>PT8493</name></trkpt>
<trkpt lat="53.167266" lon="-3.946020"><ele>783</ele><time>2020-08-16T13:57:36Z</time><name>PT8494</name></trkpt>
<trkpt lat="53.167265" lon="-3.946002"><ele>783</ele><time>2020-08-16T13:57:37Z</time><name>PT8495</name></trkpt>
<trkpt lat="53.167265" lon="-3.945983"><ele>782</ele><time>2020-08-16T13:57:38Z</time><name>PT8496</name></trkpt>
<trkpt lat="53.167267" lon="-3.945964"><ele>782</ele><time>2020-08-16T13:57:39Z</time><name>PT8497</name></trkpt>
<trkpt lat="53.167270" lon="-3.945942"><ele>782</ele><time>2020-08-16T13:57:40Z</time><name>PT8498</name></trkpt>
<trkpt lat="53.167275" lon="-3.945920"><ele>782</ele><time>2020-08-16T13:57:41Z</time><name>PT8499</name></trkpt>
<trkpt lat="53.167277" lon="-3.945901"><ele>781</ele><time>2020-08-16T13:57:42Z</time><name>PT8500</name></trkpt>
<trkpt lat="53.167275" lon="-3.945881"><ele>781</ele><time>2020-08-16T13:57:43Z</time><name>PT8501</name></trkpt>
<trkpt lat="53.167274" lon="-3.945861"><ele>781</ele><time>2020-08-16T13:57:44Z</time><name>PT8502</name></trkpt>
<trkpt lat="53.167272" lon="-3.945842"><ele>781</ele><time>2020-08-16T13:57:45Z</time><name>PT8503</name></trkpt>
<trkpt lat="53.167266" lon="-3.945824"><ele>780</ele><time>2020-08-16T13:57:46Z</time><name>PT8504</name></trkpt>
<trkpt lat="53.167265" lon="-3.945806"><ele>780</ele><time>2020-08-16T13:57:47Z</time><name>PT8505</name></trkpt>
<trkpt lat="53.167265" lon="-3.945786"><ele>780</ele><time>2020-08-16T13:57:48Z</time><name>PT8506</name></trkpt>
<trkpt lat="53.167265" lon="-3.945766"><ele>779</ele><time>2020-08-16T13:57:49Z</time><name>PT8507</name></trkpt>
<trkpt lat="53.167264" lon="-3.945747"><ele>779</ele><time>2020-08-16T13:57:50Z</time><name>PT8508</name></trkpt>
<trkpt lat="53.167263" lon="-3.945724"><ele>779</ele><time>2020-08-16T13:57:51Z</time><name>PT8509</name></trkpt>
<trkpt lat="53.167262" lon="-3.945704"><ele>779</ele><time>2020-08-16T13:57:52Z</time><name>PT8510</name></trkpt>
<trkpt lat="53.167259" lon="-3.945686"><ele>779</ele><time>2020-08-16T13:57:53Z</time><name>PT8511</name></trkpt>
<trkpt lat="53.167256" lon="-3.945668"><ele>779</ele><time>2020-08-16T13:57:54Z</time><name>PT8512</name></trkpt>
<trkpt lat="53.167255" lon="-3.945650"><ele>778</ele><time>2020-08-16T13:57:55Z</time><name>PT8513</name></trkpt>
<trkpt lat="53.167255" lon="-3.945632"><ele>778</ele><time>2020-08-16T13:57:56Z</time><name>PT8514</name></trkpt>
<trkpt lat="53.167256" lon="-3.945614"><ele>778</ele><time>2020-08-16T13:57:57Z</time><name>PT8515</name></trkpt>
<trkpt lat="53.167255" lon="-3.945595"><ele>778</ele><time>2020-08-16T13:57:58Z</time><name>PT8516</name></trkpt>
<trkpt lat="53.167257" lon="-3.945574"><ele>777</ele><time>2020-08-16T13:57:59Z</time><name>PT8517</name></trkpt>
<trkpt lat="53.167259" lon="-3.945558"><ele>777</ele><time>2020-08-16T13:58:00Z</time><name>PT8518</name></trkpt>
<trkpt lat="53.167261" lon="-3.945541"><ele>777</ele><time>2020-08-16T13:58:01Z</time><name>PT8519</name></trkpt>
<trkpt lat="53.167261" lon="-3.945524"><ele>776</ele><time>2020-08-16T13:58:02Z</time><name>PT8520</name></trkpt>
<trkpt lat="53.167263" lon="-3.945507"><ele>776</ele><time>2020-08-16T13:58:03Z</time><name>PT8521</name></trkpt>
<trkpt lat="53.167266" lon="-3.945490"><ele>776</ele><time>2020-08-16T13:58:04Z</time><name>PT8522</name></trkpt>
<trkpt lat="53.167266" lon="-3.945474"><ele>776</ele><time>2020-08-16T13:58:05Z</time><name>PT8523</name></trkpt>
<trkpt lat="53.167266" lon="-3.945457"><ele>776</ele><time>2020-08-16T13:58:06Z</time><name>PT8524</name></trkpt>
<trkpt lat="53.167267" lon="-3.945439"><ele>775</ele><time>2020-08-16T13:58:07Z</time><name>PT8525</name></trkpt>
<trkpt lat="53.167269" lon="-3.945422"><ele>775</ele><time>2020-08-16T13:58:08Z</time><name>PT8526</name></trkpt>
<trkpt lat="53.167270" lon="-3.945406"><ele>775</ele><time>2020-08-16T13:58:09Z</time><name>PT8527</name></trkpt>
<trkpt lat="53.167264" lon="-3.945388"><ele>776</ele><time>2020-08-16T13:58:10Z</time><name>PT8528</name></trkpt>
<trkpt lat="53.167261" lon="-3.945370"><ele>776</ele><time>2020-08-16T13:58:11Z</time><name>PT8529</name></trkpt>
<trkpt lat="53.167263" lon="-3.945353"><ele>776</ele><time>2020-08-16T13:58:12Z</time><name>PT8530</name></trkpt>
<trkpt lat="53.167264" lon="-3.945289"><ele>775</ele><time>2020-08-16T13:58:16Z</time><name>PT8531</name></trkpt>
<trkpt lat="53.167263" lon="-3.945271"><ele>775</ele><time>2020-08-16T13:58:17Z</time><name>PT8532</name></trkpt>
<trkpt lat="53.167262" lon="-3.945251"><ele>774</ele><time>2020-08-16T13:58:18Z</time><name>PT8533</name></trkpt>
<trkpt lat="53.167261" lon="-3.945234"><ele>774</ele><time>2020-08-16T13:58:19Z</time><name>PT8534</name></trkpt>
<trkpt lat="53.167261" lon="-3.945216"><ele>774</ele><time>2020-08-16T13:58:20Z</time><name>PT8535</name></trkpt>
<trkpt lat="53.167263" lon="-3.945198"><ele>774</ele><time>2020-08-16T13:58:21Z</time><name>PT8536</name></trkpt>
<trkpt lat="53.167265" lon="-3.945187"><ele>773</ele><time>2020-08-16T13:58:22Z</time><name>PT8537</name></trkpt>
<trkpt lat="53.167267" lon="-3.945181"><ele>773</ele><time>2020-08-16T13:58:23Z</time><name>PT8538</name></trkpt>
<trkpt lat="53.167271" lon="-3.945176"><ele>773</ele><time>2020-08-16T13:58:24Z</time><name>PT8539</name></trkpt>
<trkpt lat="53.167272" lon="-3.945168"><ele>773</ele><time>2020-08-16T13:58:25Z</time><name>PT8540</name></trkpt>
<trkpt lat="53.167270" lon="-3.945152"><ele>772</ele><time>2020-08-16T13:58:26Z</time><name>PT8541</name></trkpt>
<trkpt lat="53.167268" lon="-3.945136"><ele>772</ele><time>2020-08-16T13:58:28Z</time><name>PT8542</name></trkpt>
<trkpt lat="53.167269" lon="-3.945130"><ele>772</ele><time>2020-08-16T13:58:28Z</time><name>PT8543</name></trkpt>
<trkpt lat="53.167269" lon="-3.945117"><ele>772</ele><time>2020-08-16T13:58:29Z</time><name>PT8544</name></trkpt>
<trkpt lat="53.167268" lon="-3.945097"><ele>772</ele><time>2020-08-16T13:58:30Z</time><name>PT8545</name></trkpt>
<trkpt lat="53.167268" lon="-3.945077"><ele>772</ele><time>2020-08-16T13:58:31Z</time><name>PT8546</name></trkpt>
<trkpt lat="53.167265" lon="-3.945057"><ele>771</ele><time>2020-08-16T13:58:32Z</time><name>PT8547</name></trkpt>
<trkpt lat="53.167264" lon="-3.945039"><ele>771</ele><time>2020-08-16T13:58:33Z</time><name>PT8548</name></trkpt>
<trkpt lat="53.167264" lon="-3.945022"><ele>771</ele><time>2020-08-16T13:58:34Z</time><name>PT8549</name></trkpt>
<trkpt lat="53.167265" lon="-3.945004"><ele>771</ele><time>2020-08-16T13:58:35Z</time><name>PT8550</name></trkpt>
<trkpt lat="53.167266" lon="-3.944985"><ele>771</ele><time>2020-08-16T13:58:36Z</time><name>PT8551</name></trkpt>
<trkpt lat="53.167268" lon="-3.944984"><ele>771</ele><time>2020-08-16T13:58:37Z</time><name>PT8552</name></trkpt>
<trkpt lat="53.167267" lon="-3.944976"><ele>771</ele><time>2020-08-16T13:58:38Z</time><name>PT8553</name></trkpt>
<trkpt lat="53.167266" lon="-3.944961"><ele>771</ele><time>2020-08-16T13:58:39Z</time><name>PT8554</name></trkpt>
<trkpt lat="53.167268" lon="-3.944944"><ele>771</ele><time>2020-08-16T13:58:40Z</time><name>PT8555</name></trkpt>
<trkpt lat="53.167272" lon="-3.944925"><ele>770</ele><time>2020-08-16T13:58:41Z</time><name>PT8556</name></trkpt>
<trkpt lat="53.167276" lon="-3.944907"><ele>770</ele><time>2020-08-16T13:58:42Z</time><name>PT8557</name></trkpt>
<trkpt lat="53.167277" lon="-3.944889"><ele>770</ele><time>2020-08-16T13:58:43Z</time><name>PT8558</name></trkpt>
<trkpt lat="53.167277" lon="-3.944868"><ele>770</ele><time>2020-08-16T13:58:44Z</time><name>PT8559</name></trkpt>
<trkpt lat="53.167277" lon="-3.944847"><ele>769</ele><time>2020-08-16T13:58:45Z</time><name>PT8560</name></trkpt>
<trkpt lat="53.167278" lon="-3.944828"><ele>769</ele><time>2020-08-16T13:58:46Z</time><name>PT8561</name></trkpt>
<trkpt lat="53.167281" lon="-3.944808"><ele>769</ele><time>2020-08-16T13:58:47Z</time><name>PT8562</name></trkpt>
<trkpt lat="53.167283" lon="-3.944790"><ele>768</ele><time>2020-08-16T13:58:48Z</time><name>PT8563</name></trkpt>
<trkpt lat="53.167283" lon="-3.944774"><ele>768</ele><time>2020-08-16T13:58:49Z</time><name>PT8564</name></trkpt>
<trkpt lat="53.167283" lon="-3.944756"><ele>768</ele><time>2020-08-16T13:58:50Z</time><name>PT8565</name></trkpt>
<trkpt lat="53.167285" lon="-3.944734"><ele>768</ele><time>2020-08-16T13:58:51Z</time><name>PT8566</name></trkpt>
<trkpt lat="53.167285" lon="-3.944713"><ele>768</ele><time>2020-08-16T13:58:52Z</time><name>PT8567</name></trkpt>
<trkpt lat="53.167284" lon="-3.944693"><ele>768</ele><time>2020-08-16T13:58:53Z</time><name>PT8568</name></trkpt>
<trkpt lat="53.167283" lon="-3.944673"><ele>767</ele><time>2020-08-16T13:58:54Z</time><name>PT8569</name></trkpt>
<trkpt lat="53.167281" lon="-3.944654"><ele>767</ele><time>2020-08-16T13:58:55Z</time><name>PT8570</name></trkpt>
<trkpt lat="53.167279" lon="-3.944637"><ele>767</ele><time>2020-08-16T13:58:56Z</time><name>PT8571</name></trkpt>
<trkpt lat="53.167280" lon="-3.944615"><ele>766</ele><time>2020-08-16T13:58:57Z</time><name>PT8572</name></trkpt>
<trkpt lat="53.167282" lon="-3.944595"><ele>767</ele><time>2020-08-16T13:58:58Z</time><name>PT8573</name></trkpt>
<trkpt lat="53.167281" lon="-3.944575"><ele>766</ele><time>2020-08-16T13:58:59Z</time><name>PT8574</name></trkpt>
<trkpt lat="53.167280" lon="-3.944553"><ele>766</ele><time>2020-08-16T13:59:00Z</time><name>PT8575</name></trkpt>
<trkpt lat="53.167280" lon="-3.944535"><ele>766</ele><time>2020-08-16T13:59:01Z</time><name>PT8576</name></trkpt>
<trkpt lat="53.167279" lon="-3.944518"><ele>766</ele><time>2020-08-16T13:59:02Z</time><name>PT8577</name></trkpt>
<trkpt lat="53.167277" lon="-3.944500"><ele>765</ele><time>2020-08-16T13:59:03Z</time><name>PT8578</name></trkpt>
<trkpt lat="53.167275" lon="-3.944482"><ele>765</ele><time>2020-08-16T13:59:04Z</time><name>PT8579</name></trkpt>
<trkpt lat="53.167272" lon="-3.944465"><ele>765</ele><time>2020-08-16T13:59:05Z</time><name>PT8580</name></trkpt>
<trkpt lat="53.167269" lon="-3.944445"><ele>765</ele><time>2020-08-16T13:59:06Z</time><name>PT8581</name></trkpt>
<trkpt lat="53.167267" lon="-3.944427"><ele>765</ele><time>2020-08-16T13:59:07Z</time><name>PT8582</name></trkpt>
<trkpt lat="53.167267" lon="-3.944410"><ele>764</ele><time>2020-08-16T13:59:08Z</time><name>PT8583</name></trkpt>
<trkpt lat="53.167266" lon="-3.944392"><ele>764</ele><time>2020-08-16T13:59:09Z</time><name>PT8584</name></trkpt>
<trkpt lat="53.167266" lon="-3.944377"><ele>764</ele><time>2020-08-16T13:59:10Z</time><name>PT8585</name></trkpt>
<trkpt lat="53.167264" lon="-3.944362"><ele>763</ele><time>2020-08-16T13:59:11Z</time><name>PT8586</name></trkpt>
<trkpt lat="53.167261" lon="-3.944343"><ele>763</ele><time>2020-08-16T13:59:12Z</time><name>PT8587</name></trkpt>
<trkpt lat="53.167259" lon="-3.944323"><ele>763</ele><time>2020-08-16T13:59:13Z</time><name>PT8588</name></trkpt>
<trkpt lat="53.167257" lon="-3.944304"><ele>763</ele><time>2020-08-16T13:59:14Z</time><name>PT8589</name></trkpt>
<trkpt lat="53.167257" lon="-3.944285"><ele>762</ele><time>2020-08-16T13:59:15Z</time><name>PT8590</name></trkpt>
<trkpt lat="53.167256" lon="-3.944268"><ele>762</ele><time>2020-08-16T13:59:16Z</time><name>PT8591</name></trkpt>
<trkpt lat="53.167257" lon="-3.944250"><ele>762</ele><time>2020-08-16T13:59:17Z</time><name>PT8592</name></trkpt>
<trkpt lat="53.167257" lon="-3.944231"><ele>762</ele><time>2020-08-16T13:59:18Z</time><name>PT8593</name></trkpt>
<trkpt lat="53.167255" lon="-3.944212"><ele>762</ele><time>2020-08-16T13:59:19Z</time><name>PT8594</name></trkpt>
<trkpt lat="53.167254" lon="-3.944191"><ele>761</ele><time>2020-08-16T13:59:20Z</time><name>PT8595</name></trkpt>
<trkpt lat="53.167254" lon="-3.944170"><ele>761</ele><time>2020-08-16T13:59:21Z</time><name>PT8596</name></trkpt>
<trkpt lat="53.167254" lon="-3.944150"><ele>761</ele><time>2020-08-16T13:59:22Z</time><name>PT8597</name></trkpt>
<trkpt lat="53.167253" lon="-3.944127"><ele>761</ele><time>2020-08-16T13:59:23Z</time><name>PT8598</name></trkpt>
<trkpt lat="53.167253" lon="-3.944103"><ele>761</ele><time>2020-08-16T13:59:24Z</time><name>PT8599</name></trkpt>
<trkpt lat="53.167251" lon="-3.944080"><ele>761</ele><time>2020-08-16T13:59:25Z</time><name>PT8600</name></trkpt>
<trkpt lat="53.167251" lon="-3.944058"><ele>761</ele><time>2020-08-16T13:59:26Z</time><name>PT8601</name></trkpt>
<trkpt lat="53.167252" lon="-3.944036"><ele>760</ele><time>2020-08-16T13:59:27Z</time><name>PT8602</name></trkpt>
<trkpt lat="53.167254" lon="-3.944014"><ele>760</ele><time>2020-08-16T13:59:28Z</time><name>PT8603</name></trkpt>
<trkpt lat="53.167255" lon="-3.943993"><ele>760</ele><time>2020-08-16T13:59:29Z</time><name>PT8604</name></trkpt>
<trkpt lat="53.167257" lon="-3.943969"><ele>760</ele><time>2020-08-16T13:59:30Z</time><name>PT8605</name></trkpt>
<trkpt lat="53.167256" lon="-3.943947"><ele>760</ele><time>2020-08-16T13:59:31Z</time><name>PT8606</name></trkpt>
<trkpt lat="53.167256" lon="-3.943928"><ele>760</ele><time>2020-08-16T13:59:32Z</time><name>PT8607</name></trkpt>
<trkpt lat="53.167255" lon="-3.943908"><ele>760</ele><time>2020-08-16T13:59:33Z</time><name>PT8608</name></trkpt>
<trkpt lat="53.167254" lon="-3.943888"><ele>759</ele><time>2020-08-16T13:59:34Z</time><name>PT8609</name></trkpt>
<trkpt lat="53.167254" lon="-3.943861"><ele>759</ele><time>2020-08-16T13:59:35Z</time><name>PT8610</name></trkpt>
<trkpt lat="53.167256" lon="-3.943835"><ele>760</ele><time>2020-08-16T13:59:36Z</time><name>PT8611</name></trkpt>
<trkpt lat="53.167258" lon="-3.943814"><ele>759</ele><time>2020-08-16T13:59:37Z</time><name>PT8612</name></trkpt>
<trkpt lat="53.167261" lon="-3.943791"><ele>759</ele><time>2020-08-16T13:59:38Z</time><name>PT8613</name></trkpt>
<trkpt lat="53.167261" lon="-3.943769"><ele>759</ele><time>2020-08-16T13:59:39Z</time><name>PT8614</name></trkpt>
<trkpt lat="53.167263" lon="-3.943753"><ele>759</ele><time>2020-08-16T13:59:40Z</time><name>PT8615</name></trkpt>
<trkpt lat="53.167266" lon="-3.943737"><ele>758</ele><time>2020-08-16T13:59:41Z</time><name>PT8616</name></trkpt>
<trkpt lat="53.167268" lon="-3.943721"><ele>758</ele><time>2020-08-16T13:59:42Z</time><name>PT8617</name></trkpt>
<trkpt lat="53.167271" lon="-3.943703"><ele>758</ele><time>2020-08-16T13:59:43Z</time><name>PT8618</name></trkpt>
<trkpt lat="53.167272" lon="-3.943686"><ele>758</ele><time>2020-08-16T13:59:44Z</time><name>PT8619</name></trkpt>
<trkpt lat="53.167274" lon="-3.943671"><ele>758</ele><time>2020-08-16T13:59:45Z</time><name>PT8620</name></trkpt>
<trkpt lat="53.167276" lon="-3.943655"><ele>758</ele><time>2020-08-16T13:59:46Z</time><name>PT8621</name></trkpt>
<trkpt lat="53.167279" lon="-3.943636"><ele>758</ele><time>2020-08-16T13:59:47Z</time><name>PT8622</name></trkpt>
<trkpt lat="53.167283" lon="-3.943621"><ele>757</ele><time>2020-08-16T13:59:48Z</time><name>PT8623</name></trkpt>
<trkpt lat="53.167288" lon="-3.943606"><ele>757</ele><time>2020-08-16T13:59:49Z</time><name>PT8624</name></trkpt>
<trkpt lat="53.167292" lon="-3.943588"><ele>757</ele><time>2020-08-16T13:59:50Z</time><name>PT8625</name></trkpt>
<trkpt lat="53.167295" lon="-3.943570"><ele>757</ele><time>2020-08-16T13:59:51Z</time><name>PT8626</name></trkpt>
<trkpt lat="53.167296" lon="-3.943550"><ele>757</ele><time>2020-08-16T13:59:52Z</time><name>PT8627</name></trkpt>
<trkpt lat="53.167295" lon="-3.943533"><ele>756</ele><time>2020-08-16T13:59:53Z</time><name>PT8628</name></trkpt>
<trkpt lat="53.167297" lon="-3.943516"><ele>756</ele><time>2020-08-16T13:59:54Z</time><name>PT8629</name></trkpt>
<trkpt lat="53.167299" lon="-3.943500"><ele>756</ele><time>2020-08-16T13:59:55Z</time><name>PT8630</name></trkpt>
<trkpt lat="53.167301" lon="-3.943482"><ele>755</ele><time>2020-08-16T13:59:56Z</time><name>PT8631</name></trkpt>
<trkpt lat="53.167303" lon="-3.943468"><ele>755</ele><time>2020-08-16T13:59:57Z</time><name>PT8632</name></trkpt>
<trkpt lat="53.167304" lon="-3.943448"><ele>755</ele><time>2020-08-16T13:59:58Z</time><name>PT8633</name></trkpt>
<trkpt lat="53.167304" lon="-3.943430"><ele>754</ele><time>2020-08-16T13:59:59Z</time><name>PT8634</name></trkpt>
<trkpt lat="53.167302" lon="-3.943414"><ele>754</ele><time>2020-08-16T14:00:00Z</time><name>PT8635</name></trkpt>
<trkpt lat="53.167302" lon="-3.943408"><ele>754</ele><time>2020-08-16T14:00:01Z</time><name>PT8636</name></trkpt>
<trkpt lat="53.167302" lon="-3.943393"><ele>754</ele><time>2020-08-16T14:00:02Z</time><name>PT8637</name></trkpt>
<trkpt lat="53.167302" lon="-3.943376"><ele>753</ele><time>2020-08-16T14:00:03Z</time><name>PT8638</name></trkpt>
<trkpt lat="53.167303" lon="-3.943358"><ele>753</ele><time>2020-08-16T14:00:04Z</time><name>PT8639</name></trkpt>
<trkpt lat="53.167304" lon="-3.943339"><ele>753</ele><time>2020-08-16T14:00:05Z</time><name>PT8640</name></trkpt>
<trkpt lat="53.167304" lon="-3.943320"><ele>753</ele><time>2020-08-16T14:00:06Z</time><name>PT8641</name></trkpt>
<trkpt lat="53.167302" lon="-3.943301"><ele>753</ele><time>2020-08-16T14:00:07Z</time><name>PT8642</name></trkpt>
<trkpt lat="53.167300" lon="-3.943284"><ele>753</ele><time>2020-08-16T14:00:08Z</time><name>PT8643</name></trkpt>
<trkpt lat="53.167301" lon="-3.943264"><ele>752</ele><time>2020-08-16T14:00:09Z</time><name>PT8644</name></trkpt>
<trkpt lat="53.167300" lon="-3.943245"><ele>752</ele><time>2020-08-16T14:00:10Z</time><name>PT8645</name></trkpt>
<trkpt lat="53.167299" lon="-3.943227"><ele>752</ele><time>2020-08-16T14:00:11Z</time><name>PT8646</name></trkpt>
<trkpt lat="53.167295" lon="-3.943205"><ele>752</ele><time>2020-08-16T14:00:12Z</time><name>PT8647</name></trkpt>
<trkpt lat="53.167292" lon="-3.943184"><ele>751</ele><time>2020-08-16T14:00:13Z</time><name>PT8648</name></trkpt>
<trkpt lat="53.167292" lon="-3.943164"><ele>751</ele><time>2020-08-16T14:00:14Z</time><name>PT8649</name></trkpt>
<trkpt lat="53.167292" lon="-3.943146"><ele>751</ele><time>2020-08-16T14:00:15Z</time><name>PT8650</name></trkpt>
<trkpt lat="53.167292" lon="-3.943128"><ele>751</ele><time>2020-08-16T14:00:16Z</time><name>PT8651</name></trkpt>
<trkpt lat="53.167293" lon="-3.943111"><ele>750</ele><time>2020-08-16T14:00:17Z</time><name>PT8652</name></trkpt>
<trkpt lat="53.167293" lon="-3.943093"><ele>750</ele><time>2020-08-16T14:00:18Z</time><name>PT8653</name></trkpt>
<trkpt lat="53.167294" lon="-3.943075"><ele>750</ele><time>2020-08-16T14:00:19Z</time><name>PT8654</name></trkpt>
<trkpt lat="53.167294" lon="-3.943054"><ele>750</ele><time>2020-08-16T14:00:20Z</time><name>PT8655</name></trkpt>
<trkpt lat="53.167293" lon="-3.943035"><ele>750</ele><time>2020-08-16T14:00:21Z</time><name>PT8656</name></trkpt>
<trkpt lat="53.167294" lon="-3.943018"><ele>749</ele><time>2020-08-16T14:00:22Z</time><name>PT8657</name></trkpt>
<trkpt lat="53.167294" lon="-3.943000"><ele>749</ele><time>2020-08-16T14:00:23Z</time><name>PT8658</name></trkpt>
<trkpt lat="53.167297" lon="-3.942982"><ele>749</ele><time>2020-08-16T14:00:24Z</time><name>PT8659</name></trkpt>
<trkpt lat="53.167298" lon="-3.942964"><ele>749</ele><time>2020-08-16T14:00:25Z</time><name>PT8660</name></trkpt>
<trkpt lat="53.167297" lon="-3.942946"><ele>748</ele><time>2020-08-16T14:00:26Z</time><name>PT8661</name></trkpt>
<trkpt lat="53.167295" lon="-3.942927"><ele>748</ele><time>2020-08-16T14:00:27Z</time><name>PT8662</name></trkpt>
<trkpt lat="53.167298" lon="-3.942916"><ele>748</ele><time>2020-08-16T14:00:28Z</time><name>PT8663</name></trkpt>
<trkpt lat="53.167294" lon="-3.942900"><ele>747</ele><time>2020-08-16T14:00:29Z</time><name>PT8664</name></trkpt>
<trkpt lat="53.167292" lon="-3.942884"><ele>747</ele><time>2020-08-16T14:00:30Z</time><name>PT8665</name></trkpt>
<trkpt lat="53.167292" lon="-3.942866"><ele>747</ele><time>2020-08-16T14:00:31Z</time><name>PT8666</name></trkpt>
<trkpt lat="53.167294" lon="-3.942846"><ele>747</ele><time>2020-08-16T14:00:32Z</time><name>PT8667</name></trkpt>
<trkpt lat="53.167294" lon="-3.942827"><ele>747</ele><time>2020-08-16T14:00:33Z</time><name>PT8668</name></trkpt>
<trkpt lat="53.167294" lon="-3.942811"><ele>746</ele><time>2020-08-16T14:00:34Z</time><name>PT8669</name></trkpt>
<trkpt lat="53.167294" lon="-3.942795"><ele>746</ele><time>2020-08-16T14:00:35Z</time><name>PT8670</name></trkpt>
<trkpt lat="53.167293" lon="-3.942777"><ele>746</ele><time>2020-08-16T14:00:36Z</time><name>PT8671</name></trkpt>
<trkpt lat="53.167292" lon="-3.942763"><ele>746</ele><time>2020-08-16T14:00:37Z</time><name>PT8672</name></trkpt>
<trkpt lat="53.167290" lon="-3.942745"><ele>746</ele><time>2020-08-16T14:00:38Z</time><name>PT8673</name></trkpt>
<trkpt lat="53.167289" lon="-3.942728"><ele>746</ele><time>2020-08-16T14:00:39Z</time><name>PT8674</name></trkpt>
<trkpt lat="53.167288" lon="-3.942715"><ele>746</ele><time>2020-08-16T14:00:40Z</time><name>PT8675</name></trkpt>
<trkpt lat="53.167288" lon="-3.942705"><ele>746</ele><time>2020-08-16T14:00:41Z</time><name>PT8676</name></trkpt>
<trkpt lat="53.167288" lon="-3.942702"><ele>746</ele><time>2020-08-16T14:00:42Z</time><name>PT8677</name></trkpt>
<trkpt lat="53.167288" lon="-3.942702"><ele>746</ele><time>2020-08-16T14:00:43Z</time><name>PT8678</name></trkpt>
<trkpt lat="53.167289" lon="-3.942702"><ele>746</ele><time>2020-08-16T14:00:44Z</time><name>PT8679</name></trkpt>
<trkpt lat="53.167291" lon="-3.942700"><ele>746</ele><time>2020-08-16T14:01:20Z</time><name>PT8680</name></trkpt>
<trkpt lat="53.167292" lon="-3.942703"><ele>746</ele><time>2020-08-16T14:01:21Z</time><name>PT8681</name></trkpt>
<trkpt lat="53.167292" lon="-3.942703"><ele>746</ele><time>2020-08-16T14:01:22Z</time><name>PT8682</name></trkpt>
<trkpt lat="53.167290" lon="-3.942700"><ele>746</ele><time>2020-08-16T14:01:44Z</time><name>PT8683</name></trkpt>
<trkpt lat="53.167291" lon="-3.942698"><ele>746</ele><time>2020-08-16T14:01:45Z</time><name>PT8684</name></trkpt>
<trkpt lat="53.167291" lon="-3.942687"><ele>745</ele><time>2020-08-16T14:01:46Z</time><name>PT8685</name></trkpt>
<trkpt lat="53.167294" lon="-3.942676"><ele>745</ele><time>2020-08-16T14:01:47Z</time><name>PT8686</name></trkpt>
<trkpt lat="53.167297" lon="-3.942662"><ele>745</ele><time>2020-08-16T14:01:48Z</time><name>PT8687</name></trkpt>
<trkpt lat="53.167297" lon="-3.942648"><ele>745</ele><time>2020-08-16T14:01:49Z</time><name>PT8688</name></trkpt>
<trkpt lat="53.167295" lon="-3.942633"><ele>745</ele><time>2020-08-16T14:01:50Z</time><name>PT8689</name></trkpt>
<trkpt lat="53.167295" lon="-3.942619"><ele>745</ele><time>2020-08-16T14:01:51Z</time><name>PT8690</name></trkpt>
<trkpt lat="53.167293" lon="-3.942603"><ele>745</ele><time>2020-08-16T14:01:52Z</time><name>PT8691</name></trkpt>
<trkpt lat="53.167291" lon="-3.942589"><ele>745</ele><time>2020-08-16T14:01:53Z</time><name>PT8692</name></trkpt>
<trkpt lat="53.167289" lon="-3.942574"><ele>744</ele><time>2020-08-16T14:01:54Z</time><name>PT8693</name></trkpt>
<trkpt lat="53.167288" lon="-3.942559"><ele>744</ele><time>2020-08-16T14:01:55Z</time><name>PT8694</name></trkpt>
<trkpt lat="53.167287" lon="-3.942542"><ele>744</ele><time>2020-08-16T14:01:56Z</time><name>PT8695</name></trkpt>
<trkpt lat="53.167286" lon="-3.942523"><ele>744</ele><time>2020-08-16T14:01:57Z</time><name>PT8696</name></trkpt>
<trkpt lat="53.167285" lon="-3.942502"><ele>744</ele><time>2020-08-16T14:01:58Z</time><name>PT8697</name></trkpt>
<trkpt lat="53.167285" lon="-3.942483"><ele>744</ele><time>2020-08-16T14:01:59Z</time><name>PT8698</name></trkpt>
<trkpt lat="53.167286" lon="-3.942465"><ele>744</ele><time>2020-08-16T14:02:00Z</time><name>PT8699</name></trkpt>
<trkpt lat="53.167286" lon="-3.942446"><ele>744</ele><time>2020-08-16T14:02:01Z</time><name>PT8700</name></trkpt>
<trkpt lat="53.167286" lon="-3.942428"><ele>744</ele><time>2020-08-16T14:02:02Z</time><name>PT8701</name></trkpt>
<trkpt lat="53.167285" lon="-3.942409"><ele>743</ele><time>2020-08-16T14:02:03Z</time><name>PT8702</name></trkpt>
<trkpt lat="53.167284" lon="-3.942391"><ele>743</ele><time>2020-08-16T14:02:04Z</time><name>PT8703</name></trkpt>
<trkpt lat="53.167285" lon="-3.942374"><ele>743</ele><time>2020-08-16T14:02:05Z</time><name>PT8704</name></trkpt>
<trkpt lat="53.167284" lon="-3.942359"><ele>743</ele><time>2020-08-16T14:02:06Z</time><name>PT8705</name></trkpt>
<trkpt lat="53.167283" lon="-3.942343"><ele>743</ele><time>2020-08-16T14:02:07Z</time><name>PT8706</name></trkpt>
<trkpt lat="53.167281" lon="-3.942329"><ele>743</ele><time>2020-08-16T14:02:08Z</time><name>PT8707</name></trkpt>
<trkpt lat="53.167281" lon="-3.942311"><ele>743</ele><time>2020-08-16T14:02:09Z</time><name>PT8708</name></trkpt>
<trkpt lat="53.167280" lon="-3.942297"><ele>743</ele><time>2020-08-16T14:02:10Z</time><name>PT8709</name></trkpt>
<trkpt lat="53.167281" lon="-3.942283"><ele>743</ele><time>2020-08-16T14:02:11Z</time><name>PT8710</name></trkpt>
<trkpt lat="53.167283" lon="-3.942280"><ele>743</ele><time>2020-08-16T14:02:12Z</time><name>PT8711</name></trkpt>
<trkpt lat="53.167284" lon="-3.942281"><ele>744</ele><time>2020-08-16T14:02:13Z</time><name>PT8712</name></trkpt>
<trkpt lat="53.167285" lon="-3.942282"><ele>744</ele><time>2020-08-16T14:02:14Z</time><name>PT8713</name></trkpt>
<trkpt lat="53.167286" lon="-3.942284"><ele>744</ele><time>2020-08-16T14:02:15Z</time><name>PT8714</name></trkpt>
<trkpt lat="53.167284" lon="-3.942281"><ele>743</ele><time>2020-08-16T14:02:16Z</time><name>PT8715</name></trkpt>
<trkpt lat="53.167282" lon="-3.942278"><ele>743</ele><time>2020-08-16T14:02:17Z</time><name>PT8716</name></trkpt>
<trkpt lat="53.167282" lon="-3.942277"><ele>743</ele><time>2020-08-16T14:02:18Z</time><name>PT8717</name></trkpt>
<trkpt lat="53.167282" lon="-3.942278"><ele>743</ele><time>2020-08-16T14:02:19Z</time><name>PT8718</name></trkpt>
<trkpt lat="53.167278" lon="-3.942283"><ele>743</ele><time>2020-08-16T14:02:23Z</time><name>PT8719</name></trkpt>
<trkpt lat="53.167279" lon="-3.942280"><ele>744</ele><time>2020-08-16T14:02:24Z</time><name>PT8720</name></trkpt>
<trkpt lat="53.167286" lon="-3.942281"><ele>744</ele><time>2020-08-16T14:02:25Z</time><name>PT8721</name></trkpt>
<trkpt lat="53.167292" lon="-3.942284"><ele>744</ele><time>2020-08-16T14:02:26Z</time><name>PT8722</name></trkpt>
<trkpt lat="53.167294" lon="-3.942288"><ele>743</ele><time>2020-08-16T14:02:27Z</time><name>PT8723</name></trkpt>
<trkpt lat="53.167294" lon="-3.942292"><ele>744</ele><time>2020-08-16T14:02:28Z</time><name>PT8724</name></trkpt>
<trkpt lat="53.167295" lon="-3.942293"><ele>744</ele><time>2020-08-16T14:02:29Z</time><name>PT8725</name></trkpt>
<trkpt lat="53.167295" lon="-3.942295"><ele>744</ele><time>2020-08-16T14:02:30Z</time><name>PT8726</name></trkpt>
<trkpt lat="53.167296" lon="-3.942291"><ele>744</ele><time>2020-08-16T14:02:31Z</time><name>PT8727</name></trkpt>
<trkpt lat="53.167297" lon="-3.942285"><ele>744</ele><time>2020-08-16T14:02:32Z</time><name>PT8728</name></trkpt>
<trkpt lat="53.167300" lon="-3.942281"><ele>744</ele><time>2020-08-16T14:02:33Z</time><name>PT8729</name></trkpt>
<trkpt lat="53.167306" lon="-3.942280"><ele>744</ele><time>2020-08-16T14:02:34Z</time><name>PT8730</name></trkpt>
<trkpt lat="53.167310" lon="-3.942281"><ele>744</ele><time>2020-08-16T14:02:35Z</time><name>PT8731</name></trkpt>
<trkpt lat="53.167313" lon="-3.942284"><ele>744</ele><time>2020-08-16T14:02:36Z</time><name>PT8732</name></trkpt>
<trkpt lat="53.167314" lon="-3.942286"><ele>744</ele><time>2020-08-16T14:02:37Z</time><name>PT8733</name></trkpt>
<trkpt lat="53.167314" lon="-3.942287"><ele>744</ele><time>2020-08-16T14:02:38Z</time><name>PT8734</name></trkpt>
<trkpt lat="53.167314" lon="-3.942287"><ele>744</ele><time>2020-08-16T14:02:39Z</time><name>PT8735</name></trkpt>
<trkpt lat="53.167313" lon="-3.942288"><ele>744</ele><time>2020-08-16T14:02:42Z</time><name>PT8736</name></trkpt>
<trkpt lat="53.167324" lon="-3.942291"><ele>744</ele><time>2020-08-16T14:02:43Z</time><name>PT8737</name></trkpt>
<trkpt lat="53.167337" lon="-3.942290"><ele>744</ele><time>2020-08-16T14:02:44Z</time><name>PT8738</name></trkpt>
<trkpt lat="53.167350" lon="-3.942288"><ele>744</ele><time>2020-08-16T14:02:45Z</time><name>PT8739</name></trkpt>
<trkpt lat="53.167362" lon="-3.942290"><ele>745</ele><time>2020-08-16T14:02:46Z</time><name>PT8740</name></trkpt>
<trkpt lat="53.167372" lon="-3.942292"><ele>745</ele><time>2020-08-16T14:02:47Z</time><name>PT8741</name></trkpt>
<trkpt lat="53.167384" lon="-3.942296"><ele>745</ele><time>2020-08-16T14:02:48Z</time><name>PT8742</name></trkpt>
<trkpt lat="53.167396" lon="-3.942300"><ele>745</ele><time>2020-08-16T14:02:49Z</time><name>PT8743</name></trkpt>
<trkpt lat="53.167409" lon="-3.942302"><ele>745</ele><time>2020-08-16T14:02:50Z</time><name>PT8744</name></trkpt>
<trkpt lat="53.167421" lon="-3.942302"><ele>745</ele><time>2020-08-16T14:02:51Z</time><name>PT8745</name></trkpt>
<trkpt lat="53.167434" lon="-3.942304"><ele>745</ele><time>2020-08-16T14:02:52Z</time><name>PT8746</name></trkpt>
<trkpt lat="53.167445" lon="-3.942303"><ele>745</ele><time>2020-08-16T14:02:53Z</time><name>PT8747</name></trkpt>
<trkpt lat="53.167458" lon="-3.942300"><ele>745</ele><time>2020-08-16T14:02:54Z</time><name>PT8748</name></trkpt>
<trkpt lat="53.167471" lon="-3.942294"><ele>745</ele><time>2020-08-16T14:02:55Z</time><name>PT8749</name></trkpt>
<trkpt lat="53.167483" lon="-3.942289"><ele>745</ele><time>2020-08-16T14:02:56Z</time><name>PT8750</name></trkpt>
<trkpt lat="53.167495" lon="-3.942287"><ele>745</ele><time>2020-08-16T14:02:57Z</time><name>PT8751</name></trkpt>
<trkpt lat="53.167507" lon="-3.942287"><ele>745</ele><time>2020-08-16T14:02:58Z</time><name>PT8752</name></trkpt>
<trkpt lat="53.167519" lon="-3.942289"><ele>745</ele><time>2020-08-16T14:02:59Z</time><name>PT8753</name></trkpt>
<trkpt lat="53.167532" lon="-3.942291"><ele>745</ele><time>2020-08-16T14:03:00Z</time><name>PT8754</name></trkpt>
<trkpt lat="53.167545" lon="-3.942292"><ele>745</ele><time>2020-08-16T14:03:01Z</time><name>PT8755</name></trkpt>
<trkpt lat="53.167557" lon="-3.942296"><ele>745</ele><time>2020-08-16T14:03:02Z</time><name>PT8756</name></trkpt>
<trkpt lat="53.167569" lon="-3.942297"><ele>745</ele><time>2020-08-16T14:03:03Z</time><name>PT8757</name></trkpt>
<trkpt lat="53.167582" lon="-3.942296"><ele>745</ele><time>2020-08-16T14:03:04Z</time><name>PT8758</name></trkpt>
<trkpt lat="53.167595" lon="-3.942294"><ele>745</ele><time>2020-08-16T14:03:05Z</time><name>PT8759</name></trkpt>
<trkpt lat="53.167607" lon="-3.942294"><ele>745</ele><time>2020-08-16T14:03:06Z</time><name>PT8760</name></trkpt>
<trkpt lat="53.167618" lon="-3.942296"><ele>745</ele><time>2020-08-16T14:03:07Z</time><name>PT8761</name></trkpt>
<trkpt lat="53.167629" lon="-3.942301"><ele>745</ele><time>2020-08-16T14:03:08Z</time><name>PT8762</name></trkpt>
<trkpt lat="53.167641" lon="-3.942301"><ele>745</ele><time>2020-08-16T14:03:09Z</time><name>PT8763</name></trkpt>
<trkpt lat="53.167653" lon="-3.942300"><ele>745</ele><time>2020-08-16T14:03:10Z</time><name>PT8764</name></trkpt>
<trkpt lat="53.167667" lon="-3.942304"><ele>745</ele><time>2020-08-16T14:03:11Z</time><name>PT8765</name></trkpt>
<trkpt lat="53.167673" lon="-3.942307"><ele>745</ele><time>2020-08-16T14:03:12Z</time><name>PT8766</name></trkpt>
<trkpt lat="53.167675" lon="-3.942308"><ele>745</ele><time>2020-08-16T14:03:13Z</time><name>PT8767</name></trkpt>
<trkpt lat="53.167681" lon="-3.942311"><ele>745</ele><time>2020-08-16T14:03:14Z</time><name>PT8768</name></trkpt>
<trkpt lat="53.167693" lon="-3.942313"><ele>746</ele><time>2020-08-16T14:03:15Z</time><name>PT8769</name></trkpt>
<trkpt lat="53.167705" lon="-3.942319"><ele>746</ele><time>2020-08-16T14:03:16Z</time><name>PT8770</name></trkpt>
<trkpt lat="53.167716" lon="-3.942325"><ele>746</ele><time>2020-08-16T14:03:17Z</time><name>PT8771</name></trkpt>
<trkpt lat="53.167728" lon="-3.942329"><ele>746</ele><time>2020-08-16T14:03:18Z</time><name>PT8772</name></trkpt>
<trkpt lat="53.167742" lon="-3.942331"><ele>746</ele><time>2020-08-16T14:03:19Z</time><name>PT8773</name></trkpt>
<trkpt lat="53.167756" lon="-3.942331"><ele>746</ele><time>2020-08-16T14:03:20Z</time><name>PT8774</name></trkpt>
<trkpt lat="53.167768" lon="-3.942332"><ele>746</ele><time>2020-08-16T14:03:21Z</time><name>PT8775</name></trkpt>
<trkpt lat="53.167781" lon="-3.942332"><ele>746</ele><time>2020-08-16T14:03:22Z</time><name>PT8776</name></trkpt>
<trkpt lat="53.167794" lon="-3.942332"><ele>746</ele><time>2020-08-16T14:03:23Z</time><name>PT8777</name></trkpt>
<trkpt lat="53.167805" lon="-3.942330"><ele>746</ele><time>2020-08-16T14:03:24Z</time><name>PT8778</name></trkpt>
<trkpt lat="53.167816" lon="-3.942329"><ele>746</ele><time>2020-08-16T14:03:25Z</time><name>PT8779</name></trkpt>
<trkpt lat="53.167827" lon="-3.942328"><ele>746</ele><time>2020-08-16T14:03:26Z</time><name>PT8780</name></trkpt>
<trkpt lat="53.167837" lon="-3.942333"><ele>746</ele><time>2020-08-16T14:03:27Z</time><name>PT8781</name></trkpt>
<trkpt lat="53.167845" lon="-3.942338"><ele>746</ele><time>2020-08-16T14:03:28Z</time><name>PT8782</name></trkpt>
<trkpt lat="53.167854" lon="-3.942341"><ele>746</ele><time>2020-08-16T14:03:29Z</time><name>PT8783</name></trkpt>
<trkpt lat="53.167865" lon="-3.942348"><ele>746</ele><time>2020-08-16T14:03:30Z</time><name>PT8784</name></trkpt>
<trkpt lat="53.167874" lon="-3.942356"><ele>746</ele><time>2020-08-16T14:03:31Z</time><name>PT8785</name></trkpt>
<trkpt lat="53.167884" lon="-3.942364"><ele>746</ele><time>2020-08-16T14:03:32Z</time><name>PT8786</name></trkpt>
<trkpt lat="53.167894" lon="-3.942370"><ele>745</ele><time>2020-08-16T14:03:33Z</time><name>PT8787</name></trkpt>
<trkpt lat="53.167906" lon="-3.942379"><ele>746</ele><time>2020-08-16T14:03:34Z</time><name>PT8788</name></trkpt>
<trkpt lat="53.167918" lon="-3.942386"><ele>745</ele><time>2020-08-16T14:03:35Z</time><name>PT8789</name></trkpt>
<trkpt lat="53.167928" lon="-3.942391"><ele>745</ele><time>2020-08-16T14:03:36Z</time><name>PT8790</name></trkpt>
<trkpt lat="53.167938" lon="-3.942398"><ele>745</ele><time>2020-08-16T14:03:37Z</time><name>PT8791</name></trkpt>
<trkpt lat="53.167948" lon="-3.942406"><ele>745</ele><time>2020-08-16T14:03:38Z</time><name>PT8792</name></trkpt>
<trkpt lat="53.167958" lon="-3.942412"><ele>745</ele><time>2020-08-16T14:03:39Z</time><name>PT8793</name></trkpt>
<trkpt lat="53.167969" lon="-3.942418"><ele>744</ele><time>2020-08-16T14:03:40Z</time><name>PT8794</name></trkpt>
<trkpt lat="53.167981" lon="-3.942420"><ele>744</ele><time>2020-08-16T14:03:41Z</time><name>PT8795</name></trkpt>
<trkpt lat="53.167992" lon="-3.942419"><ele>744</ele><time>2020-08-16T14:03:42Z</time><name>PT8796</name></trkpt>
<trkpt lat="53.168004" lon="-3.942416"><ele>744</ele><time>2020-08-16T14:03:43Z</time><name>PT8797</name></trkpt>
<trkpt lat="53.168014" lon="-3.942412"><ele>744</ele><time>2020-08-16T14:03:44Z</time><name>PT8798</name></trkpt>
<trkpt lat="53.168026" lon="-3.942407"><ele>743</ele><time>2020-08-16T14:03:45Z</time><name>PT8799</name></trkpt>
<trkpt lat="53.168036" lon="-3.942400"><ele>743</ele><time>2020-08-16T14:03:46Z</time><name>PT8800</name></trkpt>
<trkpt lat="53.168040" lon="-3.942392"><ele>742</ele><time>2020-08-16T14:03:47Z</time><name>PT8801</name></trkpt>
<trkpt lat="53.168049" lon="-3.942387"><ele>741</ele><time>2020-08-16T14:03:48Z</time><name>PT8802</name></trkpt>
<trkpt lat="53.168058" lon="-3.942383"><ele>741</ele><time>2020-08-16T14:03:49Z</time><name>PT8803</name></trkpt>
<trkpt lat="53.168066" lon="-3.942378"><ele>740</ele><time>2020-08-16T14:03:50Z</time><name>PT8804</name></trkpt>
<trkpt lat="53.168076" lon="-3.942372"><ele>740</ele><time>2020-08-16T14:03:51Z</time><name>PT8805</name></trkpt>
<trkpt lat="53.168086" lon="-3.942365"><ele>740</ele><time>2020-08-16T14:03:52Z</time><name>PT8806</name></trkpt>
<trkpt lat="53.168097" lon="-3.942358"><ele>740</ele><time>2020-08-16T14:03:53Z</time><name>PT8807</name></trkpt>
<trkpt lat="53.168106" lon="-3.942351"><ele>740</ele><time>2020-08-16T14:03:55Z</time><name>PT8808</name></trkpt>
<trkpt lat="53.168118" lon="-3.942341"><ele>739</ele><time>2020-08-16T14:03:55Z</time><name>PT8809</name></trkpt>
<trkpt lat="53.168128" lon="-3.942330"><ele>739</ele><time>2020-08-16T14:03:56Z</time><name>PT8810</name></trkpt>
<trkpt lat="53.168140" lon="-3.942320"><ele>739</ele><time>2020-08-16T14:03:57Z</time><name>PT8811</name></trkpt>
<trkpt lat="53.168150" lon="-3.942310"><ele>739</ele><time>2020-08-16T14:03:58Z</time><name>PT8812</name></trkpt>
<trkpt lat="53.168160" lon="-3.942305"><ele>739</ele><time>2020-08-16T14:03:59Z</time><name>PT8813</name></trkpt>
<trkpt lat="53.168168" lon="-3.942296"><ele>739</ele><time>2020-08-16T14:04:00Z</time><name>PT8814</name></trkpt>
<trkpt lat="53.168177" lon="-3.942286"><ele>739</ele><time>2020-08-16T14:04:01Z</time><name>PT8815</name></trkpt>
<trkpt lat="53.168186" lon="-3.942279"><ele>739</ele><time>2020-08-16T14:04:02Z</time><name>PT8816</name></trkpt>
<trkpt lat="53.168197" lon="-3.942272"><ele>738</ele><time>2020-08-16T14:04:03Z</time><name>PT8817</name></trkpt>
<trkpt lat="53.168205" lon="-3.942264"><ele>738</ele><time>2020-08-16T14:04:04Z</time><name>PT8818</name></trkpt>
<trkpt lat="53.168210" lon="-3.942249"><ele>738</ele><time>2020-08-16T14:04:05Z</time><name>PT8819</name></trkpt>
<trkpt lat="53.168216" lon="-3.942239"><ele>738</ele><time>2020-08-16T14:04:06Z</time><name>PT8820</name></trkpt>
<trkpt lat="53.168224" lon="-3.942232"><ele>738</ele><time>2020-08-16T14:04:07Z</time><name>PT8821</name></trkpt>
<trkpt lat="53.168233" lon="-3.942226"><ele>738</ele><time>2020-08-16T14:04:08Z</time><name>PT8822</name></trkpt>
<trkpt lat="53.168244" lon="-3.942219"><ele>737</ele><time>2020-08-16T14:04:09Z</time><name>PT8823</name></trkpt>
<trkpt lat="53.168255" lon="-3.942211"><ele>737</ele><time>2020-08-16T14:04:10Z</time><name>PT8824</name></trkpt>
<trkpt lat="53.168263" lon="-3.942203"><ele>737</ele><time>2020-08-16T14:04:11Z</time><name>PT8825</name></trkpt>
<trkpt lat="53.168272" lon="-3.942198"><ele>736</ele><time>2020-08-16T14:04:12Z</time><name>PT8826</name></trkpt>
<trkpt lat="53.168280" lon="-3.942191"><ele>736</ele><time>2020-08-16T14:04:13Z</time><name>PT8827</name></trkpt>
<trkpt lat="53.168286" lon="-3.942181"><ele>736</ele><time>2020-08-16T14:04:14Z</time><name>PT8828</name></trkpt>
<trkpt lat="53.168294" lon="-3.942172"><ele>735</ele><time>2020-08-16T14:04:15Z</time><name>PT8829</name></trkpt>
<trkpt lat="53.168302" lon="-3.942167"><ele>735</ele><time>2020-08-16T14:04:16Z</time><name>PT8830</name></trkpt>
<trkpt lat="53.168311" lon="-3.942162"><ele>735</ele><time>2020-08-16T14:04:17Z</time><name>PT8831</name></trkpt>
<trkpt lat="53.168320" lon="-3.942155"><ele>734</ele><time>2020-08-16T14:04:18Z</time><name>PT8832</name></trkpt>
<trkpt lat="53.168329" lon="-3.942144"><ele>734</ele><time>2020-08-16T14:04:19Z</time><name>PT8833</name></trkpt>
<trkpt lat="53.168337" lon="-3.942133"><ele>734</ele><time>2020-08-16T14:04:20Z</time><name>PT8834</name></trkpt>
<trkpt lat="53.168346" lon="-3.942120"><ele>734</ele><time>2020-08-16T14:04:21Z</time><name>PT8835</name></trkpt>
<trkpt lat="53.168355" lon="-3.942109"><ele>733</ele><time>2020-08-16T14:04:22Z</time><name>PT8836</name></trkpt>
<trkpt lat="53.168363" lon="-3.942099"><ele>733</ele><time>2020-08-16T14:04:23Z</time><name>PT8837</name></trkpt>
<trkpt lat="53.168393" lon="-3.942070"><ele>732</ele><time>2020-08-16T14:04:27Z</time><name>PT8838</name></trkpt>
<trkpt lat="53.168427" lon="-3.942050"><ele>731</ele><time>2020-08-16T14:04:31Z</time><name>PT8839</name></trkpt>
<trkpt lat="53.168451" lon="-3.942072"><ele>731</ele><time>2020-08-16T14:04:34Z</time><name>PT8840</name></trkpt>
<trkpt lat="53.168479" lon="-3.942084"><ele>730</ele><time>2020-08-16T14:04:38Z</time><name>PT8841</name></trkpt>
<trkpt lat="53.168506" lon="-3.942075"><ele>730</ele><time>2020-08-16T14:04:41Z</time><name>PT8842</name></trkpt>
<trkpt lat="53.168541" lon="-3.942067"><ele>729</ele><time>2020-08-16T14:04:45Z</time><name>PT8843</name></trkpt>
<trkpt lat="53.168581" lon="-3.942068"><ele>729</ele><time>2020-08-16T14:04:49Z</time><name>PT8844</name></trkpt>
<trkpt lat="53.168595" lon="-3.942059"><ele>729</ele><time>2020-08-16T14:04:51Z</time><name>PT8845</name></trkpt>
<trkpt lat="53.168600" lon="-3.942055"><ele>729</ele><time>2020-08-16T14:04:52Z</time><name>PT8846</name></trkpt>
<trkpt lat="53.168604" lon="-3.942052"><ele>728</ele><time>2020-08-16T14:04:53Z</time><name>PT8847</name></trkpt>
<trkpt lat="53.168610" lon="-3.942047"><ele>728</ele><time>2020-08-16T14:04:54Z</time><name>PT8848</name></trkpt>
<trkpt lat="53.168615" lon="-3.942042"><ele>728</ele><time>2020-08-16T14:04:55Z</time><name>PT8849</name></trkpt>
<trkpt lat="53.168620" lon="-3.942037"><ele>727</ele><time>2020-08-16T14:04:56Z</time><name>PT8850</name></trkpt>
<trkpt lat="53.168622" lon="-3.942033"><ele>727</ele><time>2020-08-16T14:04:57Z</time><name>PT8851</name></trkpt>
<trkpt lat="53.168626" lon="-3.942026"><ele>727</ele><time>2020-08-16T14:04:58Z</time><name>PT8852</name></trkpt>
<trkpt lat="53.168630" lon="-3.942023"><ele>726</ele><time>2020-08-16T14:04:59Z</time><name>PT8853</name></trkpt>
<trkpt lat="53.168630" lon="-3.942017"><ele>726</ele><time>2020-08-16T14:05:00Z</time><name>PT8854</name></trkpt>
<trkpt lat="53.168634" lon="-3.941998"><ele>726</ele><time>2020-08-16T14:05:01Z</time><name>PT8855</name></trkpt>
<trkpt lat="53.168643" lon="-3.941991"><ele>726</ele><time>2020-08-16T14:05:02Z</time><name>PT8856</name></trkpt>
<trkpt lat="53.168650" lon="-3.941988"><ele>725</ele><time>2020-08-16T14:05:03Z</time><name>PT8857</name></trkpt>
<trkpt lat="53.168657" lon="-3.941980"><ele>725</ele><time>2020-08-16T14:05:04Z</time><name>PT8858</name></trkpt>
<trkpt lat="53.168666" lon="-3.941976"><ele>725</ele><time>2020-08-16T14:05:05Z</time><name>PT8859</name></trkpt>
<trkpt lat="53.168674" lon="-3.941974"><ele>725</ele><time>2020-08-16T14:05:06Z</time><name>PT8860</name></trkpt>
<trkpt lat="53.168682" lon="-3.941971"><ele>725</ele><time>2020-08-16T14:05:07Z</time><name>PT8861</name></trkpt>
<trkpt lat="53.168687" lon="-3.941970"><ele>725</ele><time>2020-08-16T14:05:08Z</time><name>PT8862</name></trkpt>
<trkpt lat="53.168692" lon="-3.941972"><ele>725</ele><time>2020-08-16T14:05:09Z</time><name>PT8863</name></trkpt>
<trkpt lat="53.168695" lon="-3.941981"><ele>725</ele><time>2020-08-16T14:05:10Z</time><name>PT8864</name></trkpt>
<trkpt lat="53.168700" lon="-3.941992"><ele>725</ele><time>2020-08-16T14:05:11Z</time><name>PT8865</name></trkpt>
<trkpt lat="53.168702" lon="-3.942000"><ele>725</ele><time>2020-08-16T14:05:12Z</time><name>PT8866</name></trkpt>
<trkpt lat="53.168704" lon="-3.942007"><ele>724</ele><time>2020-08-16T14:05:13Z</time><name>PT8867</name></trkpt>
<trkpt lat="53.168702" lon="-3.942010"><ele>724</ele><time>2020-08-16T14:05:14Z</time><name>PT8868</name></trkpt>
<trkpt lat="53.168697" lon="-3.942010"><ele>724</ele><time>2020-08-16T14:05:15Z</time><name>PT8869</name></trkpt>
<trkpt lat="53.168694" lon="-3.942007"><ele>724</ele><time>2020-08-16T14:05:16Z</time><name>PT8870</name></trkpt>
<trkpt lat="53.168694" lon="-3.942007"><ele>724</ele><time>2020-08-16T14:05:17Z</time><name>PT8871</name></trkpt>
<trkpt lat="53.168695" lon="-3.942008"><ele>724</ele><time>2020-08-16T14:05:18Z</time><name>PT8872</name></trkpt>
<trkpt lat="53.168699" lon="-3.942006"><ele>724</ele><time>2020-08-16T14:05:19Z</time><name>PT8873</name></trkpt>
<trkpt lat="53.168707" lon="-3.942000"><ele>724</ele><time>2020-08-16T14:05:20Z</time><name>PT8874</name></trkpt>
<trkpt lat="53.168714" lon="-3.941993"><ele>724</ele><time>2020-08-16T14:05:21Z</time><name>PT8875</name></trkpt>
<trkpt lat="53.168719" lon="-3.941990"><ele>723</ele><time>2020-08-16T14:05:22Z</time><name>PT8876</name></trkpt>
<trkpt lat="53.168723" lon="-3.941991"><ele>723</ele><time>2020-08-16T14:05:23Z</time><name>PT8877</name></trkpt>
<trkpt lat="53.168727" lon="-3.941992"><ele>723</ele><time>2020-08-16T14:05:24Z</time><name>PT8878</name></trkpt>
<trkpt lat="53.168728" lon="-3.941994"><ele>723</ele><time>2020-08-16T14:05:25Z</time><name>PT8879</name></trkpt>
<trkpt lat="53.168731" lon="-3.941995"><ele>723</ele><time>2020-08-16T14:05:26Z</time><name>PT8880</name></trkpt>
<trkpt lat="53.168734" lon="-3.942001"><ele>722</ele><time>2020-08-16T14:05:27Z</time><name>PT8881</name></trkpt>
<trkpt lat="53.168737" lon="-3.942007"><ele>722</ele><time>2020-08-16T14:05:28Z</time><name>PT8882</name></trkpt>
<trkpt lat="53.168739" lon="-3.942009"><ele>722</ele><time>2020-08-16T14:05:29Z</time><name>PT8883</name></trkpt>
<trkpt lat="53.168741" lon="-3.942019"><ele>721</ele><time>2020-08-16T14:05:30Z</time><name>PT8884</name></trkpt>
<trkpt lat="53.168742" lon="-3.942026"><ele>721</ele><time>2020-08-16T14:05:31Z</time><name>PT8885</name></trkpt>
<trkpt lat="53.168744" lon="-3.942035"><ele>721</ele><time>2020-08-16T14:05:32Z</time><name>PT8886</name></trkpt>
<trkpt lat="53.168739" lon="-3.942044"><ele>721</ele><time>2020-08-16T14:05:33Z</time><name>PT8887</name></trkpt>
<trkpt lat="53.168741" lon="-3.942056"><ele>720</ele><time>2020-08-16T14:05:34Z</time><name>PT8888</name></trkpt>
<trkpt lat="53.168746" lon="-3.942057"><ele>720</ele><time>2020-08-16T14:05:35Z</time><name>PT8889</name></trkpt>
<trkpt lat="53.168752" lon="-3.942059"><ele>721</ele><time>2020-08-16T14:05:36Z</time><name>PT8890</name></trkpt>
<trkpt lat="53.168755" lon="-3.942064"><ele>720</ele><time>2020-08-16T14:05:37Z</time><name>PT8891</name></trkpt>
<trkpt lat="53.168760" lon="-3.942076"><ele>720</ele><time>2020-08-16T14:05:38Z</time><name>PT8892</name></trkpt>
<trkpt lat="53.168766" lon="-3.942079"><ele>720</ele><time>2020-08-16T14:05:39Z</time><name>PT8893</name></trkpt>
<trkpt lat="53.168773" lon="-3.942080"><ele>720</ele><time>2020-08-16T14:05:40Z</time><name>PT8894</name></trkpt>
<trkpt lat="53.168779" lon="-3.942081"><ele>719</ele><time>2020-08-16T14:05:41Z</time><name>PT8895</name></trkpt>
<trkpt lat="53.168784" lon="-3.942082"><ele>719</ele><time>2020-08-16T14:05:42Z</time><name>PT8896</name></trkpt>
<trkpt lat="53.168789" lon="-3.942082"><ele>718</ele><time>2020-08-16T14:05:43Z</time><name>PT8897</name></trkpt>
<trkpt lat="53.168796" lon="-3.942081"><ele>718</ele><time>2020-08-16T14:05:44Z</time><name>PT8898</name></trkpt>
<trkpt lat="53.168803" lon="-3.942078"><ele>718</ele><time>2020-08-16T14:05:45Z</time><name>PT8899</name></trkpt>
<trkpt lat="53.168806" lon="-3.942071"><ele>717</ele><time>2020-08-16T14:05:46Z</time><name>PT8900</name></trkpt>
<trkpt lat="53.168809" lon="-3.942066"><ele>718</ele><time>2020-08-16T14:05:47Z</time><name>PT8901</name></trkpt>
<trkpt lat="53.168809" lon="-3.942064"><ele>718</ele><time>2020-08-16T14:05:48Z</time><name>PT8902</name></trkpt>
<trkpt lat="53.168812" lon="-3.942059"><ele>718</ele><time>2020-08-16T14:05:49Z</time><name>PT8903</name></trkpt>
<trkpt lat="53.168810" lon="-3.942054"><ele>718</ele><time>2020-08-16T14:05:50Z</time><name>PT8904</name></trkpt>
<trkpt lat="53.168813" lon="-3.942050"><ele>717</ele><time>2020-08-16T14:05:51Z</time><name>PT8905</name></trkpt>
<trkpt lat="53.168823" lon="-3.942045"><ele>717</ele><time>2020-08-16T14:05:52Z</time><name>PT8906</name></trkpt>
<trkpt lat="53.168828" lon="-3.942038"><ele>717</ele><time>2020-08-16T14:05:53Z</time><name>PT8907</name></trkpt>
<trkpt lat="53.168833" lon="-3.942030"><ele>717</ele><time>2020-08-16T14:05:54Z</time><name>PT8908</name></trkpt>
<trkpt lat="53.168840" lon="-3.942028"><ele>718</ele><time>2020-08-16T14:05:55Z</time><name>PT8909</name></trkpt>
<trkpt lat="53.168841" lon="-3.942025"><ele>718</ele><time>2020-08-16T14:05:56Z</time><name>PT8910</name></trkpt>
<trkpt lat="53.168842" lon="-3.942028"><ele>718</ele><time>2020-08-16T14:05:57Z</time><name>PT8911</name></trkpt>
<trkpt lat="53.168846" lon="-3.942027"><ele>718</ele><time>2020-08-16T14:05:58Z</time><name>PT8912</name></trkpt>
<trkpt lat="53.168849" lon="-3.942026"><ele>718</ele><time>2020-08-16T14:05:59Z</time><name>PT8913</name></trkpt>
<trkpt lat="53.168854" lon="-3.942027"><ele>718</ele><time>2020-08-16T14:06:00Z</time><name>PT8914</name></trkpt>
<trkpt lat="53.168860" lon="-3.942031"><ele>718</ele><time>2020-08-16T14:06:01Z</time><name>PT8915</name></trkpt>
<trkpt lat="53.168865" lon="-3.942034"><ele>718</ele><time>2020-08-16T14:06:02Z</time><name>PT8916</name></trkpt>
<trkpt lat="53.168869" lon="-3.942040"><ele>718</ele><time>2020-08-16T14:06:03Z</time><name>PT8917</name></trkpt>
<trkpt lat="53.168873" lon="-3.942045"><ele>718</ele><time>2020-08-16T14:06:04Z</time><name>PT8918</name></trkpt>
<trkpt lat="53.168875" lon="-3.942052"><ele>717</ele><time>2020-08-16T14:06:05Z</time><name>PT8919</name></trkpt>
<trkpt lat="53.168881" lon="-3.942055"><ele>717</ele><time>2020-08-16T14:06:06Z</time><name>PT8920</name></trkpt>
<trkpt lat="53.168886" lon="-3.942055"><ele>717</ele><time>2020-08-16T14:06:07Z</time><name>PT8921</name></trkpt>
<trkpt lat="53.168892" lon="-3.942054"><ele>717</ele><time>2020-08-16T14:06:08Z</time><name>PT8922</name></trkpt>
<trkpt lat="53.168899" lon="-3.942053"><ele>716</ele><time>2020-08-16T14:06:09Z</time><name>PT8923</name></trkpt>
<trkpt lat="53.168905" lon="-3.942052"><ele>716</ele><time>2020-08-16T14:06:10Z</time><name>PT8924</name></trkpt>
<trkpt lat="53.168912" lon="-3.942054"><ele>715</ele><time>2020-08-16T14:06:11Z</time><name>PT8925</name></trkpt>
<trkpt lat="53.168914" lon="-3.942060"><ele>715</ele><time>2020-08-16T14:06:12Z</time><name>PT8926</name></trkpt>
<trkpt lat="53.168919" lon="-3.942065"><ele>714</ele><time>2020-08-16T14:06:13Z</time><name>PT8927</name></trkpt>
<trkpt lat="53.168921" lon="-3.942071"><ele>713</ele><time>2020-08-16T14:06:14Z</time><name>PT8928</name></trkpt>
<trkpt lat="53.168924" lon="-3.942076"><ele>713</ele><time>2020-08-16T14:06:15Z</time><name>PT8929</name></trkpt>
<trkpt lat="53.168926" lon="-3.942080"><ele>712</ele><time>2020-08-16T14:06:16Z</time><name>PT8930</name></trkpt>
<trkpt lat="53.168928" lon="-3.942086"><ele>712</ele><time>2020-08-16T14:06:17Z</time><name>PT8931</name></trkpt>
<trkpt lat="53.168932" lon="-3.942093"><ele>711</ele><time>2020-08-16T14:06:18Z</time><name>PT8932</name></trkpt>
<trkpt lat="53.168937" lon="-3.942101"><ele>711</ele><time>2020-08-16T14:06:19Z</time><name>PT8933</name></trkpt>
<trkpt lat="53.168942" lon="-3.942106"><ele>711</ele><time>2020-08-16T14:06:20Z</time><name>PT8934</name></trkpt>
<trkpt lat="53.168947" lon="-3.942111"><ele>710</ele><time>2020-08-16T14:06:21Z</time><name>PT8935</name></trkpt>
<trkpt lat="53.168954" lon="-3.942120"><ele>710</ele><time>2020-08-16T14:06:22Z</time><name>PT8936</name></trkpt>
<trkpt lat="53.168961" lon="-3.942121"><ele>710</ele><time>2020-08-16T14:06:24Z</time><name>PT8937</name></trkpt>
<trkpt lat="53.168967" lon="-3.942115"><ele>709</ele><time>2020-08-16T14:06:24Z</time><name>PT8938</name></trkpt>
<trkpt lat="53.168970" lon="-3.942110"><ele>708</ele><time>2020-08-16T14:06:25Z</time><name>PT8939</name></trkpt>
<trkpt lat="53.168973" lon="-3.942112"><ele>708</ele><time>2020-08-16T14:06:26Z</time><name>PT8940</name></trkpt>
<trkpt lat="53.168977" lon="-3.942112"><ele>707</ele><time>2020-08-16T14:06:27Z</time><name>PT8941</name></trkpt>
<trkpt lat="53.168984" lon="-3.942110"><ele>707</ele><time>2020-08-16T14:06:29Z</time><name>PT8942</name></trkpt>
<trkpt lat="53.168993" lon="-3.942109"><ele>706</ele><time>2020-08-16T14:06:29Z</time><name>PT8943</name></trkpt>
<trkpt lat="53.169000" lon="-3.942112"><ele>705</ele><time>2020-08-16T14:06:30Z</time><name>PT8944</name></trkpt>
<trkpt lat="53.169002" lon="-3.942107"><ele>705</ele><time>2020-08-16T14:06:31Z</time><name>PT8945</name></trkpt>
<trkpt lat="53.169007" lon="-3.942111"><ele>705</ele><time>2020-08-16T14:06:32Z</time><name>PT8946</name></trkpt>
<trkpt lat="53.169011" lon="-3.942123"><ele>704</ele><time>2020-08-16T14:06:33Z</time><name>PT8947</name></trkpt>
<trkpt lat="53.169011" lon="-3.942127"><ele>704</ele><time>2020-08-16T14:06:34Z</time><name>PT8948</name></trkpt>
<trkpt lat="53.169010" lon="-3.942133"><ele>703</ele><time>2020-08-16T14:06:35Z</time><name>PT8949</name></trkpt>
<trkpt lat="53.169010" lon="-3.942138"><ele>703</ele><time>2020-08-16T14:06:36Z</time><name>PT8950</name></trkpt>
<trkpt lat="53.169014" lon="-3.942144"><ele>703</ele><time>2020-08-16T14:06:37Z</time><name>PT8951</name></trkpt>
<trkpt lat="53.169014" lon="-3.942151"><ele>703</ele><time>2020-08-16T14:06:38Z</time><name>PT8952</name></trkpt>
<trkpt lat="53.169014" lon="-3.942160"><ele>703</ele><time>2020-08-16T14:06:39Z</time><name>PT8953</name></trkpt>
<trkpt lat="53.169018" lon="-3.942161"><ele>702</ele><time>2020-08-16T14:06:40Z</time><name>PT8954</name></trkpt>
<trkpt lat="53.169024" lon="-3.942161"><ele>702</ele><time>2020-08-16T14:06:41Z</time><name>PT8955</name></trkpt>
<trkpt lat="53.169027" lon="-3.942165"><ele>701</ele><time>2020-08-16T14:06:42Z</time><name>PT8956</name></trkpt>
<trkpt lat="53.169033" lon="-3.942168"><ele>701</ele><time>2020-08-16T14:06:44Z</time><name>PT8957</name></trkpt>
<trkpt lat="53.169044" lon="-3.942167"><ele>701</ele><time>2020-08-16T14:06:44Z</time><name>PT8958</name></trkpt>
<trkpt lat="53.169052" lon="-3.942154"><ele>700</ele><time>2020-08-16T14:06:45Z</time><name>PT8959</name></trkpt>
<trkpt lat="53.169063" lon="-3.942137"><ele>700</ele><time>2020-08-16T14:06:46Z</time><name>PT8960</name></trkpt>
<trkpt lat="53.169066" lon="-3.942120"><ele>700</ele><time>2020-08-16T14:06:47Z</time><name>PT8961</name></trkpt>
<trkpt lat="53.169070" lon="-3.942110"><ele>700</ele><time>2020-08-16T14:06:48Z</time><name>PT8962</name></trkpt>
<trkpt lat="53.169075" lon="-3.942107"><ele>700</ele><time>2020-08-16T14:06:49Z</time><name>PT8963</name></trkpt>
<trkpt lat="53.169083" lon="-3.942101"><ele>699</ele><time>2020-08-16T14:06:50Z</time><name>PT8964</name></trkpt>
<trkpt lat="53.169090" lon="-3.942098"><ele>699</ele><time>2020-08-16T14:06:51Z</time><name>PT8965</name></trkpt>
<trkpt lat="53.169095" lon="-3.942093"><ele>699</ele><time>2020-08-16T14:06:52Z</time><name>PT8966</name></trkpt>
<trkpt lat="53.169099" lon="-3.942087"><ele>699</ele><time>2020-08-16T14:06:53Z</time><name>PT8967</name></trkpt>
<trkpt lat="53.169104" lon="-3.942081"><ele>699</ele><time>2020-08-16T14:06:54Z</time><name>PT8968</name></trkpt>
<trkpt lat="53.169111" lon="-3.942075"><ele>698</ele><time>2020-08-16T14:06:55Z</time><name>PT8969</name></trkpt>
<trkpt lat="53.169117" lon="-3.942078"><ele>698</ele><time>2020-08-16T14:06:56Z</time><name>PT8970</name></trkpt>
<trkpt lat="53.169120" lon="-3.942085"><ele>698</ele><time>2020-08-16T14:06:57Z</time><name>PT8971</name></trkpt>
<trkpt lat="53.169129" lon="-3.942091"><ele>698</ele><time>2020-08-16T14:06:58Z</time><name>PT8972</name></trkpt>
<trkpt lat="53.169132" lon="-3.942099"><ele>697</ele><time>2020-08-16T14:06:59Z</time><name>PT8973</name></trkpt>
<trkpt lat="53.169137" lon="-3.942107"><ele>697</ele><time>2020-08-16T14:07:00Z</time><name>PT8974</name></trkpt>
<trkpt lat="53.169144" lon="-3.942118"><ele>697</ele><time>2020-08-16T14:07:01Z</time><name>PT8975</name></trkpt>
<trkpt lat="53.169152" lon="-3.942128"><ele>697</ele><time>2020-08-16T14:07:02Z</time><name>PT8976</name></trkpt>
<trkpt lat="53.169160" lon="-3.942139"><ele>697</ele><time>2020-08-16T14:07:03Z</time><name>PT8977</name></trkpt>
<trkpt lat="53.169166" lon="-3.942148"><ele>697</ele><time>2020-08-16T14:07:04Z</time><name>PT8978</name></trkpt>
<trkpt lat="53.169172" lon="-3.942158"><ele>697</ele><time>2020-08-16T14:07:05Z</time><name>PT8979</name></trkpt>
<trkpt lat="53.169178" lon="-3.942164"><ele>696</ele><time>2020-08-16T14:07:06Z</time><name>PT8980</name></trkpt>
<trkpt lat="53.169183" lon="-3.942169"><ele>696</ele><time>2020-08-16T14:07:07Z</time><name>PT8981</name></trkpt>
<trkpt lat="53.169190" lon="-3.942177"><ele>696</ele><time>2020-08-16T14:07:08Z</time><name>PT8982</name></trkpt>
<trkpt lat="53.169197" lon="-3.942183"><ele>696</ele><time>2020-08-16T14:07:09Z</time><name>PT8983</name></trkpt>
<trkpt lat="53.169204" lon="-3.942191"><ele>695</ele><time>2020-08-16T14:07:10Z</time><name>PT8984</name></trkpt>
<trkpt lat="53.169210" lon="-3.942200"><ele>695</ele><time>2020-08-16T14:07:11Z</time><name>PT8985</name></trkpt>
<trkpt lat="53.169214" lon="-3.942209"><ele>695</ele><time>2020-08-16T14:07:12Z</time><name>PT8986</name></trkpt>
<trkpt lat="53.169218" lon="-3.942215"><ele>694</ele><time>2020-08-16T14:07:13Z</time><name>PT8987</name></trkpt>
<trkpt lat="53.169224" lon="-3.942221"><ele>694</ele><time>2020-08-16T14:07:14Z</time><name>PT8988</name></trkpt>
<trkpt lat="53.169227" lon="-3.942230"><ele>694</ele><time>2020-08-16T14:07:15Z</time><name>PT8989</name></trkpt>
<trkpt lat="53.169229" lon="-3.942241"><ele>694</ele><time>2020-08-16T14:07:16Z</time><name>PT8990</name></trkpt>
<trkpt lat="53.169233" lon="-3.942252"><ele>693</ele><time>2020-08-16T14:07:17Z</time><name>PT8991</name></trkpt>
<trkpt lat="53.169238" lon="-3.942256"><ele>693</ele><time>2020-08-16T14:07:18Z</time><name>PT8992</name></trkpt>
<trkpt lat="53.169242" lon="-3.942265"><ele>692</ele><time>2020-08-16T14:07:19Z</time><name>PT8993</name></trkpt>
<trkpt lat="53.169244" lon="-3.942273"><ele>692</ele><time>2020-08-16T14:07:20Z</time><name>PT8994</name></trkpt>
<trkpt lat="53.169246" lon="-3.942283"><ele>691</ele><time>2020-08-16T14:07:21Z</time><name>PT8995</name></trkpt>
<trkpt lat="53.169250" lon="-3.942297"><ele>691</ele><time>2020-08-16T14:07:22Z</time><name>PT8996</name></trkpt>
<trkpt lat="53.169255" lon="-3.942305"><ele>691</ele><time>2020-08-16T14:07:23Z</time><name>PT8997</name></trkpt>
<trkpt lat="53.169264" lon="-3.942304"><ele>691</ele><time>2020-08-16T14:07:24Z</time><name>PT8998</name></trkpt>
<trkpt lat="53.169272" lon="-3.942301"><ele>690</ele><time>2020-08-16T14:07:25Z</time><name>PT8999</name></trkpt>
<trkpt lat="53.169277" lon="-3.942298"><ele>690</ele><time>2020-08-16T14:07:26Z</time><name>PT9000</name></trkpt>
<trkpt lat="53.169285" lon="-3.942297"><ele>690</ele><time>2020-08-16T14:07:27Z</time><name>PT9001</name></trkpt>
<trkpt lat="53.169293" lon="-3.942299"><ele>690</ele><time>2020-08-16T14:07:28Z</time><name>PT9002</name></trkpt>
<trkpt lat="53.169299" lon="-3.942301"><ele>689</ele><time>2020-08-16T14:07:29Z</time><name>PT9003</name></trkpt>
<trkpt lat="53.169306" lon="-3.942300"><ele>689</ele><time>2020-08-16T14:07:30Z</time><name>PT9004</name></trkpt>
<trkpt lat="53.169314" lon="-3.942302"><ele>688</ele><time>2020-08-16T14:07:31Z</time><name>PT9005</name></trkpt>
<trkpt lat="53.169327" lon="-3.942302"><ele>688</ele><time>2020-08-16T14:07:32Z</time><name>PT9006</name></trkpt>
<trkpt lat="53.169338" lon="-3.942301"><ele>687</ele><time>2020-08-16T14:07:33Z</time><name>PT9007</name></trkpt>
<trkpt lat="53.169348" lon="-3.942302"><ele>686</ele><time>2020-08-16T14:07:34Z</time><name>PT9008</name></trkpt>
<trkpt lat="53.169359" lon="-3.942305"><ele>685</ele><time>2020-08-16T14:07:35Z</time><name>PT9009</name></trkpt>
<trkpt lat="53.169368" lon="-3.942309"><ele>684</ele><time>2020-08-16T14:07:36Z</time><name>PT9010</name></trkpt>
<trkpt lat="53.169380" lon="-3.942311"><ele>684</ele><time>2020-08-16T14:07:37Z</time><name>PT9011</name></trkpt>
<trkpt lat="53.169394" lon="-3.942314"><ele>683</ele><time>2020-08-16T14:07:38Z</time><name>PT9012</name></trkpt>
<trkpt lat="53.169404" lon="-3.942325"><ele>683</ele><time>2020-08-16T14:07:39Z</time><name>PT9013</name></trkpt>
<trkpt lat="53.169410" lon="-3.942336"><ele>682</ele><time>2020-08-16T14:07:40Z</time><name>PT9014</name></trkpt>
<trkpt lat="53.169418" lon="-3.942344"><ele>682</ele><time>2020-08-16T14:07:41Z</time><name>PT9015</name></trkpt>
<trkpt lat="53.169425" lon="-3.942354"><ele>681</ele><time>2020-08-16T14:07:42Z</time><name>PT9016</name></trkpt>
<trkpt lat="53.169435" lon="-3.942369"><ele>681</ele><time>2020-08-16T14:07:43Z</time><name>PT9017</name></trkpt>
<trkpt lat="53.169446" lon="-3.942382"><ele>681</ele><time>2020-08-16T14:07:44Z</time><name>PT9018</name></trkpt>
<trkpt lat="53.169452" lon="-3.942399"><ele>681</ele><time>2020-08-16T14:07:45Z</time><name>PT9019</name></trkpt>
<trkpt lat="53.169453" lon="-3.942408"><ele>681</ele><time>2020-08-16T14:07:46Z</time><name>PT9020</name></trkpt>
<trkpt lat="53.169457" lon="-3.942408"><ele>680</ele><time>2020-08-16T14:07:47Z</time><name>PT9021</name></trkpt>
<trkpt lat="53.169467" lon="-3.942405"><ele>680</ele><time>2020-08-16T14:07:48Z</time><name>PT9022</name></trkpt>
<trkpt lat="53.169480" lon="-3.942394"><ele>680</ele><time>2020-08-16T14:07:49Z</time><name>PT9023</name></trkpt>
<trkpt lat="53.169497" lon="-3.942385"><ele>680</ele><time>2020-08-16T14:07:50Z</time><name>PT9024</name></trkpt>
<trkpt lat="53.169510" lon="-3.942385"><ele>679</ele><time>2020-08-16T14:07:51Z</time><name>PT9025</name></trkpt>
<trkpt lat="53.169521" lon="-3.942410"><ele>678</ele><time>2020-08-16T14:07:55Z</time><name>PT9026</name></trkpt>
<trkpt lat="53.169547" lon="-3.942419"><ele>676</ele><time>2020-08-16T14:07:58Z</time><name>PT9027</name></trkpt>
<trkpt lat="53.169566" lon="-3.942415"><ele>676</ele><time>2020-08-16T14:08:01Z</time><name>PT9028</name></trkpt>
<trkpt lat="53.169571" lon="-3.942406"><ele>676</ele><time>2020-08-16T14:08:02Z</time><name>PT9029</name></trkpt>
<trkpt lat="53.169575" lon="-3.942405"><ele>675</ele><time>2020-08-16T14:08:03Z</time><name>PT9030</name></trkpt>
<trkpt lat="53.169577" lon="-3.942413"><ele>675</ele><time>2020-08-16T14:08:04Z</time><name>PT9031</name></trkpt>
<trkpt lat="53.169583" lon="-3.942419"><ele>675</ele><time>2020-08-16T14:08:05Z</time><name>PT9032</name></trkpt>
<trkpt lat="53.169592" lon="-3.942412"><ele>675</ele><time>2020-08-16T14:08:06Z</time><name>PT9033</name></trkpt>
<trkpt lat="53.169602" lon="-3.942402"><ele>675</ele><time>2020-08-16T14:08:07Z</time><name>PT9034</name></trkpt>
<trkpt lat="53.169610" lon="-3.942391"><ele>674</ele><time>2020-08-16T14:08:08Z</time><name>PT9035</name></trkpt>
<trkpt lat="53.169617" lon="-3.942382"><ele>674</ele><time>2020-08-16T14:08:09Z</time><name>PT9036</name></trkpt>
<trkpt lat="53.169625" lon="-3.942380"><ele>673</ele><time>2020-08-16T14:08:10Z</time><name>PT9037</name></trkpt>
<trkpt lat="53.169629" lon="-3.942380"><ele>672</ele><time>2020-08-16T14:08:11Z</time><name>PT9038</name></trkpt>
<trkpt lat="53.169632" lon="-3.942382"><ele>672</ele><time>2020-08-16T14:08:12Z</time><name>PT9039</name></trkpt>
<trkpt lat="53.169634" lon="-3.942374"><ele>671</ele><time>2020-08-16T14:08:13Z</time><name>PT9040</name></trkpt>
<trkpt lat="53.169636" lon="-3.942355"><ele>670</ele><time>2020-08-16T14:08:14Z</time><name>PT9041</name></trkpt>
<trkpt lat="53.169639" lon="-3.942346"><ele>671</ele><time>2020-08-16T14:08:15Z</time><name>PT9042</name></trkpt>
<trkpt lat="53.169644" lon="-3.942344"><ele>671</ele><time>2020-08-16T14:08:16Z</time><name>PT9043</name></trkpt>
<trkpt lat="53.169646" lon="-3.942342"><ele>671</ele><time>2020-08-16T14:08:17Z</time><name>PT9044</name></trkpt>
<trkpt lat="53.169644" lon="-3.942330"><ele>670</ele><time>2020-08-16T14:08:18Z</time><name>PT9045</name></trkpt>
<trkpt lat="53.169647" lon="-3.942311"><ele>670</ele><time>2020-08-16T14:08:19Z</time><name>PT9046</name></trkpt>
<trkpt lat="53.169657" lon="-3.942295"><ele>670</ele><time>2020-08-16T14:08:20Z</time><name>PT9047</name></trkpt>
<trkpt lat="53.169660" lon="-3.942286"><ele>668</ele><time>2020-08-16T14:08:21Z</time><name>PT9048</name></trkpt>
<trkpt lat="53.169659" lon="-3.942282"><ele>668</ele><time>2020-08-16T14:08:22Z</time><name>PT9049</name></trkpt>
<trkpt lat="53.169665" lon="-3.942279"><ele>668</ele><time>2020-08-16T14:08:23Z</time><name>PT9050</name></trkpt>
<trkpt lat="53.169671" lon="-3.942275"><ele>668</ele><time>2020-08-16T14:08:24Z</time><name>PT9051</name></trkpt>
<trkpt lat="53.169676" lon="-3.942268"><ele>668</ele><time>2020-08-16T14:08:25Z</time><name>PT9052</name></trkpt>
<trkpt lat="53.169681" lon="-3.942260"><ele>668</ele><time>2020-08-16T14:08:26Z</time><name>PT9053</name></trkpt>
<trkpt lat="53.169691" lon="-3.942248"><ele>667</ele><time>2020-08-16T14:08:27Z</time><name>PT9054</name></trkpt>
<trkpt lat="53.169703" lon="-3.942237"><ele>667</ele><time>2020-08-16T14:08:28Z</time><name>PT9055</name></trkpt>
<trkpt lat="53.169713" lon="-3.942228"><ele>667</ele><time>2020-08-16T14:08:29Z</time><name>PT9056</name></trkpt>
<trkpt lat="53.169720" lon="-3.942221"><ele>666</ele><time>2020-08-16T14:08:30Z</time><name>PT9057</name></trkpt>
<trkpt lat="53.169724" lon="-3.942218"><ele>666</ele><time>2020-08-16T14:08:31Z</time><name>PT9058</name></trkpt>
<trkpt lat="53.169729" lon="-3.942220"><ele>667</ele><time>2020-08-16T14:08:32Z</time><name>PT9059</name></trkpt>
<trkpt lat="53.169734" lon="-3.942220"><ele>667</ele><time>2020-08-16T14:08:33Z</time><name>PT9060</name></trkpt>
<trkpt lat="53.169739" lon="-3.942220"><ele>666</ele><time>2020-08-16T14:08:34Z</time><name>PT9061</name></trkpt>
<trkpt lat="53.169739" lon="-3.942225"><ele>666</ele><time>2020-08-16T14:08:35Z</time><name>PT9062</name></trkpt>
<trkpt lat="53.169739" lon="-3.942231"><ele>666</ele><time>2020-08-16T14:08:36Z</time><name>PT9063</name></trkpt>
<trkpt lat="53.169739" lon="-3.942232"><ele>665</ele><time>2020-08-16T14:08:37Z</time><name>PT9064</name></trkpt>
<trkpt lat="53.169744" lon="-3.942236"><ele>665</ele><time>2020-08-16T14:08:38Z</time><name>PT9065</name></trkpt>
<trkpt lat="53.169746" lon="-3.942241"><ele>666</ele><time>2020-08-16T14:08:39Z</time><name>PT9066</name></trkpt>
<trkpt lat="53.169753" lon="-3.942259"><ele>665</ele><time>2020-08-16T14:08:40Z</time><name>PT9067</name></trkpt>
<trkpt lat="53.169767" lon="-3.942285"><ele>664</ele><time>2020-08-16T14:08:41Z</time><name>PT9068</name></trkpt>
<trkpt lat="53.169772" lon="-3.942297"><ele>664</ele><time>2020-08-16T14:08:42Z</time><name>PT9069</name></trkpt>
<trkpt lat="53.169770" lon="-3.942303"><ele>664</ele><time>2020-08-16T14:08:43Z</time><name>PT9070</name></trkpt>
<trkpt lat="53.169778" lon="-3.942319"><ele>664</ele><time>2020-08-16T14:08:44Z</time><name>PT9071</name></trkpt>
<trkpt lat="53.169790" lon="-3.942326"><ele>665</ele><time>2020-08-16T14:08:45Z</time><name>PT9072</name></trkpt>
<trkpt lat="53.169790" lon="-3.942330"><ele>664</ele><time>2020-08-16T14:08:46Z</time><name>PT9073</name></trkpt>
<trkpt lat="53.169794" lon="-3.942331"><ele>664</ele><time>2020-08-16T14:08:47Z</time><name>PT9074</name></trkpt>
<trkpt lat="53.169802" lon="-3.942326"><ele>663</ele><time>2020-08-16T14:08:48Z</time><name>PT9075</name></trkpt>
<trkpt lat="53.169809" lon="-3.942326"><ele>663</ele><time>2020-08-16T14:08:49Z</time><name>PT9076</name></trkpt>
<trkpt lat="53.169822" lon="-3.942328"><ele>663</ele><time>2020-08-16T14:08:50Z</time><name>PT9077</name></trkpt>
<trkpt lat="53.169826" lon="-3.942322"><ele>663</ele><time>2020-08-16T14:08:51Z</time><name>PT9078</name></trkpt>
<trkpt lat="53.169836" lon="-3.942318"><ele>663</ele><time>2020-08-16T14:08:52Z</time><name>PT9079</name></trkpt>
<trkpt lat="53.169850" lon="-3.942322"><ele>664</ele><time>2020-08-16T14:08:53Z</time><name>PT9080</name></trkpt>
<trkpt lat="53.169858" lon="-3.942330"><ele>664</ele><time>2020-08-16T14:08:54Z</time><name>PT9081</name></trkpt>
<trkpt lat="53.169860" lon="-3.942332"><ele>663</ele><time>2020-08-16T14:08:55Z</time><name>PT9082</name></trkpt>
<trkpt lat="53.169860" lon="-3.942335"><ele>663</ele><time>2020-08-16T14:08:56Z</time><name>PT9083</name></trkpt>
<trkpt lat="53.169874" lon="-3.942340"><ele>662</ele><time>2020-08-16T14:08:57Z</time><name>PT9084</name></trkpt>
<trkpt lat="53.169874" lon="-3.942342"><ele>663</ele><time>2020-08-16T14:08:58Z</time><name>PT9085</name></trkpt>
<trkpt lat="53.169869" lon="-3.942334"><ele>663</ele><time>2020-08-16T14:08:59Z</time><name>PT9086</name></trkpt>
<trkpt lat="53.169873" lon="-3.942334"><ele>663</ele><time>2020-08-16T14:09:00Z</time><name>PT9087</name></trkpt>
<trkpt lat="53.169878" lon="-3.942331"><ele>663</ele><time>2020-08-16T14:09:01Z</time><name>PT9088</name></trkpt>
<trkpt lat="53.169887" lon="-3.942325"><ele>663</ele><time>2020-08-16T14:09:02Z</time><name>PT9089</name></trkpt>
<trkpt lat="53.169902" lon="-3.942320"><ele>663</ele><time>2020-08-16T14:09:03Z</time><name>PT9090</name></trkpt>
<trkpt lat="53.169910" lon="-3.942314"><ele>663</ele><time>2020-08-16T14:09:04Z</time><name>PT9091</name></trkpt>
<trkpt lat="53.169913" lon="-3.942310"><ele>662</ele><time>2020-08-16T14:09:05Z</time><name>PT9092</name></trkpt>
<trkpt lat="53.169925" lon="-3.942311"><ele>663</ele><time>2020-08-16T14:09:06Z</time><name>PT9093</name></trkpt>
<trkpt lat="53.169936" lon="-3.942311"><ele>663</ele><time>2020-08-16T14:09:07Z</time><name>PT9094</name></trkpt>
<trkpt lat="53.169951" lon="-3.942302"><ele>663</ele><time>2020-08-16T14:09:08Z</time><name>PT9095</name></trkpt>
<trkpt lat="53.169960" lon="-3.942297"><ele>663</ele><time>2020-08-16T14:09:09Z</time><name>PT9096</name></trkpt>
<trkpt lat="53.169959" lon="-3.942292"><ele>662</ele><time>2020-08-16T14:09:10Z</time><name>PT9097</name></trkpt>
<trkpt lat="53.169967" lon="-3.942288"><ele>662</ele><time>2020-08-16T14:09:11Z</time><name>PT9098</name></trkpt>
<trkpt lat="53.169981" lon="-3.942273"><ele>662</ele><time>2020-08-16T14:09:12Z</time><name>PT9099</name></trkpt>
<trkpt lat="53.169993" lon="-3.942258"><ele>661</ele><time>2020-08-16T14:09:13Z</time><name>PT9100</name></trkpt>
<trkpt lat="53.169997" lon="-3.942255"><ele>661</ele><time>2020-08-16T14:09:14Z</time><name>PT9101</name></trkpt>
<trkpt lat="53.170001" lon="-3.942260"><ele>660</ele><time>2020-08-16T14:09:15Z</time><name>PT9102</name></trkpt>
<trkpt lat="53.170013" lon="-3.942264"><ele>660</ele><time>2020-08-16T14:09:16Z</time><name>PT9103</name></trkpt>
<trkpt lat="53.170027" lon="-3.942262"><ele>660</ele><time>2020-08-16T14:09:17Z</time><name>PT9104</name></trkpt>
<trkpt lat="53.170042" lon="-3.942264"><ele>659</ele><time>2020-08-16T14:09:18Z</time><name>PT9105</name></trkpt>
<trkpt lat="53.170051" lon="-3.942273"><ele>659</ele><time>2020-08-16T14:09:19Z</time><name>PT9106</name></trkpt>
<trkpt lat="53.170052" lon="-3.942274"><ele>659</ele><time>2020-08-16T14:09:20Z</time><name>PT9107</name></trkpt>
<trkpt lat="53.170054" lon="-3.942292"><ele>659</ele><time>2020-08-16T14:09:21Z</time><name>PT9108</name></trkpt>
<trkpt lat="53.170066" lon="-3.942318"><ele>659</ele><time>2020-08-16T14:09:22Z</time><name>PT9109</name></trkpt>
<trkpt lat="53.170072" lon="-3.942335"><ele>657</ele><time>2020-08-16T14:09:23Z</time><name>PT9110</name></trkpt>
<trkpt lat="53.170077" lon="-3.942345"><ele>657</ele><time>2020-08-16T14:09:24Z</time><name>PT9111</name></trkpt>
<trkpt lat="53.170078" lon="-3.942353"><ele>657</ele><time>2020-08-16T14:09:25Z</time><name>PT9112</name></trkpt>
<trkpt lat="53.170084" lon="-3.942368"><ele>658</ele><time>2020-08-16T14:09:26Z</time><name>PT9113</name></trkpt>
<trkpt lat="53.170094" lon="-3.942378"><ele>658</ele><time>2020-08-16T14:09:27Z</time><name>PT9114</name></trkpt>
<trkpt lat="53.170099" lon="-3.942383"><ele>659</ele><time>2020-08-16T14:09:28Z</time><name>PT9115</name></trkpt>
<trkpt lat="53.170101" lon="-3.942387"><ele>658</ele><time>2020-08-16T14:09:29Z</time><name>PT9116</name></trkpt>
<trkpt lat="53.170110" lon="-3.942390"><ele>658</ele><time>2020-08-16T14:09:30Z</time><name>PT9117</name></trkpt>
<trkpt lat="53.170120" lon="-3.942398"><ele>658</ele><time>2020-08-16T14:09:31Z</time><name>PT9118</name></trkpt>
<trkpt lat="53.170125" lon="-3.942406"><ele>658</ele><time>2020-08-16T14:09:32Z</time><name>PT9119</name></trkpt>
<trkpt lat="53.170129" lon="-3.942414"><ele>658</ele><time>2020-08-16T14:09:33Z</time><name>PT9120</name></trkpt>
<trkpt lat="53.170138" lon="-3.942428"><ele>659</ele><time>2020-08-16T14:09:34Z</time><name>PT9121</name></trkpt>
<trkpt lat="53.170149" lon="-3.942438"><ele>659</ele><time>2020-08-16T14:09:35Z</time><name>PT9122</name></trkpt>
<trkpt lat="53.170157" lon="-3.942446"><ele>659</ele><time>2020-08-16T14:09:36Z</time><name>PT9123</name></trkpt>
<trkpt lat="53.170167" lon="-3.942453"><ele>659</ele><time>2020-08-16T14:09:37Z</time><name>PT9124</name></trkpt>
<trkpt lat="53.170177" lon="-3.942449"><ele>659</ele><time>2020-08-16T14:09:38Z</time><name>PT9125</name></trkpt>
<trkpt lat="53.170184" lon="-3.942444"><ele>659</ele><time>2020-08-16T14:09:39Z</time><name>PT9126</name></trkpt>
<trkpt lat="53.170193" lon="-3.942437"><ele>660</ele><time>2020-08-16T14:09:40Z</time><name>PT9127</name></trkpt>
<trkpt lat="53.170204" lon="-3.942436"><ele>660</ele><time>2020-08-16T14:09:41Z</time><name>PT9128</name></trkpt>
<trkpt lat="53.170214" lon="-3.942440"><ele>660</ele><time>2020-08-16T14:09:42Z</time><name>PT9129</name></trkpt>
<trkpt lat="53.170226" lon="-3.942446"><ele>661</ele><time>2020-08-16T14:09:43Z</time><name>PT9130</name></trkpt>
<trkpt lat="53.170238" lon="-3.942449"><ele>661</ele><time>2020-08-16T14:09:44Z</time><name>PT9131</name></trkpt>
<trkpt lat="53.170246" lon="-3.942449"><ele>660</ele><time>2020-08-16T14:09:45Z</time><name>PT9132</name></trkpt>
<trkpt lat="53.170255" lon="-3.942450"><ele>660</ele><time>2020-08-16T14:09:46Z</time><name>PT9133</name></trkpt>
<trkpt lat="53.170264" lon="-3.942451"><ele>660</ele><time>2020-08-16T14:09:47Z</time><name>PT9134</name></trkpt>
<trkpt lat="53.170273" lon="-3.942452"><ele>660</ele><time>2020-08-16T14:09:48Z</time><name>PT9135</name></trkpt>
<trkpt lat="53.170282" lon="-3.942446"><ele>660</ele><time>2020-08-16T14:09:49Z</time><name>PT9136</name></trkpt>
<trkpt lat="53.170288" lon="-3.942433"><ele>659</ele><time>2020-08-16T14:09:50Z</time><name>PT9137</name></trkpt>
<trkpt lat="53.170294" lon="-3.942425"><ele>660</ele><time>2020-08-16T14:09:51Z</time><name>PT9138</name></trkpt>
<trkpt lat="53.170302" lon="-3.942418"><ele>659</ele><time>2020-08-16T14:09:52Z</time><name>PT9139</name></trkpt>
<trkpt lat="53.170312" lon="-3.942412"><ele>659</ele><time>2020-08-16T14:09:53Z</time><name>PT9140</name></trkpt>
<trkpt lat="53.170321" lon="-3.942406"><ele>660</ele><time>2020-08-16T14:09:54Z</time><name>PT9141</name></trkpt>
<trkpt lat="53.170329" lon="-3.942403"><ele>659</ele><time>2020-08-16T14:09:55Z</time><name>PT9142</name></trkpt>
<trkpt lat="53.170339" lon="-3.942400"><ele>660</ele><time>2020-08-16T14:09:56Z</time><name>PT9143</name></trkpt>
<trkpt lat="53.170348" lon="-3.942399"><ele>660</ele><time>2020-08-16T14:09:57Z</time><name>PT9144</name></trkpt>
<trkpt lat="53.170357" lon="-3.942397"><ele>660</ele><time>2020-08-16T14:09:58Z</time><name>PT9145</name></trkpt>
<trkpt lat="53.170366" lon="-3.942393"><ele>660</ele><time>2020-08-16T14:09:59Z</time><name>PT9146</name></trkpt>
<trkpt lat="53.170371" lon="-3.942390"><ele>659</ele><time>2020-08-16T14:10:00Z</time><name>PT9147</name></trkpt>
<trkpt lat="53.170376" lon="-3.942380"><ele>659</ele><time>2020-08-16T14:10:01Z</time><name>PT9148</name></trkpt>
<trkpt lat="53.170383" lon="-3.942370"><ele>659</ele><time>2020-08-16T14:10:02Z</time><name>PT9149</name></trkpt>
<trkpt lat="53.170391" lon="-3.942362"><ele>659</ele><time>2020-08-16T14:10:03Z</time><name>PT9150</name></trkpt>
<trkpt lat="53.170400" lon="-3.942356"><ele>659</ele><time>2020-08-16T14:10:04Z</time><name>PT9151</name></trkpt>
<trkpt lat="53.170409" lon="-3.942348"><ele>659</ele><time>2020-08-16T14:10:05Z</time><name>PT9152</name></trkpt>
<trkpt lat="53.170417" lon="-3.942336"><ele>659</ele><time>2020-08-16T14:10:06Z</time><name>PT9153</name></trkpt>
<trkpt lat="53.170425" lon="-3.942325"><ele>658</ele><time>2020-08-16T14:10:07Z</time><name>PT9154</name></trkpt>
<trkpt lat="53.170431" lon="-3.942313"><ele>658</ele><time>2020-08-16T14:10:08Z</time><name>PT9155</name></trkpt>
<trkpt lat="53.170439" lon="-3.942300"><ele>658</ele><time>2020-08-16T14:10:09Z</time><name>PT9156</name></trkpt>
<trkpt lat="53.170446" lon="-3.942286"><ele>658</ele><time>2020-08-16T14:10:10Z</time><name>PT9157</name></trkpt>
<trkpt lat="53.170451" lon="-3.942277"><ele>659</ele><time>2020-08-16T14:10:11Z</time><name>PT9158</name></trkpt>
<trkpt lat="53.170456" lon="-3.942267"><ele>658</ele><time>2020-08-16T14:10:12Z</time><name>PT9159</name></trkpt>
<trkpt lat="53.170461" lon="-3.942258"><ele>658</ele><time>2020-08-16T14:10:13Z</time><name>PT9160</name></trkpt>
<trkpt lat="53.170465" lon="-3.942261"><ele>658</ele><time>2020-08-16T14:10:14Z</time><name>PT9161</name></trkpt>
<trkpt lat="53.170473" lon="-3.942266"><ele>658</ele><time>2020-08-16T14:10:15Z</time><name>PT9162</name></trkpt>
<trkpt lat="53.170482" lon="-3.942264"><ele>658</ele><time>2020-08-16T14:10:16Z</time><name>PT9163</name></trkpt>
<trkpt lat="53.170487" lon="-3.942262"><ele>657</ele><time>2020-08-16T14:10:17Z</time><name>PT9164</name></trkpt>
<trkpt lat="53.170491" lon="-3.942257"><ele>657</ele><time>2020-08-16T14:10:18Z</time><name>PT9165</name></trkpt>
<trkpt lat="53.170500" lon="-3.942247"><ele>657</ele><time>2020-08-16T14:10:20Z</time><name>PT9166</name></trkpt>
<trkpt lat="53.170508" lon="-3.942236"><ele>657</ele><time>2020-08-16T14:10:20Z</time><name>PT9167</name></trkpt>
<trkpt lat="53.170518" lon="-3.942226"><ele>657</ele><time>2020-08-16T14:10:21Z</time><name>PT9168</name></trkpt>
<trkpt lat="53.170527" lon="-3.942218"><ele>656</ele><time>2020-08-16T14:10:22Z</time><name>PT9169</name></trkpt>
<trkpt lat="53.170535" lon="-3.942210"><ele>656</ele><time>2020-08-16T14:10:23Z</time><name>PT9170</name></trkpt>
<trkpt lat="53.170542" lon="-3.942200"><ele>656</ele><time>2020-08-16T14:10:24Z</time><name>PT9171</name></trkpt>
<trkpt lat="53.170551" lon="-3.942190"><ele>656</ele><time>2020-08-16T14:10:25Z</time><name>PT9172</name></trkpt>
<trkpt lat="53.170558" lon="-3.942177"><ele>656</ele><time>2020-08-16T14:10:26Z</time><name>PT9173</name></trkpt>
<trkpt lat="53.170563" lon="-3.942165"><ele>656</ele><time>2020-08-16T14:10:27Z</time><name>PT9174</name></trkpt>
<trkpt lat="53.170567" lon="-3.942154"><ele>655</ele><time>2020-08-16T14:10:28Z</time><name>PT9175</name></trkpt>
<trkpt lat="53.170572" lon="-3.942148"><ele>655</ele><time>2020-08-16T14:10:29Z</time><name>PT9176</name></trkpt>
<trkpt lat="53.170578" lon="-3.942140"><ele>655</ele><time>2020-08-16T14:10:30Z</time><name>PT9177</name></trkpt>
<trkpt lat="53.170584" lon="-3.942132"><ele>655</ele><time>2020-08-16T14:10:31Z</time><name>PT9178</name></trkpt>
<trkpt lat="53.170591" lon="-3.942121"><ele>655</ele><time>2020-08-16T14:10:32Z</time><name>PT9179</name></trkpt>
<trkpt lat="53.170596" lon="-3.942110"><ele>655</ele><time>2020-08-16T14:10:33Z</time><name>PT9180</name></trkpt>
<trkpt lat="53.170606" lon="-3.942094"><ele>655</ele><time>2020-08-16T14:10:35Z</time><name>PT9181</name></trkpt>
<trkpt lat="53.170615" lon="-3.942080"><ele>655</ele><time>2020-08-16T14:10:35Z</time><name>PT9182</name></trkpt>
<trkpt lat="53.170622" lon="-3.942069"><ele>655</ele><time>2020-08-16T14:10:36Z</time><name>PT9183</name></trkpt>
<trkpt lat="53.170629" lon="-3.942061"><ele>655</ele><time>2020-08-16T14:10:37Z</time><name>PT9184</name></trkpt>
<trkpt lat="53.170636" lon="-3.942047"><ele>655</ele><time>2020-08-16T14:10:38Z</time><name>PT9185</name></trkpt>
<trkpt lat="53.170641" lon="-3.942032"><ele>655</ele><time>2020-08-16T14:10:39Z</time><name>PT9186</name></trkpt>
<trkpt lat="53.170645" lon="-3.942021"><ele>655</ele><time>2020-08-16T14:10:40Z</time><name>PT9187</name></trkpt>
<trkpt lat="53.170654" lon="-3.942012"><ele>655</ele><time>2020-08-16T14:10:41Z</time><name>PT9188</name></trkpt>
<trkpt lat="53.170660" lon="-3.942005"><ele>654</ele><time>2020-08-16T14:10:42Z</time><name>PT9189</name></trkpt>
<trkpt lat="53.170666" lon="-3.941994"><ele>654</ele><time>2020-08-16T14:10:43Z</time><name>PT9190</name></trkpt>
<trkpt lat="53.170670" lon="-3.941984"><ele>654</ele><time>2020-08-16T14:10:44Z</time><name>PT9191</name></trkpt>
<trkpt lat="53.170677" lon="-3.941968"><ele>654</ele><time>2020-08-16T14:10:45Z</time><name>PT9192</name></trkpt>
<trkpt lat="53.170680" lon="-3.941953"><ele>653</ele><time>2020-08-16T14:10:46Z</time><name>PT9193</name></trkpt>
<trkpt lat="53.170686" lon="-3.941948"><ele>653</ele><time>2020-08-16T14:10:47Z</time><name>PT9194</name></trkpt>
<trkpt lat="53.170694" lon="-3.941941"><ele>653</ele><time>2020-08-16T14:10:48Z</time><name>PT9195</name></trkpt>
<trkpt lat="53.170701" lon="-3.941932"><ele>653</ele><time>2020-08-16T14:10:50Z</time><name>PT9196</name></trkpt>
<trkpt lat="53.170708" lon="-3.941926"><ele>653</ele><time>2020-08-16T14:10:50Z</time><name>PT9197</name></trkpt>
<trkpt lat="53.170715" lon="-3.941917"><ele>653</ele><time>2020-08-16T14:10:51Z</time><name>PT9198</name></trkpt>
<trkpt lat="53.170717" lon="-3.941910"><ele>653</ele><time>2020-08-16T14:10:52Z</time><name>PT9199</name></trkpt>
<trkpt lat="53.170718" lon="-3.941903"><ele>653</ele><time>2020-08-16T14:10:53Z</time><name>PT9200</name></trkpt>
<trkpt lat="53.170719" lon="-3.941889"><ele>653</ele><time>2020-08-16T14:10:54Z</time><name>PT9201</name></trkpt>
<trkpt lat="53.170719" lon="-3.941875"><ele>652</ele><time>2020-08-16T14:10:55Z</time><name>PT9202</name></trkpt>
<trkpt lat="53.170723" lon="-3.941859"><ele>652</ele><time>2020-08-16T14:10:56Z</time><name>PT9203</name></trkpt>
<trkpt lat="53.170727" lon="-3.941838"><ele>652</ele><time>2020-08-16T14:10:57Z</time><name>PT9204</name></trkpt>
<trkpt lat="53.170729" lon="-3.941821"><ele>652</ele><time>2020-08-16T14:10:58Z</time><name>PT9205</name></trkpt>
<trkpt lat="53.170733" lon="-3.941804"><ele>652</ele><time>2020-08-16T14:10:59Z</time><name>PT9206</name></trkpt>
<trkpt lat="53.170739" lon="-3.941786"><ele>651</ele><time>2020-08-16T14:11:00Z</time><name>PT9207</name></trkpt>
<trkpt lat="53.170752" lon="-3.941746"><ele>651</ele><time>2020-08-16T14:11:03Z</time><name>PT9208</name></trkpt>
<trkpt lat="53.170768" lon="-3.941686"><ele>651</ele><time>2020-08-16T14:11:07Z</time><name>PT9209</name></trkpt>
<trkpt lat="53.170795" lon="-3.941660"><ele>651</ele><time>2020-08-16T14:11:10Z</time><name>PT9210</name></trkpt>
<trkpt lat="53.170828" lon="-3.941652"><ele>651</ele><time>2020-08-16T14:11:13Z</time><name>PT9211</name></trkpt>
<trkpt lat="53.170838" lon="-3.941647"><ele>651</ele><time>2020-08-16T14:11:14Z</time><name>PT9212</name></trkpt>
<trkpt lat="53.170848" lon="-3.941644"><ele>651</ele><time>2020-08-16T14:11:15Z</time><name>PT9213</name></trkpt>
<trkpt lat="53.170855" lon="-3.941637"><ele>651</ele><time>2020-08-16T14:11:16Z</time><name>PT9214</name></trkpt>
<trkpt lat="53.170856" lon="-3.941631"><ele>650</ele><time>2020-08-16T14:11:17Z</time><name>PT9215</name></trkpt>
<trkpt lat="53.170861" lon="-3.941628"><ele>650</ele><time>2020-08-16T14:11:18Z</time><name>PT9216</name></trkpt>
<trkpt lat="53.170877" lon="-3.941621"><ele>651</ele><time>2020-08-16T14:11:19Z</time><name>PT9217</name></trkpt>
<trkpt lat="53.170897" lon="-3.941604"><ele>651</ele><time>2020-08-16T14:11:20Z</time><name>PT9218</name></trkpt>
<trkpt lat="53.170909" lon="-3.941595"><ele>651</ele><time>2020-08-16T14:11:21Z</time><name>PT9219</name></trkpt>
<trkpt lat="53.170916" lon="-3.941586"><ele>651</ele><time>2020-08-16T14:11:22Z</time><name>PT9220</name></trkpt>
<trkpt lat="53.170922" lon="-3.941575"><ele>650</ele><time>2020-08-16T14:11:23Z</time><name>PT9221</name></trkpt>
<trkpt lat="53.170935" lon="-3.941561"><ele>650</ele><time>2020-08-16T14:11:24Z</time><name>PT9222</name></trkpt>
<trkpt lat="53.170942" lon="-3.941554"><ele>650</ele><time>2020-08-16T14:11:25Z</time><name>PT9223</name></trkpt>
<trkpt lat="53.170946" lon="-3.941553"><ele>650</ele><time>2020-08-16T14:11:26Z</time><name>PT9224</name></trkpt>
<trkpt lat="53.170952" lon="-3.941552"><ele>650</ele><time>2020-08-16T14:11:27Z</time><name>PT9225</name></trkpt>
<trkpt lat="53.170957" lon="-3.941549"><ele>650</ele><time>2020-08-16T14:11:28Z</time><name>PT9226</name></trkpt>
<trkpt lat="53.170961" lon="-3.941545"><ele>650</ele><time>2020-08-16T14:11:29Z</time><name>PT9227</name></trkpt>
<trkpt lat="53.170973" lon="-3.941544"><ele>650</ele><time>2020-08-16T14:11:30Z</time><name>PT9228</name></trkpt>
<trkpt lat="53.170975" lon="-3.941540"><ele>649</ele><time>2020-08-16T14:11:31Z</time><name>PT9229</name></trkpt>
<trkpt lat="53.170977" lon="-3.941539"><ele>649</ele><time>2020-08-16T14:11:32Z</time><name>PT9230</name></trkpt>
<trkpt lat="53.170985" lon="-3.941535"><ele>650</ele><time>2020-08-16T14:11:33Z</time><name>PT9231</name></trkpt>
<trkpt lat="53.170991" lon="-3.941536"><ele>651</ele><time>2020-08-16T14:11:34Z</time><name>PT9232</name></trkpt>
<trkpt lat="53.170992" lon="-3.941540"><ele>651</ele><time>2020-08-16T14:11:35Z</time><name>PT9233</name></trkpt>
<trkpt lat="53.170993" lon="-3.941541"><ele>651</ele><time>2020-08-16T14:11:36Z</time><name>PT9234</name></trkpt>
<trkpt lat="53.171003" lon="-3.941540"><ele>651</ele><time>2020-08-16T14:11:39Z</time><name>PT9235</name></trkpt>
<trkpt lat="53.171002" lon="-3.941540"><ele>651</ele><time>2020-08-16T14:11:40Z</time><name>PT9236</name></trkpt>
<trkpt lat="53.170997" lon="-3.941517"><ele>651</ele><time>2020-08-16T14:11:41Z</time><name>PT9237</name></trkpt>
<trkpt lat="53.170993" lon="-3.941499"><ele>651</ele><time>2020-08-16T14:11:42Z</time><name>PT9238</name></trkpt>
<trkpt lat="53.170993" lon="-3.941490"><ele>651</ele><time>2020-08-16T14:11:43Z</time><name>PT9239</name></trkpt>
<trkpt lat="53.170997" lon="-3.941470"><ele>651</ele><time>2020-08-16T14:11:44Z</time><name>PT9240</name></trkpt>
<trkpt lat="53.170997" lon="-3.941464"><ele>651</ele><time>2020-08-16T14:11:45Z</time><name>PT9241</name></trkpt>
<trkpt lat="53.170994" lon="-3.941467"><ele>651</ele><time>2020-08-16T14:11:46Z</time><name>PT9242</name></trkpt>
<trkpt lat="53.170991" lon="-3.941464"><ele>651</ele><time>2020-08-16T14:11:47Z</time><name>PT9243</name></trkpt>
<trkpt lat="53.170988" lon="-3.941457"><ele>651</ele><time>2020-08-16T14:11:48Z</time><name>PT9244</name></trkpt>
<trkpt lat="53.170986" lon="-3.941432"><ele>650</ele><time>2020-08-16T14:11:49Z</time><name>PT9245</name></trkpt>
<trkpt lat="53.170980" lon="-3.941413"><ele>650</ele><time>2020-08-16T14:11:50Z</time><name>PT9246</name></trkpt>
<trkpt lat="53.170976" lon="-3.941401"><ele>649</ele><time>2020-08-16T14:11:51Z</time><name>PT9247</name></trkpt>
<trkpt lat="53.170972" lon="-3.941387"><ele>649</ele><time>2020-08-16T14:11:52Z</time><name>PT9248</name></trkpt>
<trkpt lat="53.170968" lon="-3.941376"><ele>649</ele><time>2020-08-16T14:11:53Z</time><name>PT9249</name></trkpt>
<trkpt lat="53.170970" lon="-3.941362"><ele>649</ele><time>2020-08-16T14:11:54Z</time><name>PT9250</name></trkpt>
<trkpt lat="53.170968" lon="-3.941358"><ele>648</ele><time>2020-08-16T14:11:55Z</time><name>PT9251</name></trkpt>
<trkpt lat="53.170965" lon="-3.941357"><ele>648</ele><time>2020-08-16T14:11:56Z</time><name>PT9252</name></trkpt>
<trkpt lat="53.170965" lon="-3.941347"><ele>647</ele><time>2020-08-16T14:11:57Z</time><name>PT9253</name></trkpt>
<trkpt lat="53.170961" lon="-3.941340"><ele>647</ele><time>2020-08-16T14:11:58Z</time><name>PT9254</name></trkpt>
<trkpt lat="53.170967" lon="-3.941325"><ele>647</ele><time>2020-08-16T14:11:59Z</time><name>PT9255</name></trkpt>
<trkpt lat="53.170973" lon="-3.941299"><ele>647</ele><time>2020-08-16T14:12:00Z</time><name>PT9256</name></trkpt>
<trkpt lat="53.170976" lon="-3.941287"><ele>646</ele><time>2020-08-16T14:12:01Z</time><name>PT9257</name></trkpt>
<trkpt lat="53.170981" lon="-3.941275"><ele>646</ele><time>2020-08-16T14:12:02Z</time><name>PT9258</name></trkpt>
<trkpt lat="53.170985" lon="-3.941249"><ele>646</ele><time>2020-08-16T14:12:03Z</time><name>PT9259</name></trkpt>
<trkpt lat="53.170988" lon="-3.941236"><ele>646</ele><time>2020-08-16T14:12:04Z</time><name>PT9260</name></trkpt>
<trkpt lat="53.170990" lon="-3.941233"><ele>646</ele><time>2020-08-16T14:12:05Z</time><name>PT9261</name></trkpt>
<trkpt lat="53.170994" lon="-3.941214"><ele>645</ele><time>2020-08-16T14:12:06Z</time><name>PT9262</name></trkpt>
<trkpt lat="53.170997" lon="-3.941194"><ele>645</ele><time>2020-08-16T14:12:07Z</time><name>PT9263</name></trkpt>
<trkpt lat="53.171000" lon="-3.941181"><ele>645</ele><time>2020-08-16T14:12:08Z</time><name>PT9264</name></trkpt>
<trkpt lat="53.171002" lon="-3.941158"><ele>645</ele><time>2020-08-16T14:12:09Z</time><name>PT9265</name></trkpt>
<trkpt lat="53.171006" lon="-3.941128"><ele>645</ele><time>2020-08-16T14:12:11Z</time><name>PT9266</name></trkpt>
<trkpt lat="53.171010" lon="-3.941112"><ele>646</ele><time>2020-08-16T14:12:11Z</time><name>PT9267</name></trkpt>
<trkpt lat="53.171013" lon="-3.941099"><ele>646</ele><time>2020-08-16T14:12:12Z</time><name>PT9268</name></trkpt>
<trkpt lat="53.171013" lon="-3.941087"><ele>646</ele><time>2020-08-16T14:12:13Z</time><name>PT9269</name></trkpt>
<trkpt lat="53.171014" lon="-3.941077"><ele>647</ele><time>2020-08-16T14:12:14Z</time><name>PT9270</name></trkpt>
<trkpt lat="53.171016" lon="-3.941066"><ele>647</ele><time>2020-08-16T14:12:15Z</time><name>PT9271</name></trkpt>
<trkpt lat="53.171018" lon="-3.941050"><ele>648</ele><time>2020-08-16T14:12:16Z</time><name>PT9272</name></trkpt>
<trkpt lat="53.171023" lon="-3.941039"><ele>648</ele><time>2020-08-16T14:12:17Z</time><name>PT9273</name></trkpt>
<trkpt lat="53.171024" lon="-3.941039"><ele>648</ele><time>2020-08-16T14:12:18Z</time><name>PT9274</name></trkpt>
<trkpt lat="53.171022" lon="-3.941034"><ele>648</ele><time>2020-08-16T14:12:19Z</time><name>PT9275</name></trkpt>
<trkpt lat="53.171021" lon="-3.941032"><ele>648</ele><time>2020-08-16T14:12:20Z</time><name>PT9276</name></trkpt>
<trkpt lat="53.171020" lon="-3.941033"><ele>648</ele><time>2020-08-16T14:12:21Z</time><name>PT9277</name></trkpt>
<trkpt lat="53.171020" lon="-3.941036"><ele>648</ele><time>2020-08-16T14:12:22Z</time><name>PT9278</name></trkpt>
<trkpt lat="53.171018" lon="-3.941032"><ele>648</ele><time>2020-08-16T14:12:24Z</time><name>PT9279</name></trkpt>
<trkpt lat="53.171019" lon="-3.941017"><ele>648</ele><time>2020-08-16T14:12:25Z</time><name>PT9280</name></trkpt>
<trkpt lat="53.171021" lon="-3.941002"><ele>648</ele><time>2020-08-16T14:12:26Z</time><name>PT9281</name></trkpt>
<trkpt lat="53.171022" lon="-3.940987"><ele>648</ele><time>2020-08-16T14:12:27Z</time><name>PT9282</name></trkpt>
<trkpt lat="53.171020" lon="-3.940969"><ele>648</ele><time>2020-08-16T14:12:28Z</time><name>PT9283</name></trkpt>
<trkpt lat="53.171018" lon="-3.940954"><ele>648</ele><time>2020-08-16T14:12:29Z</time><name>PT9284</name></trkpt>
<trkpt lat="53.171016" lon="-3.940936"><ele>648</ele><time>2020-08-16T14:12:30Z</time><name>PT9285</name></trkpt>
<trkpt lat="53.171017" lon="-3.940922"><ele>648</ele><time>2020-08-16T14:12:31Z</time><name>PT9286</name></trkpt>
<trkpt lat="53.171022" lon="-3.940909"><ele>648</ele><time>2020-08-16T14:12:32Z</time><name>PT9287</name></trkpt>
<trkpt lat="53.171025" lon="-3.940892"><ele>648</ele><time>2020-08-16T14:12:33Z</time><name>PT9288</name></trkpt>
<trkpt lat="53.171027" lon="-3.940877"><ele>648</ele><time>2020-08-16T14:12:34Z</time><name>PT9289</name></trkpt>
<trkpt lat="53.171026" lon="-3.940864"><ele>648</ele><time>2020-08-16T14:12:35Z</time><name>PT9290</name></trkpt>
<trkpt lat="53.171025" lon="-3.940849"><ele>649</ele><time>2020-08-16T14:12:36Z</time><name>PT9291</name></trkpt>
<trkpt lat="53.171025" lon="-3.940834"><ele>648</ele><time>2020-08-16T14:12:37Z</time><name>PT9292</name></trkpt>
<trkpt lat="53.171024" lon="-3.940820"><ele>649</ele><time>2020-08-16T14:12:38Z</time><name>PT9293</name></trkpt>
<trkpt lat="53.171022" lon="-3.940807"><ele>648</ele><time>2020-08-16T14:12:39Z</time><name>PT9294</name></trkpt>
<trkpt lat="53.171019" lon="-3.940788"><ele>649</ele><time>2020-08-16T14:12:40Z</time><name>PT9295</name></trkpt>
<trkpt lat="53.171018" lon="-3.940773"><ele>649</ele><time>2020-08-16T14:12:41Z</time><name>PT9296</name></trkpt>
<trkpt lat="53.171019" lon="-3.940761"><ele>648</ele><time>2020-08-16T14:12:42Z</time><name>PT9297</name></trkpt>
<trkpt lat="53.171020" lon="-3.940748"><ele>648</ele><time>2020-08-16T14:12:43Z</time><name>PT9298</name></trkpt>
<trkpt lat="53.171018" lon="-3.940727"><ele>648</ele><time>2020-08-16T14:12:44Z</time><name>PT9299</name></trkpt>
<trkpt lat="53.171017" lon="-3.940705"><ele>648</ele><time>2020-08-16T14:12:46Z</time><name>PT9300</name></trkpt>
<trkpt lat="53.171016" lon="-3.940683"><ele>648</ele><time>2020-08-16T14:12:46Z</time><name>PT9301</name></trkpt>
<trkpt lat="53.171017" lon="-3.940670"><ele>648</ele><time>2020-08-16T14:12:47Z</time><name>PT9302</name></trkpt>
<trkpt lat="53.171018" lon="-3.940652"><ele>648</ele><time>2020-08-16T14:12:48Z</time><name>PT9303</name></trkpt>
<trkpt lat="53.171021" lon="-3.940637"><ele>648</ele><time>2020-08-16T14:12:49Z</time><name>PT9304</name></trkpt>
<trkpt lat="53.171024" lon="-3.940626"><ele>648</ele><time>2020-08-16T14:12:50Z</time><name>PT9305</name></trkpt>
<trkpt lat="53.171024" lon="-3.940611"><ele>648</ele><time>2020-08-16T14:12:51Z</time><name>PT9306</name></trkpt>
<trkpt lat="53.171023" lon="-3.940598"><ele>647</ele><time>2020-08-16T14:12:52Z</time><name>PT9307</name></trkpt>
<trkpt lat="53.171022" lon="-3.940584"><ele>648</ele><time>2020-08-16T14:12:53Z</time><name>PT9308</name></trkpt>
<trkpt lat="53.171020" lon="-3.940571"><ele>647</ele><time>2020-08-16T14:12:54Z</time><name>PT9309</name></trkpt>
<trkpt lat="53.171016" lon="-3.940558"><ele>647</ele><time>2020-08-16T14:12:55Z</time><name>PT9310</name></trkpt>
<trkpt lat="53.171014" lon="-3.940545"><ele>647</ele><time>2020-08-16T14:12:56Z</time><name>PT9311</name></trkpt>
<trkpt lat="53.171015" lon="-3.940538"><ele>648</ele><time>2020-08-16T14:12:57Z</time><name>PT9312</name></trkpt>
<trkpt lat="53.171017" lon="-3.940533"><ele>648</ele><time>2020-08-16T14:12:58Z</time><name>PT9313</name></trkpt>
<trkpt lat="53.171015" lon="-3.940525"><ele>648</ele><time>2020-08-16T14:12:59Z</time><name>PT9314</name></trkpt>
<trkpt lat="53.171012" lon="-3.940516"><ele>648</ele><time>2020-08-16T14:13:00Z</time><name>PT9315</name></trkpt>
<trkpt lat="53.171012" lon="-3.940505"><ele>648</ele><time>2020-08-16T14:13:01Z</time><name>PT9316</name></trkpt>
<trkpt lat="53.171009" lon="-3.940486"><ele>647</ele><time>2020-08-16T14:13:02Z</time><name>PT9317</name></trkpt>
<trkpt lat="53.171009" lon="-3.940469"><ele>647</ele><time>2020-08-16T14:13:03Z</time><name>PT9318</name></trkpt>
<trkpt lat="53.171011" lon="-3.940458"><ele>647</ele><time>2020-08-16T14:13:04Z</time><name>PT9319</name></trkpt>
<trkpt lat="53.171013" lon="-3.940448"><ele>647</ele><time>2020-08-16T14:13:05Z</time><name>PT9320</name></trkpt>
<trkpt lat="53.171015" lon="-3.940438"><ele>647</ele><time>2020-08-16T14:13:06Z</time><name>PT9321</name></trkpt>
<trkpt lat="53.171016" lon="-3.940425"><ele>647</ele><time>2020-08-16T14:13:07Z</time><name>PT9322</name></trkpt>
<trkpt lat="53.171015" lon="-3.940410"><ele>647</ele><time>2020-08-16T14:13:08Z</time><name>PT9323</name></trkpt>
<trkpt lat="53.171013" lon="-3.940396"><ele>647</ele><time>2020-08-16T14:13:09Z</time><name>PT9324</name></trkpt>
<trkpt lat="53.171016" lon="-3.940382"><ele>646</ele><time>2020-08-16T14:13:10Z</time><name>PT9325</name></trkpt>
<trkpt lat="53.171020" lon="-3.940367"><ele>646</ele><time>2020-08-16T14:13:11Z</time><name>PT9326</name></trkpt>
<trkpt lat="53.171023" lon="-3.940352"><ele>646</ele><time>2020-08-16T14:13:12Z</time><name>PT9327</name></trkpt>
<trkpt lat="53.171025" lon="-3.940339"><ele>646</ele><time>2020-08-16T14:13:13Z</time><name>PT9328</name></trkpt>
<trkpt lat="53.171029" lon="-3.940324"><ele>646</ele><time>2020-08-16T14:13:14Z</time><name>PT9329</name></trkpt>
<trkpt lat="53.171033" lon="-3.940310"><ele>646</ele><time>2020-08-16T14:13:15Z</time><name>PT9330</name></trkpt>
<trkpt lat="53.171039" lon="-3.940293"><ele>646</ele><time>2020-08-16T14:13:16Z</time><name>PT9331</name></trkpt>
<trkpt lat="53.171044" lon="-3.940275"><ele>646</ele><time>2020-08-16T14:13:17Z</time><name>PT9332</name></trkpt>
<trkpt lat="53.171048" lon="-3.940261"><ele>646</ele><time>2020-08-16T14:13:18Z</time><name>PT9333</name></trkpt>
<trkpt lat="53.171052" lon="-3.940248"><ele>645</ele><time>2020-08-16T14:13:19Z</time><name>PT9334</name></trkpt>
<trkpt lat="53.171054" lon="-3.940233"><ele>645</ele><time>2020-08-16T14:13:20Z</time><name>PT9335</name></trkpt>
<trkpt lat="53.171056" lon="-3.940217"><ele>645</ele><time>2020-08-16T14:13:21Z</time><name>PT9336</name></trkpt>
<trkpt lat="53.171060" lon="-3.940209"><ele>645</ele><time>2020-08-16T14:13:22Z</time><name>PT9337</name></trkpt>
<trkpt lat="53.171061" lon="-3.940201"><ele>645</ele><time>2020-08-16T14:13:23Z</time><name>PT9338</name></trkpt>
<trkpt lat="53.171060" lon="-3.940183"><ele>645</ele><time>2020-08-16T14:13:24Z</time><name>PT9339</name></trkpt>
<trkpt lat="53.171059" lon="-3.940167"><ele>645</ele><time>2020-08-16T14:13:25Z</time><name>PT9340</name></trkpt>
<trkpt lat="53.171061" lon="-3.940153"><ele>645</ele><time>2020-08-16T14:13:26Z</time><name>PT9341</name></trkpt>
<trkpt lat="53.171064" lon="-3.940138"><ele>645</ele><time>2020-08-16T14:13:27Z</time><name>PT9342</name></trkpt>
<trkpt lat="53.171066" lon="-3.940121"><ele>645</ele><time>2020-08-16T14:13:28Z</time><name>PT9343</name></trkpt>
<trkpt lat="53.171066" lon="-3.940103"><ele>644</ele><time>2020-08-16T14:13:29Z</time><name>PT9344</name></trkpt>
<trkpt lat="53.171068" lon="-3.940087"><ele>644</ele><time>2020-08-16T14:13:30Z</time><name>PT9345</name></trkpt>
<trkpt lat="53.171069" lon="-3.940069"><ele>644</ele><time>2020-08-16T14:13:31Z</time><name>PT9346</name></trkpt>
<trkpt lat="53.171074" lon="-3.940053"><ele>644</ele><time>2020-08-16T14:13:32Z</time><name>PT9347</name></trkpt>
<trkpt lat="53.171077" lon="-3.940035"><ele>644</ele><time>2020-08-16T14:13:33Z</time><name>PT9348</name></trkpt>
<trkpt lat="53.171081" lon="-3.940013"><ele>644</ele><time>2020-08-16T14:13:34Z</time><name>PT9349</name></trkpt>
<trkpt lat="53.171083" lon="-3.939996"><ele>644</ele><time>2020-08-16T14:13:35Z</time><name>PT9350</name></trkpt>
<trkpt lat="53.171082" lon="-3.939982"><ele>644</ele><time>2020-08-16T14:13:36Z</time><name>PT9351</name></trkpt>
<trkpt lat="53.171085" lon="-3.939967"><ele>644</ele><time>2020-08-16T14:13:37Z</time><name>PT9352</name></trkpt>
<trkpt lat="53.171087" lon="-3.939949"><ele>644</ele><time>2020-08-16T14:13:38Z</time><name>PT9353</name></trkpt>
<trkpt lat="53.171089" lon="-3.939934"><ele>644</ele><time>2020-08-16T14:13:39Z</time><name>PT9354</name></trkpt>
<trkpt lat="53.171092" lon="-3.939926"><ele>644</ele><time>2020-08-16T14:13:40Z</time><name>PT9355</name></trkpt>
<trkpt lat="53.171094" lon="-3.939912"><ele>644</ele><time>2020-08-16T14:13:41Z</time><name>PT9356</name></trkpt>
<trkpt lat="53.171094" lon="-3.939894"><ele>644</ele><time>2020-08-16T14:13:42Z</time><name>PT9357</name></trkpt>
<trkpt lat="53.171095" lon="-3.939879"><ele>644</ele><time>2020-08-16T14:13:43Z</time><name>PT9358</name></trkpt>
<trkpt lat="53.171096" lon="-3.939865"><ele>643</ele><time>2020-08-16T14:13:44Z</time><name>PT9359</name></trkpt>
<trkpt lat="53.171096" lon="-3.939847"><ele>643</ele><time>2020-08-16T14:13:45Z</time><name>PT9360</name></trkpt>
<trkpt lat="53.171097" lon="-3.939830"><ele>643</ele><time>2020-08-16T14:13:46Z</time><name>PT9361</name></trkpt>
<trkpt lat="53.171100" lon="-3.939815"><ele>643</ele><time>2020-08-16T14:13:47Z</time><name>PT9362</name></trkpt>
<trkpt lat="53.171103" lon="-3.939804"><ele>643</ele><time>2020-08-16T14:13:48Z</time><name>PT9363</name></trkpt>
<trkpt lat="53.171104" lon="-3.939790"><ele>643</ele><time>2020-08-16T14:13:49Z</time><name>PT9364</name></trkpt>
<trkpt lat="53.171102" lon="-3.939774"><ele>643</ele><time>2020-08-16T14:13:50Z</time><name>PT9365</name></trkpt>
<trkpt lat="53.171103" lon="-3.939758"><ele>643</ele><time>2020-08-16T14:13:51Z</time><name>PT9366</name></trkpt>
<trkpt lat="53.171107" lon="-3.939741"><ele>643</ele><time>2020-08-16T14:13:52Z</time><name>PT9367</name></trkpt>
<trkpt lat="53.171111" lon="-3.939728"><ele>643</ele><time>2020-08-16T14:13:53Z</time><name>PT9368</name></trkpt>
<trkpt lat="53.171114" lon="-3.939714"><ele>642</ele><time>2020-08-16T14:13:54Z</time><name>PT9369</name></trkpt>
<trkpt lat="53.171117" lon="-3.939698"><ele>642</ele><time>2020-08-16T14:13:55Z</time><name>PT9370</name></trkpt>
<trkpt lat="53.171119" lon="-3.939679"><ele>642</ele><time>2020-08-16T14:13:56Z</time><name>PT9371</name></trkpt>
<trkpt lat="53.171119" lon="-3.939659"><ele>642</ele><time>2020-08-16T14:13:57Z</time><name>PT9372</name></trkpt>
<trkpt lat="53.171122" lon="-3.939642"><ele>642</ele><time>2020-08-16T14:13:58Z</time><name>PT9373</name></trkpt>
<trkpt lat="53.171125" lon="-3.939626"><ele>642</ele><time>2020-08-16T14:13:59Z</time><name>PT9374</name></trkpt>
<trkpt lat="53.171130" lon="-3.939615"><ele>642</ele><time>2020-08-16T14:14:00Z</time><name>PT9375</name></trkpt>
<trkpt lat="53.171135" lon="-3.939612"><ele>642</ele><time>2020-08-16T14:14:01Z</time><name>PT9376</name></trkpt>
<trkpt lat="53.171134" lon="-3.939623"><ele>641</ele><time>2020-08-16T14:14:02Z</time><name>PT9377</name></trkpt>
<trkpt lat="53.171133" lon="-3.939636"><ele>641</ele><time>2020-08-16T14:14:03Z</time><name>PT9378</name></trkpt>
<trkpt lat="53.171136" lon="-3.939648"><ele>642</ele><time>2020-08-16T14:14:04Z</time><name>PT9379</name></trkpt>
<trkpt lat="53.171135" lon="-3.939648"><ele>642</ele><time>2020-08-16T14:14:05Z</time><name>PT9380</name></trkpt>
<trkpt lat="53.171134" lon="-3.939647"><ele>642</ele><time>2020-08-16T14:14:06Z</time><name>PT9381</name></trkpt>
<trkpt lat="53.171133" lon="-3.939650"><ele>642</ele><time>2020-08-16T14:14:07Z</time><name>PT9382</name></trkpt>
<trkpt lat="53.171132" lon="-3.939649"><ele>642</ele><time>2020-08-16T14:14:08Z</time><name>PT9383</name></trkpt>
<trkpt lat="53.171130" lon="-3.939641"><ele>642</ele><time>2020-08-16T14:14:09Z</time><name>PT9384</name></trkpt>
<trkpt lat="53.171124" lon="-3.939627"><ele>641</ele><time>2020-08-16T14:14:10Z</time><name>PT9385</name></trkpt>
<trkpt lat="53.171125" lon="-3.939615"><ele>641</ele><time>2020-08-16T14:14:11Z</time><name>PT9386</name></trkpt>
<trkpt lat="53.171129" lon="-3.939600"><ele>641</ele><time>2020-08-16T14:14:12Z</time><name>PT9387</name></trkpt>
<trkpt lat="53.171136" lon="-3.939528"><ele>640</ele><time>2020-08-16T14:14:16Z</time><name>PT9388</name></trkpt>
<trkpt lat="53.171144" lon="-3.939457"><ele>640</ele><time>2020-08-16T14:14:20Z</time><name>PT9389</name></trkpt>
<trkpt lat="53.171148" lon="-3.939410"><ele>640</ele><time>2020-08-16T14:14:23Z</time><name>PT9390</name></trkpt>
<trkpt lat="53.171148" lon="-3.939392"><ele>640</ele><time>2020-08-16T14:14:24Z</time><name>PT9391</name></trkpt>
<trkpt lat="53.171150" lon="-3.939377"><ele>640</ele><time>2020-08-16T14:14:25Z</time><name>PT9392</name></trkpt>
<trkpt lat="53.171152" lon="-3.939363"><ele>640</ele><time>2020-08-16T14:14:26Z</time><name>PT9393</name></trkpt>
<trkpt lat="53.171154" lon="-3.939347"><ele>640</ele><time>2020-08-16T14:14:27Z</time><name>PT9394</name></trkpt>
<trkpt lat="53.171156" lon="-3.939329"><ele>640</ele><time>2020-08-16T14:14:28Z</time><name>PT9395</name></trkpt>
<trkpt lat="53.171156" lon="-3.939312"><ele>640</ele><time>2020-08-16T14:14:29Z</time><name>PT9396</name></trkpt>
<trkpt lat="53.171156" lon="-3.939295"><ele>639</ele><time>2020-08-16T14:14:30Z</time><name>PT9397</name></trkpt>
<trkpt lat="53.171160" lon="-3.939278"><ele>639</ele><time>2020-08-16T14:14:31Z</time><name>PT9398</name></trkpt>
<trkpt lat="53.171165" lon="-3.939259"><ele>639</ele><time>2020-08-16T14:14:32Z</time><name>PT9399</name></trkpt>
<trkpt lat="53.171166" lon="-3.939245"><ele>639</ele><time>2020-08-16T14:14:33Z</time><name>PT9400</name></trkpt>
<trkpt lat="53.171167" lon="-3.939230"><ele>639</ele><time>2020-08-16T14:14:34Z</time><name>PT9401</name></trkpt>
<trkpt lat="53.171166" lon="-3.939213"><ele>639</ele><time>2020-08-16T14:14:35Z</time><name>PT9402</name></trkpt>
<trkpt lat="53.171165" lon="-3.939192"><ele>639</ele><time>2020-08-16T14:14:36Z</time><name>PT9403</name></trkpt>
<trkpt lat="53.171160" lon="-3.939177"><ele>639</ele><time>2020-08-16T14:14:37Z</time><name>PT9404</name></trkpt>
<trkpt lat="53.171157" lon="-3.939161"><ele>638</ele><time>2020-08-16T14:14:38Z</time><name>PT9405</name></trkpt>
<trkpt lat="53.171158" lon="-3.939143"><ele>638</ele><time>2020-08-16T14:14:39Z</time><name>PT9406</name></trkpt>
<trkpt lat="53.171157" lon="-3.939125"><ele>638</ele><time>2020-08-16T14:14:40Z</time><name>PT9407</name></trkpt>
<trkpt lat="53.171155" lon="-3.939108"><ele>638</ele><time>2020-08-16T14:14:41Z</time><name>PT9408</name></trkpt>
<trkpt lat="53.171154" lon="-3.939095"><ele>638</ele><time>2020-08-16T14:14:42Z</time><name>PT9409</name></trkpt>
<trkpt lat="53.171154" lon="-3.939075"><ele>637</ele><time>2020-08-16T14:14:43Z</time><name>PT9410</name></trkpt>
<trkpt lat="53.171151" lon="-3.939057"><ele>637</ele><time>2020-08-16T14:14:44Z</time><name>PT9411</name></trkpt>
<trkpt lat="53.171149" lon="-3.939041"><ele>638</ele><time>2020-08-16T14:14:45Z</time><name>PT9412</name></trkpt>
<trkpt lat="53.171148" lon="-3.939026"><ele>637</ele><time>2020-08-16T14:14:46Z</time><name>PT9413</name></trkpt>
<trkpt lat="53.171148" lon="-3.939007"><ele>638</ele><time>2020-08-16T14:14:47Z</time><name>PT9414</name></trkpt>
<trkpt lat="53.171148" lon="-3.938988"><ele>637</ele><time>2020-08-16T14:14:48Z</time><name>PT9415</name></trkpt>
<trkpt lat="53.171148" lon="-3.938972"><ele>637</ele><time>2020-08-16T14:14:49Z</time><name>PT9416</name></trkpt>
<trkpt lat="53.171151" lon="-3.938959"><ele>637</ele><time>2020-08-16T14:14:50Z</time><name>PT9417</name></trkpt>
<trkpt lat="53.171152" lon="-3.938942"><ele>637</ele><time>2020-08-16T14:14:51Z</time><name>PT9418</name></trkpt>
<trkpt lat="53.171154" lon="-3.938923"><ele>637</ele><time>2020-08-16T14:14:52Z</time><name>PT9419</name></trkpt>
<trkpt lat="53.171156" lon="-3.938910"><ele>636</ele><time>2020-08-16T14:14:53Z</time><name>PT9420</name></trkpt>
<trkpt lat="53.171156" lon="-3.938894"><ele>636</ele><time>2020-08-16T14:14:54Z</time><name>PT9421</name></trkpt>
<trkpt lat="53.171158" lon="-3.938873"><ele>635</ele><time>2020-08-16T14:14:55Z</time><name>PT9422</name></trkpt>
<trkpt lat="53.171160" lon="-3.938852"><ele>636</ele><time>2020-08-16T14:14:56Z</time><name>PT9423</name></trkpt>
<trkpt lat="53.171159" lon="-3.938835"><ele>636</ele><time>2020-08-16T14:14:57Z</time><name>PT9424</name></trkpt>
<trkpt lat="53.171160" lon="-3.938818"><ele>636</ele><time>2020-08-16T14:14:58Z</time><name>PT9425</name></trkpt>
<trkpt lat="53.171160" lon="-3.938803"><ele>636</ele><time>2020-08-16T14:14:59Z</time><name>PT9426</name></trkpt>
<trkpt lat="53.171163" lon="-3.938784"><ele>636</ele><time>2020-08-16T14:15:00Z</time><name>PT9427</name></trkpt>
<trkpt lat="53.171165" lon="-3.938768"><ele>636</ele><time>2020-08-16T14:15:01Z</time><name>PT9428</name></trkpt>
<trkpt lat="53.171169" lon="-3.938752"><ele>635</ele><time>2020-08-16T14:15:02Z</time><name>PT9429</name></trkpt>
<trkpt lat="53.171175" lon="-3.938730"><ele>636</ele><time>2020-08-16T14:15:03Z</time><name>PT9430</name></trkpt>
<trkpt lat="53.171178" lon="-3.938708"><ele>636</ele><time>2020-08-16T14:15:04Z</time><name>PT9431</name></trkpt>
<trkpt lat="53.171182" lon="-3.938692"><ele>636</ele><time>2020-08-16T14:15:05Z</time><name>PT9432</name></trkpt>
<trkpt lat="53.171186" lon="-3.938674"><ele>636</ele><time>2020-08-16T14:15:06Z</time><name>PT9433</name></trkpt>
<trkpt lat="53.171190" lon="-3.938657"><ele>636</ele><time>2020-08-16T14:15:07Z</time><name>PT9434</name></trkpt>
<trkpt lat="53.171194" lon="-3.938639"><ele>636</ele><time>2020-08-16T14:15:08Z</time><name>PT9435</name></trkpt>
<trkpt lat="53.171199" lon="-3.938619"><ele>636</ele><time>2020-08-16T14:15:09Z</time><name>PT9436</name></trkpt>
<trkpt lat="53.171204" lon="-3.938605"><ele>636</ele><time>2020-08-16T14:15:10Z</time><name>PT9437</name></trkpt>
<trkpt lat="53.171205" lon="-3.938589"><ele>635</ele><time>2020-08-16T14:15:11Z</time><name>PT9438</name></trkpt>
<trkpt lat="53.171204" lon="-3.938570"><ele>635</ele><time>2020-08-16T14:15:12Z</time><name>PT9439</name></trkpt>
<trkpt lat="53.171204" lon="-3.938552"><ele>635</ele><time>2020-08-16T14:15:13Z</time><name>PT9440</name></trkpt>
<trkpt lat="53.171203" lon="-3.938535"><ele>635</ele><time>2020-08-16T14:15:14Z</time><name>PT9441</name></trkpt>
<trkpt lat="53.171204" lon="-3.938518"><ele>635</ele><time>2020-08-16T14:15:15Z</time><name>PT9442</name></trkpt>
<trkpt lat="53.171207" lon="-3.938506"><ele>635</ele><time>2020-08-16T14:15:16Z</time><name>PT9443</name></trkpt>
<trkpt lat="53.171211" lon="-3.938502"><ele>634</ele><time>2020-08-16T14:15:17Z</time><name>PT9444</name></trkpt>
<trkpt lat="53.171214" lon="-3.938494"><ele>634</ele><time>2020-08-16T14:15:18Z</time><name>PT9445</name></trkpt>
<trkpt lat="53.171218" lon="-3.938476"><ele>634</ele><time>2020-08-16T14:15:19Z</time><name>PT9446</name></trkpt>
<trkpt lat="53.171221" lon="-3.938458"><ele>634</ele><time>2020-08-16T14:15:20Z</time><name>PT9447</name></trkpt>
<trkpt lat="53.171225" lon="-3.938439"><ele>634</ele><time>2020-08-16T14:15:21Z</time><name>PT9448</name></trkpt>
<trkpt lat="53.171228" lon="-3.938418"><ele>635</ele><time>2020-08-16T14:15:22Z</time><name>PT9449</name></trkpt>
<trkpt lat="53.171229" lon="-3.938399"><ele>635</ele><time>2020-08-16T14:15:23Z</time><name>PT9450</name></trkpt>
<trkpt lat="53.171231" lon="-3.938384"><ele>635</ele><time>2020-08-16T14:15:24Z</time><name>PT9451</name></trkpt>
<trkpt lat="53.171233" lon="-3.938370"><ele>635</ele><time>2020-08-16T14:15:25Z</time><name>PT9452</name></trkpt>
<trkpt lat="53.171234" lon="-3.938350"><ele>635</ele><time>2020-08-16T14:15:26Z</time><name>PT9453</name></trkpt>
<trkpt lat="53.171233" lon="-3.938330"><ele>635</ele><time>2020-08-16T14:15:27Z</time><name>PT9454</name></trkpt>
<trkpt lat="53.171235" lon="-3.938313"><ele>635</ele><time>2020-08-16T14:15:28Z</time><name>PT9455</name></trkpt>
<trkpt lat="53.171235" lon="-3.938297"><ele>635</ele><time>2020-08-16T14:15:29Z</time><name>PT9456</name></trkpt>
<trkpt lat="53.171236" lon="-3.938280"><ele>635</ele><time>2020-08-16T14:15:30Z</time><name>PT9457</name></trkpt>
<trkpt lat="53.171239" lon="-3.938261"><ele>635</ele><time>2020-08-16T14:15:31Z</time><name>PT9458</name></trkpt>
<trkpt lat="53.171239" lon="-3.938243"><ele>635</ele><time>2020-08-16T14:15:32Z</time><name>PT9459</name></trkpt>
<trkpt lat="53.171238" lon="-3.938228"><ele>634</ele><time>2020-08-16T14:15:33Z</time><name>PT9460</name></trkpt>
<trkpt lat="53.171241" lon="-3.938213"><ele>634</ele><time>2020-08-16T14:15:34Z</time><name>PT9461</name></trkpt>
<trkpt lat="53.171245" lon="-3.938190"><ele>634</ele><time>2020-08-16T14:15:35Z</time><name>PT9462</name></trkpt>
<trkpt lat="53.171248" lon="-3.938173"><ele>634</ele><time>2020-08-16T14:15:36Z</time><name>PT9463</name></trkpt>
<trkpt lat="53.171254" lon="-3.938166"><ele>633</ele><time>2020-08-16T14:15:37Z</time><name>PT9464</name></trkpt>
<trkpt lat="53.171262" lon="-3.938154"><ele>633</ele><time>2020-08-16T14:15:38Z</time><name>PT9465</name></trkpt>
<trkpt lat="53.171267" lon="-3.938142"><ele>633</ele><time>2020-08-16T14:15:39Z</time><name>PT9466</name></trkpt>
<trkpt lat="53.171279" lon="-3.938140"><ele>633</ele><time>2020-08-16T14:15:40Z</time><name>PT9467</name></trkpt>
<trkpt lat="53.171289" lon="-3.938134"><ele>633</ele><time>2020-08-16T14:15:41Z</time><name>PT9468</name></trkpt>
<trkpt lat="53.171298" lon="-3.938125"><ele>633</ele><time>2020-08-16T14:15:42Z</time><name>PT9469</name></trkpt>
<trkpt lat="53.171308" lon="-3.938112"><ele>633</ele><time>2020-08-16T14:15:43Z</time><name>PT9470</name></trkpt>
<trkpt lat="53.171316" lon="-3.938104"><ele>633</ele><time>2020-08-16T14:15:44Z</time><name>PT9471</name></trkpt>
<trkpt lat="53.171323" lon="-3.938093"><ele>633</ele><time>2020-08-16T14:15:45Z</time><name>PT9472</name></trkpt>
<trkpt lat="53.171333" lon="-3.938082"><ele>633</ele><time>2020-08-16T14:15:46Z</time><name>PT9473</name></trkpt>
<trkpt lat="53.171345" lon="-3.938071"><ele>633</ele><time>2020-08-16T14:15:47Z</time><name>PT9474</name></trkpt>
<trkpt lat="53.171355" lon="-3.938063"><ele>633</ele><time>2020-08-16T14:15:48Z</time><name>PT9475</name></trkpt>
<trkpt lat="53.171365" lon="-3.938053"><ele>633</ele><time>2020-08-16T14:15:49Z</time><name>PT9476</name></trkpt>
<trkpt lat="53.171376" lon="-3.938044"><ele>633</ele><time>2020-08-16T14:15:50Z</time><name>PT9477</name></trkpt>
<trkpt lat="53.171385" lon="-3.938035"><ele>633</ele><time>2020-08-16T14:15:51Z</time><name>PT9478</name></trkpt>
<trkpt lat="53.171395" lon="-3.938024"><ele>633</ele><time>2020-08-16T14:15:52Z</time><name>PT9479</name></trkpt>
<trkpt lat="53.171404" lon="-3.938014"><ele>633</ele><time>2020-08-16T14:15:53Z</time><name>PT9480</name></trkpt>
<trkpt lat="53.171413" lon="-3.938004"><ele>633</ele><time>2020-08-16T14:15:54Z</time><name>PT9481</name></trkpt>
<trkpt lat="53.171422" lon="-3.937994"><ele>633</ele><time>2020-08-16T14:15:55Z</time><name>PT9482</name></trkpt>
<trkpt lat="53.171434" lon="-3.937983"><ele>633</ele><time>2020-08-16T14:15:56Z</time><name>PT9483</name></trkpt>
<trkpt lat="53.171445" lon="-3.937970"><ele>633</ele><time>2020-08-16T14:15:57Z</time><name>PT9484</name></trkpt>
<trkpt lat="53.171454" lon="-3.937959"><ele>633</ele><time>2020-08-16T14:15:58Z</time><name>PT9485</name></trkpt>
<trkpt lat="53.171463" lon="-3.937948"><ele>633</ele><time>2020-08-16T14:15:59Z</time><name>PT9486</name></trkpt>
<trkpt lat="53.171471" lon="-3.937931"><ele>632</ele><time>2020-08-16T14:16:00Z</time><name>PT9487</name></trkpt>
<trkpt lat="53.171481" lon="-3.937920"><ele>632</ele><time>2020-08-16T14:16:01Z</time><name>PT9488</name></trkpt>
<trkpt lat="53.171492" lon="-3.937905"><ele>632</ele><time>2020-08-16T14:16:02Z</time><name>PT9489</name></trkpt>
<trkpt lat="53.171500" lon="-3.937891"><ele>632</ele><time>2020-08-16T14:16:03Z</time><name>PT9490</name></trkpt>
<trkpt lat="53.171508" lon="-3.937879"><ele>632</ele><time>2020-08-16T14:16:04Z</time><name>PT9491</name></trkpt>
<trkpt lat="53.171515" lon="-3.937864"><ele>632</ele><time>2020-08-16T14:16:05Z</time><name>PT9492</name></trkpt>
<trkpt lat="53.171524" lon="-3.937851"><ele>632</ele><time>2020-08-16T14:16:06Z</time><name>PT9493</name></trkpt>
<trkpt lat="53.171534" lon="-3.937836"><ele>632</ele><time>2020-08-16T14:16:07Z</time><name>PT9494</name></trkpt>
<trkpt lat="53.171542" lon="-3.937824"><ele>631</ele><time>2020-08-16T14:16:08Z</time><name>PT9495</name></trkpt>
<trkpt lat="53.171550" lon="-3.937816"><ele>631</ele><time>2020-08-16T14:16:09Z</time><name>PT9496</name></trkpt>
<trkpt lat="53.171558" lon="-3.937809"><ele>631</ele><time>2020-08-16T14:16:10Z</time><name>PT9497</name></trkpt>
<trkpt lat="53.171567" lon="-3.937800"><ele>631</ele><time>2020-08-16T14:16:11Z</time><name>PT9498</name></trkpt>
<trkpt lat="53.171573" lon="-3.937790"><ele>631</ele><time>2020-08-16T14:16:12Z</time><name>PT9499</name></trkpt>
<trkpt lat="53.171580" lon="-3.937780"><ele>631</ele><time>2020-08-16T14:16:13Z</time><name>PT9500</name></trkpt>
<trkpt lat="53.171587" lon="-3.937771"><ele>631</ele><time>2020-08-16T14:16:14Z</time><name>PT9501</name></trkpt>
<trkpt lat="53.171593" lon="-3.937760"><ele>631</ele><time>2020-08-16T14:16:15Z</time><name>PT9502</name></trkpt>
<trkpt lat="53.171603" lon="-3.937746"><ele>630</ele><time>2020-08-16T14:16:16Z</time><name>PT9503</name></trkpt>
<trkpt lat="53.171614" lon="-3.937733"><ele>630</ele><time>2020-08-16T14:16:17Z</time><name>PT9504</name></trkpt>
<trkpt lat="53.171624" lon="-3.937723"><ele>630</ele><time>2020-08-16T14:16:18Z</time><name>PT9505</name></trkpt>
<trkpt lat="53.171633" lon="-3.937713"><ele>631</ele><time>2020-08-16T14:16:19Z</time><name>PT9506</name></trkpt>
<trkpt lat="53.171643" lon="-3.937703"><ele>631</ele><time>2020-08-16T14:16:20Z</time><name>PT9507</name></trkpt>
<trkpt lat="53.171653" lon="-3.937689"><ele>631</ele><time>2020-08-16T14:16:21Z</time><name>PT9508</name></trkpt>
<trkpt lat="53.171658" lon="-3.937675"><ele>631</ele><time>2020-08-16T14:16:22Z</time><name>PT9509</name></trkpt>
<trkpt lat="53.171664" lon="-3.937664"><ele>631</ele><time>2020-08-16T14:16:23Z</time><name>PT9510</name></trkpt>
<trkpt lat="53.171670" lon="-3.937649"><ele>630</ele><time>2020-08-16T14:16:24Z</time><name>PT9511</name></trkpt>
<trkpt lat="53.171674" lon="-3.937635"><ele>630</ele><time>2020-08-16T14:16:25Z</time><name>PT9512</name></trkpt>
<trkpt lat="53.171678" lon="-3.937623"><ele>630</ele><time>2020-08-16T14:16:26Z</time><name>PT9513</name></trkpt>
<trkpt lat="53.171683" lon="-3.937609"><ele>630</ele><time>2020-08-16T14:16:27Z</time><name>PT9514</name></trkpt>
<trkpt lat="53.171687" lon="-3.937597"><ele>630</ele><time>2020-08-16T14:16:28Z</time><name>PT9515</name></trkpt>
<trkpt lat="53.171693" lon="-3.937587"><ele>630</ele><time>2020-08-16T14:16:29Z</time><name>PT9516</name></trkpt>
<trkpt lat="53.171697" lon="-3.937578"><ele>630</ele><time>2020-08-16T14:16:30Z</time><name>PT9517</name></trkpt>
<trkpt lat="53.171702" lon="-3.937568"><ele>629</ele><time>2020-08-16T14:16:31Z</time><name>PT9518</name></trkpt>
<trkpt lat="53.171710" lon="-3.937560"><ele>629</ele><time>2020-08-16T14:16:32Z</time><name>PT9519</name></trkpt>
<trkpt lat="53.171716" lon="-3.937545"><ele>629</ele><time>2020-08-16T14:16:33Z</time><name>PT9520</name></trkpt>
<trkpt lat="53.171719" lon="-3.937531"><ele>629</ele><time>2020-08-16T14:16:34Z</time><name>PT9521</name></trkpt>
<trkpt lat="53.171720" lon="-3.937524"><ele>629</ele><time>2020-08-16T14:16:35Z</time><name>PT9522</name></trkpt>
<trkpt lat="53.171721" lon="-3.937522"><ele>628</ele><time>2020-08-16T14:16:36Z</time><name>PT9523</name></trkpt>
<trkpt lat="53.171724" lon="-3.937521"><ele>628</ele><time>2020-08-16T14:16:37Z</time><name>PT9524</name></trkpt>
<trkpt lat="53.171727" lon="-3.937511"><ele>629</ele><time>2020-08-16T14:16:41Z</time><name>PT9525</name></trkpt>
<trkpt lat="53.171732" lon="-3.937502"><ele>628</ele><time>2020-08-16T14:16:42Z</time><name>PT9526</name></trkpt>
<trkpt lat="53.171746" lon="-3.937493"><ele>628</ele><time>2020-08-16T14:16:43Z</time><name>PT9527</name></trkpt>
<trkpt lat="53.171757" lon="-3.937490"><ele>628</ele><time>2020-08-16T14:16:44Z</time><name>PT9528</name></trkpt>
<trkpt lat="53.171759" lon="-3.937487"><ele>627</ele><time>2020-08-16T14:16:46Z</time><name>PT9529</name></trkpt>
<trkpt lat="53.171756" lon="-3.937483"><ele>627</ele><time>2020-08-16T14:16:46Z</time><name>PT9530</name></trkpt>
<trkpt lat="53.171752" lon="-3.937487"><ele>627</ele><time>2020-08-16T14:16:47Z</time><name>PT9531</name></trkpt>
<trkpt lat="53.171741" lon="-3.937497"><ele>627</ele><time>2020-08-16T14:16:48Z</time><name>PT9532</name></trkpt>
<trkpt lat="53.171732" lon="-3.937499"><ele>627</ele><time>2020-08-16T14:16:49Z</time><name>PT9533</name></trkpt>
<trkpt lat="53.171724" lon="-3.937503"><ele>627</ele><time>2020-08-16T14:16:50Z</time><name>PT9534</name></trkpt>
<trkpt lat="53.171717" lon="-3.937504"><ele>627</ele><time>2020-08-16T14:16:51Z</time><name>PT9535</name></trkpt>
<trkpt lat="53.171710" lon="-3.937494"><ele>627</ele><time>2020-08-16T14:16:52Z</time><name>PT9536</name></trkpt>
<trkpt lat="53.171708" lon="-3.937476"><ele>627</ele><time>2020-08-16T14:16:53Z</time><name>PT9537</name></trkpt>
<trkpt lat="53.171713" lon="-3.937464"><ele>627</ele><time>2020-08-16T14:16:54Z</time><name>PT9538</name></trkpt>
<trkpt lat="53.171716" lon="-3.937453"><ele>627</ele><time>2020-08-16T14:16:55Z</time><name>PT9539</name></trkpt>
<trkpt lat="53.171716" lon="-3.937447"><ele>626</ele><time>2020-08-16T14:16:56Z</time><name>PT9540</name></trkpt>
<trkpt lat="53.171721" lon="-3.937445"><ele>626</ele><time>2020-08-16T14:16:57Z</time><name>PT9541</name></trkpt>
<trkpt lat="53.171727" lon="-3.937445"><ele>626</ele><time>2020-08-16T14:16:58Z</time><name>PT9542</name></trkpt>
<trkpt lat="53.171732" lon="-3.937448"><ele>626</ele><time>2020-08-16T14:16:59Z</time><name>PT9543</name></trkpt>
<trkpt lat="53.171736" lon="-3.937452"><ele>626</ele><time>2020-08-16T14:17:00Z</time><name>PT9544</name></trkpt>
<trkpt lat="53.171736" lon="-3.937449"><ele>626</ele><time>2020-08-16T14:17:01Z</time><name>PT9545</name></trkpt>
<trkpt lat="53.171739" lon="-3.937447"><ele>625</ele><time>2020-08-16T14:17:02Z</time><name>PT9546</name></trkpt>
<trkpt lat="53.171744" lon="-3.937442"><ele>625</ele><time>2020-08-16T14:17:03Z</time><name>PT9547</name></trkpt>
<trkpt lat="53.171751" lon="-3.937432"><ele>625</ele><time>2020-08-16T14:17:04Z</time><name>PT9548</name></trkpt>
<trkpt lat="53.171757" lon="-3.937418"><ele>625</ele><time>2020-08-16T14:17:05Z</time><name>PT9549</name></trkpt>
<trkpt lat="53.171764" lon="-3.937406"><ele>625</ele><time>2020-08-16T14:17:06Z</time><name>PT9550</name></trkpt>
<trkpt lat="53.171773" lon="-3.937396"><ele>625</ele><time>2020-08-16T14:17:07Z</time><name>PT9551</name></trkpt>
<trkpt lat="53.171778" lon="-3.937382"><ele>625</ele><time>2020-08-16T14:17:08Z</time><name>PT9552</name></trkpt>
<trkpt lat="53.171775" lon="-3.937376"><ele>625</ele><time>2020-08-16T14:17:09Z</time><name>PT9553</name></trkpt>
<trkpt lat="53.171774" lon="-3.937375"><ele>625</ele><time>2020-08-16T14:17:10Z</time><name>PT9554</name></trkpt>
<trkpt lat="53.171779" lon="-3.937366"><ele>625</ele><time>2020-08-16T14:17:11Z</time><name>PT9555</name></trkpt>
<trkpt lat="53.171787" lon="-3.937352"><ele>626</ele><time>2020-08-16T14:17:12Z</time><name>PT9556</name></trkpt>
<trkpt lat="53.171791" lon="-3.937344"><ele>626</ele><time>2020-08-16T14:17:13Z</time><name>PT9557</name></trkpt>
<trkpt lat="53.171797" lon="-3.937334"><ele>625</ele><time>2020-08-16T14:17:14Z</time><name>PT9558</name></trkpt>
<trkpt lat="53.171805" lon="-3.937323"><ele>625</ele><time>2020-08-16T14:17:15Z</time><name>PT9559</name></trkpt>
<trkpt lat="53.171810" lon="-3.937312"><ele>625</ele><time>2020-08-16T14:17:16Z</time><name>PT9560</name></trkpt>
<trkpt lat="53.171813" lon="-3.937299"><ele>625</ele><time>2020-08-16T14:17:17Z</time><name>PT9561</name></trkpt>
<trkpt lat="53.171817" lon="-3.937286"><ele>625</ele><time>2020-08-16T14:17:18Z</time><name>PT9562</name></trkpt>
<trkpt lat="53.171822" lon="-3.937272"><ele>625</ele><time>2020-08-16T14:17:19Z</time><name>PT9563</name></trkpt>
<trkpt lat="53.171828" lon="-3.937261"><ele>625</ele><time>2020-08-16T14:17:20Z</time><name>PT9564</name></trkpt>
<trkpt lat="53.171836" lon="-3.937253"><ele>625</ele><time>2020-08-16T14:17:21Z</time><name>PT9565</name></trkpt>
<trkpt lat="53.171845" lon="-3.937241"><ele>625</ele><time>2020-08-16T14:17:22Z</time><name>PT9566</name></trkpt>
<trkpt lat="53.171850" lon="-3.937225"><ele>625</ele><time>2020-08-16T14:17:23Z</time><name>PT9567</name></trkpt>
<trkpt lat="53.171849" lon="-3.937163"><ele>624</ele><time>2020-08-16T14:17:27Z</time><name>PT9568</name></trkpt>
<trkpt lat="53.171855" lon="-3.937153"><ele>624</ele><time>2020-08-16T14:17:30Z</time><name>PT9569</name></trkpt>
<trkpt lat="53.171860" lon="-3.937131"><ele>623</ele><time>2020-08-16T14:17:33Z</time><name>PT9570</name></trkpt>
<trkpt lat="53.171893" lon="-3.937096"><ele>623</ele><time>2020-08-16T14:17:37Z</time><name>PT9571</name></trkpt>
<trkpt lat="53.171910" lon="-3.937090"><ele>623</ele><time>2020-08-16T14:17:40Z</time><name>PT9572</name></trkpt>
<trkpt lat="53.171922" lon="-3.937076"><ele>622</ele><time>2020-08-16T14:17:44Z</time><name>PT9573</name></trkpt>
<trkpt lat="53.171948" lon="-3.937057"><ele>622</ele><time>2020-08-16T14:17:48Z</time><name>PT9574</name></trkpt>
<trkpt lat="53.171954" lon="-3.937047"><ele>622</ele><time>2020-08-16T14:17:49Z</time><name>PT9575</name></trkpt>
<trkpt lat="53.171956" lon="-3.937048"><ele>622</ele><time>2020-08-16T14:17:50Z</time><name>PT9576</name></trkpt>
<trkpt lat="53.171958" lon="-3.937052"><ele>622</ele><time>2020-08-16T14:17:51Z</time><name>PT9577</name></trkpt>
<trkpt lat="53.171961" lon="-3.937059"><ele>622</ele><time>2020-08-16T14:17:52Z</time><name>PT9578</name></trkpt>
<trkpt lat="53.171967" lon="-3.937065"><ele>622</ele><time>2020-08-16T14:17:53Z</time><name>PT9579</name></trkpt>
<trkpt lat="53.171971" lon="-3.937069"><ele>622</ele><time>2020-08-16T14:17:54Z</time><name>PT9580</name></trkpt>
<trkpt lat="53.171975" lon="-3.937074"><ele>622</ele><time>2020-08-16T14:17:55Z</time><name>PT9581</name></trkpt>
<trkpt lat="53.171975" lon="-3.937077"><ele>622</ele><time>2020-08-16T14:17:56Z</time><name>PT9582</name></trkpt>
<trkpt lat="53.171975" lon="-3.937078"><ele>622</ele><time>2020-08-16T14:17:57Z</time><name>PT9583</name></trkpt>
<trkpt lat="53.171977" lon="-3.937078"><ele>622</ele><time>2020-08-16T14:17:58Z</time><name>PT9584</name></trkpt>
<trkpt lat="53.171972" lon="-3.937078"><ele>622</ele><time>2020-08-16T14:18:06Z</time><name>PT9585</name></trkpt>
<trkpt lat="53.171971" lon="-3.937084"><ele>622</ele><time>2020-08-16T14:18:07Z</time><name>PT9586</name></trkpt>
<trkpt lat="53.171971" lon="-3.937087"><ele>623</ele><time>2020-08-16T14:18:16Z</time><name>PT9587</name></trkpt>
<trkpt lat="53.171968" lon="-3.937083"><ele>623</ele><time>2020-08-16T14:18:17Z</time><name>PT9588</name></trkpt>
<trkpt lat="53.171968" lon="-3.937087"><ele>623</ele><time>2020-08-16T14:18:18Z</time><name>PT9589</name></trkpt>
<trkpt lat="53.171968" lon="-3.937088"><ele>623</ele><time>2020-08-16T14:18:19Z</time><name>PT9590</name></trkpt>
<trkpt lat="53.171967" lon="-3.937089"><ele>623</ele><time>2020-08-16T14:18:20Z</time><name>PT9591</name></trkpt>
<trkpt lat="53.171966" lon="-3.937088"><ele>623</ele><time>2020-08-16T14:18:38Z</time><name>PT9592</name></trkpt>
<trkpt lat="53.171968" lon="-3.937088"><ele>623</ele><time>2020-08-16T14:18:39Z</time><name>PT9593</name></trkpt>
<trkpt lat="53.171968" lon="-3.937086"><ele>623</ele><time>2020-08-16T14:18:40Z</time><name>PT9594</name></trkpt>
<trkpt lat="53.171969" lon="-3.937085"><ele>623</ele><time>2020-08-16T14:18:41Z</time><name>PT9595</name></trkpt>
<trkpt lat="53.171970" lon="-3.937089"><ele>623</ele><time>2020-08-16T14:18:42Z</time><name>PT9596</name></trkpt>
<trkpt lat="53.171972" lon="-3.937084"><ele>623</ele><time>2020-08-16T14:18:59Z</time><name>PT9597</name></trkpt>
<trkpt lat="53.171973" lon="-3.937083"><ele>623</ele><time>2020-08-16T14:19:00Z</time><name>PT9598</name></trkpt>
<trkpt lat="53.171974" lon="-3.937087"><ele>623</ele><time>2020-08-16T14:19:01Z</time><name>PT9599</name></trkpt>
<trkpt lat="53.171976" lon="-3.937088"><ele>622</ele><time>2020-08-16T14:19:02Z</time><name>PT9600</name></trkpt>
<trkpt lat="53.171975" lon="-3.937088"><ele>622</ele><time>2020-08-16T14:19:26Z</time><name>PT9601</name></trkpt>
<trkpt lat="53.171968" lon="-3.937079"><ele>622</ele><time>2020-08-16T14:19:27Z</time><name>PT9602</name></trkpt>
<trkpt lat="53.171962" lon="-3.937071"><ele>622</ele><time>2020-08-16T14:19:28Z</time><name>PT9603</name></trkpt>
<trkpt lat="53.171956" lon="-3.937061"><ele>622</ele><time>2020-08-16T14:19:29Z</time><name>PT9604</name></trkpt>
<trkpt lat="53.171949" lon="-3.937048"><ele>622</ele><time>2020-08-16T14:19:30Z</time><name>PT9605</name></trkpt>
<trkpt lat="53.171942" lon="-3.937033"><ele>622</ele><time>2020-08-16T14:19:31Z</time><name>PT9606</name></trkpt>
<trkpt lat="53.171943" lon="-3.937029"><ele>622</ele><time>2020-08-16T14:19:32Z</time><name>PT9607</name></trkpt>
<trkpt lat="53.171942" lon="-3.937031"><ele>622</ele><time>2020-08-16T14:19:33Z</time><name>PT9608</name></trkpt>
<trkpt lat="53.171938" lon="-3.937024"><ele>621</ele><time>2020-08-16T14:19:34Z</time><name>PT9609</name></trkpt>
<trkpt lat="53.171934" lon="-3.937013"><ele>621</ele><time>2020-08-16T14:19:35Z</time><name>PT9610</name></trkpt>
<trkpt lat="53.171931" lon="-3.937003"><ele>621</ele><time>2020-08-16T14:19:36Z</time><name>PT9611</name></trkpt>
<trkpt lat="53.171925" lon="-3.936991"><ele>621</ele><time>2020-08-16T14:19:37Z</time><name>PT9612</name></trkpt>
<trkpt lat="53.171928" lon="-3.936975"><ele>622</ele><time>2020-08-16T14:19:38Z</time><name>PT9613</name></trkpt>
<trkpt lat="53.171927" lon="-3.936960"><ele>622</ele><time>2020-08-16T14:19:39Z</time><name>PT9614</name></trkpt>
<trkpt lat="53.171926" lon="-3.936943"><ele>622</ele><time>2020-08-16T14:19:40Z</time><name>PT9615</name></trkpt>
<trkpt lat="53.171923" lon="-3.936928"><ele>622</ele><time>2020-08-16T14:19:41Z</time><name>PT9616</name></trkpt>
<trkpt lat="53.171918" lon="-3.936911"><ele>621</ele><time>2020-08-16T14:19:42Z</time><name>PT9617</name></trkpt>
<trkpt lat="53.171913" lon="-3.936895"><ele>621</ele><time>2020-08-16T14:19:43Z</time><name>PT9618</name></trkpt>
<trkpt lat="53.171914" lon="-3.936879"><ele>621</ele><time>2020-08-16T14:19:44Z</time><name>PT9619</name></trkpt>
<trkpt lat="53.171915" lon="-3.936861"><ele>622</ele><time>2020-08-16T14:19:45Z</time><name>PT9620</name></trkpt>
<trkpt lat="53.171916" lon="-3.936842"><ele>621</ele><time>2020-08-16T14:19:46Z</time><name>PT9621</name></trkpt>
<trkpt lat="53.171913" lon="-3.936823"><ele>621</ele><time>2020-08-16T14:19:47Z</time><name>PT9622</name></trkpt>
<trkpt lat="53.171909" lon="-3.936806"><ele>620</ele><time>2020-08-16T14:19:48Z</time><name>PT9623</name></trkpt>
<trkpt lat="53.171908" lon="-3.936790"><ele>620</ele><time>2020-08-16T14:19:49Z</time><name>PT9624</name></trkpt>
<trkpt lat="53.171909" lon="-3.936773"><ele>620</ele><time>2020-08-16T14:19:50Z</time><name>PT9625</name></trkpt>
<trkpt lat="53.171908" lon="-3.936757"><ele>620</ele><time>2020-08-16T14:19:51Z</time><name>PT9626</name></trkpt>
<trkpt lat="53.171905" lon="-3.936742"><ele>620</ele><time>2020-08-16T14:19:52Z</time><name>PT9627</name></trkpt>
<trkpt lat="53.171905" lon="-3.936732"><ele>620</ele><time>2020-08-16T14:19:53Z</time><name>PT9628</name></trkpt>
<trkpt lat="53.171907" lon="-3.936720"><ele>620</ele><time>2020-08-16T14:19:54Z</time><name>PT9629</name></trkpt>
<trkpt lat="53.171906" lon="-3.936702"><ele>620</ele><time>2020-08-16T14:19:55Z</time><name>PT9630</name></trkpt>
<trkpt lat="53.171905" lon="-3.936688"><ele>620</ele><time>2020-08-16T14:19:56Z</time><name>PT9631</name></trkpt>
<trkpt lat="53.171907" lon="-3.936674"><ele>620</ele><time>2020-08-16T14:19:57Z</time><name>PT9632</name></trkpt>
<trkpt lat="53.171907" lon="-3.936659"><ele>620</ele><time>2020-08-16T14:19:58Z</time><name>PT9633</name></trkpt>
<trkpt lat="53.171909" lon="-3.936645"><ele>620</ele><time>2020-08-16T14:19:59Z</time><name>PT9634</name></trkpt>
<trkpt lat="53.171911" lon="-3.936626"><ele>620</ele><time>2020-08-16T14:20:00Z</time><name>PT9635</name></trkpt>
<trkpt lat="53.171916" lon="-3.936610"><ele>621</ele><time>2020-08-16T14:20:01Z</time><name>PT9636</name></trkpt>
<trkpt lat="53.171915" lon="-3.936595"><ele>620</ele><time>2020-08-16T14:20:02Z</time><name>PT9637</name></trkpt>
<trkpt lat="53.171913" lon="-3.936577"><ele>620</ele><time>2020-08-16T14:20:03Z</time><name>PT9638</name></trkpt>
<trkpt lat="53.171915" lon="-3.936556"><ele>620</ele><time>2020-08-16T14:20:04Z</time><name>PT9639</name></trkpt>
<trkpt lat="53.171917" lon="-3.936537"><ele>620</ele><time>2020-08-16T14:20:05Z</time><name>PT9640</name></trkpt>
<trkpt lat="53.171913" lon="-3.936519"><ele>620</ele><time>2020-08-16T14:20:06Z</time><name>PT9641</name></trkpt>
<trkpt lat="53.171913" lon="-3.936499"><ele>621</ele><time>2020-08-16T14:20:07Z</time><name>PT9642</name></trkpt>
<trkpt lat="53.171911" lon="-3.936481"><ele>621</ele><time>2020-08-16T14:20:08Z</time><name>PT9643</name></trkpt>
<trkpt lat="53.171916" lon="-3.936459"><ele>621</ele><time>2020-08-16T14:20:09Z</time><name>PT9644</name></trkpt>
<trkpt lat="53.171919" lon="-3.936443"><ele>622</ele><time>2020-08-16T14:20:10Z</time><name>PT9645</name></trkpt>
<trkpt lat="53.171921" lon="-3.936417"><ele>621</ele><time>2020-08-16T14:20:11Z</time><name>PT9646</name></trkpt>
<trkpt lat="53.171924" lon="-3.936398"><ele>622</ele><time>2020-08-16T14:20:12Z</time><name>PT9647</name></trkpt>
<trkpt lat="53.171924" lon="-3.936382"><ele>621</ele><time>2020-08-16T14:20:13Z</time><name>PT9648</name></trkpt>
<trkpt lat="53.171926" lon="-3.936368"><ele>621</ele><time>2020-08-16T14:20:14Z</time><name>PT9649</name></trkpt>
<trkpt lat="53.171926" lon="-3.936356"><ele>620</ele><time>2020-08-16T14:20:15Z</time><name>PT9650</name></trkpt>
<trkpt lat="53.171928" lon="-3.936343"><ele>620</ele><time>2020-08-16T14:20:16Z</time><name>PT9651</name></trkpt>
<trkpt lat="53.171927" lon="-3.936324"><ele>619</ele><time>2020-08-16T14:20:17Z</time><name>PT9652</name></trkpt>
<trkpt lat="53.171932" lon="-3.936305"><ele>620</ele><time>2020-08-16T14:20:18Z</time><name>PT9653</name></trkpt>
<trkpt lat="53.171931" lon="-3.936288"><ele>619</ele><time>2020-08-16T14:20:19Z</time><name>PT9654</name></trkpt>
<trkpt lat="53.171925" lon="-3.936270"><ele>618</ele><time>2020-08-16T14:20:20Z</time><name>PT9655</name></trkpt>
<trkpt lat="53.171928" lon="-3.936248"><ele>618</ele><time>2020-08-16T14:20:21Z</time><name>PT9656</name></trkpt>
<trkpt lat="53.171928" lon="-3.936229"><ele>618</ele><time>2020-08-16T14:20:22Z</time><name>PT9657</name></trkpt>
<trkpt lat="53.171931" lon="-3.936209"><ele>618</ele><time>2020-08-16T14:20:23Z</time><name>PT9658</name></trkpt>
<trkpt lat="53.171933" lon="-3.936188"><ele>618</ele><time>2020-08-16T14:20:24Z</time><name>PT9659</name></trkpt>
<trkpt lat="53.171936" lon="-3.936168"><ele>619</ele><time>2020-08-16T14:20:25Z</time><name>PT9660</name></trkpt>
<trkpt lat="53.171944" lon="-3.936154"><ele>619</ele><time>2020-08-16T14:20:26Z</time><name>PT9661</name></trkpt>
<trkpt lat="53.171952" lon="-3.936139"><ele>620</ele><time>2020-08-16T14:20:27Z</time><name>PT9662</name></trkpt>
<trkpt lat="53.171952" lon="-3.936124"><ele>620</ele><time>2020-08-16T14:20:28Z</time><name>PT9663</name></trkpt>
<trkpt lat="53.171963" lon="-3.936107"><ele>621</ele><time>2020-08-16T14:20:29Z</time><name>PT9664</name></trkpt>
<trkpt lat="53.171967" lon="-3.936089"><ele>620</ele><time>2020-08-16T14:20:30Z</time><name>PT9665</name></trkpt>
<trkpt lat="53.171970" lon="-3.936071"><ele>620</ele><time>2020-08-16T14:20:31Z</time><name>PT9666</name></trkpt>
<trkpt lat="53.171975" lon="-3.936053"><ele>620</ele><time>2020-08-16T14:20:32Z</time><name>PT9667</name></trkpt>
<trkpt lat="53.171982" lon="-3.936035"><ele>620</ele><time>2020-08-16T14:20:33Z</time><name>PT9668</name></trkpt>
<trkpt lat="53.171989" lon="-3.936014"><ele>620</ele><time>2020-08-16T14:20:34Z</time><name>PT9669</name></trkpt>
<trkpt lat="53.171990" lon="-3.936001"><ele>619</ele><time>2020-08-16T14:20:35Z</time><name>PT9670</name></trkpt>
<trkpt lat="53.171999" lon="-3.935989"><ele>620</ele><time>2020-08-16T14:20:36Z</time><name>PT9671</name></trkpt>
<trkpt lat="53.172003" lon="-3.935974"><ele>620</ele><time>2020-08-16T14:20:37Z</time><name>PT9672</name></trkpt>
<trkpt lat="53.172012" lon="-3.935954"><ele>621</ele><time>2020-08-16T14:20:38Z</time><name>PT9673</name></trkpt>
<trkpt lat="53.172017" lon="-3.935938"><ele>621</ele><time>2020-08-16T14:20:39Z</time><name>PT9674</name></trkpt>
<trkpt lat="53.172023" lon="-3.935923"><ele>621</ele><time>2020-08-16T14:20:40Z</time><name>PT9675</name></trkpt>
<trkpt lat="53.172025" lon="-3.935906"><ele>621</ele><time>2020-08-16T14:20:41Z</time><name>PT9676</name></trkpt>
<trkpt lat="53.172030" lon="-3.935890"><ele>621</ele><time>2020-08-16T14:20:42Z</time><name>PT9677</name></trkpt>
<trkpt lat="53.172036" lon="-3.935873"><ele>621</ele><time>2020-08-16T14:20:43Z</time><name>PT9678</name></trkpt>
<trkpt lat="53.172046" lon="-3.935858"><ele>622</ele><time>2020-08-16T14:20:44Z</time><name>PT9679</name></trkpt>
<trkpt lat="53.172049" lon="-3.935842"><ele>622</ele><time>2020-08-16T14:20:45Z</time><name>PT9680</name></trkpt>
<trkpt lat="53.172053" lon="-3.935824"><ele>622</ele><time>2020-08-16T14:20:46Z</time><name>PT9681</name></trkpt>
<trkpt lat="53.172059" lon="-3.935807"><ele>622</ele><time>2020-08-16T14:20:47Z</time><name>PT9682</name></trkpt>
<trkpt lat="53.172074" lon="-3.935755"><ele>622</ele><time>2020-08-16T14:20:50Z</time><name>PT9683</name></trkpt>
<trkpt lat="53.172092" lon="-3.935694"><ele>622</ele><time>2020-08-16T14:20:54Z</time><name>PT9684</name></trkpt>
<trkpt lat="53.172109" lon="-3.935628"><ele>622</ele><time>2020-08-16T14:20:58Z</time><name>PT9685</name></trkpt>
<trkpt lat="53.172137" lon="-3.935576"><ele>623</ele><time>2020-08-16T14:21:01Z</time><name>PT9686</name></trkpt>
<trkpt lat="53.172145" lon="-3.935525"><ele>623</ele><time>2020-08-16T14:21:04Z</time><name>PT9687</name></trkpt>
<trkpt lat="53.172162" lon="-3.935462"><ele>623</ele><time>2020-08-16T14:21:08Z</time><name>PT9688</name></trkpt>
<trkpt lat="53.172167" lon="-3.935404"><ele>623</ele><time>2020-08-16T14:21:11Z</time><name>PT9689</name></trkpt>
<trkpt lat="53.172184" lon="-3.935337"><ele>623</ele><time>2020-08-16T14:21:15Z</time><name>PT9690</name></trkpt>
<trkpt lat="53.172193" lon="-3.935283"><ele>624</ele><time>2020-08-16T14:21:19Z</time><name>PT9691</name></trkpt>
<trkpt lat="53.172216" lon="-3.935215"><ele>625</ele><time>2020-08-16T14:21:23Z</time><name>PT9692</name></trkpt>
<trkpt lat="53.172236" lon="-3.935166"><ele>625</ele><time>2020-08-16T14:21:26Z</time><name>PT9693</name></trkpt>
<trkpt lat="53.172253" lon="-3.935093"><ele>625</ele><time>2020-08-16T14:21:30Z</time><name>PT9694</name></trkpt>
<trkpt lat="53.172271" lon="-3.935042"><ele>625</ele><time>2020-08-16T14:21:33Z</time><name>PT9695</name></trkpt>
<trkpt lat="53.172278" lon="-3.934997"><ele>624</ele><time>2020-08-16T14:21:37Z</time><name>PT9696</name></trkpt>
<trkpt lat="53.172303" lon="-3.934929"><ele>623</ele><time>2020-08-16T14:21:40Z</time><name>PT9697</name></trkpt>
<trkpt lat="53.172326" lon="-3.934855"><ele>622</ele><time>2020-08-16T14:21:44Z</time><name>PT9698</name></trkpt>
<trkpt lat="53.172363" lon="-3.934795"><ele>624</ele><time>2020-08-16T14:21:47Z</time><name>PT9699</name></trkpt>
<trkpt lat="53.172377" lon="-3.934745"><ele>623</ele><time>2020-08-16T14:21:50Z</time><name>PT9700</name></trkpt>
<trkpt lat="53.172395" lon="-3.934685"><ele>623</ele><time>2020-08-16T14:21:54Z</time><name>PT9701</name></trkpt>
<trkpt lat="53.172427" lon="-3.934632"><ele>623</ele><time>2020-08-16T14:21:58Z</time><name>PT9702</name></trkpt>
<trkpt lat="53.172442" lon="-3.934578"><ele>623</ele><time>2020-08-16T14:22:01Z</time><name>PT9703</name></trkpt>
<trkpt lat="53.172457" lon="-3.934515"><ele>623</ele><time>2020-08-16T14:22:05Z</time><name>PT9704</name></trkpt>
<trkpt lat="53.172479" lon="-3.934441"><ele>623</ele><time>2020-08-16T14:22:09Z</time><name>PT9705</name></trkpt>
<trkpt lat="53.172486" lon="-3.934367"><ele>622</ele><time>2020-08-16T14:22:13Z</time><name>PT9706</name></trkpt>
<trkpt lat="53.172493" lon="-3.934300"><ele>622</ele><time>2020-08-16T14:22:17Z</time><name>PT9707</name></trkpt>
<trkpt lat="53.172494" lon="-3.934243"><ele>620</ele><time>2020-08-16T14:22:20Z</time><name>PT9708</name></trkpt>
<trkpt lat="53.172501" lon="-3.934166"><ele>621</ele><time>2020-08-16T14:22:24Z</time><name>PT9709</name></trkpt>
<trkpt lat="53.172514" lon="-3.934096"><ele>621</ele><time>2020-08-16T14:22:28Z</time><name>PT9710</name></trkpt>
<trkpt lat="53.172526" lon="-3.934045"><ele>621</ele><time>2020-08-16T14:22:31Z</time><name>PT9711</name></trkpt>
<trkpt lat="53.172543" lon="-3.933971"><ele>621</ele><time>2020-08-16T14:22:35Z</time><name>PT9712</name></trkpt>
<trkpt lat="53.172551" lon="-3.933918"><ele>619</ele><time>2020-08-16T14:22:38Z</time><name>PT9713</name></trkpt>
<trkpt lat="53.172566" lon="-3.933819"><ele>620</ele><time>2020-08-16T14:22:42Z</time><name>PT9714</name></trkpt>
<trkpt lat="53.172585" lon="-3.933769"><ele>621</ele><time>2020-08-16T14:22:45Z</time><name>PT9715</name></trkpt>
<trkpt lat="53.172591" lon="-3.933750"><ele>622</ele><time>2020-08-16T14:22:46Z</time><name>PT9716</name></trkpt>
<trkpt lat="53.172595" lon="-3.933732"><ele>622</ele><time>2020-08-16T14:22:47Z</time><name>PT9717</name></trkpt>
<trkpt lat="53.172599" lon="-3.933714"><ele>622</ele><time>2020-08-16T14:22:48Z</time><name>PT9718</name></trkpt>
<trkpt lat="53.172603" lon="-3.933696"><ele>623</ele><time>2020-08-16T14:22:49Z</time><name>PT9719</name></trkpt>
<trkpt lat="53.172604" lon="-3.933679"><ele>623</ele><time>2020-08-16T14:22:50Z</time><name>PT9720</name></trkpt>
<trkpt lat="53.172607" lon="-3.933662"><ele>623</ele><time>2020-08-16T14:22:51Z</time><name>PT9721</name></trkpt>
<trkpt lat="53.172609" lon="-3.933646"><ele>623</ele><time>2020-08-16T14:22:52Z</time><name>PT9722</name></trkpt>
<trkpt lat="53.172609" lon="-3.933631"><ele>623</ele><time>2020-08-16T14:22:53Z</time><name>PT9723</name></trkpt>
<trkpt lat="53.172610" lon="-3.933616"><ele>623</ele><time>2020-08-16T14:22:54Z</time><name>PT9724</name></trkpt>
<trkpt lat="53.172614" lon="-3.933605"><ele>624</ele><time>2020-08-16T14:22:55Z</time><name>PT9725</name></trkpt>
<trkpt lat="53.172619" lon="-3.933591"><ele>624</ele><time>2020-08-16T14:22:56Z</time><name>PT9726</name></trkpt>
<trkpt lat="53.172621" lon="-3.933572"><ele>624</ele><time>2020-08-16T14:22:57Z</time><name>PT9727</name></trkpt>
<trkpt lat="53.172624" lon="-3.933550"><ele>624</ele><time>2020-08-16T14:22:58Z</time><name>PT9728</name></trkpt>
<trkpt lat="53.172626" lon="-3.933534"><ele>624</ele><time>2020-08-16T14:22:59Z</time><name>PT9729</name></trkpt>
<trkpt lat="53.172628" lon="-3.933517"><ele>624</ele><time>2020-08-16T14:23:00Z</time><name>PT9730</name></trkpt>
<trkpt lat="53.172632" lon="-3.933500"><ele>624</ele><time>2020-08-16T14:23:01Z</time><name>PT9731</name></trkpt>
<trkpt lat="53.172635" lon="-3.933485"><ele>624</ele><time>2020-08-16T14:23:02Z</time><name>PT9732</name></trkpt>
<trkpt lat="53.172639" lon="-3.933474"><ele>624</ele><time>2020-08-16T14:23:03Z</time><name>PT9733</name></trkpt>
<trkpt lat="53.172643" lon="-3.933462"><ele>624</ele><time>2020-08-16T14:23:05Z</time><name>PT9734</name></trkpt>
<trkpt lat="53.172648" lon="-3.933447"><ele>624</ele><time>2020-08-16T14:23:05Z</time><name>PT9735</name></trkpt>
<trkpt lat="53.172653" lon="-3.933435"><ele>624</ele><time>2020-08-16T14:23:06Z</time><name>PT9736</name></trkpt>
<trkpt lat="53.172656" lon="-3.933421"><ele>624</ele><time>2020-08-16T14:23:07Z</time><name>PT9737</name></trkpt>
<trkpt lat="53.172662" lon="-3.933409"><ele>624</ele><time>2020-08-16T14:23:08Z</time><name>PT9738</name></trkpt>
<trkpt lat="53.172665" lon="-3.933399"><ele>624</ele><time>2020-08-16T14:23:09Z</time><name>PT9739</name></trkpt>
<trkpt lat="53.172672" lon="-3.933390"><ele>625</ele><time>2020-08-16T14:23:10Z</time><name>PT9740</name></trkpt>
<trkpt lat="53.172675" lon="-3.933379"><ele>625</ele><time>2020-08-16T14:23:11Z</time><name>PT9741</name></trkpt>
<trkpt lat="53.172674" lon="-3.933366"><ele>625</ele><time>2020-08-16T14:23:12Z</time><name>PT9742</name></trkpt>
<trkpt lat="53.172675" lon="-3.933351"><ele>624</ele><time>2020-08-16T14:23:13Z</time><name>PT9743</name></trkpt>
<trkpt lat="53.172676" lon="-3.933335"><ele>624</ele><time>2020-08-16T14:23:14Z</time><name>PT9744</name></trkpt>
<trkpt lat="53.172678" lon="-3.933318"><ele>624</ele><time>2020-08-16T14:23:15Z</time><name>PT9745</name></trkpt>
<trkpt lat="53.172679" lon="-3.933302"><ele>624</ele><time>2020-08-16T14:23:16Z</time><name>PT9746</name></trkpt>
<trkpt lat="53.172686" lon="-3.933288"><ele>624</ele><time>2020-08-16T14:23:17Z</time><name>PT9747</name></trkpt>
<trkpt lat="53.172689" lon="-3.933273"><ele>624</ele><time>2020-08-16T14:23:18Z</time><name>PT9748</name></trkpt>
<trkpt lat="53.172692" lon="-3.933257"><ele>624</ele><time>2020-08-16T14:23:19Z</time><name>PT9749</name></trkpt>
<trkpt lat="53.172698" lon="-3.933243"><ele>625</ele><time>2020-08-16T14:23:20Z</time><name>PT9750</name></trkpt>
<trkpt lat="53.172705" lon="-3.933226"><ele>625</ele><time>2020-08-16T14:23:21Z</time><name>PT9751</name></trkpt>
<trkpt lat="53.172712" lon="-3.933209"><ele>626</ele><time>2020-08-16T14:23:22Z</time><name>PT9752</name></trkpt>
<trkpt lat="53.172715" lon="-3.933192"><ele>626</ele><time>2020-08-16T14:23:23Z</time><name>PT9753</name></trkpt>
<trkpt lat="53.172721" lon="-3.933178"><ele>627</ele><time>2020-08-16T14:23:24Z</time><name>PT9754</name></trkpt>
<trkpt lat="53.172728" lon="-3.933161"><ele>627</ele><time>2020-08-16T14:23:25Z</time><name>PT9755</name></trkpt>
<trkpt lat="53.172737" lon="-3.933145"><ele>628</ele><time>2020-08-16T14:23:26Z</time><name>PT9756</name></trkpt>
<trkpt lat="53.172742" lon="-3.933129"><ele>628</ele><time>2020-08-16T14:23:27Z</time><name>PT9757</name></trkpt>
<trkpt lat="53.172746" lon="-3.933111"><ele>628</ele><time>2020-08-16T14:23:28Z</time><name>PT9758</name></trkpt>
<trkpt lat="53.172750" lon="-3.933092"><ele>628</ele><time>2020-08-16T14:23:29Z</time><name>PT9759</name></trkpt>
<trkpt lat="53.172752" lon="-3.933076"><ele>628</ele><time>2020-08-16T14:23:30Z</time><name>PT9760</name></trkpt>
<trkpt lat="53.172759" lon="-3.933058"><ele>628</ele><time>2020-08-16T14:23:31Z</time><name>PT9761</name></trkpt>
<trkpt lat="53.172764" lon="-3.933042"><ele>628</ele><time>2020-08-16T14:23:32Z</time><name>PT9762</name></trkpt>
<trkpt lat="53.172767" lon="-3.933026"><ele>628</ele><time>2020-08-16T14:23:33Z</time><name>PT9763</name></trkpt>
<trkpt lat="53.172772" lon="-3.933012"><ele>628</ele><time>2020-08-16T14:23:34Z</time><name>PT9764</name></trkpt>
<trkpt lat="53.172777" lon="-3.932999"><ele>628</ele><time>2020-08-16T14:23:35Z</time><name>PT9765</name></trkpt>
<trkpt lat="53.172783" lon="-3.932988"><ele>628</ele><time>2020-08-16T14:23:36Z</time><name>PT9766</name></trkpt>
<trkpt lat="53.172786" lon="-3.932978"><ele>628</ele><time>2020-08-16T14:23:37Z</time><name>PT9767</name></trkpt>
<trkpt lat="53.172788" lon="-3.932964"><ele>627</ele><time>2020-08-16T14:23:38Z</time><name>PT9768</name></trkpt>
<trkpt lat="53.172793" lon="-3.932952"><ele>627</ele><time>2020-08-16T14:23:40Z</time><name>PT9769</name></trkpt>
<trkpt lat="53.172800" lon="-3.932938"><ele>628</ele><time>2020-08-16T14:23:40Z</time><name>PT9770</name></trkpt>
<trkpt lat="53.172805" lon="-3.932923"><ele>627</ele><time>2020-08-16T14:23:41Z</time><name>PT9771</name></trkpt>
<trkpt lat="53.172810" lon="-3.932907"><ele>627</ele><time>2020-08-16T14:23:42Z</time><name>PT9772</name></trkpt>
<trkpt lat="53.172814" lon="-3.932889"><ele>627</ele><time>2020-08-16T14:23:43Z</time><name>PT9773</name></trkpt>
<trkpt lat="53.172820" lon="-3.932872"><ele>627</ele><time>2020-08-16T14:23:44Z</time><name>PT9774</name></trkpt>
<trkpt lat="53.172824" lon="-3.932855"><ele>627</ele><time>2020-08-16T14:23:45Z</time><name>PT9775</name></trkpt>
<trkpt lat="53.172831" lon="-3.932841"><ele>627</ele><time>2020-08-16T14:23:46Z</time><name>PT9776</name></trkpt>
<trkpt lat="53.172838" lon="-3.932825"><ele>627</ele><time>2020-08-16T14:23:47Z</time><name>PT9777</name></trkpt>
<trkpt lat="53.172844" lon="-3.932808"><ele>627</ele><time>2020-08-16T14:23:48Z</time><name>PT9778</name></trkpt>
<trkpt lat="53.172849" lon="-3.932792"><ele>627</ele><time>2020-08-16T14:23:49Z</time><name>PT9779</name></trkpt>
<trkpt lat="53.172853" lon="-3.932773"><ele>627</ele><time>2020-08-16T14:23:50Z</time><name>PT9780</name></trkpt>
<trkpt lat="53.172860" lon="-3.932757"><ele>627</ele><time>2020-08-16T14:23:51Z</time><name>PT9781</name></trkpt>
<trkpt lat="53.172867" lon="-3.932739"><ele>627</ele><time>2020-08-16T14:23:52Z</time><name>PT9782</name></trkpt>
<trkpt lat="53.172873" lon="-3.932718"><ele>627</ele><time>2020-08-16T14:23:53Z</time><name>PT9783</name></trkpt>
<trkpt lat="53.172882" lon="-3.932700"><ele>627</ele><time>2020-08-16T14:23:54Z</time><name>PT9784</name></trkpt>
<trkpt lat="53.172889" lon="-3.932681"><ele>627</ele><time>2020-08-16T14:23:55Z</time><name>PT9785</name></trkpt>
<trkpt lat="53.172895" lon="-3.932665"><ele>627</ele><time>2020-08-16T14:23:56Z</time><name>PT9786</name></trkpt>
<trkpt lat="53.172904" lon="-3.932651"><ele>628</ele><time>2020-08-16T14:23:57Z</time><name>PT9787</name></trkpt>
<trkpt lat="53.172911" lon="-3.932640"><ele>628</ele><time>2020-08-16T14:23:58Z</time><name>PT9788</name></trkpt>
<trkpt lat="53.172919" lon="-3.932630"><ele>628</ele><time>2020-08-16T14:23:59Z</time><name>PT9789</name></trkpt>
<trkpt lat="53.172925" lon="-3.932617"><ele>628</ele><time>2020-08-16T14:24:00Z</time><name>PT9790</name></trkpt>
<trkpt lat="53.172930" lon="-3.932608"><ele>628</ele><time>2020-08-16T14:24:01Z</time><name>PT9791</name></trkpt>
<trkpt lat="53.172935" lon="-3.932596"><ele>628</ele><time>2020-08-16T14:24:02Z</time><name>PT9792</name></trkpt>
<trkpt lat="53.172942" lon="-3.932585"><ele>628</ele><time>2020-08-16T14:24:03Z</time><name>PT9793</name></trkpt>
<trkpt lat="53.172947" lon="-3.932574"><ele>628</ele><time>2020-08-16T14:24:04Z</time><name>PT9794</name></trkpt>
<trkpt lat="53.172953" lon="-3.932558"><ele>628</ele><time>2020-08-16T14:24:05Z</time><name>PT9795</name></trkpt>
<trkpt lat="53.172962" lon="-3.932542"><ele>628</ele><time>2020-08-16T14:24:06Z</time><name>PT9796</name></trkpt>
<trkpt lat="53.172969" lon="-3.932528"><ele>628</ele><time>2020-08-16T14:24:07Z</time><name>PT9797</name></trkpt>
<trkpt lat="53.172962" lon="-3.932514"><ele>625</ele><time>2020-08-16T14:24:08Z</time><name>PT9798</name></trkpt>
<trkpt lat="53.172966" lon="-3.932505"><ele>625</ele><time>2020-08-16T14:24:09Z</time><name>PT9799</name></trkpt>
<trkpt lat="53.172974" lon="-3.932493"><ele>625</ele><time>2020-08-16T14:24:10Z</time><name>PT9800</name></trkpt>
<trkpt lat="53.172983" lon="-3.932479"><ele>625</ele><time>2020-08-16T14:24:11Z</time><name>PT9801</name></trkpt>
<trkpt lat="53.172987" lon="-3.932468"><ele>625</ele><time>2020-08-16T14:24:12Z</time><name>PT9802</name></trkpt>
<trkpt lat="53.172994" lon="-3.932455"><ele>625</ele><time>2020-08-16T14:24:13Z</time><name>PT9803</name></trkpt>
<trkpt lat="53.173001" lon="-3.932443"><ele>624</ele><time>2020-08-16T14:24:14Z</time><name>PT9804</name></trkpt>
<trkpt lat="53.173008" lon="-3.932430"><ele>625</ele><time>2020-08-16T14:24:15Z</time><name>PT9805</name></trkpt>
<trkpt lat="53.173016" lon="-3.932419"><ele>625</ele><time>2020-08-16T14:24:16Z</time><name>PT9806</name></trkpt>
<trkpt lat="53.173023" lon="-3.932408"><ele>625</ele><time>2020-08-16T14:24:17Z</time><name>PT9807</name></trkpt>
<trkpt lat="53.173031" lon="-3.932396"><ele>625</ele><time>2020-08-16T14:24:18Z</time><name>PT9808</name></trkpt>
<trkpt lat="53.173039" lon="-3.932382"><ele>625</ele><time>2020-08-16T14:24:19Z</time><name>PT9809</name></trkpt>
<trkpt lat="53.173046" lon="-3.932370"><ele>625</ele><time>2020-08-16T14:24:20Z</time><name>PT9810</name></trkpt>
<trkpt lat="53.173054" lon="-3.932361"><ele>625</ele><time>2020-08-16T14:24:21Z</time><name>PT9811</name></trkpt>
<trkpt lat="53.173061" lon="-3.932352"><ele>625</ele><time>2020-08-16T14:24:22Z</time><name>PT9812</name></trkpt>
<trkpt lat="53.173071" lon="-3.932341"><ele>625</ele><time>2020-08-16T14:24:23Z</time><name>PT9813</name></trkpt>
<trkpt lat="53.173079" lon="-3.932330"><ele>625</ele><time>2020-08-16T14:24:24Z</time><name>PT9814</name></trkpt>
<trkpt lat="53.173087" lon="-3.932321"><ele>625</ele><time>2020-08-16T14:24:25Z</time><name>PT9815</name></trkpt>
<trkpt lat="53.173095" lon="-3.932311"><ele>625</ele><time>2020-08-16T14:24:26Z</time><name>PT9816</name></trkpt>
<trkpt lat="53.173103" lon="-3.932301"><ele>625</ele><time>2020-08-16T14:24:27Z</time><name>PT9817</name></trkpt>
<trkpt lat="53.173112" lon="-3.932287"><ele>625</ele><time>2020-08-16T14:24:28Z</time><name>PT9818</name></trkpt>
<trkpt lat="53.173121" lon="-3.932275"><ele>625</ele><time>2020-08-16T14:24:29Z</time><name>PT9819</name></trkpt>
<trkpt lat="53.173131" lon="-3.932263"><ele>625</ele><time>2020-08-16T14:24:30Z</time><name>PT9820</name></trkpt>
<trkpt lat="53.173140" lon="-3.932249"><ele>625</ele><time>2020-08-16T14:24:31Z</time><name>PT9821</name></trkpt>
<trkpt lat="53.173154" lon="-3.932239"><ele>626</ele><time>2020-08-16T14:24:32Z</time><name>PT9822</name></trkpt>
<trkpt lat="53.173164" lon="-3.932225"><ele>626</ele><time>2020-08-16T14:24:33Z</time><name>PT9823</name></trkpt>
<trkpt lat="53.173174" lon="-3.932212"><ele>626</ele><time>2020-08-16T14:24:34Z</time><name>PT9824</name></trkpt>
<trkpt lat="53.173183" lon="-3.932199"><ele>626</ele><time>2020-08-16T14:24:35Z</time><name>PT9825</name></trkpt>
<trkpt lat="53.173191" lon="-3.932185"><ele>626</ele><time>2020-08-16T14:24:36Z</time><name>PT9826</name></trkpt>
<trkpt lat="53.173201" lon="-3.932173"><ele>626</ele><time>2020-08-16T14:24:37Z</time><name>PT9827</name></trkpt>
<trkpt lat="53.173214" lon="-3.932161"><ele>626</ele><time>2020-08-16T14:24:38Z</time><name>PT9828</name></trkpt>
<trkpt lat="53.173221" lon="-3.932147"><ele>626</ele><time>2020-08-16T14:24:39Z</time><name>PT9829</name></trkpt>
<trkpt lat="53.173229" lon="-3.932136"><ele>626</ele><time>2020-08-16T14:24:40Z</time><name>PT9830</name></trkpt>
<trkpt lat="53.173239" lon="-3.932123"><ele>626</ele><time>2020-08-16T14:24:41Z</time><name>PT9831</name></trkpt>
<trkpt lat="53.173247" lon="-3.932109"><ele>626</ele><time>2020-08-16T14:24:42Z</time><name>PT9832</name></trkpt>
<trkpt lat="53.173258" lon="-3.932099"><ele>626</ele><time>2020-08-16T14:24:43Z</time><name>PT9833</name></trkpt>
<trkpt lat="53.173269" lon="-3.932088"><ele>626</ele><time>2020-08-16T14:24:44Z</time><name>PT9834</name></trkpt>
<trkpt lat="53.173279" lon="-3.932077"><ele>627</ele><time>2020-08-16T14:24:45Z</time><name>PT9835</name></trkpt>
<trkpt lat="53.173289" lon="-3.932065"><ele>627</ele><time>2020-08-16T14:24:46Z</time><name>PT9836</name></trkpt>
<trkpt lat="53.173299" lon="-3.932055"><ele>627</ele><time>2020-08-16T14:24:47Z</time><name>PT9837</name></trkpt>
<trkpt lat="53.173310" lon="-3.932043"><ele>627</ele><time>2020-08-16T14:24:48Z</time><name>PT9838</name></trkpt>
<trkpt lat="53.173321" lon="-3.932033"><ele>626</ele><time>2020-08-16T14:24:49Z</time><name>PT9839</name></trkpt>
<trkpt lat="53.173334" lon="-3.932016"><ele>626</ele><time>2020-08-16T14:24:50Z</time><name>PT9840</name></trkpt>
<trkpt lat="53.173345" lon="-3.932002"><ele>627</ele><time>2020-08-16T14:24:51Z</time><name>PT9841</name></trkpt>
<trkpt lat="53.173357" lon="-3.931991"><ele>627</ele><time>2020-08-16T14:24:52Z</time><name>PT9842</name></trkpt>
<trkpt lat="53.173368" lon="-3.931980"><ele>627</ele><time>2020-08-16T14:24:53Z</time><name>PT9843</name></trkpt>
<trkpt lat="53.173374" lon="-3.931967"><ele>627</ele><time>2020-08-16T14:24:54Z</time><name>PT9844</name></trkpt>
<trkpt lat="53.173381" lon="-3.931956"><ele>626</ele><time>2020-08-16T14:24:55Z</time><name>PT9845</name></trkpt>
<trkpt lat="53.173390" lon="-3.931947"><ele>626</ele><time>2020-08-16T14:24:56Z</time><name>PT9846</name></trkpt>
<trkpt lat="53.173396" lon="-3.931936"><ele>626</ele><time>2020-08-16T14:24:57Z</time><name>PT9847</name></trkpt>
<trkpt lat="53.173408" lon="-3.931922"><ele>626</ele><time>2020-08-16T14:24:58Z</time><name>PT9848</name></trkpt>
<trkpt lat="53.173416" lon="-3.931910"><ele>626</ele><time>2020-08-16T14:24:59Z</time><name>PT9849</name></trkpt>
<trkpt lat="53.173426" lon="-3.931897"><ele>626</ele><time>2020-08-16T14:25:00Z</time><name>PT9850</name></trkpt>
<trkpt lat="53.173438" lon="-3.931884"><ele>627</ele><time>2020-08-16T14:25:01Z</time><name>PT9851</name></trkpt>
<trkpt lat="53.173446" lon="-3.931871"><ele>627</ele><time>2020-08-16T14:25:02Z</time><name>PT9852</name></trkpt>
<trkpt lat="53.173457" lon="-3.931862"><ele>627</ele><time>2020-08-16T14:25:03Z</time><name>PT9853</name></trkpt>
<trkpt lat="53.173468" lon="-3.931852"><ele>627</ele><time>2020-08-16T14:25:04Z</time><name>PT9854</name></trkpt>
<trkpt lat="53.173476" lon="-3.931839"><ele>627</ele><time>2020-08-16T14:25:05Z</time><name>PT9855</name></trkpt>
<trkpt lat="53.173482" lon="-3.931830"><ele>627</ele><time>2020-08-16T14:25:06Z</time><name>PT9856</name></trkpt>
<trkpt lat="53.173491" lon="-3.931819"><ele>628</ele><time>2020-08-16T14:25:07Z</time><name>PT9857</name></trkpt>
<trkpt lat="53.173500" lon="-3.931810"><ele>628</ele><time>2020-08-16T14:25:08Z</time><name>PT9858</name></trkpt>
<trkpt lat="53.173511" lon="-3.931798"><ele>628</ele><time>2020-08-16T14:25:09Z</time><name>PT9859</name></trkpt>
<trkpt lat="53.173520" lon="-3.931788"><ele>628</ele><time>2020-08-16T14:25:10Z</time><name>PT9860</name></trkpt>
<trkpt lat="53.173529" lon="-3.931782"><ele>629</ele><time>2020-08-16T14:25:11Z</time><name>PT9861</name></trkpt>
<trkpt lat="53.173539" lon="-3.931770"><ele>629</ele><time>2020-08-16T14:25:12Z</time><name>PT9862</name></trkpt>
<trkpt lat="53.173548" lon="-3.931763"><ele>629</ele><time>2020-08-16T14:25:13Z</time><name>PT9863</name></trkpt>
<trkpt lat="53.173555" lon="-3.931756"><ele>628</ele><time>2020-08-16T14:25:14Z</time><name>PT9864</name></trkpt>
<trkpt lat="53.173563" lon="-3.931743"><ele>628</ele><time>2020-08-16T14:25:15Z</time><name>PT9865</name></trkpt>
<trkpt lat="53.173574" lon="-3.931727"><ele>629</ele><time>2020-08-16T14:25:16Z</time><name>PT9866</name></trkpt>
<trkpt lat="53.173581" lon="-3.931711"><ele>629</ele><time>2020-08-16T14:25:17Z</time><name>PT9867</name></trkpt>
<trkpt lat="53.173587" lon="-3.931694"><ele>629</ele><time>2020-08-16T14:25:18Z</time><name>PT9868</name></trkpt>
<trkpt lat="53.173593" lon="-3.931678"><ele>629</ele><time>2020-08-16T14:25:19Z</time><name>PT9869</name></trkpt>
<trkpt lat="53.173599" lon="-3.931663"><ele>629</ele><time>2020-08-16T14:25:20Z</time><name>PT9870</name></trkpt>
<trkpt lat="53.173606" lon="-3.931650"><ele>628</ele><time>2020-08-16T14:25:21Z</time><name>PT9871</name></trkpt>
<trkpt lat="53.173616" lon="-3.931636"><ele>629</ele><time>2020-08-16T14:25:22Z</time><name>PT9872</name></trkpt>
<trkpt lat="53.173624" lon="-3.931623"><ele>629</ele><time>2020-08-16T14:25:23Z</time><name>PT9873</name></trkpt>
<trkpt lat="53.173633" lon="-3.931610"><ele>629</ele><time>2020-08-16T14:25:24Z</time><name>PT9874</name></trkpt>
<trkpt lat="53.173641" lon="-3.931598"><ele>629</ele><time>2020-08-16T14:25:25Z</time><name>PT9875</name></trkpt>
<trkpt lat="53.173649" lon="-3.931586"><ele>629</ele><time>2020-08-16T14:25:26Z</time><name>PT9876</name></trkpt>
<trkpt lat="53.173656" lon="-3.931574"><ele>629</ele><time>2020-08-16T14:25:27Z</time><name>PT9877</name></trkpt>
<trkpt lat="53.173663" lon="-3.931562"><ele>629</ele><time>2020-08-16T14:25:28Z</time><name>PT9878</name></trkpt>
<trkpt lat="53.173670" lon="-3.931552"><ele>629</ele><time>2020-08-16T14:25:29Z</time><name>PT9879</name></trkpt>
<trkpt lat="53.173680" lon="-3.931541"><ele>629</ele><time>2020-08-16T14:25:30Z</time><name>PT9880</name></trkpt>
<trkpt lat="53.173685" lon="-3.931527"><ele>628</ele><time>2020-08-16T14:25:31Z</time><name>PT9881</name></trkpt>
<trkpt lat="53.173696" lon="-3.931518"><ele>629</ele><time>2020-08-16T14:25:32Z</time><name>PT9882</name></trkpt>
<trkpt lat="53.173706" lon="-3.931508"><ele>629</ele><time>2020-08-16T14:25:33Z</time><name>PT9883</name></trkpt>
<trkpt lat="53.173714" lon="-3.931495"><ele>629</ele><time>2020-08-16T14:25:34Z</time><name>PT9884</name></trkpt>
<trkpt lat="53.173721" lon="-3.931482"><ele>629</ele><time>2020-08-16T14:25:35Z</time><name>PT9885</name></trkpt>
<trkpt lat="53.173731" lon="-3.931468"><ele>629</ele><time>2020-08-16T14:25:36Z</time><name>PT9886</name></trkpt>
<trkpt lat="53.173737" lon="-3.931457"><ele>629</ele><time>2020-08-16T14:25:37Z</time><name>PT9887</name></trkpt>
<trkpt lat="53.173745" lon="-3.931445"><ele>628</ele><time>2020-08-16T14:25:38Z</time><name>PT9888</name></trkpt>
<trkpt lat="53.173754" lon="-3.931434"><ele>628</ele><time>2020-08-16T14:25:39Z</time><name>PT9889</name></trkpt>
<trkpt lat="53.173762" lon="-3.931420"><ele>628</ele><time>2020-08-16T14:25:40Z</time><name>PT9890</name></trkpt>
<trkpt lat="53.173770" lon="-3.931410"><ele>628</ele><time>2020-08-16T14:25:41Z</time><name>PT9891</name></trkpt>
<trkpt lat="53.173780" lon="-3.931402"><ele>628</ele><time>2020-08-16T14:25:42Z</time><name>PT9892</name></trkpt>
<trkpt lat="53.173790" lon="-3.931392"><ele>628</ele><time>2020-08-16T14:25:43Z</time><name>PT9893</name></trkpt>
<trkpt lat="53.173816" lon="-3.931364"><ele>628</ele><time>2020-08-16T14:25:46Z</time><name>PT9894</name></trkpt>
<trkpt lat="53.173849" lon="-3.931323"><ele>627</ele><time>2020-08-16T14:25:50Z</time><name>PT9895</name></trkpt>
<trkpt lat="53.173886" lon="-3.931283"><ele>627</ele><time>2020-08-16T14:25:54Z</time><name>PT9896</name></trkpt>
<trkpt lat="53.173918" lon="-3.931237"><ele>626</ele><time>2020-08-16T14:25:58Z</time><name>PT9897</name></trkpt>
<trkpt lat="53.173959" lon="-3.931219"><ele>625</ele><time>2020-08-16T14:26:02Z</time><name>PT9898</name></trkpt>
<trkpt lat="53.173993" lon="-3.931172"><ele>625</ele><time>2020-08-16T14:26:06Z</time><name>PT9899</name></trkpt>
<trkpt lat="53.174008" lon="-3.931136"><ele>623</ele><time>2020-08-16T14:26:09Z</time><name>PT9900</name></trkpt>
<trkpt lat="53.174053" lon="-3.931087"><ele>625</ele><time>2020-08-16T14:26:13Z</time><name>PT9901</name></trkpt>
<trkpt lat="53.174098" lon="-3.931046"><ele>625</ele><time>2020-08-16T14:26:17Z</time><name>PT9902</name></trkpt>
<trkpt lat="53.174132" lon="-3.931016"><ele>627</ele><time>2020-08-16T14:26:20Z</time><name>PT9903</name></trkpt>
<trkpt lat="53.174158" lon="-3.930987"><ele>627</ele><time>2020-08-16T14:26:23Z</time><name>PT9904</name></trkpt>
<trkpt lat="53.174188" lon="-3.930954"><ele>628</ele><time>2020-08-16T14:26:27Z</time><name>PT9905</name></trkpt>
<trkpt lat="53.174216" lon="-3.930918"><ele>628</ele><time>2020-08-16T14:26:30Z</time><name>PT9906</name></trkpt>
<trkpt lat="53.174250" lon="-3.930876"><ele>629</ele><time>2020-08-16T14:26:34Z</time><name>PT9907</name></trkpt>
<trkpt lat="53.174280" lon="-3.930844"><ele>629</ele><time>2020-08-16T14:26:37Z</time><name>PT9908</name></trkpt>
<trkpt lat="53.174305" lon="-3.930802"><ele>628</ele><time>2020-08-16T14:26:40Z</time><name>PT9909</name></trkpt>
<trkpt lat="53.174332" lon="-3.930762"><ele>627</ele><time>2020-08-16T14:26:43Z</time><name>PT9910</name></trkpt>
<trkpt lat="53.174363" lon="-3.930711"><ele>627</ele><time>2020-08-16T14:26:47Z</time><name>PT9911</name></trkpt>
<trkpt lat="53.174396" lon="-3.930666"><ele>627</ele><time>2020-08-16T14:26:51Z</time><name>PT9912</name></trkpt>
<trkpt lat="53.174432" lon="-3.930612"><ele>627</ele><time>2020-08-16T14:26:55Z</time><name>PT9913</name></trkpt>
<trkpt lat="53.174461" lon="-3.930552"><ele>626</ele><time>2020-08-16T14:26:59Z</time><name>PT9914</name></trkpt>
<trkpt lat="53.174498" lon="-3.930496"><ele>627</ele><time>2020-08-16T14:27:03Z</time><name>PT9915</name></trkpt>
<trkpt lat="53.174520" lon="-3.930460"><ele>627</ele><time>2020-08-16T14:27:06Z</time><name>PT9916</name></trkpt>
<trkpt lat="53.174542" lon="-3.930421"><ele>626</ele><time>2020-08-16T14:27:09Z</time><name>PT9917</name></trkpt>
<trkpt lat="53.174577" lon="-3.930373"><ele>627</ele><time>2020-08-16T14:27:13Z</time><name>PT9918</name></trkpt>
<trkpt lat="53.174614" lon="-3.930323"><ele>627</ele><time>2020-08-16T14:27:17Z</time><name>PT9919</name></trkpt>
<trkpt lat="53.174634" lon="-3.930283"><ele>626</ele><time>2020-08-16T14:27:20Z</time><name>PT9920</name></trkpt>
<trkpt lat="53.174680" lon="-3.930231"><ele>628</ele><time>2020-08-16T14:27:24Z</time><name>PT9921</name></trkpt>
<trkpt lat="53.174708" lon="-3.930202"><ele>628</ele><time>2020-08-16T14:27:27Z</time><name>PT9922</name></trkpt>
<trkpt lat="53.174739" lon="-3.930152"><ele>627</ele><time>2020-08-16T14:27:31Z</time><name>PT9923</name></trkpt>
<trkpt lat="53.174766" lon="-3.930122"><ele>627</ele><time>2020-08-16T14:27:34Z</time><name>PT9924</name></trkpt>
<trkpt lat="53.174798" lon="-3.930071"><ele>627</ele><time>2020-08-16T14:27:38Z</time><name>PT9925</name></trkpt>
<trkpt lat="53.174833" lon="-3.930022"><ele>627</ele><time>2020-08-16T14:27:42Z</time><name>PT9926</name></trkpt>
<trkpt lat="53.174854" lon="-3.929983"><ele>626</ele><time>2020-08-16T14:27:45Z</time><name>PT9927</name></trkpt>
<trkpt lat="53.174891" lon="-3.929937"><ele>625</ele><time>2020-08-16T14:27:49Z</time><name>PT9928</name></trkpt>
<trkpt lat="53.174925" lon="-3.929906"><ele>627</ele><time>2020-08-16T14:27:52Z</time><name>PT9929</name></trkpt>
<trkpt lat="53.174957" lon="-3.929847"><ele>626</ele><time>2020-08-16T14:27:56Z</time><name>PT9930</name></trkpt>
<trkpt lat="53.174986" lon="-3.929813"><ele>626</ele><time>2020-08-16T14:27:59Z</time><name>PT9931</name></trkpt>
<trkpt lat="53.175015" lon="-3.929773"><ele>626</ele><time>2020-08-16T14:28:02Z</time><name>PT9932</name></trkpt>
<trkpt lat="53.175039" lon="-3.929734"><ele>626</ele><time>2020-08-16T14:28:05Z</time><name>PT9933</name></trkpt>
<trkpt lat="53.175074" lon="-3.929692"><ele>625</ele><time>2020-08-16T14:28:09Z</time><name>PT9934</name></trkpt>
<trkpt lat="53.175106" lon="-3.929659"><ele>626</ele><time>2020-08-16T14:28:12Z</time><name>PT9935</name></trkpt>
<trkpt lat="53.175144" lon="-3.929616"><ele>627</ele><time>2020-08-16T14:28:16Z</time><name>PT9936</name></trkpt>
<trkpt lat="53.175168" lon="-3.929583"><ele>627</ele><time>2020-08-16T14:28:19Z</time><name>PT9937</name></trkpt>
<trkpt lat="53.175190" lon="-3.929544"><ele>626</ele><time>2020-08-16T14:28:22Z</time><name>PT9938</name></trkpt>
<trkpt lat="53.175207" lon="-3.929500"><ele>624</ele><time>2020-08-16T14:28:25Z</time><name>PT9939</name></trkpt>
<trkpt lat="53.175231" lon="-3.929452"><ele>623</ele><time>2020-08-16T14:28:29Z</time><name>PT9940</name></trkpt>
<trkpt lat="53.175249" lon="-3.929422"><ele>623</ele><time>2020-08-16T14:28:32Z</time><name>PT9941</name></trkpt>
<trkpt lat="53.175271" lon="-3.929386"><ele>622</ele><time>2020-08-16T14:28:36Z</time><name>PT9942</name></trkpt>
<trkpt lat="53.175293" lon="-3.929354"><ele>622</ele><time>2020-08-16T14:28:39Z</time><name>PT9943</name></trkpt>
<trkpt lat="53.175314" lon="-3.929334"><ele>623</ele><time>2020-08-16T14:28:42Z</time><name>PT9944</name></trkpt>
<trkpt lat="53.175353" lon="-3.929286"><ele>623</ele><time>2020-08-16T14:28:46Z</time><name>PT9945</name></trkpt>
<trkpt lat="53.175388" lon="-3.929231"><ele>623</ele><time>2020-08-16T14:28:50Z</time><name>PT9946</name></trkpt>
<trkpt lat="53.175421" lon="-3.929188"><ele>623</ele><time>2020-08-16T14:28:54Z</time><name>PT9947</name></trkpt>
<trkpt lat="53.175448" lon="-3.929157"><ele>623</ele><time>2020-08-16T14:28:57Z</time><name>PT9948</name></trkpt>
<trkpt lat="53.175494" lon="-3.929105"><ele>623</ele><time>2020-08-16T14:29:01Z</time><name>PT9949</name></trkpt>
<trkpt lat="53.175516" lon="-3.929065"><ele>623</ele><time>2020-08-16T14:29:04Z</time><name>PT9950</name></trkpt>
<trkpt lat="53.175535" lon="-3.929028"><ele>622</ele><time>2020-08-16T14:29:07Z</time><name>PT9951</name></trkpt>
<trkpt lat="53.175557" lon="-3.928988"><ele>621</ele><time>2020-08-16T14:29:10Z</time><name>PT9952</name></trkpt>
<trkpt lat="53.175593" lon="-3.928937"><ele>621</ele><time>2020-08-16T14:29:14Z</time><name>PT9953</name></trkpt>
<trkpt lat="53.175619" lon="-3.928898"><ele>621</ele><time>2020-08-16T14:29:17Z</time><name>PT9954</name></trkpt>
<trkpt lat="53.175650" lon="-3.928864"><ele>622</ele><time>2020-08-16T14:29:20Z</time><name>PT9955</name></trkpt>
<trkpt lat="53.175691" lon="-3.928820"><ele>624</ele><time>2020-08-16T14:29:24Z</time><name>PT9956</name></trkpt>
<trkpt lat="53.175731" lon="-3.928777"><ele>624</ele><time>2020-08-16T14:29:28Z</time><name>PT9957</name></trkpt>
<trkpt lat="53.175767" lon="-3.928735"><ele>624</ele><time>2020-08-16T14:29:32Z</time><name>PT9958</name></trkpt>
<trkpt lat="53.175789" lon="-3.928700"><ele>625</ele><time>2020-08-16T14:29:35Z</time><name>PT9959</name></trkpt>
<trkpt lat="53.175812" lon="-3.928671"><ele>625</ele><time>2020-08-16T14:29:38Z</time><name>PT9960</name></trkpt>
<trkpt lat="53.175852" lon="-3.928625"><ele>625</ele><time>2020-08-16T14:29:42Z</time><name>PT9961</name></trkpt>
<trkpt lat="53.175891" lon="-3.928581"><ele>625</ele><time>2020-08-16T14:29:46Z</time><name>PT9962</name></trkpt>
<trkpt lat="53.175927" lon="-3.928544"><ele>627</ele><time>2020-08-16T14:29:50Z</time><name>PT9963</name></trkpt>
<trkpt lat="53.175957" lon="-3.928511"><ele>626</ele><time>2020-08-16T14:29:54Z</time><name>PT9964</name></trkpt>
<trkpt lat="53.175984" lon="-3.928479"><ele>625</ele><time>2020-08-16T14:29:57Z</time><name>PT9965</name></trkpt>
<trkpt lat="53.176016" lon="-3.928449"><ele>625</ele><time>2020-08-16T14:30:00Z</time><name>PT9966</name></trkpt>
<trkpt lat="53.176061" lon="-3.928407"><ele>626</ele><time>2020-08-16T14:30:04Z</time><name>PT9967</name></trkpt>
<trkpt lat="53.176093" lon="-3.928375"><ele>626</ele><time>2020-08-16T14:30:07Z</time><name>PT9968</name></trkpt>
<trkpt lat="53.176122" lon="-3.928343"><ele>625</ele><time>2020-08-16T14:30:10Z</time><name>PT9969</name></trkpt>
<trkpt lat="53.176165" lon="-3.928316"><ele>625</ele><time>2020-08-16T14:30:14Z</time><name>PT9970</name></trkpt>
<trkpt lat="53.176205" lon="-3.928290"><ele>625</ele><time>2020-08-16T14:30:18Z</time><name>PT9971</name></trkpt>
<trkpt lat="53.176234" lon="-3.928260"><ele>625</ele><time>2020-08-16T14:30:21Z</time><name>PT9972</name></trkpt>
<trkpt lat="53.176272" lon="-3.928236"><ele>625</ele><time>2020-08-16T14:30:24Z</time><name>PT9973</name></trkpt>
<trkpt lat="53.176314" lon="-3.928202"><ele>624</ele><time>2020-08-16T14:30:28Z</time><name>PT9974</name></trkpt>
<trkpt lat="53.176357" lon="-3.928172"><ele>625</ele><time>2020-08-16T14:30:32Z</time><name>PT9975</name></trkpt>
<trkpt lat="53.176406" lon="-3.928128"><ele>625</ele><time>2020-08-16T14:30:36Z</time><name>PT9976</name></trkpt>
<trkpt lat="53.176431" lon="-3.928100"><ele>625</ele><time>2020-08-16T14:30:39Z</time><name>PT9977</name></trkpt>
<trkpt lat="53.176472" lon="-3.928074"><ele>625</ele><time>2020-08-16T14:30:43Z</time><name>PT9978</name></trkpt>
<trkpt lat="53.176505" lon="-3.928062"><ele>624</ele><time>2020-08-16T14:30:46Z</time><name>PT9979</name></trkpt>
<trkpt lat="53.176551" lon="-3.928038"><ele>623</ele><time>2020-08-16T14:30:50Z</time><name>PT9980</name></trkpt>
<trkpt lat="53.176584" lon="-3.928032"><ele>623</ele><time>2020-08-16T14:30:53Z</time><name>PT9981</name></trkpt>
<trkpt lat="53.176623" lon="-3.928029"><ele>622</ele><time>2020-08-16T14:30:57Z</time><name>PT9982</name></trkpt>
<trkpt lat="53.176656" lon="-3.928026"><ele>621</ele><time>2020-08-16T14:31:00Z</time><name>PT9983</name></trkpt>
<trkpt lat="53.176685" lon="-3.928021"><ele>621</ele><time>2020-08-16T14:31:03Z</time><name>PT9984</name></trkpt>
<trkpt lat="53.176718" lon="-3.928020"><ele>621</ele><time>2020-08-16T14:31:06Z</time><name>PT9985</name></trkpt>
<trkpt lat="53.176742" lon="-3.928008"><ele>619</ele><time>2020-08-16T14:31:09Z</time><name>PT9986</name></trkpt>
<trkpt lat="53.176780" lon="-3.927992"><ele>619</ele><time>2020-08-16T14:31:13Z</time><name>PT9987</name></trkpt>
<trkpt lat="53.176815" lon="-3.927983"><ele>620</ele><time>2020-08-16T14:31:16Z</time><name>PT9988</name></trkpt>
<trkpt lat="53.176842" lon="-3.927970"><ele>620</ele><time>2020-08-16T14:31:19Z</time><name>PT9989</name></trkpt>
<trkpt lat="53.176883" lon="-3.927943"><ele>621</ele><time>2020-08-16T14:31:23Z</time><name>PT9990</name></trkpt>
<trkpt lat="53.176912" lon="-3.927920"><ele>621</ele><time>2020-08-16T14:31:26Z</time><name>PT9991</name></trkpt>
<trkpt lat="53.176949" lon="-3.927907"><ele>622</ele><time>2020-08-16T14:31:30Z</time><name>PT9992</name></trkpt>
<trkpt lat="53.176974" lon="-3.927892"><ele>622</ele><time>2020-08-16T14:31:33Z</time><name>PT9993</name></trkpt>
<trkpt lat="53.177022" lon="-3.927864"><ele>622</ele><time>2020-08-16T14:31:37Z</time><name>PT9994</name></trkpt>
<trkpt lat="53.177049" lon="-3.927839"><ele>621</ele><time>2020-08-16T14:31:40Z</time><name>PT9995</name></trkpt>
<trkpt lat="53.177085" lon="-3.927804"><ele>620</ele><time>2020-08-16T14:31:44Z</time><name>PT9996</name></trkpt>
<trkpt lat="53.177129" lon="-3.927772"><ele>620</ele><time>2020-08-16T14:31:48Z</time><name>PT9997</name></trkpt>
<trkpt lat="53.177167" lon="-3.927743"><ele>619</ele><time>2020-08-16T14:31:52Z</time><name>PT9998</name></trkpt>
<trkpt lat="53.177204" lon="-3.927715"><ele>618</ele><time>2020-08-16T14:31:56Z</time><name>PT9999</name></trkpt>
<trkpt lat="53.177249" lon="-3.927689"><ele>618</ele><time>2020-08-16T14:32:00Z</time><name>PT10000</name></trkpt>
<trkpt lat="53.177279" lon="-3.927675"><ele>618</ele><time>2020-08-16T14:32:03Z</time><name>PT10001</name></trkpt>
<trkpt lat="53.177321" lon="-3.927654"><ele>618</ele><time>2020-08-16T14:32:07Z</time><name>PT10002</name></trkpt>
<trkpt lat="53.177358" lon="-3.927622"><ele>617</ele><time>2020-08-16T14:32:11Z</time><name>PT10003</name></trkpt>
<trkpt lat="53.177388" lon="-3.927603"><ele>615</ele><time>2020-08-16T14:32:14Z</time><name>PT10004</name></trkpt>
<trkpt lat="53.177425" lon="-3.927588"><ele>615</ele><time>2020-08-16T14:32:17Z</time><name>PT10005</name></trkpt>
<trkpt lat="53.177462" lon="-3.927554"><ele>614</ele><time>2020-08-16T14:32:21Z</time><name>PT10006</name></trkpt>
<trkpt lat="53.177496" lon="-3.927538"><ele>614</ele><time>2020-08-16T14:32:24Z</time><name>PT10007</name></trkpt>
<trkpt lat="53.177532" lon="-3.927509"><ele>612</ele><time>2020-08-16T14:32:28Z</time><name>PT10008</name></trkpt>
<trkpt lat="53.177578" lon="-3.927491"><ele>612</ele><time>2020-08-16T14:32:32Z</time><name>PT10009</name></trkpt>
<trkpt lat="53.177624" lon="-3.927470"><ele>611</ele><time>2020-08-16T14:32:36Z</time><name>PT10010</name></trkpt>
<trkpt lat="53.177659" lon="-3.927458"><ele>611</ele><time>2020-08-16T14:32:39Z</time><name>PT10011</name></trkpt>
<trkpt lat="53.177705" lon="-3.927426"><ele>611</ele><time>2020-08-16T14:32:43Z</time><name>PT10012</name></trkpt>
<trkpt lat="53.177739" lon="-3.927406"><ele>610</ele><time>2020-08-16T14:32:46Z</time><name>PT10013</name></trkpt>
<trkpt lat="53.177779" lon="-3.927378"><ele>609</ele><time>2020-08-16T14:32:50Z</time><name>PT10014</name></trkpt>
<trkpt lat="53.177823" lon="-3.927341"><ele>608</ele><time>2020-08-16T14:32:54Z</time><name>PT10015</name></trkpt>
<trkpt lat="53.177867" lon="-3.927312"><ele>608</ele><time>2020-08-16T14:32:58Z</time><name>PT10016</name></trkpt>
<trkpt lat="53.177894" lon="-3.927290"><ele>607</ele><time>2020-08-16T14:33:01Z</time><name>PT10017</name></trkpt>
<trkpt lat="53.177935" lon="-3.927261"><ele>606</ele><time>2020-08-16T14:33:05Z</time><name>PT10018</name></trkpt>
<trkpt lat="53.177974" lon="-3.927249"><ele>606</ele><time>2020-08-16T14:33:08Z</time><name>PT10019</name></trkpt>
<trkpt lat="53.178015" lon="-3.927215"><ele>604</ele><time>2020-08-16T14:33:12Z</time><name>PT10020</name></trkpt>
<trkpt lat="53.178060" lon="-3.927192"><ele>604</ele><time>2020-08-16T14:33:16Z</time><name>PT10021</name></trkpt>
<trkpt lat="53.178090" lon="-3.927162"><ele>603</ele><time>2020-08-16T14:33:19Z</time><name>PT10022</name></trkpt>
<trkpt lat="53.178123" lon="-3.927140"><ele>603</ele><time>2020-08-16T14:33:22Z</time><name>PT10023</name></trkpt>
<trkpt lat="53.178166" lon="-3.927104"><ele>603</ele><time>2020-08-16T14:33:26Z</time><name>PT10024</name></trkpt>
<trkpt lat="53.178207" lon="-3.927083"><ele>603</ele><time>2020-08-16T14:33:29Z</time><name>PT10025</name></trkpt>
<trkpt lat="53.178250" lon="-3.927043"><ele>602</ele><time>2020-08-16T14:33:33Z</time><name>PT10026</name></trkpt>
<trkpt lat="53.178293" lon="-3.927013"><ele>601</ele><time>2020-08-16T14:33:37Z</time><name>PT10027</name></trkpt>
<trkpt lat="53.178330" lon="-3.926999"><ele>601</ele><time>2020-08-16T14:33:40Z</time><name>PT10028</name></trkpt>
<trkpt lat="53.178369" lon="-3.926962"><ele>601</ele><time>2020-08-16T14:33:44Z</time><name>PT10029</name></trkpt>
<trkpt lat="53.178397" lon="-3.926936"><ele>600</ele><time>2020-08-16T14:33:47Z</time><name>PT10030</name></trkpt>
<trkpt lat="53.178440" lon="-3.926902"><ele>600</ele><time>2020-08-16T14:33:51Z</time><name>PT10031</name></trkpt>
<trkpt lat="53.178482" lon="-3.926861"><ele>599</ele><time>2020-08-16T14:33:55Z</time><name>PT10032</name></trkpt>
<trkpt lat="53.178512" lon="-3.926832"><ele>598</ele><time>2020-08-16T14:33:58Z</time><name>PT10033</name></trkpt>
<trkpt lat="53.178549" lon="-3.926794"><ele>597</ele><time>2020-08-16T14:34:02Z</time><name>PT10034</name></trkpt>
<trkpt lat="53.178586" lon="-3.926757"><ele>596</ele><time>2020-08-16T14:34:06Z</time><name>PT10035</name></trkpt>
<trkpt lat="53.178613" lon="-3.926714"><ele>595</ele><time>2020-08-16T14:34:10Z</time><name>PT10036</name></trkpt>
<trkpt lat="53.178633" lon="-3.926691"><ele>595</ele><time>2020-08-16T14:34:13Z</time><name>PT10037</name></trkpt>
<trkpt lat="53.178668" lon="-3.926650"><ele>594</ele><time>2020-08-16T14:34:17Z</time><name>PT10038</name></trkpt>
<trkpt lat="53.178694" lon="-3.926620"><ele>594</ele><time>2020-08-16T14:34:20Z</time><name>PT10039</name></trkpt>
<trkpt lat="53.178718" lon="-3.926591"><ele>593</ele><time>2020-08-16T14:34:23Z</time><name>PT10040</name></trkpt>
<trkpt lat="53.178748" lon="-3.926553"><ele>593</ele><time>2020-08-16T14:34:27Z</time><name>PT10041</name></trkpt>
<trkpt lat="53.178792" lon="-3.926518"><ele>592</ele><time>2020-08-16T14:34:31Z</time><name>PT10042</name></trkpt>
<trkpt lat="53.178818" lon="-3.926487"><ele>592</ele><time>2020-08-16T14:34:34Z</time><name>PT10043</name></trkpt>
<trkpt lat="53.178852" lon="-3.926441"><ele>592</ele><time>2020-08-16T14:34:38Z</time><name>PT10044</name></trkpt>
<trkpt lat="53.178881" lon="-3.926396"><ele>591</ele><time>2020-08-16T14:34:42Z</time><name>PT10045</name></trkpt>
<trkpt lat="53.178927" lon="-3.926358"><ele>591</ele><time>2020-08-16T14:34:46Z</time><name>PT10046</name></trkpt>
<trkpt lat="53.178969" lon="-3.926323"><ele>592</ele><time>2020-08-16T14:34:50Z</time><name>PT10047</name></trkpt>
<trkpt lat="53.178996" lon="-3.926289"><ele>591</ele><time>2020-08-16T14:34:53Z</time><name>PT10048</name></trkpt>
<trkpt lat="53.179024" lon="-3.926258"><ele>592</ele><time>2020-08-16T14:34:56Z</time><name>PT10049</name></trkpt>
<trkpt lat="53.179055" lon="-3.926223"><ele>591</ele><time>2020-08-16T14:35:00Z</time><name>PT10050</name></trkpt>
<trkpt lat="53.179082" lon="-3.926181"><ele>590</ele><time>2020-08-16T14:35:04Z</time><name>PT10051</name></trkpt>
<trkpt lat="53.179105" lon="-3.926153"><ele>590</ele><time>2020-08-16T14:35:07Z</time><name>PT10052</name></trkpt>
<trkpt lat="53.179136" lon="-3.926111"><ele>589</ele><time>2020-08-16T14:35:11Z</time><name>PT10053</name></trkpt>
<trkpt lat="53.179166" lon="-3.926071"><ele>589</ele><time>2020-08-16T14:35:14Z</time><name>PT10054</name></trkpt>
<trkpt lat="53.179202" lon="-3.926021"><ele>589</ele><time>2020-08-16T14:35:18Z</time><name>PT10055</name></trkpt>
<trkpt lat="53.179229" lon="-3.925973"><ele>589</ele><time>2020-08-16T14:35:22Z</time><name>PT10056</name></trkpt>
<trkpt lat="53.179258" lon="-3.925924"><ele>589</ele><time>2020-08-16T14:35:26Z</time><name>PT10057</name></trkpt>
<trkpt lat="53.179293" lon="-3.925881"><ele>588</ele><time>2020-08-16T14:35:30Z</time><name>PT10058</name></trkpt>
<trkpt lat="53.179311" lon="-3.925841"><ele>587</ele><time>2020-08-16T14:35:33Z</time><name>PT10059</name></trkpt>
<trkpt lat="53.179338" lon="-3.925803"><ele>588</ele><time>2020-08-16T14:35:36Z</time><name>PT10060</name></trkpt>
<trkpt lat="53.179362" lon="-3.925773"><ele>588</ele><time>2020-08-16T14:35:39Z</time><name>PT10061</name></trkpt>
<trkpt lat="53.179396" lon="-3.925723"><ele>588</ele><time>2020-08-16T14:35:43Z</time><name>PT10062</name></trkpt>
<trkpt lat="53.179427" lon="-3.925679"><ele>587</ele><time>2020-08-16T14:35:47Z</time><name>PT10063</name></trkpt>
<trkpt lat="53.179459" lon="-3.925638"><ele>586</ele><time>2020-08-16T14:35:51Z</time><name>PT10064</name></trkpt>
<trkpt lat="53.179495" lon="-3.925593"><ele>586</ele><time>2020-08-16T14:35:55Z</time><name>PT10065</name></trkpt>
<trkpt lat="53.179520" lon="-3.925553"><ele>585</ele><time>2020-08-16T14:35:58Z</time><name>PT10066</name></trkpt>
<trkpt lat="53.179555" lon="-3.925511"><ele>585</ele><time>2020-08-16T14:36:02Z</time><name>PT10067</name></trkpt>
<trkpt lat="53.179580" lon="-3.925481"><ele>585</ele><time>2020-08-16T14:36:05Z</time><name>PT10068</name></trkpt>
<trkpt lat="53.179615" lon="-3.925436"><ele>584</ele><time>2020-08-16T14:36:09Z</time><name>PT10069</name></trkpt>
<trkpt lat="53.179639" lon="-3.925398"><ele>584</ele><time>2020-08-16T14:36:12Z</time><name>PT10070</name></trkpt>
<trkpt lat="53.179664" lon="-3.925367"><ele>584</ele><time>2020-08-16T14:36:15Z</time><name>PT10071</name></trkpt>
<trkpt lat="53.179690" lon="-3.925337"><ele>583</ele><time>2020-08-16T14:36:18Z</time><name>PT10072</name></trkpt>
<trkpt lat="53.179718" lon="-3.925309"><ele>583</ele><time>2020-08-16T14:36:21Z</time><name>PT10073</name></trkpt>
<trkpt lat="53.179744" lon="-3.925280"><ele>583</ele><time>2020-08-16T14:36:24Z</time><name>PT10074</name></trkpt>
<trkpt lat="53.179781" lon="-3.925234"><ele>583</ele><time>2020-08-16T14:36:28Z</time><name>PT10075</name></trkpt>
<trkpt lat="53.179805" lon="-3.925204"><ele>582</ele><time>2020-08-16T14:36:31Z</time><name>PT10076</name></trkpt>
<trkpt lat="53.179833" lon="-3.925157"><ele>581</ele><time>2020-08-16T14:36:35Z</time><name>PT10077</name></trkpt>
<trkpt lat="53.179862" lon="-3.925119"><ele>580</ele><time>2020-08-16T14:36:39Z</time><name>PT10078</name></trkpt>
<trkpt lat="53.179881" lon="-3.925087"><ele>579</ele><time>2020-08-16T14:36:42Z</time><name>PT10079</name></trkpt>
<trkpt lat="53.179906" lon="-3.925037"><ele>578</ele><time>2020-08-16T14:36:46Z</time><name>PT10080</name></trkpt>
<trkpt lat="53.179934" lon="-3.924982"><ele>577</ele><time>2020-08-16T14:36:50Z</time><name>PT10081</name></trkpt>
<trkpt lat="53.179957" lon="-3.924949"><ele>577</ele><time>2020-08-16T14:36:53Z</time><name>PT10082</name></trkpt>
<trkpt lat="53.179973" lon="-3.924909"><ele>577</ele><time>2020-08-16T14:36:56Z</time><name>PT10083</name></trkpt>
<trkpt lat="53.180002" lon="-3.924861"><ele>577</ele><time>2020-08-16T14:37:00Z</time><name>PT10084</name></trkpt>
<trkpt lat="53.180036" lon="-3.924806"><ele>576</ele><time>2020-08-16T14:37:04Z</time><name>PT10085</name></trkpt>
<trkpt lat="53.180067" lon="-3.924757"><ele>576</ele><time>2020-08-16T14:37:08Z</time><name>PT10086</name></trkpt>
<trkpt lat="53.180104" lon="-3.924699"><ele>577</ele><time>2020-08-16T14:37:12Z</time><name>PT10087</name></trkpt>
<trkpt lat="53.180129" lon="-3.924665"><ele>577</ele><time>2020-08-16T14:37:15Z</time><name>PT10088</name></trkpt>
<trkpt lat="53.180156" lon="-3.924607"><ele>576</ele><time>2020-08-16T14:37:19Z</time><name>PT10089</name></trkpt>
<trkpt lat="53.180178" lon="-3.924562"><ele>577</ele><time>2020-08-16T14:37:22Z</time><name>PT10090</name></trkpt>
<trkpt lat="53.180201" lon="-3.924504"><ele>576</ele><time>2020-08-16T14:37:26Z</time><name>PT10091</name></trkpt>
<trkpt lat="53.180221" lon="-3.924444"><ele>574</ele><time>2020-08-16T14:37:30Z</time><name>PT10092</name></trkpt>
<trkpt lat="53.180242" lon="-3.924390"><ele>573</ele><time>2020-08-16T14:37:34Z</time><name>PT10093</name></trkpt>
<trkpt lat="53.180266" lon="-3.924336"><ele>573</ele><time>2020-08-16T14:37:38Z</time><name>PT10094</name></trkpt>
<trkpt lat="53.180287" lon="-3.924286"><ele>572</ele><time>2020-08-16T14:37:42Z</time><name>PT10095</name></trkpt>
<trkpt lat="53.180310" lon="-3.924243"><ele>572</ele><time>2020-08-16T14:37:46Z</time><name>PT10096</name></trkpt>
<trkpt lat="53.180326" lon="-3.924188"><ele>572</ele><time>2020-08-16T14:37:49Z</time><name>PT10097</name></trkpt>
<trkpt lat="53.180354" lon="-3.924127"><ele>571</ele><time>2020-08-16T14:37:53Z</time><name>PT10098</name></trkpt>
<trkpt lat="53.180384" lon="-3.924073"><ele>571</ele><time>2020-08-16T14:37:57Z</time><name>PT10099</name></trkpt>
<trkpt lat="53.180409" lon="-3.924018"><ele>571</ele><time>2020-08-16T14:38:01Z</time><name>PT10100</name></trkpt>
<trkpt lat="53.180430" lon="-3.923970"><ele>570</ele><time>2020-08-16T14:38:04Z</time><name>PT10101</name></trkpt>
<trkpt lat="53.180460" lon="-3.923919"><ele>571</ele><time>2020-08-16T14:38:08Z</time><name>PT10102</name></trkpt>
<trkpt lat="53.180482" lon="-3.923879"><ele>571</ele><time>2020-08-16T14:38:11Z</time><name>PT10103</name></trkpt>
<trkpt lat="53.180512" lon="-3.923829"><ele>570</ele><time>2020-08-16T14:38:14Z</time><name>PT10104</name></trkpt>
<trkpt lat="53.180537" lon="-3.923766"><ele>569</ele><time>2020-08-16T14:38:18Z</time><name>PT10105</name></trkpt>
<trkpt lat="53.180553" lon="-3.923725"><ele>568</ele><time>2020-08-16T14:38:21Z</time><name>PT10106</name></trkpt>
<trkpt lat="53.180583" lon="-3.923673"><ele>568</ele><time>2020-08-16T14:38:25Z</time><name>PT10107</name></trkpt>
<trkpt lat="53.180604" lon="-3.923614"><ele>567</ele><time>2020-08-16T14:38:29Z</time><name>PT10108</name></trkpt>
<trkpt lat="53.180631" lon="-3.923571"><ele>565</ele><time>2020-08-16T14:38:33Z</time><name>PT10109</name></trkpt>
<trkpt lat="53.180663" lon="-3.923503"><ele>564</ele><time>2020-08-16T14:38:37Z</time><name>PT10110</name></trkpt>
<trkpt lat="53.180684" lon="-3.923449"><ele>565</ele><time>2020-08-16T14:38:41Z</time><name>PT10111</name></trkpt>
<trkpt lat="53.180694" lon="-3.923400"><ele>563</ele><time>2020-08-16T14:38:44Z</time><name>PT10112</name></trkpt>
<trkpt lat="53.180698" lon="-3.923330"><ele>562</ele><time>2020-08-16T14:38:48Z</time><name>PT10113</name></trkpt>
<trkpt lat="53.180712" lon="-3.923276"><ele>562</ele><time>2020-08-16T14:38:51Z</time><name>PT10114</name></trkpt>
<trkpt lat="53.180726" lon="-3.923205"><ele>562</ele><time>2020-08-16T14:38:55Z</time><name>PT10115</name></trkpt>
<trkpt lat="53.180742" lon="-3.923135"><ele>562</ele><time>2020-08-16T14:38:59Z</time><name>PT10116</name></trkpt>
<trkpt lat="53.180759" lon="-3.923082"><ele>563</ele><time>2020-08-16T14:39:02Z</time><name>PT10117</name></trkpt>
<trkpt lat="53.180771" lon="-3.923013"><ele>563</ele><time>2020-08-16T14:39:06Z</time><name>PT10118</name></trkpt>
<trkpt lat="53.180777" lon="-3.922964"><ele>563</ele><time>2020-08-16T14:39:09Z</time><name>PT10119</name></trkpt>
<trkpt lat="53.180781" lon="-3.922884"><ele>562</ele><time>2020-08-16T14:39:13Z</time><name>PT10120</name></trkpt>
<trkpt lat="53.180793" lon="-3.922833"><ele>562</ele><time>2020-08-16T14:39:16Z</time><name>PT10121</name></trkpt>
<trkpt lat="53.180809" lon="-3.922771"><ele>562</ele><time>2020-08-16T14:39:20Z</time><name>PT10122</name></trkpt>
<trkpt lat="53.180818" lon="-3.922714"><ele>561</ele><time>2020-08-16T14:39:24Z</time><name>PT10123</name></trkpt>
<trkpt lat="53.180828" lon="-3.922663"><ele>561</ele><time>2020-08-16T14:39:27Z</time><name>PT10124</name></trkpt>
<trkpt lat="53.180838" lon="-3.922624"><ele>560</ele><time>2020-08-16T14:39:30Z</time><name>PT10125</name></trkpt>
<trkpt lat="53.180864" lon="-3.922571"><ele>561</ele><time>2020-08-16T14:39:34Z</time><name>PT10126</name></trkpt>
<trkpt lat="53.180886" lon="-3.922511"><ele>561</ele><time>2020-08-16T14:39:38Z</time><name>PT10127</name></trkpt>
<trkpt lat="53.180910" lon="-3.922449"><ele>560</ele><time>2020-08-16T14:39:42Z</time><name>PT10128</name></trkpt>
<trkpt lat="53.180930" lon="-3.922396"><ele>559</ele><time>2020-08-16T14:39:46Z</time><name>PT10129</name></trkpt>
<trkpt lat="53.180959" lon="-3.922335"><ele>559</ele><time>2020-08-16T14:39:50Z</time><name>PT10130</name></trkpt>
<trkpt lat="53.180988" lon="-3.922277"><ele>559</ele><time>2020-08-16T14:39:54Z</time><name>PT10131</name></trkpt>
<trkpt lat="53.181002" lon="-3.922231"><ele>558</ele><time>2020-08-16T14:39:57Z</time><name>PT10132</name></trkpt>
<trkpt lat="53.181009" lon="-3.922193"><ele>557</ele><time>2020-08-16T14:40:00Z</time><name>PT10133</name></trkpt>
<trkpt lat="53.181027" lon="-3.922139"><ele>557</ele><time>2020-08-16T14:40:04Z</time><name>PT10134</name></trkpt>
<trkpt lat="53.181041" lon="-3.922099"><ele>557</ele><time>2020-08-16T14:40:07Z</time><name>PT10135</name></trkpt>
<trkpt lat="53.181058" lon="-3.922043"><ele>556</ele><time>2020-08-16T14:40:11Z</time><name>PT10136</name></trkpt>
<trkpt lat="53.181078" lon="-3.921984"><ele>555</ele><time>2020-08-16T14:40:15Z</time><name>PT10137</name></trkpt>
<trkpt lat="53.181093" lon="-3.921938"><ele>555</ele><time>2020-08-16T14:40:18Z</time><name>PT10138</name></trkpt>
<trkpt lat="53.181107" lon="-3.921876"><ele>555</ele><time>2020-08-16T14:40:22Z</time><name>PT10139</name></trkpt>
<trkpt lat="53.181117" lon="-3.921815"><ele>554</ele><time>2020-08-16T14:40:26Z</time><name>PT10140</name></trkpt>
<trkpt lat="53.181131" lon="-3.921760"><ele>554</ele><time>2020-08-16T14:40:29Z</time><name>PT10141</name></trkpt>
<trkpt lat="53.181136" lon="-3.921702"><ele>553</ele><time>2020-08-16T14:40:32Z</time><name>PT10142</name></trkpt>
<trkpt lat="53.181143" lon="-3.921635"><ele>552</ele><time>2020-08-16T14:40:36Z</time><name>PT10143</name></trkpt>
<trkpt lat="53.181143" lon="-3.921570"><ele>550</ele><time>2020-08-16T14:40:40Z</time><name>PT10144</name></trkpt>
<trkpt lat="53.181147" lon="-3.921513"><ele>550</ele><time>2020-08-16T14:40:43Z</time><name>PT10145</name></trkpt>
<trkpt lat="53.181143" lon="-3.921444"><ele>548</ele><time>2020-08-16T14:40:47Z</time><name>PT10146</name></trkpt>
<trkpt lat="53.181154" lon="-3.921376"><ele>548</ele><time>2020-08-16T14:40:51Z</time><name>PT10147</name></trkpt>
<trkpt lat="53.181158" lon="-3.921317"><ele>547</ele><time>2020-08-16T14:40:54Z</time><name>PT10148</name></trkpt>
<trkpt lat="53.181163" lon="-3.921242"><ele>547</ele><time>2020-08-16T14:40:58Z</time><name>PT10149</name></trkpt>
<trkpt lat="53.181166" lon="-3.921173"><ele>548</ele><time>2020-08-16T14:41:02Z</time><name>PT10150</name></trkpt>
<trkpt lat="53.181169" lon="-3.921119"><ele>548</ele><time>2020-08-16T14:41:05Z</time><name>PT10151</name></trkpt>
<trkpt lat="53.181169" lon="-3.921049"><ele>546</ele><time>2020-08-16T14:41:09Z</time><name>PT10152</name></trkpt>
<trkpt lat="53.181170" lon="-3.920973"><ele>546</ele><time>2020-08-16T14:41:13Z</time><name>PT10153</name></trkpt>
<trkpt lat="53.181169" lon="-3.920902"><ele>545</ele><time>2020-08-16T14:41:17Z</time><name>PT10154</name></trkpt>
<trkpt lat="53.181176" lon="-3.920817"><ele>545</ele><time>2020-08-16T14:41:21Z</time><name>PT10155</name></trkpt>
<trkpt lat="53.181181" lon="-3.920737"><ele>544</ele><time>2020-08-16T14:41:25Z</time><name>PT10156</name></trkpt>
<trkpt lat="53.181189" lon="-3.920663"><ele>545</ele><time>2020-08-16T14:41:29Z</time><name>PT10157</name></trkpt>
<trkpt lat="53.181200" lon="-3.920591"><ele>545</ele><time>2020-08-16T14:41:33Z</time><name>PT10158</name></trkpt>
<trkpt lat="53.181202" lon="-3.920553"><ele>544</ele><time>2020-08-16T14:41:36Z</time><name>PT10159</name></trkpt>
<trkpt lat="53.181217" lon="-3.920486"><ele>545</ele><time>2020-08-16T14:41:40Z</time><name>PT10160</name></trkpt>
<trkpt lat="53.181225" lon="-3.920440"><ele>545</ele><time>2020-08-16T14:41:43Z</time><name>PT10161</name></trkpt>
<trkpt lat="53.181233" lon="-3.920389"><ele>545</ele><time>2020-08-16T14:41:46Z</time><name>PT10162</name></trkpt>
<trkpt lat="53.181248" lon="-3.920328"><ele>545</ele><time>2020-08-16T14:41:50Z</time><name>PT10163</name></trkpt>
<trkpt lat="53.181255" lon="-3.920254"><ele>544</ele><time>2020-08-16T14:41:54Z</time><name>PT10164</name></trkpt>
<trkpt lat="53.181267" lon="-3.920181"><ele>544</ele><time>2020-08-16T14:41:58Z</time><name>PT10165</name></trkpt>
<trkpt lat="53.181283" lon="-3.920122"><ele>545</ele><time>2020-08-16T14:42:01Z</time><name>PT10166</name></trkpt>
<trkpt lat="53.181306" lon="-3.920049"><ele>545</ele><time>2020-08-16T14:42:05Z</time><name>PT10167</name></trkpt>
<trkpt lat="53.181330" lon="-3.919997"><ele>546</ele><time>2020-08-16T14:42:08Z</time><name>PT10168</name></trkpt>
<trkpt lat="53.181348" lon="-3.919947"><ele>546</ele><time>2020-08-16T14:42:11Z</time><name>PT10169</name></trkpt>
<trkpt lat="53.181364" lon="-3.919890"><ele>546</ele><time>2020-08-16T14:42:14Z</time><name>PT10170</name></trkpt>
<trkpt lat="53.181381" lon="-3.919838"><ele>546</ele><time>2020-08-16T14:42:17Z</time><name>PT10171</name></trkpt>
<trkpt lat="53.181397" lon="-3.919778"><ele>545</ele><time>2020-08-16T14:42:21Z</time><name>PT10172</name></trkpt>
<trkpt lat="53.181412" lon="-3.919724"><ele>545</ele><time>2020-08-16T14:42:24Z</time><name>PT10173</name></trkpt>
<trkpt lat="53.181436" lon="-3.919669"><ele>545</ele><time>2020-08-16T14:42:28Z</time><name>PT10174</name></trkpt>
<trkpt lat="53.181460" lon="-3.919616"><ele>545</ele><time>2020-08-16T14:42:32Z</time><name>PT10175</name></trkpt>
<trkpt lat="53.181485" lon="-3.919553"><ele>545</ele><time>2020-08-16T14:42:36Z</time><name>PT10176</name></trkpt>
<trkpt lat="53.181505" lon="-3.919506"><ele>547</ele><time>2020-08-16T14:42:39Z</time><name>PT10177</name></trkpt>
<trkpt lat="53.181525" lon="-3.919461"><ele>546</ele><time>2020-08-16T14:42:42Z</time><name>PT10178</name></trkpt>
<trkpt lat="53.181534" lon="-3.919410"><ele>546</ele><time>2020-08-16T14:42:45Z</time><name>PT10179</name></trkpt>
<trkpt lat="53.181551" lon="-3.919336"><ele>544</ele><time>2020-08-16T14:42:49Z</time><name>PT10180</name></trkpt>
<trkpt lat="53.181558" lon="-3.919283"><ele>543</ele><time>2020-08-16T14:42:52Z</time><name>PT10181</name></trkpt>
<trkpt lat="53.181563" lon="-3.919205"><ele>542</ele><time>2020-08-16T14:42:56Z</time><name>PT10182</name></trkpt>
<trkpt lat="53.181595" lon="-3.919139"><ele>543</ele><time>2020-08-16T14:43:00Z</time><name>PT10183</name></trkpt>
<trkpt lat="53.181622" lon="-3.919097"><ele>543</ele><time>2020-08-16T14:43:03Z</time><name>PT10184</name></trkpt>
<trkpt lat="53.181652" lon="-3.919046"><ele>542</ele><time>2020-08-16T14:43:07Z</time><name>PT10185</name></trkpt>
<trkpt lat="53.181686" lon="-3.919001"><ele>542</ele><time>2020-08-16T14:43:11Z</time><name>PT10186</name></trkpt>
<trkpt lat="53.181726" lon="-3.918959"><ele>541</ele><time>2020-08-16T14:43:15Z</time><name>PT10187</name></trkpt>
<trkpt lat="53.181753" lon="-3.918923"><ele>540</ele><time>2020-08-16T14:43:18Z</time><name>PT10188</name></trkpt>
<trkpt lat="53.181792" lon="-3.918897"><ele>542</ele><time>2020-08-16T14:43:21Z</time><name>PT10189</name></trkpt>
<trkpt lat="53.181814" lon="-3.918855"><ele>541</ele><time>2020-08-16T14:43:24Z</time><name>PT10190</name></trkpt>
<trkpt lat="53.181844" lon="-3.918805"><ele>539</ele><time>2020-08-16T14:43:28Z</time><name>PT10191</name></trkpt>
<trkpt lat="53.181871" lon="-3.918765"><ele>538</ele><time>2020-08-16T14:43:31Z</time><name>PT10192</name></trkpt>
<trkpt lat="53.181899" lon="-3.918726"><ele>538</ele><time>2020-08-16T14:43:34Z</time><name>PT10193</name></trkpt>
<trkpt lat="53.181934" lon="-3.918670"><ele>538</ele><time>2020-08-16T14:43:38Z</time><name>PT10194</name></trkpt>
<trkpt lat="53.181960" lon="-3.918627"><ele>538</ele><time>2020-08-16T14:43:41Z</time><name>PT10195</name></trkpt>
<trkpt lat="53.181988" lon="-3.918564"><ele>537</ele><time>2020-08-16T14:43:45Z</time><name>PT10196</name></trkpt>
<trkpt lat="53.182006" lon="-3.918522"><ele>537</ele><time>2020-08-16T14:43:48Z</time><name>PT10197</name></trkpt>
<trkpt lat="53.182027" lon="-3.918482"><ele>538</ele><time>2020-08-16T14:43:51Z</time><name>PT10198</name></trkpt>
<trkpt lat="53.182045" lon="-3.918433"><ele>538</ele><time>2020-08-16T14:43:54Z</time><name>PT10199</name></trkpt>
<trkpt lat="53.182070" lon="-3.918368"><ele>537</ele><time>2020-08-16T14:43:58Z</time><name>PT10200</name></trkpt>
<trkpt lat="53.182094" lon="-3.918303"><ele>536</ele><time>2020-08-16T14:44:02Z</time><name>PT10201</name></trkpt>
<trkpt lat="53.182121" lon="-3.918256"><ele>537</ele><time>2020-08-16T14:44:05Z</time><name>PT10202</name></trkpt>
<trkpt lat="53.182141" lon="-3.918217"><ele>536</ele><time>2020-08-16T14:44:08Z</time><name>PT10203</name></trkpt>
<trkpt lat="53.182167" lon="-3.918170"><ele>536</ele><time>2020-08-16T14:44:11Z</time><name>PT10204</name></trkpt>
<trkpt lat="53.182190" lon="-3.918127"><ele>537</ele><time>2020-08-16T14:44:14Z</time><name>PT10205</name></trkpt>
<trkpt lat="53.182217" lon="-3.918089"><ele>538</ele><time>2020-08-16T14:44:17Z</time><name>PT10206</name></trkpt>
<trkpt lat="53.182243" lon="-3.918051"><ele>538</ele><time>2020-08-16T14:44:20Z</time><name>PT10207</name></trkpt>
<trkpt lat="53.182270" lon="-3.918004"><ele>537</ele><time>2020-08-16T14:44:24Z</time><name>PT10208</name></trkpt>
<trkpt lat="53.182298" lon="-3.917968"><ele>536</ele><time>2020-08-16T14:44:27Z</time><name>PT10209</name></trkpt>
<trkpt lat="53.182333" lon="-3.917915"><ele>536</ele><time>2020-08-16T14:44:31Z</time><name>PT10210</name></trkpt>
<trkpt lat="53.182355" lon="-3.917873"><ele>536</ele><time>2020-08-16T14:44:34Z</time><name>PT10211</name></trkpt>
<trkpt lat="53.182383" lon="-3.917834"><ele>536</ele><time>2020-08-16T14:44:37Z</time><name>PT10212</name></trkpt>
<trkpt lat="53.182416" lon="-3.917778"><ele>536</ele><time>2020-08-16T14:44:41Z</time><name>PT10213</name></trkpt>
<trkpt lat="53.182438" lon="-3.917735"><ele>535</ele><time>2020-08-16T14:44:44Z</time><name>PT10214</name></trkpt>
<trkpt lat="53.182459" lon="-3.917699"><ele>535</ele><time>2020-08-16T14:44:47Z</time><name>PT10215</name></trkpt>
<trkpt lat="53.182487" lon="-3.917643"><ele>533</ele><time>2020-08-16T14:44:51Z</time><name>PT10216</name></trkpt>
<trkpt lat="53.182515" lon="-3.917600"><ele>532</ele><time>2020-08-16T14:44:54Z</time><name>PT10217</name></trkpt>
<trkpt lat="53.182539" lon="-3.917563"><ele>532</ele><time>2020-08-16T14:44:57Z</time><name>PT10218</name></trkpt>
<trkpt lat="53.182578" lon="-3.917503"><ele>533</ele><time>2020-08-16T14:45:01Z</time><name>PT10219</name></trkpt>
<trkpt lat="53.182604" lon="-3.917461"><ele>531</ele><time>2020-08-16T14:45:04Z</time><name>PT10220</name></trkpt>
<trkpt lat="53.182645" lon="-3.917414"><ele>530</ele><time>2020-08-16T14:45:08Z</time><name>PT10221</name></trkpt>
<trkpt lat="53.182678" lon="-3.917381"><ele>531</ele><time>2020-08-16T14:45:11Z</time><name>PT10222</name></trkpt>
<trkpt lat="53.182714" lon="-3.917327"><ele>530</ele><time>2020-08-16T14:45:15Z</time><name>PT10223</name></trkpt>
<trkpt lat="53.182746" lon="-3.917275"><ele>531</ele><time>2020-08-16T14:45:19Z</time><name>PT10224</name></trkpt>
<trkpt lat="53.182784" lon="-3.917222"><ele>530</ele><time>2020-08-16T14:45:23Z</time><name>PT10225</name></trkpt>
<trkpt lat="53.182818" lon="-3.917173"><ele>530</ele><time>2020-08-16T14:45:27Z</time><name>PT10226</name></trkpt>
<trkpt lat="53.182846" lon="-3.917135"><ele>529</ele><time>2020-08-16T14:45:30Z</time><name>PT10227</name></trkpt>
<trkpt lat="53.182886" lon="-3.917088"><ele>528</ele><time>2020-08-16T14:45:34Z</time><name>PT10228</name></trkpt>
<trkpt lat="53.182925" lon="-3.917035"><ele>528</ele><time>2020-08-16T14:45:38Z</time><name>PT10229</name></trkpt>
<trkpt lat="53.182956" lon="-3.916984"><ele>527</ele><time>2020-08-16T14:45:42Z</time><name>PT10230</name></trkpt>
<trkpt lat="53.182987" lon="-3.916934"><ele>526</ele><time>2020-08-16T14:45:46Z</time><name>PT10231</name></trkpt>
<trkpt lat="53.183019" lon="-3.916905"><ele>526</ele><time>2020-08-16T14:45:49Z</time><name>PT10232</name></trkpt>
<trkpt lat="53.183046" lon="-3.916870"><ele>526</ele><time>2020-08-16T14:45:52Z</time><name>PT10233</name></trkpt>
<trkpt lat="53.183076" lon="-3.916836"><ele>525</ele><time>2020-08-16T14:45:55Z</time><name>PT10234</name></trkpt>
<trkpt lat="53.183100" lon="-3.916798"><ele>525</ele><time>2020-08-16T14:45:58Z</time><name>PT10235</name></trkpt>
<trkpt lat="53.183133" lon="-3.916748"><ele>524</ele><time>2020-08-16T14:46:02Z</time><name>PT10236</name></trkpt>
<trkpt lat="53.183159" lon="-3.916716"><ele>523</ele><time>2020-08-16T14:46:05Z</time><name>PT10237</name></trkpt>
<trkpt lat="53.183199" lon="-3.916673"><ele>522</ele><time>2020-08-16T14:46:09Z</time><name>PT10238</name></trkpt>
<trkpt lat="53.183236" lon="-3.916628"><ele>522</ele><time>2020-08-16T14:46:13Z</time><name>PT10239</name></trkpt>
<trkpt lat="53.183279" lon="-3.916583"><ele>521</ele><time>2020-08-16T14:46:17Z</time><name>PT10240</name></trkpt>
<trkpt lat="53.183317" lon="-3.916531"><ele>520</ele><time>2020-08-16T14:46:21Z</time><name>PT10241</name></trkpt>
<trkpt lat="53.183344" lon="-3.916493"><ele>520</ele><time>2020-08-16T14:46:24Z</time><name>PT10242</name></trkpt>
<trkpt lat="53.183378" lon="-3.916451"><ele>519</ele><time>2020-08-16T14:46:28Z</time><name>PT10243</name></trkpt>
<trkpt lat="53.183412" lon="-3.916405"><ele>519</ele><time>2020-08-16T14:46:32Z</time><name>PT10244</name></trkpt>
<trkpt lat="53.183438" lon="-3.916373"><ele>518</ele><time>2020-08-16T14:46:35Z</time><name>PT10245</name></trkpt>
<trkpt lat="53.183466" lon="-3.916338"><ele>517</ele><time>2020-08-16T14:46:38Z</time><name>PT10246</name></trkpt>
<trkpt lat="53.183506" lon="-3.916300"><ele>517</ele><time>2020-08-16T14:46:42Z</time><name>PT10247</name></trkpt>
<trkpt lat="53.183541" lon="-3.916251"><ele>516</ele><time>2020-08-16T14:46:46Z</time><name>PT10248</name></trkpt>
<trkpt lat="53.183576" lon="-3.916217"><ele>516</ele><time>2020-08-16T14:46:50Z</time><name>PT10249</name></trkpt>
<trkpt lat="53.183616" lon="-3.916181"><ele>515</ele><time>2020-08-16T14:46:54Z</time><name>PT10250</name></trkpt>
<trkpt lat="53.183638" lon="-3.916156"><ele>515</ele><time>2020-08-16T14:46:57Z</time><name>PT10251</name></trkpt>
<trkpt lat="53.183655" lon="-3.916149"><ele>514</ele><time>2020-08-16T14:47:00Z</time><name>PT10252</name></trkpt>
<trkpt lat="53.183670" lon="-3.916122"><ele>514</ele><time>2020-08-16T14:47:03Z</time><name>PT10253</name></trkpt>
<trkpt lat="53.183707" lon="-3.916078"><ele>514</ele><time>2020-08-16T14:47:07Z</time><name>PT10254</name></trkpt>
<trkpt lat="53.183739" lon="-3.916023"><ele>513</ele><time>2020-08-16T14:47:11Z</time><name>PT10255</name></trkpt>
<trkpt lat="53.183770" lon="-3.915957"><ele>513</ele><time>2020-08-16T14:47:15Z</time><name>PT10256</name></trkpt>
<trkpt lat="53.183782" lon="-3.915894"><ele>513</ele><time>2020-08-16T14:47:18Z</time><name>PT10257</name></trkpt>
<trkpt lat="53.183793" lon="-3.915808"><ele>513</ele><time>2020-08-16T14:47:22Z</time><name>PT10258</name></trkpt>
<trkpt lat="53.183800" lon="-3.915755"><ele>513</ele><time>2020-08-16T14:47:25Z</time><name>PT10259</name></trkpt>
<trkpt lat="53.183802" lon="-3.915681"><ele>512</ele><time>2020-08-16T14:47:29Z</time><name>PT10260</name></trkpt>
<trkpt lat="53.183811" lon="-3.915623"><ele>512</ele><time>2020-08-16T14:47:32Z</time><name>PT10261</name></trkpt>
<trkpt lat="53.183814" lon="-3.915562"><ele>512</ele><time>2020-08-16T14:47:35Z</time><name>PT10262</name></trkpt>
<trkpt lat="53.183814" lon="-3.915484"><ele>511</ele><time>2020-08-16T14:47:39Z</time><name>PT10263</name></trkpt>
<trkpt lat="53.183808" lon="-3.915425"><ele>510</ele><time>2020-08-16T14:47:42Z</time><name>PT10264</name></trkpt>
<trkpt lat="53.183800" lon="-3.915347"><ele>510</ele><time>2020-08-16T14:47:46Z</time><name>PT10265</name></trkpt>
<trkpt lat="53.183797" lon="-3.915295"><ele>509</ele><time>2020-08-16T14:47:49Z</time><name>PT10266</name></trkpt>
<trkpt lat="53.183790" lon="-3.915217"><ele>509</ele><time>2020-08-16T14:47:53Z</time><name>PT10267</name></trkpt>
<trkpt lat="53.183794" lon="-3.915156"><ele>509</ele><time>2020-08-16T14:47:56Z</time><name>PT10268</name></trkpt>
<trkpt lat="53.183799" lon="-3.915078"><ele>511</ele><time>2020-08-16T14:48:00Z</time><name>PT10269</name></trkpt>
<trkpt lat="53.183799" lon="-3.915012"><ele>511</ele><time>2020-08-16T14:48:03Z</time><name>PT10270</name></trkpt>
<trkpt lat="53.183795" lon="-3.914957"><ele>510</ele><time>2020-08-16T14:48:06Z</time><name>PT10271</name></trkpt>
<trkpt lat="53.183790" lon="-3.914919"><ele>510</ele><time>2020-08-16T14:48:09Z</time><name>PT10272</name></trkpt>
<trkpt lat="53.183776" lon="-3.914847"><ele>510</ele><time>2020-08-16T14:48:13Z</time><name>PT10273</name></trkpt>
<trkpt lat="53.183763" lon="-3.914800"><ele>509</ele><time>2020-08-16T14:48:16Z</time><name>PT10274</name></trkpt>
<trkpt lat="53.183748" lon="-3.914737"><ele>509</ele><time>2020-08-16T14:48:20Z</time><name>PT10275</name></trkpt>
<trkpt lat="53.183743" lon="-3.914658"><ele>509</ele><time>2020-08-16T14:48:24Z</time><name>PT10276</name></trkpt>
<trkpt lat="53.183736" lon="-3.914591"><ele>508</ele><time>2020-08-16T14:48:28Z</time><name>PT10277</name></trkpt>
<trkpt lat="53.183729" lon="-3.914504"><ele>507</ele><time>2020-08-16T14:48:32Z</time><name>PT10278</name></trkpt>
<trkpt lat="53.183728" lon="-3.914413"><ele>506</ele><time>2020-08-16T14:48:36Z</time><name>PT10279</name></trkpt>
<trkpt lat="53.183726" lon="-3.914351"><ele>507</ele><time>2020-08-16T14:48:39Z</time><name>PT10280</name></trkpt>
<trkpt lat="53.183727" lon="-3.914285"><ele>507</ele><time>2020-08-16T14:48:42Z</time><name>PT10281</name></trkpt>
<trkpt lat="53.183716" lon="-3.914232"><ele>506</ele><time>2020-08-16T14:48:45Z</time><name>PT10282</name></trkpt>
<trkpt lat="53.183708" lon="-3.914151"><ele>507</ele><time>2020-08-16T14:48:49Z</time><name>PT10283</name></trkpt>
<trkpt lat="53.183702" lon="-3.914091"><ele>506</ele><time>2020-08-16T14:48:52Z</time><name>PT10284</name></trkpt>
<trkpt lat="53.183702" lon="-3.914016"><ele>507</ele><time>2020-08-16T14:48:56Z</time><name>PT10285</name></trkpt>
<trkpt lat="53.183697" lon="-3.913941"><ele>508</ele><time>2020-08-16T14:49:00Z</time><name>PT10286</name></trkpt>
<trkpt lat="53.183693" lon="-3.913863"><ele>508</ele><time>2020-08-16T14:49:04Z</time><name>PT10287</name></trkpt>
<trkpt lat="53.183693" lon="-3.913800"><ele>508</ele><time>2020-08-16T14:49:07Z</time><name>PT10288</name></trkpt>
<trkpt lat="53.183691" lon="-3.913750"><ele>508</ele><time>2020-08-16T14:49:10Z</time><name>PT10289</name></trkpt>
<trkpt lat="53.183696" lon="-3.913668"><ele>508</ele><time>2020-08-16T14:49:14Z</time><name>PT10290</name></trkpt>
<trkpt lat="53.183698" lon="-3.913606"><ele>508</ele><time>2020-08-16T14:49:17Z</time><name>PT10291</name></trkpt>
<trkpt lat="53.183692" lon="-3.913545"><ele>508</ele><time>2020-08-16T14:49:20Z</time><name>PT10292</name></trkpt>
<trkpt lat="53.183678" lon="-3.913498"><ele>506</ele><time>2020-08-16T14:49:23Z</time><name>PT10293</name></trkpt>
<trkpt lat="53.183657" lon="-3.913426"><ele>504</ele><time>2020-08-16T14:49:27Z</time><name>PT10294</name></trkpt>
<trkpt lat="53.183655" lon="-3.913357"><ele>504</ele><time>2020-08-16T14:49:30Z</time><name>PT10295</name></trkpt>
<trkpt lat="53.183654" lon="-3.913296"><ele>504</ele><time>2020-08-16T14:49:33Z</time><name>PT10296</name></trkpt>
<trkpt lat="53.183648" lon="-3.913214"><ele>504</ele><time>2020-08-16T14:49:37Z</time><name>PT10297</name></trkpt>
<trkpt lat="53.183642" lon="-3.913154"><ele>505</ele><time>2020-08-16T14:49:40Z</time><name>PT10298</name></trkpt>
<trkpt lat="53.183623" lon="-3.913087"><ele>502</ele><time>2020-08-16T14:49:44Z</time><name>PT10299</name></trkpt>
<trkpt lat="53.183617" lon="-3.913041"><ele>503</ele><time>2020-08-16T14:49:47Z</time><name>PT10300</name></trkpt>
<trkpt lat="53.183605" lon="-3.912974"><ele>503</ele><time>2020-08-16T14:49:51Z</time><name>PT10301</name></trkpt>
<trkpt lat="53.183597" lon="-3.912909"><ele>502</ele><time>2020-08-16T14:49:55Z</time><name>PT10302</name></trkpt>
<trkpt lat="53.183601" lon="-3.912842"><ele>504</ele><time>2020-08-16T14:49:58Z</time><name>PT10303</name></trkpt>
<trkpt lat="53.183608" lon="-3.912775"><ele>505</ele><time>2020-08-16T14:50:02Z</time><name>PT10304</name></trkpt>
<trkpt lat="53.183594" lon="-3.912700"><ele>505</ele><time>2020-08-16T14:50:06Z</time><name>PT10305</name></trkpt>
<trkpt lat="53.183581" lon="-3.912655"><ele>504</ele><time>2020-08-16T14:50:09Z</time><name>PT10306</name></trkpt>
<trkpt lat="53.183560" lon="-3.912596"><ele>501</ele><time>2020-08-16T14:50:12Z</time><name>PT10307</name></trkpt>
<trkpt lat="53.183573" lon="-3.912501"><ele>502</ele><time>2020-08-16T14:50:16Z</time><name>PT10308</name></trkpt>
<trkpt lat="53.183597" lon="-3.912437"><ele>503</ele><time>2020-08-16T14:50:19Z</time><name>PT10309</name></trkpt>
<trkpt lat="53.183624" lon="-3.912366"><ele>503</ele><time>2020-08-16T14:50:23Z</time><name>PT10310</name></trkpt>
<trkpt lat="53.183633" lon="-3.912310"><ele>503</ele><time>2020-08-16T14:50:26Z</time><name>PT10311</name></trkpt>
<trkpt lat="53.183631" lon="-3.912263"><ele>502</ele><time>2020-08-16T14:50:29Z</time><name>PT10312</name></trkpt>
<trkpt lat="53.183630" lon="-3.912177"><ele>502</ele><time>2020-08-16T14:50:33Z</time><name>PT10313</name></trkpt>
<trkpt lat="53.183619" lon="-3.912121"><ele>502</ele><time>2020-08-16T14:50:36Z</time><name>PT10314</name></trkpt>
<trkpt lat="53.183622" lon="-3.912041"><ele>503</ele><time>2020-08-16T14:50:40Z</time><name>PT10315</name></trkpt>
<trkpt lat="53.183621" lon="-3.911981"><ele>503</ele><time>2020-08-16T14:50:43Z</time><name>PT10316</name></trkpt>
<trkpt lat="53.183619" lon="-3.911918"><ele>502</ele><time>2020-08-16T14:50:46Z</time><name>PT10317</name></trkpt>
<trkpt lat="53.183617" lon="-3.911858"><ele>501</ele><time>2020-08-16T14:50:49Z</time><name>PT10318</name></trkpt>
<trkpt lat="53.183612" lon="-3.911803"><ele>501</ele><time>2020-08-16T14:50:52Z</time><name>PT10319</name></trkpt>
<trkpt lat="53.183614" lon="-3.911744"><ele>500</ele><time>2020-08-16T14:50:55Z</time><name>PT10320</name></trkpt>
<trkpt lat="53.183611" lon="-3.911676"><ele>500</ele><time>2020-08-16T14:50:59Z</time><name>PT10321</name></trkpt>
<trkpt lat="53.183614" lon="-3.911612"><ele>500</ele><time>2020-08-16T14:51:02Z</time><name>PT10322</name></trkpt>
<trkpt lat="53.183612" lon="-3.911552"><ele>499</ele><time>2020-08-16T14:51:05Z</time><name>PT10323</name></trkpt>
<trkpt lat="53.183614" lon="-3.911492"><ele>498</ele><time>2020-08-16T14:51:08Z</time><name>PT10324</name></trkpt>
<trkpt lat="53.183623" lon="-3.911432"><ele>498</ele><time>2020-08-16T14:51:11Z</time><name>PT10325</name></trkpt>
<trkpt lat="53.183637" lon="-3.911360"><ele>499</ele><time>2020-08-16T14:51:15Z</time><name>PT10326</name></trkpt>
<trkpt lat="53.183646" lon="-3.911305"><ele>498</ele><time>2020-08-16T14:51:18Z</time><name>PT10327</name></trkpt>
<trkpt lat="53.183655" lon="-3.911226"><ele>498</ele><time>2020-08-16T14:51:22Z</time><name>PT10328</name></trkpt>
<trkpt lat="53.183661" lon="-3.911154"><ele>497</ele><time>2020-08-16T14:51:26Z</time><name>PT10329</name></trkpt>
<trkpt lat="53.183670" lon="-3.911075"><ele>497</ele><time>2020-08-16T14:51:30Z</time><name>PT10330</name></trkpt>
<trkpt lat="53.183679" lon="-3.911004"><ele>497</ele><time>2020-08-16T14:51:34Z</time><name>PT10331</name></trkpt>
<trkpt lat="53.183668" lon="-3.910924"><ele>496</ele><time>2020-08-16T14:51:38Z</time><name>PT10332</name></trkpt>
<trkpt lat="53.183672" lon="-3.910853"><ele>496</ele><time>2020-08-16T14:51:41Z</time><name>PT10333</name></trkpt>
<trkpt lat="53.183663" lon="-3.910797"><ele>495</ele><time>2020-08-16T14:51:44Z</time><name>PT10334</name></trkpt>
<trkpt lat="53.183665" lon="-3.910716"><ele>495</ele><time>2020-08-16T14:51:48Z</time><name>PT10335</name></trkpt>
<trkpt lat="53.183662" lon="-3.910652"><ele>494</ele><time>2020-08-16T14:51:51Z</time><name>PT10336</name></trkpt>
<trkpt lat="53.183660" lon="-3.910576"><ele>493</ele><time>2020-08-16T14:51:55Z</time><name>PT10337</name></trkpt>
<trkpt lat="53.183664" lon="-3.910491"><ele>494</ele><time>2020-08-16T14:51:59Z</time><name>PT10338</name></trkpt>
<trkpt lat="53.183671" lon="-3.910432"><ele>494</ele><time>2020-08-16T14:52:02Z</time><name>PT10339</name></trkpt>
<trkpt lat="53.183687" lon="-3.910352"><ele>494</ele><time>2020-08-16T14:52:06Z</time><name>PT10340</name></trkpt>
<trkpt lat="53.183705" lon="-3.910299"><ele>494</ele><time>2020-08-16T14:52:09Z</time><name>PT10341</name></trkpt>
<trkpt lat="53.183724" lon="-3.910239"><ele>493</ele><time>2020-08-16T14:52:13Z</time><name>PT10342</name></trkpt>
<trkpt lat="53.183753" lon="-3.910172"><ele>493</ele><time>2020-08-16T14:52:17Z</time><name>PT10343</name></trkpt>
<trkpt lat="53.183767" lon="-3.910121"><ele>493</ele><time>2020-08-16T14:52:20Z</time><name>PT10344</name></trkpt>
<trkpt lat="53.183785" lon="-3.910047"><ele>492</ele><time>2020-08-16T14:52:24Z</time><name>PT10345</name></trkpt>
<trkpt lat="53.183785" lon="-3.909980"><ele>492</ele><time>2020-08-16T14:52:27Z</time><name>PT10346</name></trkpt>
<trkpt lat="53.183765" lon="-3.909919"><ele>490</ele><time>2020-08-16T14:52:31Z</time><name>PT10347</name></trkpt>
<trkpt lat="53.183747" lon="-3.909882"><ele>490</ele><time>2020-08-16T14:52:34Z</time><name>PT10348</name></trkpt>
<trkpt lat="53.183720" lon="-3.909863"><ele>489</ele><time>2020-08-16T14:52:37Z</time><name>PT10349</name></trkpt>
<trkpt lat="53.183686" lon="-3.909833"><ele>489</ele><time>2020-08-16T14:52:40Z</time><name>PT10350</name></trkpt>
<trkpt lat="53.183638" lon="-3.909822"><ele>487</ele><time>2020-08-16T14:52:44Z</time><name>PT10351</name></trkpt>
<trkpt lat="53.183594" lon="-3.909803"><ele>486</ele><time>2020-08-16T14:52:48Z</time><name>PT10352</name></trkpt>
<trkpt lat="53.183555" lon="-3.909781"><ele>485</ele><time>2020-08-16T14:52:52Z</time><name>PT10353</name></trkpt>
<trkpt lat="53.183544" lon="-3.909725"><ele>484</ele><time>2020-08-16T14:52:55Z</time><name>PT10354</name></trkpt>
<trkpt lat="53.183547" lon="-3.909633"><ele>482</ele><time>2020-08-16T14:52:59Z</time><name>PT10355</name></trkpt>
<trkpt lat="53.183568" lon="-3.909586"><ele>482</ele><time>2020-08-16T14:53:02Z</time><name>PT10356</name></trkpt>
<trkpt lat="53.183611" lon="-3.909538"><ele>482</ele><time>2020-08-16T14:53:06Z</time><name>PT10357</name></trkpt>
<trkpt lat="53.183656" lon="-3.909498"><ele>482</ele><time>2020-08-16T14:53:10Z</time><name>PT10358</name></trkpt>
<trkpt lat="53.183697" lon="-3.909464"><ele>481</ele><time>2020-08-16T14:53:14Z</time><name>PT10359</name></trkpt>
<trkpt lat="53.183744" lon="-3.909452"><ele>481</ele><time>2020-08-16T14:53:18Z</time><name>PT10360</name></trkpt>
<trkpt lat="53.183781" lon="-3.909425"><ele>481</ele><time>2020-08-16T14:53:22Z</time><name>PT10361</name></trkpt>
<trkpt lat="53.183815" lon="-3.909402"><ele>480</ele><time>2020-08-16T14:53:26Z</time><name>PT10362</name></trkpt>
<trkpt lat="53.183862" lon="-3.909358"><ele>480</ele><time>2020-08-16T14:53:30Z</time><name>PT10363</name></trkpt>
<trkpt lat="53.183895" lon="-3.909306"><ele>479</ele><time>2020-08-16T14:53:34Z</time><name>PT10364</name></trkpt>
<trkpt lat="53.183910" lon="-3.909246"><ele>478</ele><time>2020-08-16T14:53:38Z</time><name>PT10365</name></trkpt>
<trkpt lat="53.183918" lon="-3.909171"><ele>478</ele><time>2020-08-16T14:53:42Z</time><name>PT10366</name></trkpt>
<trkpt lat="53.183928" lon="-3.909127"><ele>477</ele><time>2020-08-16T14:53:45Z</time><name>PT10367</name></trkpt>
<trkpt lat="53.183946" lon="-3.909065"><ele>477</ele><time>2020-08-16T14:53:48Z</time><name>PT10368</name></trkpt>
<trkpt lat="53.183960" lon="-3.908996"><ele>477</ele><time>2020-08-16T14:53:52Z</time><name>PT10369</name></trkpt>
<trkpt lat="53.183969" lon="-3.908922"><ele>476</ele><time>2020-08-16T14:53:56Z</time><name>PT10370</name></trkpt>
<trkpt lat="53.183974" lon="-3.908863"><ele>477</ele><time>2020-08-16T14:53:59Z</time><name>PT10371</name></trkpt>
<trkpt lat="53.183967" lon="-3.908792"><ele>477</ele><time>2020-08-16T14:54:03Z</time><name>PT10372</name></trkpt>
<trkpt lat="53.183967" lon="-3.908714"><ele>475</ele><time>2020-08-16T14:54:07Z</time><name>PT10373</name></trkpt>
<trkpt lat="53.183967" lon="-3.908648"><ele>476</ele><time>2020-08-16T14:54:11Z</time><name>PT10374</name></trkpt>
<trkpt lat="53.183973" lon="-3.908593"><ele>475</ele><time>2020-08-16T14:54:14Z</time><name>PT10375</name></trkpt>
<trkpt lat="53.183968" lon="-3.908523"><ele>474</ele><time>2020-08-16T14:54:18Z</time><name>PT10376</name></trkpt>
<trkpt lat="53.183979" lon="-3.908458"><ele>475</ele><time>2020-08-16T14:54:21Z</time><name>PT10377</name></trkpt>
<trkpt lat="53.183981" lon="-3.908375"><ele>473</ele><time>2020-08-16T14:54:25Z</time><name>PT10378</name></trkpt>
<trkpt lat="53.183983" lon="-3.908297"><ele>473</ele><time>2020-08-16T14:54:29Z</time><name>PT10379</name></trkpt>
<trkpt lat="53.183987" lon="-3.908239"><ele>472</ele><time>2020-08-16T14:54:32Z</time><name>PT10380</name></trkpt>
<trkpt lat="53.183983" lon="-3.908165"><ele>472</ele><time>2020-08-16T14:54:36Z</time><name>PT10381</name></trkpt>
<trkpt lat="53.183977" lon="-3.908113"><ele>472</ele><time>2020-08-16T14:54:39Z</time><name>PT10382</name></trkpt>
<trkpt lat="53.183964" lon="-3.908063"><ele>471</ele><time>2020-08-16T14:54:42Z</time><name>PT10383</name></trkpt>
<trkpt lat="53.183944" lon="-3.907994"><ele>469</ele><time>2020-08-16T14:54:46Z</time><name>PT10384</name></trkpt>
<trkpt lat="53.183917" lon="-3.907962"><ele>470</ele><time>2020-08-16T14:54:50Z</time><name>PT10385</name></trkpt>
<trkpt lat="53.183870" lon="-3.907985"><ele>468</ele><time>2020-08-16T14:54:54Z</time><name>PT10386</name></trkpt>
<trkpt lat="53.183827" lon="-3.908026"><ele>467</ele><time>2020-08-16T14:54:58Z</time><name>PT10387</name></trkpt>
<trkpt lat="53.183792" lon="-3.908070"><ele>466</ele><time>2020-08-16T14:55:02Z</time><name>PT10388</name></trkpt>
<trkpt lat="53.183747" lon="-3.908110"><ele>465</ele><time>2020-08-16T14:55:06Z</time><name>PT10389</name></trkpt>
<trkpt lat="53.183715" lon="-3.908156"><ele>463</ele><time>2020-08-16T14:55:10Z</time><name>PT10390</name></trkpt>
<trkpt lat="53.183686" lon="-3.908177"><ele>464</ele><time>2020-08-16T14:55:13Z</time><name>PT10391</name></trkpt>
<trkpt lat="53.183654" lon="-3.908213"><ele>463</ele><time>2020-08-16T14:55:16Z</time><name>PT10392</name></trkpt>
<trkpt lat="53.183626" lon="-3.908253"><ele>463</ele><time>2020-08-16T14:55:19Z</time><name>PT10393</name></trkpt>
<trkpt lat="53.183576" lon="-3.908268"><ele>463</ele><time>2020-08-16T14:55:23Z</time><name>PT10394</name></trkpt>
<trkpt lat="53.183540" lon="-3.908275"><ele>463</ele><time>2020-08-16T14:55:26Z</time><name>PT10395</name></trkpt>
<trkpt lat="53.183503" lon="-3.908284"><ele>461</ele><time>2020-08-16T14:55:29Z</time><name>PT10396</name></trkpt>
<trkpt lat="53.183444" lon="-3.908286"><ele>461</ele><time>2020-08-16T14:55:33Z</time><name>PT10397</name></trkpt>
<trkpt lat="53.183398" lon="-3.908285"><ele>463</ele><time>2020-08-16T14:55:36Z</time><name>PT10398</name></trkpt>
<trkpt lat="53.183353" lon="-3.908278"><ele>461</ele><time>2020-08-16T14:55:40Z</time><name>PT10399</name></trkpt>
<trkpt lat="53.183319" lon="-3.908277"><ele>461</ele><time>2020-08-16T14:55:43Z</time><name>PT10400</name></trkpt>
<trkpt lat="53.183271" lon="-3.908294"><ele>460</ele><time>2020-08-16T14:55:47Z</time><name>PT10401</name></trkpt>
<trkpt lat="53.183237" lon="-3.908323"><ele>458</ele><time>2020-08-16T14:55:50Z</time><name>PT10402</name></trkpt>
<trkpt lat="53.183212" lon="-3.908354"><ele>457</ele><time>2020-08-16T14:55:53Z</time><name>PT10403</name></trkpt>
<trkpt lat="53.183164" lon="-3.908376"><ele>456</ele><time>2020-08-16T14:55:57Z</time><name>PT10404</name></trkpt>
<trkpt lat="53.183125" lon="-3.908388"><ele>456</ele><time>2020-08-16T14:56:00Z</time><name>PT10405</name></trkpt>
<trkpt lat="53.183079" lon="-3.908389"><ele>456</ele><time>2020-08-16T14:56:04Z</time><name>PT10406</name></trkpt>
<trkpt lat="53.183027" lon="-3.908397"><ele>456</ele><time>2020-08-16T14:56:08Z</time><name>PT10407</name></trkpt>
<trkpt lat="53.182992" lon="-3.908402"><ele>456</ele><time>2020-08-16T14:56:11Z</time><name>PT10408</name></trkpt>
<trkpt lat="53.182947" lon="-3.908408"><ele>455</ele><time>2020-08-16T14:56:15Z</time><name>PT10409</name></trkpt>
<trkpt lat="53.182911" lon="-3.908412"><ele>455</ele><time>2020-08-16T14:56:18Z</time><name>PT10410</name></trkpt>
<trkpt lat="53.182868" lon="-3.908414"><ele>455</ele><time>2020-08-16T14:56:22Z</time><name>PT10411</name></trkpt>
<trkpt lat="53.182818" lon="-3.908417"><ele>454</ele><time>2020-08-16T14:56:26Z</time><name>PT10412</name></trkpt>
<trkpt lat="53.182791" lon="-3.908424"><ele>453</ele><time>2020-08-16T14:56:29Z</time><name>PT10413</name></trkpt>
<trkpt lat="53.182748" lon="-3.908424"><ele>452</ele><time>2020-08-16T14:56:33Z</time><name>PT10414</name></trkpt>
<trkpt lat="53.182702" lon="-3.908415"><ele>451</ele><time>2020-08-16T14:56:37Z</time><name>PT10415</name></trkpt>
<trkpt lat="53.182667" lon="-3.908418"><ele>451</ele><time>2020-08-16T14:56:41Z</time><name>PT10416</name></trkpt>
<trkpt lat="53.182635" lon="-3.908419"><ele>450</ele><time>2020-08-16T14:56:44Z</time><name>PT10417</name></trkpt>
<trkpt lat="53.182601" lon="-3.908414"><ele>450</ele><time>2020-08-16T14:56:47Z</time><name>PT10418</name></trkpt>
<trkpt lat="53.182563" lon="-3.908400"><ele>449</ele><time>2020-08-16T14:56:50Z</time><name>PT10419</name></trkpt>
<trkpt lat="53.182515" lon="-3.908409"><ele>449</ele><time>2020-08-16T14:56:54Z</time><name>PT10420</name></trkpt>
<trkpt lat="53.182464" lon="-3.908398"><ele>448</ele><time>2020-08-16T14:56:58Z</time><name>PT10421</name></trkpt>
<trkpt lat="53.182414" lon="-3.908394"><ele>448</ele><time>2020-08-16T14:57:02Z</time><name>PT10422</name></trkpt>
<trkpt lat="53.182369" lon="-3.908377"><ele>448</ele><time>2020-08-16T14:57:06Z</time><name>PT10423</name></trkpt>
<trkpt lat="53.182322" lon="-3.908366"><ele>447</ele><time>2020-08-16T14:57:10Z</time><name>PT10424</name></trkpt>
<trkpt lat="53.182294" lon="-3.908369"><ele>447</ele><time>2020-08-16T14:57:13Z</time><name>PT10425</name></trkpt>
<trkpt lat="53.182255" lon="-3.908359"><ele>445</ele><time>2020-08-16T14:57:17Z</time><name>PT10426</name></trkpt>
<trkpt lat="53.182219" lon="-3.908359"><ele>445</ele><time>2020-08-16T14:57:20Z</time><name>PT10427</name></trkpt>
<trkpt lat="53.182177" lon="-3.908357"><ele>445</ele><time>2020-08-16T14:57:24Z</time><name>PT10428</name></trkpt>
<trkpt lat="53.182134" lon="-3.908353"><ele>444</ele><time>2020-08-16T14:57:28Z</time><name>PT10429</name></trkpt>
<trkpt lat="53.182101" lon="-3.908352"><ele>444</ele><time>2020-08-16T14:57:31Z</time><name>PT10430</name></trkpt>
<trkpt lat="53.182056" lon="-3.908345"><ele>443</ele><time>2020-08-16T14:57:35Z</time><name>PT10431</name></trkpt>
<trkpt lat="53.182028" lon="-3.908343"><ele>442</ele><time>2020-08-16T14:57:38Z</time><name>PT10432</name></trkpt>
<trkpt lat="53.181992" lon="-3.908357"><ele>440</ele><time>2020-08-16T14:57:41Z</time><name>PT10433</name></trkpt>
<trkpt lat="53.181949" lon="-3.908363"><ele>439</ele><time>2020-08-16T14:57:45Z</time><name>PT10434</name></trkpt>
<trkpt lat="53.181904" lon="-3.908357"><ele>438</ele><time>2020-08-16T14:57:49Z</time><name>PT10435</name></trkpt>
<trkpt lat="53.181858" lon="-3.908352"><ele>438</ele><time>2020-08-16T14:57:53Z</time><name>PT10436</name></trkpt>
<trkpt lat="53.181823" lon="-3.908346"><ele>438</ele><time>2020-08-16T14:57:56Z</time><name>PT10437</name></trkpt>
<trkpt lat="53.181789" lon="-3.908335"><ele>437</ele><time>2020-08-16T14:57:59Z</time><name>PT10438</name></trkpt>
<trkpt lat="53.181756" lon="-3.908319"><ele>436</ele><time>2020-08-16T14:58:02Z</time><name>PT10439</name></trkpt>
<trkpt lat="53.181724" lon="-3.908276"><ele>436</ele><time>2020-08-16T14:58:06Z</time><name>PT10440</name></trkpt>
<trkpt lat="53.181715" lon="-3.908181"><ele>437</ele><time>2020-08-16T14:58:10Z</time><name>PT10441</name></trkpt>
<trkpt lat="53.181708" lon="-3.908098"><ele>435</ele><time>2020-08-16T14:58:14Z</time><name>PT10442</name></trkpt>
<trkpt lat="53.181697" lon="-3.908041"><ele>435</ele><time>2020-08-16T14:58:17Z</time><name>PT10443</name></trkpt>
<trkpt lat="53.181694" lon="-3.907971"><ele>435</ele><time>2020-08-16T14:58:21Z</time><name>PT10444</name></trkpt>
<trkpt lat="53.181691" lon="-3.907898"><ele>435</ele><time>2020-08-16T14:58:25Z</time><name>PT10445</name></trkpt>
<trkpt lat="53.181682" lon="-3.907825"><ele>433</ele><time>2020-08-16T14:58:29Z</time><name>PT10446</name></trkpt>
<trkpt lat="53.181681" lon="-3.907767"><ele>432</ele><time>2020-08-16T14:58:32Z</time><name>PT10447</name></trkpt>
<trkpt lat="53.181675" lon="-3.907718"><ele>432</ele><time>2020-08-16T14:58:35Z</time><name>PT10448</name></trkpt>
<trkpt lat="53.181675" lon="-3.907653"><ele>432</ele><time>2020-08-16T14:58:38Z</time><name>PT10449</name></trkpt>
<trkpt lat="53.181682" lon="-3.907575"><ele>432</ele><time>2020-08-16T14:58:42Z</time><name>PT10450</name></trkpt>
<trkpt lat="53.181695" lon="-3.907508"><ele>431</ele><time>2020-08-16T14:58:46Z</time><name>PT10451</name></trkpt>
<trkpt lat="53.181703" lon="-3.907434"><ele>430</ele><time>2020-08-16T14:58:50Z</time><name>PT10452</name></trkpt>
<trkpt lat="53.181722" lon="-3.907387"><ele>429</ele><time>2020-08-16T14:58:53Z</time><name>PT10453</name></trkpt>
<trkpt lat="53.181743" lon="-3.907331"><ele>429</ele><time>2020-08-16T14:58:56Z</time><name>PT10454</name></trkpt>
<trkpt lat="53.181766" lon="-3.907288"><ele>429</ele><time>2020-08-16T14:58:59Z</time><name>PT10455</name></trkpt>
<trkpt lat="53.181790" lon="-3.907220"><ele>428</ele><time>2020-08-16T14:59:03Z</time><name>PT10456</name></trkpt>
<trkpt lat="53.181810" lon="-3.907148"><ele>427</ele><time>2020-08-16T14:59:07Z</time><name>PT10457</name></trkpt>
<trkpt lat="53.181816" lon="-3.907095"><ele>427</ele><time>2020-08-16T14:59:10Z</time><name>PT10458</name></trkpt>
<trkpt lat="53.181815" lon="-3.907011"><ele>427</ele><time>2020-08-16T14:59:14Z</time><name>PT10459</name></trkpt>
<trkpt lat="53.181805" lon="-3.906941"><ele>427</ele><time>2020-08-16T14:59:18Z</time><name>PT10460</name></trkpt>
<trkpt lat="53.181767" lon="-3.906900"><ele>424</ele><time>2020-08-16T14:59:22Z</time><name>PT10461</name></trkpt>
<trkpt lat="53.181743" lon="-3.906882"><ele>422</ele><time>2020-08-16T14:59:25Z</time><name>PT10462</name></trkpt>
<trkpt lat="53.181713" lon="-3.906863"><ele>421</ele><time>2020-08-16T14:59:28Z</time><name>PT10463</name></trkpt>
<trkpt lat="53.181676" lon="-3.906830"><ele>419</ele><time>2020-08-16T14:59:32Z</time><name>PT10464</name></trkpt>
<trkpt lat="53.181643" lon="-3.906789"><ele>419</ele><time>2020-08-16T14:59:35Z</time><name>PT10465</name></trkpt>
<trkpt lat="53.181599" lon="-3.906761"><ele>418</ele><time>2020-08-16T14:59:39Z</time><name>PT10466</name></trkpt>
<trkpt lat="53.181575" lon="-3.906745"><ele>418</ele><time>2020-08-16T14:59:42Z</time><name>PT10467</name></trkpt>
<trkpt lat="53.181565" lon="-3.906724"><ele>418</ele><time>2020-08-16T14:59:45Z</time><name>PT10468</name></trkpt>
<trkpt lat="53.181567" lon="-3.906713"><ele>419</ele><time>2020-08-16T14:59:48Z</time><name>PT10469</name></trkpt>
<trkpt lat="53.181554" lon="-3.906694"><ele>418</ele><time>2020-08-16T14:59:51Z</time><name>PT10470</name></trkpt>
<trkpt lat="53.181545" lon="-3.906644"><ele>417</ele><time>2020-08-16T14:59:55Z</time><name>PT10471</name></trkpt>
<trkpt lat="53.181548" lon="-3.906614"><ele>416</ele><time>2020-08-16T14:59:59Z</time><name>PT10472</name></trkpt>
<trkpt lat="53.181537" lon="-3.906574"><ele>416</ele><time>2020-08-16T15:00:02Z</time><name>PT10473</name></trkpt>
<trkpt lat="53.181520" lon="-3.906499"><ele>416</ele><time>2020-08-16T15:00:06Z</time><name>PT10474</name></trkpt>
<trkpt lat="53.181510" lon="-3.906442"><ele>415</ele><time>2020-08-16T15:00:09Z</time><name>PT10475</name></trkpt>
<trkpt lat="53.181495" lon="-3.906398"><ele>414</ele><time>2020-08-16T15:00:12Z</time><name>PT10476</name></trkpt>
<trkpt lat="53.181488" lon="-3.906349"><ele>414</ele><time>2020-08-16T15:00:16Z</time><name>PT10477</name></trkpt>
<trkpt lat="53.181476" lon="-3.906300"><ele>416</ele><time>2020-08-16T15:00:19Z</time><name>PT10478</name></trkpt>
<trkpt lat="53.181460" lon="-3.906238"><ele>416</ele><time>2020-08-16T15:00:23Z</time><name>PT10479</name></trkpt>
<trkpt lat="53.181444" lon="-3.906190"><ele>416</ele><time>2020-08-16T15:00:26Z</time><name>PT10480</name></trkpt>
<trkpt lat="53.181426" lon="-3.906127"><ele>414</ele><time>2020-08-16T15:00:30Z</time><name>PT10481</name></trkpt>
<trkpt lat="53.181421" lon="-3.906082"><ele>415</ele><time>2020-08-16T15:00:33Z</time><name>PT10482</name></trkpt>
<trkpt lat="53.181405" lon="-3.906017"><ele>415</ele><time>2020-08-16T15:00:37Z</time><name>PT10483</name></trkpt>
<trkpt lat="53.181394" lon="-3.905940"><ele>416</ele><time>2020-08-16T15:00:41Z</time><name>PT10484</name></trkpt>
<trkpt lat="53.181382" lon="-3.905879"><ele>416</ele><time>2020-08-16T15:00:44Z</time><name>PT10485</name></trkpt>
<trkpt lat="53.181365" lon="-3.905797"><ele>417</ele><time>2020-08-16T15:00:48Z</time><name>PT10486</name></trkpt>
<trkpt lat="53.181348" lon="-3.905716"><ele>418</ele><time>2020-08-16T15:00:52Z</time><name>PT10487</name></trkpt>
<trkpt lat="53.181339" lon="-3.905659"><ele>419</ele><time>2020-08-16T15:00:55Z</time><name>PT10488</name></trkpt>
<trkpt lat="53.181322" lon="-3.905583"><ele>418</ele><time>2020-08-16T15:00:59Z</time><name>PT10489</name></trkpt>
<trkpt lat="53.181300" lon="-3.905499"><ele>417</ele><time>2020-08-16T15:01:03Z</time><name>PT10490</name></trkpt>
<trkpt lat="53.181285" lon="-3.905448"><ele>417</ele><time>2020-08-16T15:01:06Z</time><name>PT10491</name></trkpt>
<trkpt lat="53.181273" lon="-3.905402"><ele>417</ele><time>2020-08-16T15:01:09Z</time><name>PT10492</name></trkpt>
<trkpt lat="53.181258" lon="-3.905338"><ele>417</ele><time>2020-08-16T15:01:13Z</time><name>PT10493</name></trkpt>
<trkpt lat="53.181242" lon="-3.905269"><ele>416</ele><time>2020-08-16T15:01:17Z</time><name>PT10494</name></trkpt>
<trkpt lat="53.181229" lon="-3.905217"><ele>416</ele><time>2020-08-16T15:01:20Z</time><name>PT10495</name></trkpt>
<trkpt lat="53.181208" lon="-3.905149"><ele>415</ele><time>2020-08-16T15:01:24Z</time><name>PT10496</name></trkpt>
<trkpt lat="53.181197" lon="-3.905088"><ele>415</ele><time>2020-08-16T15:01:27Z</time><name>PT10497</name></trkpt>
<trkpt lat="53.181177" lon="-3.905019"><ele>414</ele><time>2020-08-16T15:01:31Z</time><name>PT10498</name></trkpt>
<trkpt lat="53.181155" lon="-3.904955"><ele>412</ele><time>2020-08-16T15:01:35Z</time><name>PT10499</name></trkpt>
<trkpt lat="53.181143" lon="-3.904902"><ele>412</ele><time>2020-08-16T15:01:38Z</time><name>PT10500</name></trkpt>
<trkpt lat="53.181130" lon="-3.904847"><ele>412</ele><time>2020-08-16T15:01:41Z</time><name>PT10501</name></trkpt>
<trkpt lat="53.181117" lon="-3.904785"><ele>412</ele><time>2020-08-16T15:01:44Z</time><name>PT10502</name></trkpt>
<trkpt lat="53.181101" lon="-3.904730"><ele>412</ele><time>2020-08-16T15:01:47Z</time><name>PT10503</name></trkpt>
<trkpt lat="53.181079" lon="-3.904663"><ele>412</ele><time>2020-08-16T15:01:50Z</time><name>PT10504</name></trkpt>
<trkpt lat="53.181055" lon="-3.904601"><ele>411</ele><time>2020-08-16T15:01:54Z</time><name>PT10505</name></trkpt>
<trkpt lat="53.181039" lon="-3.904546"><ele>411</ele><time>2020-08-16T15:01:57Z</time><name>PT10506</name></trkpt>
<trkpt lat="53.181023" lon="-3.904463"><ele>412</ele><time>2020-08-16T15:02:01Z</time><name>PT10507</name></trkpt>
<trkpt lat="53.181002" lon="-3.904420"><ele>411</ele><time>2020-08-16T15:02:04Z</time><name>PT10508</name></trkpt>
<trkpt lat="53.180989" lon="-3.904341"><ele>411</ele><time>2020-08-16T15:02:08Z</time><name>PT10509</name></trkpt>
<trkpt lat="53.180974" lon="-3.904288"><ele>410</ele><time>2020-08-16T15:02:11Z</time><name>PT10510</name></trkpt>
<trkpt lat="53.180951" lon="-3.904214"><ele>409</ele><time>2020-08-16T15:02:15Z</time><name>PT10511</name></trkpt>
<trkpt lat="53.180936" lon="-3.904132"><ele>409</ele><time>2020-08-16T15:02:19Z</time><name>PT10512</name></trkpt>
<trkpt lat="53.180910" lon="-3.904049"><ele>408</ele><time>2020-08-16T15:02:23Z</time><name>PT10513</name></trkpt>
<trkpt lat="53.180893" lon="-3.904000"><ele>407</ele><time>2020-08-16T15:02:26Z</time><name>PT10514</name></trkpt>
<trkpt lat="53.180877" lon="-3.903944"><ele>406</ele><time>2020-08-16T15:02:29Z</time><name>PT10515</name></trkpt>
<trkpt lat="53.180858" lon="-3.903868"><ele>406</ele><time>2020-08-16T15:02:33Z</time><name>PT10516</name></trkpt>
<trkpt lat="53.180835" lon="-3.903795"><ele>406</ele><time>2020-08-16T15:02:37Z</time><name>PT10517</name></trkpt>
<trkpt lat="53.180818" lon="-3.903728"><ele>406</ele><time>2020-08-16T15:02:40Z</time><name>PT10518</name></trkpt>
<trkpt lat="53.180803" lon="-3.903688"><ele>405</ele><time>2020-08-16T15:02:43Z</time><name>PT10519</name></trkpt>
<trkpt lat="53.180781" lon="-3.903617"><ele>405</ele><time>2020-08-16T15:02:47Z</time><name>PT10520</name></trkpt>
<trkpt lat="53.180760" lon="-3.903554"><ele>405</ele><time>2020-08-16T15:02:50Z</time><name>PT10521</name></trkpt>
<trkpt lat="53.180742" lon="-3.903511"><ele>405</ele><time>2020-08-16T15:02:53Z</time><name>PT10522</name></trkpt>
<trkpt lat="53.180721" lon="-3.903438"><ele>405</ele><time>2020-08-16T15:02:57Z</time><name>PT10523</name></trkpt>
<trkpt lat="53.180700" lon="-3.903377"><ele>404</ele><time>2020-08-16T15:03:01Z</time><name>PT10524</name></trkpt>
<trkpt lat="53.180676" lon="-3.903301"><ele>404</ele><time>2020-08-16T15:03:05Z</time><name>PT10525</name></trkpt>
<trkpt lat="53.180650" lon="-3.903228"><ele>403</ele><time>2020-08-16T15:03:09Z</time><name>PT10526</name></trkpt>
<trkpt lat="53.180621" lon="-3.903161"><ele>402</ele><time>2020-08-16T15:03:13Z</time><name>PT10527</name></trkpt>
<trkpt lat="53.180601" lon="-3.903087"><ele>402</ele><time>2020-08-16T15:03:17Z</time><name>PT10528</name></trkpt>
<trkpt lat="53.180582" lon="-3.903032"><ele>402</ele><time>2020-08-16T15:03:20Z</time><name>PT10529</name></trkpt>
<trkpt lat="53.180553" lon="-3.902961"><ele>401</ele><time>2020-08-16T15:03:24Z</time><name>PT10530</name></trkpt>
<trkpt lat="53.180532" lon="-3.902889"><ele>401</ele><time>2020-08-16T15:03:28Z</time><name>PT10531</name></trkpt>
<trkpt lat="53.180518" lon="-3.902844"><ele>401</ele><time>2020-08-16T15:03:31Z</time><name>PT10532</name></trkpt>
<trkpt lat="53.180496" lon="-3.902782"><ele>401</ele><time>2020-08-16T15:03:34Z</time><name>PT10533</name></trkpt>
<trkpt lat="53.180476" lon="-3.902727"><ele>400</ele><time>2020-08-16T15:03:37Z</time><name>PT10534</name></trkpt>
<trkpt lat="53.180444" lon="-3.902661"><ele>399</ele><time>2020-08-16T15:03:41Z</time><name>PT10535</name></trkpt>
<trkpt lat="53.180421" lon="-3.902598"><ele>399</ele><time>2020-08-16T15:03:45Z</time><name>PT10536</name></trkpt>
<trkpt lat="53.180393" lon="-3.902533"><ele>399</ele><time>2020-08-16T15:03:49Z</time><name>PT10537</name></trkpt>
<trkpt lat="53.180371" lon="-3.902493"><ele>398</ele><time>2020-08-16T15:03:52Z</time><name>PT10538</name></trkpt>
<trkpt lat="53.180344" lon="-3.902427"><ele>398</ele><time>2020-08-16T15:03:56Z</time><name>PT10539</name></trkpt>
<trkpt lat="53.180316" lon="-3.902373"><ele>398</ele><time>2020-08-16T15:04:00Z</time><name>PT10540</name></trkpt>
<trkpt lat="53.180298" lon="-3.902325"><ele>397</ele><time>2020-08-16T15:04:03Z</time><name>PT10541</name></trkpt>
<trkpt lat="53.180271" lon="-3.902267"><ele>396</ele><time>2020-08-16T15:04:07Z</time><name>PT10542</name></trkpt>
<trkpt lat="53.180243" lon="-3.902202"><ele>396</ele><time>2020-08-16T15:04:11Z</time><name>PT10543</name></trkpt>
<trkpt lat="53.180218" lon="-3.902143"><ele>396</ele><time>2020-08-16T15:04:15Z</time><name>PT10544</name></trkpt>
<trkpt lat="53.180198" lon="-3.902096"><ele>395</ele><time>2020-08-16T15:04:18Z</time><name>PT10545</name></trkpt>
<trkpt lat="53.180179" lon="-3.902039"><ele>395</ele><time>2020-08-16T15:04:21Z</time><name>PT10546</name></trkpt>
<trkpt lat="53.180147" lon="-3.901971"><ele>394</ele><time>2020-08-16T15:04:25Z</time><name>PT10547</name></trkpt>
<trkpt lat="53.180123" lon="-3.901897"><ele>395</ele><time>2020-08-16T15:04:29Z</time><name>PT10548</name></trkpt>
<trkpt lat="53.180091" lon="-3.901829"><ele>394</ele><time>2020-08-16T15:04:33Z</time><name>PT10549</name></trkpt>
<trkpt lat="53.180062" lon="-3.901758"><ele>393</ele><time>2020-08-16T15:04:37Z</time><name>PT10550</name></trkpt>
<trkpt lat="53.180036" lon="-3.901683"><ele>392</ele><time>2020-08-16T15:04:41Z</time><name>PT10551</name></trkpt>
<trkpt lat="53.180013" lon="-3.901633"><ele>392</ele><time>2020-08-16T15:04:44Z</time><name>PT10552</name></trkpt>
<trkpt lat="53.179986" lon="-3.901561"><ele>391</ele><time>2020-08-16T15:04:48Z</time><name>PT10553</name></trkpt>
<trkpt lat="53.179957" lon="-3.901487"><ele>391</ele><time>2020-08-16T15:04:52Z</time><name>PT10554</name></trkpt>
<trkpt lat="53.179936" lon="-3.901441"><ele>391</ele><time>2020-08-16T15:04:55Z</time><name>PT10555</name></trkpt>
<trkpt lat="53.179917" lon="-3.901388"><ele>391</ele><time>2020-08-16T15:04:58Z</time><name>PT10556</name></trkpt>
<trkpt lat="53.179889" lon="-3.901310"><ele>390</ele><time>2020-08-16T15:05:02Z</time><name>PT10557</name></trkpt>
<trkpt lat="53.179858" lon="-3.901226"><ele>391</ele><time>2020-08-16T15:05:06Z</time><name>PT10558</name></trkpt>
<trkpt lat="53.179832" lon="-3.901145"><ele>391</ele><time>2020-08-16T15:05:10Z</time><name>PT10559</name></trkpt>
<trkpt lat="53.179809" lon="-3.901087"><ele>391</ele><time>2020-08-16T15:05:13Z</time><name>PT10560</name></trkpt>
<trkpt lat="53.179778" lon="-3.901013"><ele>391</ele><time>2020-08-16T15:05:17Z</time><name>PT10561</name></trkpt>
<trkpt lat="53.179748" lon="-3.900947"><ele>390</ele><time>2020-08-16T15:05:21Z</time><name>PT10562</name></trkpt>
<trkpt lat="53.179729" lon="-3.900884"><ele>390</ele><time>2020-08-16T15:05:24Z</time><name>PT10563</name></trkpt>
<trkpt lat="53.179701" lon="-3.900818"><ele>390</ele><time>2020-08-16T15:05:28Z</time><name>PT10564</name></trkpt>
<trkpt lat="53.179672" lon="-3.900764"><ele>389</ele><time>2020-08-16T15:05:32Z</time><name>PT10565</name></trkpt>
<trkpt lat="53.179651" lon="-3.900719"><ele>389</ele><time>2020-08-16T15:05:35Z</time><name>PT10566</name></trkpt>
<trkpt lat="53.179630" lon="-3.900676"><ele>388</ele><time>2020-08-16T15:05:38Z</time><name>PT10567</name></trkpt>
<trkpt lat="53.179605" lon="-3.900610"><ele>388</ele><time>2020-08-16T15:05:42Z</time><name>PT10568</name></trkpt>
<trkpt lat="53.179586" lon="-3.900559"><ele>387</ele><time>2020-08-16T15:05:45Z</time><name>PT10569</name></trkpt>
<trkpt lat="53.179561" lon="-3.900502"><ele>387</ele><time>2020-08-16T15:05:49Z</time><name>PT10570</name></trkpt>
<trkpt lat="53.179538" lon="-3.900460"><ele>387</ele><time>2020-08-16T15:05:52Z</time><name>PT10571</name></trkpt>
<trkpt lat="53.179512" lon="-3.900410"><ele>386</ele><time>2020-08-16T15:05:55Z</time><name>PT10572</name></trkpt>
<trkpt lat="53.179493" lon="-3.900358"><ele>385</ele><time>2020-08-16T15:05:58Z</time><name>PT10573</name></trkpt>
<trkpt lat="53.179468" lon="-3.900312"><ele>385</ele><time>2020-08-16T15:06:01Z</time><name>PT10574</name></trkpt>
<trkpt lat="53.179440" lon="-3.900245"><ele>384</ele><time>2020-08-16T15:06:05Z</time><name>PT10575</name></trkpt>
<trkpt lat="53.179411" lon="-3.900162"><ele>385</ele><time>2020-08-16T15:06:09Z</time><name>PT10576</name></trkpt>
<trkpt lat="53.179388" lon="-3.900116"><ele>384</ele><time>2020-08-16T15:06:12Z</time><name>PT10577</name></trkpt>
<trkpt lat="53.179359" lon="-3.900038"><ele>384</ele><time>2020-08-16T15:06:15Z</time><name>PT10578</name></trkpt>
<trkpt lat="53.179352" lon="-3.899996"><ele>384</ele><time>2020-08-16T15:06:17Z</time><name>PT10579</name></trkpt>
<trkpt lat="53.179343" lon="-3.899978"><ele>384</ele><time>2020-08-16T15:06:18Z</time><name>PT10580</name></trkpt>
<trkpt lat="53.179336" lon="-3.899956"><ele>384</ele><time>2020-08-16T15:06:19Z</time><name>PT10581</name></trkpt>
<trkpt lat="53.179330" lon="-3.899937"><ele>384</ele><time>2020-08-16T15:06:20Z</time><name>PT10582</name></trkpt>
<trkpt lat="53.179324" lon="-3.899918"><ele>384</ele><time>2020-08-16T15:06:21Z</time><name>PT10583</name></trkpt>
<trkpt lat="53.179317" lon="-3.899901"><ele>384</ele><time>2020-08-16T15:06:22Z</time><name>PT10584</name></trkpt>
<trkpt lat="53.179311" lon="-3.899884"><ele>384</ele><time>2020-08-16T15:06:23Z</time><name>PT10585</name></trkpt>
<trkpt lat="53.179303" lon="-3.899865"><ele>384</ele><time>2020-08-16T15:06:24Z</time><name>PT10586</name></trkpt>
<trkpt lat="53.179297" lon="-3.899847"><ele>384</ele><time>2020-08-16T15:06:25Z</time><name>PT10587</name></trkpt>
<trkpt lat="53.179290" lon="-3.899832"><ele>384</ele><time>2020-08-16T15:06:26Z</time><name>PT10588</name></trkpt>
<trkpt lat="53.179282" lon="-3.899817"><ele>384</ele><time>2020-08-16T15:06:27Z</time><name>PT10589</name></trkpt>
<trkpt lat="53.179277" lon="-3.899798"><ele>383</ele><time>2020-08-16T15:06:28Z</time><name>PT10590</name></trkpt>
<trkpt lat="53.179270" lon="-3.899777"><ele>383</ele><time>2020-08-16T15:06:29Z</time><name>PT10591</name></trkpt>
<trkpt lat="53.179264" lon="-3.899761"><ele>383</ele><time>2020-08-16T15:06:30Z</time><name>PT10592</name></trkpt>
<trkpt lat="53.179262" lon="-3.899758"><ele>383</ele><time>2020-08-16T15:06:31Z</time><name>PT10593</name></trkpt>
<trkpt lat="53.179261" lon="-3.899747"><ele>383</ele><time>2020-08-16T15:06:32Z</time><name>PT10594</name></trkpt>
<trkpt lat="53.179253" lon="-3.899718"><ele>383</ele><time>2020-08-16T15:06:33Z</time><name>PT10595</name></trkpt>
<trkpt lat="53.179244" lon="-3.899681"><ele>383</ele><time>2020-08-16T15:06:34Z</time><name>PT10596</name></trkpt>
<trkpt lat="53.179238" lon="-3.899661"><ele>383</ele><time>2020-08-16T15:06:35Z</time><name>PT10597</name></trkpt>
<trkpt lat="53.179234" lon="-3.899656"><ele>383</ele><time>2020-08-16T15:06:37Z</time><name>PT10598</name></trkpt>
<trkpt lat="53.179229" lon="-3.899649"><ele>383</ele><time>2020-08-16T15:06:37Z</time><name>PT10599</name></trkpt>
<trkpt lat="53.179218" lon="-3.899621"><ele>383</ele><time>2020-08-16T15:06:38Z</time><name>PT10600</name></trkpt>
<trkpt lat="53.179207" lon="-3.899592"><ele>383</ele><time>2020-08-16T15:06:39Z</time><name>PT10601</name></trkpt>
<trkpt lat="53.179200" lon="-3.899569"><ele>383</ele><time>2020-08-16T15:06:40Z</time><name>PT10602</name></trkpt>
<trkpt lat="53.179200" lon="-3.899551"><ele>383</ele><time>2020-08-16T15:06:41Z</time><name>PT10603</name></trkpt>
<trkpt lat="53.179198" lon="-3.899540"><ele>383</ele><time>2020-08-16T15:06:42Z</time><name>PT10604</name></trkpt>
<trkpt lat="53.179191" lon="-3.899526"><ele>383</ele><time>2020-08-16T15:06:43Z</time><name>PT10605</name></trkpt>
<trkpt lat="53.179179" lon="-3.899506"><ele>383</ele><time>2020-08-16T15:06:44Z</time><name>PT10606</name></trkpt>
<trkpt lat="53.179171" lon="-3.899481"><ele>383</ele><time>2020-08-16T15:06:45Z</time><name>PT10607</name></trkpt>
<trkpt lat="53.179165" lon="-3.899470"><ele>383</ele><time>2020-08-16T15:06:46Z</time><name>PT10608</name></trkpt>
<trkpt lat="53.179164" lon="-3.899465"><ele>383</ele><time>2020-08-16T15:06:47Z</time><name>PT10609</name></trkpt>
<trkpt lat="53.179159" lon="-3.899450"><ele>383</ele><time>2020-08-16T15:06:48Z</time><name>PT10610</name></trkpt>
<trkpt lat="53.179147" lon="-3.899421"><ele>382</ele><time>2020-08-16T15:06:49Z</time><name>PT10611</name></trkpt>
<trkpt lat="53.179137" lon="-3.899395"><ele>382</ele><time>2020-08-16T15:06:50Z</time><name>PT10612</name></trkpt>
<trkpt lat="53.179130" lon="-3.899377"><ele>381</ele><time>2020-08-16T15:06:52Z</time><name>PT10613</name></trkpt>
<trkpt lat="53.179128" lon="-3.899378"><ele>382</ele><time>2020-08-16T15:06:52Z</time><name>PT10614</name></trkpt>
<trkpt lat="53.179127" lon="-3.899368"><ele>382</ele><time>2020-08-16T15:06:53Z</time><name>PT10615</name></trkpt>
<trkpt lat="53.179116" lon="-3.899335"><ele>381</ele><time>2020-08-16T15:06:54Z</time><name>PT10616</name></trkpt>
<trkpt lat="53.179104" lon="-3.899301"><ele>381</ele><time>2020-08-16T15:06:55Z</time><name>PT10617</name></trkpt>
<trkpt lat="53.179097" lon="-3.899277"><ele>381</ele><time>2020-08-16T15:06:56Z</time><name>PT10618</name></trkpt>
<trkpt lat="53.179094" lon="-3.899266"><ele>381</ele><time>2020-08-16T15:06:57Z</time><name>PT10619</name></trkpt>
<trkpt lat="53.179091" lon="-3.899260"><ele>381</ele><time>2020-08-16T15:06:58Z</time><name>PT10620</name></trkpt>
<trkpt lat="53.179082" lon="-3.899242"><ele>381</ele><time>2020-08-16T15:06:59Z</time><name>PT10621</name></trkpt>
<trkpt lat="53.179069" lon="-3.899215"><ele>380</ele><time>2020-08-16T15:07:00Z</time><name>PT10622</name></trkpt>
<trkpt lat="53.179055" lon="-3.899181"><ele>380</ele><time>2020-08-16T15:07:01Z</time><name>PT10623</name></trkpt>
<trkpt lat="53.179046" lon="-3.899160"><ele>380</ele><time>2020-08-16T15:07:02Z</time><name>PT10624</name></trkpt>
<trkpt lat="53.179042" lon="-3.899153"><ele>380</ele><time>2020-08-16T15:07:03Z</time><name>PT10625</name></trkpt>
<trkpt lat="53.179041" lon="-3.899149"><ele>379</ele><time>2020-08-16T15:07:04Z</time><name>PT10626</name></trkpt>
<trkpt lat="53.179034" lon="-3.899141"><ele>379</ele><time>2020-08-16T15:07:05Z</time><name>PT10627</name></trkpt>
<trkpt lat="53.179020" lon="-3.899122"><ele>379</ele><time>2020-08-16T15:07:06Z</time><name>PT10628</name></trkpt>
<trkpt lat="53.179002" lon="-3.899099"><ele>379</ele><time>2020-08-16T15:07:07Z</time><name>PT10629</name></trkpt>
<trkpt lat="53.178990" lon="-3.899083"><ele>379</ele><time>2020-08-16T15:07:08Z</time><name>PT10630</name></trkpt>
<trkpt lat="53.178983" lon="-3.899078"><ele>379</ele><time>2020-08-16T15:07:09Z</time><name>PT10631</name></trkpt>
<trkpt lat="53.178979" lon="-3.899072"><ele>379</ele><time>2020-08-16T15:07:10Z</time><name>PT10632</name></trkpt>
<trkpt lat="53.178965" lon="-3.899054"><ele>378</ele><time>2020-08-16T15:07:11Z</time><name>PT10633</name></trkpt>
<trkpt lat="53.178948" lon="-3.899034"><ele>378</ele><time>2020-08-16T15:07:12Z</time><name>PT10634</name></trkpt>
<trkpt lat="53.178935" lon="-3.899017"><ele>378</ele><time>2020-08-16T15:07:13Z</time><name>PT10635</name></trkpt>
<trkpt lat="53.178927" lon="-3.899009"><ele>378</ele><time>2020-08-16T15:07:14Z</time><name>PT10636</name></trkpt>
<trkpt lat="53.178922" lon="-3.899007"><ele>378</ele><time>2020-08-16T15:07:15Z</time><name>PT10637</name></trkpt>
<trkpt lat="53.178912" lon="-3.899007"><ele>378</ele><time>2020-08-16T15:07:16Z</time><name>PT10638</name></trkpt>
<trkpt lat="53.178900" lon="-3.899006"><ele>379</ele><time>2020-08-16T15:07:17Z</time><name>PT10639</name></trkpt>
<trkpt lat="53.178890" lon="-3.899004"><ele>378</ele><time>2020-08-16T15:07:18Z</time><name>PT10640</name></trkpt>
<trkpt lat="53.178884" lon="-3.898997"><ele>379</ele><time>2020-08-16T15:07:19Z</time><name>PT10641</name></trkpt>
<trkpt lat="53.178882" lon="-3.898990"><ele>379</ele><time>2020-08-16T15:07:20Z</time><name>PT10642</name></trkpt>
<trkpt lat="53.178880" lon="-3.898988"><ele>380</ele><time>2020-08-16T15:07:21Z</time><name>PT10643</name></trkpt>
<trkpt lat="53.178880" lon="-3.898990"><ele>379</ele><time>2020-08-16T15:07:22Z</time><name>PT10644</name></trkpt>
<trkpt lat="53.178877" lon="-3.898995"><ele>379</ele><time>2020-08-16T15:07:23Z</time><name>PT10645</name></trkpt>
<trkpt lat="53.178868" lon="-3.899000"><ele>379</ele><time>2020-08-16T15:07:24Z</time><name>PT10646</name></trkpt>
<trkpt lat="53.178862" lon="-3.898998"><ele>378</ele><time>2020-08-16T15:07:25Z</time><name>PT10647</name></trkpt>
<trkpt lat="53.178858" lon="-3.898990"><ele>378</ele><time>2020-08-16T15:07:26Z</time><name>PT10648</name></trkpt>
<trkpt lat="53.178861" lon="-3.898977"><ele>378</ele><time>2020-08-16T15:07:27Z</time><name>PT10649</name></trkpt>
<trkpt lat="53.178864" lon="-3.898972"><ele>378</ele><time>2020-08-16T15:07:28Z</time><name>PT10650</name></trkpt>
<trkpt lat="53.178865" lon="-3.898969"><ele>378</ele><time>2020-08-16T15:07:29Z</time><name>PT10651</name></trkpt>
<trkpt lat="53.178866" lon="-3.898971"><ele>378</ele><time>2020-08-16T15:07:30Z</time><name>PT10652</name></trkpt>
<trkpt lat="53.178866" lon="-3.898970"><ele>379</ele><time>2020-08-16T15:07:31Z</time><name>PT10653</name></trkpt>
<trkpt lat="53.178866" lon="-3.898973"><ele>379</ele><time>2020-08-16T15:07:32Z</time><name>PT10654</name></trkpt>
<trkpt lat="53.178864" lon="-3.898972"><ele>379</ele><time>2020-08-16T15:07:33Z</time><name>PT10655</name></trkpt>
<trkpt lat="53.178863" lon="-3.898970"><ele>379</ele><time>2020-08-16T15:07:34Z</time><name>PT10656</name></trkpt>
<trkpt lat="53.178862" lon="-3.898968"><ele>380</ele><time>2020-08-16T15:07:35Z</time><name>PT10657</name></trkpt></trkseg></trk></gpx>